<?xml version="1.0"?>
<gpx xmlns="http://www.topografix.com/GPX/1/1" xmlns:xsi="http://www.w3.org/2001/XMLSchema-instance" version="1.1" creator="GPX RubyGem 1.0.0 -- http://dougfales.github.io/gpx/" xsi:schemaLocation="http://www.topografix.com/GPX/1/1 http://www.topografix.com/GPX/1/1/gpx.xsd">
  <metadata>
    <name/>
    <time>2026-05-08T00:15:36+00:00</time>
    <bound minlat="90.0" minlon="180.0" maxlat="-90.0" maxlon="-180.0"/>
  </metadata>
  <trk>
    <name/>
    <trkseg>
      <trkpt lat="45.297223" lon="7.084297">
        <time>2023-04-26T05:49:51+00:00</time>
        <ele>2210.0</ele>
      </trkpt>
      <trkpt lat="45.297215" lon="7.084328">
        <time>2023-04-26T05:49:52+00:00</time>
        <ele>2210.0</ele>
      </trkpt>
      <trkpt lat="45.297155" lon="7.084316">
        <time>2023-04-26T05:50:00+00:00</time>
        <ele>2209.0</ele>
      </trkpt>
      <trkpt lat="45.297129" lon="7.084359">
        <time>2023-04-26T05:50:32+00:00</time>
        <ele>2209.0</ele>
      </trkpt>
      <trkpt lat="45.297118" lon="7.084397">
        <time>2023-04-26T05:50:35+00:00</time>
        <ele>2209.0</ele>
      </trkpt>
      <trkpt lat="45.297111" lon="7.084436">
        <time>2023-04-26T05:50:38+00:00</time>
        <ele>2209.0</ele>
      </trkpt>
      <trkpt lat="45.297101" lon="7.08451">
        <time>2023-04-26T05:50:42+00:00</time>
        <ele>2209.0</ele>
      </trkpt>
      <trkpt lat="45.297033" lon="7.084649">
        <time>2023-04-26T05:50:51+00:00</time>
        <ele>2207.0</ele>
      </trkpt>
      <trkpt lat="45.297016" lon="7.084706">
        <time>2023-04-26T05:50:54+00:00</time>
        <ele>2206.0</ele>
      </trkpt>
      <trkpt lat="45.297017" lon="7.084792">
        <time>2023-04-26T05:50:58+00:00</time>
        <ele>2206.0</ele>
      </trkpt>
      <trkpt lat="45.297003" lon="7.084846">
        <time>2023-04-26T05:51:01+00:00</time>
        <ele>2205.0</ele>
      </trkpt>
      <trkpt lat="45.297026" lon="7.085038">
        <time>2023-04-26T05:51:13+00:00</time>
        <ele>2203.0</ele>
      </trkpt>
      <trkpt lat="45.297027" lon="7.085085">
        <time>2023-04-26T05:51:17+00:00</time>
        <ele>2203.0</ele>
      </trkpt>
      <trkpt lat="45.297012" lon="7.085123">
        <time>2023-04-26T05:51:22+00:00</time>
        <ele>2202.0</ele>
      </trkpt>
      <trkpt lat="45.297002" lon="7.085174">
        <time>2023-04-26T05:51:26+00:00</time>
        <ele>2200.0</ele>
      </trkpt>
      <trkpt lat="45.297018" lon="7.085218">
        <time>2023-04-26T05:51:29+00:00</time>
        <ele>2200.0</ele>
      </trkpt>
      <trkpt lat="45.29702" lon="7.085252">
        <time>2023-04-26T05:51:32+00:00</time>
        <ele>2200.0</ele>
      </trkpt>
      <trkpt lat="45.297024" lon="7.085337">
        <time>2023-04-26T05:51:37+00:00</time>
        <ele>2199.0</ele>
      </trkpt>
      <trkpt lat="45.297005" lon="7.085381">
        <time>2023-04-26T05:51:41+00:00</time>
        <ele>2198.0</ele>
      </trkpt>
      <trkpt lat="45.297" lon="7.085419">
        <time>2023-04-26T05:51:44+00:00</time>
        <ele>2197.0</ele>
      </trkpt>
      <trkpt lat="45.297002" lon="7.085501">
        <time>2023-04-26T05:51:52+00:00</time>
        <ele>2196.0</ele>
      </trkpt>
      <trkpt lat="45.297014" lon="7.085546">
        <time>2023-04-26T05:51:56+00:00</time>
        <ele>2196.0</ele>
      </trkpt>
      <trkpt lat="45.29701" lon="7.085743">
        <time>2023-04-26T05:52:08+00:00</time>
        <ele>2195.0</ele>
      </trkpt>
      <trkpt lat="45.296997" lon="7.085806">
        <time>2023-04-26T05:52:12+00:00</time>
        <ele>2194.0</ele>
      </trkpt>
      <trkpt lat="45.296982" lon="7.085856">
        <time>2023-04-26T05:52:17+00:00</time>
        <ele>2194.0</ele>
      </trkpt>
      <trkpt lat="45.296962" lon="7.085899">
        <time>2023-04-26T05:52:22+00:00</time>
        <ele>2192.0</ele>
      </trkpt>
      <trkpt lat="45.296955" lon="7.085992">
        <time>2023-04-26T05:52:27+00:00</time>
        <ele>2192.0</ele>
      </trkpt>
      <trkpt lat="45.296938" lon="7.086071">
        <time>2023-04-26T05:52:31+00:00</time>
        <ele>2191.0</ele>
      </trkpt>
      <trkpt lat="45.296938" lon="7.086245">
        <time>2023-04-26T05:52:41+00:00</time>
        <ele>2192.0</ele>
      </trkpt>
      <trkpt lat="45.296931" lon="7.086361">
        <time>2023-04-26T05:52:48+00:00</time>
        <ele>2192.0</ele>
      </trkpt>
      <trkpt lat="45.29691" lon="7.086402">
        <time>2023-04-26T05:52:51+00:00</time>
        <ele>2191.0</ele>
      </trkpt>
      <trkpt lat="45.296874" lon="7.086504">
        <time>2023-04-26T05:52:59+00:00</time>
        <ele>2189.0</ele>
      </trkpt>
      <trkpt lat="45.296859" lon="7.086613">
        <time>2023-04-26T05:53:05+00:00</time>
        <ele>2189.0</ele>
      </trkpt>
      <trkpt lat="45.296849" lon="7.086665">
        <time>2023-04-26T05:53:08+00:00</time>
        <ele>2188.0</ele>
      </trkpt>
      <trkpt lat="45.296834" lon="7.086712">
        <time>2023-04-26T05:53:11+00:00</time>
        <ele>2188.0</ele>
      </trkpt>
      <trkpt lat="45.296825" lon="7.086767">
        <time>2023-04-26T05:53:15+00:00</time>
        <ele>2188.0</ele>
      </trkpt>
      <trkpt lat="45.296818" lon="7.086817">
        <time>2023-04-26T05:53:18+00:00</time>
        <ele>2188.0</ele>
      </trkpt>
      <trkpt lat="45.296817" lon="7.086896">
        <time>2023-04-26T05:53:22+00:00</time>
        <ele>2188.0</ele>
      </trkpt>
      <trkpt lat="45.296806" lon="7.086953">
        <time>2023-04-26T05:53:25+00:00</time>
        <ele>2189.0</ele>
      </trkpt>
      <trkpt lat="45.296759" lon="7.087092">
        <time>2023-04-26T05:53:35+00:00</time>
        <ele>2188.0</ele>
      </trkpt>
      <trkpt lat="45.296749" lon="7.087197">
        <time>2023-04-26T05:53:42+00:00</time>
        <ele>2189.0</ele>
      </trkpt>
      <trkpt lat="45.296622" lon="7.087599">
        <time>2023-04-26T05:54:09+00:00</time>
        <ele>2187.0</ele>
      </trkpt>
      <trkpt lat="45.296594" lon="7.087714">
        <time>2023-04-26T05:54:16+00:00</time>
        <ele>2188.0</ele>
      </trkpt>
      <trkpt lat="45.296573" lon="7.087763">
        <time>2023-04-26T05:54:19+00:00</time>
        <ele>2187.0</ele>
      </trkpt>
      <trkpt lat="45.296519" lon="7.087839">
        <time>2023-04-26T05:54:26+00:00</time>
        <ele>2186.0</ele>
      </trkpt>
      <trkpt lat="45.296496" lon="7.087889">
        <time>2023-04-26T05:54:32+00:00</time>
        <ele>2186.0</ele>
      </trkpt>
      <trkpt lat="45.296465" lon="7.087978">
        <time>2023-04-26T05:54:42+00:00</time>
        <ele>2187.0</ele>
      </trkpt>
      <trkpt lat="45.296436" lon="7.087989">
        <time>2023-04-26T05:54:49+00:00</time>
        <ele>2186.0</ele>
      </trkpt>
      <trkpt lat="45.296408" lon="7.088021">
        <time>2023-04-26T05:54:52+00:00</time>
        <ele>2187.0</ele>
      </trkpt>
      <trkpt lat="45.296311" lon="7.088058">
        <time>2023-04-26T05:55:04+00:00</time>
        <ele>2186.0</ele>
      </trkpt>
      <trkpt lat="45.296143" lon="7.088182">
        <time>2023-04-26T05:55:20+00:00</time>
        <ele>2186.0</ele>
      </trkpt>
      <trkpt lat="45.29601" lon="7.088363">
        <time>2023-04-26T05:55:36+00:00</time>
        <ele>2186.0</ele>
      </trkpt>
      <trkpt lat="45.295854" lon="7.088705">
        <time>2023-04-26T05:55:59+00:00</time>
        <ele>2185.0</ele>
      </trkpt>
      <trkpt lat="45.295736" lon="7.088924">
        <time>2023-04-26T05:56:18+00:00</time>
        <ele>2183.0</ele>
      </trkpt>
      <trkpt lat="45.295668" lon="7.089073">
        <time>2023-04-26T05:56:30+00:00</time>
        <ele>2183.0</ele>
      </trkpt>
      <trkpt lat="45.295586" lon="7.089277">
        <time>2023-04-26T05:56:45+00:00</time>
        <ele>2183.0</ele>
      </trkpt>
      <trkpt lat="45.2955" lon="7.089493">
        <time>2023-04-26T05:57:01+00:00</time>
        <ele>2183.0</ele>
      </trkpt>
      <trkpt lat="45.295307" lon="7.089684">
        <time>2023-04-26T05:57:27+00:00</time>
        <ele>2182.0</ele>
      </trkpt>
      <trkpt lat="45.295278" lon="7.089705">
        <time>2023-04-26T05:57:31+00:00</time>
        <ele>2181.0</ele>
      </trkpt>
      <trkpt lat="45.295067" lon="7.089972">
        <time>2023-04-26T05:57:55+00:00</time>
        <ele>2182.0</ele>
      </trkpt>
      <trkpt lat="45.295031" lon="7.089995">
        <time>2023-04-26T05:57:59+00:00</time>
        <ele>2181.0</ele>
      </trkpt>
      <trkpt lat="45.294878" lon="7.090178">
        <time>2023-04-26T05:58:17+00:00</time>
        <ele>2181.0</ele>
      </trkpt>
      <trkpt lat="45.294839" lon="7.090208">
        <time>2023-04-26T05:58:21+00:00</time>
        <ele>2181.0</ele>
      </trkpt>
      <trkpt lat="45.294675" lon="7.090395">
        <time>2023-04-26T05:58:42+00:00</time>
        <ele>2181.0</ele>
      </trkpt>
      <trkpt lat="45.294639" lon="7.09043">
        <time>2023-04-26T05:58:47+00:00</time>
        <ele>2181.0</ele>
      </trkpt>
      <trkpt lat="45.294441" lon="7.090762">
        <time>2023-04-26T05:59:17+00:00</time>
        <ele>2183.0</ele>
      </trkpt>
      <trkpt lat="45.294422" lon="7.090827">
        <time>2023-04-26T05:59:21+00:00</time>
        <ele>2183.0</ele>
      </trkpt>
      <trkpt lat="45.294401" lon="7.090884">
        <time>2023-04-26T05:59:25+00:00</time>
        <ele>2183.0</ele>
      </trkpt>
      <trkpt lat="45.294376" lon="7.090937">
        <time>2023-04-26T05:59:29+00:00</time>
        <ele>2183.0</ele>
      </trkpt>
      <trkpt lat="45.294353" lon="7.091053">
        <time>2023-04-26T05:59:37+00:00</time>
        <ele>2184.0</ele>
      </trkpt>
      <trkpt lat="45.29433" lon="7.091097">
        <time>2023-04-26T05:59:41+00:00</time>
        <ele>2184.0</ele>
      </trkpt>
      <trkpt lat="45.294301" lon="7.091134">
        <time>2023-04-26T05:59:45+00:00</time>
        <ele>2184.0</ele>
      </trkpt>
      <trkpt lat="45.294173" lon="7.091345">
        <time>2023-04-26T06:00:07+00:00</time>
        <ele>2182.0</ele>
      </trkpt>
      <trkpt lat="45.294147" lon="7.091391">
        <time>2023-04-26T06:00:12+00:00</time>
        <ele>2182.0</ele>
      </trkpt>
      <trkpt lat="45.294142" lon="7.091449">
        <time>2023-04-26T06:00:16+00:00</time>
        <ele>2183.0</ele>
      </trkpt>
      <trkpt lat="45.294115" lon="7.091484">
        <time>2023-04-26T06:00:20+00:00</time>
        <ele>2182.0</ele>
      </trkpt>
      <trkpt lat="45.294105" lon="7.091523">
        <time>2023-04-26T06:00:25+00:00</time>
        <ele>2183.0</ele>
      </trkpt>
      <trkpt lat="45.294103" lon="7.091578">
        <time>2023-04-26T06:00:32+00:00</time>
        <ele>2185.0</ele>
      </trkpt>
      <trkpt lat="45.294092" lon="7.091681">
        <time>2023-04-26T06:00:44+00:00</time>
        <ele>2188.0</ele>
      </trkpt>
      <trkpt lat="45.294091" lon="7.091734">
        <time>2023-04-26T06:00:51+00:00</time>
        <ele>2190.0</ele>
      </trkpt>
      <trkpt lat="45.294068" lon="7.091791">
        <time>2023-04-26T06:00:58+00:00</time>
        <ele>2192.0</ele>
      </trkpt>
      <trkpt lat="45.294043" lon="7.091828">
        <time>2023-04-26T06:01:02+00:00</time>
        <ele>2192.0</ele>
      </trkpt>
      <trkpt lat="45.294001" lon="7.091939">
        <time>2023-04-26T06:01:17+00:00</time>
        <ele>2194.0</ele>
      </trkpt>
      <trkpt lat="45.29397" lon="7.091969">
        <time>2023-04-26T06:01:23+00:00</time>
        <ele>2194.0</ele>
      </trkpt>
      <trkpt lat="45.293956" lon="7.09203">
        <time>2023-04-26T06:01:32+00:00</time>
        <ele>2195.0</ele>
      </trkpt>
      <trkpt lat="45.293926" lon="7.092076">
        <time>2023-04-26T06:01:37+00:00</time>
        <ele>2196.0</ele>
      </trkpt>
      <trkpt lat="45.293906" lon="7.09213">
        <time>2023-04-26T06:01:43+00:00</time>
        <ele>2197.0</ele>
      </trkpt>
      <trkpt lat="45.293878" lon="7.09216">
        <time>2023-04-26T06:01:47+00:00</time>
        <ele>2197.0</ele>
      </trkpt>
      <trkpt lat="45.293842" lon="7.092248">
        <time>2023-04-26T06:01:57+00:00</time>
        <ele>2198.0</ele>
      </trkpt>
      <trkpt lat="45.293836" lon="7.092292">
        <time>2023-04-26T06:02:04+00:00</time>
        <ele>2199.0</ele>
      </trkpt>
      <trkpt lat="45.293809" lon="7.092329">
        <time>2023-04-26T06:02:10+00:00</time>
        <ele>2199.0</ele>
      </trkpt>
      <trkpt lat="45.293793" lon="7.092385">
        <time>2023-04-26T06:02:17+00:00</time>
        <ele>2199.0</ele>
      </trkpt>
      <trkpt lat="45.293769" lon="7.092429">
        <time>2023-04-26T06:02:23+00:00</time>
        <ele>2199.0</ele>
      </trkpt>
      <trkpt lat="45.293764" lon="7.092482">
        <time>2023-04-26T06:02:28+00:00</time>
        <ele>2200.0</ele>
      </trkpt>
      <trkpt lat="45.293737" lon="7.092702">
        <time>2023-04-26T06:03:00+00:00</time>
        <ele>2203.0</ele>
      </trkpt>
      <trkpt lat="45.293707" lon="7.092746">
        <time>2023-04-26T06:03:06+00:00</time>
        <ele>2202.0</ele>
      </trkpt>
      <trkpt lat="45.293686" lon="7.092794">
        <time>2023-04-26T06:03:12+00:00</time>
        <ele>2202.0</ele>
      </trkpt>
      <trkpt lat="45.29367" lon="7.092849">
        <time>2023-04-26T06:03:17+00:00</time>
        <ele>2202.0</ele>
      </trkpt>
      <trkpt lat="45.293691" lon="7.092889">
        <time>2023-04-26T06:03:22+00:00</time>
        <ele>2204.0</ele>
      </trkpt>
      <trkpt lat="45.293686" lon="7.092941">
        <time>2023-04-26T06:03:29+00:00</time>
        <ele>2204.0</ele>
      </trkpt>
      <trkpt lat="45.29367" lon="7.092993">
        <time>2023-04-26T06:03:36+00:00</time>
        <ele>2204.0</ele>
      </trkpt>
      <trkpt lat="45.293664" lon="7.093068">
        <time>2023-04-26T06:03:46+00:00</time>
        <ele>2205.0</ele>
      </trkpt>
      <trkpt lat="45.293646" lon="7.093142">
        <time>2023-04-26T06:03:51+00:00</time>
        <ele>2206.0</ele>
      </trkpt>
      <trkpt lat="45.293643" lon="7.093201">
        <time>2023-04-26T06:03:59+00:00</time>
        <ele>2208.0</ele>
      </trkpt>
      <trkpt lat="45.29366" lon="7.093237">
        <time>2023-04-26T06:04:07+00:00</time>
        <ele>2210.0</ele>
      </trkpt>
      <trkpt lat="45.293642" lon="7.093258">
        <time>2023-04-26T06:04:45+00:00</time>
        <ele>2210.0</ele>
      </trkpt>
      <trkpt lat="45.293617" lon="7.09328">
        <time>2023-04-26T06:05:07+00:00</time>
        <ele>2210.0</ele>
      </trkpt>
      <trkpt lat="45.293587" lon="7.093309">
        <time>2023-04-26T06:05:28+00:00</time>
        <ele>2210.0</ele>
      </trkpt>
      <trkpt lat="45.293613" lon="7.093322">
        <time>2023-04-26T06:07:29+00:00</time>
        <ele>2211.0</ele>
      </trkpt>
      <trkpt lat="45.293627" lon="7.093291">
        <time>2023-04-26T06:09:50+00:00</time>
        <ele>2211.0</ele>
      </trkpt>
      <trkpt lat="45.293624" lon="7.093347">
        <time>2023-04-26T06:10:49+00:00</time>
        <ele>2212.0</ele>
      </trkpt>
      <trkpt lat="45.293598" lon="7.093394">
        <time>2023-04-26T06:10:56+00:00</time>
        <ele>2214.0</ele>
      </trkpt>
      <trkpt lat="45.293576" lon="7.093436">
        <time>2023-04-26T06:11:02+00:00</time>
        <ele>2215.0</ele>
      </trkpt>
      <trkpt lat="45.293559" lon="7.093489">
        <time>2023-04-26T06:11:08+00:00</time>
        <ele>2217.0</ele>
      </trkpt>
      <trkpt lat="45.293562" lon="7.093542">
        <time>2023-04-26T06:11:32+00:00</time>
        <ele>2219.0</ele>
      </trkpt>
      <trkpt lat="45.293539" lon="7.093593">
        <time>2023-04-26T06:11:50+00:00</time>
        <ele>2220.0</ele>
      </trkpt>
      <trkpt lat="45.293523" lon="7.09365">
        <time>2023-04-26T06:12:01+00:00</time>
        <ele>2222.0</ele>
      </trkpt>
      <trkpt lat="45.293498" lon="7.093711">
        <time>2023-04-26T06:12:11+00:00</time>
        <ele>2224.0</ele>
      </trkpt>
      <trkpt lat="45.293451" lon="7.093711">
        <time>2023-04-26T06:12:22+00:00</time>
        <ele>2224.0</ele>
      </trkpt>
      <trkpt lat="45.293412" lon="7.093761">
        <time>2023-04-26T06:12:44+00:00</time>
        <ele>2225.0</ele>
      </trkpt>
      <trkpt lat="45.293278" lon="7.094007">
        <time>2023-04-26T06:13:19+00:00</time>
        <ele>2230.0</ele>
      </trkpt>
      <trkpt lat="45.293244" lon="7.094053">
        <time>2023-04-26T06:13:24+00:00</time>
        <ele>2231.0</ele>
      </trkpt>
      <trkpt lat="45.293225" lon="7.094111">
        <time>2023-04-26T06:13:32+00:00</time>
        <ele>2232.0</ele>
      </trkpt>
      <trkpt lat="45.29318" lon="7.094118">
        <time>2023-04-26T06:13:40+00:00</time>
        <ele>2232.0</ele>
      </trkpt>
      <trkpt lat="45.29314" lon="7.094154">
        <time>2023-04-26T06:13:49+00:00</time>
        <ele>2232.0</ele>
      </trkpt>
      <trkpt lat="45.293106" lon="7.094195">
        <time>2023-04-26T06:13:56+00:00</time>
        <ele>2233.0</ele>
      </trkpt>
      <trkpt lat="45.293079" lon="7.094249">
        <time>2023-04-26T06:14:05+00:00</time>
        <ele>2234.0</ele>
      </trkpt>
      <trkpt lat="45.293058" lon="7.094301">
        <time>2023-04-26T06:14:14+00:00</time>
        <ele>2235.0</ele>
      </trkpt>
      <trkpt lat="45.293018" lon="7.094333">
        <time>2023-04-26T06:14:22+00:00</time>
        <ele>2236.0</ele>
      </trkpt>
      <trkpt lat="45.293006" lon="7.094408">
        <time>2023-04-26T06:14:29+00:00</time>
        <ele>2238.0</ele>
      </trkpt>
      <trkpt lat="45.292919" lon="7.094488">
        <time>2023-04-26T06:14:49+00:00</time>
        <ele>2239.0</ele>
      </trkpt>
      <trkpt lat="45.292886" lon="7.094538">
        <time>2023-04-26T06:14:59+00:00</time>
        <ele>2240.0</ele>
      </trkpt>
      <trkpt lat="45.292856" lon="7.094604">
        <time>2023-04-26T06:15:06+00:00</time>
        <ele>2240.0</ele>
      </trkpt>
      <trkpt lat="45.292838" lon="7.094667">
        <time>2023-04-26T06:15:11+00:00</time>
        <ele>2242.0</ele>
      </trkpt>
      <trkpt lat="45.292807" lon="7.094708">
        <time>2023-04-26T06:15:17+00:00</time>
        <ele>2242.0</ele>
      </trkpt>
      <trkpt lat="45.292792" lon="7.094774">
        <time>2023-04-26T06:15:24+00:00</time>
        <ele>2243.0</ele>
      </trkpt>
      <trkpt lat="45.292776" lon="7.09491">
        <time>2023-04-26T06:15:39+00:00</time>
        <ele>2245.0</ele>
      </trkpt>
      <trkpt lat="45.292689" lon="7.095057">
        <time>2023-04-26T06:15:59+00:00</time>
        <ele>2245.0</ele>
      </trkpt>
      <trkpt lat="45.29266" lon="7.095111">
        <time>2023-04-26T06:16:06+00:00</time>
        <ele>2245.0</ele>
      </trkpt>
      <trkpt lat="45.292622" lon="7.095248">
        <time>2023-04-26T06:16:19+00:00</time>
        <ele>2246.0</ele>
      </trkpt>
      <trkpt lat="45.292594" lon="7.095313">
        <time>2023-04-26T06:16:26+00:00</time>
        <ele>2246.0</ele>
      </trkpt>
      <trkpt lat="45.292579" lon="7.095371">
        <time>2023-04-26T06:16:32+00:00</time>
        <ele>2247.0</ele>
      </trkpt>
      <trkpt lat="45.29256" lon="7.095428">
        <time>2023-04-26T06:16:37+00:00</time>
        <ele>2248.0</ele>
      </trkpt>
      <trkpt lat="45.292566" lon="7.0955">
        <time>2023-04-26T06:16:47+00:00</time>
        <ele>2250.0</ele>
      </trkpt>
      <trkpt lat="45.29253" lon="7.09554">
        <time>2023-04-26T06:16:52+00:00</time>
        <ele>2250.0</ele>
      </trkpt>
      <trkpt lat="45.2925" lon="7.095588">
        <time>2023-04-26T06:16:59+00:00</time>
        <ele>2251.0</ele>
      </trkpt>
      <trkpt lat="45.29245" lon="7.095608">
        <time>2023-04-26T06:17:04+00:00</time>
        <ele>2252.0</ele>
      </trkpt>
      <trkpt lat="45.292422" lon="7.095674">
        <time>2023-04-26T06:17:11+00:00</time>
        <ele>2253.0</ele>
      </trkpt>
      <trkpt lat="45.292375" lon="7.095696">
        <time>2023-04-26T06:17:19+00:00</time>
        <ele>2254.0</ele>
      </trkpt>
      <trkpt lat="45.292328" lon="7.095671">
        <time>2023-04-26T06:17:25+00:00</time>
        <ele>2253.0</ele>
      </trkpt>
      <trkpt lat="45.292295" lon="7.095628">
        <time>2023-04-26T06:17:32+00:00</time>
        <ele>2252.0</ele>
      </trkpt>
      <trkpt lat="45.292263" lon="7.095588">
        <time>2023-04-26T06:17:37+00:00</time>
        <ele>2252.0</ele>
      </trkpt>
      <trkpt lat="45.292211" lon="7.095561">
        <time>2023-04-26T06:17:44+00:00</time>
        <ele>2252.0</ele>
      </trkpt>
      <trkpt lat="45.292162" lon="7.095568">
        <time>2023-04-26T06:17:50+00:00</time>
        <ele>2253.0</ele>
      </trkpt>
      <trkpt lat="45.292104" lon="7.095574">
        <time>2023-04-26T06:18:10+00:00</time>
        <ele>2254.0</ele>
      </trkpt>
      <trkpt lat="45.292057" lon="7.095621">
        <time>2023-04-26T06:18:20+00:00</time>
        <ele>2257.0</ele>
      </trkpt>
      <trkpt lat="45.291986" lon="7.095749">
        <time>2023-04-26T06:18:45+00:00</time>
        <ele>2261.0</ele>
      </trkpt>
      <trkpt lat="45.291937" lon="7.095785">
        <time>2023-04-26T06:18:51+00:00</time>
        <ele>2263.0</ele>
      </trkpt>
      <trkpt lat="45.291883" lon="7.095811">
        <time>2023-04-26T06:19:12+00:00</time>
        <ele>2264.0</ele>
      </trkpt>
      <trkpt lat="45.29186" lon="7.095871">
        <time>2023-04-26T06:19:19+00:00</time>
        <ele>2266.0</ele>
      </trkpt>
      <trkpt lat="45.291792" lon="7.096002">
        <time>2023-04-26T06:19:30+00:00</time>
        <ele>2269.0</ele>
      </trkpt>
      <trkpt lat="45.291749" lon="7.09599">
        <time>2023-04-26T06:19:50+00:00</time>
        <ele>2270.0</ele>
      </trkpt>
      <trkpt lat="45.291711" lon="7.096026">
        <time>2023-04-26T06:20:09+00:00</time>
        <ele>2271.0</ele>
      </trkpt>
      <trkpt lat="45.29172" lon="7.09605">
        <time>2023-04-26T06:22:20+00:00</time>
        <ele>2271.0</ele>
      </trkpt>
      <trkpt lat="45.291685" lon="7.09609">
        <time>2023-04-26T06:23:19+00:00</time>
        <ele>2273.0</ele>
      </trkpt>
      <trkpt lat="45.291659" lon="7.096088">
        <time>2023-04-26T06:25:06+00:00</time>
        <ele>2273.0</ele>
      </trkpt>
      <trkpt lat="45.291623" lon="7.096057">
        <time>2023-04-26T06:25:11+00:00</time>
        <ele>2274.0</ele>
      </trkpt>
      <trkpt lat="45.291543" lon="7.096024">
        <time>2023-04-26T06:25:24+00:00</time>
        <ele>2276.0</ele>
      </trkpt>
      <trkpt lat="45.291508" lon="7.095982">
        <time>2023-04-26T06:25:32+00:00</time>
        <ele>2278.0</ele>
      </trkpt>
      <trkpt lat="45.291485" lon="7.095942">
        <time>2023-04-26T06:25:37+00:00</time>
        <ele>2278.0</ele>
      </trkpt>
      <trkpt lat="45.291434" lon="7.095914">
        <time>2023-04-26T06:25:45+00:00</time>
        <ele>2281.0</ele>
      </trkpt>
      <trkpt lat="45.291419" lon="7.095856">
        <time>2023-04-26T06:25:54+00:00</time>
        <ele>2281.0</ele>
      </trkpt>
      <trkpt lat="45.291356" lon="7.095939">
        <time>2023-04-26T06:26:26+00:00</time>
        <ele>2284.0</ele>
      </trkpt>
      <trkpt lat="45.291334" lon="7.096005">
        <time>2023-04-26T06:26:34+00:00</time>
        <ele>2286.0</ele>
      </trkpt>
      <trkpt lat="45.291297" lon="7.096035">
        <time>2023-04-26T06:26:45+00:00</time>
        <ele>2288.0</ele>
      </trkpt>
      <trkpt lat="45.291253" lon="7.09605">
        <time>2023-04-26T06:26:50+00:00</time>
        <ele>2290.0</ele>
      </trkpt>
      <trkpt lat="45.291264" lon="7.096128">
        <time>2023-04-26T06:26:59+00:00</time>
        <ele>2289.0</ele>
      </trkpt>
      <trkpt lat="45.291243" lon="7.096183">
        <time>2023-04-26T06:27:06+00:00</time>
        <ele>2291.0</ele>
      </trkpt>
      <trkpt lat="45.291209" lon="7.096232">
        <time>2023-04-26T06:27:12+00:00</time>
        <ele>2293.0</ele>
      </trkpt>
      <trkpt lat="45.29119" lon="7.096297">
        <time>2023-04-26T06:27:19+00:00</time>
        <ele>2295.0</ele>
      </trkpt>
      <trkpt lat="45.291185" lon="7.096361">
        <time>2023-04-26T06:27:29+00:00</time>
        <ele>2295.0</ele>
      </trkpt>
      <trkpt lat="45.291173" lon="7.096417">
        <time>2023-04-26T06:27:39+00:00</time>
        <ele>2296.0</ele>
      </trkpt>
      <trkpt lat="45.291176" lon="7.096465">
        <time>2023-04-26T06:27:56+00:00</time>
        <ele>2296.0</ele>
      </trkpt>
      <trkpt lat="45.291141" lon="7.096517">
        <time>2023-04-26T06:28:04+00:00</time>
        <ele>2299.0</ele>
      </trkpt>
      <trkpt lat="45.291118" lon="7.096566">
        <time>2023-04-26T06:28:12+00:00</time>
        <ele>2300.0</ele>
      </trkpt>
      <trkpt lat="45.291077" lon="7.096565">
        <time>2023-04-26T06:28:30+00:00</time>
        <ele>2302.0</ele>
      </trkpt>
      <trkpt lat="45.29104" lon="7.09654">
        <time>2023-04-26T06:28:37+00:00</time>
        <ele>2304.0</ele>
      </trkpt>
      <trkpt lat="45.291018" lon="7.096553">
        <time>2023-04-26T06:29:01+00:00</time>
        <ele>2305.0</ele>
      </trkpt>
      <trkpt lat="45.291015" lon="7.096614">
        <time>2023-04-26T06:29:12+00:00</time>
        <ele>2305.0</ele>
      </trkpt>
      <trkpt lat="45.291022" lon="7.096677">
        <time>2023-04-26T06:29:19+00:00</time>
        <ele>2306.0</ele>
      </trkpt>
      <trkpt lat="45.290959" lon="7.096763">
        <time>2023-04-26T06:29:39+00:00</time>
        <ele>2311.0</ele>
      </trkpt>
      <trkpt lat="45.290929" lon="7.096712">
        <time>2023-04-26T06:29:54+00:00</time>
        <ele>2312.0</ele>
      </trkpt>
      <trkpt lat="45.290893" lon="7.096661">
        <time>2023-04-26T06:30:04+00:00</time>
        <ele>2313.0</ele>
      </trkpt>
      <trkpt lat="45.290861" lon="7.096625">
        <time>2023-04-26T06:30:14+00:00</time>
        <ele>2315.0</ele>
      </trkpt>
      <trkpt lat="45.290829" lon="7.096602">
        <time>2023-04-26T06:30:21+00:00</time>
        <ele>2317.0</ele>
      </trkpt>
      <trkpt lat="45.290803" lon="7.096572">
        <time>2023-04-26T06:30:32+00:00</time>
        <ele>2318.0</ele>
      </trkpt>
      <trkpt lat="45.290749" lon="7.096522">
        <time>2023-04-26T06:30:47+00:00</time>
        <ele>2321.0</ele>
      </trkpt>
      <trkpt lat="45.290727" lon="7.09652">
        <time>2023-04-26T06:31:02+00:00</time>
        <ele>2323.0</ele>
      </trkpt>
      <trkpt lat="45.290684" lon="7.096599">
        <time>2023-04-26T06:31:22+00:00</time>
        <ele>2325.0</ele>
      </trkpt>
      <trkpt lat="45.290683" lon="7.096652">
        <time>2023-04-26T06:31:31+00:00</time>
        <ele>2326.0</ele>
      </trkpt>
      <trkpt lat="45.290661" lon="7.096712">
        <time>2023-04-26T06:31:39+00:00</time>
        <ele>2328.0</ele>
      </trkpt>
      <trkpt lat="45.290637" lon="7.096735">
        <time>2023-04-26T06:32:10+00:00</time>
        <ele>2330.0</ele>
      </trkpt>
      <trkpt lat="45.290609" lon="7.096697">
        <time>2023-04-26T06:32:15+00:00</time>
        <ele>2330.0</ele>
      </trkpt>
      <trkpt lat="45.290591" lon="7.096667">
        <time>2023-04-26T06:32:19+00:00</time>
        <ele>2331.0</ele>
      </trkpt>
      <trkpt lat="45.290577" lon="7.096636">
        <time>2023-04-26T06:32:24+00:00</time>
        <ele>2331.0</ele>
      </trkpt>
      <trkpt lat="45.290552" lon="7.096619">
        <time>2023-04-26T06:32:32+00:00</time>
        <ele>2332.0</ele>
      </trkpt>
      <trkpt lat="45.290526" lon="7.096646">
        <time>2023-04-26T06:32:45+00:00</time>
        <ele>2333.0</ele>
      </trkpt>
      <trkpt lat="45.290498" lon="7.096654">
        <time>2023-04-26T06:32:54+00:00</time>
        <ele>2334.0</ele>
      </trkpt>
      <trkpt lat="45.290481" lon="7.096685">
        <time>2023-04-26T06:33:01+00:00</time>
        <ele>2336.0</ele>
      </trkpt>
      <trkpt lat="45.290467" lon="7.096727">
        <time>2023-04-26T06:33:07+00:00</time>
        <ele>2337.0</ele>
      </trkpt>
      <trkpt lat="45.290467" lon="7.096781">
        <time>2023-04-26T06:33:14+00:00</time>
        <ele>2338.0</ele>
      </trkpt>
      <trkpt lat="45.290468" lon="7.096833">
        <time>2023-04-26T06:33:21+00:00</time>
        <ele>2339.0</ele>
      </trkpt>
      <trkpt lat="45.290446" lon="7.096867">
        <time>2023-04-26T06:33:37+00:00</time>
        <ele>2341.0</ele>
      </trkpt>
      <trkpt lat="45.290443" lon="7.096921">
        <time>2023-04-26T06:33:44+00:00</time>
        <ele>2342.0</ele>
      </trkpt>
      <trkpt lat="45.290427" lon="7.096972">
        <time>2023-04-26T06:33:54+00:00</time>
        <ele>2344.0</ele>
      </trkpt>
      <trkpt lat="45.290423" lon="7.097023">
        <time>2023-04-26T06:34:02+00:00</time>
        <ele>2346.0</ele>
      </trkpt>
      <trkpt lat="45.29042" lon="7.09708">
        <time>2023-04-26T06:34:09+00:00</time>
        <ele>2347.0</ele>
      </trkpt>
      <trkpt lat="45.290416" lon="7.097125">
        <time>2023-04-26T06:34:19+00:00</time>
        <ele>2349.0</ele>
      </trkpt>
      <trkpt lat="45.290344" lon="7.097065">
        <time>2023-04-26T06:34:54+00:00</time>
        <ele>2351.0</ele>
      </trkpt>
      <trkpt lat="45.29031" lon="7.097043">
        <time>2023-04-26T06:34:59+00:00</time>
        <ele>2352.0</ele>
      </trkpt>
      <trkpt lat="45.290252" lon="7.097019">
        <time>2023-04-26T06:35:14+00:00</time>
        <ele>2355.0</ele>
      </trkpt>
      <trkpt lat="45.290246" lon="7.097044">
        <time>2023-04-26T06:35:55+00:00</time>
        <ele>2356.0</ele>
      </trkpt>
      <trkpt lat="45.290249" lon="7.097167">
        <time>2023-04-26T06:36:22+00:00</time>
        <ele>2360.0</ele>
      </trkpt>
      <trkpt lat="45.290186" lon="7.097146">
        <time>2023-04-26T06:36:49+00:00</time>
        <ele>2361.0</ele>
      </trkpt>
      <trkpt lat="45.290145" lon="7.097149">
        <time>2023-04-26T06:36:59+00:00</time>
        <ele>2362.0</ele>
      </trkpt>
      <trkpt lat="45.290107" lon="7.097138">
        <time>2023-04-26T06:37:09+00:00</time>
        <ele>2363.0</ele>
      </trkpt>
      <trkpt lat="45.290074" lon="7.097144">
        <time>2023-04-26T06:37:17+00:00</time>
        <ele>2364.0</ele>
      </trkpt>
      <trkpt lat="45.290044" lon="7.097134">
        <time>2023-04-26T06:37:30+00:00</time>
        <ele>2364.0</ele>
      </trkpt>
      <trkpt lat="45.290034" lon="7.09717">
        <time>2023-04-26T06:37:40+00:00</time>
        <ele>2365.0</ele>
      </trkpt>
      <trkpt lat="45.290038" lon="7.097259">
        <time>2023-04-26T06:37:49+00:00</time>
        <ele>2368.0</ele>
      </trkpt>
      <trkpt lat="45.290053" lon="7.097296">
        <time>2023-04-26T06:37:55+00:00</time>
        <ele>2369.0</ele>
      </trkpt>
      <trkpt lat="45.290071" lon="7.097347">
        <time>2023-04-26T06:38:02+00:00</time>
        <ele>2370.0</ele>
      </trkpt>
      <trkpt lat="45.290057" lon="7.097369">
        <time>2023-04-26T06:38:24+00:00</time>
        <ele>2371.0</ele>
      </trkpt>
      <trkpt lat="45.289896" lon="7.09736">
        <time>2023-04-26T06:38:54+00:00</time>
        <ele>2375.0</ele>
      </trkpt>
      <trkpt lat="45.289863" lon="7.09736">
        <time>2023-04-26T06:38:59+00:00</time>
        <ele>2376.0</ele>
      </trkpt>
      <trkpt lat="45.289827" lon="7.09737">
        <time>2023-04-26T06:39:04+00:00</time>
        <ele>2378.0</ele>
      </trkpt>
      <trkpt lat="45.289827" lon="7.097411">
        <time>2023-04-26T06:39:21+00:00</time>
        <ele>2379.0</ele>
      </trkpt>
      <trkpt lat="45.289818" lon="7.097537">
        <time>2023-04-26T06:39:35+00:00</time>
        <ele>2383.0</ele>
      </trkpt>
      <trkpt lat="45.289833" lon="7.097565">
        <time>2023-04-26T06:39:40+00:00</time>
        <ele>2383.0</ele>
      </trkpt>
      <trkpt lat="45.289843" lon="7.097596">
        <time>2023-04-26T06:39:46+00:00</time>
        <ele>2383.0</ele>
      </trkpt>
      <trkpt lat="45.289855" lon="7.097643">
        <time>2023-04-26T06:39:51+00:00</time>
        <ele>2384.0</ele>
      </trkpt>
      <trkpt lat="45.289866" lon="7.097657">
        <time>2023-04-26T06:40:47+00:00</time>
        <ele>2384.0</ele>
      </trkpt>
      <trkpt lat="45.289864" lon="7.097696">
        <time>2023-04-26T06:40:51+00:00</time>
        <ele>2385.0</ele>
      </trkpt>
      <trkpt lat="45.289838" lon="7.097715">
        <time>2023-04-26T06:40:56+00:00</time>
        <ele>2386.0</ele>
      </trkpt>
      <trkpt lat="45.289808" lon="7.097724">
        <time>2023-04-26T06:41:03+00:00</time>
        <ele>2388.0</ele>
      </trkpt>
      <trkpt lat="45.28978" lon="7.097693">
        <time>2023-04-26T06:41:12+00:00</time>
        <ele>2388.0</ele>
      </trkpt>
      <trkpt lat="45.289748" lon="7.097682">
        <time>2023-04-26T06:41:17+00:00</time>
        <ele>2389.0</ele>
      </trkpt>
      <trkpt lat="45.289655" lon="7.097617">
        <time>2023-04-26T06:41:32+00:00</time>
        <ele>2391.0</ele>
      </trkpt>
      <trkpt lat="45.289585" lon="7.097594">
        <time>2023-04-26T06:41:42+00:00</time>
        <ele>2393.0</ele>
      </trkpt>
      <trkpt lat="45.289503" lon="7.097582">
        <time>2023-04-26T06:41:55+00:00</time>
        <ele>2395.0</ele>
      </trkpt>
      <trkpt lat="45.289474" lon="7.097585">
        <time>2023-04-26T06:42:02+00:00</time>
        <ele>2396.0</ele>
      </trkpt>
      <trkpt lat="45.289441" lon="7.097584">
        <time>2023-04-26T06:42:10+00:00</time>
        <ele>2397.0</ele>
      </trkpt>
      <trkpt lat="45.289448" lon="7.097632">
        <time>2023-04-26T06:42:31+00:00</time>
        <ele>2398.0</ele>
      </trkpt>
      <trkpt lat="45.289444" lon="7.097676">
        <time>2023-04-26T06:42:37+00:00</time>
        <ele>2399.0</ele>
      </trkpt>
      <trkpt lat="45.28948" lon="7.09783">
        <time>2023-04-26T06:43:03+00:00</time>
        <ele>2403.0</ele>
      </trkpt>
      <trkpt lat="45.289478" lon="7.097883">
        <time>2023-04-26T06:43:10+00:00</time>
        <ele>2404.0</ele>
      </trkpt>
      <trkpt lat="45.289443" lon="7.09789">
        <time>2023-04-26T06:43:28+00:00</time>
        <ele>2405.0</ele>
      </trkpt>
      <trkpt lat="45.289366" lon="7.09787">
        <time>2023-04-26T06:43:42+00:00</time>
        <ele>2406.0</ele>
      </trkpt>
      <trkpt lat="45.28933" lon="7.09787">
        <time>2023-04-26T06:43:50+00:00</time>
        <ele>2406.0</ele>
      </trkpt>
      <trkpt lat="45.289236" lon="7.097889">
        <time>2023-04-26T06:44:07+00:00</time>
        <ele>2409.0</ele>
      </trkpt>
      <trkpt lat="45.289214" lon="7.097914">
        <time>2023-04-26T06:44:12+00:00</time>
        <ele>2411.0</ele>
      </trkpt>
      <trkpt lat="45.28918" lon="7.097922">
        <time>2023-04-26T06:44:16+00:00</time>
        <ele>2412.0</ele>
      </trkpt>
      <trkpt lat="45.289111" lon="7.097892">
        <time>2023-04-26T06:44:27+00:00</time>
        <ele>2413.0</ele>
      </trkpt>
      <trkpt lat="45.289079" lon="7.097871">
        <time>2023-04-26T06:44:32+00:00</time>
        <ele>2415.0</ele>
      </trkpt>
      <trkpt lat="45.289045" lon="7.097853">
        <time>2023-04-26T06:44:36+00:00</time>
        <ele>2418.0</ele>
      </trkpt>
      <trkpt lat="45.289016" lon="7.097832">
        <time>2023-04-26T06:44:43+00:00</time>
        <ele>2419.0</ele>
      </trkpt>
      <trkpt lat="45.288878" lon="7.09773">
        <time>2023-04-26T06:45:18+00:00</time>
        <ele>2422.0</ele>
      </trkpt>
      <trkpt lat="45.288852" lon="7.097692">
        <time>2023-04-26T06:45:26+00:00</time>
        <ele>2422.0</ele>
      </trkpt>
      <trkpt lat="45.288754" lon="7.097516">
        <time>2023-04-26T06:45:55+00:00</time>
        <ele>2422.0</ele>
      </trkpt>
      <trkpt lat="45.288718" lon="7.09758">
        <time>2023-04-26T06:46:20+00:00</time>
        <ele>2425.0</ele>
      </trkpt>
      <trkpt lat="45.288623" lon="7.097548">
        <time>2023-04-26T06:46:41+00:00</time>
        <ele>2430.0</ele>
      </trkpt>
      <trkpt lat="45.288572" lon="7.097521">
        <time>2023-04-26T06:46:55+00:00</time>
        <ele>2432.0</ele>
      </trkpt>
      <trkpt lat="45.288548" lon="7.097494">
        <time>2023-04-26T06:47:06+00:00</time>
        <ele>2432.0</ele>
      </trkpt>
      <trkpt lat="45.288525" lon="7.097527">
        <time>2023-04-26T06:49:42+00:00</time>
        <ele>2435.0</ele>
      </trkpt>
      <trkpt lat="45.288495" lon="7.097551">
        <time>2023-04-26T06:49:48+00:00</time>
        <ele>2437.0</ele>
      </trkpt>
      <trkpt lat="45.288464" lon="7.097558">
        <time>2023-04-26T06:49:52+00:00</time>
        <ele>2439.0</ele>
      </trkpt>
      <trkpt lat="45.288433" lon="7.097548">
        <time>2023-04-26T06:49:59+00:00</time>
        <ele>2440.0</ele>
      </trkpt>
      <trkpt lat="45.288362" lon="7.097561">
        <time>2023-04-26T06:50:17+00:00</time>
        <ele>2443.0</ele>
      </trkpt>
      <trkpt lat="45.288326" lon="7.097538">
        <time>2023-04-26T06:50:24+00:00</time>
        <ele>2445.0</ele>
      </trkpt>
      <trkpt lat="45.288307" lon="7.097565">
        <time>2023-04-26T06:50:42+00:00</time>
        <ele>2447.0</ele>
      </trkpt>
      <trkpt lat="45.288275" lon="7.097579">
        <time>2023-04-26T06:51:04+00:00</time>
        <ele>2449.0</ele>
      </trkpt>
      <trkpt lat="45.288228" lon="7.097628">
        <time>2023-04-26T06:51:18+00:00</time>
        <ele>2452.0</ele>
      </trkpt>
      <trkpt lat="45.288194" lon="7.097637">
        <time>2023-04-26T06:51:28+00:00</time>
        <ele>2454.0</ele>
      </trkpt>
      <trkpt lat="45.288169" lon="7.097646">
        <time>2023-04-26T06:51:38+00:00</time>
        <ele>2455.0</ele>
      </trkpt>
      <trkpt lat="45.288145" lon="7.097669">
        <time>2023-04-26T06:51:42+00:00</time>
        <ele>2456.0</ele>
      </trkpt>
      <trkpt lat="45.288114" lon="7.097673">
        <time>2023-04-26T06:51:47+00:00</time>
        <ele>2458.0</ele>
      </trkpt>
      <trkpt lat="45.288099" lon="7.097703">
        <time>2023-04-26T06:52:23+00:00</time>
        <ele>2458.0</ele>
      </trkpt>
      <trkpt lat="45.288101" lon="7.097748">
        <time>2023-04-26T06:52:28+00:00</time>
        <ele>2458.0</ele>
      </trkpt>
      <trkpt lat="45.288104" lon="7.097795">
        <time>2023-04-26T06:52:35+00:00</time>
        <ele>2459.0</ele>
      </trkpt>
      <trkpt lat="45.288123" lon="7.097833">
        <time>2023-04-26T06:52:43+00:00</time>
        <ele>2459.0</ele>
      </trkpt>
      <trkpt lat="45.288093" lon="7.097854">
        <time>2023-04-26T06:53:07+00:00</time>
        <ele>2461.0</ele>
      </trkpt>
      <trkpt lat="45.287997" lon="7.097865">
        <time>2023-04-26T06:53:26+00:00</time>
        <ele>2465.0</ele>
      </trkpt>
      <trkpt lat="45.287966" lon="7.09788">
        <time>2023-04-26T06:53:33+00:00</time>
        <ele>2467.0</ele>
      </trkpt>
      <trkpt lat="45.287929" lon="7.097876">
        <time>2023-04-26T06:53:41+00:00</time>
        <ele>2470.0</ele>
      </trkpt>
      <trkpt lat="45.287904" lon="7.097886">
        <time>2023-04-26T06:53:52+00:00</time>
        <ele>2472.0</ele>
      </trkpt>
      <trkpt lat="45.287888" lon="7.097918">
        <time>2023-04-26T06:53:58+00:00</time>
        <ele>2473.0</ele>
      </trkpt>
      <trkpt lat="45.28789" lon="7.097958">
        <time>2023-04-26T06:54:04+00:00</time>
        <ele>2472.0</ele>
      </trkpt>
      <trkpt lat="45.28789" lon="7.098">
        <time>2023-04-26T06:54:11+00:00</time>
        <ele>2473.0</ele>
      </trkpt>
      <trkpt lat="45.287906" lon="7.098023">
        <time>2023-04-26T06:54:15+00:00</time>
        <ele>2472.0</ele>
      </trkpt>
      <trkpt lat="45.287928" lon="7.098043">
        <time>2023-04-26T06:54:20+00:00</time>
        <ele>2472.0</ele>
      </trkpt>
      <trkpt lat="45.28793" lon="7.098073">
        <time>2023-04-26T06:54:34+00:00</time>
        <ele>2473.0</ele>
      </trkpt>
      <trkpt lat="45.287948" lon="7.098084">
        <time>2023-04-26T06:54:44+00:00</time>
        <ele>2472.0</ele>
      </trkpt>
      <trkpt lat="45.28794" lon="7.098116">
        <time>2023-04-26T06:54:52+00:00</time>
        <ele>2474.0</ele>
      </trkpt>
      <trkpt lat="45.287918" lon="7.098132">
        <time>2023-04-26T06:54:56+00:00</time>
        <ele>2475.0</ele>
      </trkpt>
      <trkpt lat="45.287849" lon="7.098166">
        <time>2023-04-26T06:55:13+00:00</time>
        <ele>2479.0</ele>
      </trkpt>
      <trkpt lat="45.287868" lon="7.098191">
        <time>2023-04-26T06:55:27+00:00</time>
        <ele>2479.0</ele>
      </trkpt>
      <trkpt lat="45.287888" lon="7.098217">
        <time>2023-04-26T06:55:31+00:00</time>
        <ele>2479.0</ele>
      </trkpt>
      <trkpt lat="45.2879" lon="7.098248">
        <time>2023-04-26T06:55:38+00:00</time>
        <ele>2480.0</ele>
      </trkpt>
      <trkpt lat="45.287928" lon="7.098325">
        <time>2023-04-26T06:55:56+00:00</time>
        <ele>2482.0</ele>
      </trkpt>
      <trkpt lat="45.287923" lon="7.098398">
        <time>2023-04-26T06:56:08+00:00</time>
        <ele>2485.0</ele>
      </trkpt>
      <trkpt lat="45.287937" lon="7.098434">
        <time>2023-04-26T06:56:31+00:00</time>
        <ele>2486.0</ele>
      </trkpt>
      <trkpt lat="45.287952" lon="7.098469">
        <time>2023-04-26T06:56:37+00:00</time>
        <ele>2486.0</ele>
      </trkpt>
      <trkpt lat="45.287953" lon="7.098505">
        <time>2023-04-26T06:56:50+00:00</time>
        <ele>2488.0</ele>
      </trkpt>
      <trkpt lat="45.287998" lon="7.098612">
        <time>2023-04-26T06:57:08+00:00</time>
        <ele>2490.0</ele>
      </trkpt>
      <trkpt lat="45.288027" lon="7.098683">
        <time>2023-04-26T06:57:45+00:00</time>
        <ele>2491.0</ele>
      </trkpt>
      <trkpt lat="45.288061" lon="7.098762">
        <time>2023-04-26T06:57:57+00:00</time>
        <ele>2493.0</ele>
      </trkpt>
      <trkpt lat="45.288073" lon="7.098799">
        <time>2023-04-26T06:58:05+00:00</time>
        <ele>2494.0</ele>
      </trkpt>
      <trkpt lat="45.288087" lon="7.098859">
        <time>2023-04-26T06:58:15+00:00</time>
        <ele>2496.0</ele>
      </trkpt>
      <trkpt lat="45.288076" lon="7.098888">
        <time>2023-04-26T06:58:30+00:00</time>
        <ele>2498.0</ele>
      </trkpt>
      <trkpt lat="45.288025" lon="7.098905">
        <time>2023-04-26T06:58:42+00:00</time>
        <ele>2499.0</ele>
      </trkpt>
      <trkpt lat="45.287997" lon="7.098896">
        <time>2023-04-26T06:58:48+00:00</time>
        <ele>2500.0</ele>
      </trkpt>
      <trkpt lat="45.287969" lon="7.098895">
        <time>2023-04-26T06:58:55+00:00</time>
        <ele>2500.0</ele>
      </trkpt>
      <trkpt lat="45.287846" lon="7.098938">
        <time>2023-04-26T06:59:25+00:00</time>
        <ele>2505.0</ele>
      </trkpt>
      <trkpt lat="45.287808" lon="7.098947">
        <time>2023-04-26T06:59:35+00:00</time>
        <ele>2507.0</ele>
      </trkpt>
      <trkpt lat="45.287778" lon="7.098951">
        <time>2023-04-26T06:59:42+00:00</time>
        <ele>2508.0</ele>
      </trkpt>
      <trkpt lat="45.287679" lon="7.098948">
        <time>2023-04-26T07:00:03+00:00</time>
        <ele>2510.0</ele>
      </trkpt>
      <trkpt lat="45.287646" lon="7.09894">
        <time>2023-04-26T07:00:10+00:00</time>
        <ele>2510.0</ele>
      </trkpt>
      <trkpt lat="45.287622" lon="7.098949">
        <time>2023-04-26T07:00:17+00:00</time>
        <ele>2511.0</ele>
      </trkpt>
      <trkpt lat="45.287598" lon="7.098961">
        <time>2023-04-26T07:00:23+00:00</time>
        <ele>2512.0</ele>
      </trkpt>
      <trkpt lat="45.287572" lon="7.098959">
        <time>2023-04-26T07:00:31+00:00</time>
        <ele>2512.0</ele>
      </trkpt>
      <trkpt lat="45.287548" lon="7.098978">
        <time>2023-04-26T07:00:35+00:00</time>
        <ele>2513.0</ele>
      </trkpt>
      <trkpt lat="45.287457" lon="7.098979">
        <time>2023-04-26T07:00:50+00:00</time>
        <ele>2514.0</ele>
      </trkpt>
      <trkpt lat="45.287427" lon="7.099005">
        <time>2023-04-26T07:00:55+00:00</time>
        <ele>2515.0</ele>
      </trkpt>
      <trkpt lat="45.287383" lon="7.098974">
        <time>2023-04-26T07:01:05+00:00</time>
        <ele>2515.0</ele>
      </trkpt>
      <trkpt lat="45.287267" lon="7.09904">
        <time>2023-04-26T07:01:30+00:00</time>
        <ele>2519.0</ele>
      </trkpt>
      <trkpt lat="45.287244" lon="7.099033">
        <time>2023-04-26T07:01:36+00:00</time>
        <ele>2519.0</ele>
      </trkpt>
      <trkpt lat="45.287168" lon="7.099111">
        <time>2023-04-26T07:01:56+00:00</time>
        <ele>2523.0</ele>
      </trkpt>
      <trkpt lat="45.287145" lon="7.099108">
        <time>2023-04-26T07:02:02+00:00</time>
        <ele>2523.0</ele>
      </trkpt>
      <trkpt lat="45.287121" lon="7.099116">
        <time>2023-04-26T07:02:07+00:00</time>
        <ele>2524.0</ele>
      </trkpt>
      <trkpt lat="45.287089" lon="7.099131">
        <time>2023-04-26T07:02:15+00:00</time>
        <ele>2525.0</ele>
      </trkpt>
      <trkpt lat="45.287066" lon="7.099151">
        <time>2023-04-26T07:02:20+00:00</time>
        <ele>2526.0</ele>
      </trkpt>
      <trkpt lat="45.287038" lon="7.099142">
        <time>2023-04-26T07:02:27+00:00</time>
        <ele>2526.0</ele>
      </trkpt>
      <trkpt lat="45.286979" lon="7.099147">
        <time>2023-04-26T07:02:38+00:00</time>
        <ele>2527.0</ele>
      </trkpt>
      <trkpt lat="45.28696" lon="7.099154">
        <time>2023-04-26T07:02:41+00:00</time>
        <ele>2528.0</ele>
      </trkpt>
      <trkpt lat="45.286918" lon="7.099162">
        <time>2023-04-26T07:02:50+00:00</time>
        <ele>2529.0</ele>
      </trkpt>
      <trkpt lat="45.286865" lon="7.099175">
        <time>2023-04-26T07:02:58+00:00</time>
        <ele>2530.0</ele>
      </trkpt>
      <trkpt lat="45.286816" lon="7.099166">
        <time>2023-04-26T07:03:07+00:00</time>
        <ele>2531.0</ele>
      </trkpt>
      <trkpt lat="45.28679" lon="7.099171">
        <time>2023-04-26T07:03:11+00:00</time>
        <ele>2532.0</ele>
      </trkpt>
      <trkpt lat="45.286765" lon="7.099173">
        <time>2023-04-26T07:03:15+00:00</time>
        <ele>2532.0</ele>
      </trkpt>
      <trkpt lat="45.286739" lon="7.09918">
        <time>2023-04-26T07:03:20+00:00</time>
        <ele>2533.0</ele>
      </trkpt>
      <trkpt lat="45.286712" lon="7.09918">
        <time>2023-04-26T07:03:27+00:00</time>
        <ele>2534.0</ele>
      </trkpt>
      <trkpt lat="45.286666" lon="7.099198">
        <time>2023-04-26T07:03:37+00:00</time>
        <ele>2535.0</ele>
      </trkpt>
      <trkpt lat="45.286647" lon="7.099209">
        <time>2023-04-26T07:03:41+00:00</time>
        <ele>2535.0</ele>
      </trkpt>
      <trkpt lat="45.28663" lon="7.099219">
        <time>2023-04-26T07:03:51+00:00</time>
        <ele>2536.0</ele>
      </trkpt>
      <trkpt lat="45.286605" lon="7.099217">
        <time>2023-04-26T07:09:20+00:00</time>
        <ele>2536.0</ele>
      </trkpt>
      <trkpt lat="45.286585" lon="7.099246">
        <time>2023-04-26T07:11:06+00:00</time>
        <ele>2537.0</ele>
      </trkpt>
      <trkpt lat="45.286383" lon="7.099336">
        <time>2023-04-26T07:11:37+00:00</time>
        <ele>2542.0</ele>
      </trkpt>
      <trkpt lat="45.28633" lon="7.099374">
        <time>2023-04-26T07:11:45+00:00</time>
        <ele>2544.0</ele>
      </trkpt>
      <trkpt lat="45.286293" lon="7.099403">
        <time>2023-04-26T07:12:15+00:00</time>
        <ele>2545.0</ele>
      </trkpt>
      <trkpt lat="45.286277" lon="7.099415">
        <time>2023-04-26T07:12:18+00:00</time>
        <ele>2545.0</ele>
      </trkpt>
      <trkpt lat="45.286264" lon="7.099437">
        <time>2023-04-26T07:12:21+00:00</time>
        <ele>2546.0</ele>
      </trkpt>
      <trkpt lat="45.286246" lon="7.099458">
        <time>2023-04-26T07:12:26+00:00</time>
        <ele>2546.0</ele>
      </trkpt>
      <trkpt lat="45.28623" lon="7.09948">
        <time>2023-04-26T07:12:30+00:00</time>
        <ele>2547.0</ele>
      </trkpt>
      <trkpt lat="45.286215" lon="7.099501">
        <time>2023-04-26T07:12:34+00:00</time>
        <ele>2548.0</ele>
      </trkpt>
      <trkpt lat="45.286163" lon="7.099583">
        <time>2023-04-26T07:12:45+00:00</time>
        <ele>2548.0</ele>
      </trkpt>
      <trkpt lat="45.286015" lon="7.099752">
        <time>2023-04-26T07:13:11+00:00</time>
        <ele>2550.0</ele>
      </trkpt>
      <trkpt lat="45.285928" lon="7.099801">
        <time>2023-04-26T07:13:25+00:00</time>
        <ele>2551.0</ele>
      </trkpt>
      <trkpt lat="45.285916" lon="7.099824">
        <time>2023-04-26T07:13:28+00:00</time>
        <ele>2551.0</ele>
      </trkpt>
      <trkpt lat="45.285837" lon="7.099865">
        <time>2023-04-26T07:13:42+00:00</time>
        <ele>2552.0</ele>
      </trkpt>
      <trkpt lat="45.285816" lon="7.099881">
        <time>2023-04-26T07:13:45+00:00</time>
        <ele>2553.0</ele>
      </trkpt>
      <trkpt lat="45.285749" lon="7.099908">
        <time>2023-04-26T07:13:56+00:00</time>
        <ele>2554.0</ele>
      </trkpt>
      <trkpt lat="45.285723" lon="7.099927">
        <time>2023-04-26T07:14:00+00:00</time>
        <ele>2555.0</ele>
      </trkpt>
      <trkpt lat="45.28567" lon="7.099933">
        <time>2023-04-26T07:14:23+00:00</time>
        <ele>2556.0</ele>
      </trkpt>
      <trkpt lat="45.285649" lon="7.099959">
        <time>2023-04-26T07:14:26+00:00</time>
        <ele>2557.0</ele>
      </trkpt>
      <trkpt lat="45.285554" lon="7.100025">
        <time>2023-04-26T07:14:45+00:00</time>
        <ele>2558.0</ele>
      </trkpt>
      <trkpt lat="45.285531" lon="7.100035">
        <time>2023-04-26T07:14:49+00:00</time>
        <ele>2559.0</ele>
      </trkpt>
      <trkpt lat="45.285513" lon="7.100058">
        <time>2023-04-26T07:14:55+00:00</time>
        <ele>2559.0</ele>
      </trkpt>
      <trkpt lat="45.285482" lon="7.100044">
        <time>2023-04-26T07:15:01+00:00</time>
        <ele>2561.0</ele>
      </trkpt>
      <trkpt lat="45.285338" lon="7.10015">
        <time>2023-04-26T07:15:31+00:00</time>
        <ele>2564.0</ele>
      </trkpt>
      <trkpt lat="45.285324" lon="7.100176">
        <time>2023-04-26T07:15:35+00:00</time>
        <ele>2565.0</ele>
      </trkpt>
      <trkpt lat="45.285269" lon="7.100186">
        <time>2023-04-26T07:15:46+00:00</time>
        <ele>2567.0</ele>
      </trkpt>
      <trkpt lat="45.285226" lon="7.100231">
        <time>2023-04-26T07:15:55+00:00</time>
        <ele>2569.0</ele>
      </trkpt>
      <trkpt lat="45.285203" lon="7.100241">
        <time>2023-04-26T07:16:02+00:00</time>
        <ele>2570.0</ele>
      </trkpt>
      <trkpt lat="45.285156" lon="7.100276">
        <time>2023-04-26T07:16:16+00:00</time>
        <ele>2571.0</ele>
      </trkpt>
      <trkpt lat="45.285136" lon="7.100291">
        <time>2023-04-26T07:16:21+00:00</time>
        <ele>2572.0</ele>
      </trkpt>
      <trkpt lat="45.285117" lon="7.100309">
        <time>2023-04-26T07:16:28+00:00</time>
        <ele>2572.0</ele>
      </trkpt>
      <trkpt lat="45.285039" lon="7.100379">
        <time>2023-04-26T07:16:46+00:00</time>
        <ele>2575.0</ele>
      </trkpt>
      <trkpt lat="45.284935" lon="7.100463">
        <time>2023-04-26T07:17:12+00:00</time>
        <ele>2579.0</ele>
      </trkpt>
      <trkpt lat="45.284835" lon="7.10051">
        <time>2023-04-26T07:17:51+00:00</time>
        <ele>2584.0</ele>
      </trkpt>
      <trkpt lat="45.284807" lon="7.100503">
        <time>2023-04-26T07:18:06+00:00</time>
        <ele>2586.0</ele>
      </trkpt>
      <trkpt lat="45.284777" lon="7.100521">
        <time>2023-04-26T07:18:16+00:00</time>
        <ele>2587.0</ele>
      </trkpt>
      <trkpt lat="45.284729" lon="7.100529">
        <time>2023-04-26T07:18:47+00:00</time>
        <ele>2590.0</ele>
      </trkpt>
      <trkpt lat="45.284707" lon="7.100555">
        <time>2023-04-26T07:18:51+00:00</time>
        <ele>2591.0</ele>
      </trkpt>
      <trkpt lat="45.284641" lon="7.100593">
        <time>2023-04-26T07:19:12+00:00</time>
        <ele>2593.0</ele>
      </trkpt>
      <trkpt lat="45.284619" lon="7.100616">
        <time>2023-04-26T07:19:16+00:00</time>
        <ele>2593.0</ele>
      </trkpt>
      <trkpt lat="45.284597" lon="7.10064">
        <time>2023-04-26T07:19:21+00:00</time>
        <ele>2593.0</ele>
      </trkpt>
      <trkpt lat="45.284581" lon="7.100672">
        <time>2023-04-26T07:19:26+00:00</time>
        <ele>2593.0</ele>
      </trkpt>
      <trkpt lat="45.28453" lon="7.10078">
        <time>2023-04-26T07:19:44+00:00</time>
        <ele>2597.0</ele>
      </trkpt>
      <trkpt lat="45.284519" lon="7.100807">
        <time>2023-04-26T07:19:48+00:00</time>
        <ele>2598.0</ele>
      </trkpt>
      <trkpt lat="45.284486" lon="7.100848">
        <time>2023-04-26T07:19:58+00:00</time>
        <ele>2600.0</ele>
      </trkpt>
      <trkpt lat="45.284466" lon="7.100852">
        <time>2023-04-26T07:20:02+00:00</time>
        <ele>2601.0</ele>
      </trkpt>
      <trkpt lat="45.284443" lon="7.10084">
        <time>2023-04-26T07:20:07+00:00</time>
        <ele>2602.0</ele>
      </trkpt>
      <trkpt lat="45.284418" lon="7.100848">
        <time>2023-04-26T07:20:16+00:00</time>
        <ele>2603.0</ele>
      </trkpt>
      <trkpt lat="45.2844" lon="7.100867">
        <time>2023-04-26T07:20:22+00:00</time>
        <ele>2604.0</ele>
      </trkpt>
      <trkpt lat="45.284387" lon="7.100898">
        <time>2023-04-26T07:20:28+00:00</time>
        <ele>2604.0</ele>
      </trkpt>
      <trkpt lat="45.284375" lon="7.100928">
        <time>2023-04-26T07:21:09+00:00</time>
        <ele>2604.0</ele>
      </trkpt>
      <trkpt lat="45.284367" lon="7.100959">
        <time>2023-04-26T07:21:13+00:00</time>
        <ele>2604.0</ele>
      </trkpt>
      <trkpt lat="45.284371" lon="7.10098">
        <time>2023-04-26T07:22:38+00:00</time>
        <ele>2605.0</ele>
      </trkpt>
      <trkpt lat="45.284373" lon="7.101034">
        <time>2023-04-26T07:24:01+00:00</time>
        <ele>2606.0</ele>
      </trkpt>
      <trkpt lat="45.284332" lon="7.10105">
        <time>2023-04-26T07:24:14+00:00</time>
        <ele>2608.0</ele>
      </trkpt>
      <trkpt lat="45.284289" lon="7.10105">
        <time>2023-04-26T07:24:20+00:00</time>
        <ele>2610.0</ele>
      </trkpt>
      <trkpt lat="45.28426" lon="7.101083">
        <time>2023-04-26T07:24:28+00:00</time>
        <ele>2612.0</ele>
      </trkpt>
      <trkpt lat="45.284266" lon="7.101144">
        <time>2023-04-26T07:24:38+00:00</time>
        <ele>2613.0</ele>
      </trkpt>
      <trkpt lat="45.28425" lon="7.101202">
        <time>2023-04-26T07:24:46+00:00</time>
        <ele>2614.0</ele>
      </trkpt>
      <trkpt lat="45.284233" lon="7.101248">
        <time>2023-04-26T07:24:54+00:00</time>
        <ele>2616.0</ele>
      </trkpt>
      <trkpt lat="45.284207" lon="7.101287">
        <time>2023-04-26T07:25:02+00:00</time>
        <ele>2618.0</ele>
      </trkpt>
      <trkpt lat="45.284175" lon="7.101309">
        <time>2023-04-26T07:25:09+00:00</time>
        <ele>2620.0</ele>
      </trkpt>
      <trkpt lat="45.284139" lon="7.101321">
        <time>2023-04-26T07:25:16+00:00</time>
        <ele>2622.0</ele>
      </trkpt>
      <trkpt lat="45.2841" lon="7.101323">
        <time>2023-04-26T07:25:27+00:00</time>
        <ele>2623.0</ele>
      </trkpt>
      <trkpt lat="45.284057" lon="7.101335">
        <time>2023-04-26T07:25:39+00:00</time>
        <ele>2625.0</ele>
      </trkpt>
      <trkpt lat="45.284013" lon="7.10134">
        <time>2023-04-26T07:25:46+00:00</time>
        <ele>2626.0</ele>
      </trkpt>
      <trkpt lat="45.283988" lon="7.101288">
        <time>2023-04-26T07:26:06+00:00</time>
        <ele>2626.0</ele>
      </trkpt>
      <trkpt lat="45.283946" lon="7.101288">
        <time>2023-04-26T07:26:49+00:00</time>
        <ele>2628.0</ele>
      </trkpt>
      <trkpt lat="45.283922" lon="7.101326">
        <time>2023-04-26T07:26:58+00:00</time>
        <ele>2630.0</ele>
      </trkpt>
      <trkpt lat="45.283914" lon="7.101384">
        <time>2023-04-26T07:27:08+00:00</time>
        <ele>2631.0</ele>
      </trkpt>
      <trkpt lat="45.283903" lon="7.101445">
        <time>2023-04-26T07:27:16+00:00</time>
        <ele>2632.0</ele>
      </trkpt>
      <trkpt lat="45.283859" lon="7.101481">
        <time>2023-04-26T07:28:02+00:00</time>
        <ele>2634.0</ele>
      </trkpt>
      <trkpt lat="45.283823" lon="7.101547">
        <time>2023-04-26T07:28:16+00:00</time>
        <ele>2636.0</ele>
      </trkpt>
      <trkpt lat="45.283789" lon="7.101598">
        <time>2023-04-26T07:28:27+00:00</time>
        <ele>2638.0</ele>
      </trkpt>
      <trkpt lat="45.283763" lon="7.101629">
        <time>2023-04-26T07:28:37+00:00</time>
        <ele>2640.0</ele>
      </trkpt>
      <trkpt lat="45.283692" lon="7.101697">
        <time>2023-04-26T07:28:56+00:00</time>
        <ele>2642.0</ele>
      </trkpt>
      <trkpt lat="45.283671" lon="7.101737">
        <time>2023-04-26T07:29:05+00:00</time>
        <ele>2643.0</ele>
      </trkpt>
      <trkpt lat="45.283642" lon="7.101764">
        <time>2023-04-26T07:29:11+00:00</time>
        <ele>2644.0</ele>
      </trkpt>
      <trkpt lat="45.283595" lon="7.101808">
        <time>2023-04-26T07:29:27+00:00</time>
        <ele>2645.0</ele>
      </trkpt>
      <trkpt lat="45.283574" lon="7.101854">
        <time>2023-04-26T07:29:38+00:00</time>
        <ele>2647.0</ele>
      </trkpt>
      <trkpt lat="45.283505" lon="7.101904">
        <time>2023-04-26T07:29:53+00:00</time>
        <ele>2650.0</ele>
      </trkpt>
      <trkpt lat="45.283501" lon="7.101963">
        <time>2023-04-26T07:30:06+00:00</time>
        <ele>2651.0</ele>
      </trkpt>
      <trkpt lat="45.283516" lon="7.102012">
        <time>2023-04-26T07:30:14+00:00</time>
        <ele>2651.0</ele>
      </trkpt>
      <trkpt lat="45.283507" lon="7.102037">
        <time>2023-04-26T07:30:44+00:00</time>
        <ele>2652.0</ele>
      </trkpt>
      <trkpt lat="45.283542" lon="7.102137">
        <time>2023-04-26T07:30:56+00:00</time>
        <ele>2656.0</ele>
      </trkpt>
      <trkpt lat="45.28355" lon="7.102182">
        <time>2023-04-26T07:31:03+00:00</time>
        <ele>2658.0</ele>
      </trkpt>
      <trkpt lat="45.283561" lon="7.102234">
        <time>2023-04-26T07:31:11+00:00</time>
        <ele>2660.0</ele>
      </trkpt>
      <trkpt lat="45.283574" lon="7.102285">
        <time>2023-04-26T07:31:21+00:00</time>
        <ele>2662.0</ele>
      </trkpt>
      <trkpt lat="45.283585" lon="7.102343">
        <time>2023-04-26T07:31:36+00:00</time>
        <ele>2664.0</ele>
      </trkpt>
      <trkpt lat="45.283598" lon="7.102396">
        <time>2023-04-26T07:31:43+00:00</time>
        <ele>2666.0</ele>
      </trkpt>
      <trkpt lat="45.283642" lon="7.102497">
        <time>2023-04-26T07:32:16+00:00</time>
        <ele>2669.0</ele>
      </trkpt>
      <trkpt lat="45.283655" lon="7.102586">
        <time>2023-04-26T07:33:17+00:00</time>
        <ele>2673.0</ele>
      </trkpt>
      <trkpt lat="45.28362" lon="7.102593">
        <time>2023-04-26T07:33:38+00:00</time>
        <ele>2674.0</ele>
      </trkpt>
      <trkpt lat="45.283586" lon="7.102577">
        <time>2023-04-26T07:33:48+00:00</time>
        <ele>2674.0</ele>
      </trkpt>
      <trkpt lat="45.283506" lon="7.102546">
        <time>2023-04-26T07:34:09+00:00</time>
        <ele>2674.0</ele>
      </trkpt>
      <trkpt lat="45.28347" lon="7.10255">
        <time>2023-04-26T07:34:21+00:00</time>
        <ele>2675.0</ele>
      </trkpt>
      <trkpt lat="45.283408" lon="7.102557">
        <time>2023-04-26T07:34:54+00:00</time>
        <ele>2677.0</ele>
      </trkpt>
      <trkpt lat="45.283377" lon="7.102569">
        <time>2023-04-26T07:35:02+00:00</time>
        <ele>2678.0</ele>
      </trkpt>
      <trkpt lat="45.283338" lon="7.10258">
        <time>2023-04-26T07:35:18+00:00</time>
        <ele>2680.0</ele>
      </trkpt>
      <trkpt lat="45.283344" lon="7.102639">
        <time>2023-04-26T07:39:31+00:00</time>
        <ele>2683.0</ele>
      </trkpt>
      <trkpt lat="45.283383" lon="7.102724">
        <time>2023-04-26T07:39:42+00:00</time>
        <ele>2685.0</ele>
      </trkpt>
      <trkpt lat="45.283399" lon="7.102766">
        <time>2023-04-26T07:39:49+00:00</time>
        <ele>2687.0</ele>
      </trkpt>
      <trkpt lat="45.283397" lon="7.102821">
        <time>2023-04-26T07:40:11+00:00</time>
        <ele>2689.0</ele>
      </trkpt>
      <trkpt lat="45.283426" lon="7.10291">
        <time>2023-04-26T07:40:41+00:00</time>
        <ele>2691.0</ele>
      </trkpt>
      <trkpt lat="45.283465" lon="7.10295">
        <time>2023-04-26T07:40:46+00:00</time>
        <ele>2692.0</ele>
      </trkpt>
      <trkpt lat="45.283497" lon="7.102991">
        <time>2023-04-26T07:41:06+00:00</time>
        <ele>2693.0</ele>
      </trkpt>
      <trkpt lat="45.283476" lon="7.103027">
        <time>2023-04-26T07:41:29+00:00</time>
        <ele>2694.0</ele>
      </trkpt>
      <trkpt lat="45.28337" lon="7.103063">
        <time>2023-04-26T07:41:51+00:00</time>
        <ele>2698.0</ele>
      </trkpt>
      <trkpt lat="45.283343" lon="7.103067">
        <time>2023-04-26T07:41:58+00:00</time>
        <ele>2700.0</ele>
      </trkpt>
      <trkpt lat="45.28336" lon="7.103107">
        <time>2023-04-26T07:42:14+00:00</time>
        <ele>2700.0</ele>
      </trkpt>
      <trkpt lat="45.283359" lon="7.103168">
        <time>2023-04-26T07:42:25+00:00</time>
        <ele>2702.0</ele>
      </trkpt>
      <trkpt lat="45.283389" lon="7.103206">
        <time>2023-04-26T07:42:33+00:00</time>
        <ele>2702.0</ele>
      </trkpt>
      <trkpt lat="45.283411" lon="7.10324">
        <time>2023-04-26T07:42:51+00:00</time>
        <ele>2702.0</ele>
      </trkpt>
      <trkpt lat="45.283409" lon="7.10328">
        <time>2023-04-26T07:43:37+00:00</time>
        <ele>2703.0</ele>
      </trkpt>
      <trkpt lat="45.283428" lon="7.103333">
        <time>2023-04-26T07:43:52+00:00</time>
        <ele>2704.0</ele>
      </trkpt>
      <trkpt lat="45.283511" lon="7.10344">
        <time>2023-04-26T07:44:40+00:00</time>
        <ele>2705.0</ele>
      </trkpt>
      <trkpt lat="45.283478" lon="7.103484">
        <time>2023-04-26T07:44:57+00:00</time>
        <ele>2706.0</ele>
      </trkpt>
      <trkpt lat="45.283434" lon="7.103526">
        <time>2023-04-26T07:45:06+00:00</time>
        <ele>2707.0</ele>
      </trkpt>
      <trkpt lat="45.283375" lon="7.103588">
        <time>2023-04-26T07:45:18+00:00</time>
        <ele>2710.0</ele>
      </trkpt>
      <trkpt lat="45.283349" lon="7.103617">
        <time>2023-04-26T07:45:59+00:00</time>
        <ele>2711.0</ele>
      </trkpt>
      <trkpt lat="45.283293" lon="7.1037">
        <time>2023-04-26T07:46:12+00:00</time>
        <ele>2714.0</ele>
      </trkpt>
      <trkpt lat="45.283261" lon="7.103724">
        <time>2023-04-26T07:46:17+00:00</time>
        <ele>2716.0</ele>
      </trkpt>
      <trkpt lat="45.283233" lon="7.103761">
        <time>2023-04-26T07:46:24+00:00</time>
        <ele>2717.0</ele>
      </trkpt>
      <trkpt lat="45.283202" lon="7.103856">
        <time>2023-04-26T07:47:02+00:00</time>
        <ele>2718.0</ele>
      </trkpt>
      <trkpt lat="45.283171" lon="7.103908">
        <time>2023-04-26T07:47:13+00:00</time>
        <ele>2720.0</ele>
      </trkpt>
      <trkpt lat="45.283146" lon="7.103951">
        <time>2023-04-26T07:47:21+00:00</time>
        <ele>2721.0</ele>
      </trkpt>
      <trkpt lat="45.283097" lon="7.104036">
        <time>2023-04-26T07:47:37+00:00</time>
        <ele>2724.0</ele>
      </trkpt>
      <trkpt lat="45.283065" lon="7.104139">
        <time>2023-04-26T07:47:51+00:00</time>
        <ele>2727.0</ele>
      </trkpt>
      <trkpt lat="45.283056" lon="7.104235">
        <time>2023-04-26T07:48:04+00:00</time>
        <ele>2729.0</ele>
      </trkpt>
      <trkpt lat="45.283047" lon="7.104285">
        <time>2023-04-26T07:48:10+00:00</time>
        <ele>2730.0</ele>
      </trkpt>
      <trkpt lat="45.283032" lon="7.104332">
        <time>2023-04-26T07:48:36+00:00</time>
        <ele>2732.0</ele>
      </trkpt>
      <trkpt lat="45.283009" lon="7.104385">
        <time>2023-04-26T07:48:43+00:00</time>
        <ele>2734.0</ele>
      </trkpt>
      <trkpt lat="45.282987" lon="7.104426">
        <time>2023-04-26T07:48:51+00:00</time>
        <ele>2735.0</ele>
      </trkpt>
      <trkpt lat="45.282962" lon="7.104479">
        <time>2023-04-26T07:49:01+00:00</time>
        <ele>2737.0</ele>
      </trkpt>
      <trkpt lat="45.282905" lon="7.104619">
        <time>2023-04-26T07:49:26+00:00</time>
        <ele>2741.0</ele>
      </trkpt>
      <trkpt lat="45.282874" lon="7.104648">
        <time>2023-04-26T07:49:36+00:00</time>
        <ele>2742.0</ele>
      </trkpt>
      <trkpt lat="45.282845" lon="7.104685">
        <time>2023-04-26T07:49:46+00:00</time>
        <ele>2744.0</ele>
      </trkpt>
      <trkpt lat="45.28282" lon="7.104719">
        <time>2023-04-26T07:49:52+00:00</time>
        <ele>2745.0</ele>
      </trkpt>
      <trkpt lat="45.282795" lon="7.104762">
        <time>2023-04-26T07:50:21+00:00</time>
        <ele>2746.0</ele>
      </trkpt>
      <trkpt lat="45.282773" lon="7.104812">
        <time>2023-04-26T07:50:32+00:00</time>
        <ele>2748.0</ele>
      </trkpt>
      <trkpt lat="45.282752" lon="7.104846">
        <time>2023-04-26T07:50:39+00:00</time>
        <ele>2749.0</ele>
      </trkpt>
      <trkpt lat="45.28273" lon="7.104902">
        <time>2023-04-26T07:50:49+00:00</time>
        <ele>2751.0</ele>
      </trkpt>
      <trkpt lat="45.282718" lon="7.104954">
        <time>2023-04-26T07:50:56+00:00</time>
        <ele>2752.0</ele>
      </trkpt>
      <trkpt lat="45.282698" lon="7.104997">
        <time>2023-04-26T07:51:03+00:00</time>
        <ele>2753.0</ele>
      </trkpt>
      <trkpt lat="45.282689" lon="7.105048">
        <time>2023-04-26T07:51:09+00:00</time>
        <ele>2754.0</ele>
      </trkpt>
      <trkpt lat="45.282672" lon="7.105089">
        <time>2023-04-26T07:51:30+00:00</time>
        <ele>2755.0</ele>
      </trkpt>
      <trkpt lat="45.282661" lon="7.105144">
        <time>2023-04-26T07:51:38+00:00</time>
        <ele>2756.0</ele>
      </trkpt>
      <trkpt lat="45.282647" lon="7.105252">
        <time>2023-04-26T07:51:59+00:00</time>
        <ele>2758.0</ele>
      </trkpt>
      <trkpt lat="45.282635" lon="7.105297">
        <time>2023-04-26T07:52:04+00:00</time>
        <ele>2759.0</ele>
      </trkpt>
      <trkpt lat="45.282576" lon="7.10534">
        <time>2023-04-26T07:52:30+00:00</time>
        <ele>2761.0</ele>
      </trkpt>
      <trkpt lat="45.282496" lon="7.105376">
        <time>2023-04-26T07:52:45+00:00</time>
        <ele>2763.0</ele>
      </trkpt>
      <trkpt lat="45.28243" lon="7.105389">
        <time>2023-04-26T07:52:59+00:00</time>
        <ele>2765.0</ele>
      </trkpt>
      <trkpt lat="45.282316" lon="7.105417">
        <time>2023-04-26T07:53:20+00:00</time>
        <ele>2768.0</ele>
      </trkpt>
      <trkpt lat="45.282217" lon="7.105454">
        <time>2023-04-26T07:53:42+00:00</time>
        <ele>2770.0</ele>
      </trkpt>
      <trkpt lat="45.282181" lon="7.105479">
        <time>2023-04-26T07:53:49+00:00</time>
        <ele>2772.0</ele>
      </trkpt>
      <trkpt lat="45.282093" lon="7.105588">
        <time>2023-04-26T07:54:13+00:00</time>
        <ele>2776.0</ele>
      </trkpt>
      <trkpt lat="45.282042" lon="7.105659">
        <time>2023-04-26T07:54:28+00:00</time>
        <ele>2780.0</ele>
      </trkpt>
      <trkpt lat="45.28203" lon="7.105684">
        <time>2023-04-26T07:55:07+00:00</time>
        <ele>2781.0</ele>
      </trkpt>
      <trkpt lat="45.28201" lon="7.105683">
        <time>2023-04-26T07:55:40+00:00</time>
        <ele>2781.0</ele>
      </trkpt>
      <trkpt lat="45.281992" lon="7.10569">
        <time>2023-04-26T07:55:43+00:00</time>
        <ele>2782.0</ele>
      </trkpt>
      <trkpt lat="45.281974" lon="7.105697">
        <time>2023-04-26T07:55:47+00:00</time>
        <ele>2782.0</ele>
      </trkpt>
      <trkpt lat="45.28184" lon="7.105798">
        <time>2023-04-26T07:56:21+00:00</time>
        <ele>2788.0</ele>
      </trkpt>
      <trkpt lat="45.281743" lon="7.105855">
        <time>2023-04-26T07:56:45+00:00</time>
        <ele>2791.0</ele>
      </trkpt>
      <trkpt lat="45.281722" lon="7.105853">
        <time>2023-04-26T07:56:49+00:00</time>
        <ele>2792.0</ele>
      </trkpt>
      <trkpt lat="45.28168" lon="7.105881">
        <time>2023-04-26T07:56:59+00:00</time>
        <ele>2793.0</ele>
      </trkpt>
      <trkpt lat="45.28164" lon="7.105894">
        <time>2023-04-26T07:57:08+00:00</time>
        <ele>2793.0</ele>
      </trkpt>
      <trkpt lat="45.281622" lon="7.105909">
        <time>2023-04-26T07:57:13+00:00</time>
        <ele>2794.0</ele>
      </trkpt>
      <trkpt lat="45.281601" lon="7.105921">
        <time>2023-04-26T07:57:18+00:00</time>
        <ele>2795.0</ele>
      </trkpt>
      <trkpt lat="45.281557" lon="7.105985">
        <time>2023-04-26T07:57:55+00:00</time>
        <ele>2798.0</ele>
      </trkpt>
      <trkpt lat="45.281474" lon="7.106053">
        <time>2023-04-26T07:58:19+00:00</time>
        <ele>2801.0</ele>
      </trkpt>
      <trkpt lat="45.281447" lon="7.106093">
        <time>2023-04-26T07:58:28+00:00</time>
        <ele>2802.0</ele>
      </trkpt>
      <trkpt lat="45.281433" lon="7.106117">
        <time>2023-04-26T07:58:34+00:00</time>
        <ele>2802.0</ele>
      </trkpt>
      <trkpt lat="45.28142" lon="7.106137">
        <time>2023-04-26T07:58:37+00:00</time>
        <ele>2803.0</ele>
      </trkpt>
      <trkpt lat="45.281405" lon="7.106157">
        <time>2023-04-26T07:58:42+00:00</time>
        <ele>2803.0</ele>
      </trkpt>
      <trkpt lat="45.281389" lon="7.106169">
        <time>2023-04-26T07:58:47+00:00</time>
        <ele>2804.0</ele>
      </trkpt>
      <trkpt lat="45.281352" lon="7.106242">
        <time>2023-04-26T07:59:02+00:00</time>
        <ele>2806.0</ele>
      </trkpt>
      <trkpt lat="45.281338" lon="7.106259">
        <time>2023-04-26T07:59:07+00:00</time>
        <ele>2806.0</ele>
      </trkpt>
      <trkpt lat="45.281303" lon="7.106327">
        <time>2023-04-26T07:59:45+00:00</time>
        <ele>2809.0</ele>
      </trkpt>
      <trkpt lat="45.281269" lon="7.106373">
        <time>2023-04-26T07:59:54+00:00</time>
        <ele>2811.0</ele>
      </trkpt>
      <trkpt lat="45.281247" lon="7.106397">
        <time>2023-04-26T08:00:02+00:00</time>
        <ele>2812.0</ele>
      </trkpt>
      <trkpt lat="45.281235" lon="7.106419">
        <time>2023-04-26T08:00:10+00:00</time>
        <ele>2813.0</ele>
      </trkpt>
      <trkpt lat="45.281207" lon="7.106463">
        <time>2023-04-26T08:00:18+00:00</time>
        <ele>2815.0</ele>
      </trkpt>
      <trkpt lat="45.281137" lon="7.106586">
        <time>2023-04-26T08:00:48+00:00</time>
        <ele>2820.0</ele>
      </trkpt>
      <trkpt lat="45.281122" lon="7.106605">
        <time>2023-04-26T08:00:53+00:00</time>
        <ele>2821.0</ele>
      </trkpt>
      <trkpt lat="45.281074" lon="7.106629">
        <time>2023-04-26T08:01:08+00:00</time>
        <ele>2823.0</ele>
      </trkpt>
      <trkpt lat="45.281053" lon="7.106624">
        <time>2023-04-26T08:01:13+00:00</time>
        <ele>2823.0</ele>
      </trkpt>
      <trkpt lat="45.28103" lon="7.106634">
        <time>2023-04-26T08:01:19+00:00</time>
        <ele>2824.0</ele>
      </trkpt>
      <trkpt lat="45.28101" lon="7.106648">
        <time>2023-04-26T08:01:23+00:00</time>
        <ele>2825.0</ele>
      </trkpt>
      <trkpt lat="45.280966" lon="7.106659">
        <time>2023-04-26T08:01:33+00:00</time>
        <ele>2826.0</ele>
      </trkpt>
      <trkpt lat="45.280926" lon="7.1067">
        <time>2023-04-26T08:02:02+00:00</time>
        <ele>2828.0</ele>
      </trkpt>
      <trkpt lat="45.280899" lon="7.106718">
        <time>2023-04-26T08:02:07+00:00</time>
        <ele>2828.0</ele>
      </trkpt>
      <trkpt lat="45.280877" lon="7.106726">
        <time>2023-04-26T08:02:12+00:00</time>
        <ele>2829.0</ele>
      </trkpt>
      <trkpt lat="45.280853" lon="7.106745">
        <time>2023-04-26T08:02:17+00:00</time>
        <ele>2829.0</ele>
      </trkpt>
      <trkpt lat="45.280808" lon="7.106774">
        <time>2023-04-26T08:02:29+00:00</time>
        <ele>2830.0</ele>
      </trkpt>
      <trkpt lat="45.280787" lon="7.106792">
        <time>2023-04-26T08:02:35+00:00</time>
        <ele>2831.0</ele>
      </trkpt>
      <trkpt lat="45.280689" lon="7.106914">
        <time>2023-04-26T08:03:03+00:00</time>
        <ele>2835.0</ele>
      </trkpt>
      <trkpt lat="45.280671" lon="7.106947">
        <time>2023-04-26T08:03:10+00:00</time>
        <ele>2836.0</ele>
      </trkpt>
      <trkpt lat="45.280648" lon="7.106964">
        <time>2023-04-26T08:03:15+00:00</time>
        <ele>2837.0</ele>
      </trkpt>
      <trkpt lat="45.280615" lon="7.107021">
        <time>2023-04-26T08:03:27+00:00</time>
        <ele>2838.0</ele>
      </trkpt>
      <trkpt lat="45.28057" lon="7.107063">
        <time>2023-04-26T08:03:42+00:00</time>
        <ele>2840.0</ele>
      </trkpt>
      <trkpt lat="45.280488" lon="7.107213">
        <time>2023-04-26T08:04:09+00:00</time>
        <ele>2845.0</ele>
      </trkpt>
      <trkpt lat="45.280471" lon="7.107237">
        <time>2023-04-26T08:04:15+00:00</time>
        <ele>2846.0</ele>
      </trkpt>
      <trkpt lat="45.280457" lon="7.107262">
        <time>2023-04-26T08:04:20+00:00</time>
        <ele>2847.0</ele>
      </trkpt>
      <trkpt lat="45.280448" lon="7.107284">
        <time>2023-04-26T08:04:43+00:00</time>
        <ele>2847.0</ele>
      </trkpt>
      <trkpt lat="45.280439" lon="7.107313">
        <time>2023-04-26T08:08:05+00:00</time>
        <ele>2848.0</ele>
      </trkpt>
      <trkpt lat="45.280401" lon="7.10741">
        <time>2023-04-26T08:08:17+00:00</time>
        <ele>2851.0</ele>
      </trkpt>
      <trkpt lat="45.280304" lon="7.107495">
        <time>2023-04-26T08:08:37+00:00</time>
        <ele>2854.0</ele>
      </trkpt>
      <trkpt lat="45.28028" lon="7.10749">
        <time>2023-04-26T08:08:44+00:00</time>
        <ele>2854.0</ele>
      </trkpt>
      <trkpt lat="45.280175" lon="7.107564">
        <time>2023-04-26T08:09:37+00:00</time>
        <ele>2856.0</ele>
      </trkpt>
      <trkpt lat="45.280158" lon="7.107574">
        <time>2023-04-26T08:09:40+00:00</time>
        <ele>2857.0</ele>
      </trkpt>
      <trkpt lat="45.280114" lon="7.107639">
        <time>2023-04-26T08:09:52+00:00</time>
        <ele>2858.0</ele>
      </trkpt>
      <trkpt lat="45.280094" lon="7.107664">
        <time>2023-04-26T08:09:57+00:00</time>
        <ele>2859.0</ele>
      </trkpt>
      <trkpt lat="45.280047" lon="7.107774">
        <time>2023-04-26T08:10:13+00:00</time>
        <ele>2861.0</ele>
      </trkpt>
      <trkpt lat="45.280025" lon="7.107803">
        <time>2023-04-26T08:10:20+00:00</time>
        <ele>2862.0</ele>
      </trkpt>
      <trkpt lat="45.28001" lon="7.107832">
        <time>2023-04-26T08:10:24+00:00</time>
        <ele>2862.0</ele>
      </trkpt>
      <trkpt lat="45.279892" lon="7.107974">
        <time>2023-04-26T08:10:54+00:00</time>
        <ele>2866.0</ele>
      </trkpt>
      <trkpt lat="45.279816" lon="7.108056">
        <time>2023-04-26T08:11:14+00:00</time>
        <ele>2869.0</ele>
      </trkpt>
      <trkpt lat="45.279805" lon="7.108097">
        <time>2023-04-26T08:11:20+00:00</time>
        <ele>2869.0</ele>
      </trkpt>
      <trkpt lat="45.27978" lon="7.10812">
        <time>2023-04-26T08:11:27+00:00</time>
        <ele>2870.0</ele>
      </trkpt>
      <trkpt lat="45.279756" lon="7.108126">
        <time>2023-04-26T08:11:32+00:00</time>
        <ele>2871.0</ele>
      </trkpt>
      <trkpt lat="45.279739" lon="7.108133">
        <time>2023-04-26T08:11:35+00:00</time>
        <ele>2871.0</ele>
      </trkpt>
      <trkpt lat="45.27961" lon="7.108194">
        <time>2023-04-26T08:12:03+00:00</time>
        <ele>2875.0</ele>
      </trkpt>
      <trkpt lat="45.279587" lon="7.108209">
        <time>2023-04-26T08:12:10+00:00</time>
        <ele>2876.0</ele>
      </trkpt>
      <trkpt lat="45.27951" lon="7.108404">
        <time>2023-04-26T08:12:42+00:00</time>
        <ele>2881.0</ele>
      </trkpt>
      <trkpt lat="45.27945" lon="7.108505">
        <time>2023-04-26T08:13:04+00:00</time>
        <ele>2884.0</ele>
      </trkpt>
      <trkpt lat="45.27931" lon="7.108507">
        <time>2023-04-26T08:13:37+00:00</time>
        <ele>2890.0</ele>
      </trkpt>
      <trkpt lat="45.279289" lon="7.108504">
        <time>2023-04-26T08:13:44+00:00</time>
        <ele>2890.0</ele>
      </trkpt>
      <trkpt lat="45.279269" lon="7.108514">
        <time>2023-04-26T08:13:48+00:00</time>
        <ele>2891.0</ele>
      </trkpt>
      <trkpt lat="45.279253" lon="7.108549">
        <time>2023-04-26T08:13:58+00:00</time>
        <ele>2892.0</ele>
      </trkpt>
      <trkpt lat="45.279249" lon="7.108589">
        <time>2023-04-26T08:14:04+00:00</time>
        <ele>2893.0</ele>
      </trkpt>
      <trkpt lat="45.279239" lon="7.108645">
        <time>2023-04-26T08:14:14+00:00</time>
        <ele>2894.0</ele>
      </trkpt>
      <trkpt lat="45.279204" lon="7.108736">
        <time>2023-04-26T08:14:52+00:00</time>
        <ele>2897.0</ele>
      </trkpt>
      <trkpt lat="45.279167" lon="7.108869">
        <time>2023-04-26T08:15:13+00:00</time>
        <ele>2900.0</ele>
      </trkpt>
      <trkpt lat="45.279149" lon="7.108947">
        <time>2023-04-26T08:15:27+00:00</time>
        <ele>2902.0</ele>
      </trkpt>
      <trkpt lat="45.279143" lon="7.108986">
        <time>2023-04-26T08:15:32+00:00</time>
        <ele>2903.0</ele>
      </trkpt>
      <trkpt lat="45.279127" lon="7.109012">
        <time>2023-04-26T08:15:42+00:00</time>
        <ele>2904.0</ele>
      </trkpt>
      <trkpt lat="45.279123" lon="7.109061">
        <time>2023-04-26T08:15:47+00:00</time>
        <ele>2904.0</ele>
      </trkpt>
      <trkpt lat="45.279114" lon="7.109097">
        <time>2023-04-26T08:15:52+00:00</time>
        <ele>2905.0</ele>
      </trkpt>
      <trkpt lat="45.279094" lon="7.109128">
        <time>2023-04-26T08:15:58+00:00</time>
        <ele>2906.0</ele>
      </trkpt>
      <trkpt lat="45.279079" lon="7.109161">
        <time>2023-04-26T08:16:05+00:00</time>
        <ele>2907.0</ele>
      </trkpt>
      <trkpt lat="45.279041" lon="7.109196">
        <time>2023-04-26T08:16:39+00:00</time>
        <ele>2909.0</ele>
      </trkpt>
      <trkpt lat="45.279018" lon="7.109216">
        <time>2023-04-26T08:16:44+00:00</time>
        <ele>2910.0</ele>
      </trkpt>
      <trkpt lat="45.278993" lon="7.109233">
        <time>2023-04-26T08:16:52+00:00</time>
        <ele>2911.0</ele>
      </trkpt>
      <trkpt lat="45.278977" lon="7.109257">
        <time>2023-04-26T08:16:58+00:00</time>
        <ele>2912.0</ele>
      </trkpt>
      <trkpt lat="45.278888" lon="7.109411">
        <time>2023-04-26T08:17:29+00:00</time>
        <ele>2916.0</ele>
      </trkpt>
      <trkpt lat="45.278814" lon="7.109486">
        <time>2023-04-26T08:17:48+00:00</time>
        <ele>2918.0</ele>
      </trkpt>
      <trkpt lat="45.2788" lon="7.109513">
        <time>2023-04-26T08:17:55+00:00</time>
        <ele>2919.0</ele>
      </trkpt>
      <trkpt lat="45.278777" lon="7.109535">
        <time>2023-04-26T08:18:14+00:00</time>
        <ele>2919.0</ele>
      </trkpt>
      <trkpt lat="45.278708" lon="7.109714">
        <time>2023-04-26T08:18:36+00:00</time>
        <ele>2921.0</ele>
      </trkpt>
      <trkpt lat="45.278697" lon="7.10975">
        <time>2023-04-26T08:18:40+00:00</time>
        <ele>2921.0</ele>
      </trkpt>
      <trkpt lat="45.278666" lon="7.109966">
        <time>2023-04-26T08:22:27+00:00</time>
        <ele>2922.0</ele>
      </trkpt>
      <trkpt lat="45.278577" lon="7.110266">
        <time>2023-04-26T08:22:58+00:00</time>
        <ele>2926.0</ele>
      </trkpt>
      <trkpt lat="45.278514" lon="7.110427">
        <time>2023-04-26T08:23:17+00:00</time>
        <ele>2928.0</ele>
      </trkpt>
      <trkpt lat="45.278498" lon="7.110471">
        <time>2023-04-26T08:23:22+00:00</time>
        <ele>2929.0</ele>
      </trkpt>
      <trkpt lat="45.278481" lon="7.110512">
        <time>2023-04-26T08:23:27+00:00</time>
        <ele>2929.0</ele>
      </trkpt>
      <trkpt lat="45.278445" lon="7.110597">
        <time>2023-04-26T08:23:39+00:00</time>
        <ele>2930.0</ele>
      </trkpt>
      <trkpt lat="45.278428" lon="7.110637">
        <time>2023-04-26T08:23:43+00:00</time>
        <ele>2930.0</ele>
      </trkpt>
      <trkpt lat="45.278377" lon="7.110706">
        <time>2023-04-26T08:23:54+00:00</time>
        <ele>2931.0</ele>
      </trkpt>
      <trkpt lat="45.278348" lon="7.110764">
        <time>2023-04-26T08:24:02+00:00</time>
        <ele>2932.0</ele>
      </trkpt>
      <trkpt lat="45.278286" lon="7.110826">
        <time>2023-04-26T08:24:15+00:00</time>
        <ele>2933.0</ele>
      </trkpt>
      <trkpt lat="45.278257" lon="7.11086">
        <time>2023-04-26T08:24:22+00:00</time>
        <ele>2933.0</ele>
      </trkpt>
      <trkpt lat="45.278234" lon="7.110906">
        <time>2023-04-26T08:24:28+00:00</time>
        <ele>2934.0</ele>
      </trkpt>
      <trkpt lat="45.278206" lon="7.110932">
        <time>2023-04-26T08:24:34+00:00</time>
        <ele>2935.0</ele>
      </trkpt>
      <trkpt lat="45.278178" lon="7.110969">
        <time>2023-04-26T08:24:39+00:00</time>
        <ele>2937.0</ele>
      </trkpt>
      <trkpt lat="45.278156" lon="7.111007">
        <time>2023-04-26T08:24:44+00:00</time>
        <ele>2938.0</ele>
      </trkpt>
      <trkpt lat="45.278132" lon="7.111034">
        <time>2023-04-26T08:24:58+00:00</time>
        <ele>2939.0</ele>
      </trkpt>
      <trkpt lat="45.278077" lon="7.1111">
        <time>2023-04-26T08:25:10+00:00</time>
        <ele>2942.0</ele>
      </trkpt>
      <trkpt lat="45.278042" lon="7.11113">
        <time>2023-04-26T08:25:20+00:00</time>
        <ele>2943.0</ele>
      </trkpt>
      <trkpt lat="45.277979" lon="7.11117">
        <time>2023-04-26T08:25:52+00:00</time>
        <ele>2946.0</ele>
      </trkpt>
      <trkpt lat="45.277924" lon="7.111198">
        <time>2023-04-26T08:26:08+00:00</time>
        <ele>2949.0</ele>
      </trkpt>
      <trkpt lat="45.277886" lon="7.111213">
        <time>2023-04-26T08:26:17+00:00</time>
        <ele>2950.0</ele>
      </trkpt>
      <trkpt lat="45.277852" lon="7.111226">
        <time>2023-04-26T08:26:25+00:00</time>
        <ele>2952.0</ele>
      </trkpt>
      <trkpt lat="45.277814" lon="7.111244">
        <time>2023-04-26T08:26:35+00:00</time>
        <ele>2953.0</ele>
      </trkpt>
      <trkpt lat="45.277781" lon="7.111273">
        <time>2023-04-26T08:26:42+00:00</time>
        <ele>2955.0</ele>
      </trkpt>
      <trkpt lat="45.277769" lon="7.111324">
        <time>2023-04-26T08:27:39+00:00</time>
        <ele>2957.0</ele>
      </trkpt>
      <trkpt lat="45.277751" lon="7.111377">
        <time>2023-04-26T08:27:50+00:00</time>
        <ele>2959.0</ele>
      </trkpt>
      <trkpt lat="45.277754" lon="7.111435">
        <time>2023-04-26T08:27:58+00:00</time>
        <ele>2960.0</ele>
      </trkpt>
      <trkpt lat="45.277722" lon="7.111477">
        <time>2023-04-26T08:28:08+00:00</time>
        <ele>2962.0</ele>
      </trkpt>
      <trkpt lat="45.277685" lon="7.111483">
        <time>2023-04-26T08:28:18+00:00</time>
        <ele>2963.0</ele>
      </trkpt>
      <trkpt lat="45.277618" lon="7.111493">
        <time>2023-04-26T08:28:38+00:00</time>
        <ele>2965.0</ele>
      </trkpt>
      <trkpt lat="45.277589" lon="7.111539">
        <time>2023-04-26T08:29:13+00:00</time>
        <ele>2967.0</ele>
      </trkpt>
      <trkpt lat="45.277564" lon="7.111602">
        <time>2023-04-26T08:29:26+00:00</time>
        <ele>2969.0</ele>
      </trkpt>
      <trkpt lat="45.277542" lon="7.111637">
        <time>2023-04-26T08:29:41+00:00</time>
        <ele>2971.0</ele>
      </trkpt>
      <trkpt lat="45.27751" lon="7.111651">
        <time>2023-04-26T08:29:53+00:00</time>
        <ele>2972.0</ele>
      </trkpt>
      <trkpt lat="45.277439" lon="7.111644">
        <time>2023-04-26T08:30:14+00:00</time>
        <ele>2974.0</ele>
      </trkpt>
      <trkpt lat="45.277418" lon="7.111686">
        <time>2023-04-26T08:30:25+00:00</time>
        <ele>2976.0</ele>
      </trkpt>
      <trkpt lat="45.277399" lon="7.111735">
        <time>2023-04-26T08:30:36+00:00</time>
        <ele>2977.0</ele>
      </trkpt>
      <trkpt lat="45.277392" lon="7.111785">
        <time>2023-04-26T08:30:44+00:00</time>
        <ele>2979.0</ele>
      </trkpt>
      <trkpt lat="45.277376" lon="7.111825">
        <time>2023-04-26T08:30:54+00:00</time>
        <ele>2980.0</ele>
      </trkpt>
      <trkpt lat="45.277276" lon="7.111835">
        <time>2023-04-26T08:31:28+00:00</time>
        <ele>2984.0</ele>
      </trkpt>
      <trkpt lat="45.277243" lon="7.111833">
        <time>2023-04-26T08:31:41+00:00</time>
        <ele>2985.0</ele>
      </trkpt>
      <trkpt lat="45.277207" lon="7.111841">
        <time>2023-04-26T08:31:50+00:00</time>
        <ele>2986.0</ele>
      </trkpt>
      <trkpt lat="45.277168" lon="7.111849">
        <time>2023-04-26T08:32:04+00:00</time>
        <ele>2988.0</ele>
      </trkpt>
      <trkpt lat="45.277136" lon="7.111872">
        <time>2023-04-26T08:32:10+00:00</time>
        <ele>2989.0</ele>
      </trkpt>
      <trkpt lat="45.277066" lon="7.111878">
        <time>2023-04-26T08:32:31+00:00</time>
        <ele>2992.0</ele>
      </trkpt>
      <trkpt lat="45.277021" lon="7.111892">
        <time>2023-04-26T08:32:45+00:00</time>
        <ele>2993.0</ele>
      </trkpt>
      <trkpt lat="45.277007" lon="7.111949">
        <time>2023-04-26T08:32:58+00:00</time>
        <ele>2995.0</ele>
      </trkpt>
      <trkpt lat="45.276997" lon="7.111995">
        <time>2023-04-26T08:33:08+00:00</time>
        <ele>2997.0</ele>
      </trkpt>
      <trkpt lat="45.277007" lon="7.112049">
        <time>2023-04-26T08:33:17+00:00</time>
        <ele>2998.0</ele>
      </trkpt>
      <trkpt lat="45.27697" lon="7.112077">
        <time>2023-04-26T08:33:33+00:00</time>
        <ele>3000.0</ele>
      </trkpt>
      <trkpt lat="45.276895" lon="7.112074">
        <time>2023-04-26T08:33:53+00:00</time>
        <ele>3003.0</ele>
      </trkpt>
      <trkpt lat="45.276815" lon="7.112054">
        <time>2023-04-26T08:34:16+00:00</time>
        <ele>3005.0</ele>
      </trkpt>
      <trkpt lat="45.276788" lon="7.112104">
        <time>2023-04-26T08:34:48+00:00</time>
        <ele>3007.0</ele>
      </trkpt>
      <trkpt lat="45.276785" lon="7.11221">
        <time>2023-04-26T08:35:08+00:00</time>
        <ele>3010.0</ele>
      </trkpt>
      <trkpt lat="45.276781" lon="7.11231">
        <time>2023-04-26T08:35:21+00:00</time>
        <ele>3013.0</ele>
      </trkpt>
      <trkpt lat="45.276771" lon="7.112421">
        <time>2023-04-26T08:35:38+00:00</time>
        <ele>3016.0</ele>
      </trkpt>
      <trkpt lat="45.276768" lon="7.112456">
        <time>2023-04-26T08:36:08+00:00</time>
        <ele>3017.0</ele>
      </trkpt>
      <trkpt lat="45.276681" lon="7.112427">
        <time>2023-04-26T08:36:47+00:00</time>
        <ele>3020.0</ele>
      </trkpt>
      <trkpt lat="45.276653" lon="7.112407">
        <time>2023-04-26T08:36:54+00:00</time>
        <ele>3020.0</ele>
      </trkpt>
      <trkpt lat="45.276624" lon="7.112383">
        <time>2023-04-26T08:37:04+00:00</time>
        <ele>3021.0</ele>
      </trkpt>
      <trkpt lat="45.276558" lon="7.11236">
        <time>2023-04-26T08:37:23+00:00</time>
        <ele>3023.0</ele>
      </trkpt>
      <trkpt lat="45.276416" lon="7.11239">
        <time>2023-04-26T08:37:54+00:00</time>
        <ele>3027.0</ele>
      </trkpt>
      <trkpt lat="45.276382" lon="7.11239">
        <time>2023-04-26T08:38:00+00:00</time>
        <ele>3028.0</ele>
      </trkpt>
      <trkpt lat="45.276338" lon="7.112405">
        <time>2023-04-26T08:38:09+00:00</time>
        <ele>3029.0</ele>
      </trkpt>
      <trkpt lat="45.276269" lon="7.112418">
        <time>2023-04-26T08:38:22+00:00</time>
        <ele>3031.0</ele>
      </trkpt>
      <trkpt lat="45.27624" lon="7.112464">
        <time>2023-04-26T08:38:58+00:00</time>
        <ele>3033.0</ele>
      </trkpt>
      <trkpt lat="45.276222" lon="7.112509">
        <time>2023-04-26T08:39:06+00:00</time>
        <ele>3034.0</ele>
      </trkpt>
      <trkpt lat="45.276197" lon="7.11255">
        <time>2023-04-26T08:39:18+00:00</time>
        <ele>3035.0</ele>
      </trkpt>
      <trkpt lat="45.276172" lon="7.112572">
        <time>2023-04-26T08:39:27+00:00</time>
        <ele>3036.0</ele>
      </trkpt>
      <trkpt lat="45.276068" lon="7.112608">
        <time>2023-04-26T08:39:48+00:00</time>
        <ele>3039.0</ele>
      </trkpt>
      <trkpt lat="45.275985" lon="7.112632">
        <time>2023-04-26T08:40:08+00:00</time>
        <ele>3041.0</ele>
      </trkpt>
      <trkpt lat="45.275916" lon="7.112672">
        <time>2023-04-26T08:40:37+00:00</time>
        <ele>3042.0</ele>
      </trkpt>
      <trkpt lat="45.275843" lon="7.112703">
        <time>2023-04-26T08:40:49+00:00</time>
        <ele>3043.0</ele>
      </trkpt>
      <trkpt lat="45.275813" lon="7.112734">
        <time>2023-04-26T08:40:54+00:00</time>
        <ele>3044.0</ele>
      </trkpt>
      <trkpt lat="45.275744" lon="7.112756">
        <time>2023-04-26T08:41:04+00:00</time>
        <ele>3046.0</ele>
      </trkpt>
      <trkpt lat="45.275641" lon="7.112817">
        <time>2023-04-26T08:41:20+00:00</time>
        <ele>3048.0</ele>
      </trkpt>
      <trkpt lat="45.275612" lon="7.112837">
        <time>2023-04-26T08:41:25+00:00</time>
        <ele>3048.0</ele>
      </trkpt>
      <trkpt lat="45.275441" lon="7.112924">
        <time>2023-04-26T08:41:54+00:00</time>
        <ele>3050.0</ele>
      </trkpt>
      <trkpt lat="45.275412" lon="7.112952">
        <time>2023-04-26T08:42:00+00:00</time>
        <ele>3051.0</ele>
      </trkpt>
      <trkpt lat="45.275274" lon="7.113003">
        <time>2023-04-26T08:42:31+00:00</time>
        <ele>3051.0</ele>
      </trkpt>
      <trkpt lat="45.275231" lon="7.113004">
        <time>2023-04-26T08:42:35+00:00</time>
        <ele>3051.0</ele>
      </trkpt>
      <trkpt lat="45.27509" lon="7.112935">
        <time>2023-04-26T08:42:51+00:00</time>
        <ele>3050.0</ele>
      </trkpt>
      <trkpt lat="45.275053" lon="7.112938">
        <time>2023-04-26T08:42:55+00:00</time>
        <ele>3050.0</ele>
      </trkpt>
      <trkpt lat="45.274948" lon="7.112896">
        <time>2023-04-26T08:43:04+00:00</time>
        <ele>3048.0</ele>
      </trkpt>
      <trkpt lat="45.274912" lon="7.112888">
        <time>2023-04-26T08:43:08+00:00</time>
        <ele>3048.0</ele>
      </trkpt>
      <trkpt lat="45.274882" lon="7.112876">
        <time>2023-04-26T08:43:12+00:00</time>
        <ele>3047.0</ele>
      </trkpt>
      <trkpt lat="45.274893" lon="7.112848">
        <time>2023-04-26T08:48:06+00:00</time>
        <ele>3047.0</ele>
      </trkpt>
      <trkpt lat="45.274853" lon="7.112831">
        <time>2023-04-26T08:51:20+00:00</time>
        <ele>3046.0</ele>
      </trkpt>
      <trkpt lat="45.274831" lon="7.112787">
        <time>2023-04-26T08:51:59+00:00</time>
        <ele>3045.0</ele>
      </trkpt>
      <trkpt lat="45.274791" lon="7.112767">
        <time>2023-04-26T08:52:01+00:00</time>
        <ele>3044.0</ele>
      </trkpt>
      <trkpt lat="45.274481" lon="7.113113">
        <time>2023-04-26T08:52:13+00:00</time>
        <ele>3035.0</ele>
      </trkpt>
      <trkpt lat="45.27446" lon="7.113167">
        <time>2023-04-26T08:52:15+00:00</time>
        <ele>3035.0</ele>
      </trkpt>
      <trkpt lat="45.2744" lon="7.113139">
        <time>2023-04-26T08:52:43+00:00</time>
        <ele>3032.0</ele>
      </trkpt>
      <trkpt lat="45.27439" lon="7.112958">
        <time>2023-04-26T08:52:46+00:00</time>
        <ele>3029.0</ele>
      </trkpt>
      <trkpt lat="45.2744" lon="7.112857">
        <time>2023-04-26T08:52:48+00:00</time>
        <ele>3028.0</ele>
      </trkpt>
      <trkpt lat="45.274334" lon="7.11283">
        <time>2023-04-26T08:52:51+00:00</time>
        <ele>3025.0</ele>
      </trkpt>
      <trkpt lat="45.274297" lon="7.112871">
        <time>2023-04-26T08:52:52+00:00</time>
        <ele>3024.0</ele>
      </trkpt>
      <trkpt lat="45.274201" lon="7.113036">
        <time>2023-04-26T08:52:56+00:00</time>
        <ele>3024.0</ele>
      </trkpt>
      <trkpt lat="45.274171" lon="7.112907">
        <time>2023-04-26T08:53:00+00:00</time>
        <ele>3020.0</ele>
      </trkpt>
      <trkpt lat="45.274169" lon="7.112759">
        <time>2023-04-26T08:53:03+00:00</time>
        <ele>3017.0</ele>
      </trkpt>
      <trkpt lat="45.27411" lon="7.112801">
        <time>2023-04-26T08:53:06+00:00</time>
        <ele>3014.0</ele>
      </trkpt>
      <trkpt lat="45.274075" lon="7.112875">
        <time>2023-04-26T08:53:08+00:00</time>
        <ele>3015.0</ele>
      </trkpt>
      <trkpt lat="45.274026" lon="7.112825">
        <time>2023-04-26T08:53:10+00:00</time>
        <ele>3012.0</ele>
      </trkpt>
      <trkpt lat="45.274002" lon="7.11276">
        <time>2023-04-26T08:53:11+00:00</time>
        <ele>3009.0</ele>
      </trkpt>
      <trkpt lat="45.273983" lon="7.112668">
        <time>2023-04-26T08:53:13+00:00</time>
        <ele>3007.0</ele>
      </trkpt>
      <trkpt lat="45.273931" lon="7.112645">
        <time>2023-04-26T08:53:16+00:00</time>
        <ele>3005.0</ele>
      </trkpt>
      <trkpt lat="45.273904" lon="7.112747">
        <time>2023-04-26T08:53:18+00:00</time>
        <ele>3005.0</ele>
      </trkpt>
      <trkpt lat="45.273837" lon="7.112735">
        <time>2023-04-26T08:53:21+00:00</time>
        <ele>3003.0</ele>
      </trkpt>
      <trkpt lat="45.273758" lon="7.112366">
        <time>2023-04-26T08:53:26+00:00</time>
        <ele>2996.0</ele>
      </trkpt>
      <trkpt lat="45.273758" lon="7.112296">
        <time>2023-04-26T08:53:28+00:00</time>
        <ele>2996.0</ele>
      </trkpt>
      <trkpt lat="45.27349" lon="7.111564">
        <time>2023-04-26T08:53:43+00:00</time>
        <ele>2984.0</ele>
      </trkpt>
      <trkpt lat="45.273394" lon="7.111412">
        <time>2023-04-26T08:53:46+00:00</time>
        <ele>2982.0</ele>
      </trkpt>
      <trkpt lat="45.273238" lon="7.111157">
        <time>2023-04-26T08:53:51+00:00</time>
        <ele>2978.0</ele>
      </trkpt>
      <trkpt lat="45.273068" lon="7.110905">
        <time>2023-04-26T08:53:56+00:00</time>
        <ele>2974.0</ele>
      </trkpt>
      <trkpt lat="45.273024" lon="7.110964">
        <time>2023-04-26T08:54:01+00:00</time>
        <ele>2972.0</ele>
      </trkpt>
      <trkpt lat="45.273018" lon="7.111068">
        <time>2023-04-26T08:54:03+00:00</time>
        <ele>2972.0</ele>
      </trkpt>
      <trkpt lat="45.27296" lon="7.111079">
        <time>2023-04-26T08:54:05+00:00</time>
        <ele>2970.0</ele>
      </trkpt>
      <trkpt lat="45.272921" lon="7.111044">
        <time>2023-04-26T08:54:06+00:00</time>
        <ele>2969.0</ele>
      </trkpt>
      <trkpt lat="45.272738" lon="7.110812">
        <time>2023-04-26T08:54:10+00:00</time>
        <ele>2965.0</ele>
      </trkpt>
      <trkpt lat="45.272684" lon="7.110757">
        <time>2023-04-26T08:54:11+00:00</time>
        <ele>2964.0</ele>
      </trkpt>
      <trkpt lat="45.27218" lon="7.110228">
        <time>2023-04-26T08:54:23+00:00</time>
        <ele>2955.0</ele>
      </trkpt>
      <trkpt lat="45.272124" lon="7.110105">
        <time>2023-04-26T08:54:25+00:00</time>
        <ele>2955.0</ele>
      </trkpt>
      <trkpt lat="45.272116" lon="7.110049">
        <time>2023-04-26T08:54:26+00:00</time>
        <ele>2955.0</ele>
      </trkpt>
      <trkpt lat="45.27211" lon="7.109971">
        <time>2023-04-26T08:54:28+00:00</time>
        <ele>2955.0</ele>
      </trkpt>
      <trkpt lat="45.272052" lon="7.109938">
        <time>2023-04-26T08:54:48+00:00</time>
        <ele>2953.0</ele>
      </trkpt>
      <trkpt lat="45.272019" lon="7.109986">
        <time>2023-04-26T08:54:50+00:00</time>
        <ele>2952.0</ele>
      </trkpt>
      <trkpt lat="45.271941" lon="7.110043">
        <time>2023-04-26T08:54:53+00:00</time>
        <ele>2950.0</ele>
      </trkpt>
      <trkpt lat="45.2719" lon="7.109994">
        <time>2023-04-26T08:54:54+00:00</time>
        <ele>2948.0</ele>
      </trkpt>
      <trkpt lat="45.271853" lon="7.109866">
        <time>2023-04-26T08:54:56+00:00</time>
        <ele>2946.0</ele>
      </trkpt>
      <trkpt lat="45.271806" lon="7.109653">
        <time>2023-04-26T08:55:00+00:00</time>
        <ele>2944.0</ele>
      </trkpt>
      <trkpt lat="45.271752" lon="7.109632">
        <time>2023-04-26T08:55:03+00:00</time>
        <ele>2941.0</ele>
      </trkpt>
      <trkpt lat="45.271668" lon="7.109678">
        <time>2023-04-26T08:55:05+00:00</time>
        <ele>2938.0</ele>
      </trkpt>
      <trkpt lat="45.271635" lon="7.109617">
        <time>2023-04-26T08:55:06+00:00</time>
        <ele>2936.0</ele>
      </trkpt>
      <trkpt lat="45.271598" lon="7.109345">
        <time>2023-04-26T08:55:10+00:00</time>
        <ele>2931.0</ele>
      </trkpt>
      <trkpt lat="45.271564" lon="7.10927">
        <time>2023-04-26T08:55:13+00:00</time>
        <ele>2929.0</ele>
      </trkpt>
      <trkpt lat="45.271522" lon="7.109304">
        <time>2023-04-26T08:55:14+00:00</time>
        <ele>2927.0</ele>
      </trkpt>
      <trkpt lat="45.27149" lon="7.109352">
        <time>2023-04-26T08:55:15+00:00</time>
        <ele>2927.0</ele>
      </trkpt>
      <trkpt lat="45.271427" lon="7.109368">
        <time>2023-04-26T08:55:18+00:00</time>
        <ele>2924.0</ele>
      </trkpt>
      <trkpt lat="45.271398" lon="7.109209">
        <time>2023-04-26T08:55:20+00:00</time>
        <ele>2920.0</ele>
      </trkpt>
      <trkpt lat="45.271381" lon="7.109137">
        <time>2023-04-26T08:55:21+00:00</time>
        <ele>2918.0</ele>
      </trkpt>
      <trkpt lat="45.271366" lon="7.10908">
        <time>2023-04-26T08:55:23+00:00</time>
        <ele>2917.0</ele>
      </trkpt>
      <trkpt lat="45.271315" lon="7.109104">
        <time>2023-04-26T08:55:25+00:00</time>
        <ele>2914.0</ele>
      </trkpt>
      <trkpt lat="45.271283" lon="7.109175">
        <time>2023-04-26T08:55:26+00:00</time>
        <ele>2913.0</ele>
      </trkpt>
      <trkpt lat="45.271243" lon="7.109238">
        <time>2023-04-26T08:55:28+00:00</time>
        <ele>2912.0</ele>
      </trkpt>
      <trkpt lat="45.271201" lon="7.109106">
        <time>2023-04-26T08:55:30+00:00</time>
        <ele>2908.0</ele>
      </trkpt>
      <trkpt lat="45.271174" lon="7.109027">
        <time>2023-04-26T08:55:31+00:00</time>
        <ele>2905.0</ele>
      </trkpt>
      <trkpt lat="45.271139" lon="7.108829">
        <time>2023-04-26T08:55:34+00:00</time>
        <ele>2903.0</ele>
      </trkpt>
      <trkpt lat="45.271113" lon="7.108784">
        <time>2023-04-26T08:55:36+00:00</time>
        <ele>2901.0</ele>
      </trkpt>
      <trkpt lat="45.271073" lon="7.10886">
        <time>2023-04-26T08:55:38+00:00</time>
        <ele>2899.0</ele>
      </trkpt>
      <trkpt lat="45.271007" lon="7.109181">
        <time>2023-04-26T08:55:43+00:00</time>
        <ele>2901.0</ele>
      </trkpt>
      <trkpt lat="45.27095" lon="7.109146">
        <time>2023-04-26T08:55:45+00:00</time>
        <ele>2898.0</ele>
      </trkpt>
      <trkpt lat="45.270936" lon="7.109064">
        <time>2023-04-26T08:55:46+00:00</time>
        <ele>2895.0</ele>
      </trkpt>
      <trkpt lat="45.27093" lon="7.108964">
        <time>2023-04-26T08:55:48+00:00</time>
        <ele>2894.0</ele>
      </trkpt>
      <trkpt lat="45.27082" lon="7.109022">
        <time>2023-04-26T08:55:53+00:00</time>
        <ele>2890.0</ele>
      </trkpt>
      <trkpt lat="45.270749" lon="7.10908">
        <time>2023-04-26T08:55:55+00:00</time>
        <ele>2889.0</ele>
      </trkpt>
      <trkpt lat="45.270743" lon="7.1089">
        <time>2023-04-26T08:55:58+00:00</time>
        <ele>2885.0</ele>
      </trkpt>
      <trkpt lat="45.270731" lon="7.108836">
        <time>2023-04-26T08:56:00+00:00</time>
        <ele>2883.0</ele>
      </trkpt>
      <trkpt lat="45.270687" lon="7.108846">
        <time>2023-04-26T08:56:04+00:00</time>
        <ele>2881.0</ele>
      </trkpt>
      <trkpt lat="45.270633" lon="7.108925">
        <time>2023-04-26T08:56:06+00:00</time>
        <ele>2881.0</ele>
      </trkpt>
      <trkpt lat="45.270583" lon="7.108891">
        <time>2023-04-26T08:56:09+00:00</time>
        <ele>2878.0</ele>
      </trkpt>
      <trkpt lat="45.270591" lon="7.108761">
        <time>2023-04-26T08:56:11+00:00</time>
        <ele>2875.0</ele>
      </trkpt>
      <trkpt lat="45.270551" lon="7.108714">
        <time>2023-04-26T08:56:30+00:00</time>
        <ele>2872.0</ele>
      </trkpt>
      <trkpt lat="45.27051" lon="7.108759">
        <time>2023-04-26T08:56:31+00:00</time>
        <ele>2872.0</ele>
      </trkpt>
      <trkpt lat="45.270463" lon="7.108796">
        <time>2023-04-26T08:56:34+00:00</time>
        <ele>2871.0</ele>
      </trkpt>
      <trkpt lat="45.270418" lon="7.108573">
        <time>2023-04-26T08:56:38+00:00</time>
        <ele>2864.0</ele>
      </trkpt>
      <trkpt lat="45.270343" lon="7.108578">
        <time>2023-04-26T08:56:41+00:00</time>
        <ele>2861.0</ele>
      </trkpt>
      <trkpt lat="45.270278" lon="7.108706">
        <time>2023-04-26T08:56:43+00:00</time>
        <ele>2862.0</ele>
      </trkpt>
      <trkpt lat="45.27025" lon="7.108579">
        <time>2023-04-26T08:56:48+00:00</time>
        <ele>2857.0</ele>
      </trkpt>
      <trkpt lat="45.270242" lon="7.108518">
        <time>2023-04-26T08:56:50+00:00</time>
        <ele>2855.0</ele>
      </trkpt>
      <trkpt lat="45.270144" lon="7.108545">
        <time>2023-04-26T08:56:53+00:00</time>
        <ele>2852.0</ele>
      </trkpt>
      <trkpt lat="45.270114" lon="7.108595">
        <time>2023-04-26T08:56:54+00:00</time>
        <ele>2852.0</ele>
      </trkpt>
      <trkpt lat="45.270078" lon="7.108639">
        <time>2023-04-26T08:56:56+00:00</time>
        <ele>2851.0</ele>
      </trkpt>
      <trkpt lat="45.270023" lon="7.108601">
        <time>2023-04-26T08:57:00+00:00</time>
        <ele>2847.0</ele>
      </trkpt>
      <trkpt lat="45.27003" lon="7.108525">
        <time>2023-04-26T08:57:01+00:00</time>
        <ele>2846.0</ele>
      </trkpt>
      <trkpt lat="45.270046" lon="7.108401">
        <time>2023-04-26T08:57:03+00:00</time>
        <ele>2845.0</ele>
      </trkpt>
      <trkpt lat="45.270023" lon="7.108334">
        <time>2023-04-26T08:57:05+00:00</time>
        <ele>2843.0</ele>
      </trkpt>
      <trkpt lat="45.269907" lon="7.108424">
        <time>2023-04-26T08:57:08+00:00</time>
        <ele>2838.0</ele>
      </trkpt>
      <trkpt lat="45.269674" lon="7.108843">
        <time>2023-04-26T08:57:14+00:00</time>
        <ele>2834.0</ele>
      </trkpt>
      <trkpt lat="45.269487" lon="7.10909">
        <time>2023-04-26T08:57:18+00:00</time>
        <ele>2831.0</ele>
      </trkpt>
      <trkpt lat="45.268047" lon="7.110525">
        <time>2023-04-26T08:57:48+00:00</time>
        <ele>2817.0</ele>
      </trkpt>
      <trkpt lat="45.267552" lon="7.110947">
        <time>2023-04-26T08:57:58+00:00</time>
        <ele>2812.0</ele>
      </trkpt>
      <trkpt lat="45.267291" lon="7.111113">
        <time>2023-04-26T08:58:03+00:00</time>
        <ele>2809.0</ele>
      </trkpt>
      <trkpt lat="45.266029" lon="7.112132">
        <time>2023-04-26T08:58:29+00:00</time>
        <ele>2798.0</ele>
      </trkpt>
      <trkpt lat="45.265893" lon="7.112194">
        <time>2023-04-26T08:58:31+00:00</time>
        <ele>2798.0</ele>
      </trkpt>
      <trkpt lat="45.264849" lon="7.112195">
        <time>2023-04-26T08:58:55+00:00</time>
        <ele>2791.0</ele>
      </trkpt>
      <trkpt lat="45.264568" lon="7.112231">
        <time>2023-04-26T08:59:01+00:00</time>
        <ele>2789.0</ele>
      </trkpt>
      <trkpt lat="45.264093" lon="7.112205">
        <time>2023-04-26T08:59:13+00:00</time>
        <ele>2784.0</ele>
      </trkpt>
      <trkpt lat="45.262726" lon="7.112418">
        <time>2023-04-26T08:59:43+00:00</time>
        <ele>2775.0</ele>
      </trkpt>
      <trkpt lat="45.262637" lon="7.112419">
        <time>2023-04-26T08:59:46+00:00</time>
        <ele>2778.0</ele>
      </trkpt>
      <trkpt lat="45.262596" lon="7.112486">
        <time>2023-04-26T09:00:23+00:00</time>
        <ele>2779.0</ele>
      </trkpt>
      <trkpt lat="45.262526" lon="7.112456">
        <time>2023-04-26T09:01:05+00:00</time>
        <ele>2782.0</ele>
      </trkpt>
      <trkpt lat="45.26246" lon="7.112458">
        <time>2023-04-26T09:01:10+00:00</time>
        <ele>2784.0</ele>
      </trkpt>
      <trkpt lat="45.262405" lon="7.112554">
        <time>2023-04-26T09:01:15+00:00</time>
        <ele>2786.0</ele>
      </trkpt>
      <trkpt lat="45.262331" lon="7.112813">
        <time>2023-04-26T09:01:21+00:00</time>
        <ele>2787.0</ele>
      </trkpt>
      <trkpt lat="45.262401" lon="7.112809">
        <time>2023-04-26T09:01:31+00:00</time>
        <ele>2785.0</ele>
      </trkpt>
      <trkpt lat="45.26248" lon="7.112671">
        <time>2023-04-26T09:01:36+00:00</time>
        <ele>2783.0</ele>
      </trkpt>
      <trkpt lat="45.26251" lon="7.112605">
        <time>2023-04-26T09:01:42+00:00</time>
        <ele>2782.0</ele>
      </trkpt>
      <trkpt lat="45.262562" lon="7.112566">
        <time>2023-04-26T09:01:52+00:00</time>
        <ele>2781.0</ele>
      </trkpt>
      <trkpt lat="45.262584" lon="7.11249">
        <time>2023-04-26T09:02:23+00:00</time>
        <ele>2780.0</ele>
      </trkpt>
      <trkpt lat="45.262554" lon="7.112431">
        <time>2023-04-26T09:02:39+00:00</time>
        <ele>2781.0</ele>
      </trkpt>
      <trkpt lat="45.262594" lon="7.112409">
        <time>2023-04-26T09:02:57+00:00</time>
        <ele>2779.0</ele>
      </trkpt>
      <trkpt lat="45.262594" lon="7.112397">
        <time>2023-04-26T09:07:29+00:00</time>
        <ele>2779.0</ele>
      </trkpt>
      <trkpt lat="45.262546" lon="7.112418">
        <time>2023-04-26T09:07:43+00:00</time>
        <ele>2781.0</ele>
      </trkpt>
      <trkpt lat="45.262412" lon="7.112482">
        <time>2023-04-26T09:07:57+00:00</time>
        <ele>2786.0</ele>
      </trkpt>
      <trkpt lat="45.262091" lon="7.112568">
        <time>2023-04-26T09:08:29+00:00</time>
        <ele>2797.0</ele>
      </trkpt>
      <trkpt lat="45.262042" lon="7.112596">
        <time>2023-04-26T09:08:33+00:00</time>
        <ele>2798.0</ele>
      </trkpt>
      <trkpt lat="45.261721" lon="7.112674">
        <time>2023-04-26T09:09:05+00:00</time>
        <ele>2809.0</ele>
      </trkpt>
      <trkpt lat="45.261604" lon="7.112732">
        <time>2023-04-26T09:09:19+00:00</time>
        <ele>2813.0</ele>
      </trkpt>
      <trkpt lat="45.261554" lon="7.112727">
        <time>2023-04-26T09:10:21+00:00</time>
        <ele>2814.0</ele>
      </trkpt>
      <trkpt lat="45.261511" lon="7.112726">
        <time>2023-04-26T09:10:29+00:00</time>
        <ele>2815.0</ele>
      </trkpt>
      <trkpt lat="45.26147" lon="7.112743">
        <time>2023-04-26T09:10:34+00:00</time>
        <ele>2816.0</ele>
      </trkpt>
      <trkpt lat="45.261431" lon="7.112733">
        <time>2023-04-26T09:10:39+00:00</time>
        <ele>2817.0</ele>
      </trkpt>
      <trkpt lat="45.261341" lon="7.112752">
        <time>2023-04-26T09:10:54+00:00</time>
        <ele>2819.0</ele>
      </trkpt>
      <trkpt lat="45.261302" lon="7.11277">
        <time>2023-04-26T09:11:01+00:00</time>
        <ele>2819.0</ele>
      </trkpt>
      <trkpt lat="45.261193" lon="7.11276">
        <time>2023-04-26T09:11:21+00:00</time>
        <ele>2821.0</ele>
      </trkpt>
      <trkpt lat="45.261103" lon="7.112788">
        <time>2023-04-26T09:11:34+00:00</time>
        <ele>2823.0</ele>
      </trkpt>
      <trkpt lat="45.261067" lon="7.112793">
        <time>2023-04-26T09:11:39+00:00</time>
        <ele>2823.0</ele>
      </trkpt>
      <trkpt lat="45.261023" lon="7.112816">
        <time>2023-04-26T09:11:46+00:00</time>
        <ele>2824.0</ele>
      </trkpt>
      <trkpt lat="45.260903" lon="7.112847">
        <time>2023-04-26T09:12:05+00:00</time>
        <ele>2826.0</ele>
      </trkpt>
      <trkpt lat="45.260873" lon="7.112861">
        <time>2023-04-26T09:12:13+00:00</time>
        <ele>2826.0</ele>
      </trkpt>
      <trkpt lat="45.260795" lon="7.112886">
        <time>2023-04-26T09:12:27+00:00</time>
        <ele>2828.0</ele>
      </trkpt>
      <trkpt lat="45.260766" lon="7.112853">
        <time>2023-04-26T09:12:36+00:00</time>
        <ele>2828.0</ele>
      </trkpt>
      <trkpt lat="45.260769" lon="7.112857">
        <time>2023-04-26T09:13:42+00:00</time>
        <ele>2828.0</ele>
      </trkpt>
      <trkpt lat="45.260635" lon="7.112933">
        <time>2023-04-26T09:14:06+00:00</time>
        <ele>2830.0</ele>
      </trkpt>
      <trkpt lat="45.260596" lon="7.112964">
        <time>2023-04-26T09:14:13+00:00</time>
        <ele>2830.0</ele>
      </trkpt>
      <trkpt lat="45.260549" lon="7.113004">
        <time>2023-04-26T09:14:18+00:00</time>
        <ele>2831.0</ele>
      </trkpt>
      <trkpt lat="45.260486" lon="7.113081">
        <time>2023-04-26T09:14:27+00:00</time>
        <ele>2832.0</ele>
      </trkpt>
      <trkpt lat="45.26045" lon="7.113113">
        <time>2023-04-26T09:14:33+00:00</time>
        <ele>2833.0</ele>
      </trkpt>
      <trkpt lat="45.260383" lon="7.113165">
        <time>2023-04-26T09:14:45+00:00</time>
        <ele>2835.0</ele>
      </trkpt>
      <trkpt lat="45.260352" lon="7.113191">
        <time>2023-04-26T09:14:49+00:00</time>
        <ele>2835.0</ele>
      </trkpt>
      <trkpt lat="45.260219" lon="7.11325">
        <time>2023-04-26T09:15:39+00:00</time>
        <ele>2838.0</ele>
      </trkpt>
      <trkpt lat="45.26018" lon="7.113266">
        <time>2023-04-26T09:15:46+00:00</time>
        <ele>2839.0</ele>
      </trkpt>
      <trkpt lat="45.260143" lon="7.113289">
        <time>2023-04-26T09:15:51+00:00</time>
        <ele>2839.0</ele>
      </trkpt>
      <trkpt lat="45.260008" lon="7.113426">
        <time>2023-04-26T09:16:21+00:00</time>
        <ele>2842.0</ele>
      </trkpt>
      <trkpt lat="45.259967" lon="7.11346">
        <time>2023-04-26T09:16:30+00:00</time>
        <ele>2843.0</ele>
      </trkpt>
      <trkpt lat="45.259923" lon="7.113472">
        <time>2023-04-26T09:16:39+00:00</time>
        <ele>2843.0</ele>
      </trkpt>
      <trkpt lat="45.25982" lon="7.11356">
        <time>2023-04-26T09:16:57+00:00</time>
        <ele>2846.0</ele>
      </trkpt>
      <trkpt lat="45.259723" lon="7.113602">
        <time>2023-04-26T09:17:19+00:00</time>
        <ele>2848.0</ele>
      </trkpt>
      <trkpt lat="45.25969" lon="7.113623">
        <time>2023-04-26T09:17:26+00:00</time>
        <ele>2849.0</ele>
      </trkpt>
      <trkpt lat="45.259586" lon="7.113703">
        <time>2023-04-26T09:17:42+00:00</time>
        <ele>2851.0</ele>
      </trkpt>
      <trkpt lat="45.259518" lon="7.113751">
        <time>2023-04-26T09:17:56+00:00</time>
        <ele>2852.0</ele>
      </trkpt>
      <trkpt lat="45.259472" lon="7.113767">
        <time>2023-04-26T09:18:05+00:00</time>
        <ele>2853.0</ele>
      </trkpt>
      <trkpt lat="45.259403" lon="7.113818">
        <time>2023-04-26T09:18:21+00:00</time>
        <ele>2854.0</ele>
      </trkpt>
      <trkpt lat="45.259365" lon="7.113842">
        <time>2023-04-26T09:18:31+00:00</time>
        <ele>2855.0</ele>
      </trkpt>
      <trkpt lat="45.259323" lon="7.113855">
        <time>2023-04-26T09:18:39+00:00</time>
        <ele>2856.0</ele>
      </trkpt>
      <trkpt lat="45.259242" lon="7.113887">
        <time>2023-04-26T09:18:56+00:00</time>
        <ele>2857.0</ele>
      </trkpt>
      <trkpt lat="45.259219" lon="7.113926">
        <time>2023-04-26T09:19:00+00:00</time>
        <ele>2858.0</ele>
      </trkpt>
      <trkpt lat="45.259184" lon="7.113942">
        <time>2023-04-26T09:19:10+00:00</time>
        <ele>2858.0</ele>
      </trkpt>
      <trkpt lat="45.259018" lon="7.114098">
        <time>2023-04-26T09:19:46+00:00</time>
        <ele>2862.0</ele>
      </trkpt>
      <trkpt lat="45.258992" lon="7.114125">
        <time>2023-04-26T09:19:52+00:00</time>
        <ele>2863.0</ele>
      </trkpt>
      <trkpt lat="45.258956" lon="7.114142">
        <time>2023-04-26T09:19:59+00:00</time>
        <ele>2864.0</ele>
      </trkpt>
      <trkpt lat="45.258887" lon="7.114175">
        <time>2023-04-26T09:20:11+00:00</time>
        <ele>2865.0</ele>
      </trkpt>
      <trkpt lat="45.258848" lon="7.114189">
        <time>2023-04-26T09:20:17+00:00</time>
        <ele>2866.0</ele>
      </trkpt>
      <trkpt lat="45.258822" lon="7.114225">
        <time>2023-04-26T09:20:21+00:00</time>
        <ele>2866.0</ele>
      </trkpt>
      <trkpt lat="45.258746" lon="7.114276">
        <time>2023-04-26T09:20:40+00:00</time>
        <ele>2868.0</ele>
      </trkpt>
      <trkpt lat="45.258701" lon="7.114288">
        <time>2023-04-26T09:20:50+00:00</time>
        <ele>2869.0</ele>
      </trkpt>
      <trkpt lat="45.258674" lon="7.114315">
        <time>2023-04-26T09:20:56+00:00</time>
        <ele>2869.0</ele>
      </trkpt>
      <trkpt lat="45.258632" lon="7.114302">
        <time>2023-04-26T09:21:05+00:00</time>
        <ele>2870.0</ele>
      </trkpt>
      <trkpt lat="45.258596" lon="7.114319">
        <time>2023-04-26T09:21:10+00:00</time>
        <ele>2871.0</ele>
      </trkpt>
      <trkpt lat="45.258559" lon="7.114331">
        <time>2023-04-26T09:21:16+00:00</time>
        <ele>2871.0</ele>
      </trkpt>
      <trkpt lat="45.258458" lon="7.114395">
        <time>2023-04-26T09:21:37+00:00</time>
        <ele>2873.0</ele>
      </trkpt>
      <trkpt lat="45.258425" lon="7.114428">
        <time>2023-04-26T09:21:46+00:00</time>
        <ele>2873.0</ele>
      </trkpt>
      <trkpt lat="45.258396" lon="7.114459">
        <time>2023-04-26T09:21:52+00:00</time>
        <ele>2874.0</ele>
      </trkpt>
      <trkpt lat="45.258364" lon="7.114492">
        <time>2023-04-26T09:21:57+00:00</time>
        <ele>2874.0</ele>
      </trkpt>
      <trkpt lat="45.258322" lon="7.11452">
        <time>2023-04-26T09:22:04+00:00</time>
        <ele>2875.0</ele>
      </trkpt>
      <trkpt lat="45.258288" lon="7.114549">
        <time>2023-04-26T09:22:10+00:00</time>
        <ele>2876.0</ele>
      </trkpt>
      <trkpt lat="45.258252" lon="7.114553">
        <time>2023-04-26T09:22:17+00:00</time>
        <ele>2876.0</ele>
      </trkpt>
      <trkpt lat="45.258187" lon="7.114599">
        <time>2023-04-26T09:22:32+00:00</time>
        <ele>2877.0</ele>
      </trkpt>
      <trkpt lat="45.25802" lon="7.114698">
        <time>2023-04-26T09:23:04+00:00</time>
        <ele>2880.0</ele>
      </trkpt>
      <trkpt lat="45.257863" lon="7.11482">
        <time>2023-04-26T09:23:39+00:00</time>
        <ele>2884.0</ele>
      </trkpt>
      <trkpt lat="45.25772" lon="7.114887">
        <time>2023-04-26T09:24:05+00:00</time>
        <ele>2886.0</ele>
      </trkpt>
      <trkpt lat="45.257695" lon="7.114928">
        <time>2023-04-26T09:24:12+00:00</time>
        <ele>2887.0</ele>
      </trkpt>
      <trkpt lat="45.257654" lon="7.114928">
        <time>2023-04-26T09:24:19+00:00</time>
        <ele>2887.0</ele>
      </trkpt>
      <trkpt lat="45.257615" lon="7.114942">
        <time>2023-04-26T09:24:27+00:00</time>
        <ele>2888.0</ele>
      </trkpt>
      <trkpt lat="45.257576" lon="7.114982">
        <time>2023-04-26T09:24:39+00:00</time>
        <ele>2889.0</ele>
      </trkpt>
      <trkpt lat="45.257535" lon="7.114983">
        <time>2023-04-26T09:24:45+00:00</time>
        <ele>2889.0</ele>
      </trkpt>
      <trkpt lat="45.257496" lon="7.114971">
        <time>2023-04-26T09:24:50+00:00</time>
        <ele>2890.0</ele>
      </trkpt>
      <trkpt lat="45.257315" lon="7.115101">
        <time>2023-04-26T09:25:27+00:00</time>
        <ele>2893.0</ele>
      </trkpt>
      <trkpt lat="45.257218" lon="7.115158">
        <time>2023-04-26T09:25:41+00:00</time>
        <ele>2894.0</ele>
      </trkpt>
      <trkpt lat="45.257208" lon="7.115168">
        <time>2023-04-26T09:28:15+00:00</time>
        <ele>2895.0</ele>
      </trkpt>
      <trkpt lat="45.257175" lon="7.115167">
        <time>2023-04-26T09:28:31+00:00</time>
        <ele>2895.0</ele>
      </trkpt>
      <trkpt lat="45.257051" lon="7.115224">
        <time>2023-04-26T09:28:49+00:00</time>
        <ele>2897.0</ele>
      </trkpt>
      <trkpt lat="45.257014" lon="7.115255">
        <time>2023-04-26T09:28:59+00:00</time>
        <ele>2897.0</ele>
      </trkpt>
      <trkpt lat="45.256986" lon="7.115301">
        <time>2023-04-26T09:29:07+00:00</time>
        <ele>2898.0</ele>
      </trkpt>
      <trkpt lat="45.256898" lon="7.115329">
        <time>2023-04-26T09:29:21+00:00</time>
        <ele>2899.0</ele>
      </trkpt>
      <trkpt lat="45.256785" lon="7.115381">
        <time>2023-04-26T09:29:42+00:00</time>
        <ele>2900.0</ele>
      </trkpt>
      <trkpt lat="45.256748" lon="7.115363">
        <time>2023-04-26T09:29:46+00:00</time>
        <ele>2900.0</ele>
      </trkpt>
      <trkpt lat="45.256709" lon="7.115391">
        <time>2023-04-26T09:29:57+00:00</time>
        <ele>2901.0</ele>
      </trkpt>
      <trkpt lat="45.256666" lon="7.115432">
        <time>2023-04-26T09:30:04+00:00</time>
        <ele>2901.0</ele>
      </trkpt>
      <trkpt lat="45.25663" lon="7.115457">
        <time>2023-04-26T09:30:12+00:00</time>
        <ele>2902.0</ele>
      </trkpt>
      <trkpt lat="45.25658" lon="7.115464">
        <time>2023-04-26T09:30:19+00:00</time>
        <ele>2902.0</ele>
      </trkpt>
      <trkpt lat="45.256549" lon="7.115495">
        <time>2023-04-26T09:30:24+00:00</time>
        <ele>2902.0</ele>
      </trkpt>
      <trkpt lat="45.25651" lon="7.115517">
        <time>2023-04-26T09:30:31+00:00</time>
        <ele>2903.0</ele>
      </trkpt>
      <trkpt lat="45.256477" lon="7.115564">
        <time>2023-04-26T09:30:36+00:00</time>
        <ele>2903.0</ele>
      </trkpt>
      <trkpt lat="45.256441" lon="7.115584">
        <time>2023-04-26T09:30:41+00:00</time>
        <ele>2903.0</ele>
      </trkpt>
      <trkpt lat="45.256391" lon="7.115613">
        <time>2023-04-26T09:30:49+00:00</time>
        <ele>2904.0</ele>
      </trkpt>
      <trkpt lat="45.256355" lon="7.115634">
        <time>2023-04-26T09:30:55+00:00</time>
        <ele>2904.0</ele>
      </trkpt>
      <trkpt lat="45.256313" lon="7.115649">
        <time>2023-04-26T09:31:01+00:00</time>
        <ele>2905.0</ele>
      </trkpt>
      <trkpt lat="45.25627" lon="7.115657">
        <time>2023-04-26T09:31:09+00:00</time>
        <ele>2905.0</ele>
      </trkpt>
      <trkpt lat="45.256228" lon="7.115662">
        <time>2023-04-26T09:31:15+00:00</time>
        <ele>2905.0</ele>
      </trkpt>
      <trkpt lat="45.256187" lon="7.115691">
        <time>2023-04-26T09:31:22+00:00</time>
        <ele>2906.0</ele>
      </trkpt>
      <trkpt lat="45.256101" lon="7.115723">
        <time>2023-04-26T09:31:34+00:00</time>
        <ele>2906.0</ele>
      </trkpt>
      <trkpt lat="45.256061" lon="7.115764">
        <time>2023-04-26T09:31:40+00:00</time>
        <ele>2907.0</ele>
      </trkpt>
      <trkpt lat="45.255857" lon="7.11585">
        <time>2023-04-26T09:32:11+00:00</time>
        <ele>2908.0</ele>
      </trkpt>
      <trkpt lat="45.255821" lon="7.115862">
        <time>2023-04-26T09:32:16+00:00</time>
        <ele>2909.0</ele>
      </trkpt>
      <trkpt lat="45.255742" lon="7.115935">
        <time>2023-04-26T09:32:31+00:00</time>
        <ele>2909.0</ele>
      </trkpt>
      <trkpt lat="45.255619" lon="7.115998">
        <time>2023-04-26T09:33:12+00:00</time>
        <ele>2912.0</ele>
      </trkpt>
      <trkpt lat="45.255584" lon="7.116018">
        <time>2023-04-26T09:33:24+00:00</time>
        <ele>2913.0</ele>
      </trkpt>
      <trkpt lat="45.255544" lon="7.116047">
        <time>2023-04-26T09:33:32+00:00</time>
        <ele>2914.0</ele>
      </trkpt>
      <trkpt lat="45.255504" lon="7.116054">
        <time>2023-04-26T09:33:40+00:00</time>
        <ele>2915.0</ele>
      </trkpt>
      <trkpt lat="45.255443" lon="7.116047">
        <time>2023-04-26T09:33:49+00:00</time>
        <ele>2916.0</ele>
      </trkpt>
      <trkpt lat="45.255321" lon="7.11615">
        <time>2023-04-26T09:34:16+00:00</time>
        <ele>2921.0</ele>
      </trkpt>
      <trkpt lat="45.255228" lon="7.116149">
        <time>2023-04-26T09:34:37+00:00</time>
        <ele>2924.0</ele>
      </trkpt>
      <trkpt lat="45.255192" lon="7.116134">
        <time>2023-04-26T09:34:56+00:00</time>
        <ele>2925.0</ele>
      </trkpt>
      <trkpt lat="45.255144" lon="7.116129">
        <time>2023-04-26T09:34:59+00:00</time>
        <ele>2926.0</ele>
      </trkpt>
      <trkpt lat="45.255105" lon="7.116152">
        <time>2023-04-26T09:35:09+00:00</time>
        <ele>2928.0</ele>
      </trkpt>
      <trkpt lat="45.255061" lon="7.116142">
        <time>2023-04-26T09:35:17+00:00</time>
        <ele>2929.0</ele>
      </trkpt>
      <trkpt lat="45.255011" lon="7.116151">
        <time>2023-04-26T09:35:31+00:00</time>
        <ele>2931.0</ele>
      </trkpt>
      <trkpt lat="45.254966" lon="7.116128">
        <time>2023-04-26T09:35:46+00:00</time>
        <ele>2932.0</ele>
      </trkpt>
      <trkpt lat="45.254929" lon="7.116143">
        <time>2023-04-26T09:35:55+00:00</time>
        <ele>2933.0</ele>
      </trkpt>
      <trkpt lat="45.254903" lon="7.116191">
        <time>2023-04-26T09:36:06+00:00</time>
        <ele>2934.0</ele>
      </trkpt>
      <trkpt lat="45.254869" lon="7.116234">
        <time>2023-04-26T09:36:20+00:00</time>
        <ele>2936.0</ele>
      </trkpt>
      <trkpt lat="45.254817" lon="7.116345">
        <time>2023-04-26T09:36:40+00:00</time>
        <ele>2939.0</ele>
      </trkpt>
      <trkpt lat="45.254787" lon="7.116374">
        <time>2023-04-26T09:36:49+00:00</time>
        <ele>2940.0</ele>
      </trkpt>
      <trkpt lat="45.25475" lon="7.116384">
        <time>2023-04-26T09:37:00+00:00</time>
        <ele>2941.0</ele>
      </trkpt>
      <trkpt lat="45.254702" lon="7.116382">
        <time>2023-04-26T09:37:16+00:00</time>
        <ele>2943.0</ele>
      </trkpt>
      <trkpt lat="45.254661" lon="7.116393">
        <time>2023-04-26T09:37:28+00:00</time>
        <ele>2944.0</ele>
      </trkpt>
      <trkpt lat="45.254624" lon="7.11641">
        <time>2023-04-26T09:37:40+00:00</time>
        <ele>2945.0</ele>
      </trkpt>
      <trkpt lat="45.254591" lon="7.116454">
        <time>2023-04-26T09:37:50+00:00</time>
        <ele>2946.0</ele>
      </trkpt>
      <trkpt lat="45.254558" lon="7.116473">
        <time>2023-04-26T09:37:58+00:00</time>
        <ele>2947.0</ele>
      </trkpt>
      <trkpt lat="45.254525" lon="7.116501">
        <time>2023-04-26T09:38:11+00:00</time>
        <ele>2948.0</ele>
      </trkpt>
      <trkpt lat="45.254488" lon="7.116492">
        <time>2023-04-26T09:38:23+00:00</time>
        <ele>2948.0</ele>
      </trkpt>
      <trkpt lat="45.254452" lon="7.116527">
        <time>2023-04-26T09:38:41+00:00</time>
        <ele>2949.0</ele>
      </trkpt>
      <trkpt lat="45.254377" lon="7.116578">
        <time>2023-04-26T09:38:55+00:00</time>
        <ele>2951.0</ele>
      </trkpt>
      <trkpt lat="45.25435" lon="7.116629">
        <time>2023-04-26T09:39:10+00:00</time>
        <ele>2952.0</ele>
      </trkpt>
      <trkpt lat="45.254306" lon="7.11664">
        <time>2023-04-26T09:39:20+00:00</time>
        <ele>2953.0</ele>
      </trkpt>
      <trkpt lat="45.254266" lon="7.116666">
        <time>2023-04-26T09:39:37+00:00</time>
        <ele>2954.0</ele>
      </trkpt>
      <trkpt lat="45.25421" lon="7.116738">
        <time>2023-04-26T09:40:22+00:00</time>
        <ele>2956.0</ele>
      </trkpt>
      <trkpt lat="45.254188" lon="7.116827">
        <time>2023-04-26T09:40:32+00:00</time>
        <ele>2958.0</ele>
      </trkpt>
      <trkpt lat="45.254166" lon="7.116874">
        <time>2023-04-26T09:40:38+00:00</time>
        <ele>2959.0</ele>
      </trkpt>
      <trkpt lat="45.254163" lon="7.11693">
        <time>2023-04-26T09:40:47+00:00</time>
        <ele>2959.0</ele>
      </trkpt>
      <trkpt lat="45.254157" lon="7.116977">
        <time>2023-04-26T09:40:53+00:00</time>
        <ele>2959.0</ele>
      </trkpt>
      <trkpt lat="45.254139" lon="7.117029">
        <time>2023-04-26T09:41:00+00:00</time>
        <ele>2960.0</ele>
      </trkpt>
      <trkpt lat="45.254117" lon="7.117138">
        <time>2023-04-26T09:41:20+00:00</time>
        <ele>2961.0</ele>
      </trkpt>
      <trkpt lat="45.254097" lon="7.117181">
        <time>2023-04-26T09:41:28+00:00</time>
        <ele>2962.0</ele>
      </trkpt>
      <trkpt lat="45.254067" lon="7.117238">
        <time>2023-04-26T09:41:40+00:00</time>
        <ele>2963.0</ele>
      </trkpt>
      <trkpt lat="45.254041" lon="7.117278">
        <time>2023-04-26T09:41:55+00:00</time>
        <ele>2964.0</ele>
      </trkpt>
      <trkpt lat="45.254021" lon="7.11733">
        <time>2023-04-26T09:42:03+00:00</time>
        <ele>2964.0</ele>
      </trkpt>
      <trkpt lat="45.253934" lon="7.117448">
        <time>2023-04-26T09:42:22+00:00</time>
        <ele>2967.0</ele>
      </trkpt>
      <trkpt lat="45.253903" lon="7.11748">
        <time>2023-04-26T09:42:30+00:00</time>
        <ele>2967.0</ele>
      </trkpt>
      <trkpt lat="45.253881" lon="7.117536">
        <time>2023-04-26T09:42:37+00:00</time>
        <ele>2968.0</ele>
      </trkpt>
      <trkpt lat="45.253851" lon="7.117575">
        <time>2023-04-26T09:42:43+00:00</time>
        <ele>2969.0</ele>
      </trkpt>
      <trkpt lat="45.25378" lon="7.117652">
        <time>2023-04-26T09:43:05+00:00</time>
        <ele>2970.0</ele>
      </trkpt>
      <trkpt lat="45.253766" lon="7.1177">
        <time>2023-04-26T09:43:13+00:00</time>
        <ele>2971.0</ele>
      </trkpt>
      <trkpt lat="45.253749" lon="7.117758">
        <time>2023-04-26T09:43:20+00:00</time>
        <ele>2972.0</ele>
      </trkpt>
      <trkpt lat="45.253719" lon="7.117799">
        <time>2023-04-26T09:43:30+00:00</time>
        <ele>2973.0</ele>
      </trkpt>
      <trkpt lat="45.253691" lon="7.117834">
        <time>2023-04-26T09:43:37+00:00</time>
        <ele>2973.0</ele>
      </trkpt>
      <trkpt lat="45.253623" lon="7.11794">
        <time>2023-04-26T09:43:55+00:00</time>
        <ele>2975.0</ele>
      </trkpt>
      <trkpt lat="45.253599" lon="7.117984">
        <time>2023-04-26T09:44:01+00:00</time>
        <ele>2975.0</ele>
      </trkpt>
      <trkpt lat="45.253563" lon="7.118013">
        <time>2023-04-26T09:44:10+00:00</time>
        <ele>2976.0</ele>
      </trkpt>
      <trkpt lat="45.253533" lon="7.118061">
        <time>2023-04-26T09:45:10+00:00</time>
        <ele>2977.0</ele>
      </trkpt>
      <trkpt lat="45.253398" lon="7.118286">
        <time>2023-04-26T09:45:45+00:00</time>
        <ele>2980.0</ele>
      </trkpt>
      <trkpt lat="45.253356" lon="7.118305">
        <time>2023-04-26T09:45:55+00:00</time>
        <ele>2980.0</ele>
      </trkpt>
      <trkpt lat="45.253297" lon="7.118374">
        <time>2023-04-26T09:46:08+00:00</time>
        <ele>2981.0</ele>
      </trkpt>
      <trkpt lat="45.253296" lon="7.118425">
        <time>2023-04-26T09:46:15+00:00</time>
        <ele>2982.0</ele>
      </trkpt>
      <trkpt lat="45.253274" lon="7.118476">
        <time>2023-04-26T09:46:22+00:00</time>
        <ele>2983.0</ele>
      </trkpt>
      <trkpt lat="45.253198" lon="7.118539">
        <time>2023-04-26T09:46:35+00:00</time>
        <ele>2983.0</ele>
      </trkpt>
      <trkpt lat="45.253174" lon="7.118588">
        <time>2023-04-26T09:46:43+00:00</time>
        <ele>2984.0</ele>
      </trkpt>
      <trkpt lat="45.253131" lon="7.118611">
        <time>2023-04-26T09:46:55+00:00</time>
        <ele>2984.0</ele>
      </trkpt>
      <trkpt lat="45.253066" lon="7.118733">
        <time>2023-04-26T09:47:20+00:00</time>
        <ele>2986.0</ele>
      </trkpt>
      <trkpt lat="45.253005" lon="7.118807">
        <time>2023-04-26T09:47:30+00:00</time>
        <ele>2987.0</ele>
      </trkpt>
      <trkpt lat="45.252975" lon="7.118845">
        <time>2023-04-26T09:47:36+00:00</time>
        <ele>2987.0</ele>
      </trkpt>
      <trkpt lat="45.252953" lon="7.11889">
        <time>2023-04-26T09:47:45+00:00</time>
        <ele>2988.0</ele>
      </trkpt>
      <trkpt lat="45.252922" lon="7.11892">
        <time>2023-04-26T09:47:51+00:00</time>
        <ele>2988.0</ele>
      </trkpt>
      <trkpt lat="45.252898" lon="7.118962">
        <time>2023-04-26T09:48:01+00:00</time>
        <ele>2988.0</ele>
      </trkpt>
      <trkpt lat="45.252869" lon="7.119007">
        <time>2023-04-26T09:48:08+00:00</time>
        <ele>2989.0</ele>
      </trkpt>
      <trkpt lat="45.25284" lon="7.119025">
        <time>2023-04-26T09:48:13+00:00</time>
        <ele>2989.0</ele>
      </trkpt>
      <trkpt lat="45.252714" lon="7.119237">
        <time>2023-04-26T09:48:49+00:00</time>
        <ele>2992.0</ele>
      </trkpt>
      <trkpt lat="45.252684" lon="7.119258">
        <time>2023-04-26T09:48:57+00:00</time>
        <ele>2993.0</ele>
      </trkpt>
      <trkpt lat="45.252666" lon="7.119303">
        <time>2023-04-26T09:49:02+00:00</time>
        <ele>2993.0</ele>
      </trkpt>
      <trkpt lat="45.25261" lon="7.119381">
        <time>2023-04-26T09:49:15+00:00</time>
        <ele>2994.0</ele>
      </trkpt>
      <trkpt lat="45.252577" lon="7.119418">
        <time>2023-04-26T09:49:22+00:00</time>
        <ele>2995.0</ele>
      </trkpt>
      <trkpt lat="45.252532" lon="7.119486">
        <time>2023-04-26T09:49:35+00:00</time>
        <ele>2996.0</ele>
      </trkpt>
      <trkpt lat="45.252401" lon="7.119653">
        <time>2023-04-26T09:50:04+00:00</time>
        <ele>2999.0</ele>
      </trkpt>
      <trkpt lat="45.252379" lon="7.119659">
        <time>2023-04-26T09:50:57+00:00</time>
        <ele>2999.0</ele>
      </trkpt>
      <trkpt lat="45.252381" lon="7.119698">
        <time>2023-04-26T09:51:14+00:00</time>
        <ele>2999.0</ele>
      </trkpt>
      <trkpt lat="45.252374" lon="7.119743">
        <time>2023-04-26T09:52:05+00:00</time>
        <ele>3000.0</ele>
      </trkpt>
      <trkpt lat="45.252348" lon="7.119778">
        <time>2023-04-26T09:52:11+00:00</time>
        <ele>3000.0</ele>
      </trkpt>
      <trkpt lat="45.252252" lon="7.119968">
        <time>2023-04-26T09:52:40+00:00</time>
        <ele>3003.0</ele>
      </trkpt>
      <trkpt lat="45.252244" lon="7.120016">
        <time>2023-04-26T09:52:45+00:00</time>
        <ele>3004.0</ele>
      </trkpt>
      <trkpt lat="45.252191" lon="7.1201">
        <time>2023-04-26T09:52:58+00:00</time>
        <ele>3006.0</ele>
      </trkpt>
      <trkpt lat="45.252177" lon="7.120141">
        <time>2023-04-26T09:53:03+00:00</time>
        <ele>3006.0</ele>
      </trkpt>
      <trkpt lat="45.252162" lon="7.120188">
        <time>2023-04-26T09:53:09+00:00</time>
        <ele>3007.0</ele>
      </trkpt>
      <trkpt lat="45.252129" lon="7.120241">
        <time>2023-04-26T09:53:16+00:00</time>
        <ele>3008.0</ele>
      </trkpt>
      <trkpt lat="45.25211" lon="7.120285">
        <time>2023-04-26T09:53:21+00:00</time>
        <ele>3008.0</ele>
      </trkpt>
      <trkpt lat="45.252086" lon="7.120303">
        <time>2023-04-26T09:53:24+00:00</time>
        <ele>3009.0</ele>
      </trkpt>
      <trkpt lat="45.252045" lon="7.12043">
        <time>2023-04-26T09:53:42+00:00</time>
        <ele>3011.0</ele>
      </trkpt>
      <trkpt lat="45.251965" lon="7.120611">
        <time>2023-04-26T09:54:11+00:00</time>
        <ele>3014.0</ele>
      </trkpt>
      <trkpt lat="45.251901" lon="7.120724">
        <time>2023-04-26T09:54:30+00:00</time>
        <ele>3016.0</ele>
      </trkpt>
      <trkpt lat="45.251883" lon="7.12077">
        <time>2023-04-26T09:54:38+00:00</time>
        <ele>3017.0</ele>
      </trkpt>
      <trkpt lat="45.251863" lon="7.120824">
        <time>2023-04-26T09:54:47+00:00</time>
        <ele>3018.0</ele>
      </trkpt>
      <trkpt lat="45.251855" lon="7.12087">
        <time>2023-04-26T09:54:51+00:00</time>
        <ele>3019.0</ele>
      </trkpt>
      <trkpt lat="45.251851" lon="7.120922">
        <time>2023-04-26T09:54:56+00:00</time>
        <ele>3019.0</ele>
      </trkpt>
      <trkpt lat="45.251811" lon="7.121026">
        <time>2023-04-26T09:55:16+00:00</time>
        <ele>3021.0</ele>
      </trkpt>
      <trkpt lat="45.251815" lon="7.12108">
        <time>2023-04-26T09:55:22+00:00</time>
        <ele>3021.0</ele>
      </trkpt>
      <trkpt lat="45.251771" lon="7.121168">
        <time>2023-04-26T09:55:46+00:00</time>
        <ele>3023.0</ele>
      </trkpt>
      <trkpt lat="45.251757" lon="7.121229">
        <time>2023-04-26T09:56:01+00:00</time>
        <ele>3024.0</ele>
      </trkpt>
      <trkpt lat="45.251679" lon="7.12137">
        <time>2023-04-26T09:56:30+00:00</time>
        <ele>3027.0</ele>
      </trkpt>
      <trkpt lat="45.251657" lon="7.121418">
        <time>2023-04-26T09:56:41+00:00</time>
        <ele>3028.0</ele>
      </trkpt>
      <trkpt lat="45.251638" lon="7.121474">
        <time>2023-04-26T09:56:52+00:00</time>
        <ele>3029.0</ele>
      </trkpt>
      <trkpt lat="45.251621" lon="7.121518">
        <time>2023-04-26T09:57:11+00:00</time>
        <ele>3030.0</ele>
      </trkpt>
      <trkpt lat="45.251605" lon="7.121601">
        <time>2023-04-26T09:57:46+00:00</time>
        <ele>3031.0</ele>
      </trkpt>
      <trkpt lat="45.251581" lon="7.121642">
        <time>2023-04-26T09:57:52+00:00</time>
        <ele>3032.0</ele>
      </trkpt>
      <trkpt lat="45.251568" lon="7.121678">
        <time>2023-04-26T09:57:59+00:00</time>
        <ele>3032.0</ele>
      </trkpt>
      <trkpt lat="45.251495" lon="7.121881">
        <time>2023-04-26T09:58:31+00:00</time>
        <ele>3036.0</ele>
      </trkpt>
      <trkpt lat="45.251452" lon="7.121974">
        <time>2023-04-26T09:58:46+00:00</time>
        <ele>3039.0</ele>
      </trkpt>
      <trkpt lat="45.251422" lon="7.122072">
        <time>2023-04-26T09:59:02+00:00</time>
        <ele>3041.0</ele>
      </trkpt>
      <trkpt lat="45.251412" lon="7.122137">
        <time>2023-04-26T09:59:10+00:00</time>
        <ele>3042.0</ele>
      </trkpt>
      <trkpt lat="45.251387" lon="7.122171">
        <time>2023-04-26T09:59:16+00:00</time>
        <ele>3044.0</ele>
      </trkpt>
      <trkpt lat="45.251374" lon="7.12222">
        <time>2023-04-26T09:59:22+00:00</time>
        <ele>3045.0</ele>
      </trkpt>
      <trkpt lat="45.251361" lon="7.122261">
        <time>2023-04-26T09:59:26+00:00</time>
        <ele>3046.0</ele>
      </trkpt>
      <trkpt lat="45.251351" lon="7.122366">
        <time>2023-04-26T09:59:50+00:00</time>
        <ele>3049.0</ele>
      </trkpt>
      <trkpt lat="45.251334" lon="7.122409">
        <time>2023-04-26T09:59:56+00:00</time>
        <ele>3050.0</ele>
      </trkpt>
      <trkpt lat="45.25133" lon="7.122452">
        <time>2023-04-26T10:00:18+00:00</time>
        <ele>3051.0</ele>
      </trkpt>
      <trkpt lat="45.251299" lon="7.122433">
        <time>2023-04-26T10:01:05+00:00</time>
        <ele>3052.0</ele>
      </trkpt>
      <trkpt lat="45.25126" lon="7.122416">
        <time>2023-04-26T10:01:10+00:00</time>
        <ele>3053.0</ele>
      </trkpt>
      <trkpt lat="45.251235" lon="7.122404">
        <time>2023-04-26T10:01:17+00:00</time>
        <ele>3053.0</ele>
      </trkpt>
      <trkpt lat="45.251201" lon="7.122413">
        <time>2023-04-26T10:01:23+00:00</time>
        <ele>3055.0</ele>
      </trkpt>
      <trkpt lat="45.25116" lon="7.122422">
        <time>2023-04-26T10:01:30+00:00</time>
        <ele>3057.0</ele>
      </trkpt>
      <trkpt lat="45.251119" lon="7.122408">
        <time>2023-04-26T10:02:25+00:00</time>
        <ele>3058.0</ele>
      </trkpt>
      <trkpt lat="45.251078" lon="7.122417">
        <time>2023-04-26T10:02:35+00:00</time>
        <ele>3060.0</ele>
      </trkpt>
      <trkpt lat="45.25105" lon="7.122409">
        <time>2023-04-26T10:02:41+00:00</time>
        <ele>3061.0</ele>
      </trkpt>
      <trkpt lat="45.251028" lon="7.122452">
        <time>2023-04-26T10:02:52+00:00</time>
        <ele>3062.0</ele>
      </trkpt>
      <trkpt lat="45.251023" lon="7.122499">
        <time>2023-04-26T10:03:01+00:00</time>
        <ele>3063.0</ele>
      </trkpt>
      <trkpt lat="45.251011" lon="7.122543">
        <time>2023-04-26T10:03:10+00:00</time>
        <ele>3064.0</ele>
      </trkpt>
      <trkpt lat="45.250986" lon="7.122571">
        <time>2023-04-26T10:03:40+00:00</time>
        <ele>3066.0</ele>
      </trkpt>
      <trkpt lat="45.250965" lon="7.122606">
        <time>2023-04-26T10:03:46+00:00</time>
        <ele>3067.0</ele>
      </trkpt>
      <trkpt lat="45.250951" lon="7.122636">
        <time>2023-04-26T10:03:54+00:00</time>
        <ele>3068.0</ele>
      </trkpt>
      <trkpt lat="45.250924" lon="7.122618">
        <time>2023-04-26T10:04:17+00:00</time>
        <ele>3069.0</ele>
      </trkpt>
      <trkpt lat="45.250869" lon="7.122607">
        <time>2023-04-26T10:04:32+00:00</time>
        <ele>3071.0</ele>
      </trkpt>
      <trkpt lat="45.25082" lon="7.122551">
        <time>2023-04-26T10:04:50+00:00</time>
        <ele>3072.0</ele>
      </trkpt>
      <trkpt lat="45.250784" lon="7.122554">
        <time>2023-04-26T10:04:56+00:00</time>
        <ele>3073.0</ele>
      </trkpt>
      <trkpt lat="45.250779" lon="7.122588">
        <time>2023-04-26T10:05:37+00:00</time>
        <ele>3073.0</ele>
      </trkpt>
      <trkpt lat="45.25077" lon="7.122642">
        <time>2023-04-26T10:05:45+00:00</time>
        <ele>3074.0</ele>
      </trkpt>
      <trkpt lat="45.250766" lon="7.1227">
        <time>2023-04-26T10:05:55+00:00</time>
        <ele>3075.0</ele>
      </trkpt>
      <trkpt lat="45.250734" lon="7.122684">
        <time>2023-04-26T10:06:11+00:00</time>
        <ele>3076.0</ele>
      </trkpt>
      <trkpt lat="45.250706" lon="7.122665">
        <time>2023-04-26T10:06:24+00:00</time>
        <ele>3077.0</ele>
      </trkpt>
      <trkpt lat="45.250677" lon="7.122669">
        <time>2023-04-26T10:06:30+00:00</time>
        <ele>3078.0</ele>
      </trkpt>
      <trkpt lat="45.250645" lon="7.122665">
        <time>2023-04-26T10:06:41+00:00</time>
        <ele>3078.0</ele>
      </trkpt>
      <trkpt lat="45.250614" lon="7.122671">
        <time>2023-04-26T10:06:49+00:00</time>
        <ele>3079.0</ele>
      </trkpt>
      <trkpt lat="45.250573" lon="7.122666">
        <time>2023-04-26T10:07:15+00:00</time>
        <ele>3081.0</ele>
      </trkpt>
      <trkpt lat="45.250501" lon="7.122662">
        <time>2023-04-26T10:07:33+00:00</time>
        <ele>3083.0</ele>
      </trkpt>
      <trkpt lat="45.250475" lon="7.122655">
        <time>2023-04-26T10:07:40+00:00</time>
        <ele>3084.0</ele>
      </trkpt>
      <trkpt lat="45.250445" lon="7.122641">
        <time>2023-04-26T10:07:56+00:00</time>
        <ele>3084.0</ele>
      </trkpt>
      <trkpt lat="45.250329" lon="7.122659">
        <time>2023-04-26T10:08:17+00:00</time>
        <ele>3088.0</ele>
      </trkpt>
      <trkpt lat="45.250287" lon="7.12265">
        <time>2023-04-26T10:08:30+00:00</time>
        <ele>3089.0</ele>
      </trkpt>
      <trkpt lat="45.250253" lon="7.122654">
        <time>2023-04-26T10:08:37+00:00</time>
        <ele>3090.0</ele>
      </trkpt>
      <trkpt lat="45.25019" lon="7.122653">
        <time>2023-04-26T10:09:07+00:00</time>
        <ele>3092.0</ele>
      </trkpt>
      <trkpt lat="45.250158" lon="7.122649">
        <time>2023-04-26T10:09:14+00:00</time>
        <ele>3093.0</ele>
      </trkpt>
      <trkpt lat="45.250126" lon="7.122641">
        <time>2023-04-26T10:09:22+00:00</time>
        <ele>3093.0</ele>
      </trkpt>
      <trkpt lat="45.250098" lon="7.122636">
        <time>2023-04-26T10:09:28+00:00</time>
        <ele>3094.0</ele>
      </trkpt>
      <trkpt lat="45.250064" lon="7.122625">
        <time>2023-04-26T10:09:35+00:00</time>
        <ele>3095.0</ele>
      </trkpt>
      <trkpt lat="45.249997" lon="7.122626">
        <time>2023-04-26T10:09:56+00:00</time>
        <ele>3097.0</ele>
      </trkpt>
      <trkpt lat="45.249992" lon="7.122589">
        <time>2023-04-26T10:10:21+00:00</time>
        <ele>3096.0</ele>
      </trkpt>
      <trkpt lat="45.249952" lon="7.12257">
        <time>2023-04-26T10:12:09+00:00</time>
        <ele>3097.0</ele>
      </trkpt>
      <trkpt lat="45.249919" lon="7.12257">
        <time>2023-04-26T10:12:14+00:00</time>
        <ele>3098.0</ele>
      </trkpt>
      <trkpt lat="45.249882" lon="7.122567">
        <time>2023-04-26T10:12:22+00:00</time>
        <ele>3099.0</ele>
      </trkpt>
      <trkpt lat="45.249736" lon="7.122582">
        <time>2023-04-26T10:12:53+00:00</time>
        <ele>3103.0</ele>
      </trkpt>
      <trkpt lat="45.249704" lon="7.122586">
        <time>2023-04-26T10:13:01+00:00</time>
        <ele>3104.0</ele>
      </trkpt>
      <trkpt lat="45.249637" lon="7.122577">
        <time>2023-04-26T10:13:16+00:00</time>
        <ele>3105.0</ele>
      </trkpt>
      <trkpt lat="45.2496" lon="7.122591">
        <time>2023-04-26T10:13:26+00:00</time>
        <ele>3106.0</ele>
      </trkpt>
      <trkpt lat="45.249525" lon="7.122592">
        <time>2023-04-26T10:13:47+00:00</time>
        <ele>3107.0</ele>
      </trkpt>
      <trkpt lat="45.249482" lon="7.122594">
        <time>2023-04-26T10:13:56+00:00</time>
        <ele>3108.0</ele>
      </trkpt>
      <trkpt lat="45.249443" lon="7.122594">
        <time>2023-04-26T10:14:05+00:00</time>
        <ele>3109.0</ele>
      </trkpt>
      <trkpt lat="45.249402" lon="7.122607">
        <time>2023-04-26T10:14:13+00:00</time>
        <ele>3110.0</ele>
      </trkpt>
      <trkpt lat="45.249362" lon="7.122607">
        <time>2023-04-26T10:14:21+00:00</time>
        <ele>3111.0</ele>
      </trkpt>
      <trkpt lat="45.24933" lon="7.122608">
        <time>2023-04-26T10:14:28+00:00</time>
        <ele>3111.0</ele>
      </trkpt>
      <trkpt lat="45.249297" lon="7.122618">
        <time>2023-04-26T10:14:36+00:00</time>
        <ele>3112.0</ele>
      </trkpt>
      <trkpt lat="45.249257" lon="7.122623">
        <time>2023-04-26T10:14:47+00:00</time>
        <ele>3113.0</ele>
      </trkpt>
      <trkpt lat="45.249226" lon="7.122638">
        <time>2023-04-26T10:14:54+00:00</time>
        <ele>3114.0</ele>
      </trkpt>
      <trkpt lat="45.249194" lon="7.12264">
        <time>2023-04-26T10:15:01+00:00</time>
        <ele>3114.0</ele>
      </trkpt>
      <trkpt lat="45.249103" lon="7.12262">
        <time>2023-04-26T10:15:27+00:00</time>
        <ele>3116.0</ele>
      </trkpt>
      <trkpt lat="45.24907" lon="7.122609">
        <time>2023-04-26T10:15:38+00:00</time>
        <ele>3116.0</ele>
      </trkpt>
      <trkpt lat="45.248888" lon="7.122642">
        <time>2023-04-26T10:16:11+00:00</time>
        <ele>3119.0</ele>
      </trkpt>
      <trkpt lat="45.248819" lon="7.122621">
        <time>2023-04-26T10:16:27+00:00</time>
        <ele>3120.0</ele>
      </trkpt>
      <trkpt lat="45.24878" lon="7.122627">
        <time>2023-04-26T10:16:34+00:00</time>
        <ele>3121.0</ele>
      </trkpt>
      <trkpt lat="45.248609" lon="7.122632">
        <time>2023-04-26T10:18:26+00:00</time>
        <ele>3123.0</ele>
      </trkpt>
      <trkpt lat="45.248548" lon="7.122617">
        <time>2023-04-26T10:18:39+00:00</time>
        <ele>3124.0</ele>
      </trkpt>
      <trkpt lat="45.248483" lon="7.122596">
        <time>2023-04-26T10:18:52+00:00</time>
        <ele>3125.0</ele>
      </trkpt>
      <trkpt lat="45.248447" lon="7.122588">
        <time>2023-04-26T10:18:58+00:00</time>
        <ele>3126.0</ele>
      </trkpt>
      <trkpt lat="45.248382" lon="7.122603">
        <time>2023-04-26T10:19:11+00:00</time>
        <ele>3127.0</ele>
      </trkpt>
      <trkpt lat="45.248272" lon="7.122585">
        <time>2023-04-26T10:19:34+00:00</time>
        <ele>3129.0</ele>
      </trkpt>
      <trkpt lat="45.248237" lon="7.122596">
        <time>2023-04-26T10:19:41+00:00</time>
        <ele>3130.0</ele>
      </trkpt>
      <trkpt lat="45.248196" lon="7.122581">
        <time>2023-04-26T10:19:53+00:00</time>
        <ele>3131.0</ele>
      </trkpt>
      <trkpt lat="45.248138" lon="7.122587">
        <time>2023-04-26T10:20:07+00:00</time>
        <ele>3132.0</ele>
      </trkpt>
      <trkpt lat="45.248055" lon="7.122593">
        <time>2023-04-26T10:20:24+00:00</time>
        <ele>3133.0</ele>
      </trkpt>
      <trkpt lat="45.248025" lon="7.122578">
        <time>2023-04-26T10:20:32+00:00</time>
        <ele>3134.0</ele>
      </trkpt>
      <trkpt lat="45.24799" lon="7.122578">
        <time>2023-04-26T10:20:41+00:00</time>
        <ele>3135.0</ele>
      </trkpt>
      <trkpt lat="45.247864" lon="7.122565">
        <time>2023-04-26T10:21:09+00:00</time>
        <ele>3137.0</ele>
      </trkpt>
      <trkpt lat="45.247838" lon="7.122562">
        <time>2023-04-26T10:21:14+00:00</time>
        <ele>3138.0</ele>
      </trkpt>
      <trkpt lat="45.247808" lon="7.122567">
        <time>2023-04-26T10:21:21+00:00</time>
        <ele>3138.0</ele>
      </trkpt>
      <trkpt lat="45.247777" lon="7.122562">
        <time>2023-04-26T10:21:28+00:00</time>
        <ele>3139.0</ele>
      </trkpt>
      <trkpt lat="45.247747" lon="7.122569">
        <time>2023-04-26T10:21:34+00:00</time>
        <ele>3139.0</ele>
      </trkpt>
      <trkpt lat="45.24772" lon="7.122553">
        <time>2023-04-26T10:21:41+00:00</time>
        <ele>3140.0</ele>
      </trkpt>
      <trkpt lat="45.247686" lon="7.122557">
        <time>2023-04-26T10:21:49+00:00</time>
        <ele>3141.0</ele>
      </trkpt>
      <trkpt lat="45.247648" lon="7.122574">
        <time>2023-04-26T10:21:56+00:00</time>
        <ele>3142.0</ele>
      </trkpt>
      <trkpt lat="45.247617" lon="7.122575">
        <time>2023-04-26T10:22:03+00:00</time>
        <ele>3143.0</ele>
      </trkpt>
      <trkpt lat="45.247553" lon="7.122597">
        <time>2023-04-26T10:22:21+00:00</time>
        <ele>3144.0</ele>
      </trkpt>
      <trkpt lat="45.247516" lon="7.122597">
        <time>2023-04-26T10:22:56+00:00</time>
        <ele>3146.0</ele>
      </trkpt>
      <trkpt lat="45.247482" lon="7.122612">
        <time>2023-04-26T10:23:08+00:00</time>
        <ele>3148.0</ele>
      </trkpt>
      <trkpt lat="45.247443" lon="7.122635">
        <time>2023-04-26T10:23:14+00:00</time>
        <ele>3149.0</ele>
      </trkpt>
      <trkpt lat="45.247402" lon="7.122635">
        <time>2023-04-26T10:23:32+00:00</time>
        <ele>3151.0</ele>
      </trkpt>
      <trkpt lat="45.247369" lon="7.122644">
        <time>2023-04-26T10:23:51+00:00</time>
        <ele>3153.0</ele>
      </trkpt>
      <trkpt lat="45.247335" lon="7.122645">
        <time>2023-04-26T10:24:01+00:00</time>
        <ele>3155.0</ele>
      </trkpt>
      <trkpt lat="45.247303" lon="7.122659">
        <time>2023-04-26T10:24:18+00:00</time>
        <ele>3157.0</ele>
      </trkpt>
      <trkpt lat="45.247274" lon="7.122642">
        <time>2023-04-26T10:24:38+00:00</time>
        <ele>3160.0</ele>
      </trkpt>
      <trkpt lat="45.247248" lon="7.122585">
        <time>2023-04-26T10:24:59+00:00</time>
        <ele>3163.0</ele>
      </trkpt>
      <trkpt lat="45.247247" lon="7.122447">
        <time>2023-04-26T10:25:26+00:00</time>
        <ele>3165.0</ele>
      </trkpt>
      <trkpt lat="45.247244" lon="7.122355">
        <time>2023-04-26T10:25:42+00:00</time>
        <ele>3168.0</ele>
      </trkpt>
      <trkpt lat="45.247244" lon="7.122311">
        <time>2023-04-26T10:25:52+00:00</time>
        <ele>3169.0</ele>
      </trkpt>
      <trkpt lat="45.24723" lon="7.122277">
        <time>2023-04-26T10:26:22+00:00</time>
        <ele>3170.0</ele>
      </trkpt>
      <trkpt lat="45.247219" lon="7.12209">
        <time>2023-04-26T10:26:56+00:00</time>
        <ele>3174.0</ele>
      </trkpt>
      <trkpt lat="45.247211" lon="7.121928">
        <time>2023-04-26T10:27:41+00:00</time>
        <ele>3177.0</ele>
      </trkpt>
      <trkpt lat="45.247209" lon="7.121884">
        <time>2023-04-26T10:27:46+00:00</time>
        <ele>3178.0</ele>
      </trkpt>
      <trkpt lat="45.247219" lon="7.121845">
        <time>2023-04-26T10:27:54+00:00</time>
        <ele>3178.0</ele>
      </trkpt>
      <trkpt lat="45.247208" lon="7.121786">
        <time>2023-04-26T10:29:44+00:00</time>
        <ele>3180.0</ele>
      </trkpt>
      <trkpt lat="45.2472" lon="7.121734">
        <time>2023-04-26T10:29:51+00:00</time>
        <ele>3181.0</ele>
      </trkpt>
      <trkpt lat="45.247241" lon="7.121565">
        <time>2023-04-26T10:30:21+00:00</time>
        <ele>3181.0</ele>
      </trkpt>
      <trkpt lat="45.247232" lon="7.121492">
        <time>2023-04-26T10:30:34+00:00</time>
        <ele>3183.0</ele>
      </trkpt>
      <trkpt lat="45.247221" lon="7.121451">
        <time>2023-04-26T10:30:59+00:00</time>
        <ele>3184.0</ele>
      </trkpt>
      <trkpt lat="45.247193" lon="7.121419">
        <time>2023-04-26T10:31:46+00:00</time>
        <ele>3186.0</ele>
      </trkpt>
      <trkpt lat="45.24717" lon="7.121385">
        <time>2023-04-26T10:31:52+00:00</time>
        <ele>3187.0</ele>
      </trkpt>
      <trkpt lat="45.247126" lon="7.121307">
        <time>2023-04-26T10:32:09+00:00</time>
        <ele>3190.0</ele>
      </trkpt>
      <trkpt lat="45.247093" lon="7.121292">
        <time>2023-04-26T10:32:16+00:00</time>
        <ele>3192.0</ele>
      </trkpt>
      <trkpt lat="45.24709" lon="7.121251">
        <time>2023-04-26T10:32:22+00:00</time>
        <ele>3193.0</ele>
      </trkpt>
      <trkpt lat="45.247058" lon="7.121232">
        <time>2023-04-26T10:32:33+00:00</time>
        <ele>3194.0</ele>
      </trkpt>
      <trkpt lat="45.247015" lon="7.121215">
        <time>2023-04-26T10:32:46+00:00</time>
        <ele>3197.0</ele>
      </trkpt>
      <trkpt lat="45.246964" lon="7.121147">
        <time>2023-04-26T10:32:58+00:00</time>
        <ele>3199.0</ele>
      </trkpt>
      <trkpt lat="45.246937" lon="7.121103">
        <time>2023-04-26T10:33:09+00:00</time>
        <ele>3200.0</ele>
      </trkpt>
      <trkpt lat="45.246922" lon="7.12106">
        <time>2023-04-26T10:33:18+00:00</time>
        <ele>3201.0</ele>
      </trkpt>
      <trkpt lat="45.246859" lon="7.121044">
        <time>2023-04-26T10:33:37+00:00</time>
        <ele>3203.0</ele>
      </trkpt>
      <trkpt lat="45.24684" lon="7.121017">
        <time>2023-04-26T10:33:46+00:00</time>
        <ele>3204.0</ele>
      </trkpt>
      <trkpt lat="45.24681" lon="7.121006">
        <time>2023-04-26T10:34:34+00:00</time>
        <ele>3205.0</ele>
      </trkpt>
      <trkpt lat="45.246784" lon="7.12098">
        <time>2023-04-26T10:34:39+00:00</time>
        <ele>3206.0</ele>
      </trkpt>
      <trkpt lat="45.246756" lon="7.120941">
        <time>2023-04-26T10:34:51+00:00</time>
        <ele>3208.0</ele>
      </trkpt>
      <trkpt lat="45.246746" lon="7.120898">
        <time>2023-04-26T10:34:58+00:00</time>
        <ele>3208.0</ele>
      </trkpt>
      <trkpt lat="45.24672" lon="7.120859">
        <time>2023-04-26T10:35:11+00:00</time>
        <ele>3209.0</ele>
      </trkpt>
      <trkpt lat="45.24669" lon="7.12084">
        <time>2023-04-26T10:35:23+00:00</time>
        <ele>3210.0</ele>
      </trkpt>
      <trkpt lat="45.246665" lon="7.120814">
        <time>2023-04-26T10:35:34+00:00</time>
        <ele>3211.0</ele>
      </trkpt>
      <trkpt lat="45.2466" lon="7.12078">
        <time>2023-04-26T10:35:56+00:00</time>
        <ele>3214.0</ele>
      </trkpt>
      <trkpt lat="45.246585" lon="7.120746">
        <time>2023-04-26T10:36:06+00:00</time>
        <ele>3214.0</ele>
      </trkpt>
      <trkpt lat="45.246543" lon="7.120718">
        <time>2023-04-26T10:36:16+00:00</time>
        <ele>3216.0</ele>
      </trkpt>
      <trkpt lat="45.246526" lon="7.120681">
        <time>2023-04-26T10:36:27+00:00</time>
        <ele>3216.0</ele>
      </trkpt>
      <trkpt lat="45.246529" lon="7.120647">
        <time>2023-04-26T10:37:17+00:00</time>
        <ele>3216.0</ele>
      </trkpt>
      <trkpt lat="45.246484" lon="7.120597">
        <time>2023-04-26T10:37:41+00:00</time>
        <ele>3218.0</ele>
      </trkpt>
      <trkpt lat="45.246469" lon="7.120585">
        <time>2023-04-26T10:37:47+00:00</time>
        <ele>3219.0</ele>
      </trkpt>
      <trkpt lat="45.246449" lon="7.120576">
        <time>2023-04-26T10:37:51+00:00</time>
        <ele>3219.0</ele>
      </trkpt>
      <trkpt lat="45.246428" lon="7.12054">
        <time>2023-04-26T10:38:01+00:00</time>
        <ele>3220.0</ele>
      </trkpt>
      <trkpt lat="45.246407" lon="7.120523">
        <time>2023-04-26T10:38:09+00:00</time>
        <ele>3221.0</ele>
      </trkpt>
      <trkpt lat="45.246397" lon="7.120504">
        <time>2023-04-26T10:38:11+00:00</time>
        <ele>3221.0</ele>
      </trkpt>
      <trkpt lat="45.246384" lon="7.120494">
        <time>2023-04-26T10:38:16+00:00</time>
        <ele>3222.0</ele>
      </trkpt>
      <trkpt lat="45.246366" lon="7.12049">
        <time>2023-04-26T10:38:19+00:00</time>
        <ele>3222.0</ele>
      </trkpt>
      <trkpt lat="45.246354" lon="7.120471">
        <time>2023-04-26T10:38:25+00:00</time>
        <ele>3223.0</ele>
      </trkpt>
      <trkpt lat="45.246334" lon="7.120469">
        <time>2023-04-26T10:38:31+00:00</time>
        <ele>3224.0</ele>
      </trkpt>
      <trkpt lat="45.246323" lon="7.120449">
        <time>2023-04-26T10:38:36+00:00</time>
        <ele>3224.0</ele>
      </trkpt>
      <trkpt lat="45.24631" lon="7.120438">
        <time>2023-04-26T10:38:39+00:00</time>
        <ele>3224.0</ele>
      </trkpt>
      <trkpt lat="45.246294" lon="7.120426">
        <time>2023-04-26T10:38:43+00:00</time>
        <ele>3225.0</ele>
      </trkpt>
      <trkpt lat="45.24628" lon="7.120409">
        <time>2023-04-26T10:38:51+00:00</time>
        <ele>3225.0</ele>
      </trkpt>
      <trkpt lat="45.246272" lon="7.120384">
        <time>2023-04-26T10:38:57+00:00</time>
        <ele>3226.0</ele>
      </trkpt>
      <trkpt lat="45.246252" lon="7.120379">
        <time>2023-04-26T10:39:01+00:00</time>
        <ele>3226.0</ele>
      </trkpt>
      <trkpt lat="45.246225" lon="7.120333">
        <time>2023-04-26T10:39:11+00:00</time>
        <ele>3227.0</ele>
      </trkpt>
      <trkpt lat="45.246204" lon="7.120322">
        <time>2023-04-26T10:39:16+00:00</time>
        <ele>3228.0</ele>
      </trkpt>
      <trkpt lat="45.246185" lon="7.120315">
        <time>2023-04-26T10:39:21+00:00</time>
        <ele>3229.0</ele>
      </trkpt>
      <trkpt lat="45.246166" lon="7.120302">
        <time>2023-04-26T10:39:27+00:00</time>
        <ele>3230.0</ele>
      </trkpt>
      <trkpt lat="45.246149" lon="7.120265">
        <time>2023-04-26T10:39:36+00:00</time>
        <ele>3230.0</ele>
      </trkpt>
      <trkpt lat="45.246132" lon="7.120248">
        <time>2023-04-26T10:39:41+00:00</time>
        <ele>3231.0</ele>
      </trkpt>
      <trkpt lat="45.246114" lon="7.120226">
        <time>2023-04-26T10:39:46+00:00</time>
        <ele>3231.0</ele>
      </trkpt>
      <trkpt lat="45.246097" lon="7.120218">
        <time>2023-04-26T10:39:53+00:00</time>
        <ele>3232.0</ele>
      </trkpt>
      <trkpt lat="45.246078" lon="7.120221">
        <time>2023-04-26T10:39:58+00:00</time>
        <ele>3233.0</ele>
      </trkpt>
      <trkpt lat="45.246068" lon="7.1202">
        <time>2023-04-26T10:40:02+00:00</time>
        <ele>3233.0</ele>
      </trkpt>
      <trkpt lat="45.246057" lon="7.120191">
        <time>2023-04-26T10:40:10+00:00</time>
        <ele>3234.0</ele>
      </trkpt>
      <trkpt lat="45.246051" lon="7.120166">
        <time>2023-04-26T10:40:13+00:00</time>
        <ele>3234.0</ele>
      </trkpt>
      <trkpt lat="45.246039" lon="7.120148">
        <time>2023-04-26T10:40:17+00:00</time>
        <ele>3234.0</ele>
      </trkpt>
      <trkpt lat="45.24603" lon="7.120132">
        <time>2023-04-26T10:40:20+00:00</time>
        <ele>3235.0</ele>
      </trkpt>
      <trkpt lat="45.246019" lon="7.120107">
        <time>2023-04-26T10:40:27+00:00</time>
        <ele>3235.0</ele>
      </trkpt>
      <trkpt lat="45.246016" lon="7.120081">
        <time>2023-04-26T10:40:31+00:00</time>
        <ele>3235.0</ele>
      </trkpt>
      <trkpt lat="45.246002" lon="7.120058">
        <time>2023-04-26T10:40:36+00:00</time>
        <ele>3236.0</ele>
      </trkpt>
      <trkpt lat="45.245985" lon="7.120038">
        <time>2023-04-26T10:40:42+00:00</time>
        <ele>3237.0</ele>
      </trkpt>
      <trkpt lat="45.24596" lon="7.119998">
        <time>2023-04-26T10:40:53+00:00</time>
        <ele>3238.0</ele>
      </trkpt>
      <trkpt lat="45.245948" lon="7.119983">
        <time>2023-04-26T10:40:56+00:00</time>
        <ele>3238.0</ele>
      </trkpt>
      <trkpt lat="45.245928" lon="7.119993">
        <time>2023-04-26T10:42:45+00:00</time>
        <ele>3239.0</ele>
      </trkpt>
      <trkpt lat="45.245887" lon="7.120021">
        <time>2023-04-26T10:42:52+00:00</time>
        <ele>3240.0</ele>
      </trkpt>
      <trkpt lat="45.24587" lon="7.120047">
        <time>2023-04-26T10:42:56+00:00</time>
        <ele>3241.0</ele>
      </trkpt>
      <trkpt lat="45.245778" lon="7.120116">
        <time>2023-04-26T10:43:18+00:00</time>
        <ele>3243.0</ele>
      </trkpt>
      <trkpt lat="45.24573" lon="7.12016">
        <time>2023-04-26T10:43:31+00:00</time>
        <ele>3245.0</ele>
      </trkpt>
      <trkpt lat="45.245709" lon="7.120179">
        <time>2023-04-26T10:43:37+00:00</time>
        <ele>3245.0</ele>
      </trkpt>
      <trkpt lat="45.245647" lon="7.120236">
        <time>2023-04-26T10:44:28+00:00</time>
        <ele>3247.0</ele>
      </trkpt>
      <trkpt lat="45.245602" lon="7.120301">
        <time>2023-04-26T10:44:39+00:00</time>
        <ele>3248.0</ele>
      </trkpt>
      <trkpt lat="45.24559" lon="7.120326">
        <time>2023-04-26T10:44:44+00:00</time>
        <ele>3248.0</ele>
      </trkpt>
      <trkpt lat="45.245569" lon="7.120352">
        <time>2023-04-26T10:44:49+00:00</time>
        <ele>3249.0</ele>
      </trkpt>
      <trkpt lat="45.245551" lon="7.120357">
        <time>2023-04-26T10:44:53+00:00</time>
        <ele>3250.0</ele>
      </trkpt>
      <trkpt lat="45.245509" lon="7.120417">
        <time>2023-04-26T10:45:06+00:00</time>
        <ele>3251.0</ele>
      </trkpt>
      <trkpt lat="45.245485" lon="7.120429">
        <time>2023-04-26T10:45:12+00:00</time>
        <ele>3252.0</ele>
      </trkpt>
      <trkpt lat="45.245464" lon="7.120468">
        <time>2023-04-26T10:45:16+00:00</time>
        <ele>3252.0</ele>
      </trkpt>
      <trkpt lat="45.245442" lon="7.120484">
        <time>2023-04-26T10:45:21+00:00</time>
        <ele>3253.0</ele>
      </trkpt>
      <trkpt lat="45.245424" lon="7.120498">
        <time>2023-04-26T10:45:38+00:00</time>
        <ele>3254.0</ele>
      </trkpt>
      <trkpt lat="45.245411" lon="7.120517">
        <time>2023-04-26T10:45:58+00:00</time>
        <ele>3254.0</ele>
      </trkpt>
      <trkpt lat="45.245387" lon="7.120524">
        <time>2023-04-26T10:46:03+00:00</time>
        <ele>3255.0</ele>
      </trkpt>
      <trkpt lat="45.245372" lon="7.120556">
        <time>2023-04-26T10:46:08+00:00</time>
        <ele>3256.0</ele>
      </trkpt>
      <trkpt lat="45.245327" lon="7.120596">
        <time>2023-04-26T10:46:18+00:00</time>
        <ele>3258.0</ele>
      </trkpt>
      <trkpt lat="45.245314" lon="7.120614">
        <time>2023-04-26T10:46:22+00:00</time>
        <ele>3258.0</ele>
      </trkpt>
      <trkpt lat="45.245293" lon="7.12062">
        <time>2023-04-26T10:46:33+00:00</time>
        <ele>3259.0</ele>
      </trkpt>
      <trkpt lat="45.245277" lon="7.120602">
        <time>2023-04-26T10:46:46+00:00</time>
        <ele>3259.0</ele>
      </trkpt>
      <trkpt lat="45.245195" lon="7.120552">
        <time>2023-04-26T10:47:05+00:00</time>
        <ele>3262.0</ele>
      </trkpt>
      <trkpt lat="45.245177" lon="7.120536">
        <time>2023-04-26T10:47:12+00:00</time>
        <ele>3263.0</ele>
      </trkpt>
      <trkpt lat="45.245157" lon="7.12053">
        <time>2023-04-26T10:47:17+00:00</time>
        <ele>3264.0</ele>
      </trkpt>
      <trkpt lat="45.245142" lon="7.120515">
        <time>2023-04-26T10:47:23+00:00</time>
        <ele>3264.0</ele>
      </trkpt>
      <trkpt lat="45.245124" lon="7.120509">
        <time>2023-04-26T10:47:27+00:00</time>
        <ele>3265.0</ele>
      </trkpt>
      <trkpt lat="45.24511" lon="7.120492">
        <time>2023-04-26T10:47:32+00:00</time>
        <ele>3265.0</ele>
      </trkpt>
      <trkpt lat="45.245101" lon="7.120471">
        <time>2023-04-26T10:47:35+00:00</time>
        <ele>3265.0</ele>
      </trkpt>
      <trkpt lat="45.245082" lon="7.120467">
        <time>2023-04-26T10:48:07+00:00</time>
        <ele>3266.0</ele>
      </trkpt>
      <trkpt lat="45.245068" lon="7.120451">
        <time>2023-04-26T10:48:11+00:00</time>
        <ele>3267.0</ele>
      </trkpt>
      <trkpt lat="45.245057" lon="7.120419">
        <time>2023-04-26T10:48:16+00:00</time>
        <ele>3267.0</ele>
      </trkpt>
      <trkpt lat="45.245018" lon="7.120393">
        <time>2023-04-26T10:48:25+00:00</time>
        <ele>3269.0</ele>
      </trkpt>
      <trkpt lat="45.245014" lon="7.120374">
        <time>2023-04-26T10:48:28+00:00</time>
        <ele>3269.0</ele>
      </trkpt>
      <trkpt lat="45.244996" lon="7.120349">
        <time>2023-04-26T10:48:35+00:00</time>
        <ele>3269.0</ele>
      </trkpt>
      <trkpt lat="45.244988" lon="7.120327">
        <time>2023-04-26T10:48:42+00:00</time>
        <ele>3270.0</ele>
      </trkpt>
      <trkpt lat="45.244965" lon="7.120314">
        <time>2023-04-26T10:48:47+00:00</time>
        <ele>3271.0</ele>
      </trkpt>
      <trkpt lat="45.244958" lon="7.120286">
        <time>2023-04-26T10:48:53+00:00</time>
        <ele>3271.0</ele>
      </trkpt>
      <trkpt lat="45.244927" lon="7.120253">
        <time>2023-04-26T10:49:01+00:00</time>
        <ele>3273.0</ele>
      </trkpt>
      <trkpt lat="45.244918" lon="7.120207">
        <time>2023-04-26T10:49:10+00:00</time>
        <ele>3274.0</ele>
      </trkpt>
      <trkpt lat="45.244889" lon="7.120157">
        <time>2023-04-26T10:51:22+00:00</time>
        <ele>3275.0</ele>
      </trkpt>
      <trkpt lat="45.244889" lon="7.12013">
        <time>2023-04-26T10:51:27+00:00</time>
        <ele>3275.0</ele>
      </trkpt>
      <trkpt lat="45.244878" lon="7.120102">
        <time>2023-04-26T10:51:32+00:00</time>
        <ele>3276.0</ele>
      </trkpt>
      <trkpt lat="45.244866" lon="7.120077">
        <time>2023-04-26T10:51:37+00:00</time>
        <ele>3277.0</ele>
      </trkpt>
      <trkpt lat="45.244847" lon="7.120026">
        <time>2023-04-26T10:51:47+00:00</time>
        <ele>3278.0</ele>
      </trkpt>
      <trkpt lat="45.244829" lon="7.120057">
        <time>2023-04-26T10:52:42+00:00</time>
        <ele>3279.0</ele>
      </trkpt>
      <trkpt lat="45.244813" lon="7.120088">
        <time>2023-04-26T10:52:48+00:00</time>
        <ele>3279.0</ele>
      </trkpt>
      <trkpt lat="45.24479" lon="7.120122">
        <time>2023-04-26T10:52:56+00:00</time>
        <ele>3280.0</ele>
      </trkpt>
      <trkpt lat="45.244721" lon="7.120196">
        <time>2023-04-26T10:53:52+00:00</time>
        <ele>3282.0</ele>
      </trkpt>
      <trkpt lat="45.244695" lon="7.120227">
        <time>2023-04-26T10:53:59+00:00</time>
        <ele>3283.0</ele>
      </trkpt>
      <trkpt lat="45.24468" lon="7.120256">
        <time>2023-04-26T10:54:08+00:00</time>
        <ele>3283.0</ele>
      </trkpt>
      <trkpt lat="45.244663" lon="7.120285">
        <time>2023-04-26T10:54:12+00:00</time>
        <ele>3284.0</ele>
      </trkpt>
      <trkpt lat="45.244622" lon="7.120351">
        <time>2023-04-26T10:54:57+00:00</time>
        <ele>3285.0</ele>
      </trkpt>
      <trkpt lat="45.244603" lon="7.120379">
        <time>2023-04-26T10:55:03+00:00</time>
        <ele>3286.0</ele>
      </trkpt>
      <trkpt lat="45.244586" lon="7.120416">
        <time>2023-04-26T10:55:23+00:00</time>
        <ele>3287.0</ele>
      </trkpt>
      <trkpt lat="45.244581" lon="7.120452">
        <time>2023-04-26T10:55:54+00:00</time>
        <ele>3288.0</ele>
      </trkpt>
      <trkpt lat="45.244563" lon="7.120529">
        <time>2023-04-26T10:56:28+00:00</time>
        <ele>3289.0</ele>
      </trkpt>
      <trkpt lat="45.244554" lon="7.120566">
        <time>2023-04-26T10:56:43+00:00</time>
        <ele>3290.0</ele>
      </trkpt>
      <trkpt lat="45.244542" lon="7.120589">
        <time>2023-04-26T10:57:57+00:00</time>
        <ele>3291.0</ele>
      </trkpt>
      <trkpt lat="45.244532" lon="7.120621">
        <time>2023-04-26T11:08:23+00:00</time>
        <ele>3291.0</ele>
      </trkpt>
      <trkpt lat="45.244524" lon="7.120665">
        <time>2023-04-26T11:08:32+00:00</time>
        <ele>3291.0</ele>
      </trkpt>
      <trkpt lat="45.244519" lon="7.120699">
        <time>2023-04-26T11:08:39+00:00</time>
        <ele>3291.0</ele>
      </trkpt>
      <trkpt lat="45.244518" lon="7.120745">
        <time>2023-04-26T11:08:47+00:00</time>
        <ele>3292.0</ele>
      </trkpt>
      <trkpt lat="45.244509" lon="7.12078">
        <time>2023-04-26T11:09:04+00:00</time>
        <ele>3291.0</ele>
      </trkpt>
      <trkpt lat="45.244491" lon="7.120781">
        <time>2023-04-26T11:09:07+00:00</time>
        <ele>3290.0</ele>
      </trkpt>
      <trkpt lat="45.244468" lon="7.120764">
        <time>2023-04-26T11:09:15+00:00</time>
        <ele>3289.0</ele>
      </trkpt>
      <trkpt lat="45.244473" lon="7.120803">
        <time>2023-04-26T11:09:34+00:00</time>
        <ele>3289.0</ele>
      </trkpt>
      <trkpt lat="45.24447" lon="7.120838">
        <time>2023-04-26T11:09:50+00:00</time>
        <ele>3290.0</ele>
      </trkpt>
      <trkpt lat="45.244452" lon="7.120899">
        <time>2023-04-26T11:10:23+00:00</time>
        <ele>3289.0</ele>
      </trkpt>
      <trkpt lat="45.244441" lon="7.120931">
        <time>2023-04-26T11:10:33+00:00</time>
        <ele>3288.0</ele>
      </trkpt>
      <trkpt lat="45.244423" lon="7.120988">
        <time>2023-04-26T11:10:51+00:00</time>
        <ele>3287.0</ele>
      </trkpt>
      <trkpt lat="45.244415" lon="7.121096">
        <time>2023-04-26T11:11:25+00:00</time>
        <ele>3287.0</ele>
      </trkpt>
      <trkpt lat="45.244408" lon="7.121167">
        <time>2023-04-26T11:11:54+00:00</time>
        <ele>3287.0</ele>
      </trkpt>
      <trkpt lat="45.244399" lon="7.121202">
        <time>2023-04-26T11:12:02+00:00</time>
        <ele>3287.0</ele>
      </trkpt>
      <trkpt lat="45.244407" lon="7.121243">
        <time>2023-04-26T11:12:14+00:00</time>
        <ele>3288.0</ele>
      </trkpt>
      <trkpt lat="45.244422" lon="7.121278">
        <time>2023-04-26T11:12:21+00:00</time>
        <ele>3290.0</ele>
      </trkpt>
      <trkpt lat="45.244419" lon="7.121311">
        <time>2023-04-26T11:12:35+00:00</time>
        <ele>3290.0</ele>
      </trkpt>
      <trkpt lat="45.244434" lon="7.121331">
        <time>2023-04-26T11:12:50+00:00</time>
        <ele>3291.0</ele>
      </trkpt>
      <trkpt lat="45.244439" lon="7.121366">
        <time>2023-04-26T11:13:12+00:00</time>
        <ele>3292.0</ele>
      </trkpt>
      <trkpt lat="45.244442" lon="7.121405">
        <time>2023-04-26T11:13:22+00:00</time>
        <ele>3293.0</ele>
      </trkpt>
      <trkpt lat="45.244431" lon="7.121435">
        <time>2023-04-26T11:13:26+00:00</time>
        <ele>3293.0</ele>
      </trkpt>
      <trkpt lat="45.24444" lon="7.121474">
        <time>2023-04-26T11:13:38+00:00</time>
        <ele>3295.0</ele>
      </trkpt>
      <trkpt lat="45.244439" lon="7.121514">
        <time>2023-04-26T11:14:02+00:00</time>
        <ele>3296.0</ele>
      </trkpt>
      <trkpt lat="45.244461" lon="7.121535">
        <time>2023-04-26T11:14:12+00:00</time>
        <ele>3298.0</ele>
      </trkpt>
      <trkpt lat="45.244477" lon="7.121559">
        <time>2023-04-26T11:14:23+00:00</time>
        <ele>3301.0</ele>
      </trkpt>
      <trkpt lat="45.24447" lon="7.121593">
        <time>2023-04-26T11:14:38+00:00</time>
        <ele>3301.0</ele>
      </trkpt>
      <trkpt lat="45.24446" lon="7.121628">
        <time>2023-04-26T11:14:47+00:00</time>
        <ele>3301.0</ele>
      </trkpt>
      <trkpt lat="45.244473" lon="7.121656">
        <time>2023-04-26T11:15:11+00:00</time>
        <ele>3303.0</ele>
      </trkpt>
      <trkpt lat="45.244452" lon="7.121668">
        <time>2023-04-26T11:15:17+00:00</time>
        <ele>3301.0</ele>
      </trkpt>
      <trkpt lat="45.244465" lon="7.121708">
        <time>2023-04-26T11:15:28+00:00</time>
        <ele>3303.0</ele>
      </trkpt>
      <trkpt lat="45.24447" lon="7.121754">
        <time>2023-04-26T11:15:42+00:00</time>
        <ele>3305.0</ele>
      </trkpt>
      <trkpt lat="45.244466" lon="7.121786">
        <time>2023-04-26T11:16:08+00:00</time>
        <ele>3306.0</ele>
      </trkpt>
      <trkpt lat="45.244455" lon="7.121815">
        <time>2023-04-26T11:16:17+00:00</time>
        <ele>3306.0</ele>
      </trkpt>
      <trkpt lat="45.244462" lon="7.121884">
        <time>2023-04-26T11:16:38+00:00</time>
        <ele>3309.0</ele>
      </trkpt>
      <trkpt lat="45.244475" lon="7.121919">
        <time>2023-04-26T11:16:48+00:00</time>
        <ele>3311.0</ele>
      </trkpt>
      <trkpt lat="45.244482" lon="7.121948">
        <time>2023-04-26T11:17:21+00:00</time>
        <ele>3312.0</ele>
      </trkpt>
      <trkpt lat="45.244469" lon="7.121978">
        <time>2023-04-26T11:17:36+00:00</time>
        <ele>3312.0</ele>
      </trkpt>
      <trkpt lat="45.244456" lon="7.122019">
        <time>2023-04-26T11:17:49+00:00</time>
        <ele>3312.0</ele>
      </trkpt>
      <trkpt lat="45.244443" lon="7.122124">
        <time>2023-04-26T11:18:15+00:00</time>
        <ele>3314.0</ele>
      </trkpt>
      <trkpt lat="45.244441" lon="7.122167">
        <time>2023-04-26T11:18:28+00:00</time>
        <ele>3315.0</ele>
      </trkpt>
      <trkpt lat="45.244433" lon="7.122205">
        <time>2023-04-26T11:18:52+00:00</time>
        <ele>3315.0</ele>
      </trkpt>
      <trkpt lat="45.24444" lon="7.122237">
        <time>2023-04-26T11:19:03+00:00</time>
        <ele>3317.0</ele>
      </trkpt>
      <trkpt lat="45.244428" lon="7.122342">
        <time>2023-04-26T11:19:29+00:00</time>
        <ele>3317.0</ele>
      </trkpt>
      <trkpt lat="45.244435" lon="7.122377">
        <time>2023-04-26T11:19:46+00:00</time>
        <ele>3319.0</ele>
      </trkpt>
      <trkpt lat="45.244436" lon="7.12245">
        <time>2023-04-26T11:20:07+00:00</time>
        <ele>3320.0</ele>
      </trkpt>
      <trkpt lat="45.244444" lon="7.122486">
        <time>2023-04-26T11:20:13+00:00</time>
        <ele>3321.0</ele>
      </trkpt>
      <trkpt lat="45.244443" lon="7.122524">
        <time>2023-04-26T11:20:24+00:00</time>
        <ele>3321.0</ele>
      </trkpt>
      <trkpt lat="45.24443" lon="7.122552">
        <time>2023-04-26T11:20:31+00:00</time>
        <ele>3320.0</ele>
      </trkpt>
      <trkpt lat="45.244427" lon="7.122589">
        <time>2023-04-26T11:20:40+00:00</time>
        <ele>3320.0</ele>
      </trkpt>
      <trkpt lat="45.244437" lon="7.122681">
        <time>2023-04-26T11:21:02+00:00</time>
        <ele>3320.0</ele>
      </trkpt>
      <trkpt lat="45.244455" lon="7.122755">
        <time>2023-04-26T11:21:47+00:00</time>
        <ele>3322.0</ele>
      </trkpt>
      <trkpt lat="45.244452" lon="7.122723">
        <time>2023-04-26T11:24:41+00:00</time>
        <ele>3322.0</ele>
      </trkpt>
      <trkpt lat="45.244442" lon="7.122438">
        <time>2023-04-26T11:25:06+00:00</time>
        <ele>3320.0</ele>
      </trkpt>
      <trkpt lat="45.244433" lon="7.122403">
        <time>2023-04-26T11:25:09+00:00</time>
        <ele>3319.0</ele>
      </trkpt>
      <trkpt lat="45.244431" lon="7.122362">
        <time>2023-04-26T11:25:13+00:00</time>
        <ele>3318.0</ele>
      </trkpt>
      <trkpt lat="45.244432" lon="7.122327">
        <time>2023-04-26T11:25:18+00:00</time>
        <ele>3317.0</ele>
      </trkpt>
      <trkpt lat="45.244444" lon="7.122211">
        <time>2023-04-26T11:25:33+00:00</time>
        <ele>3316.0</ele>
      </trkpt>
      <trkpt lat="45.24444" lon="7.122182">
        <time>2023-04-26T11:25:36+00:00</time>
        <ele>3315.0</ele>
      </trkpt>
      <trkpt lat="45.244446" lon="7.122158">
        <time>2023-04-26T11:25:40+00:00</time>
        <ele>3315.0</ele>
      </trkpt>
      <trkpt lat="45.244454" lon="7.122052">
        <time>2023-04-26T11:26:17+00:00</time>
        <ele>3313.0</ele>
      </trkpt>
      <trkpt lat="45.24446" lon="7.122022">
        <time>2023-04-26T11:26:23+00:00</time>
        <ele>3313.0</ele>
      </trkpt>
      <trkpt lat="45.244476" lon="7.121997">
        <time>2023-04-26T11:26:30+00:00</time>
        <ele>3313.0</ele>
      </trkpt>
      <trkpt lat="45.244485" lon="7.121939">
        <time>2023-04-26T11:26:40+00:00</time>
        <ele>3312.0</ele>
      </trkpt>
      <trkpt lat="45.244479" lon="7.121911">
        <time>2023-04-26T11:26:45+00:00</time>
        <ele>3311.0</ele>
      </trkpt>
      <trkpt lat="45.244472" lon="7.121839">
        <time>2023-04-26T11:26:53+00:00</time>
        <ele>3308.0</ele>
      </trkpt>
      <trkpt lat="45.244472" lon="7.121802">
        <time>2023-04-26T11:26:58+00:00</time>
        <ele>3307.0</ele>
      </trkpt>
      <trkpt lat="45.24448" lon="7.121753">
        <time>2023-04-26T11:27:08+00:00</time>
        <ele>3306.0</ele>
      </trkpt>
      <trkpt lat="45.244477" lon="7.121725">
        <time>2023-04-26T11:27:14+00:00</time>
        <ele>3305.0</ele>
      </trkpt>
      <trkpt lat="45.244476" lon="7.121697">
        <time>2023-04-26T11:27:18+00:00</time>
        <ele>3304.0</ele>
      </trkpt>
      <trkpt lat="45.244469" lon="7.121622">
        <time>2023-04-26T11:27:33+00:00</time>
        <ele>3301.0</ele>
      </trkpt>
      <trkpt lat="45.244466" lon="7.121555">
        <time>2023-04-26T11:27:48+00:00</time>
        <ele>3299.0</ele>
      </trkpt>
      <trkpt lat="45.244446" lon="7.121393">
        <time>2023-04-26T11:28:26+00:00</time>
        <ele>3293.0</ele>
      </trkpt>
      <trkpt lat="45.244443" lon="7.121367">
        <time>2023-04-26T11:28:33+00:00</time>
        <ele>3293.0</ele>
      </trkpt>
      <trkpt lat="45.244448" lon="7.121305">
        <time>2023-04-26T11:28:55+00:00</time>
        <ele>3292.0</ele>
      </trkpt>
      <trkpt lat="45.24443" lon="7.121282">
        <time>2023-04-26T11:29:06+00:00</time>
        <ele>3290.0</ele>
      </trkpt>
      <trkpt lat="45.244431" lon="7.12124">
        <time>2023-04-26T11:29:13+00:00</time>
        <ele>3290.0</ele>
      </trkpt>
      <trkpt lat="45.244424" lon="7.121206">
        <time>2023-04-26T11:29:18+00:00</time>
        <ele>3289.0</ele>
      </trkpt>
      <trkpt lat="45.244422" lon="7.121027">
        <time>2023-04-26T11:29:48+00:00</time>
        <ele>3288.0</ele>
      </trkpt>
      <trkpt lat="45.244427" lon="7.120993">
        <time>2023-04-26T11:29:56+00:00</time>
        <ele>3288.0</ele>
      </trkpt>
      <trkpt lat="45.244439" lon="7.120961">
        <time>2023-04-26T11:30:03+00:00</time>
        <ele>3288.0</ele>
      </trkpt>
      <trkpt lat="45.244455" lon="7.120927">
        <time>2023-04-26T11:30:18+00:00</time>
        <ele>3289.0</ele>
      </trkpt>
      <trkpt lat="45.244467" lon="7.120908">
        <time>2023-04-26T11:30:30+00:00</time>
        <ele>3290.0</ele>
      </trkpt>
      <trkpt lat="45.244471" lon="7.120848">
        <time>2023-04-26T11:30:45+00:00</time>
        <ele>3290.0</ele>
      </trkpt>
      <trkpt lat="45.24447" lon="7.120806">
        <time>2023-04-26T11:30:53+00:00</time>
        <ele>3289.0</ele>
      </trkpt>
      <trkpt lat="45.244494" lon="7.120803">
        <time>2023-04-26T11:31:09+00:00</time>
        <ele>3291.0</ele>
      </trkpt>
      <trkpt lat="45.244502" lon="7.120773">
        <time>2023-04-26T11:31:34+00:00</time>
        <ele>3291.0</ele>
      </trkpt>
      <trkpt lat="45.244508" lon="7.120734">
        <time>2023-04-26T11:31:49+00:00</time>
        <ele>3291.0</ele>
      </trkpt>
      <trkpt lat="45.244509" lon="7.120697">
        <time>2023-04-26T11:32:20+00:00</time>
        <ele>3291.0</ele>
      </trkpt>
      <trkpt lat="45.244516" lon="7.120663">
        <time>2023-04-26T11:32:35+00:00</time>
        <ele>3291.0</ele>
      </trkpt>
      <trkpt lat="45.244521" lon="7.120626">
        <time>2023-04-26T11:33:01+00:00</time>
        <ele>3291.0</ele>
      </trkpt>
      <trkpt lat="45.244539" lon="7.120602">
        <time>2023-04-26T11:34:08+00:00</time>
        <ele>3291.0</ele>
      </trkpt>
      <trkpt lat="45.244553" lon="7.120574">
        <time>2023-04-26T11:34:31+00:00</time>
        <ele>3290.0</ele>
      </trkpt>
      <trkpt lat="45.244568" lon="7.120539">
        <time>2023-04-26T11:35:04+00:00</time>
        <ele>3289.0</ele>
      </trkpt>
      <trkpt lat="45.244573" lon="7.120515">
        <time>2023-04-26T11:35:25+00:00</time>
        <ele>3289.0</ele>
      </trkpt>
      <trkpt lat="45.244593" lon="7.120476">
        <time>2023-04-26T11:36:04+00:00</time>
        <ele>3287.0</ele>
      </trkpt>
      <trkpt lat="45.244604" lon="7.120445">
        <time>2023-04-26T11:36:14+00:00</time>
        <ele>3287.0</ele>
      </trkpt>
      <trkpt lat="45.24465" lon="7.120394">
        <time>2023-04-26T11:36:43+00:00</time>
        <ele>3284.0</ele>
      </trkpt>
      <trkpt lat="45.244664" lon="7.120373">
        <time>2023-04-26T11:40:29+00:00</time>
        <ele>3283.0</ele>
      </trkpt>
      <trkpt lat="45.244675" lon="7.120352">
        <time>2023-04-26T11:50:21+00:00</time>
        <ele>3283.0</ele>
      </trkpt>
      <trkpt lat="45.244722" lon="7.120414">
        <time>2023-04-26T11:50:23+00:00</time>
        <ele>3281.0</ele>
      </trkpt>
      <trkpt lat="45.244721" lon="7.120459">
        <time>2023-04-26T11:50:25+00:00</time>
        <ele>3281.0</ele>
      </trkpt>
      <trkpt lat="45.244742" lon="7.12048">
        <time>2023-04-26T11:50:30+00:00</time>
        <ele>3281.0</ele>
      </trkpt>
      <trkpt lat="45.244788" lon="7.120437">
        <time>2023-04-26T11:50:33+00:00</time>
        <ele>3278.0</ele>
      </trkpt>
      <trkpt lat="45.244839" lon="7.12048">
        <time>2023-04-26T11:50:35+00:00</time>
        <ele>3276.0</ele>
      </trkpt>
      <trkpt lat="45.244856" lon="7.120519">
        <time>2023-04-26T11:50:36+00:00</time>
        <ele>3276.0</ele>
      </trkpt>
      <trkpt lat="45.244923" lon="7.120529">
        <time>2023-04-26T11:50:38+00:00</time>
        <ele>3273.0</ele>
      </trkpt>
      <trkpt lat="45.244967" lon="7.120543">
        <time>2023-04-26T11:51:15+00:00</time>
        <ele>3271.0</ele>
      </trkpt>
      <trkpt lat="45.244979" lon="7.120572">
        <time>2023-04-26T11:51:16+00:00</time>
        <ele>3271.0</ele>
      </trkpt>
      <trkpt lat="45.24502" lon="7.120578">
        <time>2023-04-26T11:51:18+00:00</time>
        <ele>3269.0</ele>
      </trkpt>
      <trkpt lat="45.245034" lon="7.120538">
        <time>2023-04-26T11:51:19+00:00</time>
        <ele>3268.0</ele>
      </trkpt>
      <trkpt lat="45.245101" lon="7.120522">
        <time>2023-04-26T11:51:21+00:00</time>
        <ele>3266.0</ele>
      </trkpt>
      <trkpt lat="45.245143" lon="7.120581">
        <time>2023-04-26T11:51:22+00:00</time>
        <ele>3264.0</ele>
      </trkpt>
      <trkpt lat="45.245166" lon="7.120676">
        <time>2023-04-26T11:51:24+00:00</time>
        <ele>3264.0</ele>
      </trkpt>
      <trkpt lat="45.245186" lon="7.120696">
        <time>2023-04-26T11:51:25+00:00</time>
        <ele>3263.0</ele>
      </trkpt>
      <trkpt lat="45.245218" lon="7.120684">
        <time>2023-04-26T11:51:26+00:00</time>
        <ele>3262.0</ele>
      </trkpt>
      <trkpt lat="45.245265" lon="7.120602">
        <time>2023-04-26T11:51:28+00:00</time>
        <ele>3260.0</ele>
      </trkpt>
      <trkpt lat="45.245303" lon="7.120648">
        <time>2023-04-26T11:51:30+00:00</time>
        <ele>3259.0</ele>
      </trkpt>
      <trkpt lat="45.245311" lon="7.120694">
        <time>2023-04-26T11:51:31+00:00</time>
        <ele>3258.0</ele>
      </trkpt>
      <trkpt lat="45.245362" lon="7.120746">
        <time>2023-04-26T11:51:33+00:00</time>
        <ele>3257.0</ele>
      </trkpt>
      <trkpt lat="45.245397" lon="7.120709">
        <time>2023-04-26T11:51:35+00:00</time>
        <ele>3255.0</ele>
      </trkpt>
      <trkpt lat="45.245462" lon="7.120593">
        <time>2023-04-26T11:51:38+00:00</time>
        <ele>3253.0</ele>
      </trkpt>
      <trkpt lat="45.245497" lon="7.120625">
        <time>2023-04-26T11:51:39+00:00</time>
        <ele>3251.0</ele>
      </trkpt>
      <trkpt lat="45.245525" lon="7.12064">
        <time>2023-04-26T11:51:48+00:00</time>
        <ele>3250.0</ele>
      </trkpt>
      <trkpt lat="45.24562" lon="7.120351">
        <time>2023-04-26T11:51:57+00:00</time>
        <ele>3247.0</ele>
      </trkpt>
      <trkpt lat="45.245648" lon="7.120324">
        <time>2023-04-26T11:51:58+00:00</time>
        <ele>3247.0</ele>
      </trkpt>
      <trkpt lat="45.245702" lon="7.120324">
        <time>2023-04-26T11:51:59+00:00</time>
        <ele>3245.0</ele>
      </trkpt>
      <trkpt lat="45.245744" lon="7.120366">
        <time>2023-04-26T11:52:00+00:00</time>
        <ele>3244.0</ele>
      </trkpt>
      <trkpt lat="45.245758" lon="7.120413">
        <time>2023-04-26T11:52:01+00:00</time>
        <ele>3243.0</ele>
      </trkpt>
      <trkpt lat="45.245776" lon="7.120476">
        <time>2023-04-26T11:52:03+00:00</time>
        <ele>3243.0</ele>
      </trkpt>
      <trkpt lat="45.245832" lon="7.120457">
        <time>2023-04-26T11:52:05+00:00</time>
        <ele>3241.0</ele>
      </trkpt>
      <trkpt lat="45.245853" lon="7.12041">
        <time>2023-04-26T11:52:06+00:00</time>
        <ele>3241.0</ele>
      </trkpt>
      <trkpt lat="45.245858" lon="7.12032">
        <time>2023-04-26T11:52:08+00:00</time>
        <ele>3241.0</ele>
      </trkpt>
      <trkpt lat="45.245876" lon="7.120261">
        <time>2023-04-26T11:52:10+00:00</time>
        <ele>3240.0</ele>
      </trkpt>
      <trkpt lat="45.245894" lon="7.120226">
        <time>2023-04-26T11:52:11+00:00</time>
        <ele>3240.0</ele>
      </trkpt>
      <trkpt lat="45.245956" lon="7.120241">
        <time>2023-04-26T11:52:13+00:00</time>
        <ele>3237.0</ele>
      </trkpt>
      <trkpt lat="45.246006" lon="7.120392">
        <time>2023-04-26T11:52:17+00:00</time>
        <ele>3235.0</ele>
      </trkpt>
      <trkpt lat="45.246021" lon="7.120419">
        <time>2023-04-26T11:52:18+00:00</time>
        <ele>3235.0</ele>
      </trkpt>
      <trkpt lat="45.246052" lon="7.12043">
        <time>2023-04-26T11:52:19+00:00</time>
        <ele>3234.0</ele>
      </trkpt>
      <trkpt lat="45.246082" lon="7.120372">
        <time>2023-04-26T11:52:21+00:00</time>
        <ele>3233.0</ele>
      </trkpt>
      <trkpt lat="45.246145" lon="7.120378">
        <time>2023-04-26T11:52:23+00:00</time>
        <ele>3230.0</ele>
      </trkpt>
      <trkpt lat="45.246192" lon="7.120491">
        <time>2023-04-26T11:52:25+00:00</time>
        <ele>3229.0</ele>
      </trkpt>
      <trkpt lat="45.2462" lon="7.120525">
        <time>2023-04-26T11:52:26+00:00</time>
        <ele>3228.0</ele>
      </trkpt>
      <trkpt lat="45.246222" lon="7.120538">
        <time>2023-04-26T11:52:47+00:00</time>
        <ele>3227.0</ele>
      </trkpt>
      <trkpt lat="45.246276" lon="7.120651">
        <time>2023-04-26T11:52:51+00:00</time>
        <ele>3226.0</ele>
      </trkpt>
      <trkpt lat="45.246329" lon="7.120669">
        <time>2023-04-26T11:52:53+00:00</time>
        <ele>3224.0</ele>
      </trkpt>
      <trkpt lat="45.24637" lon="7.120642">
        <time>2023-04-26T11:52:54+00:00</time>
        <ele>3222.0</ele>
      </trkpt>
      <trkpt lat="45.246388" lon="7.120595">
        <time>2023-04-26T11:52:55+00:00</time>
        <ele>3221.0</ele>
      </trkpt>
      <trkpt lat="45.246392" lon="7.120547">
        <time>2023-04-26T11:52:56+00:00</time>
        <ele>3221.0</ele>
      </trkpt>
      <trkpt lat="45.246432" lon="7.120518">
        <time>2023-04-26T11:52:58+00:00</time>
        <ele>3220.0</ele>
      </trkpt>
      <trkpt lat="45.246469" lon="7.120556">
        <time>2023-04-26T11:52:59+00:00</time>
        <ele>3219.0</ele>
      </trkpt>
      <trkpt lat="45.2465" lon="7.120664">
        <time>2023-04-26T11:53:01+00:00</time>
        <ele>3217.0</ele>
      </trkpt>
      <trkpt lat="45.246509" lon="7.120753">
        <time>2023-04-26T11:53:03+00:00</time>
        <ele>3217.0</ele>
      </trkpt>
      <trkpt lat="45.246494" lon="7.120768">
        <time>2023-04-26T11:54:45+00:00</time>
        <ele>3217.0</ele>
      </trkpt>
      <trkpt lat="45.246539" lon="7.120894">
        <time>2023-04-26T11:54:53+00:00</time>
        <ele>3216.0</ele>
      </trkpt>
      <trkpt lat="45.246583" lon="7.120885">
        <time>2023-04-26T11:54:55+00:00</time>
        <ele>3214.0</ele>
      </trkpt>
      <trkpt lat="45.246609" lon="7.12085">
        <time>2023-04-26T11:54:56+00:00</time>
        <ele>3213.0</ele>
      </trkpt>
      <trkpt lat="45.246665" lon="7.120929">
        <time>2023-04-26T11:54:58+00:00</time>
        <ele>3211.0</ele>
      </trkpt>
      <trkpt lat="45.246673" lon="7.121014">
        <time>2023-04-26T11:55:01+00:00</time>
        <ele>3210.0</ele>
      </trkpt>
      <trkpt lat="45.246704" lon="7.121028">
        <time>2023-04-26T11:55:03+00:00</time>
        <ele>3209.0</ele>
      </trkpt>
      <trkpt lat="45.246742" lon="7.121031">
        <time>2023-04-26T11:55:04+00:00</time>
        <ele>3208.0</ele>
      </trkpt>
      <trkpt lat="45.24678" lon="7.12106">
        <time>2023-04-26T11:55:05+00:00</time>
        <ele>3206.0</ele>
      </trkpt>
      <trkpt lat="45.246821" lon="7.121137">
        <time>2023-04-26T11:55:08+00:00</time>
        <ele>3204.0</ele>
      </trkpt>
      <trkpt lat="45.246887" lon="7.12113">
        <time>2023-04-26T11:55:10+00:00</time>
        <ele>3202.0</ele>
      </trkpt>
      <trkpt lat="45.246941" lon="7.121263">
        <time>2023-04-26T11:55:13+00:00</time>
        <ele>3199.0</ele>
      </trkpt>
      <trkpt lat="45.246998" lon="7.121256">
        <time>2023-04-26T11:55:15+00:00</time>
        <ele>3197.0</ele>
      </trkpt>
      <trkpt lat="45.247027" lon="7.121288">
        <time>2023-04-26T11:55:16+00:00</time>
        <ele>3196.0</ele>
      </trkpt>
      <trkpt lat="45.247041" lon="7.121375">
        <time>2023-04-26T11:55:18+00:00</time>
        <ele>3194.0</ele>
      </trkpt>
      <trkpt lat="45.247093" lon="7.121379">
        <time>2023-04-26T11:55:20+00:00</time>
        <ele>3191.0</ele>
      </trkpt>
      <trkpt lat="45.247134" lon="7.121384">
        <time>2023-04-26T11:55:34+00:00</time>
        <ele>3189.0</ele>
      </trkpt>
      <trkpt lat="45.24714" lon="7.121416">
        <time>2023-04-26T11:55:35+00:00</time>
        <ele>3189.0</ele>
      </trkpt>
      <trkpt lat="45.247129" lon="7.121487">
        <time>2023-04-26T11:55:38+00:00</time>
        <ele>3188.0</ele>
      </trkpt>
      <trkpt lat="45.247139" lon="7.121627">
        <time>2023-04-26T11:55:42+00:00</time>
        <ele>3186.0</ele>
      </trkpt>
      <trkpt lat="45.247122" lon="7.121708">
        <time>2023-04-26T11:55:44+00:00</time>
        <ele>3186.0</ele>
      </trkpt>
      <trkpt lat="45.247116" lon="7.12198">
        <time>2023-04-26T11:55:50+00:00</time>
        <ele>3182.0</ele>
      </trkpt>
      <trkpt lat="45.247134" lon="7.122241">
        <time>2023-04-26T11:55:55+00:00</time>
        <ele>3177.0</ele>
      </trkpt>
      <trkpt lat="45.247128" lon="7.122276">
        <time>2023-04-26T11:55:56+00:00</time>
        <ele>3177.0</ele>
      </trkpt>
      <trkpt lat="45.247141" lon="7.122385">
        <time>2023-04-26T11:56:10+00:00</time>
        <ele>3174.0</ele>
      </trkpt>
      <trkpt lat="45.247138" lon="7.122541">
        <time>2023-04-26T11:56:14+00:00</time>
        <ele>3171.0</ele>
      </trkpt>
      <trkpt lat="45.247133" lon="7.122571">
        <time>2023-04-26T11:56:15+00:00</time>
        <ele>3171.0</ele>
      </trkpt>
      <trkpt lat="45.247151" lon="7.122654">
        <time>2023-04-26T11:56:20+00:00</time>
        <ele>3168.0</ele>
      </trkpt>
      <trkpt lat="45.247171" lon="7.122691">
        <time>2023-04-26T11:56:24+00:00</time>
        <ele>3166.0</ele>
      </trkpt>
      <trkpt lat="45.247206" lon="7.122729">
        <time>2023-04-26T11:56:26+00:00</time>
        <ele>3163.0</ele>
      </trkpt>
      <trkpt lat="45.247208" lon="7.12282">
        <time>2023-04-26T11:56:28+00:00</time>
        <ele>3161.0</ele>
      </trkpt>
      <trkpt lat="45.247259" lon="7.122782">
        <time>2023-04-26T11:56:31+00:00</time>
        <ele>3158.0</ele>
      </trkpt>
      <trkpt lat="45.247291" lon="7.122804">
        <time>2023-04-26T11:56:33+00:00</time>
        <ele>3155.0</ele>
      </trkpt>
      <trkpt lat="45.247369" lon="7.122776">
        <time>2023-04-26T11:56:48+00:00</time>
        <ele>3151.0</ele>
      </trkpt>
      <trkpt lat="45.247397" lon="7.122732">
        <time>2023-04-26T11:56:50+00:00</time>
        <ele>3150.0</ele>
      </trkpt>
      <trkpt lat="45.24744" lon="7.122851">
        <time>2023-04-26T11:56:53+00:00</time>
        <ele>3146.0</ele>
      </trkpt>
      <trkpt lat="45.247505" lon="7.122814">
        <time>2023-04-26T11:56:55+00:00</time>
        <ele>3143.0</ele>
      </trkpt>
      <trkpt lat="45.247533" lon="7.122762">
        <time>2023-04-26T11:56:56+00:00</time>
        <ele>3143.0</ele>
      </trkpt>
      <trkpt lat="45.247645" lon="7.122626">
        <time>2023-04-26T11:57:00+00:00</time>
        <ele>3141.0</ele>
      </trkpt>
      <trkpt lat="45.247676" lon="7.122601">
        <time>2023-04-26T11:57:01+00:00</time>
        <ele>3141.0</ele>
      </trkpt>
      <trkpt lat="45.247745" lon="7.122616">
        <time>2023-04-26T11:57:03+00:00</time>
        <ele>3139.0</ele>
      </trkpt>
      <trkpt lat="45.247829" lon="7.122704">
        <time>2023-04-26T11:57:05+00:00</time>
        <ele>3137.0</ele>
      </trkpt>
      <trkpt lat="45.247875" lon="7.122702">
        <time>2023-04-26T11:57:06+00:00</time>
        <ele>3136.0</ele>
      </trkpt>
      <trkpt lat="45.247995" lon="7.122609">
        <time>2023-04-26T11:57:09+00:00</time>
        <ele>3134.0</ele>
      </trkpt>
      <trkpt lat="45.248041" lon="7.122599">
        <time>2023-04-26T11:57:10+00:00</time>
        <ele>3134.0</ele>
      </trkpt>
      <trkpt lat="45.248089" lon="7.122622">
        <time>2023-04-26T11:57:11+00:00</time>
        <ele>3133.0</ele>
      </trkpt>
      <trkpt lat="45.248097" lon="7.12274">
        <time>2023-04-26T11:57:13+00:00</time>
        <ele>3132.0</ele>
      </trkpt>
      <trkpt lat="45.248117" lon="7.122781">
        <time>2023-04-26T11:57:14+00:00</time>
        <ele>3131.0</ele>
      </trkpt>
      <trkpt lat="45.248153" lon="7.122764">
        <time>2023-04-26T11:57:15+00:00</time>
        <ele>3130.0</ele>
      </trkpt>
      <trkpt lat="45.248263" lon="7.122661">
        <time>2023-04-26T11:57:18+00:00</time>
        <ele>3129.0</ele>
      </trkpt>
      <trkpt lat="45.24831" lon="7.122639">
        <time>2023-04-26T11:57:19+00:00</time>
        <ele>3128.0</ele>
      </trkpt>
      <trkpt lat="45.248362" lon="7.122637">
        <time>2023-04-26T11:57:20+00:00</time>
        <ele>3127.0</ele>
      </trkpt>
      <trkpt lat="45.248417" lon="7.122661">
        <time>2023-04-26T11:57:21+00:00</time>
        <ele>3126.0</ele>
      </trkpt>
      <trkpt lat="45.248517" lon="7.122959">
        <time>2023-04-26T11:57:26+00:00</time>
        <ele>3125.0</ele>
      </trkpt>
      <trkpt lat="45.248553" lon="7.123028">
        <time>2023-04-26T11:57:28+00:00</time>
        <ele>3124.0</ele>
      </trkpt>
      <trkpt lat="45.248581" lon="7.123028">
        <time>2023-04-26T11:57:29+00:00</time>
        <ele>3124.0</ele>
      </trkpt>
      <trkpt lat="45.248637" lon="7.122996">
        <time>2023-04-26T11:57:31+00:00</time>
        <ele>3124.0</ele>
      </trkpt>
      <trkpt lat="45.248692" lon="7.122934">
        <time>2023-04-26T11:57:33+00:00</time>
        <ele>3123.0</ele>
      </trkpt>
      <trkpt lat="45.248737" lon="7.122788">
        <time>2023-04-26T11:57:36+00:00</time>
        <ele>3122.0</ele>
      </trkpt>
      <trkpt lat="45.248775" lon="7.122698">
        <time>2023-04-26T11:57:38+00:00</time>
        <ele>3121.0</ele>
      </trkpt>
      <trkpt lat="45.248807" lon="7.12266">
        <time>2023-04-26T11:57:39+00:00</time>
        <ele>3121.0</ele>
      </trkpt>
      <trkpt lat="45.24885" lon="7.122637">
        <time>2023-04-26T11:57:40+00:00</time>
        <ele>3120.0</ele>
      </trkpt>
      <trkpt lat="45.248971" lon="7.122672">
        <time>2023-04-26T11:57:43+00:00</time>
        <ele>3118.0</ele>
      </trkpt>
      <trkpt lat="45.249277" lon="7.122923">
        <time>2023-04-26T11:57:51+00:00</time>
        <ele>3114.0</ele>
      </trkpt>
      <trkpt lat="45.249382" lon="7.123057">
        <time>2023-04-26T11:57:54+00:00</time>
        <ele>3112.0</ele>
      </trkpt>
      <trkpt lat="45.249436" lon="7.123178">
        <time>2023-04-26T11:57:58+00:00</time>
        <ele>3112.0</ele>
      </trkpt>
      <trkpt lat="45.249481" lon="7.123137">
        <time>2023-04-26T11:58:13+00:00</time>
        <ele>3111.0</ele>
      </trkpt>
      <trkpt lat="45.249497" lon="7.123099">
        <time>2023-04-26T11:58:14+00:00</time>
        <ele>3110.0</ele>
      </trkpt>
      <trkpt lat="45.249509" lon="7.123053">
        <time>2023-04-26T11:58:15+00:00</time>
        <ele>3110.0</ele>
      </trkpt>
      <trkpt lat="45.2495" lon="7.122807">
        <time>2023-04-26T11:58:21+00:00</time>
        <ele>3109.0</ele>
      </trkpt>
      <trkpt lat="45.249484" lon="7.12272">
        <time>2023-04-26T11:58:25+00:00</time>
        <ele>3109.0</ele>
      </trkpt>
      <trkpt lat="45.249479" lon="7.122689">
        <time>2023-04-26T11:58:27+00:00</time>
        <ele>3109.0</ele>
      </trkpt>
      <trkpt lat="45.249594" lon="7.122713">
        <time>2023-04-26T11:58:36+00:00</time>
        <ele>3107.0</ele>
      </trkpt>
      <trkpt lat="45.249659" lon="7.122759">
        <time>2023-04-26T11:58:38+00:00</time>
        <ele>3106.0</ele>
      </trkpt>
      <trkpt lat="45.249927" lon="7.123081">
        <time>2023-04-26T11:58:48+00:00</time>
        <ele>3102.0</ele>
      </trkpt>
      <trkpt lat="45.249952" lon="7.123129">
        <time>2023-04-26T11:58:50+00:00</time>
        <ele>3101.0</ele>
      </trkpt>
      <trkpt lat="45.249963" lon="7.123106">
        <time>2023-04-26T11:59:00+00:00</time>
        <ele>3101.0</ele>
      </trkpt>
      <trkpt lat="45.249932" lon="7.122635">
        <time>2023-04-26T11:59:13+00:00</time>
        <ele>3098.0</ele>
      </trkpt>
      <trkpt lat="45.250222" lon="7.122871">
        <time>2023-04-26T11:59:32+00:00</time>
        <ele>3093.0</ele>
      </trkpt>
      <trkpt lat="45.250268" lon="7.122927">
        <time>2023-04-26T11:59:34+00:00</time>
        <ele>3092.0</ele>
      </trkpt>
      <trkpt lat="45.250281" lon="7.122954">
        <time>2023-04-26T11:59:36+00:00</time>
        <ele>3092.0</ele>
      </trkpt>
      <trkpt lat="45.250309" lon="7.122945">
        <time>2023-04-26T11:59:41+00:00</time>
        <ele>3091.0</ele>
      </trkpt>
      <trkpt lat="45.250307" lon="7.122844">
        <time>2023-04-26T11:59:44+00:00</time>
        <ele>3090.0</ele>
      </trkpt>
      <trkpt lat="45.250282" lon="7.122743">
        <time>2023-04-26T11:59:47+00:00</time>
        <ele>3090.0</ele>
      </trkpt>
      <trkpt lat="45.25026" lon="7.122695">
        <time>2023-04-26T11:59:49+00:00</time>
        <ele>3090.0</ele>
      </trkpt>
      <trkpt lat="45.250331" lon="7.122701">
        <time>2023-04-26T12:00:01+00:00</time>
        <ele>3088.0</ele>
      </trkpt>
      <trkpt lat="45.250364" lon="7.122717">
        <time>2023-04-26T12:00:02+00:00</time>
        <ele>3087.0</ele>
      </trkpt>
      <trkpt lat="45.250714" lon="7.123042">
        <time>2023-04-26T12:00:16+00:00</time>
        <ele>3082.0</ele>
      </trkpt>
      <trkpt lat="45.250767" lon="7.123119">
        <time>2023-04-26T12:00:19+00:00</time>
        <ele>3081.0</ele>
      </trkpt>
      <trkpt lat="45.250785" lon="7.123157">
        <time>2023-04-26T12:00:21+00:00</time>
        <ele>3081.0</ele>
      </trkpt>
      <trkpt lat="45.25081" lon="7.12309">
        <time>2023-04-26T12:00:34+00:00</time>
        <ele>3080.0</ele>
      </trkpt>
      <trkpt lat="45.250715" lon="7.122766">
        <time>2023-04-26T12:00:43+00:00</time>
        <ele>3078.0</ele>
      </trkpt>
      <trkpt lat="45.250695" lon="7.122733">
        <time>2023-04-26T12:00:45+00:00</time>
        <ele>3078.0</ele>
      </trkpt>
      <trkpt lat="45.250718" lon="7.122723">
        <time>2023-04-26T12:00:52+00:00</time>
        <ele>3077.0</ele>
      </trkpt>
      <trkpt lat="45.250804" lon="7.122744">
        <time>2023-04-26T12:00:55+00:00</time>
        <ele>3075.0</ele>
      </trkpt>
      <trkpt lat="45.250906" lon="7.122815">
        <time>2023-04-26T12:00:59+00:00</time>
        <ele>3072.0</ele>
      </trkpt>
      <trkpt lat="45.250932" lon="7.122779">
        <time>2023-04-26T12:01:07+00:00</time>
        <ele>3071.0</ele>
      </trkpt>
      <trkpt lat="45.250881" lon="7.12268">
        <time>2023-04-26T12:01:11+00:00</time>
        <ele>3071.0</ele>
      </trkpt>
      <trkpt lat="45.250888" lon="7.122642">
        <time>2023-04-26T12:01:12+00:00</time>
        <ele>3070.0</ele>
      </trkpt>
      <trkpt lat="45.251003" lon="7.122636">
        <time>2023-04-26T12:01:15+00:00</time>
        <ele>3066.0</ele>
      </trkpt>
      <trkpt lat="45.251034" lon="7.122651">
        <time>2023-04-26T12:01:16+00:00</time>
        <ele>3065.0</ele>
      </trkpt>
      <trkpt lat="45.251087" lon="7.122717">
        <time>2023-04-26T12:01:19+00:00</time>
        <ele>3064.0</ele>
      </trkpt>
      <trkpt lat="45.251103" lon="7.122742">
        <time>2023-04-26T12:01:21+00:00</time>
        <ele>3064.0</ele>
      </trkpt>
      <trkpt lat="45.25111" lon="7.122685">
        <time>2023-04-26T12:01:34+00:00</time>
        <ele>3063.0</ele>
      </trkpt>
      <trkpt lat="45.251088" lon="7.122637">
        <time>2023-04-26T12:01:36+00:00</time>
        <ele>3063.0</ele>
      </trkpt>
      <trkpt lat="45.251092" lon="7.122577">
        <time>2023-04-26T12:01:38+00:00</time>
        <ele>3062.0</ele>
      </trkpt>
      <trkpt lat="45.251128" lon="7.122563">
        <time>2023-04-26T12:01:39+00:00</time>
        <ele>3060.0</ele>
      </trkpt>
      <trkpt lat="45.251153" lon="7.122587">
        <time>2023-04-26T12:01:40+00:00</time>
        <ele>3060.0</ele>
      </trkpt>
      <trkpt lat="45.251199" lon="7.122612">
        <time>2023-04-26T12:01:42+00:00</time>
        <ele>3058.0</ele>
      </trkpt>
      <trkpt lat="45.251226" lon="7.122542">
        <time>2023-04-26T12:01:44+00:00</time>
        <ele>3056.0</ele>
      </trkpt>
      <trkpt lat="45.251197" lon="7.122473">
        <time>2023-04-26T12:01:46+00:00</time>
        <ele>3056.0</ele>
      </trkpt>
      <trkpt lat="45.251212" lon="7.122344">
        <time>2023-04-26T12:01:49+00:00</time>
        <ele>3053.0</ele>
      </trkpt>
      <trkpt lat="45.251248" lon="7.122365">
        <time>2023-04-26T12:01:50+00:00</time>
        <ele>3052.0</ele>
      </trkpt>
      <trkpt lat="45.251283" lon="7.122419">
        <time>2023-04-26T12:01:51+00:00</time>
        <ele>3052.0</ele>
      </trkpt>
      <trkpt lat="45.251327" lon="7.122497">
        <time>2023-04-26T12:01:54+00:00</time>
        <ele>3052.0</ele>
      </trkpt>
      <trkpt lat="45.25136" lon="7.122467">
        <time>2023-04-26T12:01:59+00:00</time>
        <ele>3050.0</ele>
      </trkpt>
      <trkpt lat="45.251374" lon="7.122438">
        <time>2023-04-26T12:02:00+00:00</time>
        <ele>3049.0</ele>
      </trkpt>
      <trkpt lat="45.251365" lon="7.122359">
        <time>2023-04-26T12:02:02+00:00</time>
        <ele>3048.0</ele>
      </trkpt>
      <trkpt lat="45.251337" lon="7.122215">
        <time>2023-04-26T12:02:05+00:00</time>
        <ele>3046.0</ele>
      </trkpt>
      <trkpt lat="45.251322" lon="7.12218">
        <time>2023-04-26T12:02:06+00:00</time>
        <ele>3046.0</ele>
      </trkpt>
      <trkpt lat="45.251316" lon="7.122092">
        <time>2023-04-26T12:02:09+00:00</time>
        <ele>3045.0</ele>
      </trkpt>
      <trkpt lat="45.251333" lon="7.122054">
        <time>2023-04-26T12:02:10+00:00</time>
        <ele>3043.0</ele>
      </trkpt>
      <trkpt lat="45.251369" lon="7.122042">
        <time>2023-04-26T12:02:11+00:00</time>
        <ele>3042.0</ele>
      </trkpt>
      <trkpt lat="45.251446" lon="7.122104">
        <time>2023-04-26T12:02:14+00:00</time>
        <ele>3041.0</ele>
      </trkpt>
      <trkpt lat="45.25147" lon="7.122093">
        <time>2023-04-26T12:02:15+00:00</time>
        <ele>3040.0</ele>
      </trkpt>
      <trkpt lat="45.251498" lon="7.122054">
        <time>2023-04-26T12:02:16+00:00</time>
        <ele>3039.0</ele>
      </trkpt>
      <trkpt lat="45.251507" lon="7.122005">
        <time>2023-04-26T12:02:17+00:00</time>
        <ele>3038.0</ele>
      </trkpt>
      <trkpt lat="45.251468" lon="7.121756">
        <time>2023-04-26T12:02:22+00:00</time>
        <ele>3036.0</ele>
      </trkpt>
      <trkpt lat="45.251473" lon="7.121652">
        <time>2023-04-26T12:02:24+00:00</time>
        <ele>3034.0</ele>
      </trkpt>
      <trkpt lat="45.251465" lon="7.121559">
        <time>2023-04-26T12:02:26+00:00</time>
        <ele>3034.0</ele>
      </trkpt>
      <trkpt lat="45.251447" lon="7.121498">
        <time>2023-04-26T12:02:29+00:00</time>
        <ele>3034.0</ele>
      </trkpt>
      <trkpt lat="45.251476" lon="7.121462">
        <time>2023-04-26T12:02:40+00:00</time>
        <ele>3033.0</ele>
      </trkpt>
      <trkpt lat="45.251508" lon="7.121449">
        <time>2023-04-26T12:02:41+00:00</time>
        <ele>3032.0</ele>
      </trkpt>
      <trkpt lat="45.251558" lon="7.121452">
        <time>2023-04-26T12:02:42+00:00</time>
        <ele>3031.0</ele>
      </trkpt>
      <trkpt lat="45.251625" lon="7.121522">
        <time>2023-04-26T12:02:44+00:00</time>
        <ele>3030.0</ele>
      </trkpt>
      <trkpt lat="45.251646" lon="7.121539">
        <time>2023-04-26T12:02:45+00:00</time>
        <ele>3029.0</ele>
      </trkpt>
      <trkpt lat="45.251678" lon="7.121521">
        <time>2023-04-26T12:02:46+00:00</time>
        <ele>3028.0</ele>
      </trkpt>
      <trkpt lat="45.251686" lon="7.121476">
        <time>2023-04-26T12:02:47+00:00</time>
        <ele>3028.0</ele>
      </trkpt>
      <trkpt lat="45.251676" lon="7.121285">
        <time>2023-04-26T12:02:51+00:00</time>
        <ele>3026.0</ele>
      </trkpt>
      <trkpt lat="45.251685" lon="7.121233">
        <time>2023-04-26T12:02:52+00:00</time>
        <ele>3026.0</ele>
      </trkpt>
      <trkpt lat="45.251714" lon="7.121204">
        <time>2023-04-26T12:02:53+00:00</time>
        <ele>3025.0</ele>
      </trkpt>
      <trkpt lat="45.251754" lon="7.121194">
        <time>2023-04-26T12:02:54+00:00</time>
        <ele>3024.0</ele>
      </trkpt>
      <trkpt lat="45.251793" lon="7.121168">
        <time>2023-04-26T12:02:55+00:00</time>
        <ele>3023.0</ele>
      </trkpt>
      <trkpt lat="45.251827" lon="7.121127">
        <time>2023-04-26T12:02:56+00:00</time>
        <ele>3022.0</ele>
      </trkpt>
      <trkpt lat="45.251831" lon="7.121069">
        <time>2023-04-26T12:02:57+00:00</time>
        <ele>3021.0</ele>
      </trkpt>
      <trkpt lat="45.251817" lon="7.120947">
        <time>2023-04-26T12:02:59+00:00</time>
        <ele>3020.0</ele>
      </trkpt>
      <trkpt lat="45.25184" lon="7.120896">
        <time>2023-04-26T12:03:00+00:00</time>
        <ele>3019.0</ele>
      </trkpt>
      <trkpt lat="45.251886" lon="7.120874">
        <time>2023-04-26T12:03:01+00:00</time>
        <ele>3018.0</ele>
      </trkpt>
      <trkpt lat="45.251936" lon="7.12088">
        <time>2023-04-26T12:03:02+00:00</time>
        <ele>3018.0</ele>
      </trkpt>
      <trkpt lat="45.252001" lon="7.120847">
        <time>2023-04-26T12:03:04+00:00</time>
        <ele>3016.0</ele>
      </trkpt>
      <trkpt lat="45.252004" lon="7.120796">
        <time>2023-04-26T12:03:05+00:00</time>
        <ele>3015.0</ele>
      </trkpt>
      <trkpt lat="45.251997" lon="7.12066">
        <time>2023-04-26T12:03:07+00:00</time>
        <ele>3014.0</ele>
      </trkpt>
      <trkpt lat="45.251998" lon="7.120525">
        <time>2023-04-26T12:03:09+00:00</time>
        <ele>3013.0</ele>
      </trkpt>
      <trkpt lat="45.25202" lon="7.120467">
        <time>2023-04-26T12:03:10+00:00</time>
        <ele>3012.0</ele>
      </trkpt>
      <trkpt lat="45.252049" lon="7.120425">
        <time>2023-04-26T12:03:11+00:00</time>
        <ele>3011.0</ele>
      </trkpt>
      <trkpt lat="45.252193" lon="7.120363">
        <time>2023-04-26T12:03:14+00:00</time>
        <ele>3008.0</ele>
      </trkpt>
      <trkpt lat="45.252254" lon="7.119889">
        <time>2023-04-26T12:03:22+00:00</time>
        <ele>3002.0</ele>
      </trkpt>
      <trkpt lat="45.252358" lon="7.119817">
        <time>2023-04-26T12:03:25+00:00</time>
        <ele>3000.0</ele>
      </trkpt>
      <trkpt lat="45.252503" lon="7.119691">
        <time>2023-04-26T12:03:29+00:00</time>
        <ele>2998.0</ele>
      </trkpt>
      <trkpt lat="45.25253" lon="7.119651">
        <time>2023-04-26T12:03:30+00:00</time>
        <ele>2998.0</ele>
      </trkpt>
      <trkpt lat="45.252631" lon="7.119284">
        <time>2023-04-26T12:03:36+00:00</time>
        <ele>2993.0</ele>
      </trkpt>
      <trkpt lat="45.252661" lon="7.119232">
        <time>2023-04-26T12:03:37+00:00</time>
        <ele>2993.0</ele>
      </trkpt>
      <trkpt lat="45.252877" lon="7.119072">
        <time>2023-04-26T12:03:42+00:00</time>
        <ele>2989.0</ele>
      </trkpt>
      <trkpt lat="45.252953" lon="7.119001">
        <time>2023-04-26T12:03:44+00:00</time>
        <ele>2989.0</ele>
      </trkpt>
      <trkpt lat="45.252979" lon="7.118954">
        <time>2023-04-26T12:03:45+00:00</time>
        <ele>2988.0</ele>
      </trkpt>
      <trkpt lat="45.253035" lon="7.118707">
        <time>2023-04-26T12:03:49+00:00</time>
        <ele>2986.0</ele>
      </trkpt>
      <trkpt lat="45.253057" lon="7.118641">
        <time>2023-04-26T12:03:50+00:00</time>
        <ele>2985.0</ele>
      </trkpt>
      <trkpt lat="45.253092" lon="7.118593">
        <time>2023-04-26T12:03:51+00:00</time>
        <ele>2984.0</ele>
      </trkpt>
      <trkpt lat="45.253312" lon="7.11844">
        <time>2023-04-26T12:03:56+00:00</time>
        <ele>2982.0</ele>
      </trkpt>
      <trkpt lat="45.253382" lon="7.1182">
        <time>2023-04-26T12:04:00+00:00</time>
        <ele>2979.0</ele>
      </trkpt>
      <trkpt lat="45.253421" lon="7.118176">
        <time>2023-04-26T12:04:01+00:00</time>
        <ele>2979.0</ele>
      </trkpt>
      <trkpt lat="45.253464" lon="7.118171">
        <time>2023-04-26T12:04:02+00:00</time>
        <ele>2978.0</ele>
      </trkpt>
      <trkpt lat="45.253541" lon="7.118112">
        <time>2023-04-26T12:04:04+00:00</time>
        <ele>2977.0</ele>
      </trkpt>
      <trkpt lat="45.253559" lon="7.117969">
        <time>2023-04-26T12:04:06+00:00</time>
        <ele>2975.0</ele>
      </trkpt>
      <trkpt lat="45.25358" lon="7.117909">
        <time>2023-04-26T12:04:07+00:00</time>
        <ele>2975.0</ele>
      </trkpt>
      <trkpt lat="45.253658" lon="7.117883">
        <time>2023-04-26T12:04:09+00:00</time>
        <ele>2974.0</ele>
      </trkpt>
      <trkpt lat="45.253675" lon="7.117907">
        <time>2023-04-26T12:04:12+00:00</time>
        <ele>2974.0</ele>
      </trkpt>
      <trkpt lat="45.253701" lon="7.117891">
        <time>2023-04-26T12:04:24+00:00</time>
        <ele>2974.0</ele>
      </trkpt>
      <trkpt lat="45.253734" lon="7.117803">
        <time>2023-04-26T12:04:27+00:00</time>
        <ele>2973.0</ele>
      </trkpt>
      <trkpt lat="45.253737" lon="7.11766">
        <time>2023-04-26T12:04:30+00:00</time>
        <ele>2971.0</ele>
      </trkpt>
      <trkpt lat="45.253769" lon="7.11755">
        <time>2023-04-26T12:04:32+00:00</time>
        <ele>2970.0</ele>
      </trkpt>
      <trkpt lat="45.253854" lon="7.11751">
        <time>2023-04-26T12:04:34+00:00</time>
        <ele>2968.0</ele>
      </trkpt>
      <trkpt lat="45.253947" lon="7.11752">
        <time>2023-04-26T12:04:36+00:00</time>
        <ele>2967.0</ele>
      </trkpt>
      <trkpt lat="45.253972" lon="7.117483">
        <time>2023-04-26T12:04:37+00:00</time>
        <ele>2966.0</ele>
      </trkpt>
      <trkpt lat="45.253981" lon="7.117376">
        <time>2023-04-26T12:04:39+00:00</time>
        <ele>2965.0</ele>
      </trkpt>
      <trkpt lat="45.253999" lon="7.117321">
        <time>2023-04-26T12:04:40+00:00</time>
        <ele>2964.0</ele>
      </trkpt>
      <trkpt lat="45.254034" lon="7.117302">
        <time>2023-04-26T12:04:41+00:00</time>
        <ele>2964.0</ele>
      </trkpt>
      <trkpt lat="45.254064" lon="7.117301">
        <time>2023-04-26T12:04:42+00:00</time>
        <ele>2963.0</ele>
      </trkpt>
      <trkpt lat="45.254105" lon="7.117304">
        <time>2023-04-26T12:04:43+00:00</time>
        <ele>2963.0</ele>
      </trkpt>
      <trkpt lat="45.254147" lon="7.117279">
        <time>2023-04-26T12:04:44+00:00</time>
        <ele>2962.0</ele>
      </trkpt>
      <trkpt lat="45.254159" lon="7.117226">
        <time>2023-04-26T12:04:45+00:00</time>
        <ele>2961.0</ele>
      </trkpt>
      <trkpt lat="45.254114" lon="7.117024">
        <time>2023-04-26T12:04:49+00:00</time>
        <ele>2960.0</ele>
      </trkpt>
      <trkpt lat="45.254113" lon="7.116963">
        <time>2023-04-26T12:04:50+00:00</time>
        <ele>2960.0</ele>
      </trkpt>
      <trkpt lat="45.254144" lon="7.116918">
        <time>2023-04-26T12:04:51+00:00</time>
        <ele>2959.0</ele>
      </trkpt>
      <trkpt lat="45.254185" lon="7.116923">
        <time>2023-04-26T12:04:52+00:00</time>
        <ele>2959.0</ele>
      </trkpt>
      <trkpt lat="45.254273" lon="7.116885">
        <time>2023-04-26T12:04:54+00:00</time>
        <ele>2957.0</ele>
      </trkpt>
      <trkpt lat="45.254283" lon="7.116832">
        <time>2023-04-26T12:04:55+00:00</time>
        <ele>2956.0</ele>
      </trkpt>
      <trkpt lat="45.254263" lon="7.116769">
        <time>2023-04-26T12:04:56+00:00</time>
        <ele>2956.0</ele>
      </trkpt>
      <trkpt lat="45.254231" lon="7.116671">
        <time>2023-04-26T12:04:58+00:00</time>
        <ele>2955.0</ele>
      </trkpt>
      <trkpt lat="45.254241" lon="7.116614">
        <time>2023-04-26T12:04:59+00:00</time>
        <ele>2954.0</ele>
      </trkpt>
      <trkpt lat="45.254267" lon="7.116594">
        <time>2023-04-26T12:05:00+00:00</time>
        <ele>2954.0</ele>
      </trkpt>
      <trkpt lat="45.254325" lon="7.116602">
        <time>2023-04-26T12:05:02+00:00</time>
        <ele>2953.0</ele>
      </trkpt>
      <trkpt lat="45.254354" lon="7.116571">
        <time>2023-04-26T12:05:03+00:00</time>
        <ele>2952.0</ele>
      </trkpt>
      <trkpt lat="45.254369" lon="7.116523">
        <time>2023-04-26T12:05:04+00:00</time>
        <ele>2951.0</ele>
      </trkpt>
      <trkpt lat="45.254354" lon="7.116306">
        <time>2023-04-26T12:05:09+00:00</time>
        <ele>2949.0</ele>
      </trkpt>
      <trkpt lat="45.254374" lon="7.116243">
        <time>2023-04-26T12:05:10+00:00</time>
        <ele>2948.0</ele>
      </trkpt>
      <trkpt lat="45.254399" lon="7.116219">
        <time>2023-04-26T12:05:11+00:00</time>
        <ele>2947.0</ele>
      </trkpt>
      <trkpt lat="45.254396" lon="7.116201">
        <time>2023-04-26T12:10:49+00:00</time>
        <ele>2947.0</ele>
      </trkpt>
      <trkpt lat="45.254378" lon="7.116194">
        <time>2023-04-26T12:19:30+00:00</time>
        <ele>2947.0</ele>
      </trkpt>
      <trkpt lat="45.254388" lon="7.116228">
        <time>2023-04-26T12:20:26+00:00</time>
        <ele>2947.0</ele>
      </trkpt>
      <trkpt lat="45.254417" lon="7.116262">
        <time>2023-04-26T12:21:44+00:00</time>
        <ele>2947.0</ele>
      </trkpt>
      <trkpt lat="45.254465" lon="7.116425">
        <time>2023-04-26T12:21:48+00:00</time>
        <ele>2948.0</ele>
      </trkpt>
      <trkpt lat="45.254481" lon="7.116463">
        <time>2023-04-26T12:21:49+00:00</time>
        <ele>2948.0</ele>
      </trkpt>
      <trkpt lat="45.254503" lon="7.116495">
        <time>2023-04-26T12:21:50+00:00</time>
        <ele>2948.0</ele>
      </trkpt>
      <trkpt lat="45.254581" lon="7.116504">
        <time>2023-04-26T12:21:52+00:00</time>
        <ele>2947.0</ele>
      </trkpt>
      <trkpt lat="45.254613" lon="7.116397">
        <time>2023-04-26T12:21:54+00:00</time>
        <ele>2945.0</ele>
      </trkpt>
      <trkpt lat="45.254635" lon="7.116345">
        <time>2023-04-26T12:21:55+00:00</time>
        <ele>2944.0</ele>
      </trkpt>
      <trkpt lat="45.254678" lon="7.116324">
        <time>2023-04-26T12:21:56+00:00</time>
        <ele>2943.0</ele>
      </trkpt>
      <trkpt lat="45.254719" lon="7.116368">
        <time>2023-04-26T12:21:57+00:00</time>
        <ele>2942.0</ele>
      </trkpt>
      <trkpt lat="45.254796" lon="7.116419">
        <time>2023-04-26T12:21:59+00:00</time>
        <ele>2940.0</ele>
      </trkpt>
      <trkpt lat="45.254825" lon="7.116392">
        <time>2023-04-26T12:22:00+00:00</time>
        <ele>2939.0</ele>
      </trkpt>
      <trkpt lat="45.254843" lon="7.116295">
        <time>2023-04-26T12:22:02+00:00</time>
        <ele>2938.0</ele>
      </trkpt>
      <trkpt lat="45.254906" lon="7.11624">
        <time>2023-04-26T12:22:04+00:00</time>
        <ele>2935.0</ele>
      </trkpt>
      <trkpt lat="45.25494" lon="7.116266">
        <time>2023-04-26T12:22:05+00:00</time>
        <ele>2934.0</ele>
      </trkpt>
      <trkpt lat="45.254981" lon="7.11627">
        <time>2023-04-26T12:22:06+00:00</time>
        <ele>2933.0</ele>
      </trkpt>
      <trkpt lat="45.255022" lon="7.116242">
        <time>2023-04-26T12:22:07+00:00</time>
        <ele>2931.0</ele>
      </trkpt>
      <trkpt lat="45.255051" lon="7.116191">
        <time>2023-04-26T12:22:08+00:00</time>
        <ele>2930.0</ele>
      </trkpt>
      <trkpt lat="45.255084" lon="7.116157">
        <time>2023-04-26T12:22:09+00:00</time>
        <ele>2928.0</ele>
      </trkpt>
      <trkpt lat="45.255155" lon="7.116195">
        <time>2023-04-26T12:22:11+00:00</time>
        <ele>2927.0</ele>
      </trkpt>
      <trkpt lat="45.255184" lon="7.116165">
        <time>2023-04-26T12:22:12+00:00</time>
        <ele>2925.0</ele>
      </trkpt>
      <trkpt lat="45.255247" lon="7.11608">
        <time>2023-04-26T12:22:14+00:00</time>
        <ele>2922.0</ele>
      </trkpt>
      <trkpt lat="45.255304" lon="7.116079">
        <time>2023-04-26T12:22:15+00:00</time>
        <ele>2921.0</ele>
      </trkpt>
      <trkpt lat="45.25536" lon="7.116072">
        <time>2023-04-26T12:22:16+00:00</time>
        <ele>2919.0</ele>
      </trkpt>
      <trkpt lat="45.255507" lon="7.115948">
        <time>2023-04-26T12:22:19+00:00</time>
        <ele>2914.0</ele>
      </trkpt>
      <trkpt lat="45.255603" lon="7.115885">
        <time>2023-04-26T12:22:21+00:00</time>
        <ele>2912.0</ele>
      </trkpt>
      <trkpt lat="45.256338" lon="7.115637">
        <time>2023-04-26T12:22:42+00:00</time>
        <ele>2904.0</ele>
      </trkpt>
      <trkpt lat="45.256955" lon="7.115324">
        <time>2023-04-26T12:23:00+00:00</time>
        <ele>2898.0</ele>
      </trkpt>
      <trkpt lat="45.257046" lon="7.115309">
        <time>2023-04-26T12:23:02+00:00</time>
        <ele>2897.0</ele>
      </trkpt>
      <trkpt lat="45.25712" lon="7.11523">
        <time>2023-04-26T12:23:04+00:00</time>
        <ele>2896.0</ele>
      </trkpt>
      <trkpt lat="45.257157" lon="7.115202">
        <time>2023-04-26T12:23:05+00:00</time>
        <ele>2895.0</ele>
      </trkpt>
      <trkpt lat="45.25725" lon="7.115186">
        <time>2023-04-26T12:23:07+00:00</time>
        <ele>2894.0</ele>
      </trkpt>
      <trkpt lat="45.25733" lon="7.115106">
        <time>2023-04-26T12:23:09+00:00</time>
        <ele>2893.0</ele>
      </trkpt>
      <trkpt lat="45.257465" lon="7.115067">
        <time>2023-04-26T12:23:12+00:00</time>
        <ele>2891.0</ele>
      </trkpt>
      <trkpt lat="45.257549" lon="7.114977">
        <time>2023-04-26T12:23:14+00:00</time>
        <ele>2889.0</ele>
      </trkpt>
      <trkpt lat="45.257693" lon="7.114956">
        <time>2023-04-26T12:23:17+00:00</time>
        <ele>2887.0</ele>
      </trkpt>
      <trkpt lat="45.25786" lon="7.114857">
        <time>2023-04-26T12:23:21+00:00</time>
        <ele>2884.0</ele>
      </trkpt>
      <trkpt lat="45.257893" lon="7.114806">
        <time>2023-04-26T12:23:22+00:00</time>
        <ele>2883.0</ele>
      </trkpt>
      <trkpt lat="45.257975" lon="7.114749">
        <time>2023-04-26T12:23:24+00:00</time>
        <ele>2882.0</ele>
      </trkpt>
      <trkpt lat="45.258017" lon="7.114725">
        <time>2023-04-26T12:23:25+00:00</time>
        <ele>2881.0</ele>
      </trkpt>
      <trkpt lat="45.258102" lon="7.114645">
        <time>2023-04-26T12:23:27+00:00</time>
        <ele>2879.0</ele>
      </trkpt>
      <trkpt lat="45.258189" lon="7.114621">
        <time>2023-04-26T12:23:29+00:00</time>
        <ele>2877.0</ele>
      </trkpt>
      <trkpt lat="45.258265" lon="7.11456">
        <time>2023-04-26T12:23:31+00:00</time>
        <ele>2876.0</ele>
      </trkpt>
      <trkpt lat="45.258306" lon="7.114555">
        <time>2023-04-26T12:23:32+00:00</time>
        <ele>2876.0</ele>
      </trkpt>
      <trkpt lat="45.258383" lon="7.114514">
        <time>2023-04-26T12:23:34+00:00</time>
        <ele>2874.0</ele>
      </trkpt>
      <trkpt lat="45.25841" lon="7.114466">
        <time>2023-04-26T12:23:35+00:00</time>
        <ele>2874.0</ele>
      </trkpt>
      <trkpt lat="45.258448" lon="7.114419">
        <time>2023-04-26T12:23:36+00:00</time>
        <ele>2873.0</ele>
      </trkpt>
      <trkpt lat="45.25858" lon="7.114388">
        <time>2023-04-26T12:23:39+00:00</time>
        <ele>2871.0</ele>
      </trkpt>
      <trkpt lat="45.258655" lon="7.114293">
        <time>2023-04-26T12:23:41+00:00</time>
        <ele>2869.0</ele>
      </trkpt>
      <trkpt lat="45.258702" lon="7.11427">
        <time>2023-04-26T12:23:42+00:00</time>
        <ele>2868.0</ele>
      </trkpt>
      <trkpt lat="45.258806" lon="7.114274">
        <time>2023-04-26T12:23:44+00:00</time>
        <ele>2867.0</ele>
      </trkpt>
      <trkpt lat="45.258842" lon="7.114246">
        <time>2023-04-26T12:23:45+00:00</time>
        <ele>2866.0</ele>
      </trkpt>
      <trkpt lat="45.258928" lon="7.114126">
        <time>2023-04-26T12:23:47+00:00</time>
        <ele>2864.0</ele>
      </trkpt>
      <trkpt lat="45.259032" lon="7.114094">
        <time>2023-04-26T12:23:49+00:00</time>
        <ele>2862.0</ele>
      </trkpt>
      <trkpt lat="45.259084" lon="7.114081">
        <time>2023-04-26T12:23:50+00:00</time>
        <ele>2861.0</ele>
      </trkpt>
      <trkpt lat="45.259155" lon="7.113989">
        <time>2023-04-26T12:23:52+00:00</time>
        <ele>2859.0</ele>
      </trkpt>
      <trkpt lat="45.259243" lon="7.113941">
        <time>2023-04-26T12:23:54+00:00</time>
        <ele>2857.0</ele>
      </trkpt>
      <trkpt lat="45.259284" lon="7.113919">
        <time>2023-04-26T12:23:55+00:00</time>
        <ele>2857.0</ele>
      </trkpt>
      <trkpt lat="45.259352" lon="7.11382">
        <time>2023-04-26T12:23:57+00:00</time>
        <ele>2855.0</ele>
      </trkpt>
      <trkpt lat="45.259453" lon="7.113807">
        <time>2023-04-26T12:23:59+00:00</time>
        <ele>2854.0</ele>
      </trkpt>
      <trkpt lat="45.259495" lon="7.113776">
        <time>2023-04-26T12:24:00+00:00</time>
        <ele>2853.0</ele>
      </trkpt>
      <trkpt lat="45.259531" lon="7.113719">
        <time>2023-04-26T12:24:01+00:00</time>
        <ele>2852.0</ele>
      </trkpt>
      <trkpt lat="45.25957" lon="7.113666">
        <time>2023-04-26T12:24:02+00:00</time>
        <ele>2851.0</ele>
      </trkpt>
      <trkpt lat="45.25967" lon="7.113669">
        <time>2023-04-26T12:24:04+00:00</time>
        <ele>2850.0</ele>
      </trkpt>
      <trkpt lat="45.259715" lon="7.113637">
        <time>2023-04-26T12:24:05+00:00</time>
        <ele>2849.0</ele>
      </trkpt>
      <trkpt lat="45.259758" lon="7.113598">
        <time>2023-04-26T12:24:06+00:00</time>
        <ele>2848.0</ele>
      </trkpt>
      <trkpt lat="45.259795" lon="7.113547">
        <time>2023-04-26T12:24:07+00:00</time>
        <ele>2846.0</ele>
      </trkpt>
      <trkpt lat="45.260005" lon="7.113487">
        <time>2023-04-26T12:24:11+00:00</time>
        <ele>2843.0</ele>
      </trkpt>
      <trkpt lat="45.260138" lon="7.113431">
        <time>2023-04-26T12:24:14+00:00</time>
        <ele>2841.0</ele>
      </trkpt>
      <trkpt lat="45.260175" lon="7.113393">
        <time>2023-04-26T12:24:15+00:00</time>
        <ele>2840.0</ele>
      </trkpt>
      <trkpt lat="45.260212" lon="7.113333">
        <time>2023-04-26T12:24:16+00:00</time>
        <ele>2839.0</ele>
      </trkpt>
      <trkpt lat="45.260256" lon="7.113299">
        <time>2023-04-26T12:24:17+00:00</time>
        <ele>2838.0</ele>
      </trkpt>
      <trkpt lat="45.260404" lon="7.113285">
        <time>2023-04-26T12:24:20+00:00</time>
        <ele>2835.0</ele>
      </trkpt>
      <trkpt lat="45.260431" lon="7.113223">
        <time>2023-04-26T12:24:21+00:00</time>
        <ele>2834.0</ele>
      </trkpt>
      <trkpt lat="45.260458" lon="7.113149">
        <time>2023-04-26T12:24:22+00:00</time>
        <ele>2833.0</ele>
      </trkpt>
      <trkpt lat="45.260603" lon="7.113099">
        <time>2023-04-26T12:24:25+00:00</time>
        <ele>2831.0</ele>
      </trkpt>
      <trkpt lat="45.260648" lon="7.113071">
        <time>2023-04-26T12:24:26+00:00</time>
        <ele>2831.0</ele>
      </trkpt>
      <trkpt lat="45.260781" lon="7.112943">
        <time>2023-04-26T12:24:29+00:00</time>
        <ele>2828.0</ele>
      </trkpt>
      <trkpt lat="45.260874" lon="7.112925">
        <time>2023-04-26T12:24:31+00:00</time>
        <ele>2827.0</ele>
      </trkpt>
      <trkpt lat="45.260916" lon="7.112899">
        <time>2023-04-26T12:24:32+00:00</time>
        <ele>2826.0</ele>
      </trkpt>
      <trkpt lat="45.260984" lon="7.112813">
        <time>2023-04-26T12:24:34+00:00</time>
        <ele>2825.0</ele>
      </trkpt>
      <trkpt lat="45.261021" lon="7.112773">
        <time>2023-04-26T12:24:35+00:00</time>
        <ele>2824.0</ele>
      </trkpt>
      <trkpt lat="45.261061" lon="7.112782">
        <time>2023-04-26T12:24:36+00:00</time>
        <ele>2823.0</ele>
      </trkpt>
      <trkpt lat="45.261098" lon="7.112822">
        <time>2023-04-26T12:24:37+00:00</time>
        <ele>2823.0</ele>
      </trkpt>
      <trkpt lat="45.261229" lon="7.112835">
        <time>2023-04-26T12:24:40+00:00</time>
        <ele>2821.0</ele>
      </trkpt>
      <trkpt lat="45.261336" lon="7.112795">
        <time>2023-04-26T12:24:42+00:00</time>
        <ele>2819.0</ele>
      </trkpt>
      <trkpt lat="45.261647" lon="7.112761">
        <time>2023-04-26T12:24:46+00:00</time>
        <ele>2812.0</ele>
      </trkpt>
      <trkpt lat="45.262062" lon="7.112626">
        <time>2023-04-26T12:24:56+00:00</time>
        <ele>2797.0</ele>
      </trkpt>
      <trkpt lat="45.262077" lon="7.112604">
        <time>2023-04-26T12:35:26+00:00</time>
        <ele>2797.0</ele>
      </trkpt>
      <trkpt lat="45.26226" lon="7.112592">
        <time>2023-04-26T12:35:45+00:00</time>
        <ele>2791.0</ele>
      </trkpt>
      <trkpt lat="45.26229" lon="7.112574">
        <time>2023-04-26T12:35:50+00:00</time>
        <ele>2790.0</ele>
      </trkpt>
      <trkpt lat="45.262344" lon="7.112554">
        <time>2023-04-26T12:35:57+00:00</time>
        <ele>2788.0</ele>
      </trkpt>
      <trkpt lat="45.262447" lon="7.112526">
        <time>2023-04-26T12:36:07+00:00</time>
        <ele>2785.0</ele>
      </trkpt>
      <trkpt lat="45.262716" lon="7.112474">
        <time>2023-04-26T12:36:38+00:00</time>
        <ele>2776.0</ele>
      </trkpt>
      <trkpt lat="45.262739" lon="7.11247">
        <time>2023-04-26T12:36:41+00:00</time>
        <ele>2775.0</ele>
      </trkpt>
      <trkpt lat="45.262788" lon="7.112458">
        <time>2023-04-26T12:36:48+00:00</time>
        <ele>2775.0</ele>
      </trkpt>
      <trkpt lat="45.262818" lon="7.112457">
        <time>2023-04-26T12:36:52+00:00</time>
        <ele>2775.0</ele>
      </trkpt>
      <trkpt lat="45.263037" lon="7.112403">
        <time>2023-04-26T12:37:22+00:00</time>
        <ele>2775.0</ele>
      </trkpt>
      <trkpt lat="45.263272" lon="7.112371">
        <time>2023-04-26T12:37:53+00:00</time>
        <ele>2776.0</ele>
      </trkpt>
      <trkpt lat="45.263437" lon="7.112352">
        <time>2023-04-26T12:38:13+00:00</time>
        <ele>2777.0</ele>
      </trkpt>
      <trkpt lat="45.263679" lon="7.112294">
        <time>2023-04-26T12:38:45+00:00</time>
        <ele>2780.0</ele>
      </trkpt>
      <trkpt lat="45.263751" lon="7.112274">
        <time>2023-04-26T12:38:55+00:00</time>
        <ele>2780.0</ele>
      </trkpt>
      <trkpt lat="45.26393" lon="7.112216">
        <time>2023-04-26T12:39:20+00:00</time>
        <ele>2782.0</ele>
      </trkpt>
      <trkpt lat="45.26397" lon="7.11221">
        <time>2023-04-26T12:39:25+00:00</time>
        <ele>2783.0</ele>
      </trkpt>
      <trkpt lat="45.264089" lon="7.112197">
        <time>2023-04-26T12:39:50+00:00</time>
        <ele>2784.0</ele>
      </trkpt>
      <trkpt lat="45.264122" lon="7.112194">
        <time>2023-04-26T12:39:53+00:00</time>
        <ele>2784.0</ele>
      </trkpt>
      <trkpt lat="45.264371" lon="7.111999">
        <time>2023-04-26T12:40:25+00:00</time>
        <ele>2784.0</ele>
      </trkpt>
      <trkpt lat="45.264422" lon="7.111946">
        <time>2023-04-26T12:40:32+00:00</time>
        <ele>2784.0</ele>
      </trkpt>
      <trkpt lat="45.264484" lon="7.111931">
        <time>2023-04-26T12:40:38+00:00</time>
        <ele>2784.0</ele>
      </trkpt>
      <trkpt lat="45.264512" lon="7.111909">
        <time>2023-04-26T12:40:41+00:00</time>
        <ele>2784.0</ele>
      </trkpt>
      <trkpt lat="45.264784" lon="7.11177">
        <time>2023-04-26T12:41:10+00:00</time>
        <ele>2783.0</ele>
      </trkpt>
      <trkpt lat="45.264953" lon="7.111731">
        <time>2023-04-26T12:41:27+00:00</time>
        <ele>2783.0</ele>
      </trkpt>
      <trkpt lat="45.265013" lon="7.111686">
        <time>2023-04-26T12:41:35+00:00</time>
        <ele>2783.0</ele>
      </trkpt>
      <trkpt lat="45.265051" lon="7.111675">
        <time>2023-04-26T12:43:10+00:00</time>
        <ele>2783.0</ele>
      </trkpt>
      <trkpt lat="45.265075" lon="7.111681">
        <time>2023-04-26T12:43:15+00:00</time>
        <ele>2783.0</ele>
      </trkpt>
      <trkpt lat="45.265097" lon="7.111674">
        <time>2023-04-26T12:43:47+00:00</time>
        <ele>2784.0</ele>
      </trkpt>
      <trkpt lat="45.265119" lon="7.111667">
        <time>2023-04-26T12:48:52+00:00</time>
        <ele>2784.0</ele>
      </trkpt>
      <trkpt lat="45.265138" lon="7.111646">
        <time>2023-04-26T12:53:50+00:00</time>
        <ele>2784.0</ele>
      </trkpt>
      <trkpt lat="45.265288" lon="7.111682">
        <time>2023-04-26T12:54:15+00:00</time>
        <ele>2786.0</ele>
      </trkpt>
      <trkpt lat="45.265338" lon="7.111688">
        <time>2023-04-26T12:54:21+00:00</time>
        <ele>2786.0</ele>
      </trkpt>
      <trkpt lat="45.265634" lon="7.111679">
        <time>2023-04-26T12:54:53+00:00</time>
        <ele>2787.0</ele>
      </trkpt>
      <trkpt lat="45.265701" lon="7.111682">
        <time>2023-04-26T12:55:00+00:00</time>
        <ele>2787.0</ele>
      </trkpt>
      <trkpt lat="45.265763" lon="7.111667">
        <time>2023-04-26T12:55:08+00:00</time>
        <ele>2787.0</ele>
      </trkpt>
      <trkpt lat="45.266019" lon="7.111598">
        <time>2023-04-26T12:55:40+00:00</time>
        <ele>2787.0</ele>
      </trkpt>
      <trkpt lat="45.266176" lon="7.111503">
        <time>2023-04-26T12:56:10+00:00</time>
        <ele>2788.0</ele>
      </trkpt>
      <trkpt lat="45.266299" lon="7.111453">
        <time>2023-04-26T12:56:30+00:00</time>
        <ele>2791.0</ele>
      </trkpt>
      <trkpt lat="45.266327" lon="7.111439">
        <time>2023-04-26T12:56:33+00:00</time>
        <ele>2791.0</ele>
      </trkpt>
      <trkpt lat="45.266425" lon="7.11138">
        <time>2023-04-26T12:56:50+00:00</time>
        <ele>2792.0</ele>
      </trkpt>
      <trkpt lat="45.266458" lon="7.111352">
        <time>2023-04-26T12:56:55+00:00</time>
        <ele>2793.0</ele>
      </trkpt>
      <trkpt lat="45.266543" lon="7.111308">
        <time>2023-04-26T12:57:08+00:00</time>
        <ele>2794.0</ele>
      </trkpt>
      <trkpt lat="45.266569" lon="7.111304">
        <time>2023-04-26T12:57:11+00:00</time>
        <ele>2794.0</ele>
      </trkpt>
      <trkpt lat="45.266595" lon="7.111286">
        <time>2023-04-26T12:57:15+00:00</time>
        <ele>2794.0</ele>
      </trkpt>
      <trkpt lat="45.266687" lon="7.111235">
        <time>2023-04-26T12:58:03+00:00</time>
        <ele>2795.0</ele>
      </trkpt>
      <trkpt lat="45.266709" lon="7.111219">
        <time>2023-04-26T12:58:07+00:00</time>
        <ele>2795.0</ele>
      </trkpt>
      <trkpt lat="45.266809" lon="7.111183">
        <time>2023-04-26T12:58:22+00:00</time>
        <ele>2797.0</ele>
      </trkpt>
      <trkpt lat="45.266895" lon="7.111152">
        <time>2023-04-26T12:58:36+00:00</time>
        <ele>2799.0</ele>
      </trkpt>
      <trkpt lat="45.266921" lon="7.111135">
        <time>2023-04-26T12:58:40+00:00</time>
        <ele>2799.0</ele>
      </trkpt>
      <trkpt lat="45.267017" lon="7.111135">
        <time>2023-04-26T12:58:55+00:00</time>
        <ele>2802.0</ele>
      </trkpt>
      <trkpt lat="45.2671" lon="7.111132">
        <time>2023-04-26T12:59:27+00:00</time>
        <ele>2805.0</ele>
      </trkpt>
      <trkpt lat="45.267152" lon="7.111112">
        <time>2023-04-26T12:59:35+00:00</time>
        <ele>2806.0</ele>
      </trkpt>
      <trkpt lat="45.267261" lon="7.111072">
        <time>2023-04-26T12:59:53+00:00</time>
        <ele>2807.0</ele>
      </trkpt>
      <trkpt lat="45.267423" lon="7.110966">
        <time>2023-04-26T13:00:15+00:00</time>
        <ele>2809.0</ele>
      </trkpt>
      <trkpt lat="45.267538" lon="7.110935">
        <time>2023-04-26T13:00:35+00:00</time>
        <ele>2811.0</ele>
      </trkpt>
      <trkpt lat="45.267562" lon="7.110931">
        <time>2023-04-26T13:00:38+00:00</time>
        <ele>2812.0</ele>
      </trkpt>
      <trkpt lat="45.267582" lon="7.110914">
        <time>2023-04-26T13:00:41+00:00</time>
        <ele>2812.0</ele>
      </trkpt>
      <trkpt lat="45.267612" lon="7.110914">
        <time>2023-04-26T13:00:46+00:00</time>
        <ele>2813.0</ele>
      </trkpt>
      <trkpt lat="45.267692" lon="7.110879">
        <time>2023-04-26T13:01:36+00:00</time>
        <ele>2815.0</ele>
      </trkpt>
      <trkpt lat="45.267724" lon="7.110868">
        <time>2023-04-26T13:01:40+00:00</time>
        <ele>2815.0</ele>
      </trkpt>
      <trkpt lat="45.267818" lon="7.110784">
        <time>2023-04-26T13:01:56+00:00</time>
        <ele>2816.0</ele>
      </trkpt>
      <trkpt lat="45.267899" lon="7.110737">
        <time>2023-04-26T13:02:10+00:00</time>
        <ele>2817.0</ele>
      </trkpt>
      <trkpt lat="45.26795" lon="7.110683">
        <time>2023-04-26T13:02:18+00:00</time>
        <ele>2818.0</ele>
      </trkpt>
      <trkpt lat="45.267977" lon="7.110678">
        <time>2023-04-26T13:02:21+00:00</time>
        <ele>2819.0</ele>
      </trkpt>
      <trkpt lat="45.268" lon="7.110649">
        <time>2023-04-26T13:02:25+00:00</time>
        <ele>2819.0</ele>
      </trkpt>
      <trkpt lat="45.268054" lon="7.110606">
        <time>2023-04-26T13:02:33+00:00</time>
        <ele>2820.0</ele>
      </trkpt>
      <trkpt lat="45.268097" lon="7.110561">
        <time>2023-04-26T13:02:54+00:00</time>
        <ele>2820.0</ele>
      </trkpt>
      <trkpt lat="45.268117" lon="7.110537">
        <time>2023-04-26T13:02:58+00:00</time>
        <ele>2820.0</ele>
      </trkpt>
      <trkpt lat="45.268138" lon="7.110526">
        <time>2023-04-26T13:03:00+00:00</time>
        <ele>2821.0</ele>
      </trkpt>
      <trkpt lat="45.268287" lon="7.110393">
        <time>2023-04-26T13:03:42+00:00</time>
        <ele>2822.0</ele>
      </trkpt>
      <trkpt lat="45.268336" lon="7.11037">
        <time>2023-04-26T13:03:50+00:00</time>
        <ele>2824.0</ele>
      </trkpt>
      <trkpt lat="45.268358" lon="7.110337">
        <time>2023-04-26T13:03:55+00:00</time>
        <ele>2824.0</ele>
      </trkpt>
      <trkpt lat="45.268383" lon="7.110298">
        <time>2023-04-26T13:04:00+00:00</time>
        <ele>2824.0</ele>
      </trkpt>
      <trkpt lat="45.268462" lon="7.110238">
        <time>2023-04-26T13:04:33+00:00</time>
        <ele>2826.0</ele>
      </trkpt>
      <trkpt lat="45.26851" lon="7.110214">
        <time>2023-04-26T13:04:41+00:00</time>
        <ele>2828.0</ele>
      </trkpt>
      <trkpt lat="45.268535" lon="7.11019">
        <time>2023-04-26T13:04:45+00:00</time>
        <ele>2828.0</ele>
      </trkpt>
      <trkpt lat="45.268591" lon="7.110156">
        <time>2023-04-26T13:04:55+00:00</time>
        <ele>2830.0</ele>
      </trkpt>
      <trkpt lat="45.26861" lon="7.110123">
        <time>2023-04-26T13:04:58+00:00</time>
        <ele>2830.0</ele>
      </trkpt>
      <trkpt lat="45.268642" lon="7.110105">
        <time>2023-04-26T13:05:05+00:00</time>
        <ele>2831.0</ele>
      </trkpt>
      <trkpt lat="45.26867" lon="7.110112">
        <time>2023-04-26T13:05:10+00:00</time>
        <ele>2832.0</ele>
      </trkpt>
      <trkpt lat="45.268761" lon="7.110057">
        <time>2023-04-26T13:05:23+00:00</time>
        <ele>2833.0</ele>
      </trkpt>
      <trkpt lat="45.268772" lon="7.110036">
        <time>2023-04-26T13:05:40+00:00</time>
        <ele>2833.0</ele>
      </trkpt>
      <trkpt lat="45.2688" lon="7.110028">
        <time>2023-04-26T13:05:45+00:00</time>
        <ele>2834.0</ele>
      </trkpt>
      <trkpt lat="45.268876" lon="7.109998">
        <time>2023-04-26T13:05:56+00:00</time>
        <ele>2835.0</ele>
      </trkpt>
      <trkpt lat="45.268906" lon="7.109996">
        <time>2023-04-26T13:06:00+00:00</time>
        <ele>2836.0</ele>
      </trkpt>
      <trkpt lat="45.269007" lon="7.109962">
        <time>2023-04-26T13:06:15+00:00</time>
        <ele>2839.0</ele>
      </trkpt>
      <trkpt lat="45.269034" lon="7.109952">
        <time>2023-04-26T13:06:18+00:00</time>
        <ele>2839.0</ele>
      </trkpt>
      <trkpt lat="45.26911" lon="7.109902">
        <time>2023-04-26T13:06:30+00:00</time>
        <ele>2840.0</ele>
      </trkpt>
      <trkpt lat="45.269204" lon="7.109847">
        <time>2023-04-26T13:07:57+00:00</time>
        <ele>2841.0</ele>
      </trkpt>
      <trkpt lat="45.269349" lon="7.109755">
        <time>2023-04-26T13:08:18+00:00</time>
        <ele>2842.0</ele>
      </trkpt>
      <trkpt lat="45.269475" lon="7.109625">
        <time>2023-04-26T13:08:53+00:00</time>
        <ele>2843.0</ele>
      </trkpt>
      <trkpt lat="45.269502" lon="7.10963">
        <time>2023-04-26T13:08:58+00:00</time>
        <ele>2845.0</ele>
      </trkpt>
      <trkpt lat="45.269523" lon="7.10959">
        <time>2023-04-26T13:09:06+00:00</time>
        <ele>2845.0</ele>
      </trkpt>
      <trkpt lat="45.269546" lon="7.109562">
        <time>2023-04-26T13:09:11+00:00</time>
        <ele>2845.0</ele>
      </trkpt>
      <trkpt lat="45.26957" lon="7.109537">
        <time>2023-04-26T13:09:36+00:00</time>
        <ele>2846.0</ele>
      </trkpt>
      <trkpt lat="45.269587" lon="7.109512">
        <time>2023-04-26T13:09:41+00:00</time>
        <ele>2846.0</ele>
      </trkpt>
      <trkpt lat="45.269627" lon="7.109461">
        <time>2023-04-26T13:09:49+00:00</time>
        <ele>2847.0</ele>
      </trkpt>
      <trkpt lat="45.269653" lon="7.109435">
        <time>2023-04-26T13:10:06+00:00</time>
        <ele>2848.0</ele>
      </trkpt>
      <trkpt lat="45.269678" lon="7.109422">
        <time>2023-04-26T13:10:11+00:00</time>
        <ele>2849.0</ele>
      </trkpt>
      <trkpt lat="45.269697" lon="7.109394">
        <time>2023-04-26T13:10:17+00:00</time>
        <ele>2850.0</ele>
      </trkpt>
      <trkpt lat="45.269721" lon="7.109398">
        <time>2023-04-26T13:10:22+00:00</time>
        <ele>2851.0</ele>
      </trkpt>
      <trkpt lat="45.269733" lon="7.109378">
        <time>2023-04-26T13:10:34+00:00</time>
        <ele>2851.0</ele>
      </trkpt>
      <trkpt lat="45.269754" lon="7.109354">
        <time>2023-04-26T13:10:44+00:00</time>
        <ele>2852.0</ele>
      </trkpt>
      <trkpt lat="45.269775" lon="7.109328">
        <time>2023-04-26T13:10:48+00:00</time>
        <ele>2853.0</ele>
      </trkpt>
      <trkpt lat="45.269795" lon="7.109308">
        <time>2023-04-26T13:10:56+00:00</time>
        <ele>2853.0</ele>
      </trkpt>
      <trkpt lat="45.269816" lon="7.10931">
        <time>2023-04-26T13:11:01+00:00</time>
        <ele>2855.0</ele>
      </trkpt>
      <trkpt lat="45.269871" lon="7.109222">
        <time>2023-04-26T13:11:32+00:00</time>
        <ele>2855.0</ele>
      </trkpt>
      <trkpt lat="45.269894" lon="7.109195">
        <time>2023-04-26T13:11:41+00:00</time>
        <ele>2856.0</ele>
      </trkpt>
      <trkpt lat="45.269916" lon="7.109182">
        <time>2023-04-26T13:11:48+00:00</time>
        <ele>2857.0</ele>
      </trkpt>
      <trkpt lat="45.269932" lon="7.109159">
        <time>2023-04-26T13:11:52+00:00</time>
        <ele>2857.0</ele>
      </trkpt>
      <trkpt lat="45.269944" lon="7.109132">
        <time>2023-04-26T13:12:06+00:00</time>
        <ele>2857.0</ele>
      </trkpt>
      <trkpt lat="45.269997" lon="7.109089">
        <time>2023-04-26T13:12:16+00:00</time>
        <ele>2859.0</ele>
      </trkpt>
      <trkpt lat="45.270063" lon="7.109034">
        <time>2023-04-26T13:12:37+00:00</time>
        <ele>2862.0</ele>
      </trkpt>
      <trkpt lat="45.270113" lon="7.109031">
        <time>2023-04-26T13:12:46+00:00</time>
        <ele>2864.0</ele>
      </trkpt>
      <trkpt lat="45.270163" lon="7.10901">
        <time>2023-04-26T13:13:11+00:00</time>
        <ele>2866.0</ele>
      </trkpt>
      <trkpt lat="45.270189" lon="7.108997">
        <time>2023-04-26T13:13:16+00:00</time>
        <ele>2867.0</ele>
      </trkpt>
      <trkpt lat="45.270212" lon="7.108987">
        <time>2023-04-26T13:13:21+00:00</time>
        <ele>2867.0</ele>
      </trkpt>
      <trkpt lat="45.27024" lon="7.108966">
        <time>2023-04-26T13:13:26+00:00</time>
        <ele>2868.0</ele>
      </trkpt>
      <trkpt lat="45.270333" lon="7.108939">
        <time>2023-04-26T13:13:41+00:00</time>
        <ele>2870.0</ele>
      </trkpt>
      <trkpt lat="45.27038" lon="7.108924">
        <time>2023-04-26T13:14:07+00:00</time>
        <ele>2871.0</ele>
      </trkpt>
      <trkpt lat="45.27043" lon="7.10891">
        <time>2023-04-26T13:14:22+00:00</time>
        <ele>2873.0</ele>
      </trkpt>
      <trkpt lat="45.270425" lon="7.108939">
        <time>2023-04-26T13:14:51+00:00</time>
        <ele>2873.0</ele>
      </trkpt>
      <trkpt lat="45.270423" lon="7.108977">
        <time>2023-04-26T13:14:56+00:00</time>
        <ele>2874.0</ele>
      </trkpt>
      <trkpt lat="45.270425" lon="7.109019">
        <time>2023-04-26T13:15:01+00:00</time>
        <ele>2875.0</ele>
      </trkpt>
      <trkpt lat="45.270448" lon="7.108996">
        <time>2023-04-26T13:15:17+00:00</time>
        <ele>2875.0</ele>
      </trkpt>
      <trkpt lat="45.270506" lon="7.108993">
        <time>2023-04-26T13:15:27+00:00</time>
        <ele>2877.0</ele>
      </trkpt>
      <trkpt lat="45.270531" lon="7.108991">
        <time>2023-04-26T13:15:31+00:00</time>
        <ele>2878.0</ele>
      </trkpt>
      <trkpt lat="45.270554" lon="7.108997">
        <time>2023-04-26T13:15:36+00:00</time>
        <ele>2879.0</ele>
      </trkpt>
      <trkpt lat="45.270577" lon="7.108974">
        <time>2023-04-26T13:15:41+00:00</time>
        <ele>2879.0</ele>
      </trkpt>
      <trkpt lat="45.270608" lon="7.108973">
        <time>2023-04-26T13:15:47+00:00</time>
        <ele>2881.0</ele>
      </trkpt>
      <trkpt lat="45.270651" lon="7.108954">
        <time>2023-04-26T13:16:32+00:00</time>
        <ele>2882.0</ele>
      </trkpt>
      <trkpt lat="45.270678" lon="7.10895">
        <time>2023-04-26T13:16:36+00:00</time>
        <ele>2883.0</ele>
      </trkpt>
      <trkpt lat="45.270706" lon="7.108942">
        <time>2023-04-26T13:16:41+00:00</time>
        <ele>2884.0</ele>
      </trkpt>
      <trkpt lat="45.270732" lon="7.108912">
        <time>2023-04-26T13:16:46+00:00</time>
        <ele>2884.0</ele>
      </trkpt>
      <trkpt lat="45.270737" lon="7.108945">
        <time>2023-04-26T13:17:59+00:00</time>
        <ele>2885.0</ele>
      </trkpt>
      <trkpt lat="45.270744" lon="7.108977">
        <time>2023-04-26T13:18:04+00:00</time>
        <ele>2886.0</ele>
      </trkpt>
      <trkpt lat="45.270743" lon="7.109071">
        <time>2023-04-26T13:18:16+00:00</time>
        <ele>2888.0</ele>
      </trkpt>
      <trkpt lat="45.270742" lon="7.109107">
        <time>2023-04-26T13:18:21+00:00</time>
        <ele>2889.0</ele>
      </trkpt>
      <trkpt lat="45.270734" lon="7.109139">
        <time>2023-04-26T13:18:26+00:00</time>
        <ele>2890.0</ele>
      </trkpt>
      <trkpt lat="45.270735" lon="7.109169">
        <time>2023-04-26T13:18:32+00:00</time>
        <ele>2891.0</ele>
      </trkpt>
      <trkpt lat="45.27073" lon="7.109194">
        <time>2023-04-26T13:18:47+00:00</time>
        <ele>2891.0</ele>
      </trkpt>
      <trkpt lat="45.270729" lon="7.109227">
        <time>2023-04-26T13:18:52+00:00</time>
        <ele>2892.0</ele>
      </trkpt>
      <trkpt lat="45.270724" lon="7.109254">
        <time>2023-04-26T13:18:56+00:00</time>
        <ele>2892.0</ele>
      </trkpt>
      <trkpt lat="45.270751" lon="7.109258">
        <time>2023-04-26T13:19:13+00:00</time>
        <ele>2894.0</ele>
      </trkpt>
      <trkpt lat="45.270817" lon="7.109251">
        <time>2023-04-26T13:19:28+00:00</time>
        <ele>2896.0</ele>
      </trkpt>
      <trkpt lat="45.270898" lon="7.109232">
        <time>2023-04-26T13:19:44+00:00</time>
        <ele>2899.0</ele>
      </trkpt>
      <trkpt lat="45.270944" lon="7.109224">
        <time>2023-04-26T13:20:17+00:00</time>
        <ele>2900.0</ele>
      </trkpt>
      <trkpt lat="45.270995" lon="7.109189">
        <time>2023-04-26T13:20:28+00:00</time>
        <ele>2901.0</ele>
      </trkpt>
      <trkpt lat="45.271011" lon="7.109175">
        <time>2023-04-26T13:20:31+00:00</time>
        <ele>2901.0</ele>
      </trkpt>
      <trkpt lat="45.271032" lon="7.109145">
        <time>2023-04-26T13:20:36+00:00</time>
        <ele>2901.0</ele>
      </trkpt>
      <trkpt lat="45.271037" lon="7.109104">
        <time>2023-04-26T13:20:41+00:00</time>
        <ele>2900.0</ele>
      </trkpt>
      <trkpt lat="45.271045" lon="7.10908">
        <time>2023-04-26T13:20:44+00:00</time>
        <ele>2900.0</ele>
      </trkpt>
      <trkpt lat="45.271089" lon="7.109008">
        <time>2023-04-26T13:20:56+00:00</time>
        <ele>2900.0</ele>
      </trkpt>
      <trkpt lat="45.271102" lon="7.108981">
        <time>2023-04-26T13:21:00+00:00</time>
        <ele>2901.0</ele>
      </trkpt>
      <trkpt lat="45.271113" lon="7.10896">
        <time>2023-04-26T13:21:04+00:00</time>
        <ele>2901.0</ele>
      </trkpt>
      <trkpt lat="45.271127" lon="7.108938">
        <time>2023-04-26T13:21:33+00:00</time>
        <ele>2902.0</ele>
      </trkpt>
      <trkpt lat="45.271138" lon="7.108913">
        <time>2023-04-26T13:21:37+00:00</time>
        <ele>2903.0</ele>
      </trkpt>
      <trkpt lat="45.271154" lon="7.108843">
        <time>2023-04-26T13:21:47+00:00</time>
        <ele>2904.0</ele>
      </trkpt>
      <trkpt lat="45.271165" lon="7.108822">
        <time>2023-04-26T13:21:51+00:00</time>
        <ele>2904.0</ele>
      </trkpt>
      <trkpt lat="45.271179" lon="7.108812">
        <time>2023-04-26T13:22:11+00:00</time>
        <ele>2905.0</ele>
      </trkpt>
      <trkpt lat="45.27118" lon="7.108842">
        <time>2023-04-26T13:22:15+00:00</time>
        <ele>2905.0</ele>
      </trkpt>
      <trkpt lat="45.271185" lon="7.108871">
        <time>2023-04-26T13:22:22+00:00</time>
        <ele>2905.0</ele>
      </trkpt>
      <trkpt lat="45.271219" lon="7.108915">
        <time>2023-04-26T13:22:34+00:00</time>
        <ele>2907.0</ele>
      </trkpt>
      <trkpt lat="45.271229" lon="7.108941">
        <time>2023-04-26T13:22:39+00:00</time>
        <ele>2908.0</ele>
      </trkpt>
      <trkpt lat="45.271242" lon="7.10896">
        <time>2023-04-26T13:22:48+00:00</time>
        <ele>2909.0</ele>
      </trkpt>
      <trkpt lat="45.271247" lon="7.108993">
        <time>2023-04-26T13:22:51+00:00</time>
        <ele>2909.0</ele>
      </trkpt>
      <trkpt lat="45.271252" lon="7.109033">
        <time>2023-04-26T13:22:57+00:00</time>
        <ele>2909.0</ele>
      </trkpt>
      <trkpt lat="45.271286" lon="7.109156">
        <time>2023-04-26T13:23:17+00:00</time>
        <ele>2913.0</ele>
      </trkpt>
      <trkpt lat="45.271307" lon="7.109178">
        <time>2023-04-26T13:23:52+00:00</time>
        <ele>2915.0</ele>
      </trkpt>
      <trkpt lat="45.271324" lon="7.109203">
        <time>2023-04-26T13:23:57+00:00</time>
        <ele>2916.0</ele>
      </trkpt>
      <trkpt lat="45.271332" lon="7.109275">
        <time>2023-04-26T13:24:13+00:00</time>
        <ele>2917.0</ele>
      </trkpt>
      <trkpt lat="45.271338" lon="7.109307">
        <time>2023-04-26T13:24:17+00:00</time>
        <ele>2918.0</ele>
      </trkpt>
      <trkpt lat="45.27135" lon="7.109376">
        <time>2023-04-26T13:24:29+00:00</time>
        <ele>2921.0</ele>
      </trkpt>
      <trkpt lat="45.271359" lon="7.10941">
        <time>2023-04-26T13:24:36+00:00</time>
        <ele>2922.0</ele>
      </trkpt>
      <trkpt lat="45.271359" lon="7.109444">
        <time>2023-04-26T13:24:42+00:00</time>
        <ele>2923.0</ele>
      </trkpt>
      <trkpt lat="45.271382" lon="7.109563">
        <time>2023-04-26T13:25:03+00:00</time>
        <ele>2927.0</ele>
      </trkpt>
      <trkpt lat="45.271395" lon="7.109597">
        <time>2023-04-26T13:25:09+00:00</time>
        <ele>2928.0</ele>
      </trkpt>
      <trkpt lat="45.271398" lon="7.109636">
        <time>2023-04-26T13:25:17+00:00</time>
        <ele>2930.0</ele>
      </trkpt>
      <trkpt lat="45.271437" lon="7.109722">
        <time>2023-04-26T13:25:36+00:00</time>
        <ele>2933.0</ele>
      </trkpt>
      <trkpt lat="45.271453" lon="7.10975">
        <time>2023-04-26T13:25:41+00:00</time>
        <ele>2934.0</ele>
      </trkpt>
      <trkpt lat="45.271462" lon="7.109824">
        <time>2023-04-26T13:25:56+00:00</time>
        <ele>2936.0</ele>
      </trkpt>
      <trkpt lat="45.271472" lon="7.109853">
        <time>2023-04-26T13:26:01+00:00</time>
        <ele>2937.0</ele>
      </trkpt>
      <trkpt lat="45.271469" lon="7.109882">
        <time>2023-04-26T13:26:06+00:00</time>
        <ele>2937.0</ele>
      </trkpt>
      <trkpt lat="45.271476" lon="7.109996">
        <time>2023-04-26T13:26:37+00:00</time>
        <ele>2939.0</ele>
      </trkpt>
      <trkpt lat="45.27148" lon="7.110028">
        <time>2023-04-26T13:26:43+00:00</time>
        <ele>2940.0</ele>
      </trkpt>
      <trkpt lat="45.271512" lon="7.110103">
        <time>2023-04-26T13:27:01+00:00</time>
        <ele>2942.0</ele>
      </trkpt>
      <trkpt lat="45.271523" lon="7.110138">
        <time>2023-04-26T13:27:07+00:00</time>
        <ele>2943.0</ele>
      </trkpt>
      <trkpt lat="45.271541" lon="7.110162">
        <time>2023-04-26T13:27:13+00:00</time>
        <ele>2943.0</ele>
      </trkpt>
      <trkpt lat="45.271564" lon="7.110178">
        <time>2023-04-26T13:27:18+00:00</time>
        <ele>2944.0</ele>
      </trkpt>
      <trkpt lat="45.271608" lon="7.11021">
        <time>2023-04-26T13:27:26+00:00</time>
        <ele>2944.0</ele>
      </trkpt>
      <trkpt lat="45.271634" lon="7.110227">
        <time>2023-04-26T13:27:31+00:00</time>
        <ele>2945.0</ele>
      </trkpt>
      <trkpt lat="45.27172" lon="7.11031">
        <time>2023-04-26T13:27:50+00:00</time>
        <ele>2946.0</ele>
      </trkpt>
      <trkpt lat="45.271771" lon="7.110356">
        <time>2023-04-26T13:28:00+00:00</time>
        <ele>2947.0</ele>
      </trkpt>
      <trkpt lat="45.271798" lon="7.110378">
        <time>2023-04-26T13:28:06+00:00</time>
        <ele>2947.0</ele>
      </trkpt>
      <trkpt lat="45.271819" lon="7.110399">
        <time>2023-04-26T13:28:12+00:00</time>
        <ele>2947.0</ele>
      </trkpt>
      <trkpt lat="45.271956" lon="7.110501">
        <time>2023-04-26T13:28:39+00:00</time>
        <ele>2949.0</ele>
      </trkpt>
      <trkpt lat="45.27198" lon="7.110512">
        <time>2023-04-26T13:28:43+00:00</time>
        <ele>2949.0</ele>
      </trkpt>
      <trkpt lat="45.272093" lon="7.110583">
        <time>2023-04-26T13:29:05+00:00</time>
        <ele>2951.0</ele>
      </trkpt>
      <trkpt lat="45.272113" lon="7.110611">
        <time>2023-04-26T13:29:09+00:00</time>
        <ele>2951.0</ele>
      </trkpt>
      <trkpt lat="45.27215" lon="7.110653">
        <time>2023-04-26T13:29:21+00:00</time>
        <ele>2951.0</ele>
      </trkpt>
      <trkpt lat="45.272189" lon="7.110678">
        <time>2023-04-26T13:29:26+00:00</time>
        <ele>2952.0</ele>
      </trkpt>
      <trkpt lat="45.272295" lon="7.110764">
        <time>2023-04-26T13:29:46+00:00</time>
        <ele>2954.0</ele>
      </trkpt>
      <trkpt lat="45.272317" lon="7.110783">
        <time>2023-04-26T13:29:51+00:00</time>
        <ele>2954.0</ele>
      </trkpt>
      <trkpt lat="45.272351" lon="7.110832">
        <time>2023-04-26T13:29:58+00:00</time>
        <ele>2955.0</ele>
      </trkpt>
      <trkpt lat="45.272366" lon="7.110851">
        <time>2023-04-26T13:30:02+00:00</time>
        <ele>2955.0</ele>
      </trkpt>
      <trkpt lat="45.272406" lon="7.110877">
        <time>2023-04-26T13:30:12+00:00</time>
        <ele>2956.0</ele>
      </trkpt>
      <trkpt lat="45.272428" lon="7.110902">
        <time>2023-04-26T13:30:17+00:00</time>
        <ele>2957.0</ele>
      </trkpt>
      <trkpt lat="45.272474" lon="7.110932">
        <time>2023-04-26T13:30:26+00:00</time>
        <ele>2957.0</ele>
      </trkpt>
      <trkpt lat="45.272524" lon="7.110986">
        <time>2023-04-26T13:30:36+00:00</time>
        <ele>2959.0</ele>
      </trkpt>
      <trkpt lat="45.272572" lon="7.111015">
        <time>2023-04-26T13:30:46+00:00</time>
        <ele>2960.0</ele>
      </trkpt>
      <trkpt lat="45.272598" lon="7.111033">
        <time>2023-04-26T13:30:51+00:00</time>
        <ele>2960.0</ele>
      </trkpt>
      <trkpt lat="45.27262" lon="7.111053">
        <time>2023-04-26T13:30:57+00:00</time>
        <ele>2961.0</ele>
      </trkpt>
      <trkpt lat="45.272634" lon="7.111084">
        <time>2023-04-26T13:31:01+00:00</time>
        <ele>2961.0</ele>
      </trkpt>
      <trkpt lat="45.272657" lon="7.111105">
        <time>2023-04-26T13:31:06+00:00</time>
        <ele>2962.0</ele>
      </trkpt>
      <trkpt lat="45.272723" lon="7.111166">
        <time>2023-04-26T13:31:27+00:00</time>
        <ele>2963.0</ele>
      </trkpt>
      <trkpt lat="45.272737" lon="7.111189">
        <time>2023-04-26T13:31:54+00:00</time>
        <ele>2963.0</ele>
      </trkpt>
      <trkpt lat="45.272836" lon="7.11132">
        <time>2023-04-26T13:32:27+00:00</time>
        <ele>2967.0</ele>
      </trkpt>
      <trkpt lat="45.272851" lon="7.111353">
        <time>2023-04-26T13:32:36+00:00</time>
        <ele>2968.0</ele>
      </trkpt>
      <trkpt lat="45.272891" lon="7.111378">
        <time>2023-04-26T13:32:47+00:00</time>
        <ele>2969.0</ele>
      </trkpt>
      <trkpt lat="45.272932" lon="7.111402">
        <time>2023-04-26T13:32:57+00:00</time>
        <ele>2970.0</ele>
      </trkpt>
      <trkpt lat="45.272948" lon="7.111416">
        <time>2023-04-26T13:33:01+00:00</time>
        <ele>2971.0</ele>
      </trkpt>
      <trkpt lat="45.273009" lon="7.111449">
        <time>2023-04-26T13:33:16+00:00</time>
        <ele>2972.0</ele>
      </trkpt>
      <trkpt lat="45.273034" lon="7.111465">
        <time>2023-04-26T13:33:21+00:00</time>
        <ele>2973.0</ele>
      </trkpt>
      <trkpt lat="45.273084" lon="7.111461">
        <time>2023-04-26T13:33:55+00:00</time>
        <ele>2974.0</ele>
      </trkpt>
      <trkpt lat="45.273132" lon="7.111494">
        <time>2023-04-26T13:34:09+00:00</time>
        <ele>2975.0</ele>
      </trkpt>
      <trkpt lat="45.273158" lon="7.111512">
        <time>2023-04-26T13:34:12+00:00</time>
        <ele>2976.0</ele>
      </trkpt>
      <trkpt lat="45.273198" lon="7.11155">
        <time>2023-04-26T13:34:21+00:00</time>
        <ele>2977.0</ele>
      </trkpt>
      <trkpt lat="45.273224" lon="7.111569">
        <time>2023-04-26T13:34:28+00:00</time>
        <ele>2978.0</ele>
      </trkpt>
      <trkpt lat="45.273243" lon="7.111576">
        <time>2023-04-26T13:34:31+00:00</time>
        <ele>2978.0</ele>
      </trkpt>
      <trkpt lat="45.273262" lon="7.111593">
        <time>2023-04-26T13:34:37+00:00</time>
        <ele>2979.0</ele>
      </trkpt>
      <trkpt lat="45.273287" lon="7.111605">
        <time>2023-04-26T13:34:41+00:00</time>
        <ele>2979.0</ele>
      </trkpt>
      <trkpt lat="45.27331" lon="7.111616">
        <time>2023-04-26T13:34:44+00:00</time>
        <ele>2980.0</ele>
      </trkpt>
      <trkpt lat="45.27333" lon="7.111623">
        <time>2023-04-26T13:34:48+00:00</time>
        <ele>2980.0</ele>
      </trkpt>
      <trkpt lat="45.273409" lon="7.111639">
        <time>2023-04-26T13:35:01+00:00</time>
        <ele>2982.0</ele>
      </trkpt>
      <trkpt lat="45.273435" lon="7.111638">
        <time>2023-04-26T13:35:04+00:00</time>
        <ele>2983.0</ele>
      </trkpt>
      <trkpt lat="45.273509" lon="7.111687">
        <time>2023-04-26T13:35:19+00:00</time>
        <ele>2984.0</ele>
      </trkpt>
      <trkpt lat="45.273527" lon="7.111708">
        <time>2023-04-26T13:35:22+00:00</time>
        <ele>2984.0</ele>
      </trkpt>
      <trkpt lat="45.273581" lon="7.111768">
        <time>2023-04-26T13:35:34+00:00</time>
        <ele>2986.0</ele>
      </trkpt>
      <trkpt lat="45.273606" lon="7.111822">
        <time>2023-04-26T13:35:41+00:00</time>
        <ele>2987.0</ele>
      </trkpt>
      <trkpt lat="45.273618" lon="7.111875">
        <time>2023-04-26T13:35:48+00:00</time>
        <ele>2988.0</ele>
      </trkpt>
      <trkpt lat="45.27363" lon="7.111901">
        <time>2023-04-26T13:35:51+00:00</time>
        <ele>2989.0</ele>
      </trkpt>
      <trkpt lat="45.273642" lon="7.111958">
        <time>2023-04-26T13:36:03+00:00</time>
        <ele>2990.0</ele>
      </trkpt>
      <trkpt lat="45.27365" lon="7.111994">
        <time>2023-04-26T13:36:26+00:00</time>
        <ele>2990.0</ele>
      </trkpt>
      <trkpt lat="45.273649" lon="7.112027">
        <time>2023-04-26T13:36:32+00:00</time>
        <ele>2991.0</ele>
      </trkpt>
      <trkpt lat="45.273662" lon="7.112068">
        <time>2023-04-26T13:36:51+00:00</time>
        <ele>2992.0</ele>
      </trkpt>
      <trkpt lat="45.273675" lon="7.112097">
        <time>2023-04-26T13:36:56+00:00</time>
        <ele>2993.0</ele>
      </trkpt>
      <trkpt lat="45.27368" lon="7.11213">
        <time>2023-04-26T13:37:01+00:00</time>
        <ele>2993.0</ele>
      </trkpt>
      <trkpt lat="45.273704" lon="7.112208">
        <time>2023-04-26T13:37:43+00:00</time>
        <ele>2995.0</ele>
      </trkpt>
      <trkpt lat="45.273693" lon="7.112237">
        <time>2023-04-26T13:37:49+00:00</time>
        <ele>2995.0</ele>
      </trkpt>
      <trkpt lat="45.273701" lon="7.112268">
        <time>2023-04-26T13:37:56+00:00</time>
        <ele>2995.0</ele>
      </trkpt>
      <trkpt lat="45.273701" lon="7.112301">
        <time>2023-04-26T13:38:02+00:00</time>
        <ele>2996.0</ele>
      </trkpt>
      <trkpt lat="45.273719" lon="7.112323">
        <time>2023-04-26T13:38:06+00:00</time>
        <ele>2996.0</ele>
      </trkpt>
      <trkpt lat="45.273739" lon="7.112398">
        <time>2023-04-26T13:38:17+00:00</time>
        <ele>2996.0</ele>
      </trkpt>
      <trkpt lat="45.273745" lon="7.112426">
        <time>2023-04-26T13:38:21+00:00</time>
        <ele>2996.0</ele>
      </trkpt>
      <trkpt lat="45.273758" lon="7.112451">
        <time>2023-04-26T13:38:53+00:00</time>
        <ele>2996.0</ele>
      </trkpt>
      <trkpt lat="45.27377" lon="7.112476">
        <time>2023-04-26T13:38:56+00:00</time>
        <ele>2997.0</ele>
      </trkpt>
      <trkpt lat="45.273811" lon="7.112571">
        <time>2023-04-26T13:39:11+00:00</time>
        <ele>2999.0</ele>
      </trkpt>
      <trkpt lat="45.273846" lon="7.11262">
        <time>2023-04-26T13:39:19+00:00</time>
        <ele>3001.0</ele>
      </trkpt>
      <trkpt lat="45.273903" lon="7.11275">
        <time>2023-04-26T13:40:04+00:00</time>
        <ele>3005.0</ele>
      </trkpt>
      <trkpt lat="45.273926" lon="7.112808">
        <time>2023-04-26T13:40:14+00:00</time>
        <ele>3007.0</ele>
      </trkpt>
      <trkpt lat="45.273933" lon="7.112835">
        <time>2023-04-26T13:40:19+00:00</time>
        <ele>3008.0</ele>
      </trkpt>
      <trkpt lat="45.273945" lon="7.112859">
        <time>2023-04-26T13:40:23+00:00</time>
        <ele>3009.0</ele>
      </trkpt>
      <trkpt lat="45.273961" lon="7.11291">
        <time>2023-04-26T13:40:31+00:00</time>
        <ele>3012.0</ele>
      </trkpt>
      <trkpt lat="45.273963" lon="7.112937">
        <time>2023-04-26T13:40:36+00:00</time>
        <ele>3013.0</ele>
      </trkpt>
      <trkpt lat="45.273989" lon="7.112929">
        <time>2023-04-26T13:40:53+00:00</time>
        <ele>3014.0</ele>
      </trkpt>
      <trkpt lat="45.2741" lon="7.11282">
        <time>2023-04-26T13:41:24+00:00</time>
        <ele>3015.0</ele>
      </trkpt>
      <trkpt lat="45.274164" lon="7.112738">
        <time>2023-04-26T13:41:41+00:00</time>
        <ele>3016.0</ele>
      </trkpt>
      <trkpt lat="45.274167" lon="7.112729">
        <time>2023-04-26T13:42:48+00:00</time>
        <ele>3016.0</ele>
      </trkpt>
      <trkpt lat="45.274178" lon="7.11276">
        <time>2023-04-26T13:42:59+00:00</time>
        <ele>3017.0</ele>
      </trkpt>
      <trkpt lat="45.2742" lon="7.112811">
        <time>2023-04-26T13:43:07+00:00</time>
        <ele>3019.0</ele>
      </trkpt>
      <trkpt lat="45.274206" lon="7.112842">
        <time>2023-04-26T13:43:11+00:00</time>
        <ele>3020.0</ele>
      </trkpt>
      <trkpt lat="45.27422" lon="7.112875">
        <time>2023-04-26T13:43:17+00:00</time>
        <ele>3021.0</ele>
      </trkpt>
      <trkpt lat="45.274227" lon="7.112901">
        <time>2023-04-26T13:43:22+00:00</time>
        <ele>3022.0</ele>
      </trkpt>
      <trkpt lat="45.274268" lon="7.113027">
        <time>2023-04-26T13:44:05+00:00</time>
        <ele>3026.0</ele>
      </trkpt>
      <trkpt lat="45.274273" lon="7.11307">
        <time>2023-04-26T13:44:12+00:00</time>
        <ele>3027.0</ele>
      </trkpt>
      <trkpt lat="45.274277" lon="7.113104">
        <time>2023-04-26T13:44:18+00:00</time>
        <ele>3028.0</ele>
      </trkpt>
      <trkpt lat="45.27428" lon="7.113139">
        <time>2023-04-26T13:44:24+00:00</time>
        <ele>3028.0</ele>
      </trkpt>
      <trkpt lat="45.274299" lon="7.113118">
        <time>2023-04-26T13:44:48+00:00</time>
        <ele>3028.0</ele>
      </trkpt>
      <trkpt lat="45.274408" lon="7.112902">
        <time>2023-04-26T13:45:12+00:00</time>
        <ele>3029.0</ele>
      </trkpt>
      <trkpt lat="45.274452" lon="7.112756">
        <time>2023-04-26T13:45:27+00:00</time>
        <ele>3030.0</ele>
      </trkpt>
      <trkpt lat="45.274486" lon="7.112659">
        <time>2023-04-26T13:45:37+00:00</time>
        <ele>3031.0</ele>
      </trkpt>
      <trkpt lat="45.274486" lon="7.112627">
        <time>2023-04-26T13:45:40+00:00</time>
        <ele>3030.0</ele>
      </trkpt>
      <trkpt lat="45.274506" lon="7.112531">
        <time>2023-04-26T13:45:52+00:00</time>
        <ele>3030.0</ele>
      </trkpt>
      <trkpt lat="45.274509" lon="7.1125">
        <time>2023-04-26T13:45:55+00:00</time>
        <ele>3030.0</ele>
      </trkpt>
      <trkpt lat="45.274505" lon="7.112474">
        <time>2023-04-26T13:45:57+00:00</time>
        <ele>3030.0</ele>
      </trkpt>
      <trkpt lat="45.274509" lon="7.112454">
        <time>2023-04-26T13:46:04+00:00</time>
        <ele>3030.0</ele>
      </trkpt>
      <trkpt lat="45.274516" lon="7.112416">
        <time>2023-04-26T13:46:17+00:00</time>
        <ele>3030.0</ele>
      </trkpt>
      <trkpt lat="45.274544" lon="7.112321">
        <time>2023-04-26T13:46:27+00:00</time>
        <ele>3031.0</ele>
      </trkpt>
      <trkpt lat="45.274563" lon="7.112298">
        <time>2023-04-26T13:46:30+00:00</time>
        <ele>3032.0</ele>
      </trkpt>
      <trkpt lat="45.274573" lon="7.112276">
        <time>2023-04-26T13:46:32+00:00</time>
        <ele>3032.0</ele>
      </trkpt>
      <trkpt lat="45.274632" lon="7.112204">
        <time>2023-04-26T13:46:41+00:00</time>
        <ele>3033.0</ele>
      </trkpt>
      <trkpt lat="45.274645" lon="7.112185">
        <time>2023-04-26T13:46:43+00:00</time>
        <ele>3033.0</ele>
      </trkpt>
      <trkpt lat="45.274702" lon="7.112094">
        <time>2023-04-26T13:46:52+00:00</time>
        <ele>3033.0</ele>
      </trkpt>
      <trkpt lat="45.274746" lon="7.111983">
        <time>2023-04-26T13:47:02+00:00</time>
        <ele>3031.0</ele>
      </trkpt>
      <trkpt lat="45.274768" lon="7.111957">
        <time>2023-04-26T13:47:05+00:00</time>
        <ele>3031.0</ele>
      </trkpt>
      <trkpt lat="45.274805" lon="7.111926">
        <time>2023-04-26T13:47:10+00:00</time>
        <ele>3031.0</ele>
      </trkpt>
      <trkpt lat="45.274867" lon="7.111824">
        <time>2023-04-26T13:47:19+00:00</time>
        <ele>3031.0</ele>
      </trkpt>
      <trkpt lat="45.274906" lon="7.111794">
        <time>2023-04-26T13:47:25+00:00</time>
        <ele>3032.0</ele>
      </trkpt>
      <trkpt lat="45.275029" lon="7.111652">
        <time>2023-04-26T13:47:43+00:00</time>
        <ele>3032.0</ele>
      </trkpt>
      <trkpt lat="45.275172" lon="7.111565">
        <time>2023-04-26T13:48:00+00:00</time>
        <ele>3032.0</ele>
      </trkpt>
      <trkpt lat="45.275201" lon="7.111554">
        <time>2023-04-26T13:48:04+00:00</time>
        <ele>3032.0</ele>
      </trkpt>
      <trkpt lat="45.275245" lon="7.111542">
        <time>2023-04-26T13:48:10+00:00</time>
        <ele>3032.0</ele>
      </trkpt>
      <trkpt lat="45.275266" lon="7.111533">
        <time>2023-04-26T13:48:18+00:00</time>
        <ele>3032.0</ele>
      </trkpt>
      <trkpt lat="45.275275" lon="7.111539">
        <time>2023-04-26T14:00:17+00:00</time>
        <ele>3032.0</ele>
      </trkpt>
      <trkpt lat="45.275297" lon="7.111516">
        <time>2023-04-26T14:00:40+00:00</time>
        <ele>3032.0</ele>
      </trkpt>
      <trkpt lat="45.275317" lon="7.111429">
        <time>2023-04-26T14:00:42+00:00</time>
        <ele>3030.0</ele>
      </trkpt>
      <trkpt lat="45.275297" lon="7.111289">
        <time>2023-04-26T14:00:45+00:00</time>
        <ele>3029.0</ele>
      </trkpt>
      <trkpt lat="45.275287" lon="7.111264">
        <time>2023-04-26T14:02:32+00:00</time>
        <ele>3029.0</ele>
      </trkpt>
      <trkpt lat="45.275282" lon="7.111123">
        <time>2023-04-26T14:02:37+00:00</time>
        <ele>3028.0</ele>
      </trkpt>
      <trkpt lat="45.275298" lon="7.111096">
        <time>2023-04-26T14:02:39+00:00</time>
        <ele>3027.0</ele>
      </trkpt>
      <trkpt lat="45.275325" lon="7.111098">
        <time>2023-04-26T14:02:40+00:00</time>
        <ele>3026.0</ele>
      </trkpt>
      <trkpt lat="45.275362" lon="7.111163">
        <time>2023-04-26T14:02:42+00:00</time>
        <ele>3025.0</ele>
      </trkpt>
      <trkpt lat="45.275426" lon="7.111164">
        <time>2023-04-26T14:03:02+00:00</time>
        <ele>3023.0</ele>
      </trkpt>
      <trkpt lat="45.275464" lon="7.1112">
        <time>2023-04-26T14:03:07+00:00</time>
        <ele>3023.0</ele>
      </trkpt>
      <trkpt lat="45.275724" lon="7.111445">
        <time>2023-04-26T14:03:24+00:00</time>
        <ele>3020.0</ele>
      </trkpt>
      <trkpt lat="45.275841" lon="7.111578">
        <time>2023-04-26T14:03:27+00:00</time>
        <ele>3016.0</ele>
      </trkpt>
      <trkpt lat="45.275947" lon="7.111646">
        <time>2023-04-26T14:03:29+00:00</time>
        <ele>3014.0</ele>
      </trkpt>
      <trkpt lat="45.276006" lon="7.111666">
        <time>2023-04-26T14:03:30+00:00</time>
        <ele>3012.0</ele>
      </trkpt>
      <trkpt lat="45.276643" lon="7.111764">
        <time>2023-04-26T14:03:43+00:00</time>
        <ele>3002.0</ele>
      </trkpt>
      <trkpt lat="45.276943" lon="7.111898">
        <time>2023-04-26T14:03:49+00:00</time>
        <ele>2996.0</ele>
      </trkpt>
      <trkpt lat="45.277067" lon="7.112005">
        <time>2023-04-26T14:03:54+00:00</time>
        <ele>2995.0</ele>
      </trkpt>
      <trkpt lat="45.277085" lon="7.111998">
        <time>2023-04-26T14:04:02+00:00</time>
        <ele>2994.0</ele>
      </trkpt>
      <trkpt lat="45.277141" lon="7.112005">
        <time>2023-04-26T14:04:04+00:00</time>
        <ele>2993.0</ele>
      </trkpt>
      <trkpt lat="45.277351" lon="7.112206">
        <time>2023-04-26T14:04:10+00:00</time>
        <ele>2990.0</ele>
      </trkpt>
      <trkpt lat="45.277388" lon="7.112188">
        <time>2023-04-26T14:04:12+00:00</time>
        <ele>2988.0</ele>
      </trkpt>
      <trkpt lat="45.2774" lon="7.112127">
        <time>2023-04-26T14:04:13+00:00</time>
        <ele>2986.0</ele>
      </trkpt>
      <trkpt lat="45.277367" lon="7.112027">
        <time>2023-04-26T14:04:15+00:00</time>
        <ele>2985.0</ele>
      </trkpt>
      <trkpt lat="45.277407" lon="7.111976">
        <time>2023-04-26T14:04:17+00:00</time>
        <ele>2982.0</ele>
      </trkpt>
      <trkpt lat="45.277629" lon="7.112083">
        <time>2023-04-26T14:04:22+00:00</time>
        <ele>2977.0</ele>
      </trkpt>
      <trkpt lat="45.277646" lon="7.112031">
        <time>2023-04-26T14:04:23+00:00</time>
        <ele>2975.0</ele>
      </trkpt>
      <trkpt lat="45.277625" lon="7.111943">
        <time>2023-04-26T14:04:24+00:00</time>
        <ele>2974.0</ele>
      </trkpt>
      <trkpt lat="45.277565" lon="7.111766">
        <time>2023-04-26T14:04:27+00:00</time>
        <ele>2973.0</ele>
      </trkpt>
      <trkpt lat="45.277571" lon="7.111722">
        <time>2023-04-26T14:04:28+00:00</time>
        <ele>2972.0</ele>
      </trkpt>
      <trkpt lat="45.277606" lon="7.111682">
        <time>2023-04-26T14:04:29+00:00</time>
        <ele>2970.0</ele>
      </trkpt>
      <trkpt lat="45.277658" lon="7.11169">
        <time>2023-04-26T14:04:30+00:00</time>
        <ele>2968.0</ele>
      </trkpt>
      <trkpt lat="45.277789" lon="7.111854">
        <time>2023-04-26T14:04:34+00:00</time>
        <ele>2967.0</ele>
      </trkpt>
      <trkpt lat="45.277818" lon="7.111875">
        <time>2023-04-26T14:04:35+00:00</time>
        <ele>2967.0</ele>
      </trkpt>
      <trkpt lat="45.277855" lon="7.111776">
        <time>2023-04-26T14:04:37+00:00</time>
        <ele>2964.0</ele>
      </trkpt>
      <trkpt lat="45.277846" lon="7.111704">
        <time>2023-04-26T14:04:38+00:00</time>
        <ele>2962.0</ele>
      </trkpt>
      <trkpt lat="45.277806" lon="7.111598">
        <time>2023-04-26T14:04:40+00:00</time>
        <ele>2962.0</ele>
      </trkpt>
      <trkpt lat="45.277781" lon="7.111574">
        <time>2023-04-26T14:04:42+00:00</time>
        <ele>2962.0</ele>
      </trkpt>
      <trkpt lat="45.277773" lon="7.111526">
        <time>2023-04-26T14:04:52+00:00</time>
        <ele>2961.0</ele>
      </trkpt>
      <trkpt lat="45.277753" lon="7.111473">
        <time>2023-04-26T14:04:54+00:00</time>
        <ele>2961.0</ele>
      </trkpt>
      <trkpt lat="45.277764" lon="7.111409">
        <time>2023-04-26T14:04:57+00:00</time>
        <ele>2959.0</ele>
      </trkpt>
      <trkpt lat="45.277809" lon="7.11141">
        <time>2023-04-26T14:04:58+00:00</time>
        <ele>2958.0</ele>
      </trkpt>
      <trkpt lat="45.277936" lon="7.111504">
        <time>2023-04-26T14:05:02+00:00</time>
        <ele>2956.0</ele>
      </trkpt>
      <trkpt lat="45.277979" lon="7.111564">
        <time>2023-04-26T14:05:04+00:00</time>
        <ele>2956.0</ele>
      </trkpt>
      <trkpt lat="45.27801" lon="7.111423">
        <time>2023-04-26T14:05:07+00:00</time>
        <ele>2952.0</ele>
      </trkpt>
      <trkpt lat="45.27797" lon="7.111296">
        <time>2023-04-26T14:05:10+00:00</time>
        <ele>2950.0</ele>
      </trkpt>
      <trkpt lat="45.278016" lon="7.111232">
        <time>2023-04-26T14:05:12+00:00</time>
        <ele>2947.0</ele>
      </trkpt>
      <trkpt lat="45.278051" lon="7.111261">
        <time>2023-04-26T14:05:13+00:00</time>
        <ele>2947.0</ele>
      </trkpt>
      <trkpt lat="45.278095" lon="7.11133">
        <time>2023-04-26T14:05:15+00:00</time>
        <ele>2947.0</ele>
      </trkpt>
      <trkpt lat="45.278165" lon="7.11132">
        <time>2023-04-26T14:05:17+00:00</time>
        <ele>2944.0</ele>
      </trkpt>
      <trkpt lat="45.278389" lon="7.110843">
        <time>2023-04-26T14:05:24+00:00</time>
        <ele>2932.0</ele>
      </trkpt>
      <trkpt lat="45.278506" lon="7.110691">
        <time>2023-04-26T14:05:27+00:00</time>
        <ele>2931.0</ele>
      </trkpt>
      <trkpt lat="45.278575" lon="7.110549">
        <time>2023-04-26T14:05:30+00:00</time>
        <ele>2929.0</ele>
      </trkpt>
      <trkpt lat="45.27873" lon="7.109889">
        <time>2023-04-26T14:05:39+00:00</time>
        <ele>2921.0</ele>
      </trkpt>
      <trkpt lat="45.278743" lon="7.109558">
        <time>2023-04-26T14:05:43+00:00</time>
        <ele>2920.0</ele>
      </trkpt>
      <trkpt lat="45.278726" lon="7.109484">
        <time>2023-04-26T14:05:45+00:00</time>
        <ele>2920.0</ele>
      </trkpt>
      <trkpt lat="45.278804" lon="7.109557">
        <time>2023-04-26T14:05:54+00:00</time>
        <ele>2919.0</ele>
      </trkpt>
      <trkpt lat="45.278905" lon="7.10973">
        <time>2023-04-26T14:05:58+00:00</time>
        <ele>2918.0</ele>
      </trkpt>
      <trkpt lat="45.278936" lon="7.109746">
        <time>2023-04-26T14:05:59+00:00</time>
        <ele>2917.0</ele>
      </trkpt>
      <trkpt lat="45.278971" lon="7.109738">
        <time>2023-04-26T14:06:00+00:00</time>
        <ele>2917.0</ele>
      </trkpt>
      <trkpt lat="45.27902" lon="7.109641">
        <time>2023-04-26T14:06:02+00:00</time>
        <ele>2914.0</ele>
      </trkpt>
      <trkpt lat="45.279022" lon="7.109482">
        <time>2023-04-26T14:06:05+00:00</time>
        <ele>2913.0</ele>
      </trkpt>
      <trkpt lat="45.278993" lon="7.109336">
        <time>2023-04-26T14:06:08+00:00</time>
        <ele>2912.0</ele>
      </trkpt>
      <trkpt lat="45.278963" lon="7.109256">
        <time>2023-04-26T14:06:10+00:00</time>
        <ele>2912.0</ele>
      </trkpt>
      <trkpt lat="45.278971" lon="7.10921">
        <time>2023-04-26T14:06:11+00:00</time>
        <ele>2911.0</ele>
      </trkpt>
      <trkpt lat="45.279015" lon="7.109187">
        <time>2023-04-26T14:06:12+00:00</time>
        <ele>2910.0</ele>
      </trkpt>
      <trkpt lat="45.279108" lon="7.109239">
        <time>2023-04-26T14:06:14+00:00</time>
        <ele>2907.0</ele>
      </trkpt>
      <trkpt lat="45.279202" lon="7.109346">
        <time>2023-04-26T14:06:17+00:00</time>
        <ele>2907.0</ele>
      </trkpt>
      <trkpt lat="45.279224" lon="7.109378">
        <time>2023-04-26T14:06:18+00:00</time>
        <ele>2906.0</ele>
      </trkpt>
      <trkpt lat="45.279246" lon="7.109401">
        <time>2023-04-26T14:06:19+00:00</time>
        <ele>2906.0</ele>
      </trkpt>
      <trkpt lat="45.279269" lon="7.109395">
        <time>2023-04-26T14:06:20+00:00</time>
        <ele>2905.0</ele>
      </trkpt>
      <trkpt lat="45.27928" lon="7.109291">
        <time>2023-04-26T14:06:22+00:00</time>
        <ele>2904.0</ele>
      </trkpt>
      <trkpt lat="45.27924" lon="7.109157">
        <time>2023-04-26T14:06:24+00:00</time>
        <ele>2903.0</ele>
      </trkpt>
      <trkpt lat="45.279151" lon="7.108957">
        <time>2023-04-26T14:06:28+00:00</time>
        <ele>2902.0</ele>
      </trkpt>
      <trkpt lat="45.279155" lon="7.108912">
        <time>2023-04-26T14:06:29+00:00</time>
        <ele>2901.0</ele>
      </trkpt>
      <trkpt lat="45.279194" lon="7.108867">
        <time>2023-04-26T14:06:30+00:00</time>
        <ele>2899.0</ele>
      </trkpt>
      <trkpt lat="45.2793" lon="7.108898">
        <time>2023-04-26T14:06:32+00:00</time>
        <ele>2896.0</ele>
      </trkpt>
      <trkpt lat="45.279411" lon="7.10903">
        <time>2023-04-26T14:06:35+00:00</time>
        <ele>2895.0</ele>
      </trkpt>
      <trkpt lat="45.279457" lon="7.10905">
        <time>2023-04-26T14:06:37+00:00</time>
        <ele>2894.0</ele>
      </trkpt>
      <trkpt lat="45.279472" lon="7.109">
        <time>2023-04-26T14:06:38+00:00</time>
        <ele>2892.0</ele>
      </trkpt>
      <trkpt lat="45.27947" lon="7.108919">
        <time>2023-04-26T14:06:39+00:00</time>
        <ele>2891.0</ele>
      </trkpt>
      <trkpt lat="45.279354" lon="7.108627">
        <time>2023-04-26T14:06:44+00:00</time>
        <ele>2890.0</ele>
      </trkpt>
      <trkpt lat="45.279357" lon="7.108587">
        <time>2023-04-26T14:06:45+00:00</time>
        <ele>2889.0</ele>
      </trkpt>
      <trkpt lat="45.279426" lon="7.108529">
        <time>2023-04-26T14:06:47+00:00</time>
        <ele>2886.0</ele>
      </trkpt>
      <trkpt lat="45.279539" lon="7.108615">
        <time>2023-04-26T14:06:50+00:00</time>
        <ele>2883.0</ele>
      </trkpt>
      <trkpt lat="45.279608" lon="7.108614">
        <time>2023-04-26T14:06:52+00:00</time>
        <ele>2881.0</ele>
      </trkpt>
      <trkpt lat="45.279628" lon="7.108547">
        <time>2023-04-26T14:06:53+00:00</time>
        <ele>2879.0</ele>
      </trkpt>
      <trkpt lat="45.279623" lon="7.108403">
        <time>2023-04-26T14:06:55+00:00</time>
        <ele>2877.0</ele>
      </trkpt>
      <trkpt lat="45.279587" lon="7.108316">
        <time>2023-04-26T14:06:57+00:00</time>
        <ele>2877.0</ele>
      </trkpt>
      <trkpt lat="45.279597" lon="7.108237">
        <time>2023-04-26T14:07:12+00:00</time>
        <ele>2876.0</ele>
      </trkpt>
      <trkpt lat="45.279611" lon="7.108195">
        <time>2023-04-26T14:07:13+00:00</time>
        <ele>2875.0</ele>
      </trkpt>
      <trkpt lat="45.279639" lon="7.108154">
        <time>2023-04-26T14:07:14+00:00</time>
        <ele>2873.0</ele>
      </trkpt>
      <trkpt lat="45.27968" lon="7.108137">
        <time>2023-04-26T14:07:15+00:00</time>
        <ele>2872.0</ele>
      </trkpt>
      <trkpt lat="45.279739" lon="7.108179">
        <time>2023-04-26T14:07:17+00:00</time>
        <ele>2872.0</ele>
      </trkpt>
      <trkpt lat="45.279766" lon="7.108191">
        <time>2023-04-26T14:07:18+00:00</time>
        <ele>2871.0</ele>
      </trkpt>
      <trkpt lat="45.279801" lon="7.108182">
        <time>2023-04-26T14:07:19+00:00</time>
        <ele>2871.0</ele>
      </trkpt>
      <trkpt lat="45.279839" lon="7.108158">
        <time>2023-04-26T14:07:20+00:00</time>
        <ele>2869.0</ele>
      </trkpt>
      <trkpt lat="45.279868" lon="7.108064">
        <time>2023-04-26T14:07:22+00:00</time>
        <ele>2868.0</ele>
      </trkpt>
      <trkpt lat="45.279864" lon="7.108009">
        <time>2023-04-26T14:07:23+00:00</time>
        <ele>2867.0</ele>
      </trkpt>
      <trkpt lat="45.279884" lon="7.107945">
        <time>2023-04-26T14:07:24+00:00</time>
        <ele>2866.0</ele>
      </trkpt>
      <trkpt lat="45.279923" lon="7.107903">
        <time>2023-04-26T14:07:25+00:00</time>
        <ele>2865.0</ele>
      </trkpt>
      <trkpt lat="45.280005" lon="7.10791">
        <time>2023-04-26T14:07:27+00:00</time>
        <ele>2863.0</ele>
      </trkpt>
      <trkpt lat="45.280049" lon="7.1079">
        <time>2023-04-26T14:07:28+00:00</time>
        <ele>2862.0</ele>
      </trkpt>
      <trkpt lat="45.28009" lon="7.107865">
        <time>2023-04-26T14:07:29+00:00</time>
        <ele>2861.0</ele>
      </trkpt>
      <trkpt lat="45.280111" lon="7.107812">
        <time>2023-04-26T14:07:30+00:00</time>
        <ele>2860.0</ele>
      </trkpt>
      <trkpt lat="45.280105" lon="7.10772">
        <time>2023-04-26T14:07:32+00:00</time>
        <ele>2859.0</ele>
      </trkpt>
      <trkpt lat="45.280106" lon="7.107685">
        <time>2023-04-26T14:07:33+00:00</time>
        <ele>2859.0</ele>
      </trkpt>
      <trkpt lat="45.280116" lon="7.107637">
        <time>2023-04-26T14:07:34+00:00</time>
        <ele>2858.0</ele>
      </trkpt>
      <trkpt lat="45.280143" lon="7.107598">
        <time>2023-04-26T14:07:35+00:00</time>
        <ele>2857.0</ele>
      </trkpt>
      <trkpt lat="45.280273" lon="7.107724">
        <time>2023-04-26T14:07:39+00:00</time>
        <ele>2857.0</ele>
      </trkpt>
      <trkpt lat="45.280316" lon="7.107749">
        <time>2023-04-26T14:07:40+00:00</time>
        <ele>2856.0</ele>
      </trkpt>
      <trkpt lat="45.280398" lon="7.107759">
        <time>2023-04-26T14:07:42+00:00</time>
        <ele>2855.0</ele>
      </trkpt>
      <trkpt lat="45.280473" lon="7.107704">
        <time>2023-04-26T14:07:44+00:00</time>
        <ele>2854.0</ele>
      </trkpt>
      <trkpt lat="45.280628" lon="7.10752">
        <time>2023-04-26T14:07:49+00:00</time>
        <ele>2851.0</ele>
      </trkpt>
      <trkpt lat="45.280668" lon="7.107492">
        <time>2023-04-26T14:07:50+00:00</time>
        <ele>2850.0</ele>
      </trkpt>
      <trkpt lat="45.280722" lon="7.107488">
        <time>2023-04-26T14:07:52+00:00</time>
        <ele>2851.0</ele>
      </trkpt>
      <trkpt lat="45.28074" lon="7.10747">
        <time>2023-04-26T14:07:54+00:00</time>
        <ele>2850.0</ele>
      </trkpt>
      <trkpt lat="45.280672" lon="7.107372">
        <time>2023-04-26T14:07:57+00:00</time>
        <ele>2848.0</ele>
      </trkpt>
      <trkpt lat="45.280562" lon="7.10736">
        <time>2023-04-26T14:08:00+00:00</time>
        <ele>2847.0</ele>
      </trkpt>
      <trkpt lat="45.28052" lon="7.107302">
        <time>2023-04-26T14:08:02+00:00</time>
        <ele>2847.0</ele>
      </trkpt>
      <trkpt lat="45.280533" lon="7.107229">
        <time>2023-04-26T14:08:03+00:00</time>
        <ele>2845.0</ele>
      </trkpt>
      <trkpt lat="45.280572" lon="7.107157">
        <time>2023-04-26T14:08:04+00:00</time>
        <ele>2842.0</ele>
      </trkpt>
      <trkpt lat="45.280755" lon="7.107074">
        <time>2023-04-26T14:08:08+00:00</time>
        <ele>2839.0</ele>
      </trkpt>
      <trkpt lat="45.280941" lon="7.107069">
        <time>2023-04-26T14:08:12+00:00</time>
        <ele>2838.0</ele>
      </trkpt>
      <trkpt lat="45.281162" lon="7.107146">
        <time>2023-04-26T14:08:17+00:00</time>
        <ele>2836.0</ele>
      </trkpt>
      <trkpt lat="45.281197" lon="7.107172">
        <time>2023-04-26T14:08:18+00:00</time>
        <ele>2836.0</ele>
      </trkpt>
      <trkpt lat="45.281229" lon="7.107177">
        <time>2023-04-26T14:08:19+00:00</time>
        <ele>2836.0</ele>
      </trkpt>
      <trkpt lat="45.28126" lon="7.107159">
        <time>2023-04-26T14:08:20+00:00</time>
        <ele>2835.0</ele>
      </trkpt>
      <trkpt lat="45.281238" lon="7.107081">
        <time>2023-04-26T14:08:22+00:00</time>
        <ele>2833.0</ele>
      </trkpt>
      <trkpt lat="45.281149" lon="7.10699">
        <time>2023-04-26T14:08:25+00:00</time>
        <ele>2832.0</ele>
      </trkpt>
      <trkpt lat="45.2812" lon="7.106867">
        <time>2023-04-26T14:08:27+00:00</time>
        <ele>2828.0</ele>
      </trkpt>
      <trkpt lat="45.281247" lon="7.106847">
        <time>2023-04-26T14:08:28+00:00</time>
        <ele>2826.0</ele>
      </trkpt>
      <trkpt lat="45.281433" lon="7.106891">
        <time>2023-04-26T14:08:32+00:00</time>
        <ele>2824.0</ele>
      </trkpt>
      <trkpt lat="45.281467" lon="7.106865">
        <time>2023-04-26T14:08:33+00:00</time>
        <ele>2823.0</ele>
      </trkpt>
      <trkpt lat="45.281454" lon="7.106787">
        <time>2023-04-26T14:08:35+00:00</time>
        <ele>2821.0</ele>
      </trkpt>
      <trkpt lat="45.281366" lon="7.106715">
        <time>2023-04-26T14:08:37+00:00</time>
        <ele>2820.0</ele>
      </trkpt>
      <trkpt lat="45.281365" lon="7.106668">
        <time>2023-04-26T14:08:47+00:00</time>
        <ele>2819.0</ele>
      </trkpt>
      <trkpt lat="45.281392" lon="7.106622">
        <time>2023-04-26T14:08:48+00:00</time>
        <ele>2817.0</ele>
      </trkpt>
      <trkpt lat="45.281569" lon="7.10661">
        <time>2023-04-26T14:08:52+00:00</time>
        <ele>2815.0</ele>
      </trkpt>
      <trkpt lat="45.281598" lon="7.106624">
        <time>2023-04-26T14:08:53+00:00</time>
        <ele>2815.0</ele>
      </trkpt>
      <trkpt lat="45.281624" lon="7.106634">
        <time>2023-04-26T14:08:54+00:00</time>
        <ele>2814.0</ele>
      </trkpt>
      <trkpt lat="45.281655" lon="7.106625">
        <time>2023-04-26T14:08:55+00:00</time>
        <ele>2813.0</ele>
      </trkpt>
      <trkpt lat="45.281685" lon="7.106531">
        <time>2023-04-26T14:08:57+00:00</time>
        <ele>2810.0</ele>
      </trkpt>
      <trkpt lat="45.281658" lon="7.106478">
        <time>2023-04-26T14:08:58+00:00</time>
        <ele>2809.0</ele>
      </trkpt>
      <trkpt lat="45.281626" lon="7.106448">
        <time>2023-04-26T14:08:59+00:00</time>
        <ele>2809.0</ele>
      </trkpt>
      <trkpt lat="45.281599" lon="7.106428">
        <time>2023-04-26T14:09:00+00:00</time>
        <ele>2809.0</ele>
      </trkpt>
      <trkpt lat="45.281593" lon="7.106383">
        <time>2023-04-26T14:09:01+00:00</time>
        <ele>2808.0</ele>
      </trkpt>
      <trkpt lat="45.281676" lon="7.106316">
        <time>2023-04-26T14:09:03+00:00</time>
        <ele>2805.0</ele>
      </trkpt>
      <trkpt lat="45.281726" lon="7.106323">
        <time>2023-04-26T14:09:04+00:00</time>
        <ele>2804.0</ele>
      </trkpt>
      <trkpt lat="45.281761" lon="7.106346">
        <time>2023-04-26T14:09:05+00:00</time>
        <ele>2804.0</ele>
      </trkpt>
      <trkpt lat="45.281784" lon="7.10637">
        <time>2023-04-26T14:09:06+00:00</time>
        <ele>2804.0</ele>
      </trkpt>
      <trkpt lat="45.281807" lon="7.106376">
        <time>2023-04-26T14:09:08+00:00</time>
        <ele>2804.0</ele>
      </trkpt>
      <trkpt lat="45.281827" lon="7.106339">
        <time>2023-04-26T14:09:09+00:00</time>
        <ele>2803.0</ele>
      </trkpt>
      <trkpt lat="45.281816" lon="7.106294">
        <time>2023-04-26T14:09:10+00:00</time>
        <ele>2802.0</ele>
      </trkpt>
      <trkpt lat="45.281775" lon="7.106231">
        <time>2023-04-26T14:09:12+00:00</time>
        <ele>2802.0</ele>
      </trkpt>
      <trkpt lat="45.281771" lon="7.106186">
        <time>2023-04-26T14:09:13+00:00</time>
        <ele>2801.0</ele>
      </trkpt>
      <trkpt lat="45.281799" lon="7.106135">
        <time>2023-04-26T14:09:14+00:00</time>
        <ele>2800.0</ele>
      </trkpt>
      <trkpt lat="45.281847" lon="7.106108">
        <time>2023-04-26T14:09:15+00:00</time>
        <ele>2798.0</ele>
      </trkpt>
      <trkpt lat="45.281917" lon="7.106157">
        <time>2023-04-26T14:09:17+00:00</time>
        <ele>2798.0</ele>
      </trkpt>
      <trkpt lat="45.281959" lon="7.106157">
        <time>2023-04-26T14:09:19+00:00</time>
        <ele>2797.0</ele>
      </trkpt>
      <trkpt lat="45.281985" lon="7.106118">
        <time>2023-04-26T14:09:20+00:00</time>
        <ele>2795.0</ele>
      </trkpt>
      <trkpt lat="45.281937" lon="7.106022">
        <time>2023-04-26T14:09:22+00:00</time>
        <ele>2794.0</ele>
      </trkpt>
      <trkpt lat="45.281909" lon="7.105995">
        <time>2023-04-26T14:09:23+00:00</time>
        <ele>2794.0</ele>
      </trkpt>
      <trkpt lat="45.281907" lon="7.105953">
        <time>2023-04-26T14:09:24+00:00</time>
        <ele>2793.0</ele>
      </trkpt>
      <trkpt lat="45.28193" lon="7.105897">
        <time>2023-04-26T14:09:25+00:00</time>
        <ele>2790.0</ele>
      </trkpt>
      <trkpt lat="45.282005" lon="7.105898">
        <time>2023-04-26T14:09:27+00:00</time>
        <ele>2788.0</ele>
      </trkpt>
      <trkpt lat="45.282222" lon="7.106134">
        <time>2023-04-26T14:09:33+00:00</time>
        <ele>2785.0</ele>
      </trkpt>
      <trkpt lat="45.282242" lon="7.106162">
        <time>2023-04-26T14:09:34+00:00</time>
        <ele>2784.0</ele>
      </trkpt>
      <trkpt lat="45.282279" lon="7.106109">
        <time>2023-04-26T14:09:52+00:00</time>
        <ele>2781.0</ele>
      </trkpt>
      <trkpt lat="45.282251" lon="7.106003">
        <time>2023-04-26T14:09:54+00:00</time>
        <ele>2781.0</ele>
      </trkpt>
      <trkpt lat="45.282228" lon="7.105957">
        <time>2023-04-26T14:09:55+00:00</time>
        <ele>2781.0</ele>
      </trkpt>
      <trkpt lat="45.282225" lon="7.105885">
        <time>2023-04-26T14:09:57+00:00</time>
        <ele>2779.0</ele>
      </trkpt>
      <trkpt lat="45.282265" lon="7.105874">
        <time>2023-04-26T14:09:58+00:00</time>
        <ele>2777.0</ele>
      </trkpt>
      <trkpt lat="45.282353" lon="7.105887">
        <time>2023-04-26T14:10:00+00:00</time>
        <ele>2774.0</ele>
      </trkpt>
      <trkpt lat="45.282386" lon="7.105803">
        <time>2023-04-26T14:10:02+00:00</time>
        <ele>2772.0</ele>
      </trkpt>
      <trkpt lat="45.282338" lon="7.105703">
        <time>2023-04-26T14:10:04+00:00</time>
        <ele>2772.0</ele>
      </trkpt>
      <trkpt lat="45.282347" lon="7.105628">
        <time>2023-04-26T14:10:05+00:00</time>
        <ele>2770.0</ele>
      </trkpt>
      <trkpt lat="45.282544" lon="7.105498">
        <time>2023-04-26T14:10:10+00:00</time>
        <ele>2763.0</ele>
      </trkpt>
      <trkpt lat="45.28251" lon="7.105151">
        <time>2023-04-26T14:10:16+00:00</time>
        <ele>2760.0</ele>
      </trkpt>
      <trkpt lat="45.2825" lon="7.10512">
        <time>2023-04-26T14:10:17+00:00</time>
        <ele>2760.0</ele>
      </trkpt>
      <trkpt lat="45.28248" lon="7.105016">
        <time>2023-04-26T14:10:20+00:00</time>
        <ele>2760.0</ele>
      </trkpt>
      <trkpt lat="45.282415" lon="7.104859">
        <time>2023-04-26T14:10:23+00:00</time>
        <ele>2758.0</ele>
      </trkpt>
      <trkpt lat="45.28235" lon="7.104753">
        <time>2023-04-26T14:10:26+00:00</time>
        <ele>2757.0</ele>
      </trkpt>
      <trkpt lat="45.28236" lon="7.104707">
        <time>2023-04-26T14:10:27+00:00</time>
        <ele>2756.0</ele>
      </trkpt>
      <trkpt lat="45.282401" lon="7.104672">
        <time>2023-04-26T14:10:28+00:00</time>
        <ele>2755.0</ele>
      </trkpt>
      <trkpt lat="45.282456" lon="7.104669">
        <time>2023-04-26T14:10:29+00:00</time>
        <ele>2754.0</ele>
      </trkpt>
      <trkpt lat="45.282506" lon="7.104673">
        <time>2023-04-26T14:10:30+00:00</time>
        <ele>2753.0</ele>
      </trkpt>
      <trkpt lat="45.28261" lon="7.104738">
        <time>2023-04-26T14:10:33+00:00</time>
        <ele>2752.0</ele>
      </trkpt>
      <trkpt lat="45.282652" lon="7.104783">
        <time>2023-04-26T14:10:35+00:00</time>
        <ele>2752.0</ele>
      </trkpt>
      <trkpt lat="45.282698" lon="7.104755">
        <time>2023-04-26T14:10:37+00:00</time>
        <ele>2750.0</ele>
      </trkpt>
      <trkpt lat="45.282707" lon="7.104695">
        <time>2023-04-26T14:10:38+00:00</time>
        <ele>2749.0</ele>
      </trkpt>
      <trkpt lat="45.282709" lon="7.104632">
        <time>2023-04-26T14:10:39+00:00</time>
        <ele>2748.0</ele>
      </trkpt>
      <trkpt lat="45.2827" lon="7.104585">
        <time>2023-04-26T14:10:40+00:00</time>
        <ele>2747.0</ele>
      </trkpt>
      <trkpt lat="45.282696" lon="7.104505">
        <time>2023-04-26T14:10:42+00:00</time>
        <ele>2746.0</ele>
      </trkpt>
      <trkpt lat="45.282735" lon="7.104477">
        <time>2023-04-26T14:10:43+00:00</time>
        <ele>2745.0</ele>
      </trkpt>
      <trkpt lat="45.282774" lon="7.104489">
        <time>2023-04-26T14:10:44+00:00</time>
        <ele>2744.0</ele>
      </trkpt>
      <trkpt lat="45.282929" lon="7.104812">
        <time>2023-04-26T14:10:50+00:00</time>
        <ele>2742.0</ele>
      </trkpt>
      <trkpt lat="45.282981" lon="7.104862">
        <time>2023-04-26T14:10:52+00:00</time>
        <ele>2741.0</ele>
      </trkpt>
      <trkpt lat="45.283011" lon="7.104824">
        <time>2023-04-26T14:10:53+00:00</time>
        <ele>2739.0</ele>
      </trkpt>
      <trkpt lat="45.283021" lon="7.104754">
        <time>2023-04-26T14:10:54+00:00</time>
        <ele>2738.0</ele>
      </trkpt>
      <trkpt lat="45.283006" lon="7.104538">
        <time>2023-04-26T14:10:57+00:00</time>
        <ele>2736.0</ele>
      </trkpt>
      <trkpt lat="45.282993" lon="7.104483">
        <time>2023-04-26T14:10:58+00:00</time>
        <ele>2736.0</ele>
      </trkpt>
      <trkpt lat="45.282971" lon="7.104442">
        <time>2023-04-26T14:10:59+00:00</time>
        <ele>2736.0</ele>
      </trkpt>
      <trkpt lat="45.28296" lon="7.104407">
        <time>2023-04-26T14:11:00+00:00</time>
        <ele>2736.0</ele>
      </trkpt>
      <trkpt lat="45.282995" lon="7.10432">
        <time>2023-04-26T14:11:02+00:00</time>
        <ele>2733.0</ele>
      </trkpt>
      <trkpt lat="45.283045" lon="7.104313">
        <time>2023-04-26T14:11:03+00:00</time>
        <ele>2731.0</ele>
      </trkpt>
      <trkpt lat="45.283087" lon="7.104344">
        <time>2023-04-26T14:11:04+00:00</time>
        <ele>2731.0</ele>
      </trkpt>
      <trkpt lat="45.283121" lon="7.104379">
        <time>2023-04-26T14:11:05+00:00</time>
        <ele>2730.0</ele>
      </trkpt>
      <trkpt lat="45.283174" lon="7.104421">
        <time>2023-04-26T14:11:07+00:00</time>
        <ele>2730.0</ele>
      </trkpt>
      <trkpt lat="45.283215" lon="7.104387">
        <time>2023-04-26T14:11:09+00:00</time>
        <ele>2728.0</ele>
      </trkpt>
      <trkpt lat="45.283224" lon="7.104354">
        <time>2023-04-26T14:11:10+00:00</time>
        <ele>2727.0</ele>
      </trkpt>
      <trkpt lat="45.283158" lon="7.104207">
        <time>2023-04-26T14:11:13+00:00</time>
        <ele>2726.0</ele>
      </trkpt>
      <trkpt lat="45.283093" lon="7.104129">
        <time>2023-04-26T14:11:15+00:00</time>
        <ele>2726.0</ele>
      </trkpt>
      <trkpt lat="45.283083" lon="7.104036">
        <time>2023-04-26T14:11:17+00:00</time>
        <ele>2724.0</ele>
      </trkpt>
      <trkpt lat="45.283101" lon="7.103976">
        <time>2023-04-26T14:11:18+00:00</time>
        <ele>2722.0</ele>
      </trkpt>
      <trkpt lat="45.283146" lon="7.103953">
        <time>2023-04-26T14:11:19+00:00</time>
        <ele>2721.0</ele>
      </trkpt>
      <trkpt lat="45.283391" lon="7.104142">
        <time>2023-04-26T14:11:25+00:00</time>
        <ele>2719.0</ele>
      </trkpt>
      <trkpt lat="45.283427" lon="7.104076">
        <time>2023-04-26T14:11:37+00:00</time>
        <ele>2717.0</ele>
      </trkpt>
      <trkpt lat="45.283366" lon="7.103979">
        <time>2023-04-26T14:11:39+00:00</time>
        <ele>2717.0</ele>
      </trkpt>
      <trkpt lat="45.283334" lon="7.103935">
        <time>2023-04-26T14:11:40+00:00</time>
        <ele>2716.0</ele>
      </trkpt>
      <trkpt lat="45.28329" lon="7.103869">
        <time>2023-04-26T14:11:42+00:00</time>
        <ele>2717.0</ele>
      </trkpt>
      <trkpt lat="45.283276" lon="7.103784">
        <time>2023-04-26T14:11:44+00:00</time>
        <ele>2716.0</ele>
      </trkpt>
      <trkpt lat="45.283272" lon="7.103741">
        <time>2023-04-26T14:11:45+00:00</time>
        <ele>2715.0</ele>
      </trkpt>
      <trkpt lat="45.283304" lon="7.10365">
        <time>2023-04-26T14:11:47+00:00</time>
        <ele>2713.0</ele>
      </trkpt>
      <trkpt lat="45.283345" lon="7.103615">
        <time>2023-04-26T14:11:48+00:00</time>
        <ele>2711.0</ele>
      </trkpt>
      <trkpt lat="45.283436" lon="7.103603">
        <time>2023-04-26T14:11:50+00:00</time>
        <ele>2708.0</ele>
      </trkpt>
      <trkpt lat="45.28356" lon="7.103639">
        <time>2023-04-26T14:11:54+00:00</time>
        <ele>2708.0</ele>
      </trkpt>
      <trkpt lat="45.283593" lon="7.103604">
        <time>2023-04-26T14:11:56+00:00</time>
        <ele>2707.0</ele>
      </trkpt>
      <trkpt lat="45.283585" lon="7.103558">
        <time>2023-04-26T14:11:57+00:00</time>
        <ele>2706.0</ele>
      </trkpt>
      <trkpt lat="45.283504" lon="7.103491">
        <time>2023-04-26T14:12:00+00:00</time>
        <ele>2706.0</ele>
      </trkpt>
      <trkpt lat="45.28343" lon="7.103426">
        <time>2023-04-26T14:12:03+00:00</time>
        <ele>2705.0</ele>
      </trkpt>
      <trkpt lat="45.283415" lon="7.103387">
        <time>2023-04-26T14:12:04+00:00</time>
        <ele>2705.0</ele>
      </trkpt>
      <trkpt lat="45.283427" lon="7.103334">
        <time>2023-04-26T14:12:05+00:00</time>
        <ele>2704.0</ele>
      </trkpt>
      <trkpt lat="45.283513" lon="7.103301">
        <time>2023-04-26T14:12:07+00:00</time>
        <ele>2702.0</ele>
      </trkpt>
      <trkpt lat="45.283601" lon="7.103334">
        <time>2023-04-26T14:12:10+00:00</time>
        <ele>2703.0</ele>
      </trkpt>
      <trkpt lat="45.283621" lon="7.103242">
        <time>2023-04-26T14:12:12+00:00</time>
        <ele>2700.0</ele>
      </trkpt>
      <trkpt lat="45.283594" lon="7.103196">
        <time>2023-04-26T14:12:13+00:00</time>
        <ele>2699.0</ele>
      </trkpt>
      <trkpt lat="45.2835" lon="7.10315">
        <time>2023-04-26T14:12:15+00:00</time>
        <ele>2698.0</ele>
      </trkpt>
      <trkpt lat="45.28342" lon="7.103126">
        <time>2023-04-26T14:12:17+00:00</time>
        <ele>2698.0</ele>
      </trkpt>
      <trkpt lat="45.283404" lon="7.103115">
        <time>2023-04-26T14:12:28+00:00</time>
        <ele>2699.0</ele>
      </trkpt>
      <trkpt lat="45.283401" lon="7.103074">
        <time>2023-04-26T14:12:30+00:00</time>
        <ele>2698.0</ele>
      </trkpt>
      <trkpt lat="45.283474" lon="7.103031">
        <time>2023-04-26T14:12:32+00:00</time>
        <ele>2695.0</ele>
      </trkpt>
      <trkpt lat="45.283505" lon="7.103047">
        <time>2023-04-26T14:12:33+00:00</time>
        <ele>2695.0</ele>
      </trkpt>
      <trkpt lat="45.283526" lon="7.103029">
        <time>2023-04-26T14:12:35+00:00</time>
        <ele>2694.0</ele>
      </trkpt>
      <trkpt lat="45.283511" lon="7.102942">
        <time>2023-04-26T14:12:37+00:00</time>
        <ele>2691.0</ele>
      </trkpt>
      <trkpt lat="45.283482" lon="7.102924">
        <time>2023-04-26T14:12:38+00:00</time>
        <ele>2691.0</ele>
      </trkpt>
      <trkpt lat="45.283488" lon="7.10286">
        <time>2023-04-26T14:12:40+00:00</time>
        <ele>2688.0</ele>
      </trkpt>
      <trkpt lat="45.283563" lon="7.102861">
        <time>2023-04-26T14:12:42+00:00</time>
        <ele>2687.0</ele>
      </trkpt>
      <trkpt lat="45.283581" lon="7.102881">
        <time>2023-04-26T14:12:43+00:00</time>
        <ele>2687.0</ele>
      </trkpt>
      <trkpt lat="45.283609" lon="7.10286">
        <time>2023-04-26T14:12:45+00:00</time>
        <ele>2686.0</ele>
      </trkpt>
      <trkpt lat="45.283591" lon="7.102753">
        <time>2023-04-26T14:12:47+00:00</time>
        <ele>2682.0</ele>
      </trkpt>
      <trkpt lat="45.283563" lon="7.102714">
        <time>2023-04-26T14:12:48+00:00</time>
        <ele>2680.0</ele>
      </trkpt>
      <trkpt lat="45.283502" lon="7.102681">
        <time>2023-04-26T14:12:50+00:00</time>
        <ele>2680.0</ele>
      </trkpt>
      <trkpt lat="45.283508" lon="7.102614">
        <time>2023-04-26T14:12:52+00:00</time>
        <ele>2677.0</ele>
      </trkpt>
      <trkpt lat="45.283543" lon="7.102609">
        <time>2023-04-26T14:12:53+00:00</time>
        <ele>2676.0</ele>
      </trkpt>
      <trkpt lat="45.283584" lon="7.102628">
        <time>2023-04-26T14:12:54+00:00</time>
        <ele>2676.0</ele>
      </trkpt>
      <trkpt lat="45.28361" lon="7.102655">
        <time>2023-04-26T14:12:55+00:00</time>
        <ele>2677.0</ele>
      </trkpt>
      <trkpt lat="45.283633" lon="7.102622">
        <time>2023-04-26T14:12:57+00:00</time>
        <ele>2675.0</ele>
      </trkpt>
      <trkpt lat="45.283611" lon="7.10255">
        <time>2023-04-26T14:12:58+00:00</time>
        <ele>2672.0</ele>
      </trkpt>
      <trkpt lat="45.283572" lon="7.102488">
        <time>2023-04-26T14:12:59+00:00</time>
        <ele>2670.0</ele>
      </trkpt>
      <trkpt lat="45.283495" lon="7.102429">
        <time>2023-04-26T14:13:02+00:00</time>
        <ele>2669.0</ele>
      </trkpt>
      <trkpt lat="45.283523" lon="7.102351">
        <time>2023-04-26T14:13:04+00:00</time>
        <ele>2665.0</ele>
      </trkpt>
      <trkpt lat="45.283572" lon="7.102336">
        <time>2023-04-26T14:13:05+00:00</time>
        <ele>2664.0</ele>
      </trkpt>
      <trkpt lat="45.28364" lon="7.102378">
        <time>2023-04-26T14:13:07+00:00</time>
        <ele>2664.0</ele>
      </trkpt>
      <trkpt lat="45.283666" lon="7.102407">
        <time>2023-04-26T14:13:08+00:00</time>
        <ele>2665.0</ele>
      </trkpt>
      <trkpt lat="45.283689" lon="7.102423">
        <time>2023-04-26T14:13:09+00:00</time>
        <ele>2665.0</ele>
      </trkpt>
      <trkpt lat="45.283685" lon="7.102261">
        <time>2023-04-26T14:13:12+00:00</time>
        <ele>2658.0</ele>
      </trkpt>
      <trkpt lat="45.283624" lon="7.102201">
        <time>2023-04-26T14:13:14+00:00</time>
        <ele>2658.0</ele>
      </trkpt>
      <trkpt lat="45.283591" lon="7.102186">
        <time>2023-04-26T14:13:15+00:00</time>
        <ele>2658.0</ele>
      </trkpt>
      <trkpt lat="45.283547" lon="7.102155">
        <time>2023-04-26T14:13:17+00:00</time>
        <ele>2657.0</ele>
      </trkpt>
      <trkpt lat="45.283535" lon="7.102113">
        <time>2023-04-26T14:13:18+00:00</time>
        <ele>2655.0</ele>
      </trkpt>
      <trkpt lat="45.28354" lon="7.102034">
        <time>2023-04-26T14:13:19+00:00</time>
        <ele>2652.0</ele>
      </trkpt>
      <trkpt lat="45.283573" lon="7.101973">
        <time>2023-04-26T14:13:20+00:00</time>
        <ele>2650.0</ele>
      </trkpt>
      <trkpt lat="45.283718" lon="7.102062">
        <time>2023-04-26T14:13:24+00:00</time>
        <ele>2650.0</ele>
      </trkpt>
      <trkpt lat="45.283742" lon="7.102051">
        <time>2023-04-26T14:13:25+00:00</time>
        <ele>2649.0</ele>
      </trkpt>
      <trkpt lat="45.283749" lon="7.101936">
        <time>2023-04-26T14:13:27+00:00</time>
        <ele>2646.0</ele>
      </trkpt>
      <trkpt lat="45.283729" lon="7.101899">
        <time>2023-04-26T14:13:28+00:00</time>
        <ele>2646.0</ele>
      </trkpt>
      <trkpt lat="45.283703" lon="7.101887">
        <time>2023-04-26T14:13:29+00:00</time>
        <ele>2646.0</ele>
      </trkpt>
      <trkpt lat="45.283688" lon="7.101871">
        <time>2023-04-26T14:13:57+00:00</time>
        <ele>2646.0</ele>
      </trkpt>
      <trkpt lat="45.283664" lon="7.101843">
        <time>2023-04-26T14:13:59+00:00</time>
        <ele>2645.0</ele>
      </trkpt>
      <trkpt lat="45.283643" lon="7.101828">
        <time>2023-04-26T14:14:00+00:00</time>
        <ele>2645.0</ele>
      </trkpt>
      <trkpt lat="45.28354" lon="7.101753">
        <time>2023-04-26T14:14:03+00:00</time>
        <ele>2646.0</ele>
      </trkpt>
      <trkpt lat="45.283544" lon="7.101698">
        <time>2023-04-26T14:14:05+00:00</time>
        <ele>2646.0</ele>
      </trkpt>
      <trkpt lat="45.283705" lon="7.101511">
        <time>2023-04-26T14:14:10+00:00</time>
        <ele>2640.0</ele>
      </trkpt>
      <trkpt lat="45.283747" lon="7.101366">
        <time>2023-04-26T14:14:14+00:00</time>
        <ele>2638.0</ele>
      </trkpt>
      <trkpt lat="45.283813" lon="7.101456">
        <time>2023-04-26T14:14:17+00:00</time>
        <ele>2635.0</ele>
      </trkpt>
      <trkpt lat="45.283832" lon="7.101555">
        <time>2023-04-26T14:14:19+00:00</time>
        <ele>2636.0</ele>
      </trkpt>
      <trkpt lat="45.283852" lon="7.101522">
        <time>2023-04-26T14:14:26+00:00</time>
        <ele>2635.0</ele>
      </trkpt>
      <trkpt lat="45.283861" lon="7.101484">
        <time>2023-04-26T14:14:27+00:00</time>
        <ele>2634.0</ele>
      </trkpt>
      <trkpt lat="45.283859" lon="7.101422">
        <time>2023-04-26T14:14:28+00:00</time>
        <ele>2634.0</ele>
      </trkpt>
      <trkpt lat="45.28385" lon="7.101322">
        <time>2023-04-26T14:14:30+00:00</time>
        <ele>2633.0</ele>
      </trkpt>
      <trkpt lat="45.283876" lon="7.101268">
        <time>2023-04-26T14:14:32+00:00</time>
        <ele>2632.0</ele>
      </trkpt>
      <trkpt lat="45.283907" lon="7.101302">
        <time>2023-04-26T14:14:33+00:00</time>
        <ele>2630.0</ele>
      </trkpt>
      <trkpt lat="45.283936" lon="7.101365">
        <time>2023-04-26T14:14:34+00:00</time>
        <ele>2630.0</ele>
      </trkpt>
      <trkpt lat="45.283961" lon="7.101403">
        <time>2023-04-26T14:14:35+00:00</time>
        <ele>2630.0</ele>
      </trkpt>
      <trkpt lat="45.283994" lon="7.101374">
        <time>2023-04-26T14:14:38+00:00</time>
        <ele>2628.0</ele>
      </trkpt>
      <trkpt lat="45.284308" lon="7.101431">
        <time>2023-04-26T14:14:45+00:00</time>
        <ele>2621.0</ele>
      </trkpt>
      <trkpt lat="45.284297" lon="7.101334">
        <time>2023-04-26T14:14:47+00:00</time>
        <ele>2617.0</ele>
      </trkpt>
      <trkpt lat="45.284251" lon="7.101293">
        <time>2023-04-26T14:14:48+00:00</time>
        <ele>2617.0</ele>
      </trkpt>
      <trkpt lat="45.284219" lon="7.101263">
        <time>2023-04-26T14:14:49+00:00</time>
        <ele>2617.0</ele>
      </trkpt>
      <trkpt lat="45.28419" lon="7.101225">
        <time>2023-04-26T14:14:50+00:00</time>
        <ele>2616.0</ele>
      </trkpt>
      <trkpt lat="45.284193" lon="7.10108">
        <time>2023-04-26T14:14:53+00:00</time>
        <ele>2615.0</ele>
      </trkpt>
      <trkpt lat="45.284231" lon="7.101088">
        <time>2023-04-26T14:14:57+00:00</time>
        <ele>2613.0</ele>
      </trkpt>
      <trkpt lat="45.284317" lon="7.101166">
        <time>2023-04-26T14:14:59+00:00</time>
        <ele>2611.0</ele>
      </trkpt>
      <trkpt lat="45.284347" lon="7.101161">
        <time>2023-04-26T14:15:00+00:00</time>
        <ele>2610.0</ele>
      </trkpt>
      <trkpt lat="45.284384" lon="7.101142">
        <time>2023-04-26T14:15:02+00:00</time>
        <ele>2608.0</ele>
      </trkpt>
      <trkpt lat="45.284386" lon="7.1011">
        <time>2023-04-26T14:15:11+00:00</time>
        <ele>2607.0</ele>
      </trkpt>
      <trkpt lat="45.28437" lon="7.10106">
        <time>2023-04-26T14:15:12+00:00</time>
        <ele>2607.0</ele>
      </trkpt>
      <trkpt lat="45.284339" lon="7.100999">
        <time>2023-04-26T14:15:13+00:00</time>
        <ele>2607.0</ele>
      </trkpt>
      <trkpt lat="45.28432" lon="7.100954">
        <time>2023-04-26T14:15:14+00:00</time>
        <ele>2607.0</ele>
      </trkpt>
      <trkpt lat="45.284329" lon="7.10091">
        <time>2023-04-26T14:15:15+00:00</time>
        <ele>2607.0</ele>
      </trkpt>
      <trkpt lat="45.28451" lon="7.100677">
        <time>2023-04-26T14:16:07+00:00</time>
        <ele>2597.0</ele>
      </trkpt>
      <trkpt lat="45.284545" lon="7.100665">
        <time>2023-04-26T14:16:13+00:00</time>
        <ele>2595.0</ele>
      </trkpt>
      <trkpt lat="45.284588" lon="7.100688">
        <time>2023-04-26T14:16:15+00:00</time>
        <ele>2593.0</ele>
      </trkpt>
      <trkpt lat="45.284623" lon="7.100818">
        <time>2023-04-26T14:16:17+00:00</time>
        <ele>2594.0</ele>
      </trkpt>
      <trkpt lat="45.284656" lon="7.100806">
        <time>2023-04-26T14:16:22+00:00</time>
        <ele>2593.0</ele>
      </trkpt>
      <trkpt lat="45.284704" lon="7.100805">
        <time>2023-04-26T14:16:24+00:00</time>
        <ele>2591.0</ele>
      </trkpt>
      <trkpt lat="45.284702" lon="7.100766">
        <time>2023-04-26T14:16:28+00:00</time>
        <ele>2591.0</ele>
      </trkpt>
      <trkpt lat="45.284726" lon="7.100764">
        <time>2023-04-26T14:16:32+00:00</time>
        <ele>2590.0</ele>
      </trkpt>
      <trkpt lat="45.284764" lon="7.100784">
        <time>2023-04-26T14:16:37+00:00</time>
        <ele>2589.0</ele>
      </trkpt>
      <trkpt lat="45.284827" lon="7.100686">
        <time>2023-04-26T14:16:42+00:00</time>
        <ele>2583.0</ele>
      </trkpt>
      <trkpt lat="45.284816" lon="7.100639">
        <time>2023-04-26T14:16:44+00:00</time>
        <ele>2584.0</ele>
      </trkpt>
      <trkpt lat="45.284864" lon="7.100684">
        <time>2023-04-26T14:16:52+00:00</time>
        <ele>2581.0</ele>
      </trkpt>
      <trkpt lat="45.285268" lon="7.10018">
        <time>2023-04-26T14:17:04+00:00</time>
        <ele>2567.0</ele>
      </trkpt>
      <trkpt lat="45.28579" lon="7.09977">
        <time>2023-04-26T14:17:15+00:00</time>
        <ele>2558.0</ele>
      </trkpt>
      <trkpt lat="45.285837" lon="7.099706">
        <time>2023-04-26T14:17:17+00:00</time>
        <ele>2558.0</ele>
      </trkpt>
      <trkpt lat="45.285841" lon="7.099674">
        <time>2023-04-26T14:17:22+00:00</time>
        <ele>2559.0</ele>
      </trkpt>
      <trkpt lat="45.285876" lon="7.099654">
        <time>2023-04-26T14:17:33+00:00</time>
        <ele>2558.0</ele>
      </trkpt>
      <trkpt lat="45.285897" lon="7.099629">
        <time>2023-04-26T14:17:38+00:00</time>
        <ele>2557.0</ele>
      </trkpt>
      <trkpt lat="45.285929" lon="7.099627">
        <time>2023-04-26T14:17:40+00:00</time>
        <ele>2556.0</ele>
      </trkpt>
      <trkpt lat="45.286037" lon="7.099555">
        <time>2023-04-26T14:17:48+00:00</time>
        <ele>2552.0</ele>
      </trkpt>
      <trkpt lat="45.286194" lon="7.099548">
        <time>2023-04-26T14:17:54+00:00</time>
        <ele>2548.0</ele>
      </trkpt>
      <trkpt lat="45.286632" lon="7.099396">
        <time>2023-04-26T14:18:06+00:00</time>
        <ele>2542.0</ele>
      </trkpt>
      <trkpt lat="45.286861" lon="7.099446">
        <time>2023-04-26T14:18:11+00:00</time>
        <ele>2541.0</ele>
      </trkpt>
      <trkpt lat="45.286887" lon="7.099466">
        <time>2023-04-26T14:18:13+00:00</time>
        <ele>2542.0</ele>
      </trkpt>
      <trkpt lat="45.286869" lon="7.099475">
        <time>2023-04-26T14:18:25+00:00</time>
        <ele>2543.0</ele>
      </trkpt>
      <trkpt lat="45.286906" lon="7.099443">
        <time>2023-04-26T14:18:28+00:00</time>
        <ele>2540.0</ele>
      </trkpt>
      <trkpt lat="45.286934" lon="7.09945">
        <time>2023-04-26T14:18:30+00:00</time>
        <ele>2540.0</ele>
      </trkpt>
      <trkpt lat="45.286927" lon="7.099414">
        <time>2023-04-26T14:18:33+00:00</time>
        <ele>2538.0</ele>
      </trkpt>
      <trkpt lat="45.286955" lon="7.09939">
        <time>2023-04-26T14:18:34+00:00</time>
        <ele>2537.0</ele>
      </trkpt>
      <trkpt lat="45.286988" lon="7.099373">
        <time>2023-04-26T14:18:36+00:00</time>
        <ele>2535.0</ele>
      </trkpt>
      <trkpt lat="45.287164" lon="7.09933">
        <time>2023-04-26T14:18:41+00:00</time>
        <ele>2530.0</ele>
      </trkpt>
      <trkpt lat="45.28732" lon="7.099336">
        <time>2023-04-26T14:18:44+00:00</time>
        <ele>2528.0</ele>
      </trkpt>
      <trkpt lat="45.287399" lon="7.099325">
        <time>2023-04-26T14:18:46+00:00</time>
        <ele>2526.0</ele>
      </trkpt>
      <trkpt lat="45.287563" lon="7.099331">
        <time>2023-04-26T14:18:50+00:00</time>
        <ele>2524.0</ele>
      </trkpt>
      <trkpt lat="45.287682" lon="7.099305">
        <time>2023-04-26T14:18:53+00:00</time>
        <ele>2521.0</ele>
      </trkpt>
      <trkpt lat="45.287816" lon="7.099334">
        <time>2023-04-26T14:18:56+00:00</time>
        <ele>2520.0</ele>
      </trkpt>
      <trkpt lat="45.287901" lon="7.099371">
        <time>2023-04-26T14:18:59+00:00</time>
        <ele>2520.0</ele>
      </trkpt>
      <trkpt lat="45.287921" lon="7.099371">
        <time>2023-04-26T14:19:00+00:00</time>
        <ele>2520.0</ele>
      </trkpt>
      <trkpt lat="45.287943" lon="7.099366">
        <time>2023-04-26T14:19:01+00:00</time>
        <ele>2519.0</ele>
      </trkpt>
      <trkpt lat="45.287927" lon="7.099282">
        <time>2023-04-26T14:19:03+00:00</time>
        <ele>2516.0</ele>
      </trkpt>
      <trkpt lat="45.287895" lon="7.09926">
        <time>2023-04-26T14:19:04+00:00</time>
        <ele>2516.0</ele>
      </trkpt>
      <trkpt lat="45.2879" lon="7.099196">
        <time>2023-04-26T14:19:06+00:00</time>
        <ele>2513.0</ele>
      </trkpt>
      <trkpt lat="45.28802" lon="7.099215">
        <time>2023-04-26T14:19:09+00:00</time>
        <ele>2512.0</ele>
      </trkpt>
      <trkpt lat="45.288047" lon="7.099162">
        <time>2023-04-26T14:19:11+00:00</time>
        <ele>2509.0</ele>
      </trkpt>
      <trkpt lat="45.287786" lon="7.098869">
        <time>2023-04-26T14:19:18+00:00</time>
        <ele>2505.0</ele>
      </trkpt>
      <trkpt lat="45.28776" lon="7.098828">
        <time>2023-04-26T14:19:20+00:00</time>
        <ele>2504.0</ele>
      </trkpt>
      <trkpt lat="45.287775" lon="7.098789">
        <time>2023-04-26T14:19:21+00:00</time>
        <ele>2502.0</ele>
      </trkpt>
      <trkpt lat="45.288022" lon="7.098828">
        <time>2023-04-26T14:19:26+00:00</time>
        <ele>2496.0</ele>
      </trkpt>
      <trkpt lat="45.288087" lon="7.098839">
        <time>2023-04-26T14:19:28+00:00</time>
        <ele>2495.0</ele>
      </trkpt>
      <trkpt lat="45.2881" lon="7.098797">
        <time>2023-04-26T14:19:29+00:00</time>
        <ele>2493.0</ele>
      </trkpt>
      <trkpt lat="45.288073" lon="7.09874">
        <time>2023-04-26T14:19:30+00:00</time>
        <ele>2492.0</ele>
      </trkpt>
      <trkpt lat="45.287928" lon="7.098622">
        <time>2023-04-26T14:19:34+00:00</time>
        <ele>2492.0</ele>
      </trkpt>
      <trkpt lat="45.287912" lon="7.098607">
        <time>2023-04-26T14:19:43+00:00</time>
        <ele>2492.0</ele>
      </trkpt>
      <trkpt lat="45.287943" lon="7.098566">
        <time>2023-04-26T14:19:46+00:00</time>
        <ele>2490.0</ele>
      </trkpt>
      <trkpt lat="45.288149" lon="7.098583">
        <time>2023-04-26T14:19:51+00:00</time>
        <ele>2484.0</ele>
      </trkpt>
      <trkpt lat="45.288157" lon="7.098506">
        <time>2023-04-26T14:19:53+00:00</time>
        <ele>2481.0</ele>
      </trkpt>
      <trkpt lat="45.288118" lon="7.098445">
        <time>2023-04-26T14:19:54+00:00</time>
        <ele>2481.0</ele>
      </trkpt>
      <trkpt lat="45.288065" lon="7.098386">
        <time>2023-04-26T14:19:55+00:00</time>
        <ele>2480.0</ele>
      </trkpt>
      <trkpt lat="45.287993" lon="7.098312">
        <time>2023-04-26T14:19:58+00:00</time>
        <ele>2480.0</ele>
      </trkpt>
      <trkpt lat="45.288018" lon="7.098277">
        <time>2023-04-26T14:19:59+00:00</time>
        <ele>2478.0</ele>
      </trkpt>
      <trkpt lat="45.288085" lon="7.098274">
        <time>2023-04-26T14:20:00+00:00</time>
        <ele>2476.0</ele>
      </trkpt>
      <trkpt lat="45.288178" lon="7.098333">
        <time>2023-04-26T14:20:03+00:00</time>
        <ele>2475.0</ele>
      </trkpt>
      <trkpt lat="45.288202" lon="7.098316">
        <time>2023-04-26T14:20:04+00:00</time>
        <ele>2474.0</ele>
      </trkpt>
      <trkpt lat="45.288224" lon="7.098285">
        <time>2023-04-26T14:20:05+00:00</time>
        <ele>2472.0</ele>
      </trkpt>
      <trkpt lat="45.28821" lon="7.098228">
        <time>2023-04-26T14:20:06+00:00</time>
        <ele>2471.0</ele>
      </trkpt>
      <trkpt lat="45.28814" lon="7.098131">
        <time>2023-04-26T14:20:09+00:00</time>
        <ele>2469.0</ele>
      </trkpt>
      <trkpt lat="45.28812" lon="7.098106">
        <time>2023-04-26T14:20:10+00:00</time>
        <ele>2468.0</ele>
      </trkpt>
      <trkpt lat="45.288098" lon="7.098093">
        <time>2023-04-26T14:20:15+00:00</time>
        <ele>2468.0</ele>
      </trkpt>
      <trkpt lat="45.287907" lon="7.097894">
        <time>2023-04-26T14:20:24+00:00</time>
        <ele>2471.0</ele>
      </trkpt>
      <trkpt lat="45.28795" lon="7.097845">
        <time>2023-04-26T14:20:38+00:00</time>
        <ele>2468.0</ele>
      </trkpt>
      <trkpt lat="45.288041" lon="7.097891">
        <time>2023-04-26T14:20:40+00:00</time>
        <ele>2464.0</ele>
      </trkpt>
      <trkpt lat="45.288052" lon="7.097846">
        <time>2023-04-26T14:20:44+00:00</time>
        <ele>2463.0</ele>
      </trkpt>
      <trkpt lat="45.288088" lon="7.097828">
        <time>2023-04-26T14:20:46+00:00</time>
        <ele>2461.0</ele>
      </trkpt>
      <trkpt lat="45.288106" lon="7.097806">
        <time>2023-04-26T14:20:49+00:00</time>
        <ele>2459.0</ele>
      </trkpt>
      <trkpt lat="45.288178" lon="7.097781">
        <time>2023-04-26T14:20:53+00:00</time>
        <ele>2456.0</ele>
      </trkpt>
      <trkpt lat="45.28818" lon="7.097745">
        <time>2023-04-26T14:20:58+00:00</time>
        <ele>2454.0</ele>
      </trkpt>
      <trkpt lat="45.288199" lon="7.097723">
        <time>2023-04-26T14:21:01+00:00</time>
        <ele>2453.0</ele>
      </trkpt>
      <trkpt lat="45.288312" lon="7.09771">
        <time>2023-04-26T14:21:08+00:00</time>
        <ele>2450.0</ele>
      </trkpt>
      <trkpt lat="45.288385" lon="7.097695">
        <time>2023-04-26T14:21:11+00:00</time>
        <ele>2447.0</ele>
      </trkpt>
      <trkpt lat="45.288442" lon="7.097717">
        <time>2023-04-26T14:21:13+00:00</time>
        <ele>2445.0</ele>
      </trkpt>
      <trkpt lat="45.288481" lon="7.097675">
        <time>2023-04-26T14:21:15+00:00</time>
        <ele>2442.0</ele>
      </trkpt>
      <trkpt lat="45.288478" lon="7.097605">
        <time>2023-04-26T14:21:16+00:00</time>
        <ele>2440.0</ele>
      </trkpt>
      <trkpt lat="45.288411" lon="7.097487">
        <time>2023-04-26T14:21:18+00:00</time>
        <ele>2438.0</ele>
      </trkpt>
      <trkpt lat="45.288422" lon="7.097525">
        <time>2023-04-26T14:21:30+00:00</time>
        <ele>2439.0</ele>
      </trkpt>
      <trkpt lat="45.288466" lon="7.097568">
        <time>2023-04-26T14:21:31+00:00</time>
        <ele>2439.0</ele>
      </trkpt>
      <trkpt lat="45.288638" lon="7.097738">
        <time>2023-04-26T14:21:36+00:00</time>
        <ele>2435.0</ele>
      </trkpt>
      <trkpt lat="45.288717" lon="7.097856">
        <time>2023-04-26T14:21:40+00:00</time>
        <ele>2433.0</ele>
      </trkpt>
      <trkpt lat="45.288752" lon="7.097867">
        <time>2023-04-26T14:21:53+00:00</time>
        <ele>2432.0</ele>
      </trkpt>
      <trkpt lat="45.288763" lon="7.097816">
        <time>2023-04-26T14:21:54+00:00</time>
        <ele>2430.0</ele>
      </trkpt>
      <trkpt lat="45.288748" lon="7.097755">
        <time>2023-04-26T14:21:55+00:00</time>
        <ele>2428.0</ele>
      </trkpt>
      <trkpt lat="45.288689" lon="7.097558">
        <time>2023-04-26T14:21:59+00:00</time>
        <ele>2426.0</ele>
      </trkpt>
      <trkpt lat="45.288706" lon="7.097508">
        <time>2023-04-26T14:22:01+00:00</time>
        <ele>2424.0</ele>
      </trkpt>
      <trkpt lat="45.288793" lon="7.097625">
        <time>2023-04-26T14:22:03+00:00</time>
        <ele>2422.0</ele>
      </trkpt>
      <trkpt lat="45.289084" lon="7.097919">
        <time>2023-04-26T14:22:10+00:00</time>
        <ele>2417.0</ele>
      </trkpt>
      <trkpt lat="45.289139" lon="7.097958">
        <time>2023-04-26T14:22:11+00:00</time>
        <ele>2414.0</ele>
      </trkpt>
      <trkpt lat="45.289316" lon="7.097915">
        <time>2023-04-26T14:22:15+00:00</time>
        <ele>2408.0</ele>
      </trkpt>
      <trkpt lat="45.289358" lon="7.097918">
        <time>2023-04-26T14:22:16+00:00</time>
        <ele>2407.0</ele>
      </trkpt>
      <trkpt lat="45.289505" lon="7.098013">
        <time>2023-04-26T14:22:19+00:00</time>
        <ele>2408.0</ele>
      </trkpt>
      <trkpt lat="45.289555" lon="7.09807">
        <time>2023-04-26T14:22:21+00:00</time>
        <ele>2408.0</ele>
      </trkpt>
      <trkpt lat="45.289761" lon="7.098205">
        <time>2023-04-26T14:22:26+00:00</time>
        <ele>2404.0</ele>
      </trkpt>
      <trkpt lat="45.289786" lon="7.098234">
        <time>2023-04-26T14:22:28+00:00</time>
        <ele>2404.0</ele>
      </trkpt>
      <trkpt lat="45.289789" lon="7.098156">
        <time>2023-04-26T14:22:56+00:00</time>
        <ele>2401.0</ele>
      </trkpt>
      <trkpt lat="45.289746" lon="7.098066">
        <time>2023-04-26T14:22:58+00:00</time>
        <ele>2399.0</ele>
      </trkpt>
      <trkpt lat="45.289726" lon="7.098039">
        <time>2023-04-26T14:22:59+00:00</time>
        <ele>2399.0</ele>
      </trkpt>
      <trkpt lat="45.289723" lon="7.097997">
        <time>2023-04-26T14:23:00+00:00</time>
        <ele>2398.0</ele>
      </trkpt>
      <trkpt lat="45.289747" lon="7.097947">
        <time>2023-04-26T14:23:01+00:00</time>
        <ele>2395.0</ele>
      </trkpt>
      <trkpt lat="45.289866" lon="7.09796">
        <time>2023-04-26T14:23:04+00:00</time>
        <ele>2391.0</ele>
      </trkpt>
      <trkpt lat="45.289882" lon="7.097913">
        <time>2023-04-26T14:23:05+00:00</time>
        <ele>2389.0</ele>
      </trkpt>
      <trkpt lat="45.289867" lon="7.097835">
        <time>2023-04-26T14:23:06+00:00</time>
        <ele>2388.0</ele>
      </trkpt>
      <trkpt lat="45.289778" lon="7.097714">
        <time>2023-04-26T14:23:09+00:00</time>
        <ele>2389.0</ele>
      </trkpt>
      <trkpt lat="45.28976" lon="7.097687">
        <time>2023-04-26T14:23:10+00:00</time>
        <ele>2389.0</ele>
      </trkpt>
      <trkpt lat="45.289755" lon="7.097641">
        <time>2023-04-26T14:23:11+00:00</time>
        <ele>2388.0</ele>
      </trkpt>
      <trkpt lat="45.289835" lon="7.097572">
        <time>2023-04-26T14:23:13+00:00</time>
        <ele>2383.0</ele>
      </trkpt>
      <trkpt lat="45.289929" lon="7.09761">
        <time>2023-04-26T14:23:16+00:00</time>
        <ele>2381.0</ele>
      </trkpt>
      <trkpt lat="45.289916" lon="7.097503">
        <time>2023-04-26T14:23:18+00:00</time>
        <ele>2379.0</ele>
      </trkpt>
      <trkpt lat="45.289886" lon="7.097456">
        <time>2023-04-26T14:23:19+00:00</time>
        <ele>2378.0</ele>
      </trkpt>
      <trkpt lat="45.289854" lon="7.097419">
        <time>2023-04-26T14:23:20+00:00</time>
        <ele>2379.0</ele>
      </trkpt>
      <trkpt lat="45.289844" lon="7.097375">
        <time>2023-04-26T14:23:21+00:00</time>
        <ele>2378.0</ele>
      </trkpt>
      <trkpt lat="45.289929" lon="7.097315">
        <time>2023-04-26T14:23:23+00:00</time>
        <ele>2373.0</ele>
      </trkpt>
      <trkpt lat="45.289965" lon="7.097334">
        <time>2023-04-26T14:23:24+00:00</time>
        <ele>2372.0</ele>
      </trkpt>
      <trkpt lat="45.289994" lon="7.097364">
        <time>2023-04-26T14:23:25+00:00</time>
        <ele>2373.0</ele>
      </trkpt>
      <trkpt lat="45.290012" lon="7.097272">
        <time>2023-04-26T14:23:28+00:00</time>
        <ele>2369.0</ele>
      </trkpt>
      <trkpt lat="45.289977" lon="7.097233">
        <time>2023-04-26T14:23:30+00:00</time>
        <ele>2369.0</ele>
      </trkpt>
      <trkpt lat="45.290026" lon="7.097196">
        <time>2023-04-26T14:23:34+00:00</time>
        <ele>2366.0</ele>
      </trkpt>
      <trkpt lat="45.290077" lon="7.097204">
        <time>2023-04-26T14:23:35+00:00</time>
        <ele>2365.0</ele>
      </trkpt>
      <trkpt lat="45.290103" lon="7.097232">
        <time>2023-04-26T14:23:36+00:00</time>
        <ele>2366.0</ele>
      </trkpt>
      <trkpt lat="45.290136" lon="7.097221">
        <time>2023-04-26T14:23:38+00:00</time>
        <ele>2365.0</ele>
      </trkpt>
      <trkpt lat="45.290121" lon="7.097149">
        <time>2023-04-26T14:23:40+00:00</time>
        <ele>2363.0</ele>
      </trkpt>
      <trkpt lat="45.290168" lon="7.097078">
        <time>2023-04-26T14:23:43+00:00</time>
        <ele>2359.0</ele>
      </trkpt>
      <trkpt lat="45.290203" lon="7.097087">
        <time>2023-04-26T14:23:44+00:00</time>
        <ele>2359.0</ele>
      </trkpt>
      <trkpt lat="45.290222" lon="7.097109">
        <time>2023-04-26T14:23:46+00:00</time>
        <ele>2359.0</ele>
      </trkpt>
      <trkpt lat="45.290245" lon="7.097087">
        <time>2023-04-26T14:24:01+00:00</time>
        <ele>2358.0</ele>
      </trkpt>
      <trkpt lat="45.290342" lon="7.0972">
        <time>2023-04-26T14:24:05+00:00</time>
        <ele>2356.0</ele>
      </trkpt>
      <trkpt lat="45.290366" lon="7.097237">
        <time>2023-04-26T14:24:06+00:00</time>
        <ele>2355.0</ele>
      </trkpt>
      <trkpt lat="45.29039" lon="7.097279">
        <time>2023-04-26T14:24:08+00:00</time>
        <ele>2354.0</ele>
      </trkpt>
      <trkpt lat="45.290415" lon="7.097251">
        <time>2023-04-26T14:24:10+00:00</time>
        <ele>2352.0</ele>
      </trkpt>
      <trkpt lat="45.290408" lon="7.097187">
        <time>2023-04-26T14:24:11+00:00</time>
        <ele>2351.0</ele>
      </trkpt>
      <trkpt lat="45.290385" lon="7.097086">
        <time>2023-04-26T14:24:13+00:00</time>
        <ele>2350.0</ele>
      </trkpt>
      <trkpt lat="45.290371" lon="7.097009">
        <time>2023-04-26T14:24:15+00:00</time>
        <ele>2348.0</ele>
      </trkpt>
      <trkpt lat="45.290389" lon="7.096977">
        <time>2023-04-26T14:24:16+00:00</time>
        <ele>2346.0</ele>
      </trkpt>
      <trkpt lat="45.290443" lon="7.096975">
        <time>2023-04-26T14:24:17+00:00</time>
        <ele>2343.0</ele>
      </trkpt>
      <trkpt lat="45.290484" lon="7.097022">
        <time>2023-04-26T14:24:18+00:00</time>
        <ele>2342.0</ele>
      </trkpt>
      <trkpt lat="45.290546" lon="7.097033">
        <time>2023-04-26T14:24:20+00:00</time>
        <ele>2339.0</ele>
      </trkpt>
      <trkpt lat="45.290591" lon="7.096997">
        <time>2023-04-26T14:24:21+00:00</time>
        <ele>2336.0</ele>
      </trkpt>
      <trkpt lat="45.290591" lon="7.096927">
        <time>2023-04-26T14:24:23+00:00</time>
        <ele>2335.0</ele>
      </trkpt>
      <trkpt lat="45.290634" lon="7.097019">
        <time>2023-04-26T14:24:26+00:00</time>
        <ele>2335.0</ele>
      </trkpt>
      <trkpt lat="45.290723" lon="7.097298">
        <time>2023-04-26T14:24:31+00:00</time>
        <ele>2334.0</ele>
      </trkpt>
      <trkpt lat="45.290827" lon="7.097415">
        <time>2023-04-26T14:24:36+00:00</time>
        <ele>2330.0</ele>
      </trkpt>
      <trkpt lat="45.290863" lon="7.097418">
        <time>2023-04-26T14:24:38+00:00</time>
        <ele>2327.0</ele>
      </trkpt>
      <trkpt lat="45.290876" lon="7.097345">
        <time>2023-04-26T14:24:39+00:00</time>
        <ele>2326.0</ele>
      </trkpt>
      <trkpt lat="45.290869" lon="7.09725">
        <time>2023-04-26T14:24:40+00:00</time>
        <ele>2325.0</ele>
      </trkpt>
      <trkpt lat="45.290841" lon="7.097087">
        <time>2023-04-26T14:24:43+00:00</time>
        <ele>2324.0</ele>
      </trkpt>
      <trkpt lat="45.290878" lon="7.09705">
        <time>2023-04-26T14:24:56+00:00</time>
        <ele>2321.0</ele>
      </trkpt>
      <trkpt lat="45.290929" lon="7.097127">
        <time>2023-04-26T14:24:58+00:00</time>
        <ele>2319.0</ele>
      </trkpt>
      <trkpt lat="45.290959" lon="7.09716">
        <time>2023-04-26T14:25:00+00:00</time>
        <ele>2318.0</ele>
      </trkpt>
      <trkpt lat="45.290981" lon="7.097112">
        <time>2023-04-26T14:25:04+00:00</time>
        <ele>2315.0</ele>
      </trkpt>
      <trkpt lat="45.290983" lon="7.097052">
        <time>2023-04-26T14:25:06+00:00</time>
        <ele>2314.0</ele>
      </trkpt>
      <trkpt lat="45.291006" lon="7.09701">
        <time>2023-04-26T14:25:09+00:00</time>
        <ele>2312.0</ele>
      </trkpt>
      <trkpt lat="45.291049" lon="7.097049">
        <time>2023-04-26T14:25:10+00:00</time>
        <ele>2310.0</ele>
      </trkpt>
      <trkpt lat="45.291096" lon="7.097166">
        <time>2023-04-26T14:25:13+00:00</time>
        <ele>2309.0</ele>
      </trkpt>
      <trkpt lat="45.291137" lon="7.097118">
        <time>2023-04-26T14:25:15+00:00</time>
        <ele>2306.0</ele>
      </trkpt>
      <trkpt lat="45.291136" lon="7.097055">
        <time>2023-04-26T14:25:16+00:00</time>
        <ele>2306.0</ele>
      </trkpt>
      <trkpt lat="45.291133" lon="7.096904">
        <time>2023-04-26T14:25:18+00:00</time>
        <ele>2304.0</ele>
      </trkpt>
      <trkpt lat="45.291112" lon="7.096785">
        <time>2023-04-26T14:25:21+00:00</time>
        <ele>2303.0</ele>
      </trkpt>
      <trkpt lat="45.291109" lon="7.09667">
        <time>2023-04-26T14:25:24+00:00</time>
        <ele>2301.0</ele>
      </trkpt>
      <trkpt lat="45.291115" lon="7.096601">
        <time>2023-04-26T14:25:25+00:00</time>
        <ele>2300.0</ele>
      </trkpt>
      <trkpt lat="45.29113" lon="7.096547">
        <time>2023-04-26T14:25:26+00:00</time>
        <ele>2299.0</ele>
      </trkpt>
      <trkpt lat="45.291147" lon="7.096462">
        <time>2023-04-26T14:25:28+00:00</time>
        <ele>2298.0</ele>
      </trkpt>
      <trkpt lat="45.291118" lon="7.096286">
        <time>2023-04-26T14:25:31+00:00</time>
        <ele>2299.0</ele>
      </trkpt>
      <trkpt lat="45.29114" lon="7.096103">
        <time>2023-04-26T14:25:34+00:00</time>
        <ele>2297.0</ele>
      </trkpt>
      <trkpt lat="45.291166" lon="7.09603">
        <time>2023-04-26T14:25:36+00:00</time>
        <ele>2295.0</ele>
      </trkpt>
      <trkpt lat="45.291217" lon="7.095967">
        <time>2023-04-26T14:26:00+00:00</time>
        <ele>2292.0</ele>
      </trkpt>
      <trkpt lat="45.291238" lon="7.095928">
        <time>2023-04-26T14:26:01+00:00</time>
        <ele>2291.0</ele>
      </trkpt>
      <trkpt lat="45.291254" lon="7.095855">
        <time>2023-04-26T14:26:03+00:00</time>
        <ele>2291.0</ele>
      </trkpt>
      <trkpt lat="45.291273" lon="7.095818">
        <time>2023-04-26T14:26:05+00:00</time>
        <ele>2290.0</ele>
      </trkpt>
      <trkpt lat="45.291308" lon="7.095838">
        <time>2023-04-26T14:26:06+00:00</time>
        <ele>2288.0</ele>
      </trkpt>
      <trkpt lat="45.291357" lon="7.095977">
        <time>2023-04-26T14:26:08+00:00</time>
        <ele>2284.0</ele>
      </trkpt>
      <trkpt lat="45.291358" lon="7.096013">
        <time>2023-04-26T14:26:09+00:00</time>
        <ele>2284.0</ele>
      </trkpt>
      <trkpt lat="45.291408" lon="7.096026">
        <time>2023-04-26T14:26:11+00:00</time>
        <ele>2282.0</ele>
      </trkpt>
      <trkpt lat="45.291488" lon="7.095887">
        <time>2023-04-26T14:26:13+00:00</time>
        <ele>2278.0</ele>
      </trkpt>
      <trkpt lat="45.291501" lon="7.095825">
        <time>2023-04-26T14:26:14+00:00</time>
        <ele>2277.0</ele>
      </trkpt>
      <trkpt lat="45.291514" lon="7.095775">
        <time>2023-04-26T14:26:15+00:00</time>
        <ele>2277.0</ele>
      </trkpt>
      <trkpt lat="45.291555" lon="7.095762">
        <time>2023-04-26T14:26:16+00:00</time>
        <ele>2275.0</ele>
      </trkpt>
      <trkpt lat="45.291668" lon="7.095936">
        <time>2023-04-26T14:26:20+00:00</time>
        <ele>2271.0</ele>
      </trkpt>
      <trkpt lat="45.291697" lon="7.095901">
        <time>2023-04-26T14:26:21+00:00</time>
        <ele>2270.0</ele>
      </trkpt>
      <trkpt lat="45.291763" lon="7.095641">
        <time>2023-04-26T14:26:25+00:00</time>
        <ele>2265.0</ele>
      </trkpt>
      <trkpt lat="45.291785" lon="7.095567">
        <time>2023-04-26T14:26:26+00:00</time>
        <ele>2264.0</ele>
      </trkpt>
      <trkpt lat="45.291929" lon="7.095213">
        <time>2023-04-26T14:26:31+00:00</time>
        <ele>2258.0</ele>
      </trkpt>
      <trkpt lat="45.292056" lon="7.094992">
        <time>2023-04-26T14:26:36+00:00</time>
        <ele>2254.0</ele>
      </trkpt>
      <trkpt lat="45.292367" lon="7.094355">
        <time>2023-04-26T14:26:46+00:00</time>
        <ele>2245.0</ele>
      </trkpt>
      <trkpt lat="45.292424" lon="7.094218">
        <time>2023-04-26T14:26:48+00:00</time>
        <ele>2243.0</ele>
      </trkpt>
      <trkpt lat="45.292428" lon="7.094115">
        <time>2023-04-26T14:26:50+00:00</time>
        <ele>2243.0</ele>
      </trkpt>
      <trkpt lat="45.29252" lon="7.093636">
        <time>2023-04-26T14:26:58+00:00</time>
        <ele>2238.0</ele>
      </trkpt>
      <trkpt lat="45.292521" lon="7.093585">
        <time>2023-04-26T14:26:59+00:00</time>
        <ele>2239.0</ele>
      </trkpt>
      <trkpt lat="45.29252" lon="7.093552">
        <time>2023-04-26T14:27:01+00:00</time>
        <ele>2240.0</ele>
      </trkpt>
      <trkpt lat="45.292542" lon="7.093503">
        <time>2023-04-26T14:27:21+00:00</time>
        <ele>2239.0</ele>
      </trkpt>
      <trkpt lat="45.292611" lon="7.093356">
        <time>2023-04-26T14:27:25+00:00</time>
        <ele>2236.0</ele>
      </trkpt>
      <trkpt lat="45.293042" lon="7.09201">
        <time>2023-04-26T14:27:56+00:00</time>
        <ele>2212.0</ele>
      </trkpt>
      <trkpt lat="45.293145" lon="7.091647">
        <time>2023-04-26T14:28:03+00:00</time>
        <ele>2206.0</ele>
      </trkpt>
      <trkpt lat="45.293167" lon="7.091426">
        <time>2023-04-26T14:28:06+00:00</time>
        <ele>2203.0</ele>
      </trkpt>
      <trkpt lat="45.293213" lon="7.091145">
        <time>2023-04-26T14:28:10+00:00</time>
        <ele>2197.0</ele>
      </trkpt>
      <trkpt lat="45.293211" lon="7.091101">
        <time>2023-04-26T14:28:11+00:00</time>
        <ele>2197.0</ele>
      </trkpt>
      <trkpt lat="45.293204" lon="7.091068">
        <time>2023-04-26T14:28:13+00:00</time>
        <ele>2198.0</ele>
      </trkpt>
      <trkpt lat="45.293228" lon="7.091056">
        <time>2023-04-26T14:28:25+00:00</time>
        <ele>2196.0</ele>
      </trkpt>
      <trkpt lat="45.29336" lon="7.09069">
        <time>2023-04-26T14:28:31+00:00</time>
        <ele>2188.0</ele>
      </trkpt>
      <trkpt lat="45.29344" lon="7.090549">
        <time>2023-04-26T14:28:33+00:00</time>
        <ele>2184.0</ele>
      </trkpt>
      <trkpt lat="45.293481" lon="7.090478">
        <time>2023-04-26T14:28:34+00:00</time>
        <ele>2182.0</ele>
      </trkpt>
      <trkpt lat="45.293553" lon="7.090325">
        <time>2023-04-26T14:28:36+00:00</time>
        <ele>2180.0</ele>
      </trkpt>
      <trkpt lat="45.293587" lon="7.090168">
        <time>2023-04-26T14:28:38+00:00</time>
        <ele>2178.0</ele>
      </trkpt>
      <trkpt lat="45.293576" lon="7.090071">
        <time>2023-04-26T14:28:40+00:00</time>
        <ele>2178.0</ele>
      </trkpt>
      <trkpt lat="45.293586" lon="7.089972">
        <time>2023-04-26T14:28:44+00:00</time>
        <ele>2177.0</ele>
      </trkpt>
      <trkpt lat="45.293584" lon="7.08993">
        <time>2023-04-26T14:28:45+00:00</time>
        <ele>2177.0</ele>
      </trkpt>
      <trkpt lat="45.293586" lon="7.089874">
        <time>2023-04-26T14:28:46+00:00</time>
        <ele>2177.0</ele>
      </trkpt>
      <trkpt lat="45.29362" lon="7.089599">
        <time>2023-04-26T14:28:50+00:00</time>
        <ele>2171.0</ele>
      </trkpt>
      <trkpt lat="45.293642" lon="7.089538">
        <time>2023-04-26T14:28:53+00:00</time>
        <ele>2169.0</ele>
      </trkpt>
      <trkpt lat="45.293677" lon="7.089549">
        <time>2023-04-26T14:28:54+00:00</time>
        <ele>2168.0</ele>
      </trkpt>
      <trkpt lat="45.293714" lon="7.089617">
        <time>2023-04-26T14:28:55+00:00</time>
        <ele>2167.0</ele>
      </trkpt>
      <trkpt lat="45.29379" lon="7.089859">
        <time>2023-04-26T14:28:59+00:00</time>
        <ele>2165.0</ele>
      </trkpt>
      <trkpt lat="45.293831" lon="7.089929">
        <time>2023-04-26T14:29:01+00:00</time>
        <ele>2164.0</ele>
      </trkpt>
      <trkpt lat="45.293901" lon="7.090038">
        <time>2023-04-26T14:29:04+00:00</time>
        <ele>2162.0</ele>
      </trkpt>
      <trkpt lat="45.293912" lon="7.090068">
        <time>2023-04-26T14:29:06+00:00</time>
        <ele>2162.0</ele>
      </trkpt>
      <trkpt lat="45.293947" lon="7.090053">
        <time>2023-04-26T14:29:13+00:00</time>
        <ele>2161.0</ele>
      </trkpt>
      <trkpt lat="45.293981" lon="7.089965">
        <time>2023-04-26T14:29:15+00:00</time>
        <ele>2158.0</ele>
      </trkpt>
      <trkpt lat="45.294049" lon="7.089801">
        <time>2023-04-26T14:29:19+00:00</time>
        <ele>2155.0</ele>
      </trkpt>
      <trkpt lat="45.294068" lon="7.089662">
        <time>2023-04-26T14:29:23+00:00</time>
        <ele>2154.0</ele>
      </trkpt>
      <trkpt lat="45.294155" lon="7.089338">
        <time>2023-04-26T14:29:40+00:00</time>
        <ele>2152.0</ele>
      </trkpt>
      <trkpt lat="45.294168" lon="7.08922">
        <time>2023-04-26T14:29:43+00:00</time>
        <ele>2151.0</ele>
      </trkpt>
      <trkpt lat="45.294179" lon="7.089175">
        <time>2023-04-26T14:29:46+00:00</time>
        <ele>2151.0</ele>
      </trkpt>
      <trkpt lat="45.2942" lon="7.089161">
        <time>2023-04-26T14:29:56+00:00</time>
        <ele>2151.0</ele>
      </trkpt>
      <trkpt lat="45.294198" lon="7.089167">
        <time>2023-04-26T14:31:23+00:00</time>
        <ele>2151.0</ele>
      </trkpt>
      <trkpt lat="45.294221" lon="7.089177">
        <time>2023-04-26T14:31:51+00:00</time>
        <ele>2150.0</ele>
      </trkpt>
      <trkpt lat="45.294245" lon="7.089189">
        <time>2023-04-26T14:31:59+00:00</time>
        <ele>2150.0</ele>
      </trkpt>
      <trkpt lat="45.294253" lon="7.089221">
        <time>2023-04-26T14:32:09+00:00</time>
        <ele>2151.0</ele>
      </trkpt>
      <trkpt lat="45.294292" lon="7.089233">
        <time>2023-04-26T14:32:23+00:00</time>
        <ele>2151.0</ele>
      </trkpt>
      <trkpt lat="45.294289" lon="7.089256">
        <time>2023-04-26T14:40:54+00:00</time>
        <ele>2151.0</ele>
      </trkpt>
      <trkpt lat="45.2943" lon="7.089208">
        <time>2023-04-26T14:41:03+00:00</time>
        <ele>2151.0</ele>
      </trkpt>
      <trkpt lat="45.294332" lon="7.089197">
        <time>2023-04-26T14:41:08+00:00</time>
        <ele>2151.0</ele>
      </trkpt>
      <trkpt lat="45.294374" lon="7.089159">
        <time>2023-04-26T14:41:25+00:00</time>
        <ele>2151.0</ele>
      </trkpt>
      <trkpt lat="45.294388" lon="7.089137">
        <time>2023-04-26T14:41:30+00:00</time>
        <ele>2151.0</ele>
      </trkpt>
      <trkpt lat="45.294402" lon="7.089106">
        <time>2023-04-26T14:41:44+00:00</time>
        <ele>2151.0</ele>
      </trkpt>
      <trkpt lat="45.294419" lon="7.089078">
        <time>2023-04-26T14:41:56+00:00</time>
        <ele>2150.0</ele>
      </trkpt>
      <trkpt lat="45.294447" lon="7.089063">
        <time>2023-04-26T14:42:24+00:00</time>
        <ele>2151.0</ele>
      </trkpt>
      <trkpt lat="45.294498" lon="7.089106">
        <time>2023-04-26T14:42:46+00:00</time>
        <ele>2153.0</ele>
      </trkpt>
      <trkpt lat="45.294524" lon="7.089122">
        <time>2023-04-26T14:42:52+00:00</time>
        <ele>2154.0</ele>
      </trkpt>
      <trkpt lat="45.294573" lon="7.089104">
        <time>2023-04-26T14:43:03+00:00</time>
        <ele>2155.0</ele>
      </trkpt>
      <trkpt lat="45.294597" lon="7.089117">
        <time>2023-04-26T14:43:21+00:00</time>
        <ele>2156.0</ele>
      </trkpt>
      <trkpt lat="45.294627" lon="7.089112">
        <time>2023-04-26T14:43:38+00:00</time>
        <ele>2156.0</ele>
      </trkpt>
      <trkpt lat="45.294648" lon="7.089095">
        <time>2023-04-26T14:43:46+00:00</time>
        <ele>2157.0</ele>
      </trkpt>
      <trkpt lat="45.294671" lon="7.089087">
        <time>2023-04-26T14:43:55+00:00</time>
        <ele>2157.0</ele>
      </trkpt>
      <trkpt lat="45.29469" lon="7.089109">
        <time>2023-04-26T14:44:07+00:00</time>
        <ele>2158.0</ele>
      </trkpt>
      <trkpt lat="45.294714" lon="7.089121">
        <time>2023-04-26T14:44:13+00:00</time>
        <ele>2159.0</ele>
      </trkpt>
      <trkpt lat="45.294731" lon="7.089107">
        <time>2023-04-26T14:44:21+00:00</time>
        <ele>2160.0</ele>
      </trkpt>
      <trkpt lat="45.294738" lon="7.089079">
        <time>2023-04-26T14:44:56+00:00</time>
        <ele>2159.0</ele>
      </trkpt>
      <trkpt lat="45.294805" lon="7.089054">
        <time>2023-04-26T14:45:15+00:00</time>
        <ele>2162.0</ele>
      </trkpt>
      <trkpt lat="45.294838" lon="7.089069">
        <time>2023-04-26T14:45:21+00:00</time>
        <ele>2163.0</ele>
      </trkpt>
      <trkpt lat="45.294851" lon="7.089051">
        <time>2023-04-26T14:45:24+00:00</time>
        <ele>2163.0</ele>
      </trkpt>
      <trkpt lat="45.294882" lon="7.089036">
        <time>2023-04-26T14:45:28+00:00</time>
        <ele>2164.0</ele>
      </trkpt>
      <trkpt lat="45.294911" lon="7.089051">
        <time>2023-04-26T14:45:35+00:00</time>
        <ele>2165.0</ele>
      </trkpt>
      <trkpt lat="45.294928" lon="7.089074">
        <time>2023-04-26T14:45:40+00:00</time>
        <ele>2165.0</ele>
      </trkpt>
      <trkpt lat="45.294957" lon="7.08908">
        <time>2023-04-26T14:45:44+00:00</time>
        <ele>2166.0</ele>
      </trkpt>
      <trkpt lat="45.295045" lon="7.089097">
        <time>2023-04-26T14:46:13+00:00</time>
        <ele>2169.0</ele>
      </trkpt>
      <trkpt lat="45.295064" lon="7.089077">
        <time>2023-04-26T14:46:19+00:00</time>
        <ele>2169.0</ele>
      </trkpt>
      <trkpt lat="45.295109" lon="7.089081">
        <time>2023-04-26T14:46:39+00:00</time>
        <ele>2170.0</ele>
      </trkpt>
      <trkpt lat="45.29514" lon="7.089069">
        <time>2023-04-26T14:46:48+00:00</time>
        <ele>2170.0</ele>
      </trkpt>
      <trkpt lat="45.295165" lon="7.089051">
        <time>2023-04-26T14:46:54+00:00</time>
        <ele>2171.0</ele>
      </trkpt>
      <trkpt lat="45.295186" lon="7.089051">
        <time>2023-04-26T14:47:00+00:00</time>
        <ele>2171.0</ele>
      </trkpt>
      <trkpt lat="45.295207" lon="7.089019">
        <time>2023-04-26T14:47:24+00:00</time>
        <ele>2171.0</ele>
      </trkpt>
      <trkpt lat="45.295222" lon="7.088989">
        <time>2023-04-26T14:47:33+00:00</time>
        <ele>2171.0</ele>
      </trkpt>
      <trkpt lat="45.295267" lon="7.088965">
        <time>2023-04-26T14:48:04+00:00</time>
        <ele>2172.0</ele>
      </trkpt>
      <trkpt lat="45.29529" lon="7.088961">
        <time>2023-04-26T14:48:13+00:00</time>
        <ele>2172.0</ele>
      </trkpt>
      <trkpt lat="45.295304" lon="7.088943">
        <time>2023-04-26T14:48:23+00:00</time>
        <ele>2172.0</ele>
      </trkpt>
      <trkpt lat="45.2953" lon="7.0889">
        <time>2023-04-26T14:48:28+00:00</time>
        <ele>2172.0</ele>
      </trkpt>
      <trkpt lat="45.295313" lon="7.08887">
        <time>2023-04-26T14:48:43+00:00</time>
        <ele>2172.0</ele>
      </trkpt>
      <trkpt lat="45.295342" lon="7.088884">
        <time>2023-04-26T14:48:54+00:00</time>
        <ele>2173.0</ele>
      </trkpt>
      <trkpt lat="45.295386" lon="7.088871">
        <time>2023-04-26T14:49:03+00:00</time>
        <ele>2174.0</ele>
      </trkpt>
      <trkpt lat="45.295484" lon="7.088887">
        <time>2023-04-26T14:49:36+00:00</time>
        <ele>2176.0</ele>
      </trkpt>
      <trkpt lat="45.295504" lon="7.088874">
        <time>2023-04-26T14:50:00+00:00</time>
        <ele>2177.0</ele>
      </trkpt>
      <trkpt lat="45.295528" lon="7.088866">
        <time>2023-04-26T14:50:13+00:00</time>
        <ele>2177.0</ele>
      </trkpt>
      <trkpt lat="45.295541" lon="7.088848">
        <time>2023-04-26T14:50:16+00:00</time>
        <ele>2177.0</ele>
      </trkpt>
      <trkpt lat="45.295559" lon="7.088827">
        <time>2023-04-26T14:50:21+00:00</time>
        <ele>2178.0</ele>
      </trkpt>
      <trkpt lat="45.295572" lon="7.088799">
        <time>2023-04-26T14:50:33+00:00</time>
        <ele>2178.0</ele>
      </trkpt>
      <trkpt lat="45.295591" lon="7.088772">
        <time>2023-04-26T14:50:41+00:00</time>
        <ele>2178.0</ele>
      </trkpt>
      <trkpt lat="45.295644" lon="7.088659">
        <time>2023-04-26T14:51:08+00:00</time>
        <ele>2179.0</ele>
      </trkpt>
      <trkpt lat="45.295669" lon="7.088637">
        <time>2023-04-26T14:51:15+00:00</time>
        <ele>2179.0</ele>
      </trkpt>
      <trkpt lat="45.295703" lon="7.08861">
        <time>2023-04-26T14:51:23+00:00</time>
        <ele>2180.0</ele>
      </trkpt>
      <trkpt lat="45.295734" lon="7.088573">
        <time>2023-04-26T14:51:39+00:00</time>
        <ele>2180.0</ele>
      </trkpt>
      <trkpt lat="45.295745" lon="7.088545">
        <time>2023-04-26T14:51:54+00:00</time>
        <ele>2180.0</ele>
      </trkpt>
      <trkpt lat="45.295814" lon="7.088418">
        <time>2023-04-26T14:52:25+00:00</time>
        <ele>2182.0</ele>
      </trkpt>
      <trkpt lat="45.295845" lon="7.088349">
        <time>2023-04-26T14:52:36+00:00</time>
        <ele>2182.0</ele>
      </trkpt>
      <trkpt lat="45.295871" lon="7.088327">
        <time>2023-04-26T14:52:42+00:00</time>
        <ele>2182.0</ele>
      </trkpt>
      <trkpt lat="45.295891" lon="7.088311">
        <time>2023-04-26T14:52:49+00:00</time>
        <ele>2183.0</ele>
      </trkpt>
      <trkpt lat="45.295957" lon="7.088256">
        <time>2023-04-26T14:53:19+00:00</time>
        <ele>2184.0</ele>
      </trkpt>
      <trkpt lat="45.296004" lon="7.088223">
        <time>2023-04-26T14:53:30+00:00</time>
        <ele>2184.0</ele>
      </trkpt>
      <trkpt lat="45.296024" lon="7.088206">
        <time>2023-04-26T14:53:34+00:00</time>
        <ele>2184.0</ele>
      </trkpt>
      <trkpt lat="45.296035" lon="7.088172">
        <time>2023-04-26T14:53:44+00:00</time>
        <ele>2184.0</ele>
      </trkpt>
      <trkpt lat="45.296111" lon="7.088146">
        <time>2023-04-26T14:53:54+00:00</time>
        <ele>2185.0</ele>
      </trkpt>
      <trkpt lat="45.296124" lon="7.088125">
        <time>2023-04-26T14:53:57+00:00</time>
        <ele>2185.0</ele>
      </trkpt>
      <trkpt lat="45.296148" lon="7.088122">
        <time>2023-04-26T14:54:00+00:00</time>
        <ele>2185.0</ele>
      </trkpt>
      <trkpt lat="45.296174" lon="7.088126">
        <time>2023-04-26T14:54:05+00:00</time>
        <ele>2186.0</ele>
      </trkpt>
      <trkpt lat="45.296192" lon="7.088134">
        <time>2023-04-26T14:54:15+00:00</time>
        <ele>2186.0</ele>
      </trkpt>
      <trkpt lat="45.296214" lon="7.088125">
        <time>2023-04-26T14:54:19+00:00</time>
        <ele>2186.0</ele>
      </trkpt>
      <trkpt lat="45.296231" lon="7.088114">
        <time>2023-04-26T14:54:22+00:00</time>
        <ele>2186.0</ele>
      </trkpt>
      <trkpt lat="45.296254" lon="7.088109">
        <time>2023-04-26T14:54:26+00:00</time>
        <ele>2187.0</ele>
      </trkpt>
      <trkpt lat="45.296279" lon="7.088112">
        <time>2023-04-26T14:54:30+00:00</time>
        <ele>2187.0</ele>
      </trkpt>
      <trkpt lat="45.296307" lon="7.088101">
        <time>2023-04-26T14:54:35+00:00</time>
        <ele>2187.0</ele>
      </trkpt>
      <trkpt lat="45.296384" lon="7.088081">
        <time>2023-04-26T14:54:52+00:00</time>
        <ele>2187.0</ele>
      </trkpt>
      <trkpt lat="45.296406" lon="7.088103">
        <time>2023-04-26T14:54:57+00:00</time>
        <ele>2188.0</ele>
      </trkpt>
      <trkpt lat="45.296424" lon="7.088085">
        <time>2023-04-26T14:55:07+00:00</time>
        <ele>2188.0</ele>
      </trkpt>
      <trkpt lat="45.296443" lon="7.088067">
        <time>2023-04-26T14:55:11+00:00</time>
        <ele>2188.0</ele>
      </trkpt>
      <trkpt lat="45.296467" lon="7.088071">
        <time>2023-04-26T14:55:22+00:00</time>
        <ele>2188.0</ele>
      </trkpt>
      <trkpt lat="45.296497" lon="7.088057">
        <time>2023-04-26T14:55:29+00:00</time>
        <ele>2188.0</ele>
      </trkpt>
      <trkpt lat="45.296569" lon="7.087931">
        <time>2023-04-26T14:55:50+00:00</time>
        <ele>2189.0</ele>
      </trkpt>
      <trkpt lat="45.296603" lon="7.087839">
        <time>2023-04-26T14:56:01+00:00</time>
        <ele>2189.0</ele>
      </trkpt>
      <trkpt lat="45.296629" lon="7.087677">
        <time>2023-04-26T14:56:14+00:00</time>
        <ele>2189.0</ele>
      </trkpt>
      <trkpt lat="45.296691" lon="7.087511">
        <time>2023-04-26T14:56:26+00:00</time>
        <ele>2189.0</ele>
      </trkpt>
      <trkpt lat="45.296702" lon="7.087478">
        <time>2023-04-26T14:56:30+00:00</time>
        <ele>2189.0</ele>
      </trkpt>
      <trkpt lat="45.296702" lon="7.08743">
        <time>2023-04-26T14:56:34+00:00</time>
        <ele>2188.0</ele>
      </trkpt>
      <trkpt lat="45.296717" lon="7.08739">
        <time>2023-04-26T14:56:37+00:00</time>
        <ele>2189.0</ele>
      </trkpt>
      <trkpt lat="45.29672" lon="7.087357">
        <time>2023-04-26T14:56:40+00:00</time>
        <ele>2189.0</ele>
      </trkpt>
      <trkpt lat="45.296739" lon="7.087311">
        <time>2023-04-26T14:56:44+00:00</time>
        <ele>2189.0</ele>
      </trkpt>
      <trkpt lat="45.296755" lon="7.087279">
        <time>2023-04-26T14:56:51+00:00</time>
        <ele>2190.0</ele>
      </trkpt>
      <trkpt lat="45.296761" lon="7.087248">
        <time>2023-04-26T14:56:55+00:00</time>
        <ele>2190.0</ele>
      </trkpt>
      <trkpt lat="45.296756" lon="7.087223">
        <time>2023-04-26T14:56:56+00:00</time>
        <ele>2189.0</ele>
      </trkpt>
      <trkpt lat="45.296758" lon="7.087147">
        <time>2023-04-26T14:57:01+00:00</time>
        <ele>2189.0</ele>
      </trkpt>
      <trkpt lat="45.296775" lon="7.087114">
        <time>2023-04-26T14:57:04+00:00</time>
        <ele>2189.0</ele>
      </trkpt>
      <trkpt lat="45.296791" lon="7.087082">
        <time>2023-04-26T14:57:09+00:00</time>
        <ele>2190.0</ele>
      </trkpt>
      <trkpt lat="45.296838" lon="7.086959">
        <time>2023-04-26T14:57:19+00:00</time>
        <ele>2190.0</ele>
      </trkpt>
      <trkpt lat="45.296838" lon="7.086921">
        <time>2023-04-26T14:57:22+00:00</time>
        <ele>2190.0</ele>
      </trkpt>
      <trkpt lat="45.29686" lon="7.086808">
        <time>2023-04-26T14:57:32+00:00</time>
        <ele>2190.0</ele>
      </trkpt>
      <trkpt lat="45.29688" lon="7.08676">
        <time>2023-04-26T14:57:39+00:00</time>
        <ele>2191.0</ele>
      </trkpt>
      <trkpt lat="45.296903" lon="7.086678">
        <time>2023-04-26T14:57:45+00:00</time>
        <ele>2192.0</ele>
      </trkpt>
      <trkpt lat="45.296906" lon="7.086625">
        <time>2023-04-26T14:57:49+00:00</time>
        <ele>2192.0</ele>
      </trkpt>
      <trkpt lat="45.296919" lon="7.086547">
        <time>2023-04-26T14:57:55+00:00</time>
        <ele>2192.0</ele>
      </trkpt>
      <trkpt lat="45.296943" lon="7.086466">
        <time>2023-04-26T14:58:02+00:00</time>
        <ele>2193.0</ele>
      </trkpt>
      <trkpt lat="45.296999" lon="7.086393">
        <time>2023-04-26T14:58:10+00:00</time>
        <ele>2196.0</ele>
      </trkpt>
      <trkpt lat="45.296997" lon="7.086341">
        <time>2023-04-26T14:58:15+00:00</time>
        <ele>2196.0</ele>
      </trkpt>
      <trkpt lat="45.297001" lon="7.086299">
        <time>2023-04-26T14:58:19+00:00</time>
        <ele>2196.0</ele>
      </trkpt>
      <trkpt lat="45.297013" lon="7.086268">
        <time>2023-04-26T14:58:22+00:00</time>
        <ele>2196.0</ele>
      </trkpt>
      <trkpt lat="45.296999" lon="7.086104">
        <time>2023-04-26T14:58:37+00:00</time>
        <ele>2194.0</ele>
      </trkpt>
      <trkpt lat="45.297006" lon="7.08607">
        <time>2023-04-26T14:58:39+00:00</time>
        <ele>2195.0</ele>
      </trkpt>
      <trkpt lat="45.297004" lon="7.085992">
        <time>2023-04-26T14:58:44+00:00</time>
        <ele>2195.0</ele>
      </trkpt>
      <trkpt lat="45.297004" lon="7.085955">
        <time>2023-04-26T14:58:47+00:00</time>
        <ele>2195.0</ele>
      </trkpt>
      <trkpt lat="45.297004" lon="7.085923">
        <time>2023-04-26T14:58:50+00:00</time>
        <ele>2195.0</ele>
      </trkpt>
      <trkpt lat="45.297068" lon="7.085699">
        <time>2023-04-26T14:59:10+00:00</time>
        <ele>2198.0</ele>
      </trkpt>
      <trkpt lat="45.297055" lon="7.085637">
        <time>2023-04-26T14:59:17+00:00</time>
        <ele>2197.0</ele>
      </trkpt>
      <trkpt lat="45.297058" lon="7.085603">
        <time>2023-04-26T14:59:25+00:00</time>
        <ele>2198.0</ele>
      </trkpt>
      <trkpt lat="45.297038" lon="7.08553">
        <time>2023-04-26T14:59:39+00:00</time>
        <ele>2197.0</ele>
      </trkpt>
      <trkpt lat="45.297062" lon="7.085507">
        <time>2023-04-26T14:59:54+00:00</time>
        <ele>2199.0</ele>
      </trkpt>
      <trkpt lat="45.297065" lon="7.085471">
        <time>2023-04-26T15:00:02+00:00</time>
        <ele>2199.0</ele>
      </trkpt>
      <trkpt lat="45.297072" lon="7.085442">
        <time>2023-04-26T15:00:07+00:00</time>
        <ele>2200.0</ele>
      </trkpt>
      <trkpt lat="45.29707" lon="7.085415">
        <time>2023-04-26T15:00:12+00:00</time>
        <ele>2200.0</ele>
      </trkpt>
      <trkpt lat="45.2971" lon="7.08538">
        <time>2023-04-26T15:00:19+00:00</time>
        <ele>2202.0</ele>
      </trkpt>
      <trkpt lat="45.297101" lon="7.085344">
        <time>2023-04-26T15:00:24+00:00</time>
        <ele>2202.0</ele>
      </trkpt>
      <trkpt lat="45.297084" lon="7.085267">
        <time>2023-04-26T15:00:32+00:00</time>
        <ele>2203.0</ele>
      </trkpt>
      <trkpt lat="45.297063" lon="7.085243">
        <time>2023-04-26T15:00:36+00:00</time>
        <ele>2202.0</ele>
      </trkpt>
      <trkpt lat="45.297063" lon="7.085216">
        <time>2023-04-26T15:00:40+00:00</time>
        <ele>2202.0</ele>
      </trkpt>
      <trkpt lat="45.297049" lon="7.085188">
        <time>2023-04-26T15:00:44+00:00</time>
        <ele>2202.0</ele>
      </trkpt>
      <trkpt lat="45.29705" lon="7.085081">
        <time>2023-04-26T15:00:59+00:00</time>
        <ele>2204.0</ele>
      </trkpt>
      <trkpt lat="45.297048" lon="7.08504">
        <time>2023-04-26T15:01:09+00:00</time>
        <ele>2204.0</ele>
      </trkpt>
      <trkpt lat="45.297045" lon="7.085005">
        <time>2023-04-26T15:01:12+00:00</time>
        <ele>2205.0</ele>
      </trkpt>
      <trkpt lat="45.297055" lon="7.08493">
        <time>2023-04-26T15:01:19+00:00</time>
        <ele>2206.0</ele>
      </trkpt>
      <trkpt lat="45.297052" lon="7.084896">
        <time>2023-04-26T15:01:22+00:00</time>
        <ele>2206.0</ele>
      </trkpt>
      <trkpt lat="45.297048" lon="7.084855">
        <time>2023-04-26T15:01:25+00:00</time>
        <ele>2206.0</ele>
      </trkpt>
      <trkpt lat="45.297067" lon="7.084769">
        <time>2023-04-26T15:01:32+00:00</time>
        <ele>2208.0</ele>
      </trkpt>
      <trkpt lat="45.297065" lon="7.08473">
        <time>2023-04-26T15:01:36+00:00</time>
        <ele>2208.0</ele>
      </trkpt>
      <trkpt lat="45.297072" lon="7.084693">
        <time>2023-04-26T15:01:40+00:00</time>
        <ele>2208.0</ele>
      </trkpt>
      <trkpt lat="45.297058" lon="7.084638">
        <time>2023-04-26T15:01:44+00:00</time>
        <ele>2208.0</ele>
      </trkpt>
      <trkpt lat="45.297053" lon="7.084614">
        <time>2023-04-26T15:01:47+00:00</time>
        <ele>2208.0</ele>
      </trkpt>
      <trkpt lat="45.297065" lon="7.084587">
        <time>2023-04-26T15:01:50+00:00</time>
        <ele>2208.0</ele>
      </trkpt>
      <trkpt lat="45.297083" lon="7.08452">
        <time>2023-04-26T15:01:57+00:00</time>
        <ele>2209.0</ele>
      </trkpt>
      <trkpt lat="45.297091" lon="7.084491">
        <time>2023-04-26T15:02:00+00:00</time>
        <ele>2209.0</ele>
      </trkpt>
      <trkpt lat="45.297107" lon="7.084463">
        <time>2023-04-26T15:02:04+00:00</time>
        <ele>2209.0</ele>
      </trkpt>
      <trkpt lat="45.297117" lon="7.084439">
        <time>2023-04-26T15:02:29+00:00</time>
        <ele>2209.0</ele>
      </trkpt>
      <trkpt lat="45.29712" lon="7.084411">
        <time>2023-04-26T15:02:36+00:00</time>
        <ele>2209.0</ele>
      </trkpt>
      <trkpt lat="45.297107" lon="7.084378">
        <time>2023-04-26T15:02:39+00:00</time>
        <ele>2209.0</ele>
      </trkpt>
      <trkpt lat="45.297107" lon="7.084343">
        <time>2023-04-26T15:02:44+00:00</time>
        <ele>2209.0</ele>
      </trkpt>
      <trkpt lat="45.297098" lon="7.084266">
        <time>2023-04-26T15:02:54+00:00</time>
        <ele>2209.0</ele>
      </trkpt>
      <trkpt lat="45.29712" lon="7.084264">
        <time>2023-04-26T15:02:59+00:00</time>
        <ele>2209.0</ele>
      </trkpt>
      <trkpt lat="45.297123" lon="7.084268">
        <time>2023-04-26T15:03:47+00:00</time>
        <ele>2209.0</ele>
      </trkpt>
      <trkpt lat="45.297128" lon="7.084257">
        <time>2023-04-26T15:04:14+00:00</time>
        <ele>2209.0</ele>
      </trkpt>
      <trkpt lat="45.297164" lon="7.084243">
        <time>2023-04-26T15:04:39+00:00</time>
        <ele>2209.0</ele>
      </trkpt>
      <trkpt lat="45.29719" lon="7.084249">
        <time>2023-04-26T15:04:42+00:00</time>
        <ele>2210.0</ele>
      </trkpt>
      <trkpt lat="45.29703" lon="7.084131">
        <time>2023-04-26T15:05:14+00:00</time>
        <ele>2208.0</ele>
      </trkpt>
      <trkpt lat="45.297082" lon="7.08414">
        <time>2023-04-26T15:06:34+00:00</time>
        <ele>2209.0</ele>
      </trkpt>
      <trkpt lat="45.297178" lon="7.084126">
        <time>2023-04-27T05:24:09+00:00</time>
        <ele>2209.0</ele>
      </trkpt>
      <trkpt lat="45.297177" lon="7.084125">
        <time>2023-04-27T05:24:10+00:00</time>
        <ele>2209.0</ele>
      </trkpt>
      <trkpt lat="45.297153" lon="7.084166">
        <time>2023-04-27T05:24:26+00:00</time>
        <ele>2209.0</ele>
      </trkpt>
      <trkpt lat="45.297128" lon="7.084172">
        <time>2023-04-27T05:25:45+00:00</time>
        <ele>2209.0</ele>
      </trkpt>
      <trkpt lat="45.297063" lon="7.084163">
        <time>2023-04-27T05:25:49+00:00</time>
        <ele>2208.0</ele>
      </trkpt>
      <trkpt lat="45.297014" lon="7.084188">
        <time>2023-04-27T05:25:54+00:00</time>
        <ele>2207.0</ele>
      </trkpt>
      <trkpt lat="45.296989" lon="7.084224">
        <time>2023-04-27T05:25:57+00:00</time>
        <ele>2207.0</ele>
      </trkpt>
      <trkpt lat="45.296966" lon="7.084245">
        <time>2023-04-27T05:26:00+00:00</time>
        <ele>2206.0</ele>
      </trkpt>
      <trkpt lat="45.296957" lon="7.084278">
        <time>2023-04-27T05:26:02+00:00</time>
        <ele>2206.0</ele>
      </trkpt>
      <trkpt lat="45.296932" lon="7.084309">
        <time>2023-04-27T05:26:05+00:00</time>
        <ele>2205.0</ele>
      </trkpt>
      <trkpt lat="45.296909" lon="7.084308">
        <time>2023-04-27T05:26:07+00:00</time>
        <ele>2204.0</ele>
      </trkpt>
      <trkpt lat="45.296895" lon="7.084289">
        <time>2023-04-27T05:26:08+00:00</time>
        <ele>2204.0</ele>
      </trkpt>
      <trkpt lat="45.296863" lon="7.084292">
        <time>2023-04-27T05:26:12+00:00</time>
        <ele>2203.0</ele>
      </trkpt>
      <trkpt lat="45.296822" lon="7.084372">
        <time>2023-04-27T05:26:18+00:00</time>
        <ele>2202.0</ele>
      </trkpt>
      <trkpt lat="45.296789" lon="7.084416">
        <time>2023-04-27T05:26:22+00:00</time>
        <ele>2201.0</ele>
      </trkpt>
      <trkpt lat="45.296769" lon="7.08444">
        <time>2023-04-27T05:26:25+00:00</time>
        <ele>2200.0</ele>
      </trkpt>
      <trkpt lat="45.296748" lon="7.084448">
        <time>2023-04-27T05:26:27+00:00</time>
        <ele>2199.0</ele>
      </trkpt>
      <trkpt lat="45.296743" lon="7.084479">
        <time>2023-04-27T05:26:32+00:00</time>
        <ele>2199.0</ele>
      </trkpt>
      <trkpt lat="45.296745" lon="7.084561">
        <time>2023-04-27T05:26:42+00:00</time>
        <ele>2198.0</ele>
      </trkpt>
      <trkpt lat="45.296771" lon="7.084558">
        <time>2023-04-27T05:27:07+00:00</time>
        <ele>2199.0</ele>
      </trkpt>
      <trkpt lat="45.296821" lon="7.08444">
        <time>2023-04-27T05:27:14+00:00</time>
        <ele>2201.0</ele>
      </trkpt>
      <trkpt lat="45.296851" lon="7.084415">
        <time>2023-04-27T05:27:17+00:00</time>
        <ele>2202.0</ele>
      </trkpt>
      <trkpt lat="45.296873" lon="7.084405">
        <time>2023-04-27T05:27:19+00:00</time>
        <ele>2203.0</ele>
      </trkpt>
      <trkpt lat="45.296904" lon="7.084416">
        <time>2023-04-27T05:27:22+00:00</time>
        <ele>2204.0</ele>
      </trkpt>
      <trkpt lat="45.296932" lon="7.084408">
        <time>2023-04-27T05:27:25+00:00</time>
        <ele>2204.0</ele>
      </trkpt>
      <trkpt lat="45.296955" lon="7.084396">
        <time>2023-04-27T05:27:27+00:00</time>
        <ele>2205.0</ele>
      </trkpt>
      <trkpt lat="45.296986" lon="7.084348">
        <time>2023-04-27T05:27:32+00:00</time>
        <ele>2206.0</ele>
      </trkpt>
      <trkpt lat="45.29699" lon="7.084315">
        <time>2023-04-27T05:27:34+00:00</time>
        <ele>2206.0</ele>
      </trkpt>
      <trkpt lat="45.297002" lon="7.084294">
        <time>2023-04-27T05:27:36+00:00</time>
        <ele>2207.0</ele>
      </trkpt>
      <trkpt lat="45.297021" lon="7.084277">
        <time>2023-04-27T05:27:38+00:00</time>
        <ele>2207.0</ele>
      </trkpt>
      <trkpt lat="45.297052" lon="7.084279">
        <time>2023-04-27T05:27:42+00:00</time>
        <ele>2208.0</ele>
      </trkpt>
      <trkpt lat="45.297075" lon="7.084284">
        <time>2023-04-27T05:27:44+00:00</time>
        <ele>2208.0</ele>
      </trkpt>
      <trkpt lat="45.297105" lon="7.084274">
        <time>2023-04-27T05:27:47+00:00</time>
        <ele>2209.0</ele>
      </trkpt>
      <trkpt lat="45.297143" lon="7.084273">
        <time>2023-04-27T05:27:53+00:00</time>
        <ele>2209.0</ele>
      </trkpt>
      <trkpt lat="45.297149" lon="7.084474">
        <time>2023-04-27T05:27:59+00:00</time>
        <ele>2210.0</ele>
      </trkpt>
      <trkpt lat="45.2972" lon="7.084423">
        <time>2023-04-27T05:28:09+00:00</time>
        <ele>2210.0</ele>
      </trkpt>
      <trkpt lat="45.297202" lon="7.08435">
        <time>2023-04-27T05:28:14+00:00</time>
        <ele>2210.0</ele>
      </trkpt>
      <trkpt lat="45.297153" lon="7.084322">
        <time>2023-04-27T05:29:54+00:00</time>
        <ele>2209.0</ele>
      </trkpt>
      <trkpt lat="45.297119" lon="7.084304">
        <time>2023-04-27T05:29:57+00:00</time>
        <ele>2209.0</ele>
      </trkpt>
      <trkpt lat="45.297081" lon="7.084266">
        <time>2023-04-27T05:30:03+00:00</time>
        <ele>2209.0</ele>
      </trkpt>
      <trkpt lat="45.297051" lon="7.084261">
        <time>2023-04-27T05:30:07+00:00</time>
        <ele>2208.0</ele>
      </trkpt>
      <trkpt lat="45.297027" lon="7.084251">
        <time>2023-04-27T05:30:10+00:00</time>
        <ele>2207.0</ele>
      </trkpt>
      <trkpt lat="45.297005" lon="7.084246">
        <time>2023-04-27T05:30:12+00:00</time>
        <ele>2207.0</ele>
      </trkpt>
      <trkpt lat="45.296956" lon="7.084275">
        <time>2023-04-27T05:30:18+00:00</time>
        <ele>2206.0</ele>
      </trkpt>
      <trkpt lat="45.296932" lon="7.084279">
        <time>2023-04-27T05:30:21+00:00</time>
        <ele>2205.0</ele>
      </trkpt>
      <trkpt lat="45.296852" lon="7.084308">
        <time>2023-04-27T05:30:28+00:00</time>
        <ele>2203.0</ele>
      </trkpt>
      <trkpt lat="45.296828" lon="7.084338">
        <time>2023-04-27T05:30:31+00:00</time>
        <ele>2202.0</ele>
      </trkpt>
      <trkpt lat="45.296801" lon="7.08447">
        <time>2023-04-27T05:30:40+00:00</time>
        <ele>2200.0</ele>
      </trkpt>
      <trkpt lat="45.296777" lon="7.0845">
        <time>2023-04-27T05:30:43+00:00</time>
        <ele>2200.0</ele>
      </trkpt>
      <trkpt lat="45.296749" lon="7.084485">
        <time>2023-04-27T05:30:45+00:00</time>
        <ele>2199.0</ele>
      </trkpt>
      <trkpt lat="45.296744" lon="7.084486">
        <time>2023-04-27T05:31:12+00:00</time>
        <ele>2199.0</ele>
      </trkpt>
      <trkpt lat="45.296758" lon="7.084513">
        <time>2023-04-27T05:31:14+00:00</time>
        <ele>2199.0</ele>
      </trkpt>
      <trkpt lat="45.296772" lon="7.084543">
        <time>2023-04-27T05:31:16+00:00</time>
        <ele>2199.0</ele>
      </trkpt>
      <trkpt lat="45.296783" lon="7.084615">
        <time>2023-04-27T05:31:24+00:00</time>
        <ele>2198.0</ele>
      </trkpt>
      <trkpt lat="45.296795" lon="7.084669">
        <time>2023-04-27T05:31:30+00:00</time>
        <ele>2198.0</ele>
      </trkpt>
      <trkpt lat="45.296799" lon="7.084744">
        <time>2023-04-27T05:31:38+00:00</time>
        <ele>2197.0</ele>
      </trkpt>
      <trkpt lat="45.296783" lon="7.084808">
        <time>2023-04-27T05:31:44+00:00</time>
        <ele>2196.0</ele>
      </trkpt>
      <trkpt lat="45.2968" lon="7.084887">
        <time>2023-04-27T05:31:50+00:00</time>
        <ele>2196.0</ele>
      </trkpt>
      <trkpt lat="45.296807" lon="7.084969">
        <time>2023-04-27T05:32:07+00:00</time>
        <ele>2195.0</ele>
      </trkpt>
      <trkpt lat="45.296848" lon="7.085216">
        <time>2023-04-27T05:32:23+00:00</time>
        <ele>2193.0</ele>
      </trkpt>
      <trkpt lat="45.296883" lon="7.08526">
        <time>2023-04-27T05:32:27+00:00</time>
        <ele>2194.0</ele>
      </trkpt>
      <trkpt lat="45.296896" lon="7.085293">
        <time>2023-04-27T05:32:29+00:00</time>
        <ele>2194.0</ele>
      </trkpt>
      <trkpt lat="45.296904" lon="7.085347">
        <time>2023-04-27T05:32:32+00:00</time>
        <ele>2194.0</ele>
      </trkpt>
      <trkpt lat="45.296939" lon="7.085445">
        <time>2023-04-27T05:32:42+00:00</time>
        <ele>2194.0</ele>
      </trkpt>
      <trkpt lat="45.296949" lon="7.085478">
        <time>2023-04-27T05:32:44+00:00</time>
        <ele>2194.0</ele>
      </trkpt>
      <trkpt lat="45.296935" lon="7.085522">
        <time>2023-04-27T05:32:47+00:00</time>
        <ele>2193.0</ele>
      </trkpt>
      <trkpt lat="45.29695" lon="7.085578">
        <time>2023-04-27T05:32:52+00:00</time>
        <ele>2193.0</ele>
      </trkpt>
      <trkpt lat="45.296975" lon="7.085601">
        <time>2023-04-27T05:32:55+00:00</time>
        <ele>2194.0</ele>
      </trkpt>
      <trkpt lat="45.297003" lon="7.085676">
        <time>2023-04-27T05:33:00+00:00</time>
        <ele>2195.0</ele>
      </trkpt>
      <trkpt lat="45.297001" lon="7.085724">
        <time>2023-04-27T05:33:03+00:00</time>
        <ele>2195.0</ele>
      </trkpt>
      <trkpt lat="45.296968" lon="7.085929">
        <time>2023-04-27T05:33:18+00:00</time>
        <ele>2193.0</ele>
      </trkpt>
      <trkpt lat="45.296959" lon="7.085968">
        <time>2023-04-27T05:33:25+00:00</time>
        <ele>2192.0</ele>
      </trkpt>
      <trkpt lat="45.296966" lon="7.086039">
        <time>2023-04-27T05:33:29+00:00</time>
        <ele>2193.0</ele>
      </trkpt>
      <trkpt lat="45.296932" lon="7.086275">
        <time>2023-04-27T05:33:42+00:00</time>
        <ele>2192.0</ele>
      </trkpt>
      <trkpt lat="45.296901" lon="7.086335">
        <time>2023-04-27T05:33:47+00:00</time>
        <ele>2190.0</ele>
      </trkpt>
      <trkpt lat="45.296909" lon="7.086402">
        <time>2023-04-27T05:33:53+00:00</time>
        <ele>2191.0</ele>
      </trkpt>
      <trkpt lat="45.296902" lon="7.086454">
        <time>2023-04-27T05:33:57+00:00</time>
        <ele>2191.0</ele>
      </trkpt>
      <trkpt lat="45.296826" lon="7.086801">
        <time>2023-04-27T05:34:20+00:00</time>
        <ele>2188.0</ele>
      </trkpt>
      <trkpt lat="45.296822" lon="7.086899">
        <time>2023-04-27T05:34:25+00:00</time>
        <ele>2189.0</ele>
      </trkpt>
      <trkpt lat="45.296815" lon="7.086955">
        <time>2023-04-27T05:34:28+00:00</time>
        <ele>2189.0</ele>
      </trkpt>
      <trkpt lat="45.296757" lon="7.087139">
        <time>2023-04-27T05:34:40+00:00</time>
        <ele>2188.0</ele>
      </trkpt>
      <trkpt lat="45.296753" lon="7.087183">
        <time>2023-04-27T05:34:43+00:00</time>
        <ele>2189.0</ele>
      </trkpt>
      <trkpt lat="45.296722" lon="7.087244">
        <time>2023-04-27T05:34:47+00:00</time>
        <ele>2188.0</ele>
      </trkpt>
      <trkpt lat="45.296668" lon="7.087286">
        <time>2023-04-27T05:34:55+00:00</time>
        <ele>2185.0</ele>
      </trkpt>
      <trkpt lat="45.296646" lon="7.087338">
        <time>2023-04-27T05:34:58+00:00</time>
        <ele>2185.0</ele>
      </trkpt>
      <trkpt lat="45.296648" lon="7.087406">
        <time>2023-04-27T05:35:03+00:00</time>
        <ele>2186.0</ele>
      </trkpt>
      <trkpt lat="45.29667" lon="7.087519">
        <time>2023-04-27T05:35:07+00:00</time>
        <ele>2188.0</ele>
      </trkpt>
      <trkpt lat="45.29665" lon="7.087579">
        <time>2023-04-27T05:35:12+00:00</time>
        <ele>2188.0</ele>
      </trkpt>
      <trkpt lat="45.296627" lon="7.087619">
        <time>2023-04-27T05:35:17+00:00</time>
        <ele>2188.0</ele>
      </trkpt>
      <trkpt lat="45.29661" lon="7.087658">
        <time>2023-04-27T05:35:23+00:00</time>
        <ele>2188.0</ele>
      </trkpt>
      <trkpt lat="45.296602" lon="7.087775">
        <time>2023-04-27T05:35:30+00:00</time>
        <ele>2189.0</ele>
      </trkpt>
      <trkpt lat="45.296589" lon="7.087819">
        <time>2023-04-27T05:35:33+00:00</time>
        <ele>2189.0</ele>
      </trkpt>
      <trkpt lat="45.296566" lon="7.087869">
        <time>2023-04-27T05:35:37+00:00</time>
        <ele>2188.0</ele>
      </trkpt>
      <trkpt lat="45.296511" lon="7.087973">
        <time>2023-04-27T05:35:47+00:00</time>
        <ele>2187.0</ele>
      </trkpt>
      <trkpt lat="45.2965" lon="7.088013">
        <time>2023-04-27T05:35:52+00:00</time>
        <ele>2187.0</ele>
      </trkpt>
      <trkpt lat="45.296463" lon="7.088062">
        <time>2023-04-27T05:35:58+00:00</time>
        <ele>2188.0</ele>
      </trkpt>
      <trkpt lat="45.296418" lon="7.088062">
        <time>2023-04-27T05:36:02+00:00</time>
        <ele>2187.0</ele>
      </trkpt>
      <trkpt lat="45.296379" lon="7.088085">
        <time>2023-04-27T05:36:07+00:00</time>
        <ele>2187.0</ele>
      </trkpt>
      <trkpt lat="45.296346" lon="7.08808">
        <time>2023-04-27T05:36:14+00:00</time>
        <ele>2187.0</ele>
      </trkpt>
      <trkpt lat="45.29628" lon="7.088054">
        <time>2023-04-27T05:36:24+00:00</time>
        <ele>2186.0</ele>
      </trkpt>
      <trkpt lat="45.296135" lon="7.088076">
        <time>2023-04-27T05:36:37+00:00</time>
        <ele>2185.0</ele>
      </trkpt>
      <trkpt lat="45.295999" lon="7.088113">
        <time>2023-04-27T05:36:49+00:00</time>
        <ele>2183.0</ele>
      </trkpt>
      <trkpt lat="45.295945" lon="7.088097">
        <time>2023-04-27T05:36:55+00:00</time>
        <ele>2182.0</ele>
      </trkpt>
      <trkpt lat="45.295921" lon="7.088098">
        <time>2023-04-27T05:36:58+00:00</time>
        <ele>2181.0</ele>
      </trkpt>
      <trkpt lat="45.295861" lon="7.0881">
        <time>2023-04-27T05:37:04+00:00</time>
        <ele>2180.0</ele>
      </trkpt>
      <trkpt lat="45.295837" lon="7.088095">
        <time>2023-04-27T05:37:07+00:00</time>
        <ele>2180.0</ele>
      </trkpt>
      <trkpt lat="45.295788" lon="7.088087">
        <time>2023-04-27T05:37:13+00:00</time>
        <ele>2179.0</ele>
      </trkpt>
      <trkpt lat="45.295739" lon="7.088055">
        <time>2023-04-27T05:37:20+00:00</time>
        <ele>2178.0</ele>
      </trkpt>
      <trkpt lat="45.295705" lon="7.088028">
        <time>2023-04-27T05:37:25+00:00</time>
        <ele>2176.0</ele>
      </trkpt>
      <trkpt lat="45.295688" lon="7.088011">
        <time>2023-04-27T05:37:28+00:00</time>
        <ele>2176.0</ele>
      </trkpt>
      <trkpt lat="45.295618" lon="7.087984">
        <time>2023-04-27T05:37:37+00:00</time>
        <ele>2174.0</ele>
      </trkpt>
      <trkpt lat="45.295603" lon="7.08797">
        <time>2023-04-27T05:37:39+00:00</time>
        <ele>2173.0</ele>
      </trkpt>
      <trkpt lat="45.295585" lon="7.087963">
        <time>2023-04-27T05:37:41+00:00</time>
        <ele>2173.0</ele>
      </trkpt>
      <trkpt lat="45.295565" lon="7.087945">
        <time>2023-04-27T05:37:44+00:00</time>
        <ele>2172.0</ele>
      </trkpt>
      <trkpt lat="45.295545" lon="7.087931">
        <time>2023-04-27T05:37:47+00:00</time>
        <ele>2171.0</ele>
      </trkpt>
      <trkpt lat="45.295499" lon="7.087908">
        <time>2023-04-27T05:37:52+00:00</time>
        <ele>2170.0</ele>
      </trkpt>
      <trkpt lat="45.295432" lon="7.087866">
        <time>2023-04-27T05:37:59+00:00</time>
        <ele>2168.0</ele>
      </trkpt>
      <trkpt lat="45.295415" lon="7.087851">
        <time>2023-04-27T05:38:02+00:00</time>
        <ele>2168.0</ele>
      </trkpt>
      <trkpt lat="45.295369" lon="7.087834">
        <time>2023-04-27T05:38:08+00:00</time>
        <ele>2167.0</ele>
      </trkpt>
      <trkpt lat="45.295339" lon="7.087802">
        <time>2023-04-27T05:38:12+00:00</time>
        <ele>2166.0</ele>
      </trkpt>
      <trkpt lat="45.295321" lon="7.087791">
        <time>2023-04-27T05:38:14+00:00</time>
        <ele>2165.0</ele>
      </trkpt>
      <trkpt lat="45.295272" lon="7.087756">
        <time>2023-04-27T05:38:19+00:00</time>
        <ele>2164.0</ele>
      </trkpt>
      <trkpt lat="45.295248" lon="7.087752">
        <time>2023-04-27T05:38:22+00:00</time>
        <ele>2163.0</ele>
      </trkpt>
      <trkpt lat="45.295217" lon="7.08775">
        <time>2023-04-27T05:38:27+00:00</time>
        <ele>2162.0</ele>
      </trkpt>
      <trkpt lat="45.295195" lon="7.087744">
        <time>2023-04-27T05:38:30+00:00</time>
        <ele>2162.0</ele>
      </trkpt>
      <trkpt lat="45.295173" lon="7.087738">
        <time>2023-04-27T05:38:33+00:00</time>
        <ele>2161.0</ele>
      </trkpt>
      <trkpt lat="45.295135" lon="7.087718">
        <time>2023-04-27T05:38:38+00:00</time>
        <ele>2160.0</ele>
      </trkpt>
      <trkpt lat="45.295095" lon="7.087697">
        <time>2023-04-27T05:38:43+00:00</time>
        <ele>2159.0</ele>
      </trkpt>
      <trkpt lat="45.295059" lon="7.087682">
        <time>2023-04-27T05:38:47+00:00</time>
        <ele>2158.0</ele>
      </trkpt>
      <trkpt lat="45.295031" lon="7.087679">
        <time>2023-04-27T05:38:51+00:00</time>
        <ele>2157.0</ele>
      </trkpt>
      <trkpt lat="45.295016" lon="7.087679">
        <time>2023-04-27T05:38:53+00:00</time>
        <ele>2157.0</ele>
      </trkpt>
      <trkpt lat="45.294963" lon="7.087703">
        <time>2023-04-27T05:39:03+00:00</time>
        <ele>2156.0</ele>
      </trkpt>
      <trkpt lat="45.294943" lon="7.087665">
        <time>2023-04-27T05:39:07+00:00</time>
        <ele>2155.0</ele>
      </trkpt>
      <trkpt lat="45.294831" lon="7.087724">
        <time>2023-04-27T05:39:20+00:00</time>
        <ele>2153.0</ele>
      </trkpt>
      <trkpt lat="45.294808" lon="7.087713">
        <time>2023-04-27T05:39:22+00:00</time>
        <ele>2153.0</ele>
      </trkpt>
      <trkpt lat="45.294788" lon="7.087709">
        <time>2023-04-27T05:39:24+00:00</time>
        <ele>2152.0</ele>
      </trkpt>
      <trkpt lat="45.294759" lon="7.087706">
        <time>2023-04-27T05:39:27+00:00</time>
        <ele>2152.0</ele>
      </trkpt>
      <trkpt lat="45.29466" lon="7.087613">
        <time>2023-04-27T05:39:39+00:00</time>
        <ele>2149.0</ele>
      </trkpt>
      <trkpt lat="45.294646" lon="7.08759">
        <time>2023-04-27T05:39:42+00:00</time>
        <ele>2149.0</ele>
      </trkpt>
      <trkpt lat="45.294627" lon="7.087571">
        <time>2023-04-27T05:39:44+00:00</time>
        <ele>2148.0</ele>
      </trkpt>
      <trkpt lat="45.294614" lon="7.087539">
        <time>2023-04-27T05:39:49+00:00</time>
        <ele>2147.0</ele>
      </trkpt>
      <trkpt lat="45.294562" lon="7.08757">
        <time>2023-04-27T05:39:52+00:00</time>
        <ele>2147.0</ele>
      </trkpt>
      <trkpt lat="45.294531" lon="7.087558">
        <time>2023-04-27T05:39:54+00:00</time>
        <ele>2146.0</ele>
      </trkpt>
      <trkpt lat="45.294441" lon="7.087496">
        <time>2023-04-27T05:40:03+00:00</time>
        <ele>2145.0</ele>
      </trkpt>
      <trkpt lat="45.294279" lon="7.087612">
        <time>2023-04-27T05:40:23+00:00</time>
        <ele>2142.0</ele>
      </trkpt>
      <trkpt lat="45.294197" lon="7.087654">
        <time>2023-04-27T05:40:33+00:00</time>
        <ele>2141.0</ele>
      </trkpt>
      <trkpt lat="45.294178" lon="7.087648">
        <time>2023-04-27T05:40:42+00:00</time>
        <ele>2141.0</ele>
      </trkpt>
      <trkpt lat="45.29418" lon="7.087613">
        <time>2023-04-27T05:40:47+00:00</time>
        <ele>2141.0</ele>
      </trkpt>
      <trkpt lat="45.294161" lon="7.08752">
        <time>2023-04-27T05:40:55+00:00</time>
        <ele>2141.0</ele>
      </trkpt>
      <trkpt lat="45.29415" lon="7.087462">
        <time>2023-04-27T05:41:00+00:00</time>
        <ele>2141.0</ele>
      </trkpt>
      <trkpt lat="45.294122" lon="7.087403">
        <time>2023-04-27T05:41:04+00:00</time>
        <ele>2141.0</ele>
      </trkpt>
      <trkpt lat="45.294104" lon="7.087386">
        <time>2023-04-27T05:41:08+00:00</time>
        <ele>2141.0</ele>
      </trkpt>
      <trkpt lat="45.294096" lon="7.087347">
        <time>2023-04-27T05:41:10+00:00</time>
        <ele>2141.0</ele>
      </trkpt>
      <trkpt lat="45.294135" lon="7.087432">
        <time>2023-04-27T05:41:17+00:00</time>
        <ele>2141.0</ele>
      </trkpt>
      <trkpt lat="45.294149" lon="7.087471">
        <time>2023-04-27T05:41:19+00:00</time>
        <ele>2141.0</ele>
      </trkpt>
      <trkpt lat="45.294147" lon="7.087519">
        <time>2023-04-27T05:41:22+00:00</time>
        <ele>2141.0</ele>
      </trkpt>
      <trkpt lat="45.294171" lon="7.087654">
        <time>2023-04-27T05:41:33+00:00</time>
        <ele>2142.0</ele>
      </trkpt>
      <trkpt lat="45.294175" lon="7.087695">
        <time>2023-04-27T05:41:37+00:00</time>
        <ele>2142.0</ele>
      </trkpt>
      <trkpt lat="45.294165" lon="7.087728">
        <time>2023-04-27T05:41:40+00:00</time>
        <ele>2142.0</ele>
      </trkpt>
      <trkpt lat="45.294179" lon="7.087793">
        <time>2023-04-27T05:41:55+00:00</time>
        <ele>2142.0</ele>
      </trkpt>
      <trkpt lat="45.294193" lon="7.08782">
        <time>2023-04-27T05:42:04+00:00</time>
        <ele>2142.0</ele>
      </trkpt>
      <trkpt lat="45.294215" lon="7.087942">
        <time>2023-04-27T05:42:13+00:00</time>
        <ele>2143.0</ele>
      </trkpt>
      <trkpt lat="45.294211" lon="7.087975">
        <time>2023-04-27T05:42:17+00:00</time>
        <ele>2143.0</ele>
      </trkpt>
      <trkpt lat="45.294213" lon="7.088017">
        <time>2023-04-27T05:42:22+00:00</time>
        <ele>2144.0</ele>
      </trkpt>
      <trkpt lat="45.294225" lon="7.088066">
        <time>2023-04-27T05:42:32+00:00</time>
        <ele>2144.0</ele>
      </trkpt>
      <trkpt lat="45.294212" lon="7.088083">
        <time>2023-04-27T05:42:38+00:00</time>
        <ele>2144.0</ele>
      </trkpt>
      <trkpt lat="45.294189" lon="7.088102">
        <time>2023-04-27T05:43:08+00:00</time>
        <ele>2144.0</ele>
      </trkpt>
      <trkpt lat="45.294156" lon="7.088095">
        <time>2023-04-27T05:43:23+00:00</time>
        <ele>2144.0</ele>
      </trkpt>
      <trkpt lat="45.294129" lon="7.088089">
        <time>2023-04-27T05:43:29+00:00</time>
        <ele>2145.0</ele>
      </trkpt>
      <trkpt lat="45.294102" lon="7.088061">
        <time>2023-04-27T05:43:33+00:00</time>
        <ele>2145.0</ele>
      </trkpt>
      <trkpt lat="45.29406" lon="7.087988">
        <time>2023-04-27T05:43:41+00:00</time>
        <ele>2144.0</ele>
      </trkpt>
      <trkpt lat="45.294046" lon="7.087961">
        <time>2023-04-27T05:43:44+00:00</time>
        <ele>2144.0</ele>
      </trkpt>
      <trkpt lat="45.294034" lon="7.087882">
        <time>2023-04-27T05:43:50+00:00</time>
        <ele>2144.0</ele>
      </trkpt>
      <trkpt lat="45.294025" lon="7.08784">
        <time>2023-04-27T05:43:53+00:00</time>
        <ele>2144.0</ele>
      </trkpt>
      <trkpt lat="45.294009" lon="7.087654">
        <time>2023-04-27T05:44:06+00:00</time>
        <ele>2144.0</ele>
      </trkpt>
      <trkpt lat="45.293996" lon="7.087573">
        <time>2023-04-27T05:44:13+00:00</time>
        <ele>2144.0</ele>
      </trkpt>
      <trkpt lat="45.293955" lon="7.087509">
        <time>2023-04-27T05:44:20+00:00</time>
        <ele>2145.0</ele>
      </trkpt>
      <trkpt lat="45.29393" lon="7.087448">
        <time>2023-04-27T05:44:28+00:00</time>
        <ele>2146.0</ele>
      </trkpt>
      <trkpt lat="45.293909" lon="7.087429">
        <time>2023-04-27T05:44:33+00:00</time>
        <ele>2147.0</ele>
      </trkpt>
      <trkpt lat="45.293886" lon="7.087413">
        <time>2023-04-27T05:44:38+00:00</time>
        <ele>2147.0</ele>
      </trkpt>
      <trkpt lat="45.293873" lon="7.087385">
        <time>2023-04-27T05:44:47+00:00</time>
        <ele>2147.0</ele>
      </trkpt>
      <trkpt lat="45.29385" lon="7.087369">
        <time>2023-04-27T05:44:50+00:00</time>
        <ele>2148.0</ele>
      </trkpt>
      <trkpt lat="45.293802" lon="7.087376">
        <time>2023-04-27T05:44:58+00:00</time>
        <ele>2148.0</ele>
      </trkpt>
      <trkpt lat="45.293773" lon="7.087367">
        <time>2023-04-27T05:45:05+00:00</time>
        <ele>2148.0</ele>
      </trkpt>
      <trkpt lat="45.293749" lon="7.087364">
        <time>2023-04-27T05:45:08+00:00</time>
        <ele>2148.0</ele>
      </trkpt>
      <trkpt lat="45.293634" lon="7.087406">
        <time>2023-04-27T05:45:22+00:00</time>
        <ele>2150.0</ele>
      </trkpt>
      <trkpt lat="45.293584" lon="7.087416">
        <time>2023-04-27T05:45:27+00:00</time>
        <ele>2151.0</ele>
      </trkpt>
      <trkpt lat="45.29356" lon="7.087419">
        <time>2023-04-27T05:45:30+00:00</time>
        <ele>2151.0</ele>
      </trkpt>
      <trkpt lat="45.293536" lon="7.087416">
        <time>2023-04-27T05:45:33+00:00</time>
        <ele>2151.0</ele>
      </trkpt>
      <trkpt lat="45.293516" lon="7.087411">
        <time>2023-04-27T05:45:35+00:00</time>
        <ele>2151.0</ele>
      </trkpt>
      <trkpt lat="45.293485" lon="7.08741">
        <time>2023-04-27T05:45:38+00:00</time>
        <ele>2151.0</ele>
      </trkpt>
      <trkpt lat="45.293455" lon="7.087407">
        <time>2023-04-27T05:45:42+00:00</time>
        <ele>2151.0</ele>
      </trkpt>
      <trkpt lat="45.293442" lon="7.087435">
        <time>2023-04-27T05:45:51+00:00</time>
        <ele>2152.0</ele>
      </trkpt>
      <trkpt lat="45.293423" lon="7.087414">
        <time>2023-04-27T05:45:55+00:00</time>
        <ele>2152.0</ele>
      </trkpt>
      <trkpt lat="45.293382" lon="7.087387">
        <time>2023-04-27T05:45:59+00:00</time>
        <ele>2151.0</ele>
      </trkpt>
      <trkpt lat="45.293323" lon="7.087353">
        <time>2023-04-27T05:46:07+00:00</time>
        <ele>2151.0</ele>
      </trkpt>
      <trkpt lat="45.293307" lon="7.087333">
        <time>2023-04-27T05:46:09+00:00</time>
        <ele>2151.0</ele>
      </trkpt>
      <trkpt lat="45.293242" lon="7.087285">
        <time>2023-04-27T05:46:17+00:00</time>
        <ele>2151.0</ele>
      </trkpt>
      <trkpt lat="45.293222" lon="7.087269">
        <time>2023-04-27T05:46:20+00:00</time>
        <ele>2151.0</ele>
      </trkpt>
      <trkpt lat="45.293189" lon="7.08722">
        <time>2023-04-27T05:46:28+00:00</time>
        <ele>2151.0</ele>
      </trkpt>
      <trkpt lat="45.293055" lon="7.087111">
        <time>2023-04-27T05:46:48+00:00</time>
        <ele>2153.0</ele>
      </trkpt>
      <trkpt lat="45.293033" lon="7.087099">
        <time>2023-04-27T05:46:52+00:00</time>
        <ele>2153.0</ele>
      </trkpt>
      <trkpt lat="45.292903" lon="7.087034">
        <time>2023-04-27T05:47:08+00:00</time>
        <ele>2155.0</ele>
      </trkpt>
      <trkpt lat="45.292855" lon="7.086977">
        <time>2023-04-27T05:47:15+00:00</time>
        <ele>2155.0</ele>
      </trkpt>
      <trkpt lat="45.292835" lon="7.086956">
        <time>2023-04-27T05:47:18+00:00</time>
        <ele>2156.0</ele>
      </trkpt>
      <trkpt lat="45.292817" lon="7.086989">
        <time>2023-04-27T05:47:22+00:00</time>
        <ele>2157.0</ele>
      </trkpt>
      <trkpt lat="45.292795" lon="7.087035">
        <time>2023-04-27T05:47:28+00:00</time>
        <ele>2159.0</ele>
      </trkpt>
      <trkpt lat="45.292769" lon="7.087062">
        <time>2023-04-27T05:47:34+00:00</time>
        <ele>2160.0</ele>
      </trkpt>
      <trkpt lat="45.292735" lon="7.087052">
        <time>2023-04-27T05:47:40+00:00</time>
        <ele>2161.0</ele>
      </trkpt>
      <trkpt lat="45.292714" lon="7.087022">
        <time>2023-04-27T05:47:46+00:00</time>
        <ele>2162.0</ele>
      </trkpt>
      <trkpt lat="45.292698" lon="7.086996">
        <time>2023-04-27T05:48:03+00:00</time>
        <ele>2162.0</ele>
      </trkpt>
      <trkpt lat="45.29268" lon="7.086965">
        <time>2023-04-27T05:48:10+00:00</time>
        <ele>2163.0</ele>
      </trkpt>
      <trkpt lat="45.292663" lon="7.086891">
        <time>2023-04-27T05:48:24+00:00</time>
        <ele>2164.0</ele>
      </trkpt>
      <trkpt lat="45.292628" lon="7.086877">
        <time>2023-04-27T05:48:29+00:00</time>
        <ele>2166.0</ele>
      </trkpt>
      <trkpt lat="45.29262" lon="7.08683">
        <time>2023-04-27T05:48:36+00:00</time>
        <ele>2166.0</ele>
      </trkpt>
      <trkpt lat="45.292611" lon="7.086784">
        <time>2023-04-27T05:48:45+00:00</time>
        <ele>2167.0</ele>
      </trkpt>
      <trkpt lat="45.29258" lon="7.086727">
        <time>2023-04-27T05:48:55+00:00</time>
        <ele>2169.0</ele>
      </trkpt>
      <trkpt lat="45.29258" lon="7.086684">
        <time>2023-04-27T05:49:05+00:00</time>
        <ele>2169.0</ele>
      </trkpt>
      <trkpt lat="45.292551" lon="7.086638">
        <time>2023-04-27T05:49:13+00:00</time>
        <ele>2170.0</ele>
      </trkpt>
      <trkpt lat="45.292508" lon="7.086575">
        <time>2023-04-27T05:49:24+00:00</time>
        <ele>2173.0</ele>
      </trkpt>
      <trkpt lat="45.292488" lon="7.086532">
        <time>2023-04-27T05:49:30+00:00</time>
        <ele>2174.0</ele>
      </trkpt>
      <trkpt lat="45.292454" lon="7.086535">
        <time>2023-04-27T05:49:39+00:00</time>
        <ele>2176.0</ele>
      </trkpt>
      <trkpt lat="45.292434" lon="7.086498">
        <time>2023-04-27T05:49:45+00:00</time>
        <ele>2177.0</ele>
      </trkpt>
      <trkpt lat="45.292411" lon="7.086471">
        <time>2023-04-27T05:49:53+00:00</time>
        <ele>2178.0</ele>
      </trkpt>
      <trkpt lat="45.292388" lon="7.086446">
        <time>2023-04-27T05:50:01+00:00</time>
        <ele>2179.0</ele>
      </trkpt>
      <trkpt lat="45.292372" lon="7.086366">
        <time>2023-04-27T05:50:29+00:00</time>
        <ele>2181.0</ele>
      </trkpt>
      <trkpt lat="45.292325" lon="7.08623">
        <time>2023-04-27T05:50:50+00:00</time>
        <ele>2182.0</ele>
      </trkpt>
      <trkpt lat="45.292312" lon="7.086205">
        <time>2023-04-27T05:50:54+00:00</time>
        <ele>2183.0</ele>
      </trkpt>
      <trkpt lat="45.292296" lon="7.086172">
        <time>2023-04-27T05:50:58+00:00</time>
        <ele>2183.0</ele>
      </trkpt>
      <trkpt lat="45.292282" lon="7.086144">
        <time>2023-04-27T05:51:04+00:00</time>
        <ele>2184.0</ele>
      </trkpt>
      <trkpt lat="45.292234" lon="7.08603">
        <time>2023-04-27T05:51:24+00:00</time>
        <ele>2186.0</ele>
      </trkpt>
      <trkpt lat="45.292221" lon="7.08601">
        <time>2023-04-27T05:51:28+00:00</time>
        <ele>2186.0</ele>
      </trkpt>
      <trkpt lat="45.292163" lon="7.085896">
        <time>2023-04-27T05:51:53+00:00</time>
        <ele>2188.0</ele>
      </trkpt>
      <trkpt lat="45.292145" lon="7.085864">
        <time>2023-04-27T05:51:59+00:00</time>
        <ele>2189.0</ele>
      </trkpt>
      <trkpt lat="45.292123" lon="7.085845">
        <time>2023-04-27T05:52:05+00:00</time>
        <ele>2189.0</ele>
      </trkpt>
      <trkpt lat="45.292108" lon="7.085823">
        <time>2023-04-27T05:52:21+00:00</time>
        <ele>2189.0</ele>
      </trkpt>
      <trkpt lat="45.292087" lon="7.085808">
        <time>2023-04-27T05:52:30+00:00</time>
        <ele>2189.0</ele>
      </trkpt>
      <trkpt lat="45.292065" lon="7.085803">
        <time>2023-04-27T05:52:34+00:00</time>
        <ele>2189.0</ele>
      </trkpt>
      <trkpt lat="45.292041" lon="7.085811">
        <time>2023-04-27T05:52:38+00:00</time>
        <ele>2190.0</ele>
      </trkpt>
      <trkpt lat="45.292012" lon="7.085816">
        <time>2023-04-27T05:52:42+00:00</time>
        <ele>2190.0</ele>
      </trkpt>
      <trkpt lat="45.291986" lon="7.085817">
        <time>2023-04-27T05:52:48+00:00</time>
        <ele>2191.0</ele>
      </trkpt>
      <trkpt lat="45.291964" lon="7.085805">
        <time>2023-04-27T05:52:51+00:00</time>
        <ele>2191.0</ele>
      </trkpt>
      <trkpt lat="45.291914" lon="7.085803">
        <time>2023-04-27T05:52:58+00:00</time>
        <ele>2191.0</ele>
      </trkpt>
      <trkpt lat="45.291882" lon="7.085822">
        <time>2023-04-27T05:53:03+00:00</time>
        <ele>2192.0</ele>
      </trkpt>
      <trkpt lat="45.29186" lon="7.085836">
        <time>2023-04-27T05:53:06+00:00</time>
        <ele>2192.0</ele>
      </trkpt>
      <trkpt lat="45.291843" lon="7.085845">
        <time>2023-04-27T05:53:09+00:00</time>
        <ele>2193.0</ele>
      </trkpt>
      <trkpt lat="45.291756" lon="7.085833">
        <time>2023-04-27T05:53:19+00:00</time>
        <ele>2193.0</ele>
      </trkpt>
      <trkpt lat="45.291685" lon="7.08578">
        <time>2023-04-27T05:53:29+00:00</time>
        <ele>2195.0</ele>
      </trkpt>
      <trkpt lat="45.291564" lon="7.085546">
        <time>2023-04-27T05:53:53+00:00</time>
        <ele>2198.0</ele>
      </trkpt>
      <trkpt lat="45.291519" lon="7.085473">
        <time>2023-04-27T05:54:01+00:00</time>
        <ele>2201.0</ele>
      </trkpt>
      <trkpt lat="45.291448" lon="7.085303">
        <time>2023-04-27T05:54:21+00:00</time>
        <ele>2205.0</ele>
      </trkpt>
      <trkpt lat="45.291427" lon="7.085266">
        <time>2023-04-27T05:54:26+00:00</time>
        <ele>2205.0</ele>
      </trkpt>
      <trkpt lat="45.29141" lon="7.085223">
        <time>2023-04-27T05:54:34+00:00</time>
        <ele>2205.0</ele>
      </trkpt>
      <trkpt lat="45.291296" lon="7.085056">
        <time>2023-04-27T05:55:03+00:00</time>
        <ele>2208.0</ele>
      </trkpt>
      <trkpt lat="45.291293" lon="7.085024">
        <time>2023-04-27T05:55:10+00:00</time>
        <ele>2207.0</ele>
      </trkpt>
      <trkpt lat="45.291285" lon="7.084987">
        <time>2023-04-27T05:55:15+00:00</time>
        <ele>2207.0</ele>
      </trkpt>
      <trkpt lat="45.291268" lon="7.084959">
        <time>2023-04-27T05:55:20+00:00</time>
        <ele>2207.0</ele>
      </trkpt>
      <trkpt lat="45.291242" lon="7.084893">
        <time>2023-04-27T05:55:27+00:00</time>
        <ele>2207.0</ele>
      </trkpt>
      <trkpt lat="45.291227" lon="7.084872">
        <time>2023-04-27T05:55:31+00:00</time>
        <ele>2207.0</ele>
      </trkpt>
      <trkpt lat="45.2912" lon="7.084848">
        <time>2023-04-27T05:55:41+00:00</time>
        <ele>2207.0</ele>
      </trkpt>
      <trkpt lat="45.29118" lon="7.084826">
        <time>2023-04-27T05:55:44+00:00</time>
        <ele>2207.0</ele>
      </trkpt>
      <trkpt lat="45.291093" lon="7.084784">
        <time>2023-04-27T05:55:55+00:00</time>
        <ele>2207.0</ele>
      </trkpt>
      <trkpt lat="45.291068" lon="7.084783">
        <time>2023-04-27T05:56:10+00:00</time>
        <ele>2207.0</ele>
      </trkpt>
      <trkpt lat="45.291045" lon="7.084764">
        <time>2023-04-27T05:56:13+00:00</time>
        <ele>2206.0</ele>
      </trkpt>
      <trkpt lat="45.291015" lon="7.084749">
        <time>2023-04-27T05:56:18+00:00</time>
        <ele>2206.0</ele>
      </trkpt>
      <trkpt lat="45.290993" lon="7.084743">
        <time>2023-04-27T05:56:21+00:00</time>
        <ele>2206.0</ele>
      </trkpt>
      <trkpt lat="45.29093" lon="7.084733">
        <time>2023-04-27T05:56:29+00:00</time>
        <ele>2206.0</ele>
      </trkpt>
      <trkpt lat="45.2909" lon="7.084748">
        <time>2023-04-27T05:56:34+00:00</time>
        <ele>2207.0</ele>
      </trkpt>
      <trkpt lat="45.290873" lon="7.084737">
        <time>2023-04-27T05:56:38+00:00</time>
        <ele>2207.0</ele>
      </trkpt>
      <trkpt lat="45.290839" lon="7.084744">
        <time>2023-04-27T05:56:49+00:00</time>
        <ele>2207.0</ele>
      </trkpt>
      <trkpt lat="45.29074" lon="7.084712">
        <time>2023-04-27T05:57:03+00:00</time>
        <ele>2205.0</ele>
      </trkpt>
      <trkpt lat="45.290707" lon="7.084721">
        <time>2023-04-27T05:57:10+00:00</time>
        <ele>2205.0</ele>
      </trkpt>
      <trkpt lat="45.290612" lon="7.084717">
        <time>2023-04-27T05:57:28+00:00</time>
        <ele>2204.0</ele>
      </trkpt>
      <trkpt lat="45.29059" lon="7.084747">
        <time>2023-04-27T05:57:45+00:00</time>
        <ele>2205.0</ele>
      </trkpt>
      <trkpt lat="45.290572" lon="7.084732">
        <time>2023-04-27T05:57:58+00:00</time>
        <ele>2204.0</ele>
      </trkpt>
      <trkpt lat="45.290542" lon="7.084765">
        <time>2023-04-27T05:58:53+00:00</time>
        <ele>2204.0</ele>
      </trkpt>
      <trkpt lat="45.290503" lon="7.084771">
        <time>2023-04-27T05:58:58+00:00</time>
        <ele>2204.0</ele>
      </trkpt>
      <trkpt lat="45.290477" lon="7.084759">
        <time>2023-04-27T05:59:01+00:00</time>
        <ele>2203.0</ele>
      </trkpt>
      <trkpt lat="45.290445" lon="7.084758">
        <time>2023-04-27T05:59:05+00:00</time>
        <ele>2202.0</ele>
      </trkpt>
      <trkpt lat="45.290417" lon="7.08477">
        <time>2023-04-27T05:59:09+00:00</time>
        <ele>2202.0</ele>
      </trkpt>
      <trkpt lat="45.290349" lon="7.084802">
        <time>2023-04-27T05:59:20+00:00</time>
        <ele>2203.0</ele>
      </trkpt>
      <trkpt lat="45.29029" lon="7.084814">
        <time>2023-04-27T05:59:30+00:00</time>
        <ele>2203.0</ele>
      </trkpt>
      <trkpt lat="45.290281" lon="7.084757">
        <time>2023-04-27T05:59:43+00:00</time>
        <ele>2201.0</ele>
      </trkpt>
      <trkpt lat="45.290254" lon="7.084732">
        <time>2023-04-27T05:59:46+00:00</time>
        <ele>2200.0</ele>
      </trkpt>
      <trkpt lat="45.290228" lon="7.084722">
        <time>2023-04-27T05:59:51+00:00</time>
        <ele>2200.0</ele>
      </trkpt>
      <trkpt lat="45.290201" lon="7.084703">
        <time>2023-04-27T05:59:56+00:00</time>
        <ele>2200.0</ele>
      </trkpt>
      <trkpt lat="45.290172" lon="7.08468">
        <time>2023-04-27T06:00:01+00:00</time>
        <ele>2201.0</ele>
      </trkpt>
      <trkpt lat="45.290118" lon="7.084686">
        <time>2023-04-27T06:00:08+00:00</time>
        <ele>2201.0</ele>
      </trkpt>
      <trkpt lat="45.290092" lon="7.084673">
        <time>2023-04-27T06:00:11+00:00</time>
        <ele>2201.0</ele>
      </trkpt>
      <trkpt lat="45.290079" lon="7.084708">
        <time>2023-04-27T06:00:23+00:00</time>
        <ele>2201.0</ele>
      </trkpt>
      <trkpt lat="45.290069" lon="7.084704">
        <time>2023-04-27T06:03:18+00:00</time>
        <ele>2201.0</ele>
      </trkpt>
      <trkpt lat="45.290047" lon="7.08465">
        <time>2023-04-27T06:03:23+00:00</time>
        <ele>2202.0</ele>
      </trkpt>
      <trkpt lat="45.290042" lon="7.084619">
        <time>2023-04-27T06:03:27+00:00</time>
        <ele>2202.0</ele>
      </trkpt>
      <trkpt lat="45.290053" lon="7.084586">
        <time>2023-04-27T06:03:33+00:00</time>
        <ele>2202.0</ele>
      </trkpt>
      <trkpt lat="45.290068" lon="7.084543">
        <time>2023-04-27T06:03:40+00:00</time>
        <ele>2202.0</ele>
      </trkpt>
      <trkpt lat="45.290089" lon="7.084524">
        <time>2023-04-27T06:03:48+00:00</time>
        <ele>2202.0</ele>
      </trkpt>
      <trkpt lat="45.290094" lon="7.084489">
        <time>2023-04-27T06:03:54+00:00</time>
        <ele>2202.0</ele>
      </trkpt>
      <trkpt lat="45.2901" lon="7.084456">
        <time>2023-04-27T06:03:58+00:00</time>
        <ele>2203.0</ele>
      </trkpt>
      <trkpt lat="45.290114" lon="7.084424">
        <time>2023-04-27T06:04:05+00:00</time>
        <ele>2204.0</ele>
      </trkpt>
      <trkpt lat="45.290136" lon="7.084373">
        <time>2023-04-27T06:04:17+00:00</time>
        <ele>2205.0</ele>
      </trkpt>
      <trkpt lat="45.290157" lon="7.084348">
        <time>2023-04-27T06:04:25+00:00</time>
        <ele>2205.0</ele>
      </trkpt>
      <trkpt lat="45.290159" lon="7.084306">
        <time>2023-04-27T06:04:29+00:00</time>
        <ele>2206.0</ele>
      </trkpt>
      <trkpt lat="45.290196" lon="7.084255">
        <time>2023-04-27T06:04:38+00:00</time>
        <ele>2206.0</ele>
      </trkpt>
      <trkpt lat="45.29019" lon="7.084218">
        <time>2023-04-27T06:04:53+00:00</time>
        <ele>2207.0</ele>
      </trkpt>
      <trkpt lat="45.290174" lon="7.084198">
        <time>2023-04-27T06:04:56+00:00</time>
        <ele>2208.0</ele>
      </trkpt>
      <trkpt lat="45.290156" lon="7.084186">
        <time>2023-04-27T06:05:00+00:00</time>
        <ele>2209.0</ele>
      </trkpt>
      <trkpt lat="45.28995" lon="7.084181">
        <time>2023-04-27T06:05:32+00:00</time>
        <ele>2213.0</ele>
      </trkpt>
      <trkpt lat="45.289921" lon="7.084194">
        <time>2023-04-27T06:05:36+00:00</time>
        <ele>2213.0</ele>
      </trkpt>
      <trkpt lat="45.289895" lon="7.084192">
        <time>2023-04-27T06:05:40+00:00</time>
        <ele>2214.0</ele>
      </trkpt>
      <trkpt lat="45.289874" lon="7.084202">
        <time>2023-04-27T06:05:43+00:00</time>
        <ele>2214.0</ele>
      </trkpt>
      <trkpt lat="45.289856" lon="7.084191">
        <time>2023-04-27T06:05:46+00:00</time>
        <ele>2214.0</ele>
      </trkpt>
      <trkpt lat="45.289807" lon="7.084202">
        <time>2023-04-27T06:05:53+00:00</time>
        <ele>2215.0</ele>
      </trkpt>
      <trkpt lat="45.289786" lon="7.084197">
        <time>2023-04-27T06:05:56+00:00</time>
        <ele>2215.0</ele>
      </trkpt>
      <trkpt lat="45.289767" lon="7.084216">
        <time>2023-04-27T06:06:01+00:00</time>
        <ele>2215.0</ele>
      </trkpt>
      <trkpt lat="45.289734" lon="7.084208">
        <time>2023-04-27T06:06:04+00:00</time>
        <ele>2215.0</ele>
      </trkpt>
      <trkpt lat="45.289699" lon="7.084183">
        <time>2023-04-27T06:06:08+00:00</time>
        <ele>2216.0</ele>
      </trkpt>
      <trkpt lat="45.289657" lon="7.084179">
        <time>2023-04-27T06:06:14+00:00</time>
        <ele>2217.0</ele>
      </trkpt>
      <trkpt lat="45.289633" lon="7.084167">
        <time>2023-04-27T06:06:18+00:00</time>
        <ele>2217.0</ele>
      </trkpt>
      <trkpt lat="45.289613" lon="7.084171">
        <time>2023-04-27T06:06:21+00:00</time>
        <ele>2218.0</ele>
      </trkpt>
      <trkpt lat="45.289593" lon="7.084156">
        <time>2023-04-27T06:06:25+00:00</time>
        <ele>2218.0</ele>
      </trkpt>
      <trkpt lat="45.289565" lon="7.084148">
        <time>2023-04-27T06:06:30+00:00</time>
        <ele>2219.0</ele>
      </trkpt>
      <trkpt lat="45.289545" lon="7.084133">
        <time>2023-04-27T06:06:33+00:00</time>
        <ele>2219.0</ele>
      </trkpt>
      <trkpt lat="45.289532" lon="7.084114">
        <time>2023-04-27T06:06:35+00:00</time>
        <ele>2220.0</ele>
      </trkpt>
      <trkpt lat="45.28952" lon="7.084088">
        <time>2023-04-27T06:06:39+00:00</time>
        <ele>2220.0</ele>
      </trkpt>
      <trkpt lat="45.289472" lon="7.084062">
        <time>2023-04-27T06:06:52+00:00</time>
        <ele>2222.0</ele>
      </trkpt>
      <trkpt lat="45.289446" lon="7.084058">
        <time>2023-04-27T06:06:56+00:00</time>
        <ele>2222.0</ele>
      </trkpt>
      <trkpt lat="45.289422" lon="7.084058">
        <time>2023-04-27T06:07:00+00:00</time>
        <ele>2223.0</ele>
      </trkpt>
      <trkpt lat="45.289398" lon="7.084078">
        <time>2023-04-27T06:07:06+00:00</time>
        <ele>2223.0</ele>
      </trkpt>
      <trkpt lat="45.28937" lon="7.084088">
        <time>2023-04-27T06:07:10+00:00</time>
        <ele>2223.0</ele>
      </trkpt>
      <trkpt lat="45.289296" lon="7.084114">
        <time>2023-04-27T06:07:22+00:00</time>
        <ele>2224.0</ele>
      </trkpt>
      <trkpt lat="45.289247" lon="7.084142">
        <time>2023-04-27T06:07:29+00:00</time>
        <ele>2225.0</ele>
      </trkpt>
      <trkpt lat="45.289063" lon="7.084214">
        <time>2023-04-27T06:07:53+00:00</time>
        <ele>2228.0</ele>
      </trkpt>
      <trkpt lat="45.289045" lon="7.084226">
        <time>2023-04-27T06:07:56+00:00</time>
        <ele>2228.0</ele>
      </trkpt>
      <trkpt lat="45.289005" lon="7.084272">
        <time>2023-04-27T06:08:01+00:00</time>
        <ele>2228.0</ele>
      </trkpt>
      <trkpt lat="45.28898" lon="7.08428">
        <time>2023-04-27T06:08:04+00:00</time>
        <ele>2228.0</ele>
      </trkpt>
      <trkpt lat="45.288949" lon="7.084296">
        <time>2023-04-27T06:08:08+00:00</time>
        <ele>2229.0</ele>
      </trkpt>
      <trkpt lat="45.288924" lon="7.084333">
        <time>2023-04-27T06:08:13+00:00</time>
        <ele>2229.0</ele>
      </trkpt>
      <trkpt lat="45.288904" lon="7.084352">
        <time>2023-04-27T06:08:16+00:00</time>
        <ele>2229.0</ele>
      </trkpt>
      <trkpt lat="45.288885" lon="7.084383">
        <time>2023-04-27T06:08:20+00:00</time>
        <ele>2229.0</ele>
      </trkpt>
      <trkpt lat="45.288858" lon="7.084404">
        <time>2023-04-27T06:08:24+00:00</time>
        <ele>2229.0</ele>
      </trkpt>
      <trkpt lat="45.288831" lon="7.08441">
        <time>2023-04-27T06:08:28+00:00</time>
        <ele>2229.0</ele>
      </trkpt>
      <trkpt lat="45.288746" lon="7.084388">
        <time>2023-04-27T06:08:42+00:00</time>
        <ele>2230.0</ele>
      </trkpt>
      <trkpt lat="45.288721" lon="7.084388">
        <time>2023-04-27T06:08:45+00:00</time>
        <ele>2230.0</ele>
      </trkpt>
      <trkpt lat="45.288566" lon="7.084347">
        <time>2023-04-27T06:09:04+00:00</time>
        <ele>2231.0</ele>
      </trkpt>
      <trkpt lat="45.28849" lon="7.084349">
        <time>2023-04-27T06:09:11+00:00</time>
        <ele>2231.0</ele>
      </trkpt>
      <trkpt lat="45.288398" lon="7.08433">
        <time>2023-04-27T06:09:24+00:00</time>
        <ele>2231.0</ele>
      </trkpt>
      <trkpt lat="45.288313" lon="7.08431">
        <time>2023-04-27T06:09:34+00:00</time>
        <ele>2230.0</ele>
      </trkpt>
      <trkpt lat="45.288272" lon="7.084239">
        <time>2023-04-27T06:09:42+00:00</time>
        <ele>2231.0</ele>
      </trkpt>
      <trkpt lat="45.28826" lon="7.084189">
        <time>2023-04-27T06:09:48+00:00</time>
        <ele>2232.0</ele>
      </trkpt>
      <trkpt lat="45.288251" lon="7.084146">
        <time>2023-04-27T06:09:52+00:00</time>
        <ele>2232.0</ele>
      </trkpt>
      <trkpt lat="45.288207" lon="7.084085">
        <time>2023-04-27T06:09:59+00:00</time>
        <ele>2233.0</ele>
      </trkpt>
      <trkpt lat="45.288183" lon="7.084071">
        <time>2023-04-27T06:10:03+00:00</time>
        <ele>2234.0</ele>
      </trkpt>
      <trkpt lat="45.288152" lon="7.08406">
        <time>2023-04-27T06:10:08+00:00</time>
        <ele>2234.0</ele>
      </trkpt>
      <trkpt lat="45.288104" lon="7.084047">
        <time>2023-04-27T06:10:14+00:00</time>
        <ele>2234.0</ele>
      </trkpt>
      <trkpt lat="45.288073" lon="7.084046">
        <time>2023-04-27T06:10:18+00:00</time>
        <ele>2235.0</ele>
      </trkpt>
      <trkpt lat="45.287996" lon="7.083995">
        <time>2023-04-27T06:10:27+00:00</time>
        <ele>2236.0</ele>
      </trkpt>
      <trkpt lat="45.288018" lon="7.084006">
        <time>2023-04-27T06:14:39+00:00</time>
        <ele>2236.0</ele>
      </trkpt>
      <trkpt lat="45.288003" lon="7.084037">
        <time>2023-04-27T06:14:45+00:00</time>
        <ele>2235.0</ele>
      </trkpt>
      <trkpt lat="45.287989" lon="7.084009">
        <time>2023-04-27T06:16:10+00:00</time>
        <ele>2236.0</ele>
      </trkpt>
      <trkpt lat="45.287964" lon="7.084014">
        <time>2023-04-27T06:16:13+00:00</time>
        <ele>2236.0</ele>
      </trkpt>
      <trkpt lat="45.287886" lon="7.08401">
        <time>2023-04-27T06:16:23+00:00</time>
        <ele>2237.0</ele>
      </trkpt>
      <trkpt lat="45.287864" lon="7.084027">
        <time>2023-04-27T06:16:26+00:00</time>
        <ele>2237.0</ele>
      </trkpt>
      <trkpt lat="45.287842" lon="7.084029">
        <time>2023-04-27T06:16:29+00:00</time>
        <ele>2237.0</ele>
      </trkpt>
      <trkpt lat="45.28782" lon="7.084022">
        <time>2023-04-27T06:16:34+00:00</time>
        <ele>2237.0</ele>
      </trkpt>
      <trkpt lat="45.287794" lon="7.084023">
        <time>2023-04-27T06:16:37+00:00</time>
        <ele>2237.0</ele>
      </trkpt>
      <trkpt lat="45.287751" lon="7.084027">
        <time>2023-04-27T06:16:43+00:00</time>
        <ele>2239.0</ele>
      </trkpt>
      <trkpt lat="45.287726" lon="7.084012">
        <time>2023-04-27T06:16:47+00:00</time>
        <ele>2240.0</ele>
      </trkpt>
      <trkpt lat="45.287704" lon="7.084012">
        <time>2023-04-27T06:16:50+00:00</time>
        <ele>2241.0</ele>
      </trkpt>
      <trkpt lat="45.287688" lon="7.084022">
        <time>2023-04-27T06:16:53+00:00</time>
        <ele>2241.0</ele>
      </trkpt>
      <trkpt lat="45.287663" lon="7.084022">
        <time>2023-04-27T06:16:57+00:00</time>
        <ele>2242.0</ele>
      </trkpt>
      <trkpt lat="45.287614" lon="7.084037">
        <time>2023-04-27T06:17:04+00:00</time>
        <ele>2243.0</ele>
      </trkpt>
      <trkpt lat="45.287594" lon="7.084054">
        <time>2023-04-27T06:17:07+00:00</time>
        <ele>2244.0</ele>
      </trkpt>
      <trkpt lat="45.287572" lon="7.08408">
        <time>2023-04-27T06:17:11+00:00</time>
        <ele>2244.0</ele>
      </trkpt>
      <trkpt lat="45.28754" lon="7.084044">
        <time>2023-04-27T06:17:16+00:00</time>
        <ele>2246.0</ele>
      </trkpt>
      <trkpt lat="45.287535" lon="7.08399">
        <time>2023-04-27T06:17:17+00:00</time>
        <ele>2248.0</ele>
      </trkpt>
      <trkpt lat="45.287526" lon="7.083941">
        <time>2023-04-27T06:17:19+00:00</time>
        <ele>2249.0</ele>
      </trkpt>
      <trkpt lat="45.2875" lon="7.083972">
        <time>2023-04-27T06:17:24+00:00</time>
        <ele>2249.0</ele>
      </trkpt>
      <trkpt lat="45.287495" lon="7.084005">
        <time>2023-04-27T06:17:42+00:00</time>
        <ele>2249.0</ele>
      </trkpt>
      <trkpt lat="45.287403" lon="7.084121">
        <time>2023-04-27T06:17:59+00:00</time>
        <ele>2250.0</ele>
      </trkpt>
      <trkpt lat="45.287371" lon="7.084235">
        <time>2023-04-27T06:18:05+00:00</time>
        <ele>2248.0</ele>
      </trkpt>
      <trkpt lat="45.287344" lon="7.084258">
        <time>2023-04-27T06:18:12+00:00</time>
        <ele>2249.0</ele>
      </trkpt>
      <trkpt lat="45.287321" lon="7.084279">
        <time>2023-04-27T06:18:19+00:00</time>
        <ele>2249.0</ele>
      </trkpt>
      <trkpt lat="45.287292" lon="7.08429">
        <time>2023-04-27T06:18:25+00:00</time>
        <ele>2250.0</ele>
      </trkpt>
      <trkpt lat="45.287259" lon="7.084301">
        <time>2023-04-27T06:18:29+00:00</time>
        <ele>2251.0</ele>
      </trkpt>
      <trkpt lat="45.287232" lon="7.084298">
        <time>2023-04-27T06:18:52+00:00</time>
        <ele>2252.0</ele>
      </trkpt>
      <trkpt lat="45.287207" lon="7.08432">
        <time>2023-04-27T06:18:57+00:00</time>
        <ele>2253.0</ele>
      </trkpt>
      <trkpt lat="45.287086" lon="7.084427">
        <time>2023-04-27T06:19:21+00:00</time>
        <ele>2254.0</ele>
      </trkpt>
      <trkpt lat="45.287065" lon="7.08446">
        <time>2023-04-27T06:19:26+00:00</time>
        <ele>2254.0</ele>
      </trkpt>
      <trkpt lat="45.287043" lon="7.084478">
        <time>2023-04-27T06:19:30+00:00</time>
        <ele>2255.0</ele>
      </trkpt>
      <trkpt lat="45.287009" lon="7.084472">
        <time>2023-04-27T06:19:36+00:00</time>
        <ele>2256.0</ele>
      </trkpt>
      <trkpt lat="45.286989" lon="7.084499">
        <time>2023-04-27T06:19:39+00:00</time>
        <ele>2256.0</ele>
      </trkpt>
      <trkpt lat="45.286852" lon="7.084563">
        <time>2023-04-27T06:20:00+00:00</time>
        <ele>2259.0</ele>
      </trkpt>
      <trkpt lat="45.286775" lon="7.084571">
        <time>2023-04-27T06:20:10+00:00</time>
        <ele>2262.0</ele>
      </trkpt>
      <trkpt lat="45.286731" lon="7.084573">
        <time>2023-04-27T06:20:17+00:00</time>
        <ele>2263.0</ele>
      </trkpt>
      <trkpt lat="45.28671" lon="7.084583">
        <time>2023-04-27T06:20:20+00:00</time>
        <ele>2264.0</ele>
      </trkpt>
      <trkpt lat="45.286656" lon="7.084608">
        <time>2023-04-27T06:20:29+00:00</time>
        <ele>2266.0</ele>
      </trkpt>
      <trkpt lat="45.286628" lon="7.084637">
        <time>2023-04-27T06:20:34+00:00</time>
        <ele>2267.0</ele>
      </trkpt>
      <trkpt lat="45.286608" lon="7.084682">
        <time>2023-04-27T06:20:46+00:00</time>
        <ele>2268.0</ele>
      </trkpt>
      <trkpt lat="45.286587" lon="7.084659">
        <time>2023-04-27T06:21:09+00:00</time>
        <ele>2269.0</ele>
      </trkpt>
      <trkpt lat="45.286574" lon="7.084619">
        <time>2023-04-27T06:21:16+00:00</time>
        <ele>2269.0</ele>
      </trkpt>
      <trkpt lat="45.286555" lon="7.084541">
        <time>2023-04-27T06:21:31+00:00</time>
        <ele>2269.0</ele>
      </trkpt>
      <trkpt lat="45.286539" lon="7.084508">
        <time>2023-04-27T06:21:37+00:00</time>
        <ele>2270.0</ele>
      </trkpt>
      <trkpt lat="45.286519" lon="7.084492">
        <time>2023-04-27T06:21:44+00:00</time>
        <ele>2271.0</ele>
      </trkpt>
      <trkpt lat="45.28646" lon="7.084539">
        <time>2023-04-27T06:21:54+00:00</time>
        <ele>2272.0</ele>
      </trkpt>
      <trkpt lat="45.286435" lon="7.084549">
        <time>2023-04-27T06:22:01+00:00</time>
        <ele>2274.0</ele>
      </trkpt>
      <trkpt lat="45.286412" lon="7.084561">
        <time>2023-04-27T06:22:05+00:00</time>
        <ele>2275.0</ele>
      </trkpt>
      <trkpt lat="45.286392" lon="7.084592">
        <time>2023-04-27T06:22:11+00:00</time>
        <ele>2275.0</ele>
      </trkpt>
      <trkpt lat="45.286375" lon="7.084612">
        <time>2023-04-27T06:22:19+00:00</time>
        <ele>2276.0</ele>
      </trkpt>
      <trkpt lat="45.286355" lon="7.084638">
        <time>2023-04-27T06:22:23+00:00</time>
        <ele>2277.0</ele>
      </trkpt>
      <trkpt lat="45.286345" lon="7.084678">
        <time>2023-04-27T06:22:28+00:00</time>
        <ele>2277.0</ele>
      </trkpt>
      <trkpt lat="45.286317" lon="7.084711">
        <time>2023-04-27T06:22:34+00:00</time>
        <ele>2278.0</ele>
      </trkpt>
      <trkpt lat="45.286302" lon="7.084749">
        <time>2023-04-27T06:22:39+00:00</time>
        <ele>2278.0</ele>
      </trkpt>
      <trkpt lat="45.286263" lon="7.084876">
        <time>2023-04-27T06:22:54+00:00</time>
        <ele>2279.0</ele>
      </trkpt>
      <trkpt lat="45.286226" lon="7.084989">
        <time>2023-04-27T06:23:09+00:00</time>
        <ele>2280.0</ele>
      </trkpt>
      <trkpt lat="45.286203" lon="7.084984">
        <time>2023-04-27T06:23:14+00:00</time>
        <ele>2281.0</ele>
      </trkpt>
      <trkpt lat="45.286147" lon="7.084964">
        <time>2023-04-27T06:23:27+00:00</time>
        <ele>2282.0</ele>
      </trkpt>
      <trkpt lat="45.286134" lon="7.084929">
        <time>2023-04-27T06:23:34+00:00</time>
        <ele>2282.0</ele>
      </trkpt>
      <trkpt lat="45.286108" lon="7.08491">
        <time>2023-04-27T06:23:43+00:00</time>
        <ele>2283.0</ele>
      </trkpt>
      <trkpt lat="45.286061" lon="7.084914">
        <time>2023-04-27T06:23:49+00:00</time>
        <ele>2284.0</ele>
      </trkpt>
      <trkpt lat="45.286022" lon="7.084918">
        <time>2023-04-27T06:23:54+00:00</time>
        <ele>2285.0</ele>
      </trkpt>
      <trkpt lat="45.285992" lon="7.084911">
        <time>2023-04-27T06:23:57+00:00</time>
        <ele>2285.0</ele>
      </trkpt>
      <trkpt lat="45.285862" lon="7.084954">
        <time>2023-04-27T06:24:16+00:00</time>
        <ele>2289.0</ele>
      </trkpt>
      <trkpt lat="45.28586" lon="7.084983">
        <time>2023-04-27T06:25:15+00:00</time>
        <ele>2289.0</ele>
      </trkpt>
      <trkpt lat="45.285838" lon="7.084994">
        <time>2023-04-27T06:26:46+00:00</time>
        <ele>2289.0</ele>
      </trkpt>
      <trkpt lat="45.285731" lon="7.08502">
        <time>2023-04-27T06:27:02+00:00</time>
        <ele>2291.0</ele>
      </trkpt>
      <trkpt lat="45.285634" lon="7.085048">
        <time>2023-04-27T06:27:17+00:00</time>
        <ele>2292.0</ele>
      </trkpt>
      <trkpt lat="45.285626" lon="7.084993">
        <time>2023-04-27T06:27:19+00:00</time>
        <ele>2292.0</ele>
      </trkpt>
      <trkpt lat="45.285593" lon="7.084984">
        <time>2023-04-27T06:27:23+00:00</time>
        <ele>2292.0</ele>
      </trkpt>
      <trkpt lat="45.285582" lon="7.085046">
        <time>2023-04-27T06:27:26+00:00</time>
        <ele>2292.0</ele>
      </trkpt>
      <trkpt lat="45.285548" lon="7.085074">
        <time>2023-04-27T06:27:29+00:00</time>
        <ele>2293.0</ele>
      </trkpt>
      <trkpt lat="45.285472" lon="7.085139">
        <time>2023-04-27T06:27:41+00:00</time>
        <ele>2294.0</ele>
      </trkpt>
      <trkpt lat="45.285408" lon="7.0852">
        <time>2023-04-27T06:27:49+00:00</time>
        <ele>2294.0</ele>
      </trkpt>
      <trkpt lat="45.285378" lon="7.085215">
        <time>2023-04-27T06:27:54+00:00</time>
        <ele>2294.0</ele>
      </trkpt>
      <trkpt lat="45.285313" lon="7.085291">
        <time>2023-04-27T06:28:05+00:00</time>
        <ele>2293.0</ele>
      </trkpt>
      <trkpt lat="45.285256" lon="7.085326">
        <time>2023-04-27T06:28:12+00:00</time>
        <ele>2293.0</ele>
      </trkpt>
      <trkpt lat="45.285233" lon="7.085345">
        <time>2023-04-27T06:28:15+00:00</time>
        <ele>2293.0</ele>
      </trkpt>
      <trkpt lat="45.285195" lon="7.085356">
        <time>2023-04-27T06:28:19+00:00</time>
        <ele>2292.0</ele>
      </trkpt>
      <trkpt lat="45.28514" lon="7.085388">
        <time>2023-04-27T06:28:24+00:00</time>
        <ele>2292.0</ele>
      </trkpt>
      <trkpt lat="45.285077" lon="7.085402">
        <time>2023-04-27T06:28:30+00:00</time>
        <ele>2292.0</ele>
      </trkpt>
      <trkpt lat="45.285055" lon="7.085413">
        <time>2023-04-27T06:28:32+00:00</time>
        <ele>2292.0</ele>
      </trkpt>
      <trkpt lat="45.285034" lon="7.085447">
        <time>2023-04-27T06:28:35+00:00</time>
        <ele>2292.0</ele>
      </trkpt>
      <trkpt lat="45.284832" lon="7.085719">
        <time>2023-04-27T06:28:59+00:00</time>
        <ele>2290.0</ele>
      </trkpt>
      <trkpt lat="45.284743" lon="7.085845">
        <time>2023-04-27T06:29:10+00:00</time>
        <ele>2289.0</ele>
      </trkpt>
      <trkpt lat="45.284674" lon="7.085935">
        <time>2023-04-27T06:29:19+00:00</time>
        <ele>2288.0</ele>
      </trkpt>
      <trkpt lat="45.28455" lon="7.086038">
        <time>2023-04-27T06:29:32+00:00</time>
        <ele>2287.0</ele>
      </trkpt>
      <trkpt lat="45.284529" lon="7.086051">
        <time>2023-04-27T06:29:34+00:00</time>
        <ele>2287.0</ele>
      </trkpt>
      <trkpt lat="45.284403" lon="7.08618">
        <time>2023-04-27T06:29:50+00:00</time>
        <ele>2284.0</ele>
      </trkpt>
      <trkpt lat="45.284362" lon="7.086206">
        <time>2023-04-27T06:29:54+00:00</time>
        <ele>2283.0</ele>
      </trkpt>
      <trkpt lat="45.284332" lon="7.08621">
        <time>2023-04-27T06:29:56+00:00</time>
        <ele>2283.0</ele>
      </trkpt>
      <trkpt lat="45.284307" lon="7.086192">
        <time>2023-04-27T06:30:00+00:00</time>
        <ele>2283.0</ele>
      </trkpt>
      <trkpt lat="45.284271" lon="7.086176">
        <time>2023-04-27T06:30:04+00:00</time>
        <ele>2283.0</ele>
      </trkpt>
      <trkpt lat="45.284243" lon="7.086148">
        <time>2023-04-27T06:30:09+00:00</time>
        <ele>2284.0</ele>
      </trkpt>
      <trkpt lat="45.284196" lon="7.08614">
        <time>2023-04-27T06:30:14+00:00</time>
        <ele>2283.0</ele>
      </trkpt>
      <trkpt lat="45.284113" lon="7.086184">
        <time>2023-04-27T06:30:23+00:00</time>
        <ele>2283.0</ele>
      </trkpt>
      <trkpt lat="45.284093" lon="7.086201">
        <time>2023-04-27T06:30:25+00:00</time>
        <ele>2283.0</ele>
      </trkpt>
      <trkpt lat="45.284061" lon="7.086164">
        <time>2023-04-27T06:30:29+00:00</time>
        <ele>2284.0</ele>
      </trkpt>
      <trkpt lat="45.284024" lon="7.086164">
        <time>2023-04-27T06:30:32+00:00</time>
        <ele>2284.0</ele>
      </trkpt>
      <trkpt lat="45.283977" lon="7.086218">
        <time>2023-04-27T06:30:34+00:00</time>
        <ele>2284.0</ele>
      </trkpt>
      <trkpt lat="45.283822" lon="7.086448">
        <time>2023-04-27T06:31:00+00:00</time>
        <ele>2284.0</ele>
      </trkpt>
      <trkpt lat="45.283785" lon="7.086483">
        <time>2023-04-27T06:31:04+00:00</time>
        <ele>2284.0</ele>
      </trkpt>
      <trkpt lat="45.28363" lon="7.086529">
        <time>2023-04-27T06:31:20+00:00</time>
        <ele>2284.0</ele>
      </trkpt>
      <trkpt lat="45.283583" lon="7.086527">
        <time>2023-04-27T06:31:24+00:00</time>
        <ele>2284.0</ele>
      </trkpt>
      <trkpt lat="45.283557" lon="7.086542">
        <time>2023-04-27T06:31:26+00:00</time>
        <ele>2284.0</ele>
      </trkpt>
      <trkpt lat="45.283529" lon="7.086529">
        <time>2023-04-27T06:32:04+00:00</time>
        <ele>2285.0</ele>
      </trkpt>
      <trkpt lat="45.283497" lon="7.086518">
        <time>2023-04-27T06:32:07+00:00</time>
        <ele>2285.0</ele>
      </trkpt>
      <trkpt lat="45.28349" lon="7.086479">
        <time>2023-04-27T06:32:12+00:00</time>
        <ele>2285.0</ele>
      </trkpt>
      <trkpt lat="45.283481" lon="7.08644">
        <time>2023-04-27T06:32:15+00:00</time>
        <ele>2286.0</ele>
      </trkpt>
      <trkpt lat="45.283461" lon="7.086406">
        <time>2023-04-27T06:32:19+00:00</time>
        <ele>2286.0</ele>
      </trkpt>
      <trkpt lat="45.283428" lon="7.086396">
        <time>2023-04-27T06:32:24+00:00</time>
        <ele>2286.0</ele>
      </trkpt>
      <trkpt lat="45.283314" lon="7.08641">
        <time>2023-04-27T06:32:37+00:00</time>
        <ele>2289.0</ele>
      </trkpt>
      <trkpt lat="45.283291" lon="7.086409">
        <time>2023-04-27T06:32:42+00:00</time>
        <ele>2289.0</ele>
      </trkpt>
      <trkpt lat="45.283299" lon="7.086376">
        <time>2023-04-27T06:32:47+00:00</time>
        <ele>2290.0</ele>
      </trkpt>
      <trkpt lat="45.283311" lon="7.086344">
        <time>2023-04-27T06:32:55+00:00</time>
        <ele>2290.0</ele>
      </trkpt>
      <trkpt lat="45.283297" lon="7.086316">
        <time>2023-04-27T06:33:10+00:00</time>
        <ele>2291.0</ele>
      </trkpt>
      <trkpt lat="45.283272" lon="7.0863">
        <time>2023-04-27T06:33:14+00:00</time>
        <ele>2292.0</ele>
      </trkpt>
      <trkpt lat="45.283255" lon="7.086294">
        <time>2023-04-27T06:33:16+00:00</time>
        <ele>2293.0</ele>
      </trkpt>
      <trkpt lat="45.283211" lon="7.086314">
        <time>2023-04-27T06:33:25+00:00</time>
        <ele>2294.0</ele>
      </trkpt>
      <trkpt lat="45.283186" lon="7.086315">
        <time>2023-04-27T06:33:32+00:00</time>
        <ele>2295.0</ele>
      </trkpt>
      <trkpt lat="45.283115" lon="7.086312">
        <time>2023-04-27T06:33:47+00:00</time>
        <ele>2297.0</ele>
      </trkpt>
      <trkpt lat="45.283111" lon="7.086279">
        <time>2023-04-27T06:34:20+00:00</time>
        <ele>2298.0</ele>
      </trkpt>
      <trkpt lat="45.283133" lon="7.086246">
        <time>2023-04-27T06:34:29+00:00</time>
        <ele>2299.0</ele>
      </trkpt>
      <trkpt lat="45.283155" lon="7.08623">
        <time>2023-04-27T06:34:35+00:00</time>
        <ele>2298.0</ele>
      </trkpt>
      <trkpt lat="45.283189" lon="7.086182">
        <time>2023-04-27T06:34:46+00:00</time>
        <ele>2299.0</ele>
      </trkpt>
      <trkpt lat="45.283208" lon="7.086163">
        <time>2023-04-27T06:34:52+00:00</time>
        <ele>2298.0</ele>
      </trkpt>
      <trkpt lat="45.283201" lon="7.086131">
        <time>2023-04-27T06:35:09+00:00</time>
        <ele>2300.0</ele>
      </trkpt>
      <trkpt lat="45.283176" lon="7.086118">
        <time>2023-04-27T06:35:14+00:00</time>
        <ele>2301.0</ele>
      </trkpt>
      <trkpt lat="45.283141" lon="7.086128">
        <time>2023-04-27T06:35:19+00:00</time>
        <ele>2302.0</ele>
      </trkpt>
      <trkpt lat="45.283067" lon="7.086135">
        <time>2023-04-27T06:35:33+00:00</time>
        <ele>2305.0</ele>
      </trkpt>
      <trkpt lat="45.283031" lon="7.08614">
        <time>2023-04-27T06:35:39+00:00</time>
        <ele>2307.0</ele>
      </trkpt>
      <trkpt lat="45.283013" lon="7.086138">
        <time>2023-04-27T06:35:44+00:00</time>
        <ele>2308.0</ele>
      </trkpt>
      <trkpt lat="45.283023" lon="7.086116">
        <time>2023-04-27T06:36:27+00:00</time>
        <ele>2308.0</ele>
      </trkpt>
      <trkpt lat="45.28301" lon="7.086096">
        <time>2023-04-27T06:36:34+00:00</time>
        <ele>2310.0</ele>
      </trkpt>
      <trkpt lat="45.282952" lon="7.086078">
        <time>2023-04-27T06:36:49+00:00</time>
        <ele>2313.0</ele>
      </trkpt>
      <trkpt lat="45.282927" lon="7.086088">
        <time>2023-04-27T06:36:56+00:00</time>
        <ele>2314.0</ele>
      </trkpt>
      <trkpt lat="45.282916" lon="7.086054">
        <time>2023-04-27T06:37:25+00:00</time>
        <ele>2316.0</ele>
      </trkpt>
      <trkpt lat="45.282868" lon="7.086037">
        <time>2023-04-27T06:37:35+00:00</time>
        <ele>2318.0</ele>
      </trkpt>
      <trkpt lat="45.282751" lon="7.086017">
        <time>2023-04-27T06:38:25+00:00</time>
        <ele>2320.0</ele>
      </trkpt>
      <trkpt lat="45.282604" lon="7.086046">
        <time>2023-04-27T06:38:40+00:00</time>
        <ele>2320.0</ele>
      </trkpt>
      <trkpt lat="45.282571" lon="7.086051">
        <time>2023-04-27T06:38:43+00:00</time>
        <ele>2320.0</ele>
      </trkpt>
      <trkpt lat="45.282458" lon="7.085998">
        <time>2023-04-27T06:38:55+00:00</time>
        <ele>2320.0</ele>
      </trkpt>
      <trkpt lat="45.282355" lon="7.085907">
        <time>2023-04-27T06:39:09+00:00</time>
        <ele>2322.0</ele>
      </trkpt>
      <trkpt lat="45.282331" lon="7.085886">
        <time>2023-04-27T06:39:12+00:00</time>
        <ele>2322.0</ele>
      </trkpt>
      <trkpt lat="45.282311" lon="7.08586">
        <time>2023-04-27T06:39:15+00:00</time>
        <ele>2322.0</ele>
      </trkpt>
      <trkpt lat="45.282292" lon="7.08582">
        <time>2023-04-27T06:39:19+00:00</time>
        <ele>2323.0</ele>
      </trkpt>
      <trkpt lat="45.282287" lon="7.085768">
        <time>2023-04-27T06:39:24+00:00</time>
        <ele>2325.0</ele>
      </trkpt>
      <trkpt lat="45.282267" lon="7.085763">
        <time>2023-04-27T06:39:27+00:00</time>
        <ele>2325.0</ele>
      </trkpt>
      <trkpt lat="45.282165" lon="7.085801">
        <time>2023-04-27T06:39:39+00:00</time>
        <ele>2326.0</ele>
      </trkpt>
      <trkpt lat="45.282134" lon="7.085822">
        <time>2023-04-27T06:39:42+00:00</time>
        <ele>2326.0</ele>
      </trkpt>
      <trkpt lat="45.282083" lon="7.08583">
        <time>2023-04-27T06:39:47+00:00</time>
        <ele>2326.0</ele>
      </trkpt>
      <trkpt lat="45.282024" lon="7.085875">
        <time>2023-04-27T06:39:54+00:00</time>
        <ele>2326.0</ele>
      </trkpt>
      <trkpt lat="45.281976" lon="7.085888">
        <time>2023-04-27T06:40:01+00:00</time>
        <ele>2326.0</ele>
      </trkpt>
      <trkpt lat="45.281866" lon="7.085925">
        <time>2023-04-27T06:40:12+00:00</time>
        <ele>2327.0</ele>
      </trkpt>
      <trkpt lat="45.281819" lon="7.085958">
        <time>2023-04-27T06:40:16+00:00</time>
        <ele>2327.0</ele>
      </trkpt>
      <trkpt lat="45.281791" lon="7.085969">
        <time>2023-04-27T06:40:19+00:00</time>
        <ele>2327.0</ele>
      </trkpt>
      <trkpt lat="45.281769" lon="7.085971">
        <time>2023-04-27T06:40:22+00:00</time>
        <ele>2328.0</ele>
      </trkpt>
      <trkpt lat="45.281698" lon="7.086011">
        <time>2023-04-27T06:40:29+00:00</time>
        <ele>2328.0</ele>
      </trkpt>
      <trkpt lat="45.281645" lon="7.086031">
        <time>2023-04-27T06:40:35+00:00</time>
        <ele>2328.0</ele>
      </trkpt>
      <trkpt lat="45.281617" lon="7.086051">
        <time>2023-04-27T06:40:39+00:00</time>
        <ele>2327.0</ele>
      </trkpt>
      <trkpt lat="45.281592" lon="7.08606">
        <time>2023-04-27T06:40:41+00:00</time>
        <ele>2327.0</ele>
      </trkpt>
      <trkpt lat="45.281536" lon="7.086061">
        <time>2023-04-27T06:40:47+00:00</time>
        <ele>2327.0</ele>
      </trkpt>
      <trkpt lat="45.281367" lon="7.086165">
        <time>2023-04-27T06:41:06+00:00</time>
        <ele>2327.0</ele>
      </trkpt>
      <trkpt lat="45.281145" lon="7.086217">
        <time>2023-04-27T06:41:29+00:00</time>
        <ele>2327.0</ele>
      </trkpt>
      <trkpt lat="45.28107" lon="7.08622">
        <time>2023-04-27T06:41:35+00:00</time>
        <ele>2328.0</ele>
      </trkpt>
      <trkpt lat="45.281029" lon="7.086229">
        <time>2023-04-27T06:41:39+00:00</time>
        <ele>2329.0</ele>
      </trkpt>
      <trkpt lat="45.280999" lon="7.086245">
        <time>2023-04-27T06:41:42+00:00</time>
        <ele>2329.0</ele>
      </trkpt>
      <trkpt lat="45.280975" lon="7.086245">
        <time>2023-04-27T06:41:46+00:00</time>
        <ele>2330.0</ele>
      </trkpt>
      <trkpt lat="45.280729" lon="7.086339">
        <time>2023-04-27T06:42:34+00:00</time>
        <ele>2334.0</ele>
      </trkpt>
      <trkpt lat="45.280707" lon="7.086356">
        <time>2023-04-27T06:42:37+00:00</time>
        <ele>2334.0</ele>
      </trkpt>
      <trkpt lat="45.280636" lon="7.086373">
        <time>2023-04-27T06:42:46+00:00</time>
        <ele>2334.0</ele>
      </trkpt>
      <trkpt lat="45.280607" lon="7.086378">
        <time>2023-04-27T06:42:50+00:00</time>
        <ele>2335.0</ele>
      </trkpt>
      <trkpt lat="45.280476" lon="7.086421">
        <time>2023-04-27T06:43:03+00:00</time>
        <ele>2332.0</ele>
      </trkpt>
      <trkpt lat="45.280454" lon="7.086425">
        <time>2023-04-27T06:43:05+00:00</time>
        <ele>2332.0</ele>
      </trkpt>
      <trkpt lat="45.280325" lon="7.086311">
        <time>2023-04-27T06:43:22+00:00</time>
        <ele>2332.0</ele>
      </trkpt>
      <trkpt lat="45.280239" lon="7.086285">
        <time>2023-04-27T06:43:30+00:00</time>
        <ele>2332.0</ele>
      </trkpt>
      <trkpt lat="45.280212" lon="7.086269">
        <time>2023-04-27T06:43:33+00:00</time>
        <ele>2332.0</ele>
      </trkpt>
      <trkpt lat="45.280007" lon="7.086229">
        <time>2023-04-27T06:43:55+00:00</time>
        <ele>2333.0</ele>
      </trkpt>
      <trkpt lat="45.279901" lon="7.086224">
        <time>2023-04-27T06:44:05+00:00</time>
        <ele>2334.0</ele>
      </trkpt>
      <trkpt lat="45.279806" lon="7.086193">
        <time>2023-04-27T06:44:15+00:00</time>
        <ele>2335.0</ele>
      </trkpt>
      <trkpt lat="45.279746" lon="7.086206">
        <time>2023-04-27T06:44:21+00:00</time>
        <ele>2336.0</ele>
      </trkpt>
      <trkpt lat="45.279715" lon="7.086211">
        <time>2023-04-27T06:44:24+00:00</time>
        <ele>2336.0</ele>
      </trkpt>
      <trkpt lat="45.279686" lon="7.086203">
        <time>2023-04-27T06:44:27+00:00</time>
        <ele>2337.0</ele>
      </trkpt>
      <trkpt lat="45.27967" lon="7.086216">
        <time>2023-04-27T06:44:29+00:00</time>
        <ele>2337.0</ele>
      </trkpt>
      <trkpt lat="45.279636" lon="7.086215">
        <time>2023-04-27T06:44:34+00:00</time>
        <ele>2337.0</ele>
      </trkpt>
      <trkpt lat="45.279608" lon="7.08622">
        <time>2023-04-27T06:44:37+00:00</time>
        <ele>2338.0</ele>
      </trkpt>
      <trkpt lat="45.279553" lon="7.08624">
        <time>2023-04-27T06:44:44+00:00</time>
        <ele>2339.0</ele>
      </trkpt>
      <trkpt lat="45.279448" lon="7.086317">
        <time>2023-04-27T06:45:34+00:00</time>
        <ele>2340.0</ele>
      </trkpt>
      <trkpt lat="45.279416" lon="7.086321">
        <time>2023-04-27T06:45:39+00:00</time>
        <ele>2340.0</ele>
      </trkpt>
      <trkpt lat="45.2794" lon="7.086343">
        <time>2023-04-27T06:45:42+00:00</time>
        <ele>2339.0</ele>
      </trkpt>
      <trkpt lat="45.279373" lon="7.086356">
        <time>2023-04-27T06:45:46+00:00</time>
        <ele>2339.0</ele>
      </trkpt>
      <trkpt lat="45.279275" lon="7.086383">
        <time>2023-04-27T06:45:57+00:00</time>
        <ele>2340.0</ele>
      </trkpt>
      <trkpt lat="45.279169" lon="7.086389">
        <time>2023-04-27T06:46:09+00:00</time>
        <ele>2340.0</ele>
      </trkpt>
      <trkpt lat="45.279144" lon="7.086361">
        <time>2023-04-27T06:46:12+00:00</time>
        <ele>2341.0</ele>
      </trkpt>
      <trkpt lat="45.279088" lon="7.086343">
        <time>2023-04-27T06:46:17+00:00</time>
        <ele>2341.0</ele>
      </trkpt>
      <trkpt lat="45.279059" lon="7.086348">
        <time>2023-04-27T06:46:21+00:00</time>
        <ele>2341.0</ele>
      </trkpt>
      <trkpt lat="45.279033" lon="7.086343">
        <time>2023-04-27T06:46:25+00:00</time>
        <ele>2342.0</ele>
      </trkpt>
      <trkpt lat="45.278793" lon="7.086325">
        <time>2023-04-27T06:46:55+00:00</time>
        <ele>2342.0</ele>
      </trkpt>
      <trkpt lat="45.278704" lon="7.086308">
        <time>2023-04-27T06:47:09+00:00</time>
        <ele>2342.0</ele>
      </trkpt>
      <trkpt lat="45.278682" lon="7.086289">
        <time>2023-04-27T06:47:12+00:00</time>
        <ele>2342.0</ele>
      </trkpt>
      <trkpt lat="45.278653" lon="7.086293">
        <time>2023-04-27T06:47:16+00:00</time>
        <ele>2342.0</ele>
      </trkpt>
      <trkpt lat="45.278629" lon="7.086282">
        <time>2023-04-27T06:47:19+00:00</time>
        <ele>2342.0</ele>
      </trkpt>
      <trkpt lat="45.278606" lon="7.086286">
        <time>2023-04-27T06:47:52+00:00</time>
        <ele>2342.0</ele>
      </trkpt>
      <trkpt lat="45.278502" lon="7.086248">
        <time>2023-04-27T06:48:06+00:00</time>
        <ele>2343.0</ele>
      </trkpt>
      <trkpt lat="45.278381" lon="7.086128">
        <time>2023-04-27T06:49:16+00:00</time>
        <ele>2348.0</ele>
      </trkpt>
      <trkpt lat="45.278358" lon="7.086095">
        <time>2023-04-27T06:49:20+00:00</time>
        <ele>2349.0</ele>
      </trkpt>
      <trkpt lat="45.278311" lon="7.086052">
        <time>2023-04-27T06:49:27+00:00</time>
        <ele>2350.0</ele>
      </trkpt>
      <trkpt lat="45.278283" lon="7.086029">
        <time>2023-04-27T06:49:32+00:00</time>
        <ele>2351.0</ele>
      </trkpt>
      <trkpt lat="45.278255" lon="7.086004">
        <time>2023-04-27T06:49:39+00:00</time>
        <ele>2351.0</ele>
      </trkpt>
      <trkpt lat="45.278039" lon="7.085977">
        <time>2023-04-27T06:50:05+00:00</time>
        <ele>2353.0</ele>
      </trkpt>
      <trkpt lat="45.278007" lon="7.08596">
        <time>2023-04-27T06:50:09+00:00</time>
        <ele>2354.0</ele>
      </trkpt>
      <trkpt lat="45.27797" lon="7.085953">
        <time>2023-04-27T06:50:13+00:00</time>
        <ele>2354.0</ele>
      </trkpt>
      <trkpt lat="45.277954" lon="7.085942">
        <time>2023-04-27T06:50:18+00:00</time>
        <ele>2355.0</ele>
      </trkpt>
      <trkpt lat="45.277971" lon="7.085913">
        <time>2023-04-27T06:50:39+00:00</time>
        <ele>2355.0</ele>
      </trkpt>
      <trkpt lat="45.277976" lon="7.085879">
        <time>2023-04-27T06:50:47+00:00</time>
        <ele>2356.0</ele>
      </trkpt>
      <trkpt lat="45.277992" lon="7.085843">
        <time>2023-04-27T06:50:54+00:00</time>
        <ele>2358.0</ele>
      </trkpt>
      <trkpt lat="45.278021" lon="7.085825">
        <time>2023-04-27T06:51:02+00:00</time>
        <ele>2358.0</ele>
      </trkpt>
      <trkpt lat="45.277999" lon="7.085798">
        <time>2023-04-27T06:51:17+00:00</time>
        <ele>2359.0</ele>
      </trkpt>
      <trkpt lat="45.277977" lon="7.085787">
        <time>2023-04-27T06:51:20+00:00</time>
        <ele>2360.0</ele>
      </trkpt>
      <trkpt lat="45.277954" lon="7.085776">
        <time>2023-04-27T06:51:24+00:00</time>
        <ele>2360.0</ele>
      </trkpt>
      <trkpt lat="45.277931" lon="7.085767">
        <time>2023-04-27T06:51:27+00:00</time>
        <ele>2361.0</ele>
      </trkpt>
      <trkpt lat="45.27791" lon="7.085734">
        <time>2023-04-27T06:51:30+00:00</time>
        <ele>2362.0</ele>
      </trkpt>
      <trkpt lat="45.277883" lon="7.085724">
        <time>2023-04-27T06:51:35+00:00</time>
        <ele>2363.0</ele>
      </trkpt>
      <trkpt lat="45.277859" lon="7.085723">
        <time>2023-04-27T06:51:40+00:00</time>
        <ele>2363.0</ele>
      </trkpt>
      <trkpt lat="45.277831" lon="7.085747">
        <time>2023-04-27T06:51:45+00:00</time>
        <ele>2363.0</ele>
      </trkpt>
      <trkpt lat="45.277756" lon="7.085744">
        <time>2023-04-27T06:51:55+00:00</time>
        <ele>2364.0</ele>
      </trkpt>
      <trkpt lat="45.277753" lon="7.085721">
        <time>2023-04-27T06:52:17+00:00</time>
        <ele>2365.0</ele>
      </trkpt>
      <trkpt lat="45.27776" lon="7.085668">
        <time>2023-04-27T06:52:22+00:00</time>
        <ele>2367.0</ele>
      </trkpt>
      <trkpt lat="45.277788" lon="7.085633">
        <time>2023-04-27T06:52:30+00:00</time>
        <ele>2368.0</ele>
      </trkpt>
      <trkpt lat="45.277854" lon="7.085633">
        <time>2023-04-27T06:52:41+00:00</time>
        <ele>2367.0</ele>
      </trkpt>
      <trkpt lat="45.277873" lon="7.085596">
        <time>2023-04-27T06:52:47+00:00</time>
        <ele>2368.0</ele>
      </trkpt>
      <trkpt lat="45.27788" lon="7.085553">
        <time>2023-04-27T06:53:13+00:00</time>
        <ele>2369.0</ele>
      </trkpt>
      <trkpt lat="45.277843" lon="7.085496">
        <time>2023-04-27T06:53:21+00:00</time>
        <ele>2372.0</ele>
      </trkpt>
      <trkpt lat="45.277818" lon="7.08548">
        <time>2023-04-27T06:53:26+00:00</time>
        <ele>2373.0</ele>
      </trkpt>
      <trkpt lat="45.277742" lon="7.085461">
        <time>2023-04-27T06:53:40+00:00</time>
        <ele>2375.0</ele>
      </trkpt>
      <trkpt lat="45.27775" lon="7.085423">
        <time>2023-04-27T06:54:02+00:00</time>
        <ele>2377.0</ele>
      </trkpt>
      <trkpt lat="45.277774" lon="7.08539">
        <time>2023-04-27T06:54:10+00:00</time>
        <ele>2377.0</ele>
      </trkpt>
      <trkpt lat="45.277812" lon="7.08537">
        <time>2023-04-27T06:54:18+00:00</time>
        <ele>2377.0</ele>
      </trkpt>
      <trkpt lat="45.277822" lon="7.085327">
        <time>2023-04-27T06:54:25+00:00</time>
        <ele>2378.0</ele>
      </trkpt>
      <trkpt lat="45.277805" lon="7.085314">
        <time>2023-04-27T06:54:37+00:00</time>
        <ele>2379.0</ele>
      </trkpt>
      <trkpt lat="45.277733" lon="7.085268">
        <time>2023-04-27T06:54:50+00:00</time>
        <ele>2382.0</ele>
      </trkpt>
      <trkpt lat="45.277713" lon="7.085271">
        <time>2023-04-27T06:54:55+00:00</time>
        <ele>2382.0</ele>
      </trkpt>
      <trkpt lat="45.277784" lon="7.085213">
        <time>2023-04-27T06:55:30+00:00</time>
        <ele>2383.0</ele>
      </trkpt>
      <trkpt lat="45.277659" lon="7.0852">
        <time>2023-04-27T06:55:57+00:00</time>
        <ele>2386.0</ele>
      </trkpt>
      <trkpt lat="45.277634" lon="7.085211">
        <time>2023-04-27T06:56:02+00:00</time>
        <ele>2386.0</ele>
      </trkpt>
      <trkpt lat="45.277613" lon="7.085198">
        <time>2023-04-27T06:56:05+00:00</time>
        <ele>2387.0</ele>
      </trkpt>
      <trkpt lat="45.277582" lon="7.08521">
        <time>2023-04-27T06:56:11+00:00</time>
        <ele>2388.0</ele>
      </trkpt>
      <trkpt lat="45.277553" lon="7.0852">
        <time>2023-04-27T06:56:16+00:00</time>
        <ele>2388.0</ele>
      </trkpt>
      <trkpt lat="45.27753" lon="7.08519">
        <time>2023-04-27T06:56:53+00:00</time>
        <ele>2389.0</ele>
      </trkpt>
      <trkpt lat="45.277507" lon="7.085181">
        <time>2023-04-27T06:56:56+00:00</time>
        <ele>2388.0</ele>
      </trkpt>
      <trkpt lat="45.277473" lon="7.085164">
        <time>2023-04-27T06:57:00+00:00</time>
        <ele>2388.0</ele>
      </trkpt>
      <trkpt lat="45.277457" lon="7.085139">
        <time>2023-04-27T06:57:05+00:00</time>
        <ele>2388.0</ele>
      </trkpt>
      <trkpt lat="45.277458" lon="7.085113">
        <time>2023-04-27T06:57:31+00:00</time>
        <ele>2389.0</ele>
      </trkpt>
      <trkpt lat="45.277476" lon="7.085078">
        <time>2023-04-27T06:57:37+00:00</time>
        <ele>2390.0</ele>
      </trkpt>
      <trkpt lat="45.277466" lon="7.085047">
        <time>2023-04-27T06:57:42+00:00</time>
        <ele>2390.0</ele>
      </trkpt>
      <trkpt lat="45.277447" lon="7.085027">
        <time>2023-04-27T06:57:45+00:00</time>
        <ele>2390.0</ele>
      </trkpt>
      <trkpt lat="45.277423" lon="7.08501">
        <time>2023-04-27T06:57:50+00:00</time>
        <ele>2390.0</ele>
      </trkpt>
      <trkpt lat="45.277416" lon="7.084986">
        <time>2023-04-27T06:58:10+00:00</time>
        <ele>2391.0</ele>
      </trkpt>
      <trkpt lat="45.277391" lon="7.084961">
        <time>2023-04-27T06:59:31+00:00</time>
        <ele>2391.0</ele>
      </trkpt>
      <trkpt lat="45.27743" lon="7.084923">
        <time>2023-04-27T07:02:02+00:00</time>
        <ele>2392.0</ele>
      </trkpt>
      <trkpt lat="45.2774" lon="7.084974">
        <time>2023-04-27T07:05:12+00:00</time>
        <ele>2391.0</ele>
      </trkpt>
      <trkpt lat="45.277397" lon="7.084976">
        <time>2023-04-27T07:07:18+00:00</time>
        <ele>2391.0</ele>
      </trkpt>
      <trkpt lat="45.277349" lon="7.085002">
        <time>2023-04-27T07:07:22+00:00</time>
        <ele>2389.0</ele>
      </trkpt>
      <trkpt lat="45.277403" lon="7.085051">
        <time>2023-04-27T07:07:52+00:00</time>
        <ele>2389.0</ele>
      </trkpt>
      <trkpt lat="45.277399" lon="7.084994">
        <time>2023-04-27T07:08:22+00:00</time>
        <ele>2390.0</ele>
      </trkpt>
      <trkpt lat="45.277388" lon="7.084948">
        <time>2023-04-27T07:09:07+00:00</time>
        <ele>2391.0</ele>
      </trkpt>
      <trkpt lat="45.277389" lon="7.084905">
        <time>2023-04-27T07:10:25+00:00</time>
        <ele>2392.0</ele>
      </trkpt>
      <trkpt lat="45.277313" lon="7.084646">
        <time>2023-04-27T07:10:48+00:00</time>
        <ele>2397.0</ele>
      </trkpt>
      <trkpt lat="45.2773" lon="7.084612">
        <time>2023-04-27T07:10:52+00:00</time>
        <ele>2398.0</ele>
      </trkpt>
      <trkpt lat="45.277286" lon="7.084587">
        <time>2023-04-27T07:10:55+00:00</time>
        <ele>2398.0</ele>
      </trkpt>
      <trkpt lat="45.277257" lon="7.084567">
        <time>2023-04-27T07:11:00+00:00</time>
        <ele>2399.0</ele>
      </trkpt>
      <trkpt lat="45.277236" lon="7.08456">
        <time>2023-04-27T07:11:03+00:00</time>
        <ele>2399.0</ele>
      </trkpt>
      <trkpt lat="45.27722" lon="7.084535">
        <time>2023-04-27T07:11:06+00:00</time>
        <ele>2400.0</ele>
      </trkpt>
      <trkpt lat="45.277187" lon="7.084517">
        <time>2023-04-27T07:11:10+00:00</time>
        <ele>2400.0</ele>
      </trkpt>
      <trkpt lat="45.27716" lon="7.084509">
        <time>2023-04-27T07:11:15+00:00</time>
        <ele>2400.0</ele>
      </trkpt>
      <trkpt lat="45.277143" lon="7.084487">
        <time>2023-04-27T07:11:35+00:00</time>
        <ele>2401.0</ele>
      </trkpt>
      <trkpt lat="45.277117" lon="7.084461">
        <time>2023-04-27T07:11:40+00:00</time>
        <ele>2402.0</ele>
      </trkpt>
      <trkpt lat="45.277034" lon="7.084351">
        <time>2023-04-27T07:11:57+00:00</time>
        <ele>2405.0</ele>
      </trkpt>
      <trkpt lat="45.277017" lon="7.084357">
        <time>2023-04-27T07:12:07+00:00</time>
        <ele>2404.0</ele>
      </trkpt>
      <trkpt lat="45.276998" lon="7.084372">
        <time>2023-04-27T07:12:47+00:00</time>
        <ele>2404.0</ele>
      </trkpt>
      <trkpt lat="45.277011" lon="7.084406">
        <time>2023-04-27T07:12:59+00:00</time>
        <ele>2403.0</ele>
      </trkpt>
      <trkpt lat="45.276996" lon="7.084406">
        <time>2023-04-27T07:14:37+00:00</time>
        <ele>2403.0</ele>
      </trkpt>
      <trkpt lat="45.276982" lon="7.084374">
        <time>2023-04-27T07:14:43+00:00</time>
        <ele>2404.0</ele>
      </trkpt>
      <trkpt lat="45.276953" lon="7.084353">
        <time>2023-04-27T07:14:46+00:00</time>
        <ele>2404.0</ele>
      </trkpt>
      <trkpt lat="45.276923" lon="7.08433">
        <time>2023-04-27T07:14:50+00:00</time>
        <ele>2405.0</ele>
      </trkpt>
      <trkpt lat="45.276904" lon="7.084303">
        <time>2023-04-27T07:14:53+00:00</time>
        <ele>2405.0</ele>
      </trkpt>
      <trkpt lat="45.276849" lon="7.084221">
        <time>2023-04-27T07:15:01+00:00</time>
        <ele>2406.0</ele>
      </trkpt>
      <trkpt lat="45.276741" lon="7.084036">
        <time>2023-04-27T07:15:20+00:00</time>
        <ele>2408.0</ele>
      </trkpt>
      <trkpt lat="45.276703" lon="7.083999">
        <time>2023-04-27T07:15:25+00:00</time>
        <ele>2408.0</ele>
      </trkpt>
      <trkpt lat="45.276648" lon="7.083929">
        <time>2023-04-27T07:15:32+00:00</time>
        <ele>2408.0</ele>
      </trkpt>
      <trkpt lat="45.27663" lon="7.083908">
        <time>2023-04-27T07:15:34+00:00</time>
        <ele>2408.0</ele>
      </trkpt>
      <trkpt lat="45.276524" lon="7.083871">
        <time>2023-04-27T07:15:46+00:00</time>
        <ele>2407.0</ele>
      </trkpt>
      <trkpt lat="45.276498" lon="7.083846">
        <time>2023-04-27T07:15:50+00:00</time>
        <ele>2407.0</ele>
      </trkpt>
      <trkpt lat="45.276476" lon="7.083837">
        <time>2023-04-27T07:15:52+00:00</time>
        <ele>2407.0</ele>
      </trkpt>
      <trkpt lat="45.276452" lon="7.083821">
        <time>2023-04-27T07:15:55+00:00</time>
        <ele>2407.0</ele>
      </trkpt>
      <trkpt lat="45.276323" lon="7.083714">
        <time>2023-04-27T07:16:13+00:00</time>
        <ele>2408.0</ele>
      </trkpt>
      <trkpt lat="45.276307" lon="7.0837">
        <time>2023-04-27T07:16:18+00:00</time>
        <ele>2408.0</ele>
      </trkpt>
      <trkpt lat="45.276281" lon="7.083687">
        <time>2023-04-27T07:16:47+00:00</time>
        <ele>2408.0</ele>
      </trkpt>
      <trkpt lat="45.276254" lon="7.08366">
        <time>2023-04-27T07:16:50+00:00</time>
        <ele>2409.0</ele>
      </trkpt>
      <trkpt lat="45.276224" lon="7.083598">
        <time>2023-04-27T07:16:56+00:00</time>
        <ele>2410.0</ele>
      </trkpt>
      <trkpt lat="45.276155" lon="7.083524">
        <time>2023-04-27T07:17:06+00:00</time>
        <ele>2412.0</ele>
      </trkpt>
      <trkpt lat="45.276083" lon="7.083473">
        <time>2023-04-27T07:17:15+00:00</time>
        <ele>2413.0</ele>
      </trkpt>
      <trkpt lat="45.276071" lon="7.08344">
        <time>2023-04-27T07:17:18+00:00</time>
        <ele>2413.0</ele>
      </trkpt>
      <trkpt lat="45.276046" lon="7.083409">
        <time>2023-04-27T07:17:21+00:00</time>
        <ele>2414.0</ele>
      </trkpt>
      <trkpt lat="45.27599" lon="7.083455">
        <time>2023-04-27T07:17:25+00:00</time>
        <ele>2412.0</ele>
      </trkpt>
      <trkpt lat="45.275962" lon="7.083434">
        <time>2023-04-27T07:17:29+00:00</time>
        <ele>2412.0</ele>
      </trkpt>
      <trkpt lat="45.275944" lon="7.083414">
        <time>2023-04-27T07:17:32+00:00</time>
        <ele>2413.0</ele>
      </trkpt>
      <trkpt lat="45.275908" lon="7.0834">
        <time>2023-04-27T07:17:55+00:00</time>
        <ele>2412.0</ele>
      </trkpt>
      <trkpt lat="45.275891" lon="7.08338">
        <time>2023-04-27T07:17:57+00:00</time>
        <ele>2413.0</ele>
      </trkpt>
      <trkpt lat="45.275871" lon="7.083368">
        <time>2023-04-27T07:18:00+00:00</time>
        <ele>2413.0</ele>
      </trkpt>
      <trkpt lat="45.275853" lon="7.083343">
        <time>2023-04-27T07:18:03+00:00</time>
        <ele>2413.0</ele>
      </trkpt>
      <trkpt lat="45.275804" lon="7.083298">
        <time>2023-04-27T07:18:09+00:00</time>
        <ele>2414.0</ele>
      </trkpt>
      <trkpt lat="45.275529" lon="7.08316">
        <time>2023-04-27T07:18:40+00:00</time>
        <ele>2413.0</ele>
      </trkpt>
      <trkpt lat="45.275303" lon="7.082984">
        <time>2023-04-27T07:19:11+00:00</time>
        <ele>2414.0</ele>
      </trkpt>
      <trkpt lat="45.275279" lon="7.082957">
        <time>2023-04-27T07:19:15+00:00</time>
        <ele>2415.0</ele>
      </trkpt>
      <trkpt lat="45.27525" lon="7.082952">
        <time>2023-04-27T07:19:18+00:00</time>
        <ele>2414.0</ele>
      </trkpt>
      <trkpt lat="45.275223" lon="7.08294">
        <time>2023-04-27T07:19:21+00:00</time>
        <ele>2414.0</ele>
      </trkpt>
      <trkpt lat="45.2752" lon="7.08292">
        <time>2023-04-27T07:19:25+00:00</time>
        <ele>2414.0</ele>
      </trkpt>
      <trkpt lat="45.275179" lon="7.082921">
        <time>2023-04-27T07:19:27+00:00</time>
        <ele>2413.0</ele>
      </trkpt>
      <trkpt lat="45.275154" lon="7.082919">
        <time>2023-04-27T07:19:32+00:00</time>
        <ele>2413.0</ele>
      </trkpt>
      <trkpt lat="45.275133" lon="7.08291">
        <time>2023-04-27T07:19:36+00:00</time>
        <ele>2412.0</ele>
      </trkpt>
      <trkpt lat="45.275108" lon="7.082895">
        <time>2023-04-27T07:19:40+00:00</time>
        <ele>2412.0</ele>
      </trkpt>
      <trkpt lat="45.275079" lon="7.082888">
        <time>2023-04-27T07:19:43+00:00</time>
        <ele>2412.0</ele>
      </trkpt>
      <trkpt lat="45.275058" lon="7.082875">
        <time>2023-04-27T07:19:46+00:00</time>
        <ele>2412.0</ele>
      </trkpt>
      <trkpt lat="45.275042" lon="7.082842">
        <time>2023-04-27T07:19:48+00:00</time>
        <ele>2413.0</ele>
      </trkpt>
      <trkpt lat="45.275027" lon="7.082773">
        <time>2023-04-27T07:19:50+00:00</time>
        <ele>2416.0</ele>
      </trkpt>
      <trkpt lat="45.275" lon="7.08278">
        <time>2023-04-27T07:19:55+00:00</time>
        <ele>2416.0</ele>
      </trkpt>
      <trkpt lat="45.274991" lon="7.082839">
        <time>2023-04-27T07:20:00+00:00</time>
        <ele>2414.0</ele>
      </trkpt>
      <trkpt lat="45.27496" lon="7.082854">
        <time>2023-04-27T07:20:03+00:00</time>
        <ele>2413.0</ele>
      </trkpt>
      <trkpt lat="45.274928" lon="7.082868">
        <time>2023-04-27T07:20:08+00:00</time>
        <ele>2413.0</ele>
      </trkpt>
      <trkpt lat="45.274905" lon="7.082892">
        <time>2023-04-27T07:20:11+00:00</time>
        <ele>2412.0</ele>
      </trkpt>
      <trkpt lat="45.274756" lon="7.082934">
        <time>2023-04-27T07:20:51+00:00</time>
        <ele>2412.0</ele>
      </trkpt>
      <trkpt lat="45.274703" lon="7.082944">
        <time>2023-04-27T07:20:56+00:00</time>
        <ele>2412.0</ele>
      </trkpt>
      <trkpt lat="45.274612" lon="7.082952">
        <time>2023-04-27T07:21:10+00:00</time>
        <ele>2413.0</ele>
      </trkpt>
      <trkpt lat="45.274472" lon="7.082951">
        <time>2023-04-27T07:21:23+00:00</time>
        <ele>2413.0</ele>
      </trkpt>
      <trkpt lat="45.274451" lon="7.082937">
        <time>2023-04-27T07:21:27+00:00</time>
        <ele>2414.0</ele>
      </trkpt>
      <trkpt lat="45.274431" lon="7.082925">
        <time>2023-04-27T07:21:32+00:00</time>
        <ele>2414.0</ele>
      </trkpt>
      <trkpt lat="45.274357" lon="7.082928">
        <time>2023-04-27T07:21:58+00:00</time>
        <ele>2414.0</ele>
      </trkpt>
      <trkpt lat="45.274336" lon="7.082918">
        <time>2023-04-27T07:22:01+00:00</time>
        <ele>2414.0</ele>
      </trkpt>
      <trkpt lat="45.274308" lon="7.082922">
        <time>2023-04-27T07:22:04+00:00</time>
        <ele>2414.0</ele>
      </trkpt>
      <trkpt lat="45.27428" lon="7.082924">
        <time>2023-04-27T07:22:07+00:00</time>
        <ele>2414.0</ele>
      </trkpt>
      <trkpt lat="45.274253" lon="7.082924">
        <time>2023-04-27T07:22:10+00:00</time>
        <ele>2414.0</ele>
      </trkpt>
      <trkpt lat="45.274145" lon="7.082878">
        <time>2023-04-27T07:22:35+00:00</time>
        <ele>2416.0</ele>
      </trkpt>
      <trkpt lat="45.274124" lon="7.082858">
        <time>2023-04-27T07:22:40+00:00</time>
        <ele>2417.0</ele>
      </trkpt>
      <trkpt lat="45.27411" lon="7.082834">
        <time>2023-04-27T07:22:47+00:00</time>
        <ele>2418.0</ele>
      </trkpt>
      <trkpt lat="45.274085" lon="7.082819">
        <time>2023-04-27T07:22:55+00:00</time>
        <ele>2419.0</ele>
      </trkpt>
      <trkpt lat="45.274003" lon="7.082805">
        <time>2023-04-27T07:23:05+00:00</time>
        <ele>2419.0</ele>
      </trkpt>
      <trkpt lat="45.273952" lon="7.082788">
        <time>2023-04-27T07:23:13+00:00</time>
        <ele>2420.0</ele>
      </trkpt>
      <trkpt lat="45.273918" lon="7.082785">
        <time>2023-04-27T07:23:17+00:00</time>
        <ele>2421.0</ele>
      </trkpt>
      <trkpt lat="45.27389" lon="7.082782">
        <time>2023-04-27T07:23:21+00:00</time>
        <ele>2421.0</ele>
      </trkpt>
      <trkpt lat="45.273768" lon="7.082783">
        <time>2023-04-27T07:23:38+00:00</time>
        <ele>2423.0</ele>
      </trkpt>
      <trkpt lat="45.273737" lon="7.082799">
        <time>2023-04-27T07:23:41+00:00</time>
        <ele>2422.0</ele>
      </trkpt>
      <trkpt lat="45.273682" lon="7.082819">
        <time>2023-04-27T07:24:19+00:00</time>
        <ele>2421.0</ele>
      </trkpt>
      <trkpt lat="45.273597" lon="7.082784">
        <time>2023-04-27T07:24:31+00:00</time>
        <ele>2423.0</ele>
      </trkpt>
      <trkpt lat="45.273581" lon="7.082765">
        <time>2023-04-27T07:24:35+00:00</time>
        <ele>2424.0</ele>
      </trkpt>
      <trkpt lat="45.273538" lon="7.082727">
        <time>2023-04-27T07:24:43+00:00</time>
        <ele>2425.0</ele>
      </trkpt>
      <trkpt lat="45.273519" lon="7.082721">
        <time>2023-04-27T07:24:46+00:00</time>
        <ele>2425.0</ele>
      </trkpt>
      <trkpt lat="45.273459" lon="7.082691">
        <time>2023-04-27T07:24:55+00:00</time>
        <ele>2426.0</ele>
      </trkpt>
      <trkpt lat="45.273439" lon="7.082677">
        <time>2023-04-27T07:24:57+00:00</time>
        <ele>2426.0</ele>
      </trkpt>
      <trkpt lat="45.273411" lon="7.082656">
        <time>2023-04-27T07:25:00+00:00</time>
        <ele>2427.0</ele>
      </trkpt>
      <trkpt lat="45.273385" lon="7.082644">
        <time>2023-04-27T07:25:05+00:00</time>
        <ele>2427.0</ele>
      </trkpt>
      <trkpt lat="45.27336" lon="7.082624">
        <time>2023-04-27T07:25:08+00:00</time>
        <ele>2428.0</ele>
      </trkpt>
      <trkpt lat="45.273287" lon="7.08256">
        <time>2023-04-27T07:25:17+00:00</time>
        <ele>2429.0</ele>
      </trkpt>
      <trkpt lat="45.273282" lon="7.082522">
        <time>2023-04-27T07:25:30+00:00</time>
        <ele>2430.0</ele>
      </trkpt>
      <trkpt lat="45.273247" lon="7.082532">
        <time>2023-04-27T07:25:45+00:00</time>
        <ele>2430.0</ele>
      </trkpt>
      <trkpt lat="45.273178" lon="7.08247">
        <time>2023-04-27T07:25:55+00:00</time>
        <ele>2431.0</ele>
      </trkpt>
      <trkpt lat="45.273159" lon="7.082449">
        <time>2023-04-27T07:25:58+00:00</time>
        <ele>2432.0</ele>
      </trkpt>
      <trkpt lat="45.273062" lon="7.08238">
        <time>2023-04-27T07:26:11+00:00</time>
        <ele>2433.0</ele>
      </trkpt>
      <trkpt lat="45.272992" lon="7.082253">
        <time>2023-04-27T07:26:23+00:00</time>
        <ele>2436.0</ele>
      </trkpt>
      <trkpt lat="45.272961" lon="7.082241">
        <time>2023-04-27T07:26:27+00:00</time>
        <ele>2435.0</ele>
      </trkpt>
      <trkpt lat="45.272786" lon="7.08209">
        <time>2023-04-27T07:26:52+00:00</time>
        <ele>2436.0</ele>
      </trkpt>
      <trkpt lat="45.272771" lon="7.082075">
        <time>2023-04-27T07:26:54+00:00</time>
        <ele>2436.0</ele>
      </trkpt>
      <trkpt lat="45.272718" lon="7.082065">
        <time>2023-04-27T07:26:59+00:00</time>
        <ele>2434.0</ele>
      </trkpt>
      <trkpt lat="45.272407" lon="7.081903">
        <time>2023-04-27T07:27:31+00:00</time>
        <ele>2431.0</ele>
      </trkpt>
      <trkpt lat="45.272379" lon="7.081887">
        <time>2023-04-27T07:27:34+00:00</time>
        <ele>2430.0</ele>
      </trkpt>
      <trkpt lat="45.27236" lon="7.081869">
        <time>2023-04-27T07:27:36+00:00</time>
        <ele>2430.0</ele>
      </trkpt>
      <trkpt lat="45.272279" lon="7.081841">
        <time>2023-04-27T07:27:43+00:00</time>
        <ele>2429.0</ele>
      </trkpt>
      <trkpt lat="45.272239" lon="7.081809">
        <time>2023-04-27T07:27:47+00:00</time>
        <ele>2429.0</ele>
      </trkpt>
      <trkpt lat="45.272175" lon="7.081776">
        <time>2023-04-27T07:27:53+00:00</time>
        <ele>2429.0</ele>
      </trkpt>
      <trkpt lat="45.272074" lon="7.081778">
        <time>2023-04-27T07:28:03+00:00</time>
        <ele>2428.0</ele>
      </trkpt>
      <trkpt lat="45.272049" lon="7.081754">
        <time>2023-04-27T07:28:06+00:00</time>
        <ele>2429.0</ele>
      </trkpt>
      <trkpt lat="45.271994" lon="7.081747">
        <time>2023-04-27T07:28:12+00:00</time>
        <ele>2428.0</ele>
      </trkpt>
      <trkpt lat="45.271831" lon="7.081763">
        <time>2023-04-27T07:28:32+00:00</time>
        <ele>2427.0</ele>
      </trkpt>
      <trkpt lat="45.271815" lon="7.081751">
        <time>2023-04-27T07:28:34+00:00</time>
        <ele>2427.0</ele>
      </trkpt>
      <trkpt lat="45.271793" lon="7.081748">
        <time>2023-04-27T07:28:36+00:00</time>
        <ele>2427.0</ele>
      </trkpt>
      <trkpt lat="45.271773" lon="7.08175">
        <time>2023-04-27T07:28:38+00:00</time>
        <ele>2427.0</ele>
      </trkpt>
      <trkpt lat="45.271755" lon="7.081735">
        <time>2023-04-27T07:28:40+00:00</time>
        <ele>2427.0</ele>
      </trkpt>
      <trkpt lat="45.271736" lon="7.081731">
        <time>2023-04-27T07:28:42+00:00</time>
        <ele>2427.0</ele>
      </trkpt>
      <trkpt lat="45.27169" lon="7.08173">
        <time>2023-04-27T07:28:46+00:00</time>
        <ele>2427.0</ele>
      </trkpt>
      <trkpt lat="45.271649" lon="7.081692">
        <time>2023-04-27T07:28:59+00:00</time>
        <ele>2428.0</ele>
      </trkpt>
      <trkpt lat="45.271565" lon="7.081676">
        <time>2023-04-27T07:29:09+00:00</time>
        <ele>2428.0</ele>
      </trkpt>
      <trkpt lat="45.271549" lon="7.081623">
        <time>2023-04-27T07:29:11+00:00</time>
        <ele>2429.0</ele>
      </trkpt>
      <trkpt lat="45.271517" lon="7.081599">
        <time>2023-04-27T07:29:17+00:00</time>
        <ele>2429.0</ele>
      </trkpt>
      <trkpt lat="45.271462" lon="7.081583">
        <time>2023-04-27T07:29:26+00:00</time>
        <ele>2429.0</ele>
      </trkpt>
      <trkpt lat="45.271434" lon="7.08158">
        <time>2023-04-27T07:29:29+00:00</time>
        <ele>2429.0</ele>
      </trkpt>
      <trkpt lat="45.271313" lon="7.081537">
        <time>2023-04-27T07:29:44+00:00</time>
        <ele>2430.0</ele>
      </trkpt>
      <trkpt lat="45.271291" lon="7.081521">
        <time>2023-04-27T07:29:48+00:00</time>
        <ele>2430.0</ele>
      </trkpt>
      <trkpt lat="45.271275" lon="7.08149">
        <time>2023-04-27T07:29:53+00:00</time>
        <ele>2431.0</ele>
      </trkpt>
      <trkpt lat="45.271188" lon="7.081479">
        <time>2023-04-27T07:30:04+00:00</time>
        <ele>2432.0</ele>
      </trkpt>
      <trkpt lat="45.271167" lon="7.081464">
        <time>2023-04-27T07:30:07+00:00</time>
        <ele>2432.0</ele>
      </trkpt>
      <trkpt lat="45.271128" lon="7.081464">
        <time>2023-04-27T07:30:11+00:00</time>
        <ele>2432.0</ele>
      </trkpt>
      <trkpt lat="45.27108" lon="7.081461">
        <time>2023-04-27T07:30:17+00:00</time>
        <ele>2433.0</ele>
      </trkpt>
      <trkpt lat="45.271006" lon="7.081437">
        <time>2023-04-27T07:30:26+00:00</time>
        <ele>2433.0</ele>
      </trkpt>
      <trkpt lat="45.270969" lon="7.081392">
        <time>2023-04-27T07:30:32+00:00</time>
        <ele>2433.0</ele>
      </trkpt>
      <trkpt lat="45.270899" lon="7.081351">
        <time>2023-04-27T07:30:41+00:00</time>
        <ele>2434.0</ele>
      </trkpt>
      <trkpt lat="45.270887" lon="7.08133">
        <time>2023-04-27T07:30:43+00:00</time>
        <ele>2434.0</ele>
      </trkpt>
      <trkpt lat="45.270796" lon="7.081247">
        <time>2023-04-27T07:30:56+00:00</time>
        <ele>2435.0</ele>
      </trkpt>
      <trkpt lat="45.270756" lon="7.081219">
        <time>2023-04-27T07:31:02+00:00</time>
        <ele>2435.0</ele>
      </trkpt>
      <trkpt lat="45.270633" lon="7.081227">
        <time>2023-04-27T07:31:16+00:00</time>
        <ele>2436.0</ele>
      </trkpt>
      <trkpt lat="45.270581" lon="7.08123">
        <time>2023-04-27T07:31:22+00:00</time>
        <ele>2436.0</ele>
      </trkpt>
      <trkpt lat="45.270515" lon="7.081257">
        <time>2023-04-27T07:31:29+00:00</time>
        <ele>2437.0</ele>
      </trkpt>
      <trkpt lat="45.270284" lon="7.081495">
        <time>2023-04-27T07:32:01+00:00</time>
        <ele>2440.0</ele>
      </trkpt>
      <trkpt lat="45.270269" lon="7.081508">
        <time>2023-04-27T07:32:03+00:00</time>
        <ele>2440.0</ele>
      </trkpt>
      <trkpt lat="45.27023" lon="7.081534">
        <time>2023-04-27T07:32:08+00:00</time>
        <ele>2440.0</ele>
      </trkpt>
      <trkpt lat="45.270094" lon="7.081568">
        <time>2023-04-27T07:32:26+00:00</time>
        <ele>2441.0</ele>
      </trkpt>
      <trkpt lat="45.270071" lon="7.081563">
        <time>2023-04-27T07:32:29+00:00</time>
        <ele>2441.0</ele>
      </trkpt>
      <trkpt lat="45.269845" lon="7.081504">
        <time>2023-04-27T07:32:56+00:00</time>
        <ele>2442.0</ele>
      </trkpt>
      <trkpt lat="45.269797" lon="7.081495">
        <time>2023-04-27T07:33:01+00:00</time>
        <ele>2442.0</ele>
      </trkpt>
      <trkpt lat="45.26978" lon="7.081485">
        <time>2023-04-27T07:33:03+00:00</time>
        <ele>2442.0</ele>
      </trkpt>
      <trkpt lat="45.269754" lon="7.08142">
        <time>2023-04-27T07:33:06+00:00</time>
        <ele>2443.0</ele>
      </trkpt>
      <trkpt lat="45.269732" lon="7.081398">
        <time>2023-04-27T07:33:09+00:00</time>
        <ele>2443.0</ele>
      </trkpt>
      <trkpt lat="45.26954" lon="7.081333">
        <time>2023-04-27T07:33:38+00:00</time>
        <ele>2444.0</ele>
      </trkpt>
      <trkpt lat="45.269521" lon="7.081321">
        <time>2023-04-27T07:33:40+00:00</time>
        <ele>2445.0</ele>
      </trkpt>
      <trkpt lat="45.269447" lon="7.081343">
        <time>2023-04-27T07:33:52+00:00</time>
        <ele>2446.0</ele>
      </trkpt>
      <trkpt lat="45.269417" lon="7.081329">
        <time>2023-04-27T07:33:53+00:00</time>
        <ele>2446.0</ele>
      </trkpt>
      <trkpt lat="45.26924" lon="7.081178">
        <time>2023-04-27T07:34:22+00:00</time>
        <ele>2448.0</ele>
      </trkpt>
      <trkpt lat="45.269203" lon="7.081152">
        <time>2023-04-27T07:34:25+00:00</time>
        <ele>2448.0</ele>
      </trkpt>
      <trkpt lat="45.269187" lon="7.081127">
        <time>2023-04-27T07:34:32+00:00</time>
        <ele>2449.0</ele>
      </trkpt>
      <trkpt lat="45.269126" lon="7.081061">
        <time>2023-04-27T07:34:41+00:00</time>
        <ele>2450.0</ele>
      </trkpt>
      <trkpt lat="45.269104" lon="7.081035">
        <time>2023-04-27T07:34:43+00:00</time>
        <ele>2450.0</ele>
      </trkpt>
      <trkpt lat="45.269088" lon="7.081011">
        <time>2023-04-27T07:34:53+00:00</time>
        <ele>2450.0</ele>
      </trkpt>
      <trkpt lat="45.269061" lon="7.081009">
        <time>2023-04-27T07:35:15+00:00</time>
        <ele>2451.0</ele>
      </trkpt>
      <trkpt lat="45.268965" lon="7.080924">
        <time>2023-04-27T07:35:27+00:00</time>
        <ele>2454.0</ele>
      </trkpt>
      <trkpt lat="45.26895" lon="7.080905">
        <time>2023-04-27T07:35:30+00:00</time>
        <ele>2454.0</ele>
      </trkpt>
      <trkpt lat="45.268926" lon="7.080877">
        <time>2023-04-27T07:35:34+00:00</time>
        <ele>2455.0</ele>
      </trkpt>
      <trkpt lat="45.26891" lon="7.080866">
        <time>2023-04-27T07:35:36+00:00</time>
        <ele>2456.0</ele>
      </trkpt>
      <trkpt lat="45.26889" lon="7.080851">
        <time>2023-04-27T07:35:39+00:00</time>
        <ele>2457.0</ele>
      </trkpt>
      <trkpt lat="45.26887" lon="7.080823">
        <time>2023-04-27T07:35:42+00:00</time>
        <ele>2458.0</ele>
      </trkpt>
      <trkpt lat="45.268845" lon="7.08081">
        <time>2023-04-27T07:35:45+00:00</time>
        <ele>2459.0</ele>
      </trkpt>
      <trkpt lat="45.268824" lon="7.080788">
        <time>2023-04-27T07:35:49+00:00</time>
        <ele>2460.0</ele>
      </trkpt>
      <trkpt lat="45.26879" lon="7.080711">
        <time>2023-04-27T07:35:57+00:00</time>
        <ele>2461.0</ele>
      </trkpt>
      <trkpt lat="45.268747" lon="7.08065">
        <time>2023-04-27T07:36:09+00:00</time>
        <ele>2462.0</ele>
      </trkpt>
      <trkpt lat="45.268732" lon="7.080636">
        <time>2023-04-27T07:36:13+00:00</time>
        <ele>2462.0</ele>
      </trkpt>
      <trkpt lat="45.268678" lon="7.080613">
        <time>2023-04-27T07:36:31+00:00</time>
        <ele>2464.0</ele>
      </trkpt>
      <trkpt lat="45.268647" lon="7.080603">
        <time>2023-04-27T07:36:36+00:00</time>
        <ele>2465.0</ele>
      </trkpt>
      <trkpt lat="45.268621" lon="7.080581">
        <time>2023-04-27T07:36:41+00:00</time>
        <ele>2465.0</ele>
      </trkpt>
      <trkpt lat="45.268593" lon="7.080539">
        <time>2023-04-27T07:36:46+00:00</time>
        <ele>2464.0</ele>
      </trkpt>
      <trkpt lat="45.268547" lon="7.080503">
        <time>2023-04-27T07:36:54+00:00</time>
        <ele>2465.0</ele>
      </trkpt>
      <trkpt lat="45.268531" lon="7.080482">
        <time>2023-04-27T07:36:57+00:00</time>
        <ele>2465.0</ele>
      </trkpt>
      <trkpt lat="45.268514" lon="7.080454">
        <time>2023-04-27T07:37:01+00:00</time>
        <ele>2465.0</ele>
      </trkpt>
      <trkpt lat="45.268462" lon="7.080408">
        <time>2023-04-27T07:37:09+00:00</time>
        <ele>2466.0</ele>
      </trkpt>
      <trkpt lat="45.268444" lon="7.080397">
        <time>2023-04-27T07:37:12+00:00</time>
        <ele>2467.0</ele>
      </trkpt>
      <trkpt lat="45.2684" lon="7.080374">
        <time>2023-04-27T07:37:19+00:00</time>
        <ele>2468.0</ele>
      </trkpt>
      <trkpt lat="45.268377" lon="7.080363">
        <time>2023-04-27T07:37:22+00:00</time>
        <ele>2468.0</ele>
      </trkpt>
      <trkpt lat="45.268344" lon="7.080357">
        <time>2023-04-27T07:37:26+00:00</time>
        <ele>2470.0</ele>
      </trkpt>
      <trkpt lat="45.268248" lon="7.08032">
        <time>2023-04-27T07:37:59+00:00</time>
        <ele>2472.0</ele>
      </trkpt>
      <trkpt lat="45.268188" lon="7.080322">
        <time>2023-04-27T07:38:09+00:00</time>
        <ele>2473.0</ele>
      </trkpt>
      <trkpt lat="45.268111" lon="7.08034">
        <time>2023-04-27T07:38:21+00:00</time>
        <ele>2475.0</ele>
      </trkpt>
      <trkpt lat="45.268091" lon="7.080341">
        <time>2023-04-27T07:38:24+00:00</time>
        <ele>2475.0</ele>
      </trkpt>
      <trkpt lat="45.268049" lon="7.08035">
        <time>2023-04-27T07:38:32+00:00</time>
        <ele>2476.0</ele>
      </trkpt>
      <trkpt lat="45.268017" lon="7.080326">
        <time>2023-04-27T07:38:38+00:00</time>
        <ele>2475.0</ele>
      </trkpt>
      <trkpt lat="45.267975" lon="7.080324">
        <time>2023-04-27T07:38:43+00:00</time>
        <ele>2475.0</ele>
      </trkpt>
      <trkpt lat="45.267955" lon="7.080319">
        <time>2023-04-27T07:38:46+00:00</time>
        <ele>2475.0</ele>
      </trkpt>
      <trkpt lat="45.267741" lon="7.080328">
        <time>2023-04-27T07:39:13+00:00</time>
        <ele>2476.0</ele>
      </trkpt>
      <trkpt lat="45.267719" lon="7.080333">
        <time>2023-04-27T07:39:15+00:00</time>
        <ele>2476.0</ele>
      </trkpt>
      <trkpt lat="45.267701" lon="7.080355">
        <time>2023-04-27T07:39:18+00:00</time>
        <ele>2476.0</ele>
      </trkpt>
      <trkpt lat="45.267678" lon="7.080369">
        <time>2023-04-27T07:39:40+00:00</time>
        <ele>2477.0</ele>
      </trkpt>
      <trkpt lat="45.267651" lon="7.080367">
        <time>2023-04-27T07:39:43+00:00</time>
        <ele>2477.0</ele>
      </trkpt>
      <trkpt lat="45.267625" lon="7.080358">
        <time>2023-04-27T07:39:46+00:00</time>
        <ele>2476.0</ele>
      </trkpt>
      <trkpt lat="45.267602" lon="7.080363">
        <time>2023-04-27T07:39:49+00:00</time>
        <ele>2476.0</ele>
      </trkpt>
      <trkpt lat="45.267585" lon="7.080378">
        <time>2023-04-27T07:39:51+00:00</time>
        <ele>2477.0</ele>
      </trkpt>
      <trkpt lat="45.267564" lon="7.080373">
        <time>2023-04-27T07:39:54+00:00</time>
        <ele>2477.0</ele>
      </trkpt>
      <trkpt lat="45.267545" lon="7.080365">
        <time>2023-04-27T07:39:56+00:00</time>
        <ele>2476.0</ele>
      </trkpt>
      <trkpt lat="45.267528" lon="7.080347">
        <time>2023-04-27T07:39:58+00:00</time>
        <ele>2476.0</ele>
      </trkpt>
      <trkpt lat="45.267504" lon="7.080326">
        <time>2023-04-27T07:40:01+00:00</time>
        <ele>2475.0</ele>
      </trkpt>
      <trkpt lat="45.26734" lon="7.080263">
        <time>2023-04-27T07:40:18+00:00</time>
        <ele>2473.0</ele>
      </trkpt>
      <trkpt lat="45.267261" lon="7.080262">
        <time>2023-04-27T07:40:26+00:00</time>
        <ele>2474.0</ele>
      </trkpt>
      <trkpt lat="45.267234" lon="7.080259">
        <time>2023-04-27T07:40:29+00:00</time>
        <ele>2474.0</ele>
      </trkpt>
      <trkpt lat="45.267083" lon="7.08024">
        <time>2023-04-27T07:40:46+00:00</time>
        <ele>2474.0</ele>
      </trkpt>
      <trkpt lat="45.267038" lon="7.080264">
        <time>2023-04-27T07:40:51+00:00</time>
        <ele>2475.0</ele>
      </trkpt>
      <trkpt lat="45.267013" lon="7.080264">
        <time>2023-04-27T07:40:54+00:00</time>
        <ele>2475.0</ele>
      </trkpt>
      <trkpt lat="45.266897" lon="7.080308">
        <time>2023-04-27T07:41:09+00:00</time>
        <ele>2477.0</ele>
      </trkpt>
      <trkpt lat="45.266773" lon="7.080337">
        <time>2023-04-27T07:41:26+00:00</time>
        <ele>2478.0</ele>
      </trkpt>
      <trkpt lat="45.266755" lon="7.080346">
        <time>2023-04-27T07:41:29+00:00</time>
        <ele>2478.0</ele>
      </trkpt>
      <trkpt lat="45.266707" lon="7.0804">
        <time>2023-04-27T07:42:03+00:00</time>
        <ele>2478.0</ele>
      </trkpt>
      <trkpt lat="45.266687" lon="7.080429">
        <time>2023-04-27T07:42:08+00:00</time>
        <ele>2479.0</ele>
      </trkpt>
      <trkpt lat="45.266652" lon="7.080508">
        <time>2023-04-27T07:42:18+00:00</time>
        <ele>2479.0</ele>
      </trkpt>
      <trkpt lat="45.266645" lon="7.08054">
        <time>2023-04-27T07:42:22+00:00</time>
        <ele>2480.0</ele>
      </trkpt>
      <trkpt lat="45.266617" lon="7.080644">
        <time>2023-04-27T07:42:36+00:00</time>
        <ele>2481.0</ele>
      </trkpt>
      <trkpt lat="45.266565" lon="7.080733">
        <time>2023-04-27T07:42:49+00:00</time>
        <ele>2482.0</ele>
      </trkpt>
      <trkpt lat="45.266476" lon="7.080848">
        <time>2023-04-27T07:43:04+00:00</time>
        <ele>2483.0</ele>
      </trkpt>
      <trkpt lat="45.266468" lon="7.080869">
        <time>2023-04-27T07:43:22+00:00</time>
        <ele>2483.0</ele>
      </trkpt>
      <trkpt lat="45.26644" lon="7.080903">
        <time>2023-04-27T07:43:34+00:00</time>
        <ele>2483.0</ele>
      </trkpt>
      <trkpt lat="45.266426" lon="7.080933">
        <time>2023-04-27T07:43:37+00:00</time>
        <ele>2484.0</ele>
      </trkpt>
      <trkpt lat="45.266402" lon="7.080966">
        <time>2023-04-27T07:43:41+00:00</time>
        <ele>2484.0</ele>
      </trkpt>
      <trkpt lat="45.266359" lon="7.081002">
        <time>2023-04-27T07:43:47+00:00</time>
        <ele>2485.0</ele>
      </trkpt>
      <trkpt lat="45.266263" lon="7.081049">
        <time>2023-04-27T07:43:58+00:00</time>
        <ele>2484.0</ele>
      </trkpt>
      <trkpt lat="45.266238" lon="7.081071">
        <time>2023-04-27T07:44:01+00:00</time>
        <ele>2485.0</ele>
      </trkpt>
      <trkpt lat="45.266119" lon="7.081182">
        <time>2023-04-27T07:44:19+00:00</time>
        <ele>2486.0</ele>
      </trkpt>
      <trkpt lat="45.266092" lon="7.081182">
        <time>2023-04-27T07:44:22+00:00</time>
        <ele>2486.0</ele>
      </trkpt>
      <trkpt lat="45.26587" lon="7.081344">
        <time>2023-04-27T07:44:52+00:00</time>
        <ele>2486.0</ele>
      </trkpt>
      <trkpt lat="45.265571" lon="7.0814">
        <time>2023-04-27T07:45:22+00:00</time>
        <ele>2484.0</ele>
      </trkpt>
      <trkpt lat="45.265538" lon="7.081408">
        <time>2023-04-27T07:45:26+00:00</time>
        <ele>2484.0</ele>
      </trkpt>
      <trkpt lat="45.265513" lon="7.081434">
        <time>2023-04-27T07:45:29+00:00</time>
        <ele>2484.0</ele>
      </trkpt>
      <trkpt lat="45.265488" lon="7.08144">
        <time>2023-04-27T07:45:32+00:00</time>
        <ele>2484.0</ele>
      </trkpt>
      <trkpt lat="45.2653" lon="7.081521">
        <time>2023-04-27T07:45:50+00:00</time>
        <ele>2484.0</ele>
      </trkpt>
      <trkpt lat="45.265277" lon="7.08152">
        <time>2023-04-27T07:45:53+00:00</time>
        <ele>2484.0</ele>
      </trkpt>
      <trkpt lat="45.265182" lon="7.081506">
        <time>2023-04-27T07:46:03+00:00</time>
        <ele>2483.0</ele>
      </trkpt>
      <trkpt lat="45.265154" lon="7.081503">
        <time>2023-04-27T07:46:06+00:00</time>
        <ele>2483.0</ele>
      </trkpt>
      <trkpt lat="45.26513" lon="7.081489">
        <time>2023-04-27T07:46:09+00:00</time>
        <ele>2483.0</ele>
      </trkpt>
      <trkpt lat="45.26495" lon="7.081483">
        <time>2023-04-27T07:46:28+00:00</time>
        <ele>2484.0</ele>
      </trkpt>
      <trkpt lat="45.264952" lon="7.081498">
        <time>2023-04-27T07:48:41+00:00</time>
        <ele>2484.0</ele>
      </trkpt>
      <trkpt lat="45.264931" lon="7.081499">
        <time>2023-04-27T07:50:02+00:00</time>
        <ele>2484.0</ele>
      </trkpt>
      <trkpt lat="45.26472" lon="7.081492">
        <time>2023-04-27T07:50:18+00:00</time>
        <ele>2485.0</ele>
      </trkpt>
      <trkpt lat="45.264692" lon="7.081487">
        <time>2023-04-27T07:50:21+00:00</time>
        <ele>2485.0</ele>
      </trkpt>
      <trkpt lat="45.264669" lon="7.081486">
        <time>2023-04-27T07:50:23+00:00</time>
        <ele>2485.0</ele>
      </trkpt>
      <trkpt lat="45.26464" lon="7.081466">
        <time>2023-04-27T07:50:26+00:00</time>
        <ele>2485.0</ele>
      </trkpt>
      <trkpt lat="45.264535" lon="7.081447">
        <time>2023-04-27T07:50:38+00:00</time>
        <ele>2484.0</ele>
      </trkpt>
      <trkpt lat="45.264505" lon="7.081454">
        <time>2023-04-27T07:50:41+00:00</time>
        <ele>2485.0</ele>
      </trkpt>
      <trkpt lat="45.264485" lon="7.081438">
        <time>2023-04-27T07:50:43+00:00</time>
        <ele>2484.0</ele>
      </trkpt>
      <trkpt lat="45.264484" lon="7.081401">
        <time>2023-04-27T07:50:44+00:00</time>
        <ele>2484.0</ele>
      </trkpt>
      <trkpt lat="45.264169" lon="7.081446">
        <time>2023-04-27T07:51:16+00:00</time>
        <ele>2484.0</ele>
      </trkpt>
      <trkpt lat="45.264019" lon="7.081414">
        <time>2023-04-27T07:51:31+00:00</time>
        <ele>2485.0</ele>
      </trkpt>
      <trkpt lat="45.264" lon="7.081406">
        <time>2023-04-27T07:51:33+00:00</time>
        <ele>2485.0</ele>
      </trkpt>
      <trkpt lat="45.263916" lon="7.081386">
        <time>2023-04-27T07:51:41+00:00</time>
        <ele>2485.0</ele>
      </trkpt>
      <trkpt lat="45.263892" lon="7.081399">
        <time>2023-04-27T07:51:43+00:00</time>
        <ele>2486.0</ele>
      </trkpt>
      <trkpt lat="45.263875" lon="7.081431">
        <time>2023-04-27T07:51:44+00:00</time>
        <ele>2486.0</ele>
      </trkpt>
      <trkpt lat="45.26384" lon="7.081424">
        <time>2023-04-27T07:51:47+00:00</time>
        <ele>2486.0</ele>
      </trkpt>
      <trkpt lat="45.263827" lon="7.081397">
        <time>2023-04-27T07:51:49+00:00</time>
        <ele>2486.0</ele>
      </trkpt>
      <trkpt lat="45.263735" lon="7.081363">
        <time>2023-04-27T07:51:58+00:00</time>
        <ele>2486.0</ele>
      </trkpt>
      <trkpt lat="45.26371" lon="7.081355">
        <time>2023-04-27T07:52:01+00:00</time>
        <ele>2486.0</ele>
      </trkpt>
      <trkpt lat="45.263682" lon="7.08135">
        <time>2023-04-27T07:52:04+00:00</time>
        <ele>2487.0</ele>
      </trkpt>
      <trkpt lat="45.263587" lon="7.081312">
        <time>2023-04-27T07:52:14+00:00</time>
        <ele>2489.0</ele>
      </trkpt>
      <trkpt lat="45.263555" lon="7.081318">
        <time>2023-04-27T07:52:17+00:00</time>
        <ele>2489.0</ele>
      </trkpt>
      <trkpt lat="45.263294" lon="7.081218">
        <time>2023-04-27T07:52:47+00:00</time>
        <ele>2496.0</ele>
      </trkpt>
      <trkpt lat="45.26328" lon="7.081208">
        <time>2023-04-27T07:52:53+00:00</time>
        <ele>2495.0</ele>
      </trkpt>
      <trkpt lat="45.263261" lon="7.081198">
        <time>2023-04-27T07:53:37+00:00</time>
        <ele>2495.0</ele>
      </trkpt>
      <trkpt lat="45.263166" lon="7.081177">
        <time>2023-04-27T07:53:49+00:00</time>
        <ele>2496.0</ele>
      </trkpt>
      <trkpt lat="45.263152" lon="7.08113">
        <time>2023-04-27T07:53:51+00:00</time>
        <ele>2495.0</ele>
      </trkpt>
      <trkpt lat="45.26312" lon="7.081104">
        <time>2023-04-27T07:53:56+00:00</time>
        <ele>2495.0</ele>
      </trkpt>
      <trkpt lat="45.262915" lon="7.081121">
        <time>2023-04-27T07:54:18+00:00</time>
        <ele>2494.0</ele>
      </trkpt>
      <trkpt lat="45.262744" lon="7.081131">
        <time>2023-04-27T07:54:40+00:00</time>
        <ele>2493.0</ele>
      </trkpt>
      <trkpt lat="45.262674" lon="7.081167">
        <time>2023-04-27T07:54:48+00:00</time>
        <ele>2493.0</ele>
      </trkpt>
      <trkpt lat="45.262647" lon="7.08125">
        <time>2023-04-27T07:54:51+00:00</time>
        <ele>2494.0</ele>
      </trkpt>
      <trkpt lat="45.262617" lon="7.081272">
        <time>2023-04-27T07:54:54+00:00</time>
        <ele>2494.0</ele>
      </trkpt>
      <trkpt lat="45.2626" lon="7.081252">
        <time>2023-04-27T07:54:56+00:00</time>
        <ele>2494.0</ele>
      </trkpt>
      <trkpt lat="45.262537" lon="7.081223">
        <time>2023-04-27T07:55:01+00:00</time>
        <ele>2493.0</ele>
      </trkpt>
      <trkpt lat="45.262517" lon="7.081213">
        <time>2023-04-27T07:55:03+00:00</time>
        <ele>2493.0</ele>
      </trkpt>
      <trkpt lat="45.262473" lon="7.081227">
        <time>2023-04-27T07:55:08+00:00</time>
        <ele>2493.0</ele>
      </trkpt>
      <trkpt lat="45.262454" lon="7.081224">
        <time>2023-04-27T07:55:11+00:00</time>
        <ele>2493.0</ele>
      </trkpt>
      <trkpt lat="45.262433" lon="7.081222">
        <time>2023-04-27T07:55:21+00:00</time>
        <ele>2493.0</ele>
      </trkpt>
      <trkpt lat="45.262278" lon="7.08126">
        <time>2023-04-27T07:55:34+00:00</time>
        <ele>2494.0</ele>
      </trkpt>
      <trkpt lat="45.262232" lon="7.081261">
        <time>2023-04-27T07:55:43+00:00</time>
        <ele>2494.0</ele>
      </trkpt>
      <trkpt lat="45.262191" lon="7.081265">
        <time>2023-04-27T07:55:46+00:00</time>
        <ele>2494.0</ele>
      </trkpt>
      <trkpt lat="45.261949" lon="7.081254">
        <time>2023-04-27T07:56:16+00:00</time>
        <ele>2496.0</ele>
      </trkpt>
      <trkpt lat="45.261921" lon="7.081254">
        <time>2023-04-27T07:56:18+00:00</time>
        <ele>2496.0</ele>
      </trkpt>
      <trkpt lat="45.261828" lon="7.081226">
        <time>2023-04-27T07:56:27+00:00</time>
        <ele>2496.0</ele>
      </trkpt>
      <trkpt lat="45.261809" lon="7.081234">
        <time>2023-04-27T07:56:29+00:00</time>
        <ele>2496.0</ele>
      </trkpt>
      <trkpt lat="45.261786" lon="7.081242">
        <time>2023-04-27T07:56:31+00:00</time>
        <ele>2497.0</ele>
      </trkpt>
      <trkpt lat="45.261763" lon="7.081251">
        <time>2023-04-27T07:56:34+00:00</time>
        <ele>2497.0</ele>
      </trkpt>
      <trkpt lat="45.261747" lon="7.081264">
        <time>2023-04-27T07:56:36+00:00</time>
        <ele>2497.0</ele>
      </trkpt>
      <trkpt lat="45.261723" lon="7.081268">
        <time>2023-04-27T07:56:39+00:00</time>
        <ele>2497.0</ele>
      </trkpt>
      <trkpt lat="45.261611" lon="7.08126">
        <time>2023-04-27T07:56:51+00:00</time>
        <ele>2498.0</ele>
      </trkpt>
      <trkpt lat="45.261582" lon="7.081269">
        <time>2023-04-27T07:56:54+00:00</time>
        <ele>2498.0</ele>
      </trkpt>
      <trkpt lat="45.26154" lon="7.081265">
        <time>2023-04-27T07:56:59+00:00</time>
        <ele>2498.0</ele>
      </trkpt>
      <trkpt lat="45.261515" lon="7.081268">
        <time>2023-04-27T07:57:02+00:00</time>
        <ele>2498.0</ele>
      </trkpt>
      <trkpt lat="45.26145" lon="7.08125">
        <time>2023-04-27T07:57:11+00:00</time>
        <ele>2499.0</ele>
      </trkpt>
      <trkpt lat="45.26127" lon="7.081281">
        <time>2023-04-27T07:57:32+00:00</time>
        <ele>2500.0</ele>
      </trkpt>
      <trkpt lat="45.261268" lon="7.0813">
        <time>2023-04-27T07:58:46+00:00</time>
        <ele>2500.0</ele>
      </trkpt>
      <trkpt lat="45.26125" lon="7.081294">
        <time>2023-04-27T07:59:21+00:00</time>
        <ele>2501.0</ele>
      </trkpt>
      <trkpt lat="45.261231" lon="7.081286">
        <time>2023-04-27T07:59:23+00:00</time>
        <ele>2501.0</ele>
      </trkpt>
      <trkpt lat="45.261212" lon="7.081283">
        <time>2023-04-27T07:59:25+00:00</time>
        <ele>2501.0</ele>
      </trkpt>
      <trkpt lat="45.26119" lon="7.081259">
        <time>2023-04-27T07:59:28+00:00</time>
        <ele>2501.0</ele>
      </trkpt>
      <trkpt lat="45.261128" lon="7.081296">
        <time>2023-04-27T07:59:33+00:00</time>
        <ele>2501.0</ele>
      </trkpt>
      <trkpt lat="45.261104" lon="7.081309">
        <time>2023-04-27T07:59:36+00:00</time>
        <ele>2501.0</ele>
      </trkpt>
      <trkpt lat="45.260952" lon="7.081293">
        <time>2023-04-27T08:00:01+00:00</time>
        <ele>2502.0</ele>
      </trkpt>
      <trkpt lat="45.260906" lon="7.081261">
        <time>2023-04-27T08:00:11+00:00</time>
        <ele>2502.0</ele>
      </trkpt>
      <trkpt lat="45.260879" lon="7.081232">
        <time>2023-04-27T08:00:13+00:00</time>
        <ele>2503.0</ele>
      </trkpt>
      <trkpt lat="45.260841" lon="7.081245">
        <time>2023-04-27T08:00:15+00:00</time>
        <ele>2503.0</ele>
      </trkpt>
      <trkpt lat="45.260792" lon="7.081275">
        <time>2023-04-27T08:00:17+00:00</time>
        <ele>2502.0</ele>
      </trkpt>
      <trkpt lat="45.260756" lon="7.081279">
        <time>2023-04-27T08:00:19+00:00</time>
        <ele>2502.0</ele>
      </trkpt>
      <trkpt lat="45.26072" lon="7.081264">
        <time>2023-04-27T08:00:22+00:00</time>
        <ele>2503.0</ele>
      </trkpt>
      <trkpt lat="45.260701" lon="7.081248">
        <time>2023-04-27T08:00:26+00:00</time>
        <ele>2503.0</ele>
      </trkpt>
      <trkpt lat="45.260655" lon="7.08124">
        <time>2023-04-27T08:00:35+00:00</time>
        <ele>2503.0</ele>
      </trkpt>
      <trkpt lat="45.260603" lon="7.081249">
        <time>2023-04-27T08:00:40+00:00</time>
        <ele>2503.0</ele>
      </trkpt>
      <trkpt lat="45.260575" lon="7.081241">
        <time>2023-04-27T08:00:42+00:00</time>
        <ele>2503.0</ele>
      </trkpt>
      <trkpt lat="45.26051" lon="7.081228">
        <time>2023-04-27T08:00:49+00:00</time>
        <ele>2504.0</ele>
      </trkpt>
      <trkpt lat="45.260491" lon="7.081226">
        <time>2023-04-27T08:00:51+00:00</time>
        <ele>2504.0</ele>
      </trkpt>
      <trkpt lat="45.260341" lon="7.081173">
        <time>2023-04-27T08:01:09+00:00</time>
        <ele>2505.0</ele>
      </trkpt>
      <trkpt lat="45.260324" lon="7.081166">
        <time>2023-04-27T08:01:11+00:00</time>
        <ele>2505.0</ele>
      </trkpt>
      <trkpt lat="45.260284" lon="7.081154">
        <time>2023-04-27T08:01:20+00:00</time>
        <ele>2505.0</ele>
      </trkpt>
      <trkpt lat="45.260257" lon="7.081157">
        <time>2023-04-27T08:01:22+00:00</time>
        <ele>2505.0</ele>
      </trkpt>
      <trkpt lat="45.260232" lon="7.081158">
        <time>2023-04-27T08:01:24+00:00</time>
        <ele>2505.0</ele>
      </trkpt>
      <trkpt lat="45.260208" lon="7.081149">
        <time>2023-04-27T08:01:26+00:00</time>
        <ele>2505.0</ele>
      </trkpt>
      <trkpt lat="45.260192" lon="7.081129">
        <time>2023-04-27T08:01:28+00:00</time>
        <ele>2506.0</ele>
      </trkpt>
      <trkpt lat="45.260165" lon="7.081089">
        <time>2023-04-27T08:01:29+00:00</time>
        <ele>2506.0</ele>
      </trkpt>
      <trkpt lat="45.260139" lon="7.081049">
        <time>2023-04-27T08:01:31+00:00</time>
        <ele>2506.0</ele>
      </trkpt>
      <trkpt lat="45.260119" lon="7.081062">
        <time>2023-04-27T08:01:33+00:00</time>
        <ele>2506.0</ele>
      </trkpt>
      <trkpt lat="45.260095" lon="7.081102">
        <time>2023-04-27T08:01:35+00:00</time>
        <ele>2506.0</ele>
      </trkpt>
      <trkpt lat="45.260071" lon="7.081107">
        <time>2023-04-27T08:01:37+00:00</time>
        <ele>2506.0</ele>
      </trkpt>
      <trkpt lat="45.260032" lon="7.08111">
        <time>2023-04-27T08:01:46+00:00</time>
        <ele>2506.0</ele>
      </trkpt>
      <trkpt lat="45.260007" lon="7.081113">
        <time>2023-04-27T08:01:48+00:00</time>
        <ele>2506.0</ele>
      </trkpt>
      <trkpt lat="45.259911" lon="7.081115">
        <time>2023-04-27T08:01:56+00:00</time>
        <ele>2506.0</ele>
      </trkpt>
      <trkpt lat="45.259894" lon="7.081104">
        <time>2023-04-27T08:01:58+00:00</time>
        <ele>2506.0</ele>
      </trkpt>
      <trkpt lat="45.259759" lon="7.081076">
        <time>2023-04-27T08:02:19+00:00</time>
        <ele>2507.0</ele>
      </trkpt>
      <trkpt lat="45.259732" lon="7.081075">
        <time>2023-04-27T08:02:21+00:00</time>
        <ele>2507.0</ele>
      </trkpt>
      <trkpt lat="45.259567" lon="7.0811">
        <time>2023-04-27T08:02:41+00:00</time>
        <ele>2508.0</ele>
      </trkpt>
      <trkpt lat="45.259548" lon="7.081103">
        <time>2023-04-27T08:02:43+00:00</time>
        <ele>2508.0</ele>
      </trkpt>
      <trkpt lat="45.259531" lon="7.081094">
        <time>2023-04-27T08:02:44+00:00</time>
        <ele>2508.0</ele>
      </trkpt>
      <trkpt lat="45.259461" lon="7.081088">
        <time>2023-04-27T08:02:52+00:00</time>
        <ele>2509.0</ele>
      </trkpt>
      <trkpt lat="45.259441" lon="7.081093">
        <time>2023-04-27T08:02:54+00:00</time>
        <ele>2509.0</ele>
      </trkpt>
      <trkpt lat="45.259413" lon="7.081106">
        <time>2023-04-27T08:02:57+00:00</time>
        <ele>2509.0</ele>
      </trkpt>
      <trkpt lat="45.259389" lon="7.081109">
        <time>2023-04-27T08:02:59+00:00</time>
        <ele>2510.0</ele>
      </trkpt>
      <trkpt lat="45.25936" lon="7.081095">
        <time>2023-04-27T08:03:03+00:00</time>
        <ele>2510.0</ele>
      </trkpt>
      <trkpt lat="45.259339" lon="7.081111">
        <time>2023-04-27T08:03:05+00:00</time>
        <ele>2510.0</ele>
      </trkpt>
      <trkpt lat="45.259322" lon="7.081116">
        <time>2023-04-27T08:03:07+00:00</time>
        <ele>2510.0</ele>
      </trkpt>
      <trkpt lat="45.25928" lon="7.081123">
        <time>2023-04-27T08:03:12+00:00</time>
        <ele>2510.0</ele>
      </trkpt>
      <trkpt lat="45.259257" lon="7.081124">
        <time>2023-04-27T08:03:14+00:00</time>
        <ele>2510.0</ele>
      </trkpt>
      <trkpt lat="45.259238" lon="7.081145">
        <time>2023-04-27T08:03:53+00:00</time>
        <ele>2510.0</ele>
      </trkpt>
      <trkpt lat="45.259225" lon="7.081165">
        <time>2023-04-27T08:04:29+00:00</time>
        <ele>2510.0</ele>
      </trkpt>
      <trkpt lat="45.259154" lon="7.081152">
        <time>2023-04-27T08:04:55+00:00</time>
        <ele>2510.0</ele>
      </trkpt>
      <trkpt lat="45.259137" lon="7.081164">
        <time>2023-04-27T08:04:58+00:00</time>
        <ele>2511.0</ele>
      </trkpt>
      <trkpt lat="45.259098" lon="7.081162">
        <time>2023-04-27T08:05:02+00:00</time>
        <ele>2511.0</ele>
      </trkpt>
      <trkpt lat="45.259078" lon="7.081174">
        <time>2023-04-27T08:05:04+00:00</time>
        <ele>2511.0</ele>
      </trkpt>
      <trkpt lat="45.259001" lon="7.081178">
        <time>2023-04-27T08:05:12+00:00</time>
        <ele>2512.0</ele>
      </trkpt>
      <trkpt lat="45.258975" lon="7.08117">
        <time>2023-04-27T08:05:16+00:00</time>
        <ele>2512.0</ele>
      </trkpt>
      <trkpt lat="45.258955" lon="7.081164">
        <time>2023-04-27T08:05:18+00:00</time>
        <ele>2512.0</ele>
      </trkpt>
      <trkpt lat="45.258776" lon="7.081154">
        <time>2023-04-27T08:05:46+00:00</time>
        <ele>2513.0</ele>
      </trkpt>
      <trkpt lat="45.258755" lon="7.08116">
        <time>2023-04-27T08:05:47+00:00</time>
        <ele>2514.0</ele>
      </trkpt>
      <trkpt lat="45.258651" lon="7.081186">
        <time>2023-04-27T08:05:57+00:00</time>
        <ele>2514.0</ele>
      </trkpt>
      <trkpt lat="45.258631" lon="7.081183">
        <time>2023-04-27T08:05:59+00:00</time>
        <ele>2514.0</ele>
      </trkpt>
      <trkpt lat="45.258602" lon="7.081183">
        <time>2023-04-27T08:06:02+00:00</time>
        <ele>2515.0</ele>
      </trkpt>
      <trkpt lat="45.258578" lon="7.08119">
        <time>2023-04-27T08:06:05+00:00</time>
        <ele>2515.0</ele>
      </trkpt>
      <trkpt lat="45.258419" lon="7.081205">
        <time>2023-04-27T08:06:22+00:00</time>
        <ele>2516.0</ele>
      </trkpt>
      <trkpt lat="45.2584" lon="7.081217">
        <time>2023-04-27T08:06:24+00:00</time>
        <ele>2516.0</ele>
      </trkpt>
      <trkpt lat="45.258372" lon="7.081232">
        <time>2023-04-27T08:06:27+00:00</time>
        <ele>2516.0</ele>
      </trkpt>
      <trkpt lat="45.258348" lon="7.081244">
        <time>2023-04-27T08:06:29+00:00</time>
        <ele>2516.0</ele>
      </trkpt>
      <trkpt lat="45.258325" lon="7.081246">
        <time>2023-04-27T08:06:32+00:00</time>
        <ele>2516.0</ele>
      </trkpt>
      <trkpt lat="45.258303" lon="7.081247">
        <time>2023-04-27T08:06:35+00:00</time>
        <ele>2517.0</ele>
      </trkpt>
      <trkpt lat="45.258242" lon="7.081271">
        <time>2023-04-27T08:06:42+00:00</time>
        <ele>2517.0</ele>
      </trkpt>
      <trkpt lat="45.258097" lon="7.081342">
        <time>2023-04-27T08:07:02+00:00</time>
        <ele>2519.0</ele>
      </trkpt>
      <trkpt lat="45.258074" lon="7.081351">
        <time>2023-04-27T08:07:05+00:00</time>
        <ele>2519.0</ele>
      </trkpt>
      <trkpt lat="45.258048" lon="7.081362">
        <time>2023-04-27T08:07:08+00:00</time>
        <ele>2519.0</ele>
      </trkpt>
      <trkpt lat="45.25803" lon="7.081372">
        <time>2023-04-27T08:07:11+00:00</time>
        <ele>2520.0</ele>
      </trkpt>
      <trkpt lat="45.258008" lon="7.08138">
        <time>2023-04-27T08:07:14+00:00</time>
        <ele>2520.0</ele>
      </trkpt>
      <trkpt lat="45.257984" lon="7.081406">
        <time>2023-04-27T08:07:17+00:00</time>
        <ele>2520.0</ele>
      </trkpt>
      <trkpt lat="45.257944" lon="7.081406">
        <time>2023-04-27T08:07:22+00:00</time>
        <ele>2521.0</ele>
      </trkpt>
      <trkpt lat="45.257925" lon="7.081419">
        <time>2023-04-27T08:07:25+00:00</time>
        <ele>2521.0</ele>
      </trkpt>
      <trkpt lat="45.257855" lon="7.081431">
        <time>2023-04-27T08:07:32+00:00</time>
        <ele>2522.0</ele>
      </trkpt>
      <trkpt lat="45.25784" lon="7.081434">
        <time>2023-04-27T08:07:34+00:00</time>
        <ele>2522.0</ele>
      </trkpt>
      <trkpt lat="45.257805" lon="7.081457">
        <time>2023-04-27T08:07:40+00:00</time>
        <ele>2522.0</ele>
      </trkpt>
      <trkpt lat="45.257788" lon="7.081464">
        <time>2023-04-27T08:07:42+00:00</time>
        <ele>2522.0</ele>
      </trkpt>
      <trkpt lat="45.257722" lon="7.081481">
        <time>2023-04-27T08:07:49+00:00</time>
        <ele>2522.0</ele>
      </trkpt>
      <trkpt lat="45.257694" lon="7.081486">
        <time>2023-04-27T08:07:52+00:00</time>
        <ele>2522.0</ele>
      </trkpt>
      <trkpt lat="45.257673" lon="7.081505">
        <time>2023-04-27T08:07:56+00:00</time>
        <ele>2522.0</ele>
      </trkpt>
      <trkpt lat="45.257654" lon="7.081514">
        <time>2023-04-27T08:07:58+00:00</time>
        <ele>2522.0</ele>
      </trkpt>
      <trkpt lat="45.257595" lon="7.081546">
        <time>2023-04-27T08:08:07+00:00</time>
        <ele>2522.0</ele>
      </trkpt>
      <trkpt lat="45.257578" lon="7.081567">
        <time>2023-04-27T08:08:10+00:00</time>
        <ele>2522.0</ele>
      </trkpt>
      <trkpt lat="45.257553" lon="7.081578">
        <time>2023-04-27T08:08:13+00:00</time>
        <ele>2522.0</ele>
      </trkpt>
      <trkpt lat="45.257535" lon="7.081577">
        <time>2023-04-27T08:08:15+00:00</time>
        <ele>2523.0</ele>
      </trkpt>
      <trkpt lat="45.257502" lon="7.081594">
        <time>2023-04-27T08:08:20+00:00</time>
        <ele>2523.0</ele>
      </trkpt>
      <trkpt lat="45.257478" lon="7.081614">
        <time>2023-04-27T08:08:23+00:00</time>
        <ele>2523.0</ele>
      </trkpt>
      <trkpt lat="45.257324" lon="7.081668">
        <time>2023-04-27T08:08:43+00:00</time>
        <ele>2524.0</ele>
      </trkpt>
      <trkpt lat="45.25731" lon="7.081672">
        <time>2023-04-27T08:08:45+00:00</time>
        <ele>2525.0</ele>
      </trkpt>
      <trkpt lat="45.25729" lon="7.081674">
        <time>2023-04-27T08:08:48+00:00</time>
        <ele>2525.0</ele>
      </trkpt>
      <trkpt lat="45.257264" lon="7.081677">
        <time>2023-04-27T08:08:51+00:00</time>
        <ele>2525.0</ele>
      </trkpt>
      <trkpt lat="45.257234" lon="7.081686">
        <time>2023-04-27T08:08:54+00:00</time>
        <ele>2525.0</ele>
      </trkpt>
      <trkpt lat="45.257211" lon="7.081685">
        <time>2023-04-27T08:08:57+00:00</time>
        <ele>2525.0</ele>
      </trkpt>
      <trkpt lat="45.257196" lon="7.081694">
        <time>2023-04-27T08:08:59+00:00</time>
        <ele>2526.0</ele>
      </trkpt>
      <trkpt lat="45.257172" lon="7.081691">
        <time>2023-04-27T08:09:02+00:00</time>
        <ele>2526.0</ele>
      </trkpt>
      <trkpt lat="45.257014" lon="7.081731">
        <time>2023-04-27T08:09:22+00:00</time>
        <ele>2528.0</ele>
      </trkpt>
      <trkpt lat="45.256993" lon="7.081723">
        <time>2023-04-27T08:09:25+00:00</time>
        <ele>2528.0</ele>
      </trkpt>
      <trkpt lat="45.256992" lon="7.081708">
        <time>2023-04-27T08:10:05+00:00</time>
        <ele>2528.0</ele>
      </trkpt>
      <trkpt lat="45.256891" lon="7.081672">
        <time>2023-04-27T08:10:15+00:00</time>
        <ele>2530.0</ele>
      </trkpt>
      <trkpt lat="45.256873" lon="7.081703">
        <time>2023-04-27T08:10:16+00:00</time>
        <ele>2531.0</ele>
      </trkpt>
      <trkpt lat="45.256851" lon="7.081749">
        <time>2023-04-27T08:10:17+00:00</time>
        <ele>2531.0</ele>
      </trkpt>
      <trkpt lat="45.256825" lon="7.081757">
        <time>2023-04-27T08:10:20+00:00</time>
        <ele>2531.0</ele>
      </trkpt>
      <trkpt lat="45.256808" lon="7.081742">
        <time>2023-04-27T08:10:23+00:00</time>
        <ele>2532.0</ele>
      </trkpt>
      <trkpt lat="45.256757" lon="7.081718">
        <time>2023-04-27T08:10:32+00:00</time>
        <ele>2532.0</ele>
      </trkpt>
      <trkpt lat="45.256737" lon="7.081695">
        <time>2023-04-27T08:10:35+00:00</time>
        <ele>2532.0</ele>
      </trkpt>
      <trkpt lat="45.256718" lon="7.081683">
        <time>2023-04-27T08:10:37+00:00</time>
        <ele>2533.0</ele>
      </trkpt>
      <trkpt lat="45.256698" lon="7.08168">
        <time>2023-04-27T08:10:39+00:00</time>
        <ele>2533.0</ele>
      </trkpt>
      <trkpt lat="45.256679" lon="7.081667">
        <time>2023-04-27T08:10:44+00:00</time>
        <ele>2533.0</ele>
      </trkpt>
      <trkpt lat="45.256657" lon="7.081659">
        <time>2023-04-27T08:10:47+00:00</time>
        <ele>2533.0</ele>
      </trkpt>
      <trkpt lat="45.25662" lon="7.08163">
        <time>2023-04-27T08:10:50+00:00</time>
        <ele>2534.0</ele>
      </trkpt>
      <trkpt lat="45.256626" lon="7.081568">
        <time>2023-04-27T08:10:52+00:00</time>
        <ele>2533.0</ele>
      </trkpt>
      <trkpt lat="45.256597" lon="7.081566">
        <time>2023-04-27T08:10:57+00:00</time>
        <ele>2533.0</ele>
      </trkpt>
      <trkpt lat="45.256528" lon="7.081568">
        <time>2023-04-27T08:11:08+00:00</time>
        <ele>2534.0</ele>
      </trkpt>
      <trkpt lat="45.2565" lon="7.081553">
        <time>2023-04-27T08:11:12+00:00</time>
        <ele>2535.0</ele>
      </trkpt>
      <trkpt lat="45.256459" lon="7.08158">
        <time>2023-04-27T08:11:22+00:00</time>
        <ele>2535.0</ele>
      </trkpt>
      <trkpt lat="45.256438" lon="7.081559">
        <time>2023-04-27T08:11:47+00:00</time>
        <ele>2535.0</ele>
      </trkpt>
      <trkpt lat="45.256414" lon="7.08154">
        <time>2023-04-27T08:11:49+00:00</time>
        <ele>2535.0</ele>
      </trkpt>
      <trkpt lat="45.256387" lon="7.081524">
        <time>2023-04-27T08:11:52+00:00</time>
        <ele>2536.0</ele>
      </trkpt>
      <trkpt lat="45.256368" lon="7.081514">
        <time>2023-04-27T08:11:55+00:00</time>
        <ele>2536.0</ele>
      </trkpt>
      <trkpt lat="45.25635" lon="7.081515">
        <time>2023-04-27T08:11:57+00:00</time>
        <ele>2536.0</ele>
      </trkpt>
      <trkpt lat="45.256334" lon="7.081496">
        <time>2023-04-27T08:12:00+00:00</time>
        <ele>2537.0</ele>
      </trkpt>
      <trkpt lat="45.256262" lon="7.081469">
        <time>2023-04-27T08:12:14+00:00</time>
        <ele>2538.0</ele>
      </trkpt>
      <trkpt lat="45.256242" lon="7.081443">
        <time>2023-04-27T08:12:17+00:00</time>
        <ele>2538.0</ele>
      </trkpt>
      <trkpt lat="45.256175" lon="7.081367">
        <time>2023-04-27T08:12:40+00:00</time>
        <ele>2539.0</ele>
      </trkpt>
      <trkpt lat="45.256157" lon="7.081342">
        <time>2023-04-27T08:12:42+00:00</time>
        <ele>2539.0</ele>
      </trkpt>
      <trkpt lat="45.25611" lon="7.081316">
        <time>2023-04-27T08:12:50+00:00</time>
        <ele>2540.0</ele>
      </trkpt>
      <trkpt lat="45.256082" lon="7.081304">
        <time>2023-04-27T08:13:08+00:00</time>
        <ele>2540.0</ele>
      </trkpt>
      <trkpt lat="45.256021" lon="7.081292">
        <time>2023-04-27T08:13:17+00:00</time>
        <ele>2541.0</ele>
      </trkpt>
      <trkpt lat="45.255983" lon="7.081263">
        <time>2023-04-27T08:13:23+00:00</time>
        <ele>2542.0</ele>
      </trkpt>
      <trkpt lat="45.255869" lon="7.081231">
        <time>2023-04-27T08:13:37+00:00</time>
        <ele>2544.0</ele>
      </trkpt>
      <trkpt lat="45.255831" lon="7.081224">
        <time>2023-04-27T08:13:42+00:00</time>
        <ele>2545.0</ele>
      </trkpt>
      <trkpt lat="45.25581" lon="7.081212">
        <time>2023-04-27T08:13:45+00:00</time>
        <ele>2546.0</ele>
      </trkpt>
      <trkpt lat="45.255759" lon="7.081196">
        <time>2023-04-27T08:13:52+00:00</time>
        <ele>2547.0</ele>
      </trkpt>
      <trkpt lat="45.255739" lon="7.081192">
        <time>2023-04-27T08:13:56+00:00</time>
        <ele>2547.0</ele>
      </trkpt>
      <trkpt lat="45.255723" lon="7.08117">
        <time>2023-04-27T08:13:58+00:00</time>
        <ele>2548.0</ele>
      </trkpt>
      <trkpt lat="45.255716" lon="7.081149">
        <time>2023-04-27T08:14:17+00:00</time>
        <ele>2548.0</ele>
      </trkpt>
      <trkpt lat="45.255693" lon="7.08115">
        <time>2023-04-27T08:14:54+00:00</time>
        <ele>2548.0</ele>
      </trkpt>
      <trkpt lat="45.255636" lon="7.081125">
        <time>2023-04-27T08:15:02+00:00</time>
        <ele>2550.0</ele>
      </trkpt>
      <trkpt lat="45.255614" lon="7.081119">
        <time>2023-04-27T08:15:05+00:00</time>
        <ele>2550.0</ele>
      </trkpt>
      <trkpt lat="45.255589" lon="7.081111">
        <time>2023-04-27T08:15:09+00:00</time>
        <ele>2551.0</ele>
      </trkpt>
      <trkpt lat="45.255564" lon="7.081107">
        <time>2023-04-27T08:15:17+00:00</time>
        <ele>2551.0</ele>
      </trkpt>
      <trkpt lat="45.255534" lon="7.081083">
        <time>2023-04-27T08:15:22+00:00</time>
        <ele>2552.0</ele>
      </trkpt>
      <trkpt lat="45.255512" lon="7.081079">
        <time>2023-04-27T08:15:29+00:00</time>
        <ele>2552.0</ele>
      </trkpt>
      <trkpt lat="45.255492" lon="7.08108">
        <time>2023-04-27T08:15:33+00:00</time>
        <ele>2553.0</ele>
      </trkpt>
      <trkpt lat="45.255466" lon="7.081064">
        <time>2023-04-27T08:15:42+00:00</time>
        <ele>2553.0</ele>
      </trkpt>
      <trkpt lat="45.255444" lon="7.081057">
        <time>2023-04-27T08:15:47+00:00</time>
        <ele>2553.0</ele>
      </trkpt>
      <trkpt lat="45.25542" lon="7.081045">
        <time>2023-04-27T08:15:52+00:00</time>
        <ele>2554.0</ele>
      </trkpt>
      <trkpt lat="45.2554" lon="7.081041">
        <time>2023-04-27T08:16:13+00:00</time>
        <ele>2554.0</ele>
      </trkpt>
      <trkpt lat="45.255378" lon="7.081034">
        <time>2023-04-27T08:16:20+00:00</time>
        <ele>2554.0</ele>
      </trkpt>
      <trkpt lat="45.255361" lon="7.081041">
        <time>2023-04-27T08:16:29+00:00</time>
        <ele>2555.0</ele>
      </trkpt>
      <trkpt lat="45.2553" lon="7.081038">
        <time>2023-04-27T08:16:44+00:00</time>
        <ele>2557.0</ele>
      </trkpt>
      <trkpt lat="45.255277" lon="7.081054">
        <time>2023-04-27T08:16:49+00:00</time>
        <ele>2558.0</ele>
      </trkpt>
      <trkpt lat="45.255253" lon="7.081048">
        <time>2023-04-27T08:17:05+00:00</time>
        <ele>2559.0</ele>
      </trkpt>
      <trkpt lat="45.255235" lon="7.08104">
        <time>2023-04-27T08:17:10+00:00</time>
        <ele>2560.0</ele>
      </trkpt>
      <trkpt lat="45.255195" lon="7.08104">
        <time>2023-04-27T08:17:25+00:00</time>
        <ele>2562.0</ele>
      </trkpt>
      <trkpt lat="45.255176" lon="7.081032">
        <time>2023-04-27T08:17:29+00:00</time>
        <ele>2562.0</ele>
      </trkpt>
      <trkpt lat="45.255157" lon="7.081035">
        <time>2023-04-27T08:17:32+00:00</time>
        <ele>2563.0</ele>
      </trkpt>
      <trkpt lat="45.255141" lon="7.081056">
        <time>2023-04-27T08:17:35+00:00</time>
        <ele>2564.0</ele>
      </trkpt>
      <trkpt lat="45.255119" lon="7.081062">
        <time>2023-04-27T08:17:39+00:00</time>
        <ele>2564.0</ele>
      </trkpt>
      <trkpt lat="45.255101" lon="7.081062">
        <time>2023-04-27T08:17:43+00:00</time>
        <ele>2565.0</ele>
      </trkpt>
      <trkpt lat="45.255076" lon="7.081076">
        <time>2023-04-27T08:17:52+00:00</time>
        <ele>2566.0</ele>
      </trkpt>
      <trkpt lat="45.255055" lon="7.081075">
        <time>2023-04-27T08:18:23+00:00</time>
        <ele>2567.0</ele>
      </trkpt>
      <trkpt lat="45.255026" lon="7.081087">
        <time>2023-04-27T08:18:27+00:00</time>
        <ele>2568.0</ele>
      </trkpt>
      <trkpt lat="45.25501" lon="7.081107">
        <time>2023-04-27T08:18:32+00:00</time>
        <ele>2568.0</ele>
      </trkpt>
      <trkpt lat="45.254999" lon="7.081131">
        <time>2023-04-27T08:18:38+00:00</time>
        <ele>2569.0</ele>
      </trkpt>
      <trkpt lat="45.254965" lon="7.081152">
        <time>2023-04-27T08:18:47+00:00</time>
        <ele>2570.0</ele>
      </trkpt>
      <trkpt lat="45.254942" lon="7.081173">
        <time>2023-04-27T08:19:19+00:00</time>
        <ele>2571.0</ele>
      </trkpt>
      <trkpt lat="45.254907" lon="7.081191">
        <time>2023-04-27T08:19:27+00:00</time>
        <ele>2572.0</ele>
      </trkpt>
      <trkpt lat="45.254883" lon="7.081203">
        <time>2023-04-27T08:19:33+00:00</time>
        <ele>2572.0</ele>
      </trkpt>
      <trkpt lat="45.254851" lon="7.081261">
        <time>2023-04-27T08:19:48+00:00</time>
        <ele>2573.0</ele>
      </trkpt>
      <trkpt lat="45.254831" lon="7.081291">
        <time>2023-04-27T08:20:18+00:00</time>
        <ele>2573.0</ele>
      </trkpt>
      <trkpt lat="45.254816" lon="7.08132">
        <time>2023-04-27T08:20:27+00:00</time>
        <ele>2574.0</ele>
      </trkpt>
      <trkpt lat="45.254796" lon="7.081342">
        <time>2023-04-27T08:21:07+00:00</time>
        <ele>2575.0</ele>
      </trkpt>
      <trkpt lat="45.254775" lon="7.081375">
        <time>2023-04-27T08:24:09+00:00</time>
        <ele>2575.0</ele>
      </trkpt>
      <trkpt lat="45.254708" lon="7.081416">
        <time>2023-04-27T08:24:12+00:00</time>
        <ele>2576.0</ele>
      </trkpt>
      <trkpt lat="45.254695" lon="7.081461">
        <time>2023-04-27T08:24:23+00:00</time>
        <ele>2576.0</ele>
      </trkpt>
      <trkpt lat="45.25468" lon="7.081491">
        <time>2023-04-27T08:24:37+00:00</time>
        <ele>2577.0</ele>
      </trkpt>
      <trkpt lat="45.254614" lon="7.081533">
        <time>2023-04-27T08:24:55+00:00</time>
        <ele>2576.0</ele>
      </trkpt>
      <trkpt lat="45.254566" lon="7.08155">
        <time>2023-04-27T08:25:19+00:00</time>
        <ele>2576.0</ele>
      </trkpt>
      <trkpt lat="45.254533" lon="7.081571">
        <time>2023-04-27T08:25:22+00:00</time>
        <ele>2576.0</ele>
      </trkpt>
      <trkpt lat="45.254495" lon="7.081582">
        <time>2023-04-27T08:25:28+00:00</time>
        <ele>2576.0</ele>
      </trkpt>
      <trkpt lat="45.254471" lon="7.08159">
        <time>2023-04-27T08:25:30+00:00</time>
        <ele>2576.0</ele>
      </trkpt>
      <trkpt lat="45.254453" lon="7.081591">
        <time>2023-04-27T08:25:32+00:00</time>
        <ele>2576.0</ele>
      </trkpt>
      <trkpt lat="45.254411" lon="7.081613">
        <time>2023-04-27T08:25:35+00:00</time>
        <ele>2576.0</ele>
      </trkpt>
      <trkpt lat="45.254389" lon="7.081622">
        <time>2023-04-27T08:25:37+00:00</time>
        <ele>2576.0</ele>
      </trkpt>
      <trkpt lat="45.254361" lon="7.081634">
        <time>2023-04-27T08:25:40+00:00</time>
        <ele>2577.0</ele>
      </trkpt>
      <trkpt lat="45.254297" lon="7.081665">
        <time>2023-04-27T08:25:47+00:00</time>
        <ele>2578.0</ele>
      </trkpt>
      <trkpt lat="45.254281" lon="7.081684">
        <time>2023-04-27T08:25:49+00:00</time>
        <ele>2578.0</ele>
      </trkpt>
      <trkpt lat="45.254266" lon="7.081708">
        <time>2023-04-27T08:25:52+00:00</time>
        <ele>2578.0</ele>
      </trkpt>
      <trkpt lat="45.254246" lon="7.081742">
        <time>2023-04-27T08:25:55+00:00</time>
        <ele>2578.0</ele>
      </trkpt>
      <trkpt lat="45.254193" lon="7.081811">
        <time>2023-04-27T08:26:04+00:00</time>
        <ele>2579.0</ele>
      </trkpt>
      <trkpt lat="45.254171" lon="7.081838">
        <time>2023-04-27T08:26:07+00:00</time>
        <ele>2579.0</ele>
      </trkpt>
      <trkpt lat="45.254104" lon="7.081966">
        <time>2023-04-27T08:26:20+00:00</time>
        <ele>2580.0</ele>
      </trkpt>
      <trkpt lat="45.254052" lon="7.082034">
        <time>2023-04-27T08:26:27+00:00</time>
        <ele>2580.0</ele>
      </trkpt>
      <trkpt lat="45.254038" lon="7.082058">
        <time>2023-04-27T08:26:31+00:00</time>
        <ele>2580.0</ele>
      </trkpt>
      <trkpt lat="45.25398" lon="7.08212">
        <time>2023-04-27T08:26:39+00:00</time>
        <ele>2581.0</ele>
      </trkpt>
      <trkpt lat="45.253958" lon="7.082138">
        <time>2023-04-27T08:26:42+00:00</time>
        <ele>2582.0</ele>
      </trkpt>
      <trkpt lat="45.253894" lon="7.082191">
        <time>2023-04-27T08:26:52+00:00</time>
        <ele>2583.0</ele>
      </trkpt>
      <trkpt lat="45.253879" lon="7.08221">
        <time>2023-04-27T08:26:55+00:00</time>
        <ele>2583.0</ele>
      </trkpt>
      <trkpt lat="45.253787" lon="7.082315">
        <time>2023-04-27T08:27:42+00:00</time>
        <ele>2584.0</ele>
      </trkpt>
      <trkpt lat="45.253721" lon="7.082379">
        <time>2023-04-27T08:27:52+00:00</time>
        <ele>2585.0</ele>
      </trkpt>
      <trkpt lat="45.253701" lon="7.082394">
        <time>2023-04-27T08:27:55+00:00</time>
        <ele>2586.0</ele>
      </trkpt>
      <trkpt lat="45.253677" lon="7.082418">
        <time>2023-04-27T08:27:59+00:00</time>
        <ele>2586.0</ele>
      </trkpt>
      <trkpt lat="45.25366" lon="7.082436">
        <time>2023-04-27T08:28:02+00:00</time>
        <ele>2586.0</ele>
      </trkpt>
      <trkpt lat="45.253593" lon="7.082484">
        <time>2023-04-27T08:28:10+00:00</time>
        <ele>2587.0</ele>
      </trkpt>
      <trkpt lat="45.25357" lon="7.082516">
        <time>2023-04-27T08:28:14+00:00</time>
        <ele>2588.0</ele>
      </trkpt>
      <trkpt lat="45.253456" lon="7.08265">
        <time>2023-04-27T08:28:33+00:00</time>
        <ele>2589.0</ele>
      </trkpt>
      <trkpt lat="45.253436" lon="7.082669">
        <time>2023-04-27T08:28:37+00:00</time>
        <ele>2590.0</ele>
      </trkpt>
      <trkpt lat="45.253309" lon="7.082782">
        <time>2023-04-27T08:29:20+00:00</time>
        <ele>2593.0</ele>
      </trkpt>
      <trkpt lat="45.253183" lon="7.082928">
        <time>2023-04-27T08:29:47+00:00</time>
        <ele>2597.0</ele>
      </trkpt>
      <trkpt lat="45.253155" lon="7.082938">
        <time>2023-04-27T08:29:53+00:00</time>
        <ele>2597.0</ele>
      </trkpt>
      <trkpt lat="45.253136" lon="7.082933">
        <time>2023-04-27T08:29:56+00:00</time>
        <ele>2598.0</ele>
      </trkpt>
      <trkpt lat="45.253116" lon="7.082917">
        <time>2023-04-27T08:30:02+00:00</time>
        <ele>2598.0</ele>
      </trkpt>
      <trkpt lat="45.253098" lon="7.082908">
        <time>2023-04-27T08:30:04+00:00</time>
        <ele>2599.0</ele>
      </trkpt>
      <trkpt lat="45.253079" lon="7.082904">
        <time>2023-04-27T08:30:07+00:00</time>
        <ele>2599.0</ele>
      </trkpt>
      <trkpt lat="45.253007" lon="7.082984">
        <time>2023-04-27T08:30:23+00:00</time>
        <ele>2600.0</ele>
      </trkpt>
      <trkpt lat="45.252988" lon="7.083002">
        <time>2023-04-27T08:30:55+00:00</time>
        <ele>2601.0</ele>
      </trkpt>
      <trkpt lat="45.25292" lon="7.08304">
        <time>2023-04-27T08:31:07+00:00</time>
        <ele>2601.0</ele>
      </trkpt>
      <trkpt lat="45.252691" lon="7.083167">
        <time>2023-04-27T08:31:40+00:00</time>
        <ele>2604.0</ele>
      </trkpt>
      <trkpt lat="45.252472" lon="7.083266">
        <time>2023-04-27T08:32:11+00:00</time>
        <ele>2607.0</ele>
      </trkpt>
      <trkpt lat="45.252454" lon="7.083263">
        <time>2023-04-27T08:32:46+00:00</time>
        <ele>2607.0</ele>
      </trkpt>
      <trkpt lat="45.25241" lon="7.083288">
        <time>2023-04-27T08:32:52+00:00</time>
        <ele>2608.0</ele>
      </trkpt>
      <trkpt lat="45.252391" lon="7.083283">
        <time>2023-04-27T08:32:55+00:00</time>
        <ele>2608.0</ele>
      </trkpt>
      <trkpt lat="45.252361" lon="7.083317">
        <time>2023-04-27T08:33:01+00:00</time>
        <ele>2608.0</ele>
      </trkpt>
      <trkpt lat="45.252269" lon="7.083363">
        <time>2023-04-27T08:33:13+00:00</time>
        <ele>2610.0</ele>
      </trkpt>
      <trkpt lat="45.252125" lon="7.083407">
        <time>2023-04-27T08:33:32+00:00</time>
        <ele>2613.0</ele>
      </trkpt>
      <trkpt lat="45.252098" lon="7.083438">
        <time>2023-04-27T08:33:36+00:00</time>
        <ele>2613.0</ele>
      </trkpt>
      <trkpt lat="45.252054" lon="7.083463">
        <time>2023-04-27T08:33:43+00:00</time>
        <ele>2614.0</ele>
      </trkpt>
      <trkpt lat="45.252049" lon="7.083431">
        <time>2023-04-27T08:33:48+00:00</time>
        <ele>2613.0</ele>
      </trkpt>
      <trkpt lat="45.252023" lon="7.083462">
        <time>2023-04-27T08:33:51+00:00</time>
        <ele>2614.0</ele>
      </trkpt>
      <trkpt lat="45.251992" lon="7.083499">
        <time>2023-04-27T08:33:57+00:00</time>
        <ele>2615.0</ele>
      </trkpt>
      <trkpt lat="45.251937" lon="7.083526">
        <time>2023-04-27T08:34:06+00:00</time>
        <ele>2616.0</ele>
      </trkpt>
      <trkpt lat="45.251922" lon="7.083541">
        <time>2023-04-27T08:34:08+00:00</time>
        <ele>2616.0</ele>
      </trkpt>
      <trkpt lat="45.251902" lon="7.083563">
        <time>2023-04-27T08:34:12+00:00</time>
        <ele>2617.0</ele>
      </trkpt>
      <trkpt lat="45.251857" lon="7.083591">
        <time>2023-04-27T08:34:20+00:00</time>
        <ele>2618.0</ele>
      </trkpt>
      <trkpt lat="45.251838" lon="7.083585">
        <time>2023-04-27T08:34:23+00:00</time>
        <ele>2618.0</ele>
      </trkpt>
      <trkpt lat="45.251813" lon="7.0836">
        <time>2023-04-27T08:34:27+00:00</time>
        <ele>2619.0</ele>
      </trkpt>
      <trkpt lat="45.251792" lon="7.0836">
        <time>2023-04-27T08:34:30+00:00</time>
        <ele>2620.0</ele>
      </trkpt>
      <trkpt lat="45.25176" lon="7.083651">
        <time>2023-04-27T08:34:48+00:00</time>
        <ele>2621.0</ele>
      </trkpt>
      <trkpt lat="45.25175" lon="7.083675">
        <time>2023-04-27T08:34:50+00:00</time>
        <ele>2621.0</ele>
      </trkpt>
      <trkpt lat="45.251736" lon="7.083656">
        <time>2023-04-27T08:34:53+00:00</time>
        <ele>2621.0</ele>
      </trkpt>
      <trkpt lat="45.251669" lon="7.083639">
        <time>2023-04-27T08:35:03+00:00</time>
        <ele>2622.0</ele>
      </trkpt>
      <trkpt lat="45.25162" lon="7.083645">
        <time>2023-04-27T08:35:11+00:00</time>
        <ele>2623.0</ele>
      </trkpt>
      <trkpt lat="45.251595" lon="7.083621">
        <time>2023-04-27T08:35:16+00:00</time>
        <ele>2623.0</ele>
      </trkpt>
      <trkpt lat="45.251549" lon="7.08361">
        <time>2023-04-27T08:35:25+00:00</time>
        <ele>2623.0</ele>
      </trkpt>
      <trkpt lat="45.251531" lon="7.083615">
        <time>2023-04-27T08:35:28+00:00</time>
        <ele>2623.0</ele>
      </trkpt>
      <trkpt lat="45.251507" lon="7.083619">
        <time>2023-04-27T08:35:31+00:00</time>
        <ele>2623.0</ele>
      </trkpt>
      <trkpt lat="45.251489" lon="7.083622">
        <time>2023-04-27T08:35:34+00:00</time>
        <ele>2623.0</ele>
      </trkpt>
      <trkpt lat="45.251424" lon="7.083633">
        <time>2023-04-27T08:35:44+00:00</time>
        <ele>2623.0</ele>
      </trkpt>
      <trkpt lat="45.251351" lon="7.083716">
        <time>2023-04-27T08:35:57+00:00</time>
        <ele>2624.0</ele>
      </trkpt>
      <trkpt lat="45.251283" lon="7.083786">
        <time>2023-04-27T08:36:07+00:00</time>
        <ele>2624.0</ele>
      </trkpt>
      <trkpt lat="45.251259" lon="7.083806">
        <time>2023-04-27T08:36:10+00:00</time>
        <ele>2623.0</ele>
      </trkpt>
      <trkpt lat="45.251238" lon="7.083832">
        <time>2023-04-27T08:36:14+00:00</time>
        <ele>2623.0</ele>
      </trkpt>
      <trkpt lat="45.251212" lon="7.083843">
        <time>2023-04-27T08:36:19+00:00</time>
        <ele>2623.0</ele>
      </trkpt>
      <trkpt lat="45.251042" lon="7.084133">
        <time>2023-04-27T08:36:48+00:00</time>
        <ele>2624.0</ele>
      </trkpt>
      <trkpt lat="45.25103" lon="7.084161">
        <time>2023-04-27T08:36:51+00:00</time>
        <ele>2624.0</ele>
      </trkpt>
      <trkpt lat="45.251022" lon="7.08421">
        <time>2023-04-27T08:36:54+00:00</time>
        <ele>2625.0</ele>
      </trkpt>
      <trkpt lat="45.251006" lon="7.084243">
        <time>2023-04-27T08:36:57+00:00</time>
        <ele>2625.0</ele>
      </trkpt>
      <trkpt lat="45.250987" lon="7.084286">
        <time>2023-04-27T08:37:01+00:00</time>
        <ele>2625.0</ele>
      </trkpt>
      <trkpt lat="45.250841" lon="7.084483">
        <time>2023-04-27T08:37:51+00:00</time>
        <ele>2626.0</ele>
      </trkpt>
      <trkpt lat="45.250834" lon="7.084504">
        <time>2023-04-27T08:39:32+00:00</time>
        <ele>2626.0</ele>
      </trkpt>
      <trkpt lat="45.250822" lon="7.084534">
        <time>2023-04-27T08:39:44+00:00</time>
        <ele>2626.0</ele>
      </trkpt>
      <trkpt lat="45.250752" lon="7.084629">
        <time>2023-04-27T08:39:58+00:00</time>
        <ele>2627.0</ele>
      </trkpt>
      <trkpt lat="45.250741" lon="7.084659">
        <time>2023-04-27T08:40:01+00:00</time>
        <ele>2627.0</ele>
      </trkpt>
      <trkpt lat="45.250725" lon="7.084689">
        <time>2023-04-27T08:40:04+00:00</time>
        <ele>2627.0</ele>
      </trkpt>
      <trkpt lat="45.25071" lon="7.084723">
        <time>2023-04-27T08:40:08+00:00</time>
        <ele>2628.0</ele>
      </trkpt>
      <trkpt lat="45.250699" lon="7.084753">
        <time>2023-04-27T08:40:11+00:00</time>
        <ele>2628.0</ele>
      </trkpt>
      <trkpt lat="45.250663" lon="7.08487">
        <time>2023-04-27T08:40:22+00:00</time>
        <ele>2629.0</ele>
      </trkpt>
      <trkpt lat="45.250652" lon="7.084906">
        <time>2023-04-27T08:40:26+00:00</time>
        <ele>2630.0</ele>
      </trkpt>
      <trkpt lat="45.250641" lon="7.084939">
        <time>2023-04-27T08:40:29+00:00</time>
        <ele>2630.0</ele>
      </trkpt>
      <trkpt lat="45.250606" lon="7.085027">
        <time>2023-04-27T08:40:38+00:00</time>
        <ele>2631.0</ele>
      </trkpt>
      <trkpt lat="45.250579" lon="7.085027">
        <time>2023-04-27T08:40:53+00:00</time>
        <ele>2631.0</ele>
      </trkpt>
      <trkpt lat="45.250584" lon="7.085083">
        <time>2023-04-27T08:41:21+00:00</time>
        <ele>2632.0</ele>
      </trkpt>
      <trkpt lat="45.250572" lon="7.085115">
        <time>2023-04-27T08:41:25+00:00</time>
        <ele>2632.0</ele>
      </trkpt>
      <trkpt lat="45.250555" lon="7.085144">
        <time>2023-04-27T08:41:29+00:00</time>
        <ele>2632.0</ele>
      </trkpt>
      <trkpt lat="45.250546" lon="7.085177">
        <time>2023-04-27T08:41:35+00:00</time>
        <ele>2632.0</ele>
      </trkpt>
      <trkpt lat="45.250551" lon="7.085228">
        <time>2023-04-27T08:41:37+00:00</time>
        <ele>2633.0</ele>
      </trkpt>
      <trkpt lat="45.250502" lon="7.085368">
        <time>2023-04-27T08:42:31+00:00</time>
        <ele>2633.0</ele>
      </trkpt>
      <trkpt lat="45.250482" lon="7.085388">
        <time>2023-04-27T08:42:34+00:00</time>
        <ele>2633.0</ele>
      </trkpt>
      <trkpt lat="45.250478" lon="7.085415">
        <time>2023-04-27T08:42:37+00:00</time>
        <ele>2633.0</ele>
      </trkpt>
      <trkpt lat="45.250473" lon="7.085447">
        <time>2023-04-27T08:42:40+00:00</time>
        <ele>2633.0</ele>
      </trkpt>
      <trkpt lat="45.250474" lon="7.08549">
        <time>2023-04-27T08:42:43+00:00</time>
        <ele>2634.0</ele>
      </trkpt>
      <trkpt lat="45.25046" lon="7.085532">
        <time>2023-04-27T08:43:16+00:00</time>
        <ele>2634.0</ele>
      </trkpt>
      <trkpt lat="45.250459" lon="7.085574">
        <time>2023-04-27T08:43:20+00:00</time>
        <ele>2634.0</ele>
      </trkpt>
      <trkpt lat="45.250462" lon="7.085614">
        <time>2023-04-27T08:43:24+00:00</time>
        <ele>2635.0</ele>
      </trkpt>
      <trkpt lat="45.250443" lon="7.085716">
        <time>2023-04-27T08:43:44+00:00</time>
        <ele>2635.0</ele>
      </trkpt>
      <trkpt lat="45.250434" lon="7.085755">
        <time>2023-04-27T08:43:48+00:00</time>
        <ele>2636.0</ele>
      </trkpt>
      <trkpt lat="45.250443" lon="7.085849">
        <time>2023-04-27T08:43:57+00:00</time>
        <ele>2638.0</ele>
      </trkpt>
      <trkpt lat="45.250441" lon="7.08596">
        <time>2023-04-27T08:44:07+00:00</time>
        <ele>2640.0</ele>
      </trkpt>
      <trkpt lat="45.250436" lon="7.085986">
        <time>2023-04-27T08:44:12+00:00</time>
        <ele>2640.0</ele>
      </trkpt>
      <trkpt lat="45.250416" lon="7.085998">
        <time>2023-04-27T08:44:33+00:00</time>
        <ele>2640.0</ele>
      </trkpt>
      <trkpt lat="45.250416" lon="7.086031">
        <time>2023-04-27T08:44:37+00:00</time>
        <ele>2640.0</ele>
      </trkpt>
      <trkpt lat="45.250402" lon="7.086121">
        <time>2023-04-27T08:44:46+00:00</time>
        <ele>2642.0</ele>
      </trkpt>
      <trkpt lat="45.250374" lon="7.086209">
        <time>2023-04-27T08:44:56+00:00</time>
        <ele>2643.0</ele>
      </trkpt>
      <trkpt lat="45.25036" lon="7.086245">
        <time>2023-04-27T08:45:01+00:00</time>
        <ele>2644.0</ele>
      </trkpt>
      <trkpt lat="45.250335" lon="7.086324">
        <time>2023-04-27T08:45:37+00:00</time>
        <ele>2645.0</ele>
      </trkpt>
      <trkpt lat="45.250285" lon="7.086468">
        <time>2023-04-27T08:45:52+00:00</time>
        <ele>2647.0</ele>
      </trkpt>
      <trkpt lat="45.250275" lon="7.086498">
        <time>2023-04-27T08:45:55+00:00</time>
        <ele>2648.0</ele>
      </trkpt>
      <trkpt lat="45.250255" lon="7.08654">
        <time>2023-04-27T08:46:01+00:00</time>
        <ele>2648.0</ele>
      </trkpt>
      <trkpt lat="45.250229" lon="7.086578">
        <time>2023-04-27T08:46:07+00:00</time>
        <ele>2648.0</ele>
      </trkpt>
      <trkpt lat="45.250227" lon="7.086628">
        <time>2023-04-27T08:46:12+00:00</time>
        <ele>2650.0</ele>
      </trkpt>
      <trkpt lat="45.250168" lon="7.086725">
        <time>2023-04-27T08:46:23+00:00</time>
        <ele>2652.0</ele>
      </trkpt>
      <trkpt lat="45.250111" lon="7.086773">
        <time>2023-04-27T08:46:52+00:00</time>
        <ele>2652.0</ele>
      </trkpt>
      <trkpt lat="45.250083" lon="7.086782">
        <time>2023-04-27T08:46:56+00:00</time>
        <ele>2652.0</ele>
      </trkpt>
      <trkpt lat="45.250062" lon="7.086773">
        <time>2023-04-27T08:46:59+00:00</time>
        <ele>2652.0</ele>
      </trkpt>
      <trkpt lat="45.250005" lon="7.086775">
        <time>2023-04-27T08:47:06+00:00</time>
        <ele>2652.0</ele>
      </trkpt>
      <trkpt lat="45.24994" lon="7.086845">
        <time>2023-04-27T08:47:16+00:00</time>
        <ele>2653.0</ele>
      </trkpt>
      <trkpt lat="45.249913" lon="7.086854">
        <time>2023-04-27T08:47:20+00:00</time>
        <ele>2653.0</ele>
      </trkpt>
      <trkpt lat="45.249895" lon="7.086883">
        <time>2023-04-27T08:47:23+00:00</time>
        <ele>2654.0</ele>
      </trkpt>
      <trkpt lat="45.249844" lon="7.08694">
        <time>2023-04-27T08:47:33+00:00</time>
        <ele>2654.0</ele>
      </trkpt>
      <trkpt lat="45.249836" lon="7.086979">
        <time>2023-04-27T08:47:59+00:00</time>
        <ele>2655.0</ele>
      </trkpt>
      <trkpt lat="45.249847" lon="7.087001">
        <time>2023-04-27T08:49:59+00:00</time>
        <ele>2655.0</ele>
      </trkpt>
      <trkpt lat="45.249888" lon="7.087035">
        <time>2023-04-27T08:50:05+00:00</time>
        <ele>2656.0</ele>
      </trkpt>
      <trkpt lat="45.249869" lon="7.087072">
        <time>2023-04-27T08:50:09+00:00</time>
        <ele>2657.0</ele>
      </trkpt>
      <trkpt lat="45.249907" lon="7.087088">
        <time>2023-04-27T08:50:11+00:00</time>
        <ele>2657.0</ele>
      </trkpt>
      <trkpt lat="45.249959" lon="7.087097">
        <time>2023-04-27T08:50:13+00:00</time>
        <ele>2657.0</ele>
      </trkpt>
      <trkpt lat="45.250081" lon="7.087192">
        <time>2023-04-27T08:50:44+00:00</time>
        <ele>2660.0</ele>
      </trkpt>
      <trkpt lat="45.250112" lon="7.087198">
        <time>2023-04-27T08:50:49+00:00</time>
        <ele>2661.0</ele>
      </trkpt>
      <trkpt lat="45.250134" lon="7.087238">
        <time>2023-04-27T08:50:52+00:00</time>
        <ele>2662.0</ele>
      </trkpt>
      <trkpt lat="45.250221" lon="7.087232">
        <time>2023-04-27T08:51:04+00:00</time>
        <ele>2663.0</ele>
      </trkpt>
      <trkpt lat="45.25025" lon="7.087225">
        <time>2023-04-27T08:51:09+00:00</time>
        <ele>2664.0</ele>
      </trkpt>
      <trkpt lat="45.250272" lon="7.087251">
        <time>2023-04-27T08:52:20+00:00</time>
        <ele>2665.0</ele>
      </trkpt>
      <trkpt lat="45.250258" lon="7.087289">
        <time>2023-04-27T08:52:26+00:00</time>
        <ele>2665.0</ele>
      </trkpt>
      <trkpt lat="45.250272" lon="7.087335">
        <time>2023-04-27T08:52:31+00:00</time>
        <ele>2667.0</ele>
      </trkpt>
      <trkpt lat="45.250258" lon="7.087356">
        <time>2023-04-27T08:52:34+00:00</time>
        <ele>2667.0</ele>
      </trkpt>
      <trkpt lat="45.250251" lon="7.087386">
        <time>2023-04-27T08:52:39+00:00</time>
        <ele>2667.0</ele>
      </trkpt>
      <trkpt lat="45.250256" lon="7.087416">
        <time>2023-04-27T08:52:44+00:00</time>
        <ele>2668.0</ele>
      </trkpt>
      <trkpt lat="45.250233" lon="7.087436">
        <time>2023-04-27T08:52:49+00:00</time>
        <ele>2668.0</ele>
      </trkpt>
      <trkpt lat="45.250251" lon="7.087475">
        <time>2023-04-27T08:52:54+00:00</time>
        <ele>2669.0</ele>
      </trkpt>
      <trkpt lat="45.25028" lon="7.087545">
        <time>2023-04-27T08:53:08+00:00</time>
        <ele>2672.0</ele>
      </trkpt>
      <trkpt lat="45.250283" lon="7.087573">
        <time>2023-04-27T08:53:58+00:00</time>
        <ele>2673.0</ele>
      </trkpt>
      <trkpt lat="45.250287" lon="7.087608">
        <time>2023-04-27T08:54:01+00:00</time>
        <ele>2674.0</ele>
      </trkpt>
      <trkpt lat="45.250247" lon="7.087734">
        <time>2023-04-27T08:54:19+00:00</time>
        <ele>2677.0</ele>
      </trkpt>
      <trkpt lat="45.25023" lon="7.087763">
        <time>2023-04-27T08:54:26+00:00</time>
        <ele>2677.0</ele>
      </trkpt>
      <trkpt lat="45.25022" lon="7.087788">
        <time>2023-04-27T08:54:29+00:00</time>
        <ele>2678.0</ele>
      </trkpt>
      <trkpt lat="45.250206" lon="7.087816">
        <time>2023-04-27T08:54:34+00:00</time>
        <ele>2679.0</ele>
      </trkpt>
      <trkpt lat="45.250186" lon="7.087836">
        <time>2023-04-27T08:54:39+00:00</time>
        <ele>2679.0</ele>
      </trkpt>
      <trkpt lat="45.25016" lon="7.087872">
        <time>2023-04-27T08:55:04+00:00</time>
        <ele>2679.0</ele>
      </trkpt>
      <trkpt lat="45.250174" lon="7.087869">
        <time>2023-04-27T09:02:03+00:00</time>
        <ele>2680.0</ele>
      </trkpt>
      <trkpt lat="45.250258" lon="7.087879">
        <time>2023-04-27T09:02:36+00:00</time>
        <ele>2683.0</ele>
      </trkpt>
      <trkpt lat="45.250284" lon="7.087887">
        <time>2023-04-27T09:02:39+00:00</time>
        <ele>2684.0</ele>
      </trkpt>
      <trkpt lat="45.250351" lon="7.087882">
        <time>2023-04-27T09:03:05+00:00</time>
        <ele>2685.0</ele>
      </trkpt>
      <trkpt lat="45.250374" lon="7.087876">
        <time>2023-04-27T09:03:10+00:00</time>
        <ele>2685.0</ele>
      </trkpt>
      <trkpt lat="45.250403" lon="7.087879">
        <time>2023-04-27T09:03:14+00:00</time>
        <ele>2686.0</ele>
      </trkpt>
      <trkpt lat="45.250502" lon="7.087806">
        <time>2023-04-27T09:03:33+00:00</time>
        <ele>2687.0</ele>
      </trkpt>
      <trkpt lat="45.250527" lon="7.087778">
        <time>2023-04-27T09:03:38+00:00</time>
        <ele>2687.0</ele>
      </trkpt>
      <trkpt lat="45.250545" lon="7.087742">
        <time>2023-04-27T09:03:43+00:00</time>
        <ele>2686.0</ele>
      </trkpt>
      <trkpt lat="45.250582" lon="7.087707">
        <time>2023-04-27T09:04:21+00:00</time>
        <ele>2687.0</ele>
      </trkpt>
      <trkpt lat="45.250605" lon="7.087691">
        <time>2023-04-27T09:04:29+00:00</time>
        <ele>2688.0</ele>
      </trkpt>
      <trkpt lat="45.250626" lon="7.087662">
        <time>2023-04-27T09:04:36+00:00</time>
        <ele>2688.0</ele>
      </trkpt>
      <trkpt lat="45.25066" lon="7.087634">
        <time>2023-04-27T09:04:46+00:00</time>
        <ele>2689.0</ele>
      </trkpt>
      <trkpt lat="45.250648" lon="7.087601">
        <time>2023-04-27T09:05:30+00:00</time>
        <ele>2688.0</ele>
      </trkpt>
      <trkpt lat="45.250685" lon="7.087637">
        <time>2023-04-27T09:05:33+00:00</time>
        <ele>2690.0</ele>
      </trkpt>
      <trkpt lat="45.250711" lon="7.08767">
        <time>2023-04-27T09:05:40+00:00</time>
        <ele>2692.0</ele>
      </trkpt>
      <trkpt lat="45.250798" lon="7.087793">
        <time>2023-04-27T09:06:01+00:00</time>
        <ele>2697.0</ele>
      </trkpt>
      <trkpt lat="45.25081" lon="7.087832">
        <time>2023-04-27T09:06:08+00:00</time>
        <ele>2698.0</ele>
      </trkpt>
      <trkpt lat="45.250804" lon="7.087864">
        <time>2023-04-27T09:06:13+00:00</time>
        <ele>2698.0</ele>
      </trkpt>
      <trkpt lat="45.25081" lon="7.087896">
        <time>2023-04-27T09:06:18+00:00</time>
        <ele>2699.0</ele>
      </trkpt>
      <trkpt lat="45.250821" lon="7.087927">
        <time>2023-04-27T09:06:23+00:00</time>
        <ele>2700.0</ele>
      </trkpt>
      <trkpt lat="45.250808" lon="7.087964">
        <time>2023-04-27T09:06:29+00:00</time>
        <ele>2701.0</ele>
      </trkpt>
      <trkpt lat="45.250835" lon="7.087992">
        <time>2023-04-27T09:06:33+00:00</time>
        <ele>2702.0</ele>
      </trkpt>
      <trkpt lat="45.250836" lon="7.088072">
        <time>2023-04-27T09:06:44+00:00</time>
        <ele>2705.0</ele>
      </trkpt>
      <trkpt lat="45.250857" lon="7.088074">
        <time>2023-04-27T09:07:19+00:00</time>
        <ele>2706.0</ele>
      </trkpt>
      <trkpt lat="45.250909" lon="7.088054">
        <time>2023-04-27T09:07:29+00:00</time>
        <ele>2707.0</ele>
      </trkpt>
      <trkpt lat="45.250941" lon="7.088034">
        <time>2023-04-27T09:07:38+00:00</time>
        <ele>2708.0</ele>
      </trkpt>
      <trkpt lat="45.250955" lon="7.087998">
        <time>2023-04-27T09:07:43+00:00</time>
        <ele>2707.0</ele>
      </trkpt>
      <trkpt lat="45.251007" lon="7.087889">
        <time>2023-04-27T09:07:58+00:00</time>
        <ele>2707.0</ele>
      </trkpt>
      <trkpt lat="45.251035" lon="7.087872">
        <time>2023-04-27T09:08:03+00:00</time>
        <ele>2708.0</ele>
      </trkpt>
      <trkpt lat="45.251055" lon="7.087844">
        <time>2023-04-27T09:08:08+00:00</time>
        <ele>2709.0</ele>
      </trkpt>
      <trkpt lat="45.251083" lon="7.087823">
        <time>2023-04-27T09:08:14+00:00</time>
        <ele>2710.0</ele>
      </trkpt>
      <trkpt lat="45.251115" lon="7.087809">
        <time>2023-04-27T09:08:19+00:00</time>
        <ele>2711.0</ele>
      </trkpt>
      <trkpt lat="45.25113" lon="7.087781">
        <time>2023-04-27T09:08:23+00:00</time>
        <ele>2711.0</ele>
      </trkpt>
      <trkpt lat="45.251139" lon="7.087739">
        <time>2023-04-27T09:08:28+00:00</time>
        <ele>2711.0</ele>
      </trkpt>
      <trkpt lat="45.25119" lon="7.087652">
        <time>2023-04-27T09:09:01+00:00</time>
        <ele>2713.0</ele>
      </trkpt>
      <trkpt lat="45.251259" lon="7.087591">
        <time>2023-04-27T09:09:15+00:00</time>
        <ele>2716.0</ele>
      </trkpt>
      <trkpt lat="45.251272" lon="7.087603">
        <time>2023-04-27T09:10:48+00:00</time>
        <ele>2717.0</ele>
      </trkpt>
      <trkpt lat="45.251284" lon="7.087631">
        <time>2023-04-27T09:10:51+00:00</time>
        <ele>2717.0</ele>
      </trkpt>
      <trkpt lat="45.251293" lon="7.08766">
        <time>2023-04-27T09:10:55+00:00</time>
        <ele>2718.0</ele>
      </trkpt>
      <trkpt lat="45.251297" lon="7.087696">
        <time>2023-04-27T09:11:01+00:00</time>
        <ele>2718.0</ele>
      </trkpt>
      <trkpt lat="45.251347" lon="7.087819">
        <time>2023-04-27T09:11:19+00:00</time>
        <ele>2721.0</ele>
      </trkpt>
      <trkpt lat="45.251357" lon="7.087858">
        <time>2023-04-27T09:11:23+00:00</time>
        <ele>2722.0</ele>
      </trkpt>
      <trkpt lat="45.251363" lon="7.087891">
        <time>2023-04-27T09:11:28+00:00</time>
        <ele>2723.0</ele>
      </trkpt>
      <trkpt lat="45.25133" lon="7.087914">
        <time>2023-04-27T09:11:32+00:00</time>
        <ele>2722.0</ele>
      </trkpt>
      <trkpt lat="45.251372" lon="7.087956">
        <time>2023-04-27T09:11:37+00:00</time>
        <ele>2724.0</ele>
      </trkpt>
      <trkpt lat="45.251393" lon="7.087995">
        <time>2023-04-27T09:11:44+00:00</time>
        <ele>2725.0</ele>
      </trkpt>
      <trkpt lat="45.251398" lon="7.088028">
        <time>2023-04-27T09:11:55+00:00</time>
        <ele>2726.0</ele>
      </trkpt>
      <trkpt lat="45.251427" lon="7.088092">
        <time>2023-04-27T09:12:01+00:00</time>
        <ele>2729.0</ele>
      </trkpt>
      <trkpt lat="45.251432" lon="7.088124">
        <time>2023-04-27T09:12:53+00:00</time>
        <ele>2730.0</ele>
      </trkpt>
      <trkpt lat="45.251428" lon="7.088182">
        <time>2023-04-27T09:12:58+00:00</time>
        <ele>2731.0</ele>
      </trkpt>
      <trkpt lat="45.251436" lon="7.088229">
        <time>2023-04-27T09:13:03+00:00</time>
        <ele>2732.0</ele>
      </trkpt>
      <trkpt lat="45.251463" lon="7.088217">
        <time>2023-04-27T09:13:10+00:00</time>
        <ele>2733.0</ele>
      </trkpt>
      <trkpt lat="45.251497" lon="7.088214">
        <time>2023-04-27T09:13:16+00:00</time>
        <ele>2734.0</ele>
      </trkpt>
      <trkpt lat="45.251546" lon="7.088196">
        <time>2023-04-27T09:13:25+00:00</time>
        <ele>2735.0</ele>
      </trkpt>
      <trkpt lat="45.251571" lon="7.088236">
        <time>2023-04-27T09:13:30+00:00</time>
        <ele>2737.0</ele>
      </trkpt>
      <trkpt lat="45.251582" lon="7.088183">
        <time>2023-04-27T09:13:33+00:00</time>
        <ele>2736.0</ele>
      </trkpt>
      <trkpt lat="45.251669" lon="7.088104">
        <time>2023-04-27T09:14:03+00:00</time>
        <ele>2738.0</ele>
      </trkpt>
      <trkpt lat="45.251668" lon="7.08806">
        <time>2023-04-27T09:14:15+00:00</time>
        <ele>2737.0</ele>
      </trkpt>
      <trkpt lat="45.251705" lon="7.088034">
        <time>2023-04-27T09:14:18+00:00</time>
        <ele>2737.0</ele>
      </trkpt>
      <trkpt lat="45.251712" lon="7.088059">
        <time>2023-04-27T09:14:33+00:00</time>
        <ele>2738.0</ele>
      </trkpt>
      <trkpt lat="45.251726" lon="7.088109">
        <time>2023-04-27T09:14:43+00:00</time>
        <ele>2740.0</ele>
      </trkpt>
      <trkpt lat="45.25174" lon="7.088141">
        <time>2023-04-27T09:14:50+00:00</time>
        <ele>2741.0</ele>
      </trkpt>
      <trkpt lat="45.251749" lon="7.088214">
        <time>2023-04-27T09:14:59+00:00</time>
        <ele>2743.0</ele>
      </trkpt>
      <trkpt lat="45.25178" lon="7.088322">
        <time>2023-04-27T09:15:18+00:00</time>
        <ele>2746.0</ele>
      </trkpt>
      <trkpt lat="45.25179" lon="7.088363">
        <time>2023-04-27T09:15:34+00:00</time>
        <ele>2747.0</ele>
      </trkpt>
      <trkpt lat="45.251801" lon="7.088416">
        <time>2023-04-27T09:15:38+00:00</time>
        <ele>2748.0</ele>
      </trkpt>
      <trkpt lat="45.251811" lon="7.088485">
        <time>2023-04-27T09:15:43+00:00</time>
        <ele>2750.0</ele>
      </trkpt>
      <trkpt lat="45.251819" lon="7.088517">
        <time>2023-04-27T09:15:46+00:00</time>
        <ele>2751.0</ele>
      </trkpt>
      <trkpt lat="45.251823" lon="7.088555">
        <time>2023-04-27T09:15:53+00:00</time>
        <ele>2751.0</ele>
      </trkpt>
      <trkpt lat="45.251832" lon="7.088606">
        <time>2023-04-27T09:17:30+00:00</time>
        <ele>2753.0</ele>
      </trkpt>
      <trkpt lat="45.25182" lon="7.088696">
        <time>2023-04-27T09:17:43+00:00</time>
        <ele>2755.0</ele>
      </trkpt>
      <trkpt lat="45.251803" lon="7.08876">
        <time>2023-04-27T09:17:51+00:00</time>
        <ele>2757.0</ele>
      </trkpt>
      <trkpt lat="45.251796" lon="7.088784">
        <time>2023-04-27T09:18:00+00:00</time>
        <ele>2757.0</ele>
      </trkpt>
      <trkpt lat="45.251739" lon="7.088898">
        <time>2023-04-27T09:18:19+00:00</time>
        <ele>2759.0</ele>
      </trkpt>
      <trkpt lat="45.251724" lon="7.08893">
        <time>2023-04-27T09:18:25+00:00</time>
        <ele>2759.0</ele>
      </trkpt>
      <trkpt lat="45.251624" lon="7.089031">
        <time>2023-04-27T09:18:51+00:00</time>
        <ele>2761.0</ele>
      </trkpt>
      <trkpt lat="45.251579" lon="7.089129">
        <time>2023-04-27T09:19:04+00:00</time>
        <ele>2763.0</ele>
      </trkpt>
      <trkpt lat="45.251578" lon="7.089202">
        <time>2023-04-27T09:19:13+00:00</time>
        <ele>2764.0</ele>
      </trkpt>
      <trkpt lat="45.251577" lon="7.089229">
        <time>2023-04-27T09:19:16+00:00</time>
        <ele>2765.0</ele>
      </trkpt>
      <trkpt lat="45.251551" lon="7.089275">
        <time>2023-04-27T09:19:24+00:00</time>
        <ele>2766.0</ele>
      </trkpt>
      <trkpt lat="45.251549" lon="7.089312">
        <time>2023-04-27T09:19:29+00:00</time>
        <ele>2766.0</ele>
      </trkpt>
      <trkpt lat="45.251524" lon="7.089361">
        <time>2023-04-27T09:19:39+00:00</time>
        <ele>2767.0</ele>
      </trkpt>
      <trkpt lat="45.251502" lon="7.089389">
        <time>2023-04-27T09:19:45+00:00</time>
        <ele>2768.0</ele>
      </trkpt>
      <trkpt lat="45.251485" lon="7.089409">
        <time>2023-04-27T09:19:50+00:00</time>
        <ele>2768.0</ele>
      </trkpt>
      <trkpt lat="45.251451" lon="7.08944">
        <time>2023-04-27T09:19:58+00:00</time>
        <ele>2769.0</ele>
      </trkpt>
      <trkpt lat="45.251429" lon="7.089467">
        <time>2023-04-27T09:20:08+00:00</time>
        <ele>2769.0</ele>
      </trkpt>
      <trkpt lat="45.251419" lon="7.089502">
        <time>2023-04-27T09:20:13+00:00</time>
        <ele>2770.0</ele>
      </trkpt>
      <trkpt lat="45.251387" lon="7.089559">
        <time>2023-04-27T09:20:24+00:00</time>
        <ele>2771.0</ele>
      </trkpt>
      <trkpt lat="45.251282" lon="7.089737">
        <time>2023-04-27T09:20:58+00:00</time>
        <ele>2775.0</ele>
      </trkpt>
      <trkpt lat="45.251254" lon="7.089815">
        <time>2023-04-27T09:21:08+00:00</time>
        <ele>2778.0</ele>
      </trkpt>
      <trkpt lat="45.251231" lon="7.089838">
        <time>2023-04-27T09:21:49+00:00</time>
        <ele>2778.0</ele>
      </trkpt>
      <trkpt lat="45.251213" lon="7.089856">
        <time>2023-04-27T09:21:55+00:00</time>
        <ele>2779.0</ele>
      </trkpt>
      <trkpt lat="45.251204" lon="7.089879">
        <time>2023-04-27T09:22:00+00:00</time>
        <ele>2780.0</ele>
      </trkpt>
      <trkpt lat="45.251183" lon="7.089889">
        <time>2023-04-27T09:22:07+00:00</time>
        <ele>2780.0</ele>
      </trkpt>
      <trkpt lat="45.251169" lon="7.089906">
        <time>2023-04-27T09:22:11+00:00</time>
        <ele>2781.0</ele>
      </trkpt>
      <trkpt lat="45.251147" lon="7.089926">
        <time>2023-04-27T09:22:19+00:00</time>
        <ele>2782.0</ele>
      </trkpt>
      <trkpt lat="45.251141" lon="7.089954">
        <time>2023-04-27T09:22:40+00:00</time>
        <ele>2783.0</ele>
      </trkpt>
      <trkpt lat="45.251174" lon="7.090016">
        <time>2023-04-27T09:22:49+00:00</time>
        <ele>2785.0</ele>
      </trkpt>
      <trkpt lat="45.251193" lon="7.090041">
        <time>2023-04-27T09:22:54+00:00</time>
        <ele>2785.0</ele>
      </trkpt>
      <trkpt lat="45.251214" lon="7.090066">
        <time>2023-04-27T09:22:59+00:00</time>
        <ele>2786.0</ele>
      </trkpt>
      <trkpt lat="45.251264" lon="7.090126">
        <time>2023-04-27T09:23:12+00:00</time>
        <ele>2787.0</ele>
      </trkpt>
      <trkpt lat="45.251242" lon="7.090155">
        <time>2023-04-27T09:23:29+00:00</time>
        <ele>2788.0</ele>
      </trkpt>
      <trkpt lat="45.251195" lon="7.090191">
        <time>2023-04-27T09:23:45+00:00</time>
        <ele>2790.0</ele>
      </trkpt>
      <trkpt lat="45.251178" lon="7.090211">
        <time>2023-04-27T09:24:10+00:00</time>
        <ele>2791.0</ele>
      </trkpt>
      <trkpt lat="45.251192" lon="7.090234">
        <time>2023-04-27T09:24:14+00:00</time>
        <ele>2792.0</ele>
      </trkpt>
      <trkpt lat="45.251216" lon="7.090268">
        <time>2023-04-27T09:24:19+00:00</time>
        <ele>2793.0</ele>
      </trkpt>
      <trkpt lat="45.25127" lon="7.090311">
        <time>2023-04-27T09:24:29+00:00</time>
        <ele>2794.0</ele>
      </trkpt>
      <trkpt lat="45.251279" lon="7.090338">
        <time>2023-04-27T09:24:54+00:00</time>
        <ele>2795.0</ele>
      </trkpt>
      <trkpt lat="45.251237" lon="7.090385">
        <time>2023-04-27T09:25:14+00:00</time>
        <ele>2797.0</ele>
      </trkpt>
      <trkpt lat="45.251212" lon="7.090372">
        <time>2023-04-27T09:25:21+00:00</time>
        <ele>2797.0</ele>
      </trkpt>
      <trkpt lat="45.251185" lon="7.090379">
        <time>2023-04-27T09:25:27+00:00</time>
        <ele>2797.0</ele>
      </trkpt>
      <trkpt lat="45.251194" lon="7.090405">
        <time>2023-04-27T09:25:49+00:00</time>
        <ele>2798.0</ele>
      </trkpt>
      <trkpt lat="45.251218" lon="7.090445">
        <time>2023-04-27T09:25:54+00:00</time>
        <ele>2800.0</ele>
      </trkpt>
      <trkpt lat="45.251237" lon="7.090457">
        <time>2023-04-27T09:26:00+00:00</time>
        <ele>2800.0</ele>
      </trkpt>
      <trkpt lat="45.251295" lon="7.09041">
        <time>2023-04-27T09:26:04+00:00</time>
        <ele>2797.0</ele>
      </trkpt>
      <trkpt lat="45.251321" lon="7.090441">
        <time>2023-04-27T09:26:07+00:00</time>
        <ele>2798.0</ele>
      </trkpt>
      <trkpt lat="45.251306" lon="7.09048">
        <time>2023-04-27T09:26:11+00:00</time>
        <ele>2800.0</ele>
      </trkpt>
      <trkpt lat="45.251284" lon="7.0905">
        <time>2023-04-27T09:26:30+00:00</time>
        <ele>2801.0</ele>
      </trkpt>
      <trkpt lat="45.251257" lon="7.090511">
        <time>2023-04-27T09:26:35+00:00</time>
        <ele>2802.0</ele>
      </trkpt>
      <trkpt lat="45.251234" lon="7.090521">
        <time>2023-04-27T09:26:39+00:00</time>
        <ele>2803.0</ele>
      </trkpt>
      <trkpt lat="45.251212" lon="7.090531">
        <time>2023-04-27T09:26:42+00:00</time>
        <ele>2803.0</ele>
      </trkpt>
      <trkpt lat="45.251192" lon="7.090546">
        <time>2023-04-27T09:26:46+00:00</time>
        <ele>2804.0</ele>
      </trkpt>
      <trkpt lat="45.251165" lon="7.090549">
        <time>2023-04-27T09:26:51+00:00</time>
        <ele>2804.0</ele>
      </trkpt>
      <trkpt lat="45.251173" lon="7.090592">
        <time>2023-04-27T09:27:17+00:00</time>
        <ele>2806.0</ele>
      </trkpt>
      <trkpt lat="45.251204" lon="7.090649">
        <time>2023-04-27T09:27:27+00:00</time>
        <ele>2808.0</ele>
      </trkpt>
      <trkpt lat="45.25128" lon="7.090722">
        <time>2023-04-27T09:27:44+00:00</time>
        <ele>2811.0</ele>
      </trkpt>
      <trkpt lat="45.251259" lon="7.090734">
        <time>2023-04-27T09:28:22+00:00</time>
        <ele>2811.0</ele>
      </trkpt>
      <trkpt lat="45.251207" lon="7.090761">
        <time>2023-04-27T09:28:34+00:00</time>
        <ele>2813.0</ele>
      </trkpt>
      <trkpt lat="45.251218" lon="7.09079">
        <time>2023-04-27T09:29:06+00:00</time>
        <ele>2814.0</ele>
      </trkpt>
      <trkpt lat="45.251234" lon="7.090819">
        <time>2023-04-27T09:29:10+00:00</time>
        <ele>2815.0</ele>
      </trkpt>
      <trkpt lat="45.251211" lon="7.090851">
        <time>2023-04-27T09:29:14+00:00</time>
        <ele>2816.0</ele>
      </trkpt>
      <trkpt lat="45.251248" lon="7.090884">
        <time>2023-04-27T09:29:44+00:00</time>
        <ele>2817.0</ele>
      </trkpt>
      <trkpt lat="45.251286" lon="7.090877">
        <time>2023-04-27T09:29:59+00:00</time>
        <ele>2817.0</ele>
      </trkpt>
      <trkpt lat="45.251318" lon="7.090862">
        <time>2023-04-27T09:30:01+00:00</time>
        <ele>2816.0</ele>
      </trkpt>
      <trkpt lat="45.251345" lon="7.090892">
        <time>2023-04-27T09:30:04+00:00</time>
        <ele>2817.0</ele>
      </trkpt>
      <trkpt lat="45.251366" lon="7.090925">
        <time>2023-04-27T09:30:12+00:00</time>
        <ele>2819.0</ele>
      </trkpt>
      <trkpt lat="45.251384" lon="7.090946">
        <time>2023-04-27T09:30:42+00:00</time>
        <ele>2820.0</ele>
      </trkpt>
      <trkpt lat="45.251366" lon="7.090967">
        <time>2023-04-27T09:31:20+00:00</time>
        <ele>2820.0</ele>
      </trkpt>
      <trkpt lat="45.251344" lon="7.090971">
        <time>2023-04-27T09:31:24+00:00</time>
        <ele>2820.0</ele>
      </trkpt>
      <trkpt lat="45.25132" lon="7.090973">
        <time>2023-04-27T09:31:27+00:00</time>
        <ele>2821.0</ele>
      </trkpt>
      <trkpt lat="45.251301" lon="7.090998">
        <time>2023-04-27T09:31:34+00:00</time>
        <ele>2822.0</ele>
      </trkpt>
      <trkpt lat="45.251281" lon="7.091018">
        <time>2023-04-27T09:31:39+00:00</time>
        <ele>2822.0</ele>
      </trkpt>
      <trkpt lat="45.251217" lon="7.091068">
        <time>2023-04-27T09:31:51+00:00</time>
        <ele>2824.0</ele>
      </trkpt>
      <trkpt lat="45.251198" lon="7.091088">
        <time>2023-04-27T09:31:55+00:00</time>
        <ele>2825.0</ele>
      </trkpt>
      <trkpt lat="45.251172" lon="7.091096">
        <time>2023-04-27T09:32:02+00:00</time>
        <ele>2826.0</ele>
      </trkpt>
      <trkpt lat="45.251146" lon="7.091093">
        <time>2023-04-27T09:32:07+00:00</time>
        <ele>2826.0</ele>
      </trkpt>
      <trkpt lat="45.251121" lon="7.091101">
        <time>2023-04-27T09:32:12+00:00</time>
        <ele>2826.0</ele>
      </trkpt>
      <trkpt lat="45.251094" lon="7.091122">
        <time>2023-04-27T09:32:16+00:00</time>
        <ele>2827.0</ele>
      </trkpt>
      <trkpt lat="45.251074" lon="7.091113">
        <time>2023-04-27T09:33:24+00:00</time>
        <ele>2827.0</ele>
      </trkpt>
      <trkpt lat="45.250995" lon="7.091191">
        <time>2023-04-27T09:33:50+00:00</time>
        <ele>2830.0</ele>
      </trkpt>
      <trkpt lat="45.25098" lon="7.091207">
        <time>2023-04-27T09:33:54+00:00</time>
        <ele>2831.0</ele>
      </trkpt>
      <trkpt lat="45.250959" lon="7.091222">
        <time>2023-04-27T09:33:59+00:00</time>
        <ele>2832.0</ele>
      </trkpt>
      <trkpt lat="45.250938" lon="7.091229">
        <time>2023-04-27T09:34:05+00:00</time>
        <ele>2832.0</ele>
      </trkpt>
      <trkpt lat="45.25092" lon="7.091248">
        <time>2023-04-27T09:34:46+00:00</time>
        <ele>2833.0</ele>
      </trkpt>
      <trkpt lat="45.250897" lon="7.091261">
        <time>2023-04-27T09:34:52+00:00</time>
        <ele>2834.0</ele>
      </trkpt>
      <trkpt lat="45.250882" lon="7.091278">
        <time>2023-04-27T09:34:57+00:00</time>
        <ele>2834.0</ele>
      </trkpt>
      <trkpt lat="45.250854" lon="7.091286">
        <time>2023-04-27T09:35:04+00:00</time>
        <ele>2835.0</ele>
      </trkpt>
      <trkpt lat="45.250831" lon="7.091311">
        <time>2023-04-27T09:35:09+00:00</time>
        <ele>2836.0</ele>
      </trkpt>
      <trkpt lat="45.250815" lon="7.091324">
        <time>2023-04-27T09:35:25+00:00</time>
        <ele>2836.0</ele>
      </trkpt>
      <trkpt lat="45.250774" lon="7.091342">
        <time>2023-04-27T09:35:34+00:00</time>
        <ele>2837.0</ele>
      </trkpt>
      <trkpt lat="45.250755" lon="7.091363">
        <time>2023-04-27T09:35:49+00:00</time>
        <ele>2838.0</ele>
      </trkpt>
      <trkpt lat="45.250736" lon="7.091378">
        <time>2023-04-27T09:35:56+00:00</time>
        <ele>2838.0</ele>
      </trkpt>
      <trkpt lat="45.250715" lon="7.091377">
        <time>2023-04-27T09:36:00+00:00</time>
        <ele>2838.0</ele>
      </trkpt>
      <trkpt lat="45.250694" lon="7.091397">
        <time>2023-04-27T09:36:04+00:00</time>
        <ele>2839.0</ele>
      </trkpt>
      <trkpt lat="45.250692" lon="7.091425">
        <time>2023-04-27T09:36:30+00:00</time>
        <ele>2840.0</ele>
      </trkpt>
      <trkpt lat="45.250736" lon="7.091484">
        <time>2023-04-27T09:36:44+00:00</time>
        <ele>2842.0</ele>
      </trkpt>
      <trkpt lat="45.250762" lon="7.091546">
        <time>2023-04-27T09:36:55+00:00</time>
        <ele>2844.0</ele>
      </trkpt>
      <trkpt lat="45.250773" lon="7.091573">
        <time>2023-04-27T09:37:19+00:00</time>
        <ele>2845.0</ele>
      </trkpt>
      <trkpt lat="45.250755" lon="7.091589">
        <time>2023-04-27T09:37:29+00:00</time>
        <ele>2846.0</ele>
      </trkpt>
      <trkpt lat="45.250736" lon="7.091595">
        <time>2023-04-27T09:37:32+00:00</time>
        <ele>2846.0</ele>
      </trkpt>
      <trkpt lat="45.250602" lon="7.091676">
        <time>2023-04-27T09:38:04+00:00</time>
        <ele>2848.0</ele>
      </trkpt>
      <trkpt lat="45.250616" lon="7.091703">
        <time>2023-04-27T09:38:52+00:00</time>
        <ele>2848.0</ele>
      </trkpt>
      <trkpt lat="45.250637" lon="7.091718">
        <time>2023-04-27T09:38:56+00:00</time>
        <ele>2849.0</ele>
      </trkpt>
      <trkpt lat="45.25065" lon="7.091749">
        <time>2023-04-27T09:38:59+00:00</time>
        <ele>2850.0</ele>
      </trkpt>
      <trkpt lat="45.250666" lon="7.091778">
        <time>2023-04-27T09:39:04+00:00</time>
        <ele>2850.0</ele>
      </trkpt>
      <trkpt lat="45.250679" lon="7.091874">
        <time>2023-04-27T09:39:15+00:00</time>
        <ele>2853.0</ele>
      </trkpt>
      <trkpt lat="45.250798" lon="7.091991">
        <time>2023-04-27T09:39:46+00:00</time>
        <ele>2857.0</ele>
      </trkpt>
      <trkpt lat="45.250825" lon="7.092012">
        <time>2023-04-27T09:39:52+00:00</time>
        <ele>2857.0</ele>
      </trkpt>
      <trkpt lat="45.250844" lon="7.092032">
        <time>2023-04-27T09:39:55+00:00</time>
        <ele>2858.0</ele>
      </trkpt>
      <trkpt lat="45.250868" lon="7.092033">
        <time>2023-04-27T09:40:17+00:00</time>
        <ele>2857.0</ele>
      </trkpt>
      <trkpt lat="45.250872" lon="7.092033">
        <time>2023-04-27T09:43:11+00:00</time>
        <ele>2857.0</ele>
      </trkpt>
      <trkpt lat="45.250831" lon="7.092049">
        <time>2023-04-27T09:45:20+00:00</time>
        <ele>2858.0</ele>
      </trkpt>
      <trkpt lat="45.250793" lon="7.092028">
        <time>2023-04-27T09:45:59+00:00</time>
        <ele>2858.0</ele>
      </trkpt>
      <trkpt lat="45.250835" lon="7.091992">
        <time>2023-04-27T09:46:09+00:00</time>
        <ele>2856.0</ele>
      </trkpt>
      <trkpt lat="45.250854" lon="7.092009">
        <time>2023-04-27T09:47:20+00:00</time>
        <ele>2857.0</ele>
      </trkpt>
      <trkpt lat="45.250869" lon="7.092059">
        <time>2023-04-27T09:47:55+00:00</time>
        <ele>2858.0</ele>
      </trkpt>
      <trkpt lat="45.250875" lon="7.0921">
        <time>2023-04-27T09:47:58+00:00</time>
        <ele>2858.0</ele>
      </trkpt>
      <trkpt lat="45.250886" lon="7.092131">
        <time>2023-04-27T09:48:01+00:00</time>
        <ele>2858.0</ele>
      </trkpt>
      <trkpt lat="45.250894" lon="7.092163">
        <time>2023-04-27T09:48:04+00:00</time>
        <ele>2859.0</ele>
      </trkpt>
      <trkpt lat="45.250922" lon="7.092204">
        <time>2023-04-27T09:48:10+00:00</time>
        <ele>2859.0</ele>
      </trkpt>
      <trkpt lat="45.25094" lon="7.092233">
        <time>2023-04-27T09:48:14+00:00</time>
        <ele>2859.0</ele>
      </trkpt>
      <trkpt lat="45.250954" lon="7.092265">
        <time>2023-04-27T09:48:19+00:00</time>
        <ele>2859.0</ele>
      </trkpt>
      <trkpt lat="45.250973" lon="7.092298">
        <time>2023-04-27T09:48:24+00:00</time>
        <ele>2859.0</ele>
      </trkpt>
      <trkpt lat="45.250993" lon="7.092336">
        <time>2023-04-27T09:48:29+00:00</time>
        <ele>2859.0</ele>
      </trkpt>
      <trkpt lat="45.250999" lon="7.092379">
        <time>2023-04-27T09:48:32+00:00</time>
        <ele>2860.0</ele>
      </trkpt>
      <trkpt lat="45.251014" lon="7.092414">
        <time>2023-04-27T09:48:33+00:00</time>
        <ele>2861.0</ele>
      </trkpt>
      <trkpt lat="45.251011" lon="7.092465">
        <time>2023-04-27T09:48:49+00:00</time>
        <ele>2861.0</ele>
      </trkpt>
      <trkpt lat="45.251019" lon="7.092574">
        <time>2023-04-27T09:50:11+00:00</time>
        <ele>2863.0</ele>
      </trkpt>
      <trkpt lat="45.251023" lon="7.092628">
        <time>2023-04-27T09:50:18+00:00</time>
        <ele>2864.0</ele>
      </trkpt>
      <trkpt lat="45.251021" lon="7.092664">
        <time>2023-04-27T09:50:24+00:00</time>
        <ele>2865.0</ele>
      </trkpt>
      <trkpt lat="45.251005" lon="7.092696">
        <time>2023-04-27T09:50:28+00:00</time>
        <ele>2865.0</ele>
      </trkpt>
      <trkpt lat="45.251002" lon="7.092771">
        <time>2023-04-27T09:50:42+00:00</time>
        <ele>2867.0</ele>
      </trkpt>
      <trkpt lat="45.251003" lon="7.092848">
        <time>2023-04-27T09:50:54+00:00</time>
        <ele>2869.0</ele>
      </trkpt>
      <trkpt lat="45.250996" lon="7.09295">
        <time>2023-04-27T09:51:10+00:00</time>
        <ele>2871.0</ele>
      </trkpt>
      <trkpt lat="45.25097" lon="7.092952">
        <time>2023-04-27T09:51:34+00:00</time>
        <ele>2870.0</ele>
      </trkpt>
      <trkpt lat="45.250962" lon="7.093">
        <time>2023-04-27T09:51:39+00:00</time>
        <ele>2871.0</ele>
      </trkpt>
      <trkpt lat="45.250953" lon="7.093034">
        <time>2023-04-27T09:51:46+00:00</time>
        <ele>2872.0</ele>
      </trkpt>
      <trkpt lat="45.250953" lon="7.093072">
        <time>2023-04-27T09:51:52+00:00</time>
        <ele>2872.0</ele>
      </trkpt>
      <trkpt lat="45.250943" lon="7.093113">
        <time>2023-04-27T09:51:55+00:00</time>
        <ele>2873.0</ele>
      </trkpt>
      <trkpt lat="45.250952" lon="7.09316">
        <time>2023-04-27T09:52:05+00:00</time>
        <ele>2875.0</ele>
      </trkpt>
      <trkpt lat="45.250933" lon="7.093271">
        <time>2023-04-27T09:52:24+00:00</time>
        <ele>2877.0</ele>
      </trkpt>
      <trkpt lat="45.250907" lon="7.093376">
        <time>2023-04-27T09:53:08+00:00</time>
        <ele>2880.0</ele>
      </trkpt>
      <trkpt lat="45.250908" lon="7.093409">
        <time>2023-04-27T09:53:12+00:00</time>
        <ele>2881.0</ele>
      </trkpt>
      <trkpt lat="45.250854" lon="7.093651">
        <time>2023-04-27T09:53:45+00:00</time>
        <ele>2884.0</ele>
      </trkpt>
      <trkpt lat="45.250849" lon="7.093683">
        <time>2023-04-27T09:53:51+00:00</time>
        <ele>2885.0</ele>
      </trkpt>
      <trkpt lat="45.25084" lon="7.093712">
        <time>2023-04-27T09:53:57+00:00</time>
        <ele>2885.0</ele>
      </trkpt>
      <trkpt lat="45.25084" lon="7.093758">
        <time>2023-04-27T09:54:37+00:00</time>
        <ele>2886.0</ele>
      </trkpt>
      <trkpt lat="45.250833" lon="7.093791">
        <time>2023-04-27T09:54:44+00:00</time>
        <ele>2887.0</ele>
      </trkpt>
      <trkpt lat="45.250811" lon="7.093821">
        <time>2023-04-27T09:54:51+00:00</time>
        <ele>2887.0</ele>
      </trkpt>
      <trkpt lat="45.250805" lon="7.093847">
        <time>2023-04-27T09:54:54+00:00</time>
        <ele>2887.0</ele>
      </trkpt>
      <trkpt lat="45.250808" lon="7.093957">
        <time>2023-04-27T09:55:09+00:00</time>
        <ele>2889.0</ele>
      </trkpt>
      <trkpt lat="45.250813" lon="7.093992">
        <time>2023-04-27T09:55:14+00:00</time>
        <ele>2890.0</ele>
      </trkpt>
      <trkpt lat="45.250814" lon="7.094065">
        <time>2023-04-27T09:55:25+00:00</time>
        <ele>2892.0</ele>
      </trkpt>
      <trkpt lat="45.250819" lon="7.094092">
        <time>2023-04-27T09:56:00+00:00</time>
        <ele>2892.0</ele>
      </trkpt>
      <trkpt lat="45.25084" lon="7.094127">
        <time>2023-04-27T09:57:22+00:00</time>
        <ele>2894.0</ele>
      </trkpt>
      <trkpt lat="45.250882" lon="7.094125">
        <time>2023-04-27T09:57:45+00:00</time>
        <ele>2895.0</ele>
      </trkpt>
      <trkpt lat="45.25095" lon="7.094129">
        <time>2023-04-27T09:57:57+00:00</time>
        <ele>2897.0</ele>
      </trkpt>
      <trkpt lat="45.250999" lon="7.094106">
        <time>2023-04-27T09:57:59+00:00</time>
        <ele>2897.0</ele>
      </trkpt>
      <trkpt lat="45.25104" lon="7.094103">
        <time>2023-04-27T09:58:13+00:00</time>
        <ele>2899.0</ele>
      </trkpt>
      <trkpt lat="45.251076" lon="7.094091">
        <time>2023-04-27T09:58:55+00:00</time>
        <ele>2899.0</ele>
      </trkpt>
      <trkpt lat="45.251125" lon="7.094226">
        <time>2023-04-27T09:59:25+00:00</time>
        <ele>2905.0</ele>
      </trkpt>
      <trkpt lat="45.251122" lon="7.094273">
        <time>2023-04-27T09:59:35+00:00</time>
        <ele>2906.0</ele>
      </trkpt>
      <trkpt lat="45.251107" lon="7.094331">
        <time>2023-04-27T09:59:45+00:00</time>
        <ele>2908.0</ele>
      </trkpt>
      <trkpt lat="45.251083" lon="7.094401">
        <time>2023-04-27T09:59:54+00:00</time>
        <ele>2909.0</ele>
      </trkpt>
      <trkpt lat="45.251084" lon="7.094454">
        <time>2023-04-27T10:00:07+00:00</time>
        <ele>2911.0</ele>
      </trkpt>
      <trkpt lat="45.251089" lon="7.094506">
        <time>2023-04-27T10:00:47+00:00</time>
        <ele>2913.0</ele>
      </trkpt>
      <trkpt lat="45.251051" lon="7.09453">
        <time>2023-04-27T10:01:00+00:00</time>
        <ele>2912.0</ele>
      </trkpt>
      <trkpt lat="45.250992" lon="7.094572">
        <time>2023-04-27T10:01:38+00:00</time>
        <ele>2911.0</ele>
      </trkpt>
      <trkpt lat="45.251026" lon="7.094611">
        <time>2023-04-27T10:02:18+00:00</time>
        <ele>2915.0</ele>
      </trkpt>
      <trkpt lat="45.251147" lon="7.094563">
        <time>2023-04-27T10:02:41+00:00</time>
        <ele>2918.0</ele>
      </trkpt>
      <trkpt lat="45.251188" lon="7.094569">
        <time>2023-04-27T10:02:48+00:00</time>
        <ele>2920.0</ele>
      </trkpt>
      <trkpt lat="45.251207" lon="7.094533">
        <time>2023-04-27T10:03:13+00:00</time>
        <ele>2919.0</ele>
      </trkpt>
      <trkpt lat="45.251261" lon="7.094522">
        <time>2023-04-27T10:03:22+00:00</time>
        <ele>2920.0</ele>
      </trkpt>
      <trkpt lat="45.251299" lon="7.09449">
        <time>2023-04-27T10:03:27+00:00</time>
        <ele>2920.0</ele>
      </trkpt>
      <trkpt lat="45.251339" lon="7.094499">
        <time>2023-04-27T10:03:35+00:00</time>
        <ele>2921.0</ele>
      </trkpt>
      <trkpt lat="45.251373" lon="7.09449">
        <time>2023-04-27T10:04:01+00:00</time>
        <ele>2922.0</ele>
      </trkpt>
      <trkpt lat="45.251402" lon="7.094468">
        <time>2023-04-27T10:04:07+00:00</time>
        <ele>2923.0</ele>
      </trkpt>
      <trkpt lat="45.251431" lon="7.094447">
        <time>2023-04-27T10:04:23+00:00</time>
        <ele>2923.0</ele>
      </trkpt>
      <trkpt lat="45.251465" lon="7.094426">
        <time>2023-04-27T10:04:30+00:00</time>
        <ele>2925.0</ele>
      </trkpt>
      <trkpt lat="45.251476" lon="7.094413">
        <time>2023-04-27T10:04:56+00:00</time>
        <ele>2925.0</ele>
      </trkpt>
      <trkpt lat="45.251507" lon="7.094405">
        <time>2023-04-27T10:05:18+00:00</time>
        <ele>2926.0</ele>
      </trkpt>
      <trkpt lat="45.251514" lon="7.094452">
        <time>2023-04-27T10:05:25+00:00</time>
        <ele>2928.0</ele>
      </trkpt>
      <trkpt lat="45.251508" lon="7.094513">
        <time>2023-04-27T10:05:34+00:00</time>
        <ele>2929.0</ele>
      </trkpt>
      <trkpt lat="45.251498" lon="7.094566">
        <time>2023-04-27T10:05:45+00:00</time>
        <ele>2930.0</ele>
      </trkpt>
      <trkpt lat="45.251488" lon="7.094615">
        <time>2023-04-27T10:05:53+00:00</time>
        <ele>2932.0</ele>
      </trkpt>
      <trkpt lat="45.251496" lon="7.094662">
        <time>2023-04-27T10:06:01+00:00</time>
        <ele>2933.0</ele>
      </trkpt>
      <trkpt lat="45.251499" lon="7.094712">
        <time>2023-04-27T10:06:10+00:00</time>
        <ele>2935.0</ele>
      </trkpt>
      <trkpt lat="45.251487" lon="7.09476">
        <time>2023-04-27T10:06:50+00:00</time>
        <ele>2937.0</ele>
      </trkpt>
      <trkpt lat="45.251477" lon="7.094812">
        <time>2023-04-27T10:06:58+00:00</time>
        <ele>2939.0</ele>
      </trkpt>
      <trkpt lat="45.251483" lon="7.094862">
        <time>2023-04-27T10:07:05+00:00</time>
        <ele>2941.0</ele>
      </trkpt>
      <trkpt lat="45.251467" lon="7.094911">
        <time>2023-04-27T10:07:12+00:00</time>
        <ele>2943.0</ele>
      </trkpt>
      <trkpt lat="45.251507" lon="7.094917">
        <time>2023-04-27T10:08:06+00:00</time>
        <ele>2943.0</ele>
      </trkpt>
      <trkpt lat="45.25166" lon="7.094878">
        <time>2023-04-27T10:08:36+00:00</time>
        <ele>2944.0</ele>
      </trkpt>
      <trkpt lat="45.251707" lon="7.094893">
        <time>2023-04-27T10:09:10+00:00</time>
        <ele>2946.0</ele>
      </trkpt>
      <trkpt lat="45.251747" lon="7.094896">
        <time>2023-04-27T10:09:18+00:00</time>
        <ele>2947.0</ele>
      </trkpt>
      <trkpt lat="45.251784" lon="7.094903">
        <time>2023-04-27T10:09:25+00:00</time>
        <ele>2948.0</ele>
      </trkpt>
      <trkpt lat="45.251814" lon="7.094913">
        <time>2023-04-27T10:09:47+00:00</time>
        <ele>2949.0</ele>
      </trkpt>
      <trkpt lat="45.251835" lon="7.0949">
        <time>2023-04-27T10:10:05+00:00</time>
        <ele>2949.0</ele>
      </trkpt>
      <trkpt lat="45.251843" lon="7.094956">
        <time>2023-04-27T10:11:16+00:00</time>
        <ele>2951.0</ele>
      </trkpt>
      <trkpt lat="45.251826" lon="7.095007">
        <time>2023-04-27T10:11:26+00:00</time>
        <ele>2951.0</ele>
      </trkpt>
      <trkpt lat="45.251813" lon="7.095065">
        <time>2023-04-27T10:11:35+00:00</time>
        <ele>2952.0</ele>
      </trkpt>
      <trkpt lat="45.251797" lon="7.095121">
        <time>2023-04-27T10:11:42+00:00</time>
        <ele>2952.0</ele>
      </trkpt>
      <trkpt lat="45.2518" lon="7.095246">
        <time>2023-04-27T10:11:57+00:00</time>
        <ele>2954.0</ele>
      </trkpt>
      <trkpt lat="45.251774" lon="7.095339">
        <time>2023-04-27T10:12:16+00:00</time>
        <ele>2954.0</ele>
      </trkpt>
      <trkpt lat="45.251786" lon="7.095441">
        <time>2023-04-27T10:12:27+00:00</time>
        <ele>2957.0</ele>
      </trkpt>
      <trkpt lat="45.251784" lon="7.095492">
        <time>2023-04-27T10:13:40+00:00</time>
        <ele>2958.0</ele>
      </trkpt>
      <trkpt lat="45.251776" lon="7.095538">
        <time>2023-04-27T10:13:46+00:00</time>
        <ele>2958.0</ele>
      </trkpt>
      <trkpt lat="45.251766" lon="7.095605">
        <time>2023-04-27T10:13:57+00:00</time>
        <ele>2960.0</ele>
      </trkpt>
      <trkpt lat="45.251761" lon="7.095653">
        <time>2023-04-27T10:14:06+00:00</time>
        <ele>2961.0</ele>
      </trkpt>
      <trkpt lat="45.25175" lon="7.095711">
        <time>2023-04-27T10:14:13+00:00</time>
        <ele>2963.0</ele>
      </trkpt>
      <trkpt lat="45.25171" lon="7.095892">
        <time>2023-04-27T10:14:41+00:00</time>
        <ele>2968.0</ele>
      </trkpt>
      <trkpt lat="45.251672" lon="7.095986">
        <time>2023-04-27T10:15:21+00:00</time>
        <ele>2971.0</ele>
      </trkpt>
      <trkpt lat="45.251625" lon="7.096115">
        <time>2023-04-27T10:15:42+00:00</time>
        <ele>2974.0</ele>
      </trkpt>
      <trkpt lat="45.251589" lon="7.096205">
        <time>2023-04-27T10:16:00+00:00</time>
        <ele>2975.0</ele>
      </trkpt>
      <trkpt lat="45.251573" lon="7.096229">
        <time>2023-04-27T10:16:53+00:00</time>
        <ele>2975.0</ele>
      </trkpt>
      <trkpt lat="45.251552" lon="7.096292">
        <time>2023-04-27T10:17:07+00:00</time>
        <ele>2977.0</ele>
      </trkpt>
      <trkpt lat="45.251538" lon="7.096321">
        <time>2023-04-27T10:17:11+00:00</time>
        <ele>2977.0</ele>
      </trkpt>
      <trkpt lat="45.251503" lon="7.096443">
        <time>2023-04-27T10:17:30+00:00</time>
        <ele>2980.0</ele>
      </trkpt>
      <trkpt lat="45.251476" lon="7.096519">
        <time>2023-04-27T10:17:41+00:00</time>
        <ele>2981.0</ele>
      </trkpt>
      <trkpt lat="45.251466" lon="7.096545">
        <time>2023-04-27T10:17:44+00:00</time>
        <ele>2982.0</ele>
      </trkpt>
      <trkpt lat="45.251454" lon="7.096576">
        <time>2023-04-27T10:17:49+00:00</time>
        <ele>2982.0</ele>
      </trkpt>
      <trkpt lat="45.251449" lon="7.096602">
        <time>2023-04-27T10:17:55+00:00</time>
        <ele>2983.0</ele>
      </trkpt>
      <trkpt lat="45.251438" lon="7.096627">
        <time>2023-04-27T10:18:25+00:00</time>
        <ele>2983.0</ele>
      </trkpt>
      <trkpt lat="45.251423" lon="7.096658">
        <time>2023-04-27T10:18:30+00:00</time>
        <ele>2983.0</ele>
      </trkpt>
      <trkpt lat="45.251407" lon="7.096706">
        <time>2023-04-27T10:18:35+00:00</time>
        <ele>2984.0</ele>
      </trkpt>
      <trkpt lat="45.251385" lon="7.096735">
        <time>2023-04-27T10:18:40+00:00</time>
        <ele>2984.0</ele>
      </trkpt>
      <trkpt lat="45.251369" lon="7.096767">
        <time>2023-04-27T10:18:45+00:00</time>
        <ele>2984.0</ele>
      </trkpt>
      <trkpt lat="45.25136" lon="7.096803">
        <time>2023-04-27T10:18:50+00:00</time>
        <ele>2985.0</ele>
      </trkpt>
      <trkpt lat="45.251349" lon="7.096834">
        <time>2023-04-27T10:18:53+00:00</time>
        <ele>2985.0</ele>
      </trkpt>
      <trkpt lat="45.251313" lon="7.096921">
        <time>2023-04-27T10:19:03+00:00</time>
        <ele>2986.0</ele>
      </trkpt>
      <trkpt lat="45.251303" lon="7.096959">
        <time>2023-04-27T10:19:05+00:00</time>
        <ele>2986.0</ele>
      </trkpt>
      <trkpt lat="45.251297" lon="7.096996">
        <time>2023-04-27T10:19:13+00:00</time>
        <ele>2986.0</ele>
      </trkpt>
      <trkpt lat="45.251288" lon="7.09707">
        <time>2023-04-27T10:19:22+00:00</time>
        <ele>2987.0</ele>
      </trkpt>
      <trkpt lat="45.251297" lon="7.097132">
        <time>2023-04-27T10:19:35+00:00</time>
        <ele>2988.0</ele>
      </trkpt>
      <trkpt lat="45.2513" lon="7.097174">
        <time>2023-04-27T10:20:11+00:00</time>
        <ele>2988.0</ele>
      </trkpt>
      <trkpt lat="45.25131" lon="7.097335">
        <time>2023-04-27T10:20:58+00:00</time>
        <ele>2990.0</ele>
      </trkpt>
      <trkpt lat="45.251311" lon="7.097376">
        <time>2023-04-27T10:21:00+00:00</time>
        <ele>2991.0</ele>
      </trkpt>
      <trkpt lat="45.251316" lon="7.097412">
        <time>2023-04-27T10:21:02+00:00</time>
        <ele>2992.0</ele>
      </trkpt>
      <trkpt lat="45.251345" lon="7.097629">
        <time>2023-04-27T10:21:37+00:00</time>
        <ele>2994.0</ele>
      </trkpt>
      <trkpt lat="45.251348" lon="7.097663">
        <time>2023-04-27T10:21:42+00:00</time>
        <ele>2995.0</ele>
      </trkpt>
      <trkpt lat="45.251401" lon="7.097737">
        <time>2023-04-27T10:21:53+00:00</time>
        <ele>2996.0</ele>
      </trkpt>
      <trkpt lat="45.251422" lon="7.097737">
        <time>2023-04-27T10:22:37+00:00</time>
        <ele>2996.0</ele>
      </trkpt>
      <trkpt lat="45.251428" lon="7.097766">
        <time>2023-04-27T10:23:04+00:00</time>
        <ele>2996.0</ele>
      </trkpt>
      <trkpt lat="45.251446" lon="7.097814">
        <time>2023-04-27T10:23:10+00:00</time>
        <ele>2997.0</ele>
      </trkpt>
      <trkpt lat="45.251461" lon="7.097844">
        <time>2023-04-27T10:23:13+00:00</time>
        <ele>2997.0</ele>
      </trkpt>
      <trkpt lat="45.251504" lon="7.097923">
        <time>2023-04-27T10:23:26+00:00</time>
        <ele>2997.0</ele>
      </trkpt>
      <trkpt lat="45.25156" lon="7.097971">
        <time>2023-04-27T10:23:36+00:00</time>
        <ele>2998.0</ele>
      </trkpt>
      <trkpt lat="45.25162" lon="7.098014">
        <time>2023-04-27T10:23:45+00:00</time>
        <ele>2999.0</ele>
      </trkpt>
      <trkpt lat="45.251643" lon="7.098035">
        <time>2023-04-27T10:23:51+00:00</time>
        <ele>2999.0</ele>
      </trkpt>
      <trkpt lat="45.251693" lon="7.098099">
        <time>2023-04-27T10:24:02+00:00</time>
        <ele>3000.0</ele>
      </trkpt>
      <trkpt lat="45.251726" lon="7.098124">
        <time>2023-04-27T10:24:08+00:00</time>
        <ele>3000.0</ele>
      </trkpt>
      <trkpt lat="45.251758" lon="7.098153">
        <time>2023-04-27T10:24:13+00:00</time>
        <ele>3000.0</ele>
      </trkpt>
      <trkpt lat="45.25178" lon="7.098181">
        <time>2023-04-27T10:24:18+00:00</time>
        <ele>3001.0</ele>
      </trkpt>
      <trkpt lat="45.251789" lon="7.098221">
        <time>2023-04-27T10:25:05+00:00</time>
        <ele>3001.0</ele>
      </trkpt>
      <trkpt lat="45.251815" lon="7.098249">
        <time>2023-04-27T10:25:11+00:00</time>
        <ele>3001.0</ele>
      </trkpt>
      <trkpt lat="45.251831" lon="7.098291">
        <time>2023-04-27T10:25:15+00:00</time>
        <ele>3002.0</ele>
      </trkpt>
      <trkpt lat="45.251843" lon="7.098351">
        <time>2023-04-27T10:25:28+00:00</time>
        <ele>3002.0</ele>
      </trkpt>
      <trkpt lat="45.251854" lon="7.098389">
        <time>2023-04-27T10:25:30+00:00</time>
        <ele>3003.0</ele>
      </trkpt>
      <trkpt lat="45.251867" lon="7.098464">
        <time>2023-04-27T10:25:35+00:00</time>
        <ele>3004.0</ele>
      </trkpt>
      <trkpt lat="45.251897" lon="7.098576">
        <time>2023-04-27T10:25:45+00:00</time>
        <ele>3006.0</ele>
      </trkpt>
      <trkpt lat="45.251908" lon="7.098612">
        <time>2023-04-27T10:25:50+00:00</time>
        <ele>3007.0</ele>
      </trkpt>
      <trkpt lat="45.251927" lon="7.098706">
        <time>2023-04-27T10:26:01+00:00</time>
        <ele>3009.0</ele>
      </trkpt>
      <trkpt lat="45.251931" lon="7.098742">
        <time>2023-04-27T10:26:31+00:00</time>
        <ele>3010.0</ele>
      </trkpt>
      <trkpt lat="45.251932" lon="7.098776">
        <time>2023-04-27T10:26:35+00:00</time>
        <ele>3011.0</ele>
      </trkpt>
      <trkpt lat="45.251931" lon="7.098926">
        <time>2023-04-27T10:27:00+00:00</time>
        <ele>3016.0</ele>
      </trkpt>
      <trkpt lat="45.251923" lon="7.098972">
        <time>2023-04-27T10:27:07+00:00</time>
        <ele>3017.0</ele>
      </trkpt>
      <trkpt lat="45.251939" lon="7.098965">
        <time>2023-04-27T10:28:06+00:00</time>
        <ele>3017.0</ele>
      </trkpt>
      <trkpt lat="45.25196" lon="7.098953">
        <time>2023-04-27T10:28:10+00:00</time>
        <ele>3018.0</ele>
      </trkpt>
      <trkpt lat="45.252002" lon="7.098895">
        <time>2023-04-27T10:28:20+00:00</time>
        <ele>3018.0</ele>
      </trkpt>
      <trkpt lat="45.252066" lon="7.098882">
        <time>2023-04-27T10:28:33+00:00</time>
        <ele>3020.0</ele>
      </trkpt>
      <trkpt lat="45.252108" lon="7.098859">
        <time>2023-04-27T10:28:40+00:00</time>
        <ele>3022.0</ele>
      </trkpt>
      <trkpt lat="45.252131" lon="7.098838">
        <time>2023-04-27T10:28:46+00:00</time>
        <ele>3022.0</ele>
      </trkpt>
      <trkpt lat="45.252147" lon="7.098872">
        <time>2023-04-27T10:29:37+00:00</time>
        <ele>3024.0</ele>
      </trkpt>
      <trkpt lat="45.252145" lon="7.099003">
        <time>2023-04-27T10:29:57+00:00</time>
        <ele>3025.0</ele>
      </trkpt>
      <trkpt lat="45.25214" lon="7.09904">
        <time>2023-04-27T10:30:03+00:00</time>
        <ele>3026.0</ele>
      </trkpt>
      <trkpt lat="45.25213" lon="7.09908">
        <time>2023-04-27T10:30:10+00:00</time>
        <ele>3026.0</ele>
      </trkpt>
      <trkpt lat="45.252143" lon="7.099202">
        <time>2023-04-27T10:30:29+00:00</time>
        <ele>3028.0</ele>
      </trkpt>
      <trkpt lat="45.252156" lon="7.099273">
        <time>2023-04-27T10:30:41+00:00</time>
        <ele>3029.0</ele>
      </trkpt>
      <trkpt lat="45.252156" lon="7.099388">
        <time>2023-04-27T10:30:55+00:00</time>
        <ele>3031.0</ele>
      </trkpt>
      <trkpt lat="45.252172" lon="7.099422">
        <time>2023-04-27T10:31:00+00:00</time>
        <ele>3032.0</ele>
      </trkpt>
      <trkpt lat="45.252172" lon="7.099487">
        <time>2023-04-27T10:31:10+00:00</time>
        <ele>3033.0</ele>
      </trkpt>
      <trkpt lat="45.252157" lon="7.099504">
        <time>2023-04-27T10:31:27+00:00</time>
        <ele>3032.0</ele>
      </trkpt>
      <trkpt lat="45.252165" lon="7.099539">
        <time>2023-04-27T10:32:56+00:00</time>
        <ele>3033.0</ele>
      </trkpt>
      <trkpt lat="45.252154" lon="7.099656">
        <time>2023-04-27T10:33:12+00:00</time>
        <ele>3035.0</ele>
      </trkpt>
      <trkpt lat="45.252171" lon="7.099677">
        <time>2023-04-27T10:33:17+00:00</time>
        <ele>3036.0</ele>
      </trkpt>
      <trkpt lat="45.252168" lon="7.099734">
        <time>2023-04-27T10:33:21+00:00</time>
        <ele>3037.0</ele>
      </trkpt>
      <trkpt lat="45.252183" lon="7.099782">
        <time>2023-04-27T10:33:25+00:00</time>
        <ele>3038.0</ele>
      </trkpt>
      <trkpt lat="45.252183" lon="7.099815">
        <time>2023-04-27T10:33:33+00:00</time>
        <ele>3039.0</ele>
      </trkpt>
      <trkpt lat="45.252195" lon="7.099837">
        <time>2023-04-27T10:33:37+00:00</time>
        <ele>3040.0</ele>
      </trkpt>
      <trkpt lat="45.252186" lon="7.099868">
        <time>2023-04-27T10:33:43+00:00</time>
        <ele>3040.0</ele>
      </trkpt>
      <trkpt lat="45.252171" lon="7.099902">
        <time>2023-04-27T10:33:48+00:00</time>
        <ele>3040.0</ele>
      </trkpt>
      <trkpt lat="45.25218" lon="7.100017">
        <time>2023-04-27T10:34:08+00:00</time>
        <ele>3041.0</ele>
      </trkpt>
      <trkpt lat="45.252184" lon="7.100046">
        <time>2023-04-27T10:34:18+00:00</time>
        <ele>3042.0</ele>
      </trkpt>
      <trkpt lat="45.252166" lon="7.100151">
        <time>2023-04-27T10:34:52+00:00</time>
        <ele>3043.0</ele>
      </trkpt>
      <trkpt lat="45.252163" lon="7.100266">
        <time>2023-04-27T10:35:08+00:00</time>
        <ele>3045.0</ele>
      </trkpt>
      <trkpt lat="45.252189" lon="7.100321">
        <time>2023-04-27T10:35:16+00:00</time>
        <ele>3047.0</ele>
      </trkpt>
      <trkpt lat="45.252192" lon="7.10037">
        <time>2023-04-27T10:35:20+00:00</time>
        <ele>3049.0</ele>
      </trkpt>
      <trkpt lat="45.252166" lon="7.100456">
        <time>2023-04-27T10:35:41+00:00</time>
        <ele>3049.0</ele>
      </trkpt>
      <trkpt lat="45.25216" lon="7.100529">
        <time>2023-04-27T10:35:56+00:00</time>
        <ele>3050.0</ele>
      </trkpt>
      <trkpt lat="45.252138" lon="7.100556">
        <time>2023-04-27T10:35:59+00:00</time>
        <ele>3050.0</ele>
      </trkpt>
      <trkpt lat="45.252151" lon="7.100605">
        <time>2023-04-27T10:36:04+00:00</time>
        <ele>3051.0</ele>
      </trkpt>
      <trkpt lat="45.252172" lon="7.100619">
        <time>2023-04-27T10:36:53+00:00</time>
        <ele>3052.0</ele>
      </trkpt>
      <trkpt lat="45.252163" lon="7.1007">
        <time>2023-04-27T10:37:24+00:00</time>
        <ele>3053.0</ele>
      </trkpt>
      <trkpt lat="45.252142" lon="7.100831">
        <time>2023-04-27T10:37:31+00:00</time>
        <ele>3054.0</ele>
      </trkpt>
      <trkpt lat="45.252138" lon="7.100885">
        <time>2023-04-27T10:37:36+00:00</time>
        <ele>3055.0</ele>
      </trkpt>
      <trkpt lat="45.252124" lon="7.101006">
        <time>2023-04-27T10:37:57+00:00</time>
        <ele>3056.0</ele>
      </trkpt>
      <trkpt lat="45.252114" lon="7.101049">
        <time>2023-04-27T10:38:01+00:00</time>
        <ele>3057.0</ele>
      </trkpt>
      <trkpt lat="45.25213" lon="7.101087">
        <time>2023-04-27T10:38:31+00:00</time>
        <ele>3058.0</ele>
      </trkpt>
      <trkpt lat="45.252131" lon="7.101122">
        <time>2023-04-27T10:39:29+00:00</time>
        <ele>3059.0</ele>
      </trkpt>
      <trkpt lat="45.252133" lon="7.101349">
        <time>2023-04-27T10:40:01+00:00</time>
        <ele>3063.0</ele>
      </trkpt>
      <trkpt lat="45.252129" lon="7.101434">
        <time>2023-04-27T10:40:16+00:00</time>
        <ele>3065.0</ele>
      </trkpt>
      <trkpt lat="45.252124" lon="7.10147">
        <time>2023-04-27T10:40:21+00:00</time>
        <ele>3065.0</ele>
      </trkpt>
      <trkpt lat="45.252105" lon="7.101523">
        <time>2023-04-27T10:40:31+00:00</time>
        <ele>3065.0</ele>
      </trkpt>
      <trkpt lat="45.252098" lon="7.10163">
        <time>2023-04-27T10:40:56+00:00</time>
        <ele>3067.0</ele>
      </trkpt>
      <trkpt lat="45.252108" lon="7.101667">
        <time>2023-04-27T10:41:30+00:00</time>
        <ele>3068.0</ele>
      </trkpt>
      <trkpt lat="45.252115" lon="7.101701">
        <time>2023-04-27T10:41:35+00:00</time>
        <ele>3069.0</ele>
      </trkpt>
      <trkpt lat="45.252076" lon="7.101846">
        <time>2023-04-27T10:42:06+00:00</time>
        <ele>3069.0</ele>
      </trkpt>
      <trkpt lat="45.252076" lon="7.101891">
        <time>2023-04-27T10:42:10+00:00</time>
        <ele>3070.0</ele>
      </trkpt>
      <trkpt lat="45.25207" lon="7.101935">
        <time>2023-04-27T10:42:17+00:00</time>
        <ele>3071.0</ele>
      </trkpt>
      <trkpt lat="45.252068" lon="7.10198">
        <time>2023-04-27T10:42:27+00:00</time>
        <ele>3071.0</ele>
      </trkpt>
      <trkpt lat="45.252078" lon="7.102014">
        <time>2023-04-27T10:43:02+00:00</time>
        <ele>3073.0</ele>
      </trkpt>
      <trkpt lat="45.252099" lon="7.102033">
        <time>2023-04-27T10:43:08+00:00</time>
        <ele>3074.0</ele>
      </trkpt>
      <trkpt lat="45.252122" lon="7.102049">
        <time>2023-04-27T10:43:11+00:00</time>
        <ele>3076.0</ele>
      </trkpt>
      <trkpt lat="45.252267" lon="7.10215">
        <time>2023-04-27T10:43:44+00:00</time>
        <ele>3081.0</ele>
      </trkpt>
      <trkpt lat="45.252329" lon="7.102143">
        <time>2023-04-27T10:43:56+00:00</time>
        <ele>3082.0</ele>
      </trkpt>
      <trkpt lat="45.25234" lon="7.102175">
        <time>2023-04-27T10:44:23+00:00</time>
        <ele>3083.0</ele>
      </trkpt>
      <trkpt lat="45.25235" lon="7.102343">
        <time>2023-04-27T10:44:52+00:00</time>
        <ele>3086.0</ele>
      </trkpt>
      <trkpt lat="45.252339" lon="7.102385">
        <time>2023-04-27T10:44:56+00:00</time>
        <ele>3087.0</ele>
      </trkpt>
      <trkpt lat="45.252321" lon="7.102455">
        <time>2023-04-27T10:45:07+00:00</time>
        <ele>3088.0</ele>
      </trkpt>
      <trkpt lat="45.252296" lon="7.102531">
        <time>2023-04-27T10:45:18+00:00</time>
        <ele>3089.0</ele>
      </trkpt>
      <trkpt lat="45.252283" lon="7.102562">
        <time>2023-04-27T10:45:23+00:00</time>
        <ele>3090.0</ele>
      </trkpt>
      <trkpt lat="45.252262" lon="7.102642">
        <time>2023-04-27T10:45:36+00:00</time>
        <ele>3091.0</ele>
      </trkpt>
      <trkpt lat="45.25224" lon="7.102659">
        <time>2023-04-27T10:45:41+00:00</time>
        <ele>3091.0</ele>
      </trkpt>
      <trkpt lat="45.25221" lon="7.102717">
        <time>2023-04-27T10:45:49+00:00</time>
        <ele>3091.0</ele>
      </trkpt>
      <trkpt lat="45.252192" lon="7.102744">
        <time>2023-04-27T10:45:53+00:00</time>
        <ele>3091.0</ele>
      </trkpt>
      <trkpt lat="45.252208" lon="7.102771">
        <time>2023-04-27T10:46:39+00:00</time>
        <ele>3092.0</ele>
      </trkpt>
      <trkpt lat="45.252289" lon="7.102808">
        <time>2023-04-27T10:46:54+00:00</time>
        <ele>3096.0</ele>
      </trkpt>
      <trkpt lat="45.252314" lon="7.102818">
        <time>2023-04-27T10:46:58+00:00</time>
        <ele>3097.0</ele>
      </trkpt>
      <trkpt lat="45.252342" lon="7.102826">
        <time>2023-04-27T10:47:02+00:00</time>
        <ele>3098.0</ele>
      </trkpt>
      <trkpt lat="45.252366" lon="7.102825">
        <time>2023-04-27T10:47:06+00:00</time>
        <ele>3098.0</ele>
      </trkpt>
      <trkpt lat="45.252394" lon="7.102836">
        <time>2023-04-27T10:47:19+00:00</time>
        <ele>3099.0</ele>
      </trkpt>
      <trkpt lat="45.252378" lon="7.102855">
        <time>2023-04-27T10:47:47+00:00</time>
        <ele>3099.0</ele>
      </trkpt>
      <trkpt lat="45.25236" lon="7.102892">
        <time>2023-04-27T10:48:23+00:00</time>
        <ele>3100.0</ele>
      </trkpt>
      <trkpt lat="45.252338" lon="7.10293">
        <time>2023-04-27T10:48:29+00:00</time>
        <ele>3100.0</ele>
      </trkpt>
      <trkpt lat="45.252321" lon="7.102952">
        <time>2023-04-27T10:48:34+00:00</time>
        <ele>3101.0</ele>
      </trkpt>
      <trkpt lat="45.2523" lon="7.102972">
        <time>2023-04-27T10:48:37+00:00</time>
        <ele>3100.0</ele>
      </trkpt>
      <trkpt lat="45.252265" lon="7.103055">
        <time>2023-04-27T10:48:47+00:00</time>
        <ele>3101.0</ele>
      </trkpt>
      <trkpt lat="45.252207" lon="7.103142">
        <time>2023-04-27T10:49:05+00:00</time>
        <ele>3100.0</ele>
      </trkpt>
      <trkpt lat="45.252214" lon="7.103154">
        <time>2023-04-27T10:49:45+00:00</time>
        <ele>3100.0</ele>
      </trkpt>
      <trkpt lat="45.252304" lon="7.103181">
        <time>2023-04-27T10:50:04+00:00</time>
        <ele>3105.0</ele>
      </trkpt>
      <trkpt lat="45.252332" lon="7.103188">
        <time>2023-04-27T10:50:09+00:00</time>
        <ele>3106.0</ele>
      </trkpt>
      <trkpt lat="45.252359" lon="7.10318">
        <time>2023-04-27T10:50:14+00:00</time>
        <ele>3107.0</ele>
      </trkpt>
      <trkpt lat="45.252393" lon="7.103197">
        <time>2023-04-27T10:50:21+00:00</time>
        <ele>3108.0</ele>
      </trkpt>
      <trkpt lat="45.252395" lon="7.103233">
        <time>2023-04-27T10:50:54+00:00</time>
        <ele>3109.0</ele>
      </trkpt>
      <trkpt lat="45.252366" lon="7.103322">
        <time>2023-04-27T10:51:09+00:00</time>
        <ele>3110.0</ele>
      </trkpt>
      <trkpt lat="45.252359" lon="7.103365">
        <time>2023-04-27T10:51:16+00:00</time>
        <ele>3111.0</ele>
      </trkpt>
      <trkpt lat="45.252334" lon="7.103409">
        <time>2023-04-27T10:51:23+00:00</time>
        <ele>3111.0</ele>
      </trkpt>
      <trkpt lat="45.252327" lon="7.103445">
        <time>2023-04-27T10:51:27+00:00</time>
        <ele>3111.0</ele>
      </trkpt>
      <trkpt lat="45.252332" lon="7.103492">
        <time>2023-04-27T10:51:31+00:00</time>
        <ele>3113.0</ele>
      </trkpt>
      <trkpt lat="45.252315" lon="7.10359">
        <time>2023-04-27T10:51:49+00:00</time>
        <ele>3114.0</ele>
      </trkpt>
      <trkpt lat="45.252308" lon="7.103629">
        <time>2023-04-27T10:51:52+00:00</time>
        <ele>3115.0</ele>
      </trkpt>
      <trkpt lat="45.252286" lon="7.103756">
        <time>2023-04-27T10:52:07+00:00</time>
        <ele>3116.0</ele>
      </trkpt>
      <trkpt lat="45.252288" lon="7.103784">
        <time>2023-04-27T10:53:07+00:00</time>
        <ele>3117.0</ele>
      </trkpt>
      <trkpt lat="45.252273" lon="7.103821">
        <time>2023-04-27T10:53:28+00:00</time>
        <ele>3117.0</ele>
      </trkpt>
      <trkpt lat="45.252186" lon="7.103923">
        <time>2023-04-27T10:53:48+00:00</time>
        <ele>3115.0</ele>
      </trkpt>
      <trkpt lat="45.252158" lon="7.10393">
        <time>2023-04-27T10:53:58+00:00</time>
        <ele>3113.0</ele>
      </trkpt>
      <trkpt lat="45.25218" lon="7.103957">
        <time>2023-04-27T10:54:41+00:00</time>
        <ele>3115.0</ele>
      </trkpt>
      <trkpt lat="45.252212" lon="7.103983">
        <time>2023-04-27T10:54:46+00:00</time>
        <ele>3117.0</ele>
      </trkpt>
      <trkpt lat="45.252232" lon="7.104012">
        <time>2023-04-27T10:54:52+00:00</time>
        <ele>3119.0</ele>
      </trkpt>
      <trkpt lat="45.252258" lon="7.104034">
        <time>2023-04-27T10:54:59+00:00</time>
        <ele>3121.0</ele>
      </trkpt>
      <trkpt lat="45.252271" lon="7.104064">
        <time>2023-04-27T10:55:04+00:00</time>
        <ele>3123.0</ele>
      </trkpt>
      <trkpt lat="45.252297" lon="7.104085">
        <time>2023-04-27T10:55:10+00:00</time>
        <ele>3125.0</ele>
      </trkpt>
      <trkpt lat="45.252323" lon="7.104094">
        <time>2023-04-27T10:55:16+00:00</time>
        <ele>3126.0</ele>
      </trkpt>
      <trkpt lat="45.252386" lon="7.104104">
        <time>2023-04-27T10:55:28+00:00</time>
        <ele>3127.0</ele>
      </trkpt>
      <trkpt lat="45.252402" lon="7.10413">
        <time>2023-04-27T10:55:51+00:00</time>
        <ele>3128.0</ele>
      </trkpt>
      <trkpt lat="45.252386" lon="7.104171">
        <time>2023-04-27T10:57:14+00:00</time>
        <ele>3129.0</ele>
      </trkpt>
      <trkpt lat="45.252347" lon="7.104242">
        <time>2023-04-27T10:57:23+00:00</time>
        <ele>3131.0</ele>
      </trkpt>
      <trkpt lat="45.25233" lon="7.104263">
        <time>2023-04-27T10:57:29+00:00</time>
        <ele>3131.0</ele>
      </trkpt>
      <trkpt lat="45.252304" lon="7.104284">
        <time>2023-04-27T10:57:39+00:00</time>
        <ele>3130.0</ele>
      </trkpt>
      <trkpt lat="45.25228" lon="7.1043">
        <time>2023-04-27T10:57:43+00:00</time>
        <ele>3129.0</ele>
      </trkpt>
      <trkpt lat="45.252268" lon="7.104328">
        <time>2023-04-27T10:57:49+00:00</time>
        <ele>3129.0</ele>
      </trkpt>
      <trkpt lat="45.252197" lon="7.104462">
        <time>2023-04-27T10:58:09+00:00</time>
        <ele>3129.0</ele>
      </trkpt>
      <trkpt lat="45.252188" lon="7.104486">
        <time>2023-04-27T10:58:44+00:00</time>
        <ele>3129.0</ele>
      </trkpt>
      <trkpt lat="45.252248" lon="7.104485">
        <time>2023-04-27T10:59:04+00:00</time>
        <ele>3132.0</ele>
      </trkpt>
      <trkpt lat="45.25228" lon="7.104503">
        <time>2023-04-27T10:59:09+00:00</time>
        <ele>3134.0</ele>
      </trkpt>
      <trkpt lat="45.252303" lon="7.104513">
        <time>2023-04-27T10:59:12+00:00</time>
        <ele>3136.0</ele>
      </trkpt>
      <trkpt lat="45.252326" lon="7.104512">
        <time>2023-04-27T10:59:16+00:00</time>
        <ele>3137.0</ele>
      </trkpt>
      <trkpt lat="45.252324" lon="7.104558">
        <time>2023-04-27T11:00:26+00:00</time>
        <ele>3138.0</ele>
      </trkpt>
      <trkpt lat="45.252311" lon="7.104592">
        <time>2023-04-27T11:00:32+00:00</time>
        <ele>3138.0</ele>
      </trkpt>
      <trkpt lat="45.252304" lon="7.104642">
        <time>2023-04-27T11:00:42+00:00</time>
        <ele>3139.0</ele>
      </trkpt>
      <trkpt lat="45.252294" lon="7.104687">
        <time>2023-04-27T11:00:49+00:00</time>
        <ele>3139.0</ele>
      </trkpt>
      <trkpt lat="45.252285" lon="7.104727">
        <time>2023-04-27T11:00:53+00:00</time>
        <ele>3140.0</ele>
      </trkpt>
      <trkpt lat="45.252247" lon="7.104799">
        <time>2023-04-27T11:01:08+00:00</time>
        <ele>3139.0</ele>
      </trkpt>
      <trkpt lat="45.252222" lon="7.104882">
        <time>2023-04-27T11:01:20+00:00</time>
        <ele>3139.0</ele>
      </trkpt>
      <trkpt lat="45.252225" lon="7.104903">
        <time>2023-04-27T11:02:23+00:00</time>
        <ele>3140.0</ele>
      </trkpt>
      <trkpt lat="45.252255" lon="7.104892">
        <time>2023-04-27T11:02:26+00:00</time>
        <ele>3142.0</ele>
      </trkpt>
      <trkpt lat="45.252293" lon="7.104896">
        <time>2023-04-27T11:02:31+00:00</time>
        <ele>3144.0</ele>
      </trkpt>
      <trkpt lat="45.252345" lon="7.104903">
        <time>2023-04-27T11:02:38+00:00</time>
        <ele>3147.0</ele>
      </trkpt>
      <trkpt lat="45.252372" lon="7.104909">
        <time>2023-04-27T11:02:42+00:00</time>
        <ele>3148.0</ele>
      </trkpt>
      <trkpt lat="45.252395" lon="7.104908">
        <time>2023-04-27T11:02:46+00:00</time>
        <ele>3148.0</ele>
      </trkpt>
      <trkpt lat="45.252419" lon="7.104904">
        <time>2023-04-27T11:02:49+00:00</time>
        <ele>3148.0</ele>
      </trkpt>
      <trkpt lat="45.252401" lon="7.104938">
        <time>2023-04-27T11:03:11+00:00</time>
        <ele>3149.0</ele>
      </trkpt>
      <trkpt lat="45.252389" lon="7.104983">
        <time>2023-04-27T11:03:16+00:00</time>
        <ele>3150.0</ele>
      </trkpt>
      <trkpt lat="45.252357" lon="7.105058">
        <time>2023-04-27T11:03:29+00:00</time>
        <ele>3151.0</ele>
      </trkpt>
      <trkpt lat="45.252336" lon="7.105212">
        <time>2023-04-27T11:03:52+00:00</time>
        <ele>3155.0</ele>
      </trkpt>
      <trkpt lat="45.252314" lon="7.105225">
        <time>2023-04-27T11:04:21+00:00</time>
        <ele>3154.0</ele>
      </trkpt>
      <trkpt lat="45.252281" lon="7.10529">
        <time>2023-04-27T11:04:31+00:00</time>
        <ele>3154.0</ele>
      </trkpt>
      <trkpt lat="45.252236" lon="7.105361">
        <time>2023-04-27T11:04:42+00:00</time>
        <ele>3153.0</ele>
      </trkpt>
      <trkpt lat="45.252234" lon="7.105402">
        <time>2023-04-27T11:04:48+00:00</time>
        <ele>3154.0</ele>
      </trkpt>
      <trkpt lat="45.252217" lon="7.105486">
        <time>2023-04-27T11:04:57+00:00</time>
        <ele>3155.0</ele>
      </trkpt>
      <trkpt lat="45.252229" lon="7.105535">
        <time>2023-04-27T11:05:06+00:00</time>
        <ele>3157.0</ele>
      </trkpt>
      <trkpt lat="45.252226" lon="7.105619">
        <time>2023-04-27T11:05:38+00:00</time>
        <ele>3159.0</ele>
      </trkpt>
      <trkpt lat="45.252225" lon="7.105663">
        <time>2023-04-27T11:05:44+00:00</time>
        <ele>3160.0</ele>
      </trkpt>
      <trkpt lat="45.252214" lon="7.105703">
        <time>2023-04-27T11:05:51+00:00</time>
        <ele>3160.0</ele>
      </trkpt>
      <trkpt lat="45.252216" lon="7.105742">
        <time>2023-04-27T11:05:57+00:00</time>
        <ele>3161.0</ele>
      </trkpt>
      <trkpt lat="45.252217" lon="7.105785">
        <time>2023-04-27T11:06:05+00:00</time>
        <ele>3162.0</ele>
      </trkpt>
      <trkpt lat="45.252213" lon="7.105826">
        <time>2023-04-27T11:06:11+00:00</time>
        <ele>3163.0</ele>
      </trkpt>
      <trkpt lat="45.252205" lon="7.105869">
        <time>2023-04-27T11:06:15+00:00</time>
        <ele>3163.0</ele>
      </trkpt>
      <trkpt lat="45.25222" lon="7.105887">
        <time>2023-04-27T11:07:14+00:00</time>
        <ele>3165.0</ele>
      </trkpt>
      <trkpt lat="45.252321" lon="7.105867">
        <time>2023-04-27T11:07:32+00:00</time>
        <ele>3170.0</ele>
      </trkpt>
      <trkpt lat="45.252351" lon="7.105866">
        <time>2023-04-27T11:07:37+00:00</time>
        <ele>3171.0</ele>
      </trkpt>
      <trkpt lat="45.252381" lon="7.10587">
        <time>2023-04-27T11:08:17+00:00</time>
        <ele>3172.0</ele>
      </trkpt>
      <trkpt lat="45.252377" lon="7.105918">
        <time>2023-04-27T11:08:27+00:00</time>
        <ele>3174.0</ele>
      </trkpt>
      <trkpt lat="45.252376" lon="7.105957">
        <time>2023-04-27T11:08:32+00:00</time>
        <ele>3175.0</ele>
      </trkpt>
      <trkpt lat="45.252378" lon="7.106019">
        <time>2023-04-27T11:08:42+00:00</time>
        <ele>3176.0</ele>
      </trkpt>
      <trkpt lat="45.252363" lon="7.106045">
        <time>2023-04-27T11:08:45+00:00</time>
        <ele>3177.0</ele>
      </trkpt>
      <trkpt lat="45.252357" lon="7.106083">
        <time>2023-04-27T11:08:52+00:00</time>
        <ele>3177.0</ele>
      </trkpt>
      <trkpt lat="45.252381" lon="7.106084">
        <time>2023-04-27T11:09:37+00:00</time>
        <ele>3178.0</ele>
      </trkpt>
      <trkpt lat="45.252404" lon="7.106091">
        <time>2023-04-27T11:09:40+00:00</time>
        <ele>3179.0</ele>
      </trkpt>
      <trkpt lat="45.252427" lon="7.106083">
        <time>2023-04-27T11:09:43+00:00</time>
        <ele>3180.0</ele>
      </trkpt>
      <trkpt lat="45.252456" lon="7.106075">
        <time>2023-04-27T11:09:48+00:00</time>
        <ele>3181.0</ele>
      </trkpt>
      <trkpt lat="45.25251" lon="7.106046">
        <time>2023-04-27T11:09:58+00:00</time>
        <ele>3182.0</ele>
      </trkpt>
      <trkpt lat="45.252532" lon="7.106081">
        <time>2023-04-27T11:10:30+00:00</time>
        <ele>3185.0</ele>
      </trkpt>
      <trkpt lat="45.252531" lon="7.106129">
        <time>2023-04-27T11:10:37+00:00</time>
        <ele>3186.0</ele>
      </trkpt>
      <trkpt lat="45.252521" lon="7.106181">
        <time>2023-04-27T11:10:47+00:00</time>
        <ele>3186.0</ele>
      </trkpt>
      <trkpt lat="45.252517" lon="7.106233">
        <time>2023-04-27T11:10:54+00:00</time>
        <ele>3187.0</ele>
      </trkpt>
      <trkpt lat="45.25251" lon="7.106286">
        <time>2023-04-27T11:11:37+00:00</time>
        <ele>3187.0</ele>
      </trkpt>
      <trkpt lat="45.25249" lon="7.106385">
        <time>2023-04-27T11:11:47+00:00</time>
        <ele>3189.0</ele>
      </trkpt>
      <trkpt lat="45.252473" lon="7.106416">
        <time>2023-04-27T11:12:15+00:00</time>
        <ele>3190.0</ele>
      </trkpt>
      <trkpt lat="45.25248" lon="7.106466">
        <time>2023-04-27T11:12:30+00:00</time>
        <ele>3192.0</ele>
      </trkpt>
      <trkpt lat="45.252452" lon="7.106473">
        <time>2023-04-27T11:13:08+00:00</time>
        <ele>3191.0</ele>
      </trkpt>
      <trkpt lat="45.252459" lon="7.106525">
        <time>2023-04-27T11:13:15+00:00</time>
        <ele>3193.0</ele>
      </trkpt>
      <trkpt lat="45.252456" lon="7.106572">
        <time>2023-04-27T11:13:22+00:00</time>
        <ele>3194.0</ele>
      </trkpt>
      <trkpt lat="45.252442" lon="7.106611">
        <time>2023-04-27T11:13:32+00:00</time>
        <ele>3195.0</ele>
      </trkpt>
      <trkpt lat="45.252453" lon="7.10665">
        <time>2023-04-27T11:13:43+00:00</time>
        <ele>3196.0</ele>
      </trkpt>
      <trkpt lat="45.25246" lon="7.106695">
        <time>2023-04-27T11:13:48+00:00</time>
        <ele>3198.0</ele>
      </trkpt>
      <trkpt lat="45.252458" lon="7.106777">
        <time>2023-04-27T11:14:14+00:00</time>
        <ele>3200.0</ele>
      </trkpt>
      <trkpt lat="45.252458" lon="7.10682">
        <time>2023-04-27T11:14:50+00:00</time>
        <ele>3202.0</ele>
      </trkpt>
      <trkpt lat="45.252437" lon="7.106858">
        <time>2023-04-27T11:14:57+00:00</time>
        <ele>3202.0</ele>
      </trkpt>
      <trkpt lat="45.252411" lon="7.106975">
        <time>2023-04-27T11:15:47+00:00</time>
        <ele>3201.0</ele>
      </trkpt>
      <trkpt lat="45.252399" lon="7.107022">
        <time>2023-04-27T11:15:57+00:00</time>
        <ele>3201.0</ele>
      </trkpt>
      <trkpt lat="45.252381" lon="7.107043">
        <time>2023-04-27T11:16:03+00:00</time>
        <ele>3201.0</ele>
      </trkpt>
      <trkpt lat="45.252372" lon="7.107081">
        <time>2023-04-27T11:16:27+00:00</time>
        <ele>3202.0</ele>
      </trkpt>
      <trkpt lat="45.252335" lon="7.107134">
        <time>2023-04-27T11:16:45+00:00</time>
        <ele>3204.0</ele>
      </trkpt>
      <trkpt lat="45.252321" lon="7.107164">
        <time>2023-04-27T11:16:50+00:00</time>
        <ele>3205.0</ele>
      </trkpt>
      <trkpt lat="45.252335" lon="7.107169">
        <time>2023-04-27T11:20:37+00:00</time>
        <ele>3204.0</ele>
      </trkpt>
      <trkpt lat="45.252354" lon="7.107182">
        <time>2023-04-27T11:32:56+00:00</time>
        <ele>3203.0</ele>
      </trkpt>
      <trkpt lat="45.252359" lon="7.107157">
        <time>2023-04-27T11:35:45+00:00</time>
        <ele>3203.0</ele>
      </trkpt>
      <trkpt lat="45.25238" lon="7.107119">
        <time>2023-04-27T11:35:47+00:00</time>
        <ele>3202.0</ele>
      </trkpt>
      <trkpt lat="45.252408" lon="7.107001">
        <time>2023-04-27T11:36:17+00:00</time>
        <ele>3201.0</ele>
      </trkpt>
      <trkpt lat="45.252464" lon="7.106563">
        <time>2023-04-27T11:36:32+00:00</time>
        <ele>3194.0</ele>
      </trkpt>
      <trkpt lat="45.252489" lon="7.106515">
        <time>2023-04-27T11:36:34+00:00</time>
        <ele>3194.0</ele>
      </trkpt>
      <trkpt lat="45.252496" lon="7.106461">
        <time>2023-04-27T11:36:40+00:00</time>
        <ele>3192.0</ele>
      </trkpt>
      <trkpt lat="45.252521" lon="7.106399">
        <time>2023-04-27T11:36:42+00:00</time>
        <ele>3192.0</ele>
      </trkpt>
      <trkpt lat="45.252525" lon="7.106321">
        <time>2023-04-27T11:36:45+00:00</time>
        <ele>3190.0</ele>
      </trkpt>
      <trkpt lat="45.252537" lon="7.106246">
        <time>2023-04-27T11:36:47+00:00</time>
        <ele>3189.0</ele>
      </trkpt>
      <trkpt lat="45.252515" lon="7.106231">
        <time>2023-04-27T11:36:57+00:00</time>
        <ele>3187.0</ele>
      </trkpt>
      <trkpt lat="45.252468" lon="7.10622">
        <time>2023-04-27T11:37:00+00:00</time>
        <ele>3184.0</ele>
      </trkpt>
      <trkpt lat="45.252447" lon="7.106151">
        <time>2023-04-27T11:37:02+00:00</time>
        <ele>3182.0</ele>
      </trkpt>
      <trkpt lat="45.252473" lon="7.106078">
        <time>2023-04-27T11:37:05+00:00</time>
        <ele>3181.0</ele>
      </trkpt>
      <trkpt lat="45.252424" lon="7.106057">
        <time>2023-04-27T11:37:07+00:00</time>
        <ele>3179.0</ele>
      </trkpt>
      <trkpt lat="45.252386" lon="7.106102">
        <time>2023-04-27T11:37:09+00:00</time>
        <ele>3179.0</ele>
      </trkpt>
      <trkpt lat="45.25234" lon="7.106042">
        <time>2023-04-27T11:37:12+00:00</time>
        <ele>3176.0</ele>
      </trkpt>
      <trkpt lat="45.252361" lon="7.105981">
        <time>2023-04-27T11:37:13+00:00</time>
        <ele>3175.0</ele>
      </trkpt>
      <trkpt lat="45.2524" lon="7.105906">
        <time>2023-04-27T11:37:15+00:00</time>
        <ele>3174.0</ele>
      </trkpt>
      <trkpt lat="45.252418" lon="7.105854">
        <time>2023-04-27T11:37:17+00:00</time>
        <ele>3173.0</ele>
      </trkpt>
      <trkpt lat="45.252406" lon="7.10582">
        <time>2023-04-27T11:37:18+00:00</time>
        <ele>3172.0</ele>
      </trkpt>
      <trkpt lat="45.252362" lon="7.105817">
        <time>2023-04-27T11:37:20+00:00</time>
        <ele>3170.0</ele>
      </trkpt>
      <trkpt lat="45.252308" lon="7.105802">
        <time>2023-04-27T11:37:22+00:00</time>
        <ele>3168.0</ele>
      </trkpt>
      <trkpt lat="45.252309" lon="7.105761">
        <time>2023-04-27T11:37:23+00:00</time>
        <ele>3167.0</ele>
      </trkpt>
      <trkpt lat="45.252431" lon="7.105549">
        <time>2023-04-27T11:37:28+00:00</time>
        <ele>3165.0</ele>
      </trkpt>
      <trkpt lat="45.252502" lon="7.105455">
        <time>2023-04-27T11:37:32+00:00</time>
        <ele>3165.0</ele>
      </trkpt>
      <trkpt lat="45.25249" lon="7.105425">
        <time>2023-04-27T11:37:52+00:00</time>
        <ele>3164.0</ele>
      </trkpt>
      <trkpt lat="45.252461" lon="7.105422">
        <time>2023-04-27T11:37:53+00:00</time>
        <ele>3163.0</ele>
      </trkpt>
      <trkpt lat="45.252417" lon="7.105453">
        <time>2023-04-27T11:37:55+00:00</time>
        <ele>3163.0</ele>
      </trkpt>
      <trkpt lat="45.252392" lon="7.105421">
        <time>2023-04-27T11:37:57+00:00</time>
        <ele>3161.0</ele>
      </trkpt>
      <trkpt lat="45.252411" lon="7.105368">
        <time>2023-04-27T11:37:58+00:00</time>
        <ele>3161.0</ele>
      </trkpt>
      <trkpt lat="45.252429" lon="7.105338">
        <time>2023-04-27T11:37:59+00:00</time>
        <ele>3160.0</ele>
      </trkpt>
      <trkpt lat="45.252394" lon="7.105259">
        <time>2023-04-27T11:38:02+00:00</time>
        <ele>3158.0</ele>
      </trkpt>
      <trkpt lat="45.252364" lon="7.105265">
        <time>2023-04-27T11:38:03+00:00</time>
        <ele>3157.0</ele>
      </trkpt>
      <trkpt lat="45.252338" lon="7.105246">
        <time>2023-04-27T11:38:04+00:00</time>
        <ele>3156.0</ele>
      </trkpt>
      <trkpt lat="45.25241" lon="7.105095">
        <time>2023-04-27T11:38:08+00:00</time>
        <ele>3153.0</ele>
      </trkpt>
      <trkpt lat="45.252409" lon="7.105058">
        <time>2023-04-27T11:38:09+00:00</time>
        <ele>3152.0</ele>
      </trkpt>
      <trkpt lat="45.252386" lon="7.105018">
        <time>2023-04-27T11:38:10+00:00</time>
        <ele>3151.0</ele>
      </trkpt>
      <trkpt lat="45.25235" lon="7.10501">
        <time>2023-04-27T11:38:11+00:00</time>
        <ele>3150.0</ele>
      </trkpt>
      <trkpt lat="45.252301" lon="7.105027">
        <time>2023-04-27T11:38:13+00:00</time>
        <ele>3148.0</ele>
      </trkpt>
      <trkpt lat="45.252275" lon="7.104972">
        <time>2023-04-27T11:38:15+00:00</time>
        <ele>3145.0</ele>
      </trkpt>
      <trkpt lat="45.252297" lon="7.104936">
        <time>2023-04-27T11:38:16+00:00</time>
        <ele>3146.0</ele>
      </trkpt>
      <trkpt lat="45.252351" lon="7.104885">
        <time>2023-04-27T11:38:18+00:00</time>
        <ele>3147.0</ele>
      </trkpt>
      <trkpt lat="45.252357" lon="7.10484">
        <time>2023-04-27T11:38:20+00:00</time>
        <ele>3145.0</ele>
      </trkpt>
      <trkpt lat="45.252305" lon="7.104812">
        <time>2023-04-27T11:38:22+00:00</time>
        <ele>3143.0</ele>
      </trkpt>
      <trkpt lat="45.252259" lon="7.104783">
        <time>2023-04-27T11:38:24+00:00</time>
        <ele>3139.0</ele>
      </trkpt>
      <trkpt lat="45.25226" lon="7.104726">
        <time>2023-04-27T11:38:25+00:00</time>
        <ele>3138.0</ele>
      </trkpt>
      <trkpt lat="45.252361" lon="7.104611">
        <time>2023-04-27T11:38:29+00:00</time>
        <ele>3140.0</ele>
      </trkpt>
      <trkpt lat="45.252423" lon="7.104528">
        <time>2023-04-27T11:38:32+00:00</time>
        <ele>3139.0</ele>
      </trkpt>
      <trkpt lat="45.252494" lon="7.104446">
        <time>2023-04-27T11:38:35+00:00</time>
        <ele>3139.0</ele>
      </trkpt>
      <trkpt lat="45.252499" lon="7.104386">
        <time>2023-04-27T11:38:37+00:00</time>
        <ele>3137.0</ele>
      </trkpt>
      <trkpt lat="45.252448" lon="7.104349">
        <time>2023-04-27T11:38:42+00:00</time>
        <ele>3135.0</ele>
      </trkpt>
      <trkpt lat="45.252452" lon="7.104299">
        <time>2023-04-27T11:38:43+00:00</time>
        <ele>3134.0</ele>
      </trkpt>
      <trkpt lat="45.252459" lon="7.104257">
        <time>2023-04-27T11:38:44+00:00</time>
        <ele>3132.0</ele>
      </trkpt>
      <trkpt lat="45.252449" lon="7.104212">
        <time>2023-04-27T11:38:45+00:00</time>
        <ele>3131.0</ele>
      </trkpt>
      <trkpt lat="45.252332" lon="7.104202">
        <time>2023-04-27T11:38:48+00:00</time>
        <ele>3129.0</ele>
      </trkpt>
      <trkpt lat="45.252311" lon="7.104154">
        <time>2023-04-27T11:38:49+00:00</time>
        <ele>3127.0</ele>
      </trkpt>
      <trkpt lat="45.252329" lon="7.104078">
        <time>2023-04-27T11:38:50+00:00</time>
        <ele>3126.0</ele>
      </trkpt>
      <trkpt lat="45.252402" lon="7.104009">
        <time>2023-04-27T11:38:52+00:00</time>
        <ele>3125.0</ele>
      </trkpt>
      <trkpt lat="45.252425" lon="7.103992">
        <time>2023-04-27T11:38:53+00:00</time>
        <ele>3124.0</ele>
      </trkpt>
      <trkpt lat="45.252429" lon="7.103965">
        <time>2023-04-27T11:39:09+00:00</time>
        <ele>3124.0</ele>
      </trkpt>
      <trkpt lat="45.252401" lon="7.103938">
        <time>2023-04-27T11:39:10+00:00</time>
        <ele>3123.0</ele>
      </trkpt>
      <trkpt lat="45.252224" lon="7.103991">
        <time>2023-04-27T11:39:15+00:00</time>
        <ele>3118.0</ele>
      </trkpt>
      <trkpt lat="45.252186" lon="7.103931">
        <time>2023-04-27T11:39:17+00:00</time>
        <ele>3115.0</ele>
      </trkpt>
      <trkpt lat="45.252199" lon="7.103874">
        <time>2023-04-27T11:39:18+00:00</time>
        <ele>3114.0</ele>
      </trkpt>
      <trkpt lat="45.252228" lon="7.103832">
        <time>2023-04-27T11:39:19+00:00</time>
        <ele>3115.0</ele>
      </trkpt>
      <trkpt lat="45.252276" lon="7.103785">
        <time>2023-04-27T11:39:22+00:00</time>
        <ele>3116.0</ele>
      </trkpt>
      <trkpt lat="45.25236" lon="7.103501">
        <time>2023-04-27T11:39:27+00:00</time>
        <ele>3113.0</ele>
      </trkpt>
      <trkpt lat="45.252422" lon="7.10341">
        <time>2023-04-27T11:39:30+00:00</time>
        <ele>3113.0</ele>
      </trkpt>
      <trkpt lat="45.252435" lon="7.103349">
        <time>2023-04-27T11:39:32+00:00</time>
        <ele>3113.0</ele>
      </trkpt>
      <trkpt lat="45.252417" lon="7.103312">
        <time>2023-04-27T11:39:33+00:00</time>
        <ele>3111.0</ele>
      </trkpt>
      <trkpt lat="45.252374" lon="7.103309">
        <time>2023-04-27T11:39:34+00:00</time>
        <ele>3110.0</ele>
      </trkpt>
      <trkpt lat="45.252329" lon="7.103337">
        <time>2023-04-27T11:39:35+00:00</time>
        <ele>3109.0</ele>
      </trkpt>
      <trkpt lat="45.252267" lon="7.103304">
        <time>2023-04-27T11:39:37+00:00</time>
        <ele>3106.0</ele>
      </trkpt>
      <trkpt lat="45.252279" lon="7.103242">
        <time>2023-04-27T11:39:38+00:00</time>
        <ele>3105.0</ele>
      </trkpt>
      <trkpt lat="45.252336" lon="7.103175">
        <time>2023-04-27T11:39:40+00:00</time>
        <ele>3106.0</ele>
      </trkpt>
      <trkpt lat="45.252327" lon="7.103085">
        <time>2023-04-27T11:39:42+00:00</time>
        <ele>3104.0</ele>
      </trkpt>
      <trkpt lat="45.25228" lon="7.103066">
        <time>2023-04-27T11:39:43+00:00</time>
        <ele>3102.0</ele>
      </trkpt>
      <trkpt lat="45.252242" lon="7.103073">
        <time>2023-04-27T11:39:44+00:00</time>
        <ele>3100.0</ele>
      </trkpt>
      <trkpt lat="45.252211" lon="7.103056">
        <time>2023-04-27T11:39:45+00:00</time>
        <ele>3098.0</ele>
      </trkpt>
      <trkpt lat="45.252324" lon="7.102896">
        <time>2023-04-27T11:39:49+00:00</time>
        <ele>3099.0</ele>
      </trkpt>
      <trkpt lat="45.252357" lon="7.102873">
        <time>2023-04-27T11:39:50+00:00</time>
        <ele>3099.0</ele>
      </trkpt>
      <trkpt lat="45.252385" lon="7.102807">
        <time>2023-04-27T11:39:52+00:00</time>
        <ele>3098.0</ele>
      </trkpt>
      <trkpt lat="45.252363" lon="7.102757">
        <time>2023-04-27T11:39:53+00:00</time>
        <ele>3096.0</ele>
      </trkpt>
      <trkpt lat="45.252303" lon="7.102737">
        <time>2023-04-27T11:39:54+00:00</time>
        <ele>3094.0</ele>
      </trkpt>
      <trkpt lat="45.252253" lon="7.102738">
        <time>2023-04-27T11:39:55+00:00</time>
        <ele>3093.0</ele>
      </trkpt>
      <trkpt lat="45.252212" lon="7.102761">
        <time>2023-04-27T11:39:57+00:00</time>
        <ele>3092.0</ele>
      </trkpt>
      <trkpt lat="45.252198" lon="7.102709">
        <time>2023-04-27T11:40:20+00:00</time>
        <ele>3090.0</ele>
      </trkpt>
      <trkpt lat="45.252209" lon="7.102658">
        <time>2023-04-27T11:40:21+00:00</time>
        <ele>3090.0</ele>
      </trkpt>
      <trkpt lat="45.252262" lon="7.102619">
        <time>2023-04-27T11:40:23+00:00</time>
        <ele>3090.0</ele>
      </trkpt>
      <trkpt lat="45.252254" lon="7.102562">
        <time>2023-04-27T11:40:25+00:00</time>
        <ele>3089.0</ele>
      </trkpt>
      <trkpt lat="45.252194" lon="7.102542">
        <time>2023-04-27T11:40:27+00:00</time>
        <ele>3087.0</ele>
      </trkpt>
      <trkpt lat="45.252163" lon="7.102525">
        <time>2023-04-27T11:40:28+00:00</time>
        <ele>3086.0</ele>
      </trkpt>
      <trkpt lat="45.252152" lon="7.102488">
        <time>2023-04-27T11:40:29+00:00</time>
        <ele>3085.0</ele>
      </trkpt>
      <trkpt lat="45.252159" lon="7.102432">
        <time>2023-04-27T11:40:30+00:00</time>
        <ele>3084.0</ele>
      </trkpt>
      <trkpt lat="45.252286" lon="7.102184">
        <time>2023-04-27T11:40:34+00:00</time>
        <ele>3082.0</ele>
      </trkpt>
      <trkpt lat="45.252345" lon="7.101977">
        <time>2023-04-27T11:40:37+00:00</time>
        <ele>3080.0</ele>
      </trkpt>
      <trkpt lat="45.252368" lon="7.10185">
        <time>2023-04-27T11:40:40+00:00</time>
        <ele>3079.0</ele>
      </trkpt>
      <trkpt lat="45.252338" lon="7.101806">
        <time>2023-04-27T11:40:42+00:00</time>
        <ele>3077.0</ele>
      </trkpt>
      <trkpt lat="45.25229" lon="7.101825">
        <time>2023-04-27T11:40:43+00:00</time>
        <ele>3076.0</ele>
      </trkpt>
      <trkpt lat="45.252221" lon="7.101882">
        <time>2023-04-27T11:40:45+00:00</time>
        <ele>3075.0</ele>
      </trkpt>
      <trkpt lat="45.252165" lon="7.101863">
        <time>2023-04-27T11:40:47+00:00</time>
        <ele>3073.0</ele>
      </trkpt>
      <trkpt lat="45.252162" lon="7.101788">
        <time>2023-04-27T11:40:48+00:00</time>
        <ele>3072.0</ele>
      </trkpt>
      <trkpt lat="45.252383" lon="7.100865">
        <time>2023-04-27T11:41:03+00:00</time>
        <ele>3065.0</ele>
      </trkpt>
      <trkpt lat="45.252381" lon="7.100707">
        <time>2023-04-27T11:41:13+00:00</time>
        <ele>3063.0</ele>
      </trkpt>
      <trkpt lat="45.2524" lon="7.100539">
        <time>2023-04-27T11:41:16+00:00</time>
        <ele>3061.0</ele>
      </trkpt>
      <trkpt lat="45.252388" lon="7.10049">
        <time>2023-04-27T11:41:18+00:00</time>
        <ele>3060.0</ele>
      </trkpt>
      <trkpt lat="45.252335" lon="7.100491">
        <time>2023-04-27T11:41:20+00:00</time>
        <ele>3057.0</ele>
      </trkpt>
      <trkpt lat="45.252276" lon="7.100598">
        <time>2023-04-27T11:41:23+00:00</time>
        <ele>3056.0</ele>
      </trkpt>
      <trkpt lat="45.252236" lon="7.100503">
        <time>2023-04-27T11:41:25+00:00</time>
        <ele>3053.0</ele>
      </trkpt>
      <trkpt lat="45.252294" lon="7.100198">
        <time>2023-04-27T11:41:31+00:00</time>
        <ele>3050.0</ele>
      </trkpt>
      <trkpt lat="45.252301" lon="7.100134">
        <time>2023-04-27T11:41:33+00:00</time>
        <ele>3049.0</ele>
      </trkpt>
      <trkpt lat="45.252253" lon="7.10013">
        <time>2023-04-27T11:41:35+00:00</time>
        <ele>3046.0</ele>
      </trkpt>
      <trkpt lat="45.252202" lon="7.100202">
        <time>2023-04-27T11:41:38+00:00</time>
        <ele>3045.0</ele>
      </trkpt>
      <trkpt lat="45.252189" lon="7.100146">
        <time>2023-04-27T11:41:39+00:00</time>
        <ele>3043.0</ele>
      </trkpt>
      <trkpt lat="45.252203" lon="7.100028">
        <time>2023-04-27T11:41:41+00:00</time>
        <ele>3043.0</ele>
      </trkpt>
      <trkpt lat="45.252216" lon="7.099961">
        <time>2023-04-27T11:41:43+00:00</time>
        <ele>3042.0</ele>
      </trkpt>
      <trkpt lat="45.252206" lon="7.09993">
        <time>2023-04-27T11:41:44+00:00</time>
        <ele>3041.0</ele>
      </trkpt>
      <trkpt lat="45.252126" lon="7.099973">
        <time>2023-04-27T11:41:47+00:00</time>
        <ele>3038.0</ele>
      </trkpt>
      <trkpt lat="45.252104" lon="7.099873">
        <time>2023-04-27T11:41:49+00:00</time>
        <ele>3036.0</ele>
      </trkpt>
      <trkpt lat="45.252238" lon="7.099123">
        <time>2023-04-27T11:42:18+00:00</time>
        <ele>3032.0</ele>
      </trkpt>
      <trkpt lat="45.252382" lon="7.097836">
        <time>2023-04-27T11:42:40+00:00</time>
        <ele>3022.0</ele>
      </trkpt>
      <trkpt lat="45.252415" lon="7.097711">
        <time>2023-04-27T11:42:43+00:00</time>
        <ele>3022.0</ele>
      </trkpt>
      <trkpt lat="45.252324" lon="7.0977">
        <time>2023-04-27T11:42:46+00:00</time>
        <ele>3020.0</ele>
      </trkpt>
      <trkpt lat="45.252316" lon="7.097659">
        <time>2023-04-27T11:42:47+00:00</time>
        <ele>3019.0</ele>
      </trkpt>
      <trkpt lat="45.252323" lon="7.097468">
        <time>2023-04-27T11:42:51+00:00</time>
        <ele>3018.0</ele>
      </trkpt>
      <trkpt lat="45.252352" lon="7.097342">
        <time>2023-04-27T11:42:54+00:00</time>
        <ele>3017.0</ele>
      </trkpt>
      <trkpt lat="45.252362" lon="7.097315">
        <time>2023-04-27T11:42:55+00:00</time>
        <ele>3017.0</ele>
      </trkpt>
      <trkpt lat="45.252334" lon="7.097324">
        <time>2023-04-27T11:43:05+00:00</time>
        <ele>3017.0</ele>
      </trkpt>
      <trkpt lat="45.252225" lon="7.097454">
        <time>2023-04-27T11:43:13+00:00</time>
        <ele>3016.0</ele>
      </trkpt>
      <trkpt lat="45.252095" lon="7.097685">
        <time>2023-04-27T11:43:21+00:00</time>
        <ele>3014.0</ele>
      </trkpt>
      <trkpt lat="45.252065" lon="7.097828">
        <time>2023-04-27T11:43:25+00:00</time>
        <ele>3012.0</ele>
      </trkpt>
      <trkpt lat="45.252064" lon="7.097882">
        <time>2023-04-27T11:43:27+00:00</time>
        <ele>3011.0</ele>
      </trkpt>
      <trkpt lat="45.252015" lon="7.097957">
        <time>2023-04-27T11:43:43+00:00</time>
        <ele>3009.0</ele>
      </trkpt>
      <trkpt lat="45.251975" lon="7.097941">
        <time>2023-04-27T11:43:44+00:00</time>
        <ele>3008.0</ele>
      </trkpt>
      <trkpt lat="45.251953" lon="7.097908">
        <time>2023-04-27T11:43:45+00:00</time>
        <ele>3008.0</ele>
      </trkpt>
      <trkpt lat="45.251942" lon="7.097874">
        <time>2023-04-27T11:43:46+00:00</time>
        <ele>3008.0</ele>
      </trkpt>
      <trkpt lat="45.251903" lon="7.097864">
        <time>2023-04-27T11:43:48+00:00</time>
        <ele>3007.0</ele>
      </trkpt>
      <trkpt lat="45.251882" lon="7.097893">
        <time>2023-04-27T11:43:49+00:00</time>
        <ele>3006.0</ele>
      </trkpt>
      <trkpt lat="45.251878" lon="7.097938">
        <time>2023-04-27T11:43:50+00:00</time>
        <ele>3005.0</ele>
      </trkpt>
      <trkpt lat="45.251911" lon="7.098057">
        <time>2023-04-27T11:43:53+00:00</time>
        <ele>3005.0</ele>
      </trkpt>
      <trkpt lat="45.251861" lon="7.098112">
        <time>2023-04-27T11:43:55+00:00</time>
        <ele>3003.0</ele>
      </trkpt>
      <trkpt lat="45.251812" lon="7.09809">
        <time>2023-04-27T11:43:56+00:00</time>
        <ele>3002.0</ele>
      </trkpt>
      <trkpt lat="45.251645" lon="7.09789">
        <time>2023-04-27T11:44:01+00:00</time>
        <ele>3000.0</ele>
      </trkpt>
      <trkpt lat="45.251601" lon="7.09775">
        <time>2023-04-27T11:44:04+00:00</time>
        <ele>3000.0</ele>
      </trkpt>
      <trkpt lat="45.251597" lon="7.097717">
        <time>2023-04-27T11:44:05+00:00</time>
        <ele>3001.0</ele>
      </trkpt>
      <trkpt lat="45.25155" lon="7.097705">
        <time>2023-04-27T11:44:08+00:00</time>
        <ele>2999.0</ele>
      </trkpt>
      <trkpt lat="45.251525" lon="7.097748">
        <time>2023-04-27T11:44:09+00:00</time>
        <ele>2998.0</ele>
      </trkpt>
      <trkpt lat="45.251517" lon="7.097792">
        <time>2023-04-27T11:44:10+00:00</time>
        <ele>2998.0</ele>
      </trkpt>
      <trkpt lat="45.25146" lon="7.0978">
        <time>2023-04-27T11:44:13+00:00</time>
        <ele>2997.0</ele>
      </trkpt>
      <trkpt lat="45.251431" lon="7.097691">
        <time>2023-04-27T11:44:16+00:00</time>
        <ele>2997.0</ele>
      </trkpt>
      <trkpt lat="45.25142" lon="7.097577">
        <time>2023-04-27T11:44:18+00:00</time>
        <ele>2996.0</ele>
      </trkpt>
      <trkpt lat="45.251435" lon="7.097371">
        <time>2023-04-27T11:44:22+00:00</time>
        <ele>2995.0</ele>
      </trkpt>
      <trkpt lat="45.251441" lon="7.097339">
        <time>2023-04-27T11:44:24+00:00</time>
        <ele>2995.0</ele>
      </trkpt>
      <trkpt lat="45.251418" lon="7.097336">
        <time>2023-04-27T11:44:41+00:00</time>
        <ele>2994.0</ele>
      </trkpt>
      <trkpt lat="45.251371" lon="7.097444">
        <time>2023-04-27T11:44:45+00:00</time>
        <ele>2994.0</ele>
      </trkpt>
      <trkpt lat="45.251317" lon="7.097537">
        <time>2023-04-27T11:44:48+00:00</time>
        <ele>2993.0</ele>
      </trkpt>
      <trkpt lat="45.251275" lon="7.097494">
        <time>2023-04-27T11:44:50+00:00</time>
        <ele>2992.0</ele>
      </trkpt>
      <trkpt lat="45.251272" lon="7.097437">
        <time>2023-04-27T11:44:51+00:00</time>
        <ele>2991.0</ele>
      </trkpt>
      <trkpt lat="45.251292" lon="7.097196">
        <time>2023-04-27T11:44:55+00:00</time>
        <ele>2988.0</ele>
      </trkpt>
      <trkpt lat="45.251324" lon="7.097097">
        <time>2023-04-27T11:44:58+00:00</time>
        <ele>2988.0</ele>
      </trkpt>
      <trkpt lat="45.251319" lon="7.097072">
        <time>2023-04-27T11:44:59+00:00</time>
        <ele>2987.0</ele>
      </trkpt>
      <trkpt lat="45.251268" lon="7.097049">
        <time>2023-04-27T11:45:01+00:00</time>
        <ele>2986.0</ele>
      </trkpt>
      <trkpt lat="45.251242" lon="7.096969">
        <time>2023-04-27T11:45:03+00:00</time>
        <ele>2986.0</ele>
      </trkpt>
      <trkpt lat="45.251253" lon="7.096917">
        <time>2023-04-27T11:45:04+00:00</time>
        <ele>2985.0</ele>
      </trkpt>
      <trkpt lat="45.251435" lon="7.096667">
        <time>2023-04-27T11:45:10+00:00</time>
        <ele>2984.0</ele>
      </trkpt>
      <trkpt lat="45.251484" lon="7.096607">
        <time>2023-04-27T11:45:13+00:00</time>
        <ele>2983.0</ele>
      </trkpt>
      <trkpt lat="45.251449" lon="7.096573">
        <time>2023-04-27T11:45:40+00:00</time>
        <ele>2982.0</ele>
      </trkpt>
      <trkpt lat="45.251402" lon="7.096504">
        <time>2023-04-27T11:45:43+00:00</time>
        <ele>2980.0</ele>
      </trkpt>
      <trkpt lat="45.251423" lon="7.096457">
        <time>2023-04-27T11:45:44+00:00</time>
        <ele>2979.0</ele>
      </trkpt>
      <trkpt lat="45.251486" lon="7.096406">
        <time>2023-04-27T11:45:46+00:00</time>
        <ele>2979.0</ele>
      </trkpt>
      <trkpt lat="45.25151" lon="7.096351">
        <time>2023-04-27T11:45:48+00:00</time>
        <ele>2978.0</ele>
      </trkpt>
      <trkpt lat="45.251492" lon="7.096314">
        <time>2023-04-27T11:45:49+00:00</time>
        <ele>2977.0</ele>
      </trkpt>
      <trkpt lat="45.251457" lon="7.096302">
        <time>2023-04-27T11:45:50+00:00</time>
        <ele>2977.0</ele>
      </trkpt>
      <trkpt lat="45.251433" lon="7.096274">
        <time>2023-04-27T11:45:51+00:00</time>
        <ele>2976.0</ele>
      </trkpt>
      <trkpt lat="45.251484" lon="7.096164">
        <time>2023-04-27T11:45:53+00:00</time>
        <ele>2974.0</ele>
      </trkpt>
      <trkpt lat="45.251524" lon="7.096131">
        <time>2023-04-27T11:45:54+00:00</time>
        <ele>2973.0</ele>
      </trkpt>
      <trkpt lat="45.2516" lon="7.09607">
        <time>2023-04-27T11:45:56+00:00</time>
        <ele>2972.0</ele>
      </trkpt>
      <trkpt lat="45.251664" lon="7.095973">
        <time>2023-04-27T11:45:58+00:00</time>
        <ele>2970.0</ele>
      </trkpt>
      <trkpt lat="45.251938" lon="7.095314">
        <time>2023-04-27T11:46:09+00:00</time>
        <ele>2959.0</ele>
      </trkpt>
      <trkpt lat="45.251958" lon="7.095261">
        <time>2023-04-27T11:46:11+00:00</time>
        <ele>2959.0</ele>
      </trkpt>
      <trkpt lat="45.251933" lon="7.095222">
        <time>2023-04-27T11:46:13+00:00</time>
        <ele>2957.0</ele>
      </trkpt>
      <trkpt lat="45.2519" lon="7.095215">
        <time>2023-04-27T11:46:15+00:00</time>
        <ele>2956.0</ele>
      </trkpt>
      <trkpt lat="45.251911" lon="7.095116">
        <time>2023-04-27T11:46:18+00:00</time>
        <ele>2955.0</ele>
      </trkpt>
      <trkpt lat="45.25192" lon="7.095086">
        <time>2023-04-27T11:46:19+00:00</time>
        <ele>2955.0</ele>
      </trkpt>
      <trkpt lat="45.251903" lon="7.095022">
        <time>2023-04-27T11:46:21+00:00</time>
        <ele>2954.0</ele>
      </trkpt>
      <trkpt lat="45.251814" lon="7.095058">
        <time>2023-04-27T11:46:25+00:00</time>
        <ele>2952.0</ele>
      </trkpt>
      <trkpt lat="45.251756" lon="7.095082">
        <time>2023-04-27T11:46:28+00:00</time>
        <ele>2950.0</ele>
      </trkpt>
      <trkpt lat="45.251743" lon="7.095031">
        <time>2023-04-27T11:46:31+00:00</time>
        <ele>2950.0</ele>
      </trkpt>
      <trkpt lat="45.251831" lon="7.094922">
        <time>2023-04-27T11:46:35+00:00</time>
        <ele>2950.0</ele>
      </trkpt>
      <trkpt lat="45.251794" lon="7.094877">
        <time>2023-04-27T11:46:38+00:00</time>
        <ele>2948.0</ele>
      </trkpt>
      <trkpt lat="45.251761" lon="7.094871">
        <time>2023-04-27T11:46:39+00:00</time>
        <ele>2947.0</ele>
      </trkpt>
      <trkpt lat="45.251678" lon="7.09485">
        <time>2023-04-27T11:46:43+00:00</time>
        <ele>2944.0</ele>
      </trkpt>
      <trkpt lat="45.251647" lon="7.094868">
        <time>2023-04-27T11:46:44+00:00</time>
        <ele>2944.0</ele>
      </trkpt>
      <trkpt lat="45.251626" lon="7.094894">
        <time>2023-04-27T11:46:45+00:00</time>
        <ele>2944.0</ele>
      </trkpt>
      <trkpt lat="45.251598" lon="7.094906">
        <time>2023-04-27T11:46:54+00:00</time>
        <ele>2944.0</ele>
      </trkpt>
      <trkpt lat="45.251586" lon="7.094874">
        <time>2023-04-27T11:46:55+00:00</time>
        <ele>2942.0</ele>
      </trkpt>
      <trkpt lat="45.251587" lon="7.094784">
        <time>2023-04-27T11:46:58+00:00</time>
        <ele>2940.0</ele>
      </trkpt>
      <trkpt lat="45.251669" lon="7.09464">
        <time>2023-04-27T11:47:04+00:00</time>
        <ele>2938.0</ele>
      </trkpt>
      <trkpt lat="45.251885" lon="7.094392">
        <time>2023-04-27T11:47:11+00:00</time>
        <ele>2937.0</ele>
      </trkpt>
      <trkpt lat="45.251899" lon="7.094337">
        <time>2023-04-27T11:47:13+00:00</time>
        <ele>2936.0</ele>
      </trkpt>
      <trkpt lat="45.251869" lon="7.09431">
        <time>2023-04-27T11:47:14+00:00</time>
        <ele>2934.0</ele>
      </trkpt>
      <trkpt lat="45.251835" lon="7.094304">
        <time>2023-04-27T11:47:15+00:00</time>
        <ele>2934.0</ele>
      </trkpt>
      <trkpt lat="45.251806" lon="7.094275">
        <time>2023-04-27T11:47:16+00:00</time>
        <ele>2932.0</ele>
      </trkpt>
      <trkpt lat="45.251798" lon="7.094223">
        <time>2023-04-27T11:47:17+00:00</time>
        <ele>2931.0</ele>
      </trkpt>
      <trkpt lat="45.251815" lon="7.094179">
        <time>2023-04-27T11:47:18+00:00</time>
        <ele>2930.0</ele>
      </trkpt>
      <trkpt lat="45.25181" lon="7.094136">
        <time>2023-04-27T11:47:20+00:00</time>
        <ele>2928.0</ele>
      </trkpt>
      <trkpt lat="45.251779" lon="7.094127">
        <time>2023-04-27T11:47:21+00:00</time>
        <ele>2927.0</ele>
      </trkpt>
      <trkpt lat="45.251723" lon="7.094114">
        <time>2023-04-27T11:47:23+00:00</time>
        <ele>2925.0</ele>
      </trkpt>
      <trkpt lat="45.251719" lon="7.094059">
        <time>2023-04-27T11:47:24+00:00</time>
        <ele>2923.0</ele>
      </trkpt>
      <trkpt lat="45.251738" lon="7.093998">
        <time>2023-04-27T11:47:25+00:00</time>
        <ele>2921.0</ele>
      </trkpt>
      <trkpt lat="45.251811" lon="7.093918">
        <time>2023-04-27T11:47:28+00:00</time>
        <ele>2921.0</ele>
      </trkpt>
      <trkpt lat="45.25178" lon="7.093878">
        <time>2023-04-27T11:47:30+00:00</time>
        <ele>2919.0</ele>
      </trkpt>
      <trkpt lat="45.251733" lon="7.093789">
        <time>2023-04-27T11:47:33+00:00</time>
        <ele>2916.0</ele>
      </trkpt>
      <trkpt lat="45.251946" lon="7.093411">
        <time>2023-04-27T11:47:41+00:00</time>
        <ele>2912.0</ele>
      </trkpt>
      <trkpt lat="45.251913" lon="7.093348">
        <time>2023-04-27T11:47:43+00:00</time>
        <ele>2910.0</ele>
      </trkpt>
      <trkpt lat="45.251876" lon="7.093363">
        <time>2023-04-27T11:47:44+00:00</time>
        <ele>2909.0</ele>
      </trkpt>
      <trkpt lat="45.251844" lon="7.093393">
        <time>2023-04-27T11:47:45+00:00</time>
        <ele>2909.0</ele>
      </trkpt>
      <trkpt lat="45.251817" lon="7.093252">
        <time>2023-04-27T11:47:48+00:00</time>
        <ele>2905.0</ele>
      </trkpt>
      <trkpt lat="45.251846" lon="7.093178">
        <time>2023-04-27T11:47:50+00:00</time>
        <ele>2903.0</ele>
      </trkpt>
      <trkpt lat="45.251833" lon="7.093135">
        <time>2023-04-27T11:47:51+00:00</time>
        <ele>2902.0</ele>
      </trkpt>
      <trkpt lat="45.251754" lon="7.093147">
        <time>2023-04-27T11:47:53+00:00</time>
        <ele>2900.0</ele>
      </trkpt>
      <trkpt lat="45.251694" lon="7.09321">
        <time>2023-04-27T11:47:55+00:00</time>
        <ele>2900.0</ele>
      </trkpt>
      <trkpt lat="45.251663" lon="7.093222">
        <time>2023-04-27T11:47:56+00:00</time>
        <ele>2900.0</ele>
      </trkpt>
      <trkpt lat="45.251633" lon="7.093151">
        <time>2023-04-27T11:47:58+00:00</time>
        <ele>2898.0</ele>
      </trkpt>
      <trkpt lat="45.251626" lon="7.093108">
        <time>2023-04-27T11:47:59+00:00</time>
        <ele>2897.0</ele>
      </trkpt>
      <trkpt lat="45.2516" lon="7.093084">
        <time>2023-04-27T11:48:00+00:00</time>
        <ele>2896.0</ele>
      </trkpt>
      <trkpt lat="45.251564" lon="7.093099">
        <time>2023-04-27T11:48:01+00:00</time>
        <ele>2895.0</ele>
      </trkpt>
      <trkpt lat="45.251429" lon="7.093256">
        <time>2023-04-27T11:48:05+00:00</time>
        <ele>2893.0</ele>
      </trkpt>
      <trkpt lat="45.251396" lon="7.093302">
        <time>2023-04-27T11:48:06+00:00</time>
        <ele>2893.0</ele>
      </trkpt>
      <trkpt lat="45.251365" lon="7.093378">
        <time>2023-04-27T11:48:08+00:00</time>
        <ele>2893.0</ele>
      </trkpt>
      <trkpt lat="45.251335" lon="7.093385">
        <time>2023-04-27T11:48:38+00:00</time>
        <ele>2892.0</ele>
      </trkpt>
      <trkpt lat="45.251311" lon="7.093405">
        <time>2023-04-27T11:48:39+00:00</time>
        <ele>2892.0</ele>
      </trkpt>
      <trkpt lat="45.251126" lon="7.093627">
        <time>2023-04-27T11:48:46+00:00</time>
        <ele>2891.0</ele>
      </trkpt>
      <trkpt lat="45.251096" lon="7.093652">
        <time>2023-04-27T11:49:08+00:00</time>
        <ele>2890.0</ele>
      </trkpt>
      <trkpt lat="45.25107" lon="7.093632">
        <time>2023-04-27T11:49:10+00:00</time>
        <ele>2889.0</ele>
      </trkpt>
      <trkpt lat="45.251062" lon="7.093579">
        <time>2023-04-27T11:49:11+00:00</time>
        <ele>2888.0</ele>
      </trkpt>
      <trkpt lat="45.251158" lon="7.093291">
        <time>2023-04-27T11:49:18+00:00</time>
        <ele>2884.0</ele>
      </trkpt>
      <trkpt lat="45.251124" lon="7.093247">
        <time>2023-04-27T11:49:20+00:00</time>
        <ele>2882.0</ele>
      </trkpt>
      <trkpt lat="45.251088" lon="7.093272">
        <time>2023-04-27T11:49:21+00:00</time>
        <ele>2882.0</ele>
      </trkpt>
      <trkpt lat="45.251027" lon="7.093332">
        <time>2023-04-27T11:49:23+00:00</time>
        <ele>2882.0</ele>
      </trkpt>
      <trkpt lat="45.250995" lon="7.093319">
        <time>2023-04-27T11:49:25+00:00</time>
        <ele>2880.0</ele>
      </trkpt>
      <trkpt lat="45.250997" lon="7.093251">
        <time>2023-04-27T11:49:26+00:00</time>
        <ele>2878.0</ele>
      </trkpt>
      <trkpt lat="45.251067" lon="7.093106">
        <time>2023-04-27T11:49:30+00:00</time>
        <ele>2877.0</ele>
      </trkpt>
      <trkpt lat="45.250975" lon="7.093128">
        <time>2023-04-27T11:49:33+00:00</time>
        <ele>2874.0</ele>
      </trkpt>
      <trkpt lat="45.250919" lon="7.093183">
        <time>2023-04-27T11:49:35+00:00</time>
        <ele>2874.0</ele>
      </trkpt>
      <trkpt lat="45.250891" lon="7.093186">
        <time>2023-04-27T11:49:36+00:00</time>
        <ele>2874.0</ele>
      </trkpt>
      <trkpt lat="45.250879" lon="7.093074">
        <time>2023-04-27T11:49:38+00:00</time>
        <ele>2871.0</ele>
      </trkpt>
      <trkpt lat="45.250962" lon="7.092906">
        <time>2023-04-27T11:49:41+00:00</time>
        <ele>2869.0</ele>
      </trkpt>
      <trkpt lat="45.251021" lon="7.092841">
        <time>2023-04-27T11:49:43+00:00</time>
        <ele>2869.0</ele>
      </trkpt>
      <trkpt lat="45.251031" lon="7.092815">
        <time>2023-04-27T11:49:44+00:00</time>
        <ele>2869.0</ele>
      </trkpt>
      <trkpt lat="45.250982" lon="7.092766">
        <time>2023-04-27T11:49:46+00:00</time>
        <ele>2866.0</ele>
      </trkpt>
      <trkpt lat="45.250914" lon="7.092797">
        <time>2023-04-27T11:49:48+00:00</time>
        <ele>2866.0</ele>
      </trkpt>
      <trkpt lat="45.250885" lon="7.092798">
        <time>2023-04-27T11:49:49+00:00</time>
        <ele>2866.0</ele>
      </trkpt>
      <trkpt lat="45.250877" lon="7.092749">
        <time>2023-04-27T11:49:50+00:00</time>
        <ele>2865.0</ele>
      </trkpt>
      <trkpt lat="45.250958" lon="7.092593">
        <time>2023-04-27T11:49:53+00:00</time>
        <ele>2863.0</ele>
      </trkpt>
      <trkpt lat="45.250978" lon="7.092549">
        <time>2023-04-27T11:49:54+00:00</time>
        <ele>2862.0</ele>
      </trkpt>
      <trkpt lat="45.251005" lon="7.09245">
        <time>2023-04-27T11:49:56+00:00</time>
        <ele>2861.0</ele>
      </trkpt>
      <trkpt lat="45.251032" lon="7.092394">
        <time>2023-04-27T11:49:58+00:00</time>
        <ele>2861.0</ele>
      </trkpt>
      <trkpt lat="45.251032" lon="7.092361">
        <time>2023-04-27T11:49:59+00:00</time>
        <ele>2860.0</ele>
      </trkpt>
      <trkpt lat="45.251029" lon="7.092312">
        <time>2023-04-27T11:50:00+00:00</time>
        <ele>2860.0</ele>
      </trkpt>
      <trkpt lat="45.251041" lon="7.09225">
        <time>2023-04-27T11:50:01+00:00</time>
        <ele>2859.0</ele>
      </trkpt>
      <trkpt lat="45.251113" lon="7.092133">
        <time>2023-04-27T11:50:04+00:00</time>
        <ele>2860.0</ele>
      </trkpt>
      <trkpt lat="45.251167" lon="7.092032">
        <time>2023-04-27T11:50:08+00:00</time>
        <ele>2859.0</ele>
      </trkpt>
      <trkpt lat="45.251205" lon="7.091976">
        <time>2023-04-27T11:50:23+00:00</time>
        <ele>2858.0</ele>
      </trkpt>
      <trkpt lat="45.251202" lon="7.091922">
        <time>2023-04-27T11:50:25+00:00</time>
        <ele>2856.0</ele>
      </trkpt>
      <trkpt lat="45.251174" lon="7.091878">
        <time>2023-04-27T11:50:28+00:00</time>
        <ele>2854.0</ele>
      </trkpt>
      <trkpt lat="45.25112" lon="7.091854">
        <time>2023-04-27T11:50:30+00:00</time>
        <ele>2853.0</ele>
      </trkpt>
      <trkpt lat="45.251048" lon="7.091862">
        <time>2023-04-27T11:50:33+00:00</time>
        <ele>2853.0</ele>
      </trkpt>
      <trkpt lat="45.251027" lon="7.091865">
        <time>2023-04-27T11:50:51+00:00</time>
        <ele>2853.0</ele>
      </trkpt>
      <trkpt lat="45.250959" lon="7.091835">
        <time>2023-04-27T11:51:01+00:00</time>
        <ele>2852.0</ele>
      </trkpt>
      <trkpt lat="45.250926" lon="7.091824">
        <time>2023-04-27T11:51:03+00:00</time>
        <ele>2852.0</ele>
      </trkpt>
      <trkpt lat="45.250918" lon="7.09179">
        <time>2023-04-27T11:51:04+00:00</time>
        <ele>2851.0</ele>
      </trkpt>
      <trkpt lat="45.25095" lon="7.091744">
        <time>2023-04-27T11:51:05+00:00</time>
        <ele>2849.0</ele>
      </trkpt>
      <trkpt lat="45.251133" lon="7.09163">
        <time>2023-04-27T11:51:09+00:00</time>
        <ele>2846.0</ele>
      </trkpt>
      <trkpt lat="45.251169" lon="7.091617">
        <time>2023-04-27T11:51:10+00:00</time>
        <ele>2845.0</ele>
      </trkpt>
      <trkpt lat="45.251207" lon="7.091575">
        <time>2023-04-27T11:51:13+00:00</time>
        <ele>2844.0</ele>
      </trkpt>
      <trkpt lat="45.251196" lon="7.091523">
        <time>2023-04-27T11:51:14+00:00</time>
        <ele>2842.0</ele>
      </trkpt>
      <trkpt lat="45.251173" lon="7.091493">
        <time>2023-04-27T11:51:15+00:00</time>
        <ele>2841.0</ele>
      </trkpt>
      <trkpt lat="45.251134" lon="7.091446">
        <time>2023-04-27T11:51:18+00:00</time>
        <ele>2839.0</ele>
      </trkpt>
      <trkpt lat="45.251147" lon="7.091403">
        <time>2023-04-27T11:51:19+00:00</time>
        <ele>2838.0</ele>
      </trkpt>
      <trkpt lat="45.251184" lon="7.091373">
        <time>2023-04-27T11:51:20+00:00</time>
        <ele>2836.0</ele>
      </trkpt>
      <trkpt lat="45.251217" lon="7.091364">
        <time>2023-04-27T11:51:21+00:00</time>
        <ele>2836.0</ele>
      </trkpt>
      <trkpt lat="45.251241" lon="7.09133">
        <time>2023-04-27T11:51:23+00:00</time>
        <ele>2835.0</ele>
      </trkpt>
      <trkpt lat="45.251215" lon="7.091292">
        <time>2023-04-27T11:51:24+00:00</time>
        <ele>2834.0</ele>
      </trkpt>
      <trkpt lat="45.251167" lon="7.091287">
        <time>2023-04-27T11:51:26+00:00</time>
        <ele>2833.0</ele>
      </trkpt>
      <trkpt lat="45.251147" lon="7.091247">
        <time>2023-04-27T11:51:28+00:00</time>
        <ele>2832.0</ele>
      </trkpt>
      <trkpt lat="45.251176" lon="7.091219">
        <time>2023-04-27T11:51:29+00:00</time>
        <ele>2831.0</ele>
      </trkpt>
      <trkpt lat="45.251204" lon="7.09121">
        <time>2023-04-27T11:51:30+00:00</time>
        <ele>2830.0</ele>
      </trkpt>
      <trkpt lat="45.251233" lon="7.091146">
        <time>2023-04-27T11:51:33+00:00</time>
        <ele>2828.0</ele>
      </trkpt>
      <trkpt lat="45.251212" lon="7.091104">
        <time>2023-04-27T11:51:34+00:00</time>
        <ele>2826.0</ele>
      </trkpt>
      <trkpt lat="45.251168" lon="7.091067">
        <time>2023-04-27T11:51:36+00:00</time>
        <ele>2824.0</ele>
      </trkpt>
      <trkpt lat="45.251223" lon="7.090999">
        <time>2023-04-27T11:51:38+00:00</time>
        <ele>2822.0</ele>
      </trkpt>
      <trkpt lat="45.251252" lon="7.090999">
        <time>2023-04-27T11:51:39+00:00</time>
        <ele>2822.0</ele>
      </trkpt>
      <trkpt lat="45.251268" lon="7.090952">
        <time>2023-04-27T11:51:41+00:00</time>
        <ele>2820.0</ele>
      </trkpt>
      <trkpt lat="45.251217" lon="7.090917">
        <time>2023-04-27T11:51:43+00:00</time>
        <ele>2818.0</ele>
      </trkpt>
      <trkpt lat="45.251209" lon="7.090851">
        <time>2023-04-27T11:51:45+00:00</time>
        <ele>2816.0</ele>
      </trkpt>
      <trkpt lat="45.251239" lon="7.090817">
        <time>2023-04-27T11:51:46+00:00</time>
        <ele>2815.0</ele>
      </trkpt>
      <trkpt lat="45.251271" lon="7.090781">
        <time>2023-04-27T11:51:48+00:00</time>
        <ele>2813.0</ele>
      </trkpt>
      <trkpt lat="45.25125" lon="7.090736">
        <time>2023-04-27T11:51:49+00:00</time>
        <ele>2811.0</ele>
      </trkpt>
      <trkpt lat="45.2512" lon="7.090718">
        <time>2023-04-27T11:51:51+00:00</time>
        <ele>2811.0</ele>
      </trkpt>
      <trkpt lat="45.251238" lon="7.090642">
        <time>2023-04-27T11:51:53+00:00</time>
        <ele>2808.0</ele>
      </trkpt>
      <trkpt lat="45.251266" lon="7.090596">
        <time>2023-04-27T11:51:55+00:00</time>
        <ele>2805.0</ele>
      </trkpt>
      <trkpt lat="45.251237" lon="7.090553">
        <time>2023-04-27T11:51:56+00:00</time>
        <ele>2804.0</ele>
      </trkpt>
      <trkpt lat="45.251186" lon="7.090499">
        <time>2023-04-27T11:51:58+00:00</time>
        <ele>2802.0</ele>
      </trkpt>
      <trkpt lat="45.251206" lon="7.090427">
        <time>2023-04-27T11:52:00+00:00</time>
        <ele>2799.0</ele>
      </trkpt>
      <trkpt lat="45.251197" lon="7.090352">
        <time>2023-04-27T11:52:03+00:00</time>
        <ele>2796.0</ele>
      </trkpt>
      <trkpt lat="45.251191" lon="7.09027">
        <time>2023-04-27T11:52:05+00:00</time>
        <ele>2793.0</ele>
      </trkpt>
      <trkpt lat="45.251219" lon="7.090243">
        <time>2023-04-27T11:52:06+00:00</time>
        <ele>2792.0</ele>
      </trkpt>
      <trkpt lat="45.251241" lon="7.090258">
        <time>2023-04-27T11:52:09+00:00</time>
        <ele>2792.0</ele>
      </trkpt>
      <trkpt lat="45.25124" lon="7.090211">
        <time>2023-04-27T11:52:30+00:00</time>
        <ele>2790.0</ele>
      </trkpt>
      <trkpt lat="45.251198" lon="7.090158">
        <time>2023-04-27T11:52:32+00:00</time>
        <ele>2789.0</ele>
      </trkpt>
      <trkpt lat="45.251211" lon="7.09011">
        <time>2023-04-27T11:52:34+00:00</time>
        <ele>2787.0</ele>
      </trkpt>
      <trkpt lat="45.251238" lon="7.090096">
        <time>2023-04-27T11:52:35+00:00</time>
        <ele>2786.0</ele>
      </trkpt>
      <trkpt lat="45.251244" lon="7.090004">
        <time>2023-04-27T11:52:38+00:00</time>
        <ele>2783.0</ele>
      </trkpt>
      <trkpt lat="45.251196" lon="7.089959">
        <time>2023-04-27T11:52:40+00:00</time>
        <ele>2782.0</ele>
      </trkpt>
      <trkpt lat="45.251204" lon="7.089907">
        <time>2023-04-27T11:52:41+00:00</time>
        <ele>2781.0</ele>
      </trkpt>
      <trkpt lat="45.25126" lon="7.089873">
        <time>2023-04-27T11:52:43+00:00</time>
        <ele>2779.0</ele>
      </trkpt>
      <trkpt lat="45.251258" lon="7.089799">
        <time>2023-04-27T11:52:45+00:00</time>
        <ele>2777.0</ele>
      </trkpt>
      <trkpt lat="45.251198" lon="7.089787">
        <time>2023-04-27T11:52:48+00:00</time>
        <ele>2777.0</ele>
      </trkpt>
      <trkpt lat="45.251192" lon="7.089748">
        <time>2023-04-27T11:53:08+00:00</time>
        <ele>2776.0</ele>
      </trkpt>
      <trkpt lat="45.251219" lon="7.089705">
        <time>2023-04-27T11:53:09+00:00</time>
        <ele>2775.0</ele>
      </trkpt>
      <trkpt lat="45.251281" lon="7.089673">
        <time>2023-04-27T11:53:11+00:00</time>
        <ele>2774.0</ele>
      </trkpt>
      <trkpt lat="45.251296" lon="7.08959">
        <time>2023-04-27T11:53:13+00:00</time>
        <ele>2772.0</ele>
      </trkpt>
      <trkpt lat="45.251271" lon="7.08956">
        <time>2023-04-27T11:53:14+00:00</time>
        <ele>2771.0</ele>
      </trkpt>
      <trkpt lat="45.251235" lon="7.089537">
        <time>2023-04-27T11:53:15+00:00</time>
        <ele>2770.0</ele>
      </trkpt>
      <trkpt lat="45.251215" lon="7.089497">
        <time>2023-04-27T11:53:16+00:00</time>
        <ele>2769.0</ele>
      </trkpt>
      <trkpt lat="45.251253" lon="7.089408">
        <time>2023-04-27T11:53:18+00:00</time>
        <ele>2767.0</ele>
      </trkpt>
      <trkpt lat="45.251318" lon="7.089359">
        <time>2023-04-27T11:53:20+00:00</time>
        <ele>2766.0</ele>
      </trkpt>
      <trkpt lat="45.251468" lon="7.089231">
        <time>2023-04-27T11:53:24+00:00</time>
        <ele>2764.0</ele>
      </trkpt>
      <trkpt lat="45.251532" lon="7.089181">
        <time>2023-04-27T11:53:26+00:00</time>
        <ele>2763.0</ele>
      </trkpt>
      <trkpt lat="45.251589" lon="7.089089">
        <time>2023-04-27T11:53:29+00:00</time>
        <ele>2762.0</ele>
      </trkpt>
      <trkpt lat="45.251617" lon="7.089055">
        <time>2023-04-27T11:53:30+00:00</time>
        <ele>2761.0</ele>
      </trkpt>
      <trkpt lat="45.251696" lon="7.089001">
        <time>2023-04-27T11:53:33+00:00</time>
        <ele>2761.0</ele>
      </trkpt>
      <trkpt lat="45.251721" lon="7.088992">
        <time>2023-04-27T11:53:34+00:00</time>
        <ele>2761.0</ele>
      </trkpt>
      <trkpt lat="45.25175" lon="7.088951">
        <time>2023-04-27T11:53:36+00:00</time>
        <ele>2760.0</ele>
      </trkpt>
      <trkpt lat="45.251711" lon="7.088886">
        <time>2023-04-27T11:53:38+00:00</time>
        <ele>2759.0</ele>
      </trkpt>
      <trkpt lat="45.251687" lon="7.088846">
        <time>2023-04-27T11:53:39+00:00</time>
        <ele>2758.0</ele>
      </trkpt>
      <trkpt lat="45.251721" lon="7.08875">
        <time>2023-04-27T11:53:41+00:00</time>
        <ele>2756.0</ele>
      </trkpt>
      <trkpt lat="45.251763" lon="7.088711">
        <time>2023-04-27T11:53:42+00:00</time>
        <ele>2755.0</ele>
      </trkpt>
      <trkpt lat="45.251836" lon="7.08858">
        <time>2023-04-27T11:53:44+00:00</time>
        <ele>2752.0</ele>
      </trkpt>
      <trkpt lat="45.251885" lon="7.088178">
        <time>2023-04-27T11:53:49+00:00</time>
        <ele>2746.0</ele>
      </trkpt>
      <trkpt lat="45.251888" lon="7.088147">
        <time>2023-04-27T11:53:50+00:00</time>
        <ele>2746.0</ele>
      </trkpt>
      <trkpt lat="45.251859" lon="7.088089">
        <time>2023-04-27T11:54:18+00:00</time>
        <ele>2744.0</ele>
      </trkpt>
      <trkpt lat="45.251822" lon="7.088071">
        <time>2023-04-27T11:54:20+00:00</time>
        <ele>2743.0</ele>
      </trkpt>
      <trkpt lat="45.251794" lon="7.088104">
        <time>2023-04-27T11:54:21+00:00</time>
        <ele>2742.0</ele>
      </trkpt>
      <trkpt lat="45.251779" lon="7.0882">
        <time>2023-04-27T11:54:23+00:00</time>
        <ele>2744.0</ele>
      </trkpt>
      <trkpt lat="45.251704" lon="7.088173">
        <time>2023-04-27T11:54:25+00:00</time>
        <ele>2740.0</ele>
      </trkpt>
      <trkpt lat="45.251685" lon="7.088106">
        <time>2023-04-27T11:54:26+00:00</time>
        <ele>2738.0</ele>
      </trkpt>
      <trkpt lat="45.251684" lon="7.088025">
        <time>2023-04-27T11:54:28+00:00</time>
        <ele>2736.0</ele>
      </trkpt>
      <trkpt lat="45.251663" lon="7.087996">
        <time>2023-04-27T11:54:29+00:00</time>
        <ele>2735.0</ele>
      </trkpt>
      <trkpt lat="45.251627" lon="7.087982">
        <time>2023-04-27T11:54:30+00:00</time>
        <ele>2734.0</ele>
      </trkpt>
      <trkpt lat="45.251574" lon="7.088084">
        <time>2023-04-27T11:54:33+00:00</time>
        <ele>2734.0</ele>
      </trkpt>
      <trkpt lat="45.251526" lon="7.088041">
        <time>2023-04-27T11:54:35+00:00</time>
        <ele>2731.0</ele>
      </trkpt>
      <trkpt lat="45.251519" lon="7.087984">
        <time>2023-04-27T11:54:36+00:00</time>
        <ele>2730.0</ele>
      </trkpt>
      <trkpt lat="45.25151" lon="7.087821">
        <time>2023-04-27T11:54:40+00:00</time>
        <ele>2728.0</ele>
      </trkpt>
      <trkpt lat="45.251504" lon="7.087781">
        <time>2023-04-27T11:54:41+00:00</time>
        <ele>2727.0</ele>
      </trkpt>
      <trkpt lat="45.251448" lon="7.087811">
        <time>2023-04-27T11:54:43+00:00</time>
        <ele>2725.0</ele>
      </trkpt>
      <trkpt lat="45.251427" lon="7.087864">
        <time>2023-04-27T11:54:44+00:00</time>
        <ele>2725.0</ele>
      </trkpt>
      <trkpt lat="45.251413" lon="7.087916">
        <time>2023-04-27T11:54:45+00:00</time>
        <ele>2725.0</ele>
      </trkpt>
      <trkpt lat="45.251379" lon="7.087973">
        <time>2023-04-27T11:54:47+00:00</time>
        <ele>2724.0</ele>
      </trkpt>
      <trkpt lat="45.251342" lon="7.087938">
        <time>2023-04-27T11:54:48+00:00</time>
        <ele>2723.0</ele>
      </trkpt>
      <trkpt lat="45.251321" lon="7.08787">
        <time>2023-04-27T11:54:49+00:00</time>
        <ele>2721.0</ele>
      </trkpt>
      <trkpt lat="45.251315" lon="7.087766">
        <time>2023-04-27T11:54:51+00:00</time>
        <ele>2719.0</ele>
      </trkpt>
      <trkpt lat="45.251256" lon="7.087746">
        <time>2023-04-27T11:54:53+00:00</time>
        <ele>2717.0</ele>
      </trkpt>
      <trkpt lat="45.251191" lon="7.087869">
        <time>2023-04-27T11:54:56+00:00</time>
        <ele>2716.0</ele>
      </trkpt>
      <trkpt lat="45.251135" lon="7.087764">
        <time>2023-04-27T11:54:58+00:00</time>
        <ele>2711.0</ele>
      </trkpt>
      <trkpt lat="45.25114" lon="7.087477">
        <time>2023-04-27T11:55:04+00:00</time>
        <ele>2709.0</ele>
      </trkpt>
      <trkpt lat="45.251151" lon="7.08744">
        <time>2023-04-27T11:55:06+00:00</time>
        <ele>2709.0</ele>
      </trkpt>
      <trkpt lat="45.251128" lon="7.087395">
        <time>2023-04-27T11:55:25+00:00</time>
        <ele>2707.0</ele>
      </trkpt>
      <trkpt lat="45.251052" lon="7.08745">
        <time>2023-04-27T11:55:28+00:00</time>
        <ele>2704.0</ele>
      </trkpt>
      <trkpt lat="45.251003" lon="7.087479">
        <time>2023-04-27T11:55:30+00:00</time>
        <ele>2702.0</ele>
      </trkpt>
      <trkpt lat="45.250987" lon="7.087439">
        <time>2023-04-27T11:55:31+00:00</time>
        <ele>2701.0</ele>
      </trkpt>
      <trkpt lat="45.250967" lon="7.087339">
        <time>2023-04-27T11:55:33+00:00</time>
        <ele>2699.0</ele>
      </trkpt>
      <trkpt lat="45.250978" lon="7.087288">
        <time>2023-04-27T11:55:34+00:00</time>
        <ele>2699.0</ele>
      </trkpt>
      <trkpt lat="45.251004" lon="7.087235">
        <time>2023-04-27T11:55:36+00:00</time>
        <ele>2699.0</ele>
      </trkpt>
      <trkpt lat="45.250996" lon="7.087187">
        <time>2023-04-27T11:55:39+00:00</time>
        <ele>2698.0</ele>
      </trkpt>
      <trkpt lat="45.250945" lon="7.087199">
        <time>2023-04-27T11:55:41+00:00</time>
        <ele>2697.0</ele>
      </trkpt>
      <trkpt lat="45.250899" lon="7.08722">
        <time>2023-04-27T11:55:43+00:00</time>
        <ele>2695.0</ele>
      </trkpt>
      <trkpt lat="45.250874" lon="7.087171">
        <time>2023-04-27T11:55:44+00:00</time>
        <ele>2693.0</ele>
      </trkpt>
      <trkpt lat="45.250879" lon="7.087107">
        <time>2023-04-27T11:55:45+00:00</time>
        <ele>2692.0</ele>
      </trkpt>
      <trkpt lat="45.250903" lon="7.087073">
        <time>2023-04-27T11:55:46+00:00</time>
        <ele>2692.0</ele>
      </trkpt>
      <trkpt lat="45.250964" lon="7.087029">
        <time>2023-04-27T11:55:48+00:00</time>
        <ele>2693.0</ele>
      </trkpt>
      <trkpt lat="45.25097" lon="7.08698">
        <time>2023-04-27T11:55:50+00:00</time>
        <ele>2691.0</ele>
      </trkpt>
      <trkpt lat="45.250944" lon="7.086948">
        <time>2023-04-27T11:55:51+00:00</time>
        <ele>2690.0</ele>
      </trkpt>
      <trkpt lat="45.250886" lon="7.086954">
        <time>2023-04-27T11:55:53+00:00</time>
        <ele>2689.0</ele>
      </trkpt>
      <trkpt lat="45.250856" lon="7.086943">
        <time>2023-04-27T11:55:54+00:00</time>
        <ele>2688.0</ele>
      </trkpt>
      <trkpt lat="45.250843" lon="7.086885">
        <time>2023-04-27T11:55:55+00:00</time>
        <ele>2687.0</ele>
      </trkpt>
      <trkpt lat="45.250864" lon="7.086811">
        <time>2023-04-27T11:55:56+00:00</time>
        <ele>2686.0</ele>
      </trkpt>
      <trkpt lat="45.250904" lon="7.086761">
        <time>2023-04-27T11:55:57+00:00</time>
        <ele>2685.0</ele>
      </trkpt>
      <trkpt lat="45.250932" lon="7.086753">
        <time>2023-04-27T11:55:58+00:00</time>
        <ele>2685.0</ele>
      </trkpt>
      <trkpt lat="45.250949" lon="7.086708">
        <time>2023-04-27T11:56:21+00:00</time>
        <ele>2684.0</ele>
      </trkpt>
      <trkpt lat="45.251038" lon="7.086589">
        <time>2023-04-27T11:56:24+00:00</time>
        <ele>2683.0</ele>
      </trkpt>
      <trkpt lat="45.251106" lon="7.086547">
        <time>2023-04-27T11:56:26+00:00</time>
        <ele>2683.0</ele>
      </trkpt>
      <trkpt lat="45.251331" lon="7.086333">
        <time>2023-04-27T11:56:33+00:00</time>
        <ele>2680.0</ele>
      </trkpt>
      <trkpt lat="45.251485" lon="7.086227">
        <time>2023-04-27T11:56:38+00:00</time>
        <ele>2678.0</ele>
      </trkpt>
      <trkpt lat="45.251512" lon="7.086188">
        <time>2023-04-27T11:56:40+00:00</time>
        <ele>2677.0</ele>
      </trkpt>
      <trkpt lat="45.251507" lon="7.08615">
        <time>2023-04-27T11:56:41+00:00</time>
        <ele>2675.0</ele>
      </trkpt>
      <trkpt lat="45.251438" lon="7.086124">
        <time>2023-04-27T11:56:43+00:00</time>
        <ele>2674.0</ele>
      </trkpt>
      <trkpt lat="45.251397" lon="7.086133">
        <time>2023-04-27T11:56:44+00:00</time>
        <ele>2674.0</ele>
      </trkpt>
      <trkpt lat="45.25136" lon="7.086132">
        <time>2023-04-27T11:56:45+00:00</time>
        <ele>2674.0</ele>
      </trkpt>
      <trkpt lat="45.251327" lon="7.086105">
        <time>2023-04-27T11:56:46+00:00</time>
        <ele>2673.0</ele>
      </trkpt>
      <trkpt lat="45.251338" lon="7.085994">
        <time>2023-04-27T11:56:48+00:00</time>
        <ele>2671.0</ele>
      </trkpt>
      <trkpt lat="45.2514" lon="7.085955">
        <time>2023-04-27T11:56:50+00:00</time>
        <ele>2670.0</ele>
      </trkpt>
      <trkpt lat="45.251436" lon="7.085942">
        <time>2023-04-27T11:56:51+00:00</time>
        <ele>2670.0</ele>
      </trkpt>
      <trkpt lat="45.251459" lon="7.085872">
        <time>2023-04-27T11:56:53+00:00</time>
        <ele>2668.0</ele>
      </trkpt>
      <trkpt lat="45.251424" lon="7.08585">
        <time>2023-04-27T11:56:54+00:00</time>
        <ele>2668.0</ele>
      </trkpt>
      <trkpt lat="45.251381" lon="7.085834">
        <time>2023-04-27T11:56:55+00:00</time>
        <ele>2668.0</ele>
      </trkpt>
      <trkpt lat="45.251353" lon="7.085815">
        <time>2023-04-27T11:56:56+00:00</time>
        <ele>2668.0</ele>
      </trkpt>
      <trkpt lat="45.25136" lon="7.085717">
        <time>2023-04-27T11:56:58+00:00</time>
        <ele>2665.0</ele>
      </trkpt>
      <trkpt lat="45.251416" lon="7.085696">
        <time>2023-04-27T11:56:59+00:00</time>
        <ele>2665.0</ele>
      </trkpt>
      <trkpt lat="45.251501" lon="7.085705">
        <time>2023-04-27T11:57:01+00:00</time>
        <ele>2665.0</ele>
      </trkpt>
      <trkpt lat="45.251527" lon="7.085704">
        <time>2023-04-27T11:57:03+00:00</time>
        <ele>2664.0</ele>
      </trkpt>
      <trkpt lat="45.251575" lon="7.085686">
        <time>2023-04-27T11:57:33+00:00</time>
        <ele>2664.0</ele>
      </trkpt>
      <trkpt lat="45.251621" lon="7.085678">
        <time>2023-04-27T11:57:35+00:00</time>
        <ele>2664.0</ele>
      </trkpt>
      <trkpt lat="45.251671" lon="7.085635">
        <time>2023-04-27T11:57:38+00:00</time>
        <ele>2663.0</ele>
      </trkpt>
      <trkpt lat="45.251625" lon="7.085584">
        <time>2023-04-27T11:57:40+00:00</time>
        <ele>2661.0</ele>
      </trkpt>
      <trkpt lat="45.251614" lon="7.085521">
        <time>2023-04-27T11:57:42+00:00</time>
        <ele>2660.0</ele>
      </trkpt>
      <trkpt lat="45.251655" lon="7.085489">
        <time>2023-04-27T11:57:43+00:00</time>
        <ele>2659.0</ele>
      </trkpt>
      <trkpt lat="45.251742" lon="7.085476">
        <time>2023-04-27T11:57:46+00:00</time>
        <ele>2658.0</ele>
      </trkpt>
      <trkpt lat="45.251776" lon="7.08544">
        <time>2023-04-27T11:57:48+00:00</time>
        <ele>2657.0</ele>
      </trkpt>
      <trkpt lat="45.251692" lon="7.08534">
        <time>2023-04-27T11:57:51+00:00</time>
        <ele>2656.0</ele>
      </trkpt>
      <trkpt lat="45.2517" lon="7.08526">
        <time>2023-04-27T11:57:53+00:00</time>
        <ele>2654.0</ele>
      </trkpt>
      <trkpt lat="45.251748" lon="7.085229">
        <time>2023-04-27T11:57:54+00:00</time>
        <ele>2653.0</ele>
      </trkpt>
      <trkpt lat="45.251837" lon="7.085255">
        <time>2023-04-27T11:57:56+00:00</time>
        <ele>2652.0</ele>
      </trkpt>
      <trkpt lat="45.251869" lon="7.085196">
        <time>2023-04-27T11:57:58+00:00</time>
        <ele>2650.0</ele>
      </trkpt>
      <trkpt lat="45.251827" lon="7.085137">
        <time>2023-04-27T11:58:00+00:00</time>
        <ele>2649.0</ele>
      </trkpt>
      <trkpt lat="45.251902" lon="7.085034">
        <time>2023-04-27T11:58:04+00:00</time>
        <ele>2645.0</ele>
      </trkpt>
      <trkpt lat="45.251932" lon="7.084967">
        <time>2023-04-27T11:58:08+00:00</time>
        <ele>2642.0</ele>
      </trkpt>
      <trkpt lat="45.251881" lon="7.084933">
        <time>2023-04-27T11:58:10+00:00</time>
        <ele>2642.0</ele>
      </trkpt>
      <trkpt lat="45.251923" lon="7.084871">
        <time>2023-04-27T11:58:13+00:00</time>
        <ele>2640.0</ele>
      </trkpt>
      <trkpt lat="45.251945" lon="7.084858">
        <time>2023-04-27T11:58:51+00:00</time>
        <ele>2639.0</ele>
      </trkpt>
      <trkpt lat="45.251951" lon="7.084816">
        <time>2023-04-27T11:58:53+00:00</time>
        <ele>2638.0</ele>
      </trkpt>
      <trkpt lat="45.2519" lon="7.084779">
        <time>2023-04-27T11:58:55+00:00</time>
        <ele>2637.0</ele>
      </trkpt>
      <trkpt lat="45.251874" lon="7.084663">
        <time>2023-04-27T11:58:58+00:00</time>
        <ele>2635.0</ele>
      </trkpt>
      <trkpt lat="45.251908" lon="7.084636">
        <time>2023-04-27T11:58:59+00:00</time>
        <ele>2634.0</ele>
      </trkpt>
      <trkpt lat="45.251934" lon="7.08464">
        <time>2023-04-27T11:59:00+00:00</time>
        <ele>2634.0</ele>
      </trkpt>
      <trkpt lat="45.25197" lon="7.084597">
        <time>2023-04-27T11:59:03+00:00</time>
        <ele>2632.0</ele>
      </trkpt>
      <trkpt lat="45.251929" lon="7.084533">
        <time>2023-04-27T11:59:05+00:00</time>
        <ele>2631.0</ele>
      </trkpt>
      <trkpt lat="45.251971" lon="7.084501">
        <time>2023-04-27T11:59:09+00:00</time>
        <ele>2630.0</ele>
      </trkpt>
      <trkpt lat="45.25204" lon="7.084477">
        <time>2023-04-27T11:59:17+00:00</time>
        <ele>2628.0</ele>
      </trkpt>
      <trkpt lat="45.252082" lon="7.084492">
        <time>2023-04-27T11:59:19+00:00</time>
        <ele>2628.0</ele>
      </trkpt>
      <trkpt lat="45.252128" lon="7.084539">
        <time>2023-04-27T11:59:21+00:00</time>
        <ele>2628.0</ele>
      </trkpt>
      <trkpt lat="45.25224" lon="7.084552">
        <time>2023-04-27T11:59:44+00:00</time>
        <ele>2625.0</ele>
      </trkpt>
      <trkpt lat="45.252243" lon="7.084516">
        <time>2023-04-27T11:59:48+00:00</time>
        <ele>2624.0</ele>
      </trkpt>
      <trkpt lat="45.252268" lon="7.08452">
        <time>2023-04-27T11:59:51+00:00</time>
        <ele>2624.0</ele>
      </trkpt>
      <trkpt lat="45.252292" lon="7.084477">
        <time>2023-04-27T11:59:55+00:00</time>
        <ele>2622.0</ele>
      </trkpt>
      <trkpt lat="45.252294" lon="7.084426">
        <time>2023-04-27T11:59:58+00:00</time>
        <ele>2621.0</ele>
      </trkpt>
      <trkpt lat="45.252309" lon="7.084373">
        <time>2023-04-27T12:00:04+00:00</time>
        <ele>2620.0</ele>
      </trkpt>
      <trkpt lat="45.252308" lon="7.084319">
        <time>2023-04-27T12:00:08+00:00</time>
        <ele>2619.0</ele>
      </trkpt>
      <trkpt lat="45.25235" lon="7.084275">
        <time>2023-04-27T12:00:13+00:00</time>
        <ele>2617.0</ele>
      </trkpt>
      <trkpt lat="45.252375" lon="7.084329">
        <time>2023-04-27T12:00:16+00:00</time>
        <ele>2617.0</ele>
      </trkpt>
      <trkpt lat="45.2524" lon="7.084351">
        <time>2023-04-27T12:00:17+00:00</time>
        <ele>2616.0</ele>
      </trkpt>
      <trkpt lat="45.252443" lon="7.084378">
        <time>2023-04-27T12:00:18+00:00</time>
        <ele>2615.0</ele>
      </trkpt>
      <trkpt lat="45.252493" lon="7.084388">
        <time>2023-04-27T12:00:19+00:00</time>
        <ele>2613.0</ele>
      </trkpt>
      <trkpt lat="45.252544" lon="7.084371">
        <time>2023-04-27T12:00:20+00:00</time>
        <ele>2613.0</ele>
      </trkpt>
      <trkpt lat="45.252578" lon="7.084338">
        <time>2023-04-27T12:00:21+00:00</time>
        <ele>2612.0</ele>
      </trkpt>
      <trkpt lat="45.252635" lon="7.084212">
        <time>2023-04-27T12:00:24+00:00</time>
        <ele>2610.0</ele>
      </trkpt>
      <trkpt lat="45.252659" lon="7.084173">
        <time>2023-04-27T12:00:25+00:00</time>
        <ele>2609.0</ele>
      </trkpt>
      <trkpt lat="45.252684" lon="7.084147">
        <time>2023-04-27T12:00:26+00:00</time>
        <ele>2609.0</ele>
      </trkpt>
      <trkpt lat="45.252772" lon="7.084118">
        <time>2023-04-27T12:00:29+00:00</time>
        <ele>2609.0</ele>
      </trkpt>
      <trkpt lat="45.252804" lon="7.084121">
        <time>2023-04-27T12:00:30+00:00</time>
        <ele>2609.0</ele>
      </trkpt>
      <trkpt lat="45.252875" lon="7.084053">
        <time>2023-04-27T12:00:33+00:00</time>
        <ele>2608.0</ele>
      </trkpt>
      <trkpt lat="45.252934" lon="7.083639">
        <time>2023-04-27T12:00:40+00:00</time>
        <ele>2603.0</ele>
      </trkpt>
      <trkpt lat="45.252948" lon="7.083593">
        <time>2023-04-27T12:00:41+00:00</time>
        <ele>2603.0</ele>
      </trkpt>
      <trkpt lat="45.253106" lon="7.083315">
        <time>2023-04-27T12:00:51+00:00</time>
        <ele>2601.0</ele>
      </trkpt>
      <trkpt lat="45.253304" lon="7.08312">
        <time>2023-04-27T12:00:58+00:00</time>
        <ele>2599.0</ele>
      </trkpt>
      <trkpt lat="45.253481" lon="7.083024">
        <time>2023-04-27T12:01:03+00:00</time>
        <ele>2598.0</ele>
      </trkpt>
      <trkpt lat="45.253788" lon="7.082905">
        <time>2023-04-27T12:01:11+00:00</time>
        <ele>2594.0</ele>
      </trkpt>
      <trkpt lat="45.254215" lon="7.082583">
        <time>2023-04-27T12:01:29+00:00</time>
        <ele>2590.0</ele>
      </trkpt>
      <trkpt lat="45.25432" lon="7.082453">
        <time>2023-04-27T12:01:35+00:00</time>
        <ele>2589.0</ele>
      </trkpt>
      <trkpt lat="45.254732" lon="7.082108">
        <time>2023-04-27T12:01:55+00:00</time>
        <ele>2586.0</ele>
      </trkpt>
      <trkpt lat="45.254768" lon="7.082055">
        <time>2023-04-27T12:02:05+00:00</time>
        <ele>2586.0</ele>
      </trkpt>
      <trkpt lat="45.254791" lon="7.082039">
        <time>2023-04-27T12:02:11+00:00</time>
        <ele>2586.0</ele>
      </trkpt>
      <trkpt lat="45.25483" lon="7.082038">
        <time>2023-04-27T12:02:25+00:00</time>
        <ele>2586.0</ele>
      </trkpt>
      <trkpt lat="45.254859" lon="7.082067">
        <time>2023-04-27T12:02:33+00:00</time>
        <ele>2586.0</ele>
      </trkpt>
      <trkpt lat="45.254889" lon="7.082051">
        <time>2023-04-27T12:02:35+00:00</time>
        <ele>2586.0</ele>
      </trkpt>
      <trkpt lat="45.254926" lon="7.082025">
        <time>2023-04-27T12:02:40+00:00</time>
        <ele>2586.0</ele>
      </trkpt>
      <trkpt lat="45.254914" lon="7.081985">
        <time>2023-04-27T12:03:29+00:00</time>
        <ele>2586.0</ele>
      </trkpt>
      <trkpt lat="45.254885" lon="7.081989">
        <time>2023-04-27T12:03:43+00:00</time>
        <ele>2586.0</ele>
      </trkpt>
      <trkpt lat="45.254855" lon="7.081974">
        <time>2023-04-27T12:04:34+00:00</time>
        <ele>2585.0</ele>
      </trkpt>
      <trkpt lat="45.254811" lon="7.08196">
        <time>2023-04-27T12:04:36+00:00</time>
        <ele>2585.0</ele>
      </trkpt>
      <trkpt lat="45.254701" lon="7.081854">
        <time>2023-04-27T12:04:40+00:00</time>
        <ele>2581.0</ele>
      </trkpt>
      <trkpt lat="45.254681" lon="7.081806">
        <time>2023-04-27T12:04:41+00:00</time>
        <ele>2580.0</ele>
      </trkpt>
      <trkpt lat="45.254675" lon="7.081685">
        <time>2023-04-27T12:04:43+00:00</time>
        <ele>2579.0</ele>
      </trkpt>
      <trkpt lat="45.254698" lon="7.081654">
        <time>2023-04-27T12:04:44+00:00</time>
        <ele>2579.0</ele>
      </trkpt>
      <trkpt lat="45.254722" lon="7.081664">
        <time>2023-04-27T12:04:45+00:00</time>
        <ele>2579.0</ele>
      </trkpt>
      <trkpt lat="45.254709" lon="7.081681">
        <time>2023-04-27T12:04:48+00:00</time>
        <ele>2579.0</ele>
      </trkpt>
      <trkpt lat="45.254687" lon="7.081589">
        <time>2023-04-27T12:04:54+00:00</time>
        <ele>2578.0</ele>
      </trkpt>
      <trkpt lat="45.254686" lon="7.081549">
        <time>2023-04-27T12:04:55+00:00</time>
        <ele>2577.0</ele>
      </trkpt>
      <trkpt lat="45.254696" lon="7.081513">
        <time>2023-04-27T12:04:56+00:00</time>
        <ele>2577.0</ele>
      </trkpt>
      <trkpt lat="45.254713" lon="7.08149">
        <time>2023-04-27T12:04:58+00:00</time>
        <ele>2577.0</ele>
      </trkpt>
      <trkpt lat="45.254766" lon="7.081408">
        <time>2023-04-27T12:05:05+00:00</time>
        <ele>2576.0</ele>
      </trkpt>
      <trkpt lat="45.254803" lon="7.0814">
        <time>2023-04-27T12:05:08+00:00</time>
        <ele>2576.0</ele>
      </trkpt>
      <trkpt lat="45.254797" lon="7.081423">
        <time>2023-04-27T12:06:41+00:00</time>
        <ele>2576.0</ele>
      </trkpt>
      <trkpt lat="45.254681" lon="7.081504">
        <time>2023-04-27T12:07:05+00:00</time>
        <ele>2577.0</ele>
      </trkpt>
      <trkpt lat="45.254664" lon="7.081541">
        <time>2023-04-27T12:07:12+00:00</time>
        <ele>2577.0</ele>
      </trkpt>
      <trkpt lat="45.254555" lon="7.081574">
        <time>2023-04-27T12:07:33+00:00</time>
        <ele>2576.0</ele>
      </trkpt>
      <trkpt lat="45.254552" lon="7.081543">
        <time>2023-04-27T12:07:45+00:00</time>
        <ele>2576.0</ele>
      </trkpt>
      <trkpt lat="45.254714" lon="7.081389">
        <time>2023-04-27T12:08:04+00:00</time>
        <ele>2576.0</ele>
      </trkpt>
      <trkpt lat="45.254723" lon="7.081346">
        <time>2023-04-27T12:08:09+00:00</time>
        <ele>2575.0</ele>
      </trkpt>
      <trkpt lat="45.254721" lon="7.081309">
        <time>2023-04-27T12:09:19+00:00</time>
        <ele>2575.0</ele>
      </trkpt>
      <trkpt lat="45.254735" lon="7.081283">
        <time>2023-04-27T12:09:30+00:00</time>
        <ele>2574.0</ele>
      </trkpt>
      <trkpt lat="45.254753" lon="7.081311">
        <time>2023-04-27T12:09:55+00:00</time>
        <ele>2575.0</ele>
      </trkpt>
      <trkpt lat="45.254767" lon="7.081283">
        <time>2023-04-27T12:10:10+00:00</time>
        <ele>2574.0</ele>
      </trkpt>
      <trkpt lat="45.254791" lon="7.081247">
        <time>2023-04-27T12:11:00+00:00</time>
        <ele>2574.0</ele>
      </trkpt>
      <trkpt lat="45.254843" lon="7.081204">
        <time>2023-04-27T12:11:13+00:00</time>
        <ele>2573.0</ele>
      </trkpt>
      <trkpt lat="45.254861" lon="7.081174">
        <time>2023-04-27T12:11:14+00:00</time>
        <ele>2573.0</ele>
      </trkpt>
      <trkpt lat="45.254891" lon="7.081134">
        <time>2023-04-27T12:11:16+00:00</time>
        <ele>2572.0</ele>
      </trkpt>
      <trkpt lat="45.254923" lon="7.081114">
        <time>2023-04-27T12:11:19+00:00</time>
        <ele>2571.0</ele>
      </trkpt>
      <trkpt lat="45.254983" lon="7.081135">
        <time>2023-04-27T12:11:49+00:00</time>
        <ele>2569.0</ele>
      </trkpt>
      <trkpt lat="45.255015" lon="7.081154">
        <time>2023-04-27T12:11:58+00:00</time>
        <ele>2568.0</ele>
      </trkpt>
      <trkpt lat="45.255055" lon="7.081141">
        <time>2023-04-27T12:12:02+00:00</time>
        <ele>2567.0</ele>
      </trkpt>
      <trkpt lat="45.255283" lon="7.081055">
        <time>2023-04-27T12:12:26+00:00</time>
        <ele>2558.0</ele>
      </trkpt>
      <trkpt lat="45.255576" lon="7.0811">
        <time>2023-04-27T12:12:33+00:00</time>
        <ele>2551.0</ele>
      </trkpt>
      <trkpt lat="45.255818" lon="7.081176">
        <time>2023-04-27T12:12:40+00:00</time>
        <ele>2546.0</ele>
      </trkpt>
      <trkpt lat="45.256254" lon="7.081148">
        <time>2023-04-27T12:13:00+00:00</time>
        <ele>2542.0</ele>
      </trkpt>
      <trkpt lat="45.256956" lon="7.080926">
        <time>2023-04-27T12:13:30+00:00</time>
        <ele>2539.0</ele>
      </trkpt>
      <trkpt lat="45.257925" lon="7.080539">
        <time>2023-04-27T12:14:00+00:00</time>
        <ele>2531.0</ele>
      </trkpt>
      <trkpt lat="45.258788" lon="7.080224">
        <time>2023-04-27T12:14:25+00:00</time>
        <ele>2523.0</ele>
      </trkpt>
      <trkpt lat="45.258851" lon="7.080253">
        <time>2023-04-27T12:14:29+00:00</time>
        <ele>2523.0</ele>
      </trkpt>
      <trkpt lat="45.259062" lon="7.080271">
        <time>2023-04-27T12:14:38+00:00</time>
        <ele>2523.0</ele>
      </trkpt>
      <trkpt lat="45.259149" lon="7.080311">
        <time>2023-04-27T12:14:44+00:00</time>
        <ele>2521.0</ele>
      </trkpt>
      <trkpt lat="45.259179" lon="7.080329">
        <time>2023-04-27T12:14:46+00:00</time>
        <ele>2521.0</ele>
      </trkpt>
      <trkpt lat="45.259222" lon="7.080334">
        <time>2023-04-27T12:14:48+00:00</time>
        <ele>2520.0</ele>
      </trkpt>
      <trkpt lat="45.259264" lon="7.080322">
        <time>2023-04-27T12:14:50+00:00</time>
        <ele>2520.0</ele>
      </trkpt>
      <trkpt lat="45.259261" lon="7.0803">
        <time>2023-04-27T12:15:28+00:00</time>
        <ele>2521.0</ele>
      </trkpt>
      <trkpt lat="45.259298" lon="7.080299">
        <time>2023-04-27T12:16:59+00:00</time>
        <ele>2521.0</ele>
      </trkpt>
      <trkpt lat="45.259329" lon="7.080305">
        <time>2023-04-27T12:17:14+00:00</time>
        <ele>2520.0</ele>
      </trkpt>
      <trkpt lat="45.259341" lon="7.080268">
        <time>2023-04-27T12:17:18+00:00</time>
        <ele>2521.0</ele>
      </trkpt>
      <trkpt lat="45.259388" lon="7.080174">
        <time>2023-04-27T12:17:28+00:00</time>
        <ele>2523.0</ele>
      </trkpt>
      <trkpt lat="45.259414" lon="7.080139">
        <time>2023-04-27T12:17:30+00:00</time>
        <ele>2523.0</ele>
      </trkpt>
      <trkpt lat="45.259554" lon="7.080111">
        <time>2023-04-27T12:17:42+00:00</time>
        <ele>2521.0</ele>
      </trkpt>
      <trkpt lat="45.260124" lon="7.080325">
        <time>2023-04-27T12:18:13+00:00</time>
        <ele>2517.0</ele>
      </trkpt>
      <trkpt lat="45.260884" lon="7.080476">
        <time>2023-04-27T12:18:45+00:00</time>
        <ele>2512.0</ele>
      </trkpt>
      <trkpt lat="45.261074" lon="7.080499">
        <time>2023-04-27T12:18:54+00:00</time>
        <ele>2512.0</ele>
      </trkpt>
      <trkpt lat="45.261556" lon="7.08047">
        <time>2023-04-27T12:19:14+00:00</time>
        <ele>2510.0</ele>
      </trkpt>
      <trkpt lat="45.262022" lon="7.080275">
        <time>2023-04-27T12:19:30+00:00</time>
        <ele>2507.0</ele>
      </trkpt>
      <trkpt lat="45.26303" lon="7.079949">
        <time>2023-04-27T12:19:55+00:00</time>
        <ele>2499.0</ele>
      </trkpt>
      <trkpt lat="45.263215" lon="7.079833">
        <time>2023-04-27T12:19:59+00:00</time>
        <ele>2497.0</ele>
      </trkpt>
      <trkpt lat="45.263265" lon="7.079821">
        <time>2023-04-27T12:20:00+00:00</time>
        <ele>2496.0</ele>
      </trkpt>
      <trkpt lat="45.263313" lon="7.079822">
        <time>2023-04-27T12:20:01+00:00</time>
        <ele>2496.0</ele>
      </trkpt>
      <trkpt lat="45.263347" lon="7.079832">
        <time>2023-04-27T12:20:02+00:00</time>
        <ele>2496.0</ele>
      </trkpt>
      <trkpt lat="45.263479" lon="7.079961">
        <time>2023-04-27T12:20:11+00:00</time>
        <ele>2494.0</ele>
      </trkpt>
      <trkpt lat="45.263655" lon="7.080049">
        <time>2023-04-27T12:20:19+00:00</time>
        <ele>2493.0</ele>
      </trkpt>
      <trkpt lat="45.264296" lon="7.080133">
        <time>2023-04-27T12:20:37+00:00</time>
        <ele>2488.0</ele>
      </trkpt>
      <trkpt lat="45.264332" lon="7.080136">
        <time>2023-04-27T12:20:39+00:00</time>
        <ele>2488.0</ele>
      </trkpt>
      <trkpt lat="45.264351" lon="7.080122">
        <time>2023-04-27T12:21:00+00:00</time>
        <ele>2488.0</ele>
      </trkpt>
      <trkpt lat="45.264712" lon="7.079961">
        <time>2023-04-27T12:21:14+00:00</time>
        <ele>2486.0</ele>
      </trkpt>
      <trkpt lat="45.264796" lon="7.079956">
        <time>2023-04-27T12:21:16+00:00</time>
        <ele>2485.0</ele>
      </trkpt>
      <trkpt lat="45.264823" lon="7.079962">
        <time>2023-04-27T12:21:17+00:00</time>
        <ele>2484.0</ele>
      </trkpt>
      <trkpt lat="45.264856" lon="7.079986">
        <time>2023-04-27T12:21:19+00:00</time>
        <ele>2484.0</ele>
      </trkpt>
      <trkpt lat="45.264906" lon="7.080056">
        <time>2023-04-27T12:21:25+00:00</time>
        <ele>2484.0</ele>
      </trkpt>
      <trkpt lat="45.265165" lon="7.080298">
        <time>2023-04-27T12:21:44+00:00</time>
        <ele>2483.0</ele>
      </trkpt>
      <trkpt lat="45.265389" lon="7.080385">
        <time>2023-04-27T12:21:56+00:00</time>
        <ele>2482.0</ele>
      </trkpt>
      <trkpt lat="45.265549" lon="7.080441">
        <time>2023-04-27T12:22:30+00:00</time>
        <ele>2482.0</ele>
      </trkpt>
      <trkpt lat="45.26563" lon="7.080463">
        <time>2023-04-27T12:22:39+00:00</time>
        <ele>2482.0</ele>
      </trkpt>
      <trkpt lat="45.265948" lon="7.080432">
        <time>2023-04-27T12:23:01+00:00</time>
        <ele>2481.0</ele>
      </trkpt>
      <trkpt lat="45.266018" lon="7.080401">
        <time>2023-04-27T12:23:05+00:00</time>
        <ele>2481.0</ele>
      </trkpt>
      <trkpt lat="45.266322" lon="7.080391">
        <time>2023-04-27T12:23:21+00:00</time>
        <ele>2479.0</ele>
      </trkpt>
      <trkpt lat="45.266348" lon="7.080379">
        <time>2023-04-27T12:23:22+00:00</time>
        <ele>2479.0</ele>
      </trkpt>
      <trkpt lat="45.266368" lon="7.080351">
        <time>2023-04-27T12:23:24+00:00</time>
        <ele>2479.0</ele>
      </trkpt>
      <trkpt lat="45.266353" lon="7.080298">
        <time>2023-04-27T12:25:47+00:00</time>
        <ele>2481.0</ele>
      </trkpt>
      <trkpt lat="45.266384" lon="7.080312">
        <time>2023-04-27T12:26:25+00:00</time>
        <ele>2480.0</ele>
      </trkpt>
      <trkpt lat="45.266411" lon="7.080275">
        <time>2023-04-27T12:27:01+00:00</time>
        <ele>2480.0</ele>
      </trkpt>
      <trkpt lat="45.266522" lon="7.080132">
        <time>2023-04-27T12:27:06+00:00</time>
        <ele>2480.0</ele>
      </trkpt>
      <trkpt lat="45.266615" lon="7.080075">
        <time>2023-04-27T12:27:09+00:00</time>
        <ele>2479.0</ele>
      </trkpt>
      <trkpt lat="45.26673" lon="7.080003">
        <time>2023-04-27T12:27:14+00:00</time>
        <ele>2478.0</ele>
      </trkpt>
      <trkpt lat="45.266785" lon="7.079994">
        <time>2023-04-27T12:27:16+00:00</time>
        <ele>2477.0</ele>
      </trkpt>
      <trkpt lat="45.267053" lon="7.080102">
        <time>2023-04-27T12:27:26+00:00</time>
        <ele>2474.0</ele>
      </trkpt>
      <trkpt lat="45.26716" lon="7.080166">
        <time>2023-04-27T12:27:30+00:00</time>
        <ele>2473.0</ele>
      </trkpt>
      <trkpt lat="45.267236" lon="7.080189">
        <time>2023-04-27T12:27:32+00:00</time>
        <ele>2472.0</ele>
      </trkpt>
      <trkpt lat="45.267339" lon="7.080174">
        <time>2023-04-27T12:27:36+00:00</time>
        <ele>2472.0</ele>
      </trkpt>
      <trkpt lat="45.267375" lon="7.080185">
        <time>2023-04-27T12:27:39+00:00</time>
        <ele>2472.0</ele>
      </trkpt>
      <trkpt lat="45.267574" lon="7.080242">
        <time>2023-04-27T12:28:06+00:00</time>
        <ele>2474.0</ele>
      </trkpt>
      <trkpt lat="45.267693" lon="7.080308">
        <time>2023-04-27T12:28:11+00:00</time>
        <ele>2476.0</ele>
      </trkpt>
      <trkpt lat="45.267972" lon="7.080339">
        <time>2023-04-27T12:28:18+00:00</time>
        <ele>2476.0</ele>
      </trkpt>
      <trkpt lat="45.268181" lon="7.080275">
        <time>2023-04-27T12:28:25+00:00</time>
        <ele>2472.0</ele>
      </trkpt>
      <trkpt lat="45.268253" lon="7.080279">
        <time>2023-04-27T12:28:28+00:00</time>
        <ele>2471.0</ele>
      </trkpt>
      <trkpt lat="45.268414" lon="7.080392">
        <time>2023-04-27T12:28:35+00:00</time>
        <ele>2468.0</ele>
      </trkpt>
      <trkpt lat="45.268447" lon="7.080421">
        <time>2023-04-27T12:28:36+00:00</time>
        <ele>2467.0</ele>
      </trkpt>
      <trkpt lat="45.268475" lon="7.080451">
        <time>2023-04-27T12:28:37+00:00</time>
        <ele>2466.0</ele>
      </trkpt>
      <trkpt lat="45.26849" lon="7.080498">
        <time>2023-04-27T12:28:39+00:00</time>
        <ele>2466.0</ele>
      </trkpt>
      <trkpt lat="45.268561" lon="7.080525">
        <time>2023-04-27T12:28:42+00:00</time>
        <ele>2465.0</ele>
      </trkpt>
      <trkpt lat="45.26862" lon="7.080611">
        <time>2023-04-27T12:28:44+00:00</time>
        <ele>2466.0</ele>
      </trkpt>
      <trkpt lat="45.268629" lon="7.080642">
        <time>2023-04-27T12:28:46+00:00</time>
        <ele>2467.0</ele>
      </trkpt>
      <trkpt lat="45.268652" lon="7.080644">
        <time>2023-04-27T12:28:51+00:00</time>
        <ele>2466.0</ele>
      </trkpt>
      <trkpt lat="45.26867" lon="7.080669">
        <time>2023-04-27T12:29:29+00:00</time>
        <ele>2466.0</ele>
      </trkpt>
      <trkpt lat="45.268929" lon="7.081026">
        <time>2023-04-27T12:29:36+00:00</time>
        <ele>2456.0</ele>
      </trkpt>
      <trkpt lat="45.268959" lon="7.081087">
        <time>2023-04-27T12:29:37+00:00</time>
        <ele>2454.0</ele>
      </trkpt>
      <trkpt lat="45.269303" lon="7.081419">
        <time>2023-04-27T12:29:45+00:00</time>
        <ele>2448.0</ele>
      </trkpt>
      <trkpt lat="45.269732" lon="7.08163">
        <time>2023-04-27T12:29:52+00:00</time>
        <ele>2444.0</ele>
      </trkpt>
      <trkpt lat="45.269848" lon="7.081652">
        <time>2023-04-27T12:29:54+00:00</time>
        <ele>2443.0</ele>
      </trkpt>
      <trkpt lat="45.270581" lon="7.081577">
        <time>2023-04-27T12:30:12+00:00</time>
        <ele>2438.0</ele>
      </trkpt>
      <trkpt lat="45.270844" lon="7.081604">
        <time>2023-04-27T12:30:20+00:00</time>
        <ele>2436.0</ele>
      </trkpt>
      <trkpt lat="45.270914" lon="7.081587">
        <time>2023-04-27T12:30:22+00:00</time>
        <ele>2435.0</ele>
      </trkpt>
      <trkpt lat="45.271049" lon="7.08153">
        <time>2023-04-27T12:30:25+00:00</time>
        <ele>2433.0</ele>
      </trkpt>
      <trkpt lat="45.271099" lon="7.081524">
        <time>2023-04-27T12:30:26+00:00</time>
        <ele>2433.0</ele>
      </trkpt>
      <trkpt lat="45.271141" lon="7.081547">
        <time>2023-04-27T12:30:27+00:00</time>
        <ele>2432.0</ele>
      </trkpt>
      <trkpt lat="45.271545" lon="7.082169">
        <time>2023-04-27T12:30:40+00:00</time>
        <ele>2431.0</ele>
      </trkpt>
      <trkpt lat="45.272304" lon="7.082763">
        <time>2023-04-27T12:31:02+00:00</time>
        <ele>2421.0</ele>
      </trkpt>
      <trkpt lat="45.272511" lon="7.082878">
        <time>2023-04-27T12:31:11+00:00</time>
        <ele>2419.0</ele>
      </trkpt>
      <trkpt lat="45.272593" lon="7.082961">
        <time>2023-04-27T12:31:15+00:00</time>
        <ele>2418.0</ele>
      </trkpt>
      <trkpt lat="45.272601" lon="7.083006">
        <time>2023-04-27T12:31:18+00:00</time>
        <ele>2417.0</ele>
      </trkpt>
      <trkpt lat="45.272617" lon="7.083034">
        <time>2023-04-27T12:31:21+00:00</time>
        <ele>2417.0</ele>
      </trkpt>
      <trkpt lat="45.272736" lon="7.083062">
        <time>2023-04-27T12:31:26+00:00</time>
        <ele>2416.0</ele>
      </trkpt>
      <trkpt lat="45.272772" lon="7.083077">
        <time>2023-04-27T12:31:29+00:00</time>
        <ele>2416.0</ele>
      </trkpt>
      <trkpt lat="45.272816" lon="7.083084">
        <time>2023-04-27T12:31:32+00:00</time>
        <ele>2415.0</ele>
      </trkpt>
      <trkpt lat="45.27288" lon="7.083066">
        <time>2023-04-27T12:32:03+00:00</time>
        <ele>2415.0</ele>
      </trkpt>
      <trkpt lat="45.272903" lon="7.083038">
        <time>2023-04-27T12:32:07+00:00</time>
        <ele>2415.0</ele>
      </trkpt>
      <trkpt lat="45.272928" lon="7.083012">
        <time>2023-04-27T12:32:34+00:00</time>
        <ele>2416.0</ele>
      </trkpt>
      <trkpt lat="45.272948" lon="7.082987">
        <time>2023-04-27T12:32:37+00:00</time>
        <ele>2416.0</ele>
      </trkpt>
      <trkpt lat="45.272971" lon="7.082985">
        <time>2023-04-27T12:32:49+00:00</time>
        <ele>2416.0</ele>
      </trkpt>
      <trkpt lat="45.272995" lon="7.082958">
        <time>2023-04-27T12:32:59+00:00</time>
        <ele>2416.0</ele>
      </trkpt>
      <trkpt lat="45.273038" lon="7.082919">
        <time>2023-04-27T12:33:17+00:00</time>
        <ele>2416.0</ele>
      </trkpt>
      <trkpt lat="45.27306" lon="7.082936">
        <time>2023-04-27T12:33:35+00:00</time>
        <ele>2416.0</ele>
      </trkpt>
      <trkpt lat="45.273131" lon="7.082898">
        <time>2023-04-27T12:34:32+00:00</time>
        <ele>2416.0</ele>
      </trkpt>
      <trkpt lat="45.273156" lon="7.0829">
        <time>2023-04-27T12:34:41+00:00</time>
        <ele>2416.0</ele>
      </trkpt>
      <trkpt lat="45.273176" lon="7.082885">
        <time>2023-04-27T12:35:06+00:00</time>
        <ele>2416.0</ele>
      </trkpt>
      <trkpt lat="45.273205" lon="7.082897">
        <time>2023-04-27T12:35:57+00:00</time>
        <ele>2415.0</ele>
      </trkpt>
      <trkpt lat="45.27323" lon="7.082906">
        <time>2023-04-27T12:36:34+00:00</time>
        <ele>2415.0</ele>
      </trkpt>
      <trkpt lat="45.273276" lon="7.082891">
        <time>2023-04-27T12:37:07+00:00</time>
        <ele>2415.0</ele>
      </trkpt>
      <trkpt lat="45.273293" lon="7.082866">
        <time>2023-04-27T12:37:14+00:00</time>
        <ele>2416.0</ele>
      </trkpt>
      <trkpt lat="45.273325" lon="7.082874">
        <time>2023-04-27T12:37:37+00:00</time>
        <ele>2416.0</ele>
      </trkpt>
      <trkpt lat="45.273429" lon="7.08287">
        <time>2023-04-27T12:37:56+00:00</time>
        <ele>2417.0</ele>
      </trkpt>
      <trkpt lat="45.273468" lon="7.082873">
        <time>2023-04-27T12:38:07+00:00</time>
        <ele>2418.0</ele>
      </trkpt>
      <trkpt lat="45.273563" lon="7.082843">
        <time>2023-04-27T12:38:39+00:00</time>
        <ele>2420.0</ele>
      </trkpt>
      <trkpt lat="45.273611" lon="7.082829">
        <time>2023-04-27T12:38:51+00:00</time>
        <ele>2421.0</ele>
      </trkpt>
      <trkpt lat="45.273646" lon="7.082837">
        <time>2023-04-27T12:39:04+00:00</time>
        <ele>2421.0</ele>
      </trkpt>
      <trkpt lat="45.273678" lon="7.082814">
        <time>2023-04-27T12:39:25+00:00</time>
        <ele>2422.0</ele>
      </trkpt>
      <trkpt lat="45.273706" lon="7.082802">
        <time>2023-04-27T12:39:41+00:00</time>
        <ele>2422.0</ele>
      </trkpt>
      <trkpt lat="45.273838" lon="7.082762">
        <time>2023-04-27T12:39:51+00:00</time>
        <ele>2423.0</ele>
      </trkpt>
      <trkpt lat="45.274033" lon="7.082791">
        <time>2023-04-27T12:40:01+00:00</time>
        <ele>2420.0</ele>
      </trkpt>
      <trkpt lat="45.274165" lon="7.08287">
        <time>2023-04-27T12:40:08+00:00</time>
        <ele>2416.0</ele>
      </trkpt>
      <trkpt lat="45.27419" lon="7.082862">
        <time>2023-04-27T12:40:20+00:00</time>
        <ele>2417.0</ele>
      </trkpt>
      <trkpt lat="45.274219" lon="7.082842">
        <time>2023-04-27T12:40:27+00:00</time>
        <ele>2418.0</ele>
      </trkpt>
      <trkpt lat="45.274286" lon="7.082876">
        <time>2023-04-27T12:40:31+00:00</time>
        <ele>2416.0</ele>
      </trkpt>
      <trkpt lat="45.274666" lon="7.082922">
        <time>2023-04-27T12:41:02+00:00</time>
        <ele>2413.0</ele>
      </trkpt>
      <trkpt lat="45.274737" lon="7.082922">
        <time>2023-04-27T12:41:07+00:00</time>
        <ele>2413.0</ele>
      </trkpt>
      <trkpt lat="45.274766" lon="7.082943">
        <time>2023-04-27T12:41:54+00:00</time>
        <ele>2412.0</ele>
      </trkpt>
      <trkpt lat="45.274861" lon="7.082945">
        <time>2023-04-27T12:41:58+00:00</time>
        <ele>2411.0</ele>
      </trkpt>
      <trkpt lat="45.275041" lon="7.083009">
        <time>2023-04-27T12:42:14+00:00</time>
        <ele>2408.0</ele>
      </trkpt>
      <trkpt lat="45.275068" lon="7.083028">
        <time>2023-04-27T12:42:17+00:00</time>
        <ele>2408.0</ele>
      </trkpt>
      <trkpt lat="45.275101" lon="7.083061">
        <time>2023-04-27T12:42:24+00:00</time>
        <ele>2407.0</ele>
      </trkpt>
      <trkpt lat="45.275522" lon="7.083561">
        <time>2023-04-27T12:42:51+00:00</time>
        <ele>2403.0</ele>
      </trkpt>
      <trkpt lat="45.275626" lon="7.083622">
        <time>2023-04-27T12:42:56+00:00</time>
        <ele>2404.0</ele>
      </trkpt>
      <trkpt lat="45.275771" lon="7.083755">
        <time>2023-04-27T12:43:04+00:00</time>
        <ele>2403.0</ele>
      </trkpt>
      <trkpt lat="45.27594" lon="7.083896">
        <time>2023-04-27T12:43:19+00:00</time>
        <ele>2401.0</ele>
      </trkpt>
      <trkpt lat="45.276063" lon="7.083908">
        <time>2023-04-27T12:43:24+00:00</time>
        <ele>2402.0</ele>
      </trkpt>
      <trkpt lat="45.276243" lon="7.083992">
        <time>2023-04-27T12:43:34+00:00</time>
        <ele>2400.0</ele>
      </trkpt>
      <trkpt lat="45.27653" lon="7.084383">
        <time>2023-04-27T12:44:01+00:00</time>
        <ele>2398.0</ele>
      </trkpt>
      <trkpt lat="45.27658" lon="7.084479">
        <time>2023-04-27T12:44:04+00:00</time>
        <ele>2397.0</ele>
      </trkpt>
      <trkpt lat="45.276595" lon="7.084504">
        <time>2023-04-27T12:44:05+00:00</time>
        <ele>2396.0</ele>
      </trkpt>
      <trkpt lat="45.276678" lon="7.084569">
        <time>2023-04-27T12:45:04+00:00</time>
        <ele>2396.0</ele>
      </trkpt>
      <trkpt lat="45.276805" lon="7.084651">
        <time>2023-04-27T12:45:12+00:00</time>
        <ele>2395.0</ele>
      </trkpt>
      <trkpt lat="45.277014" lon="7.084689">
        <time>2023-04-27T12:45:27+00:00</time>
        <ele>2394.0</ele>
      </trkpt>
      <trkpt lat="45.277097" lon="7.084682">
        <time>2023-04-27T12:45:31+00:00</time>
        <ele>2394.0</ele>
      </trkpt>
      <trkpt lat="45.277135" lon="7.084686">
        <time>2023-04-27T12:45:32+00:00</time>
        <ele>2394.0</ele>
      </trkpt>
      <trkpt lat="45.277172" lon="7.084751">
        <time>2023-04-27T12:45:34+00:00</time>
        <ele>2392.0</ele>
      </trkpt>
      <trkpt lat="45.277171" lon="7.084808">
        <time>2023-04-27T12:45:36+00:00</time>
        <ele>2391.0</ele>
      </trkpt>
      <trkpt lat="45.277244" lon="7.084948">
        <time>2023-04-27T12:45:40+00:00</time>
        <ele>2389.0</ele>
      </trkpt>
      <trkpt lat="45.277291" lon="7.085067">
        <time>2023-04-27T12:46:12+00:00</time>
        <ele>2387.0</ele>
      </trkpt>
      <trkpt lat="45.277419" lon="7.085196">
        <time>2023-04-27T12:46:27+00:00</time>
        <ele>2387.0</ele>
      </trkpt>
      <trkpt lat="45.277496" lon="7.085307">
        <time>2023-04-27T12:46:31+00:00</time>
        <ele>2386.0</ele>
      </trkpt>
      <trkpt lat="45.277518" lon="7.085298">
        <time>2023-04-27T12:46:35+00:00</time>
        <ele>2386.0</ele>
      </trkpt>
      <trkpt lat="45.277516" lon="7.085273">
        <time>2023-04-27T12:46:45+00:00</time>
        <ele>2387.0</ele>
      </trkpt>
      <trkpt lat="45.27754" lon="7.085229">
        <time>2023-04-27T12:46:47+00:00</time>
        <ele>2388.0</ele>
      </trkpt>
      <trkpt lat="45.27755" lon="7.085206">
        <time>2023-04-27T12:47:07+00:00</time>
        <ele>2388.0</ele>
      </trkpt>
      <trkpt lat="45.27764" lon="7.085145">
        <time>2023-04-27T12:47:20+00:00</time>
        <ele>2388.0</ele>
      </trkpt>
      <trkpt lat="45.27781" lon="7.085121">
        <time>2023-04-27T12:47:34+00:00</time>
        <ele>2385.0</ele>
      </trkpt>
      <trkpt lat="45.277839" lon="7.085148">
        <time>2023-04-27T12:47:38+00:00</time>
        <ele>2384.0</ele>
      </trkpt>
      <trkpt lat="45.277824" lon="7.085214">
        <time>2023-04-27T12:47:40+00:00</time>
        <ele>2382.0</ele>
      </trkpt>
      <trkpt lat="45.277803" lon="7.085238">
        <time>2023-04-27T12:47:41+00:00</time>
        <ele>2381.0</ele>
      </trkpt>
      <trkpt lat="45.277785" lon="7.085267">
        <time>2023-04-27T12:47:42+00:00</time>
        <ele>2381.0</ele>
      </trkpt>
      <trkpt lat="45.277839" lon="7.085344">
        <time>2023-04-27T12:47:47+00:00</time>
        <ele>2377.0</ele>
      </trkpt>
      <trkpt lat="45.278397" lon="7.085598">
        <time>2023-04-27T12:48:07+00:00</time>
        <ele>2369.0</ele>
      </trkpt>
      <trkpt lat="45.278655" lon="7.085622">
        <time>2023-04-27T12:48:15+00:00</time>
        <ele>2368.0</ele>
      </trkpt>
      <trkpt lat="45.278855" lon="7.085568">
        <time>2023-04-27T12:48:45+00:00</time>
        <ele>2367.0</ele>
      </trkpt>
      <trkpt lat="45.279129" lon="7.085523">
        <time>2023-04-27T12:48:52+00:00</time>
        <ele>2363.0</ele>
      </trkpt>
      <trkpt lat="45.279429" lon="7.085607">
        <time>2023-04-27T12:49:02+00:00</time>
        <ele>2358.0</ele>
      </trkpt>
      <trkpt lat="45.279518" lon="7.085651">
        <time>2023-04-27T12:49:05+00:00</time>
        <ele>2356.0</ele>
      </trkpt>
      <trkpt lat="45.279593" lon="7.085659">
        <time>2023-04-27T12:49:07+00:00</time>
        <ele>2356.0</ele>
      </trkpt>
      <trkpt lat="45.279729" lon="7.085629">
        <time>2023-04-27T12:49:12+00:00</time>
        <ele>2356.0</ele>
      </trkpt>
      <trkpt lat="45.279873" lon="7.085681">
        <time>2023-04-27T12:49:44+00:00</time>
        <ele>2352.0</ele>
      </trkpt>
      <trkpt lat="45.279978" lon="7.085716">
        <time>2023-04-27T12:49:49+00:00</time>
        <ele>2350.0</ele>
      </trkpt>
      <trkpt lat="45.280071" lon="7.085775">
        <time>2023-04-27T12:49:52+00:00</time>
        <ele>2347.0</ele>
      </trkpt>
      <trkpt lat="45.2803" lon="7.085844">
        <time>2023-04-27T12:49:57+00:00</time>
        <ele>2344.0</ele>
      </trkpt>
      <trkpt lat="45.280434" lon="7.085906">
        <time>2023-04-27T12:50:02+00:00</time>
        <ele>2342.0</ele>
      </trkpt>
      <trkpt lat="45.280808" lon="7.08597">
        <time>2023-04-27T12:50:12+00:00</time>
        <ele>2340.0</ele>
      </trkpt>
      <trkpt lat="45.281238" lon="7.085896">
        <time>2023-04-27T12:50:27+00:00</time>
        <ele>2336.0</ele>
      </trkpt>
      <trkpt lat="45.281367" lon="7.085799">
        <time>2023-04-27T12:50:34+00:00</time>
        <ele>2336.0</ele>
      </trkpt>
      <trkpt lat="45.281399" lon="7.085762">
        <time>2023-04-27T12:50:36+00:00</time>
        <ele>2337.0</ele>
      </trkpt>
      <trkpt lat="45.281438" lon="7.085728">
        <time>2023-04-27T12:50:38+00:00</time>
        <ele>2337.0</ele>
      </trkpt>
      <trkpt lat="45.281482" lon="7.085723">
        <time>2023-04-27T12:50:40+00:00</time>
        <ele>2336.0</ele>
      </trkpt>
      <trkpt lat="45.281465" lon="7.085752">
        <time>2023-04-27T12:50:49+00:00</time>
        <ele>2335.0</ele>
      </trkpt>
      <trkpt lat="45.281485" lon="7.08578">
        <time>2023-04-27T12:51:32+00:00</time>
        <ele>2334.0</ele>
      </trkpt>
      <trkpt lat="45.281632" lon="7.0859">
        <time>2023-04-27T12:51:36+00:00</time>
        <ele>2329.0</ele>
      </trkpt>
      <trkpt lat="45.281678" lon="7.085923">
        <time>2023-04-27T12:51:37+00:00</time>
        <ele>2329.0</ele>
      </trkpt>
      <trkpt lat="45.281889" lon="7.085908">
        <time>2023-04-27T12:51:42+00:00</time>
        <ele>2327.0</ele>
      </trkpt>
      <trkpt lat="45.281991" lon="7.085919">
        <time>2023-04-27T12:51:47+00:00</time>
        <ele>2325.0</ele>
      </trkpt>
      <trkpt lat="45.282018" lon="7.085908">
        <time>2023-04-27T12:51:50+00:00</time>
        <ele>2325.0</ele>
      </trkpt>
      <trkpt lat="45.282045" lon="7.085871">
        <time>2023-04-27T12:51:54+00:00</time>
        <ele>2326.0</ele>
      </trkpt>
      <trkpt lat="45.282071" lon="7.085847">
        <time>2023-04-27T12:51:58+00:00</time>
        <ele>2326.0</ele>
      </trkpt>
      <trkpt lat="45.282095" lon="7.085819">
        <time>2023-04-27T12:52:00+00:00</time>
        <ele>2326.0</ele>
      </trkpt>
      <trkpt lat="45.282229" lon="7.085787">
        <time>2023-04-27T12:52:06+00:00</time>
        <ele>2325.0</ele>
      </trkpt>
      <trkpt lat="45.282258" lon="7.085801">
        <time>2023-04-27T12:52:07+00:00</time>
        <ele>2324.0</ele>
      </trkpt>
      <trkpt lat="45.282289" lon="7.085828">
        <time>2023-04-27T12:52:08+00:00</time>
        <ele>2323.0</ele>
      </trkpt>
      <trkpt lat="45.282317" lon="7.085856">
        <time>2023-04-27T12:52:12+00:00</time>
        <ele>2323.0</ele>
      </trkpt>
      <trkpt lat="45.282447" lon="7.085955">
        <time>2023-04-27T12:52:23+00:00</time>
        <ele>2321.0</ele>
      </trkpt>
      <trkpt lat="45.28252" lon="7.08599">
        <time>2023-04-27T12:52:43+00:00</time>
        <ele>2321.0</ele>
      </trkpt>
      <trkpt lat="45.282538" lon="7.086">
        <time>2023-04-27T12:52:45+00:00</time>
        <ele>2321.0</ele>
      </trkpt>
      <trkpt lat="45.282616" lon="7.086039">
        <time>2023-04-27T12:52:51+00:00</time>
        <ele>2320.0</ele>
      </trkpt>
      <trkpt lat="45.282645" lon="7.086056">
        <time>2023-04-27T12:52:52+00:00</time>
        <ele>2320.0</ele>
      </trkpt>
      <trkpt lat="45.282674" lon="7.086082">
        <time>2023-04-27T12:52:53+00:00</time>
        <ele>2319.0</ele>
      </trkpt>
      <trkpt lat="45.282691" lon="7.086096">
        <time>2023-04-27T12:52:57+00:00</time>
        <ele>2319.0</ele>
      </trkpt>
      <trkpt lat="45.282723" lon="7.08607">
        <time>2023-04-27T12:53:16+00:00</time>
        <ele>2319.0</ele>
      </trkpt>
      <trkpt lat="45.282793" lon="7.085997">
        <time>2023-04-27T12:53:18+00:00</time>
        <ele>2320.0</ele>
      </trkpt>
      <trkpt lat="45.282848" lon="7.085983">
        <time>2023-04-27T12:53:20+00:00</time>
        <ele>2320.0</ele>
      </trkpt>
      <trkpt lat="45.282877" lon="7.085975">
        <time>2023-04-27T12:53:22+00:00</time>
        <ele>2320.0</ele>
      </trkpt>
      <trkpt lat="45.28289" lon="7.086032">
        <time>2023-04-27T12:53:25+00:00</time>
        <ele>2317.0</ele>
      </trkpt>
      <trkpt lat="45.282979" lon="7.086078">
        <time>2023-04-27T12:53:30+00:00</time>
        <ele>2312.0</ele>
      </trkpt>
      <trkpt lat="45.28321" lon="7.085936">
        <time>2023-04-27T12:53:35+00:00</time>
        <ele>2307.0</ele>
      </trkpt>
      <trkpt lat="45.283245" lon="7.085932">
        <time>2023-04-27T12:53:36+00:00</time>
        <ele>2306.0</ele>
      </trkpt>
      <trkpt lat="45.283279" lon="7.085935">
        <time>2023-04-27T12:53:45+00:00</time>
        <ele>2305.0</ele>
      </trkpt>
      <trkpt lat="45.283311" lon="7.085912">
        <time>2023-04-27T12:53:53+00:00</time>
        <ele>2305.0</ele>
      </trkpt>
      <trkpt lat="45.28333" lon="7.085878">
        <time>2023-04-27T12:53:57+00:00</time>
        <ele>2306.0</ele>
      </trkpt>
      <trkpt lat="45.283731" lon="7.08555">
        <time>2023-04-27T12:54:16+00:00</time>
        <ele>2307.0</ele>
      </trkpt>
      <trkpt lat="45.283783" lon="7.085533">
        <time>2023-04-27T12:54:18+00:00</time>
        <ele>2305.0</ele>
      </trkpt>
      <trkpt lat="45.283885" lon="7.085539">
        <time>2023-04-27T12:54:23+00:00</time>
        <ele>2302.0</ele>
      </trkpt>
      <trkpt lat="45.283998" lon="7.085458">
        <time>2023-04-27T12:54:30+00:00</time>
        <ele>2301.0</ele>
      </trkpt>
      <trkpt lat="45.284039" lon="7.085442">
        <time>2023-04-27T12:54:32+00:00</time>
        <ele>2301.0</ele>
      </trkpt>
      <trkpt lat="45.284101" lon="7.085473">
        <time>2023-04-27T12:54:35+00:00</time>
        <ele>2299.0</ele>
      </trkpt>
      <trkpt lat="45.284134" lon="7.085495">
        <time>2023-04-27T12:55:21+00:00</time>
        <ele>2298.0</ele>
      </trkpt>
      <trkpt lat="45.284161" lon="7.085532">
        <time>2023-04-27T12:55:28+00:00</time>
        <ele>2297.0</ele>
      </trkpt>
      <trkpt lat="45.284495" lon="7.085567">
        <time>2023-04-27T12:55:40+00:00</time>
        <ele>2294.0</ele>
      </trkpt>
      <trkpt lat="45.284626" lon="7.085553">
        <time>2023-04-27T12:55:45+00:00</time>
        <ele>2294.0</ele>
      </trkpt>
      <trkpt lat="45.284761" lon="7.085489">
        <time>2023-04-27T12:55:52+00:00</time>
        <ele>2296.0</ele>
      </trkpt>
      <trkpt lat="45.28485" lon="7.085496">
        <time>2023-04-27T12:55:55+00:00</time>
        <ele>2294.0</ele>
      </trkpt>
      <trkpt lat="45.285009" lon="7.085337">
        <time>2023-04-27T12:56:01+00:00</time>
        <ele>2293.0</ele>
      </trkpt>
      <trkpt lat="45.285123" lon="7.085277">
        <time>2023-04-27T12:56:28+00:00</time>
        <ele>2292.0</ele>
      </trkpt>
      <trkpt lat="45.285173" lon="7.085242">
        <time>2023-04-27T12:56:35+00:00</time>
        <ele>2293.0</ele>
      </trkpt>
      <trkpt lat="45.285392" lon="7.085094">
        <time>2023-04-27T12:56:52+00:00</time>
        <ele>2293.0</ele>
      </trkpt>
      <trkpt lat="45.285476" lon="7.085058">
        <time>2023-04-27T12:56:54+00:00</time>
        <ele>2293.0</ele>
      </trkpt>
      <trkpt lat="45.286008" lon="7.084763">
        <time>2023-04-27T12:57:06+00:00</time>
        <ele>2284.0</ele>
      </trkpt>
      <trkpt lat="45.286127" lon="7.084648">
        <time>2023-04-27T12:59:05+00:00</time>
        <ele>2284.0</ele>
      </trkpt>
      <trkpt lat="45.286172" lon="7.084608">
        <time>2023-04-27T12:59:07+00:00</time>
        <ele>2283.0</ele>
      </trkpt>
      <trkpt lat="45.28624" lon="7.084721">
        <time>2023-04-27T12:59:10+00:00</time>
        <ele>2280.0</ele>
      </trkpt>
      <trkpt lat="45.286229" lon="7.084792">
        <time>2023-04-27T12:59:11+00:00</time>
        <ele>2279.0</ele>
      </trkpt>
      <trkpt lat="45.286234" lon="7.084868">
        <time>2023-04-27T12:59:13+00:00</time>
        <ele>2280.0</ele>
      </trkpt>
      <trkpt lat="45.286278" lon="7.084889">
        <time>2023-04-27T12:59:15+00:00</time>
        <ele>2279.0</ele>
      </trkpt>
      <trkpt lat="45.286308" lon="7.084835">
        <time>2023-04-27T12:59:16+00:00</time>
        <ele>2278.0</ele>
      </trkpt>
      <trkpt lat="45.28633" lon="7.084702">
        <time>2023-04-27T12:59:18+00:00</time>
        <ele>2277.0</ele>
      </trkpt>
      <trkpt lat="45.286383" lon="7.084529">
        <time>2023-04-27T12:59:22+00:00</time>
        <ele>2276.0</ele>
      </trkpt>
      <trkpt lat="45.286734" lon="7.084412">
        <time>2023-04-27T12:59:28+00:00</time>
        <ele>2265.0</ele>
      </trkpt>
      <trkpt lat="45.286899" lon="7.084331">
        <time>2023-04-27T12:59:32+00:00</time>
        <ele>2262.0</ele>
      </trkpt>
      <trkpt lat="45.28716" lon="7.084124">
        <time>2023-04-27T12:59:42+00:00</time>
        <ele>2260.0</ele>
      </trkpt>
      <trkpt lat="45.287256" lon="7.084024">
        <time>2023-04-27T12:59:46+00:00</time>
        <ele>2258.0</ele>
      </trkpt>
      <trkpt lat="45.28733" lon="7.083953">
        <time>2023-04-27T12:59:50+00:00</time>
        <ele>2257.0</ele>
      </trkpt>
      <trkpt lat="45.287372" lon="7.083922">
        <time>2023-04-27T13:00:07+00:00</time>
        <ele>2256.0</ele>
      </trkpt>
      <trkpt lat="45.287606" lon="7.083843">
        <time>2023-04-27T13:00:12+00:00</time>
        <ele>2250.0</ele>
      </trkpt>
      <trkpt lat="45.288228" lon="7.083697">
        <time>2023-04-27T13:00:28+00:00</time>
        <ele>2242.0</ele>
      </trkpt>
      <trkpt lat="45.288417" lon="7.083806">
        <time>2023-04-27T13:00:32+00:00</time>
        <ele>2239.0</ele>
      </trkpt>
      <trkpt lat="45.288591" lon="7.083883">
        <time>2023-04-27T13:00:36+00:00</time>
        <ele>2237.0</ele>
      </trkpt>
      <trkpt lat="45.288901" lon="7.083782">
        <time>2023-04-27T13:00:45+00:00</time>
        <ele>2236.0</ele>
      </trkpt>
      <trkpt lat="45.288936" lon="7.083785">
        <time>2023-04-27T13:00:46+00:00</time>
        <ele>2235.0</ele>
      </trkpt>
      <trkpt lat="45.288967" lon="7.083825">
        <time>2023-04-27T13:00:47+00:00</time>
        <ele>2234.0</ele>
      </trkpt>
      <trkpt lat="45.288984" lon="7.083877">
        <time>2023-04-27T13:00:48+00:00</time>
        <ele>2233.0</ele>
      </trkpt>
      <trkpt lat="45.288982" lon="7.083944">
        <time>2023-04-27T13:00:49+00:00</time>
        <ele>2232.0</ele>
      </trkpt>
      <trkpt lat="45.289048" lon="7.083989">
        <time>2023-04-27T13:00:52+00:00</time>
        <ele>2230.0</ele>
      </trkpt>
      <trkpt lat="45.289162" lon="7.084124">
        <time>2023-04-27T13:00:55+00:00</time>
        <ele>2227.0</ele>
      </trkpt>
      <trkpt lat="45.289236" lon="7.084086">
        <time>2023-04-27T13:00:57+00:00</time>
        <ele>2226.0</ele>
      </trkpt>
      <trkpt lat="45.289293" lon="7.084037">
        <time>2023-04-27T13:00:59+00:00</time>
        <ele>2226.0</ele>
      </trkpt>
      <trkpt lat="45.289429" lon="7.083965">
        <time>2023-04-27T13:01:03+00:00</time>
        <ele>2224.0</ele>
      </trkpt>
      <trkpt lat="45.28949" lon="7.083965">
        <time>2023-04-27T13:01:05+00:00</time>
        <ele>2223.0</ele>
      </trkpt>
      <trkpt lat="45.289527" lon="7.084008">
        <time>2023-04-27T13:01:06+00:00</time>
        <ele>2221.0</ele>
      </trkpt>
      <trkpt lat="45.289537" lon="7.084077">
        <time>2023-04-27T13:01:07+00:00</time>
        <ele>2220.0</ele>
      </trkpt>
      <trkpt lat="45.289534" lon="7.084132">
        <time>2023-04-27T13:01:08+00:00</time>
        <ele>2219.0</ele>
      </trkpt>
      <trkpt lat="45.289497" lon="7.084161">
        <time>2023-04-27T13:01:10+00:00</time>
        <ele>2220.0</ele>
      </trkpt>
      <trkpt lat="45.289514" lon="7.084093">
        <time>2023-04-27T13:01:20+00:00</time>
        <ele>2220.0</ele>
      </trkpt>
      <trkpt lat="45.289561" lon="7.084158">
        <time>2023-04-27T13:01:25+00:00</time>
        <ele>2219.0</ele>
      </trkpt>
      <trkpt lat="45.289603" lon="7.084157">
        <time>2023-04-27T13:01:27+00:00</time>
        <ele>2218.0</ele>
      </trkpt>
      <trkpt lat="45.289682" lon="7.084167">
        <time>2023-04-27T13:01:30+00:00</time>
        <ele>2217.0</ele>
      </trkpt>
      <trkpt lat="45.28971" lon="7.084222">
        <time>2023-04-27T13:01:31+00:00</time>
        <ele>2215.0</ele>
      </trkpt>
      <trkpt lat="45.289755" lon="7.08424">
        <time>2023-04-27T13:01:32+00:00</time>
        <ele>2215.0</ele>
      </trkpt>
      <trkpt lat="45.289847" lon="7.084239">
        <time>2023-04-27T13:01:34+00:00</time>
        <ele>2214.0</ele>
      </trkpt>
      <trkpt lat="45.290055" lon="7.084166">
        <time>2023-04-27T13:01:39+00:00</time>
        <ele>2211.0</ele>
      </trkpt>
      <trkpt lat="45.290087" lon="7.084206">
        <time>2023-04-27T13:01:51+00:00</time>
        <ele>2210.0</ele>
      </trkpt>
      <trkpt lat="45.290074" lon="7.084268">
        <time>2023-04-27T13:01:52+00:00</time>
        <ele>2208.0</ele>
      </trkpt>
      <trkpt lat="45.28998" lon="7.084461">
        <time>2023-04-27T13:01:57+00:00</time>
        <ele>2205.0</ele>
      </trkpt>
      <trkpt lat="45.289954" lon="7.084493">
        <time>2023-04-27T13:02:00+00:00</time>
        <ele>2204.0</ele>
      </trkpt>
      <trkpt lat="45.289987" lon="7.084535">
        <time>2023-04-27T13:02:07+00:00</time>
        <ele>2203.0</ele>
      </trkpt>
      <trkpt lat="45.290025" lon="7.084607">
        <time>2023-04-27T13:02:10+00:00</time>
        <ele>2202.0</ele>
      </trkpt>
      <trkpt lat="45.290018" lon="7.084664">
        <time>2023-04-27T13:02:11+00:00</time>
        <ele>2202.0</ele>
      </trkpt>
      <trkpt lat="45.289974" lon="7.084752">
        <time>2023-04-27T13:02:13+00:00</time>
        <ele>2201.0</ele>
      </trkpt>
      <trkpt lat="45.290119" lon="7.08477">
        <time>2023-04-27T13:02:47+00:00</time>
        <ele>2201.0</ele>
      </trkpt>
      <trkpt lat="45.290153" lon="7.084798">
        <time>2023-04-27T13:02:50+00:00</time>
        <ele>2201.0</ele>
      </trkpt>
      <trkpt lat="45.290184" lon="7.084816">
        <time>2023-04-27T13:02:53+00:00</time>
        <ele>2202.0</ele>
      </trkpt>
      <trkpt lat="45.290205" lon="7.084862">
        <time>2023-04-27T13:02:56+00:00</time>
        <ele>2204.0</ele>
      </trkpt>
      <trkpt lat="45.290245" lon="7.084865">
        <time>2023-04-27T13:03:30+00:00</time>
        <ele>2205.0</ele>
      </trkpt>
      <trkpt lat="45.290319" lon="7.084858">
        <time>2023-04-27T13:03:43+00:00</time>
        <ele>2206.0</ele>
      </trkpt>
      <trkpt lat="45.290443" lon="7.084782">
        <time>2023-04-27T13:03:58+00:00</time>
        <ele>2203.0</ele>
      </trkpt>
      <trkpt lat="45.290473" lon="7.084802">
        <time>2023-04-27T13:04:35+00:00</time>
        <ele>2205.0</ele>
      </trkpt>
      <trkpt lat="45.290502" lon="7.084783">
        <time>2023-04-27T13:04:46+00:00</time>
        <ele>2204.0</ele>
      </trkpt>
      <trkpt lat="45.290529" lon="7.084797">
        <time>2023-04-27T13:05:12+00:00</time>
        <ele>2206.0</ele>
      </trkpt>
      <trkpt lat="45.29056" lon="7.084808">
        <time>2023-04-27T13:05:21+00:00</time>
        <ele>2208.0</ele>
      </trkpt>
      <trkpt lat="45.290586" lon="7.084831">
        <time>2023-04-27T13:05:51+00:00</time>
        <ele>2210.0</ele>
      </trkpt>
      <trkpt lat="45.290612" lon="7.084818">
        <time>2023-04-27T13:06:07+00:00</time>
        <ele>2210.0</ele>
      </trkpt>
      <trkpt lat="45.290644" lon="7.084795">
        <time>2023-04-27T13:07:00+00:00</time>
        <ele>2208.0</ele>
      </trkpt>
      <trkpt lat="45.290675" lon="7.084811">
        <time>2023-04-27T13:07:10+00:00</time>
        <ele>2210.0</ele>
      </trkpt>
      <trkpt lat="45.290713" lon="7.084807">
        <time>2023-04-27T13:07:26+00:00</time>
        <ele>2210.0</ele>
      </trkpt>
      <trkpt lat="45.290863" lon="7.08482">
        <time>2023-04-27T13:08:07+00:00</time>
        <ele>2212.0</ele>
      </trkpt>
      <trkpt lat="45.291045" lon="7.084772">
        <time>2023-04-27T13:08:23+00:00</time>
        <ele>2207.0</ele>
      </trkpt>
      <trkpt lat="45.291087" lon="7.084766">
        <time>2023-04-27T13:08:27+00:00</time>
        <ele>2206.0</ele>
      </trkpt>
      <trkpt lat="45.291111" lon="7.084813">
        <time>2023-04-27T13:08:41+00:00</time>
        <ele>2208.0</ele>
      </trkpt>
      <trkpt lat="45.291144" lon="7.084834">
        <time>2023-04-27T13:08:46+00:00</time>
        <ele>2208.0</ele>
      </trkpt>
      <trkpt lat="45.291208" lon="7.084964">
        <time>2023-04-27T13:09:01+00:00</time>
        <ele>2210.0</ele>
      </trkpt>
      <trkpt lat="45.291235" lon="7.085019">
        <time>2023-04-27T13:09:03+00:00</time>
        <ele>2211.0</ele>
      </trkpt>
      <trkpt lat="45.291417" lon="7.085375">
        <time>2023-04-27T13:09:11+00:00</time>
        <ele>2209.0</ele>
      </trkpt>
      <trkpt lat="45.291468" lon="7.085579">
        <time>2023-04-27T13:09:15+00:00</time>
        <ele>2208.0</ele>
      </trkpt>
      <trkpt lat="45.291643" lon="7.085914">
        <time>2023-04-27T13:09:27+00:00</time>
        <ele>2197.0</ele>
      </trkpt>
      <trkpt lat="45.291671" lon="7.085951">
        <time>2023-04-27T13:09:30+00:00</time>
        <ele>2196.0</ele>
      </trkpt>
      <trkpt lat="45.291711" lon="7.08604">
        <time>2023-04-27T13:09:55+00:00</time>
        <ele>2196.0</ele>
      </trkpt>
      <trkpt lat="45.291991" lon="7.086748">
        <time>2023-04-27T13:10:17+00:00</time>
        <ele>2195.0</ele>
      </trkpt>
      <trkpt lat="45.291987" lon="7.086861">
        <time>2023-04-27T13:10:20+00:00</time>
        <ele>2196.0</ele>
      </trkpt>
      <trkpt lat="45.29199" lon="7.086948">
        <time>2023-04-27T13:10:23+00:00</time>
        <ele>2197.0</ele>
      </trkpt>
      <trkpt lat="45.292092" lon="7.087178">
        <time>2023-04-27T13:10:28+00:00</time>
        <ele>2196.0</ele>
      </trkpt>
      <trkpt lat="45.292312" lon="7.087554">
        <time>2023-04-27T13:10:35+00:00</time>
        <ele>2193.0</ele>
      </trkpt>
      <trkpt lat="45.292489" lon="7.087725">
        <time>2023-04-27T13:10:40+00:00</time>
        <ele>2189.0</ele>
      </trkpt>
      <trkpt lat="45.292539" lon="7.087719">
        <time>2023-04-27T13:10:50+00:00</time>
        <ele>2186.0</ele>
      </trkpt>
      <trkpt lat="45.292579" lon="7.08776">
        <time>2023-04-27T13:11:21+00:00</time>
        <ele>2186.0</ele>
      </trkpt>
      <trkpt lat="45.292718" lon="7.08791">
        <time>2023-04-27T13:11:25+00:00</time>
        <ele>2184.0</ele>
      </trkpt>
      <trkpt lat="45.292756" lon="7.087938">
        <time>2023-04-27T13:11:26+00:00</time>
        <ele>2184.0</ele>
      </trkpt>
      <trkpt lat="45.292827" lon="7.087943">
        <time>2023-04-27T13:11:28+00:00</time>
        <ele>2182.0</ele>
      </trkpt>
      <trkpt lat="45.293105" lon="7.088029">
        <time>2023-04-27T13:11:36+00:00</time>
        <ele>2178.0</ele>
      </trkpt>
      <trkpt lat="45.293494" lon="7.088292">
        <time>2023-04-27T13:11:47+00:00</time>
        <ele>2173.0</ele>
      </trkpt>
      <trkpt lat="45.293531" lon="7.088331">
        <time>2023-04-27T13:11:50+00:00</time>
        <ele>2172.0</ele>
      </trkpt>
      <trkpt lat="45.293579" lon="7.088309">
        <time>2023-04-27T13:12:01+00:00</time>
        <ele>2170.0</ele>
      </trkpt>
      <trkpt lat="45.293645" lon="7.088576">
        <time>2023-04-27T13:12:25+00:00</time>
        <ele>2170.0</ele>
      </trkpt>
      <trkpt lat="45.293693" lon="7.088536">
        <time>2023-04-27T13:12:27+00:00</time>
        <ele>2167.0</ele>
      </trkpt>
      <trkpt lat="45.293696" lon="7.088462">
        <time>2023-04-27T13:12:28+00:00</time>
        <ele>2166.0</ele>
      </trkpt>
      <trkpt lat="45.293667" lon="7.088248">
        <time>2023-04-27T13:12:32+00:00</time>
        <ele>2165.0</ele>
      </trkpt>
      <trkpt lat="45.293665" lon="7.088194">
        <time>2023-04-27T13:12:34+00:00</time>
        <ele>2165.0</ele>
      </trkpt>
      <trkpt lat="45.293697" lon="7.08814">
        <time>2023-04-27T13:12:37+00:00</time>
        <ele>2162.0</ele>
      </trkpt>
      <trkpt lat="45.29374" lon="7.088175">
        <time>2023-04-27T13:12:38+00:00</time>
        <ele>2160.0</ele>
      </trkpt>
      <trkpt lat="45.293902" lon="7.088521">
        <time>2023-04-27T13:12:43+00:00</time>
        <ele>2154.0</ele>
      </trkpt>
      <trkpt lat="45.293974" lon="7.088621">
        <time>2023-04-27T13:12:45+00:00</time>
        <ele>2152.0</ele>
      </trkpt>
      <trkpt lat="45.294004" lon="7.088647">
        <time>2023-04-27T13:12:46+00:00</time>
        <ele>2151.0</ele>
      </trkpt>
      <trkpt lat="45.294039" lon="7.088669">
        <time>2023-04-27T13:12:48+00:00</time>
        <ele>2150.0</ele>
      </trkpt>
      <trkpt lat="45.294074" lon="7.088666">
        <time>2023-04-27T13:12:52+00:00</time>
        <ele>2149.0</ele>
      </trkpt>
      <trkpt lat="45.294131" lon="7.08865">
        <time>2023-04-27T13:12:55+00:00</time>
        <ele>2148.0</ele>
      </trkpt>
      <trkpt lat="45.294151" lon="7.088606">
        <time>2023-04-27T13:12:57+00:00</time>
        <ele>2147.0</ele>
      </trkpt>
      <trkpt lat="45.294161" lon="7.088501">
        <time>2023-04-27T13:13:00+00:00</time>
        <ele>2146.0</ele>
      </trkpt>
      <trkpt lat="45.294146" lon="7.088443">
        <time>2023-04-27T13:13:02+00:00</time>
        <ele>2146.0</ele>
      </trkpt>
      <trkpt lat="45.294161" lon="7.088394">
        <time>2023-04-27T13:13:05+00:00</time>
        <ele>2146.0</ele>
      </trkpt>
      <trkpt lat="45.294198" lon="7.088426">
        <time>2023-04-27T13:13:07+00:00</time>
        <ele>2146.0</ele>
      </trkpt>
      <trkpt lat="45.294219" lon="7.088382">
        <time>2023-04-27T13:14:52+00:00</time>
        <ele>2145.0</ele>
      </trkpt>
      <trkpt lat="45.294249" lon="7.088411">
        <time>2023-04-27T13:17:23+00:00</time>
        <ele>2145.0</ele>
      </trkpt>
      <trkpt lat="45.294234" lon="7.088428">
        <time>2023-04-27T13:17:26+00:00</time>
        <ele>2145.0</ele>
      </trkpt>
      <trkpt lat="45.294212" lon="7.088431">
        <time>2023-04-27T13:17:35+00:00</time>
        <ele>2145.0</ele>
      </trkpt>
      <trkpt lat="45.294196" lon="7.088419">
        <time>2023-04-27T13:21:58+00:00</time>
        <ele>2146.0</ele>
      </trkpt>
      <trkpt lat="45.294216" lon="7.088367">
        <time>2023-04-27T13:22:40+00:00</time>
        <ele>2145.0</ele>
      </trkpt>
      <trkpt lat="45.294266" lon="7.088374">
        <time>2023-04-27T13:23:08+00:00</time>
        <ele>2145.0</ele>
      </trkpt>
      <trkpt lat="45.294085" lon="7.08833">
        <time>2023-04-27T13:23:40+00:00</time>
        <ele>2146.0</ele>
      </trkpt>
      <trkpt lat="45.294166" lon="7.088632">
        <time>2023-04-27T13:24:03+00:00</time>
        <ele>2147.0</ele>
      </trkpt>
      <trkpt lat="45.294302" lon="7.088579">
        <time>2023-04-27T13:24:10+00:00</time>
        <ele>2146.0</ele>
      </trkpt>
      <trkpt lat="45.294285" lon="7.088487">
        <time>2023-04-27T13:24:15+00:00</time>
        <ele>2146.0</ele>
      </trkpt>
      <trkpt lat="45.294289" lon="7.088434">
        <time>2023-04-27T13:25:00+00:00</time>
        <ele>2146.0</ele>
      </trkpt>
      <trkpt lat="45.294309" lon="7.088413">
        <time>2023-04-27T13:25:13+00:00</time>
        <ele>2146.0</ele>
      </trkpt>
      <trkpt lat="45.294329" lon="7.088432">
        <time>2023-04-27T13:25:22+00:00</time>
        <ele>2146.0</ele>
      </trkpt>
      <trkpt lat="45.294348" lon="7.088447">
        <time>2023-04-27T13:25:38+00:00</time>
        <ele>2147.0</ele>
      </trkpt>
      <trkpt lat="45.294363" lon="7.088471">
        <time>2023-04-27T13:25:48+00:00</time>
        <ele>2147.0</ele>
      </trkpt>
      <trkpt lat="45.29438" lon="7.088434">
        <time>2023-04-27T13:25:56+00:00</time>
        <ele>2147.0</ele>
      </trkpt>
      <trkpt lat="45.294402" lon="7.088447">
        <time>2023-04-27T13:26:23+00:00</time>
        <ele>2147.0</ele>
      </trkpt>
      <trkpt lat="45.294411" lon="7.088413">
        <time>2023-04-27T13:26:38+00:00</time>
        <ele>2147.0</ele>
      </trkpt>
      <trkpt lat="45.294415" lon="7.088349">
        <time>2023-04-27T13:26:46+00:00</time>
        <ele>2147.0</ele>
      </trkpt>
      <trkpt lat="45.294444" lon="7.088341">
        <time>2023-04-27T13:26:52+00:00</time>
        <ele>2148.0</ele>
      </trkpt>
      <trkpt lat="45.294474" lon="7.088354">
        <time>2023-04-27T13:27:06+00:00</time>
        <ele>2149.0</ele>
      </trkpt>
      <trkpt lat="45.294493" lon="7.088348">
        <time>2023-04-27T13:27:24+00:00</time>
        <ele>2150.0</ele>
      </trkpt>
      <trkpt lat="45.294515" lon="7.088351">
        <time>2023-04-27T13:27:27+00:00</time>
        <ele>2150.0</ele>
      </trkpt>
      <trkpt lat="45.294533" lon="7.088343">
        <time>2023-04-27T13:27:32+00:00</time>
        <ele>2151.0</ele>
      </trkpt>
      <trkpt lat="45.294545" lon="7.088308">
        <time>2023-04-27T13:27:47+00:00</time>
        <ele>2151.0</ele>
      </trkpt>
      <trkpt lat="45.294566" lon="7.088316">
        <time>2023-04-27T13:27:57+00:00</time>
        <ele>2151.0</ele>
      </trkpt>
      <trkpt lat="45.294578" lon="7.088281">
        <time>2023-04-27T13:28:04+00:00</time>
        <ele>2152.0</ele>
      </trkpt>
      <trkpt lat="45.294576" lon="7.08824">
        <time>2023-04-27T13:28:12+00:00</time>
        <ele>2151.0</ele>
      </trkpt>
      <trkpt lat="45.294583" lon="7.088204">
        <time>2023-04-27T13:28:16+00:00</time>
        <ele>2151.0</ele>
      </trkpt>
      <trkpt lat="45.294606" lon="7.08818">
        <time>2023-04-27T13:28:26+00:00</time>
        <ele>2152.0</ele>
      </trkpt>
      <trkpt lat="45.294622" lon="7.08816">
        <time>2023-04-27T13:28:32+00:00</time>
        <ele>2152.0</ele>
      </trkpt>
      <trkpt lat="45.294635" lon="7.088133">
        <time>2023-04-27T13:28:45+00:00</time>
        <ele>2152.0</ele>
      </trkpt>
      <trkpt lat="45.294657" lon="7.088115">
        <time>2023-04-27T13:28:49+00:00</time>
        <ele>2153.0</ele>
      </trkpt>
      <trkpt lat="45.294691" lon="7.088058">
        <time>2023-04-27T13:29:03+00:00</time>
        <ele>2153.0</ele>
      </trkpt>
      <trkpt lat="45.29471" lon="7.088044">
        <time>2023-04-27T13:29:13+00:00</time>
        <ele>2153.0</ele>
      </trkpt>
      <trkpt lat="45.29472" lon="7.088009">
        <time>2023-04-27T13:29:25+00:00</time>
        <ele>2153.0</ele>
      </trkpt>
      <trkpt lat="45.294726" lon="7.087946">
        <time>2023-04-27T13:29:33+00:00</time>
        <ele>2153.0</ele>
      </trkpt>
      <trkpt lat="45.294746" lon="7.087911">
        <time>2023-04-27T13:29:37+00:00</time>
        <ele>2153.0</ele>
      </trkpt>
      <trkpt lat="45.294782" lon="7.087875">
        <time>2023-04-27T13:29:52+00:00</time>
        <ele>2153.0</ele>
      </trkpt>
      <trkpt lat="45.294789" lon="7.087849">
        <time>2023-04-27T13:29:58+00:00</time>
        <ele>2153.0</ele>
      </trkpt>
      <trkpt lat="45.294793" lon="7.087823">
        <time>2023-04-27T13:30:18+00:00</time>
        <ele>2153.0</ele>
      </trkpt>
      <trkpt lat="45.29486" lon="7.087793">
        <time>2023-04-27T13:30:39+00:00</time>
        <ele>2154.0</ele>
      </trkpt>
      <trkpt lat="45.294901" lon="7.087758">
        <time>2023-04-27T13:30:53+00:00</time>
        <ele>2155.0</ele>
      </trkpt>
      <trkpt lat="45.294927" lon="7.087757">
        <time>2023-04-27T13:30:59+00:00</time>
        <ele>2155.0</ele>
      </trkpt>
      <trkpt lat="45.294956" lon="7.087751">
        <time>2023-04-27T13:31:21+00:00</time>
        <ele>2156.0</ele>
      </trkpt>
      <trkpt lat="45.294982" lon="7.087748">
        <time>2023-04-27T13:31:31+00:00</time>
        <ele>2156.0</ele>
      </trkpt>
      <trkpt lat="45.294993" lon="7.087718">
        <time>2023-04-27T13:31:48+00:00</time>
        <ele>2157.0</ele>
      </trkpt>
      <trkpt lat="45.29501" lon="7.087698">
        <time>2023-04-27T13:31:54+00:00</time>
        <ele>2157.0</ele>
      </trkpt>
      <trkpt lat="45.295017" lon="7.087665">
        <time>2023-04-27T13:32:03+00:00</time>
        <ele>2157.0</ele>
      </trkpt>
      <trkpt lat="45.29504" lon="7.087664">
        <time>2023-04-27T13:32:16+00:00</time>
        <ele>2158.0</ele>
      </trkpt>
      <trkpt lat="45.295099" lon="7.087703">
        <time>2023-04-27T13:32:43+00:00</time>
        <ele>2159.0</ele>
      </trkpt>
      <trkpt lat="45.295121" lon="7.087715">
        <time>2023-04-27T13:32:47+00:00</time>
        <ele>2160.0</ele>
      </trkpt>
      <trkpt lat="45.295136" lon="7.087733">
        <time>2023-04-27T13:32:51+00:00</time>
        <ele>2160.0</ele>
      </trkpt>
      <trkpt lat="45.295151" lon="7.087762">
        <time>2023-04-27T13:32:57+00:00</time>
        <ele>2161.0</ele>
      </trkpt>
      <trkpt lat="45.295168" lon="7.087788">
        <time>2023-04-27T13:33:04+00:00</time>
        <ele>2161.0</ele>
      </trkpt>
      <trkpt lat="45.295184" lon="7.087805">
        <time>2023-04-27T13:33:37+00:00</time>
        <ele>2162.0</ele>
      </trkpt>
      <trkpt lat="45.295222" lon="7.087806">
        <time>2023-04-27T13:34:08+00:00</time>
        <ele>2163.0</ele>
      </trkpt>
      <trkpt lat="45.295245" lon="7.087831">
        <time>2023-04-27T13:34:57+00:00</time>
        <ele>2164.0</ele>
      </trkpt>
      <trkpt lat="45.295267" lon="7.087832">
        <time>2023-04-27T13:35:03+00:00</time>
        <ele>2164.0</ele>
      </trkpt>
      <trkpt lat="45.295334" lon="7.087897">
        <time>2023-04-27T13:35:37+00:00</time>
        <ele>2166.0</ele>
      </trkpt>
      <trkpt lat="45.295353" lon="7.0879">
        <time>2023-04-27T13:35:48+00:00</time>
        <ele>2167.0</ele>
      </trkpt>
      <trkpt lat="45.295365" lon="7.087931">
        <time>2023-04-27T13:36:03+00:00</time>
        <ele>2167.0</ele>
      </trkpt>
      <trkpt lat="45.295383" lon="7.087939">
        <time>2023-04-27T13:36:13+00:00</time>
        <ele>2168.0</ele>
      </trkpt>
      <trkpt lat="45.295404" lon="7.087956">
        <time>2023-04-27T13:36:20+00:00</time>
        <ele>2168.0</ele>
      </trkpt>
      <trkpt lat="45.295426" lon="7.087956">
        <time>2023-04-27T13:36:26+00:00</time>
        <ele>2169.0</ele>
      </trkpt>
      <trkpt lat="45.295474" lon="7.087989">
        <time>2023-04-27T13:36:42+00:00</time>
        <ele>2170.0</ele>
      </trkpt>
      <trkpt lat="45.2955" lon="7.087995">
        <time>2023-04-27T13:37:06+00:00</time>
        <ele>2171.0</ele>
      </trkpt>
      <trkpt lat="45.295578" lon="7.088048">
        <time>2023-04-27T13:37:39+00:00</time>
        <ele>2173.0</ele>
      </trkpt>
      <trkpt lat="45.295608" lon="7.088055">
        <time>2023-04-27T13:37:56+00:00</time>
        <ele>2174.0</ele>
      </trkpt>
      <trkpt lat="45.295627" lon="7.088064">
        <time>2023-04-27T13:38:07+00:00</time>
        <ele>2175.0</ele>
      </trkpt>
      <trkpt lat="45.295652" lon="7.088074">
        <time>2023-04-27T13:38:26+00:00</time>
        <ele>2175.0</ele>
      </trkpt>
      <trkpt lat="45.295673" lon="7.088073">
        <time>2023-04-27T13:38:36+00:00</time>
        <ele>2176.0</ele>
      </trkpt>
      <trkpt lat="45.29569" lon="7.088096">
        <time>2023-04-27T13:38:57+00:00</time>
        <ele>2177.0</ele>
      </trkpt>
      <trkpt lat="45.295711" lon="7.088103">
        <time>2023-04-27T13:39:02+00:00</time>
        <ele>2177.0</ele>
      </trkpt>
      <trkpt lat="45.295725" lon="7.088143">
        <time>2023-04-27T13:39:11+00:00</time>
        <ele>2178.0</ele>
      </trkpt>
      <trkpt lat="45.295747" lon="7.088154">
        <time>2023-04-27T13:39:22+00:00</time>
        <ele>2179.0</ele>
      </trkpt>
      <trkpt lat="45.295781" lon="7.08819">
        <time>2023-04-27T13:39:34+00:00</time>
        <ele>2179.0</ele>
      </trkpt>
      <trkpt lat="45.295805" lon="7.088204">
        <time>2023-04-27T13:39:41+00:00</time>
        <ele>2180.0</ele>
      </trkpt>
      <trkpt lat="45.295828" lon="7.08821">
        <time>2023-04-27T13:40:01+00:00</time>
        <ele>2181.0</ele>
      </trkpt>
      <trkpt lat="45.295848" lon="7.088208">
        <time>2023-04-27T13:40:04+00:00</time>
        <ele>2181.0</ele>
      </trkpt>
      <trkpt lat="45.29587" lon="7.088215">
        <time>2023-04-27T13:40:09+00:00</time>
        <ele>2181.0</ele>
      </trkpt>
      <trkpt lat="45.295915" lon="7.088208">
        <time>2023-04-27T13:40:21+00:00</time>
        <ele>2182.0</ele>
      </trkpt>
      <trkpt lat="45.29593" lon="7.088193">
        <time>2023-04-27T13:40:26+00:00</time>
        <ele>2182.0</ele>
      </trkpt>
      <trkpt lat="45.295952" lon="7.088192">
        <time>2023-04-27T13:40:31+00:00</time>
        <ele>2183.0</ele>
      </trkpt>
      <trkpt lat="45.295985" lon="7.088186">
        <time>2023-04-27T13:40:43+00:00</time>
        <ele>2183.0</ele>
      </trkpt>
      <trkpt lat="45.296007" lon="7.088181">
        <time>2023-04-27T13:40:46+00:00</time>
        <ele>2184.0</ele>
      </trkpt>
      <trkpt lat="45.296056" lon="7.088166">
        <time>2023-04-27T13:41:02+00:00</time>
        <ele>2184.0</ele>
      </trkpt>
      <trkpt lat="45.296074" lon="7.088147">
        <time>2023-04-27T13:41:06+00:00</time>
        <ele>2185.0</ele>
      </trkpt>
      <trkpt lat="45.296084" lon="7.088173">
        <time>2023-04-27T13:41:16+00:00</time>
        <ele>2185.0</ele>
      </trkpt>
      <trkpt lat="45.296103" lon="7.088158">
        <time>2023-04-27T13:41:21+00:00</time>
        <ele>2185.0</ele>
      </trkpt>
      <trkpt lat="45.29625" lon="7.088113">
        <time>2023-04-27T13:41:52+00:00</time>
        <ele>2187.0</ele>
      </trkpt>
      <trkpt lat="45.29633" lon="7.088127">
        <time>2023-04-27T13:42:07+00:00</time>
        <ele>2188.0</ele>
      </trkpt>
      <trkpt lat="45.29636" lon="7.088143">
        <time>2023-04-27T13:42:11+00:00</time>
        <ele>2188.0</ele>
      </trkpt>
      <trkpt lat="45.296378" lon="7.088139">
        <time>2023-04-27T13:42:32+00:00</time>
        <ele>2188.0</ele>
      </trkpt>
      <trkpt lat="45.296405" lon="7.088116">
        <time>2023-04-27T13:42:36+00:00</time>
        <ele>2188.0</ele>
      </trkpt>
      <trkpt lat="45.296434" lon="7.088091">
        <time>2023-04-27T13:42:40+00:00</time>
        <ele>2188.0</ele>
      </trkpt>
      <trkpt lat="45.296479" lon="7.088083">
        <time>2023-04-27T13:42:49+00:00</time>
        <ele>2188.0</ele>
      </trkpt>
      <trkpt lat="45.296511" lon="7.088042">
        <time>2023-04-27T13:42:59+00:00</time>
        <ele>2188.0</ele>
      </trkpt>
      <trkpt lat="45.296533" lon="7.087974">
        <time>2023-04-27T13:43:06+00:00</time>
        <ele>2188.0</ele>
      </trkpt>
      <trkpt lat="45.296561" lon="7.087931">
        <time>2023-04-27T13:43:16+00:00</time>
        <ele>2189.0</ele>
      </trkpt>
      <trkpt lat="45.296573" lon="7.08792">
        <time>2023-04-27T13:43:19+00:00</time>
        <ele>2189.0</ele>
      </trkpt>
      <trkpt lat="45.29658" lon="7.087901">
        <time>2023-04-27T13:43:23+00:00</time>
        <ele>2189.0</ele>
      </trkpt>
      <trkpt lat="45.296599" lon="7.087888">
        <time>2023-04-27T13:43:26+00:00</time>
        <ele>2190.0</ele>
      </trkpt>
      <trkpt lat="45.296608" lon="7.08785">
        <time>2023-04-27T13:43:31+00:00</time>
        <ele>2190.0</ele>
      </trkpt>
      <trkpt lat="45.296607" lon="7.087825">
        <time>2023-04-27T13:43:33+00:00</time>
        <ele>2189.0</ele>
      </trkpt>
      <trkpt lat="45.296622" lon="7.087807">
        <time>2023-04-27T13:43:37+00:00</time>
        <ele>2190.0</ele>
      </trkpt>
      <trkpt lat="45.296615" lon="7.087776">
        <time>2023-04-27T13:43:39+00:00</time>
        <ele>2189.0</ele>
      </trkpt>
      <trkpt lat="45.296632" lon="7.087686">
        <time>2023-04-27T13:43:46+00:00</time>
        <ele>2189.0</ele>
      </trkpt>
      <trkpt lat="45.296647" lon="7.08766">
        <time>2023-04-27T13:43:49+00:00</time>
        <ele>2189.0</ele>
      </trkpt>
      <trkpt lat="45.296662" lon="7.087625">
        <time>2023-04-27T13:43:53+00:00</time>
        <ele>2189.0</ele>
      </trkpt>
      <trkpt lat="45.296665" lon="7.087573">
        <time>2023-04-27T13:43:56+00:00</time>
        <ele>2189.0</ele>
      </trkpt>
      <trkpt lat="45.296688" lon="7.087498">
        <time>2023-04-27T13:44:02+00:00</time>
        <ele>2189.0</ele>
      </trkpt>
      <trkpt lat="45.296716" lon="7.087329">
        <time>2023-04-27T13:44:18+00:00</time>
        <ele>2188.0</ele>
      </trkpt>
      <trkpt lat="45.296734" lon="7.087319">
        <time>2023-04-27T13:44:22+00:00</time>
        <ele>2189.0</ele>
      </trkpt>
      <trkpt lat="45.296729" lon="7.087185">
        <time>2023-04-27T13:44:34+00:00</time>
        <ele>2187.0</ele>
      </trkpt>
      <trkpt lat="45.296772" lon="7.087099">
        <time>2023-04-27T13:44:42+00:00</time>
        <ele>2189.0</ele>
      </trkpt>
      <trkpt lat="45.296791" lon="7.087071">
        <time>2023-04-27T13:44:45+00:00</time>
        <ele>2190.0</ele>
      </trkpt>
      <trkpt lat="45.296794" lon="7.087035">
        <time>2023-04-27T13:44:48+00:00</time>
        <ele>2189.0</ele>
      </trkpt>
      <trkpt lat="45.296807" lon="7.087014">
        <time>2023-04-27T13:44:50+00:00</time>
        <ele>2190.0</ele>
      </trkpt>
      <trkpt lat="45.296819" lon="7.086982">
        <time>2023-04-27T13:44:54+00:00</time>
        <ele>2190.0</ele>
      </trkpt>
      <trkpt lat="45.296841" lon="7.0868">
        <time>2023-04-27T13:45:09+00:00</time>
        <ele>2189.0</ele>
      </trkpt>
      <trkpt lat="45.296876" lon="7.086649">
        <time>2023-04-27T13:45:24+00:00</time>
        <ele>2190.0</ele>
      </trkpt>
      <trkpt lat="45.296883" lon="7.086583">
        <time>2023-04-27T13:45:30+00:00</time>
        <ele>2190.0</ele>
      </trkpt>
      <trkpt lat="45.296886" lon="7.08655">
        <time>2023-04-27T13:45:33+00:00</time>
        <ele>2190.0</ele>
      </trkpt>
      <trkpt lat="45.296967" lon="7.086398">
        <time>2023-04-27T13:45:48+00:00</time>
        <ele>2194.0</ele>
      </trkpt>
      <trkpt lat="45.296977" lon="7.086356">
        <time>2023-04-27T13:45:53+00:00</time>
        <ele>2195.0</ele>
      </trkpt>
      <trkpt lat="45.296984" lon="7.086319">
        <time>2023-04-27T13:45:56+00:00</time>
        <ele>2195.0</ele>
      </trkpt>
      <trkpt lat="45.29698" lon="7.086292">
        <time>2023-04-27T13:45:59+00:00</time>
        <ele>2194.0</ele>
      </trkpt>
      <trkpt lat="45.296987" lon="7.086267">
        <time>2023-04-27T13:46:01+00:00</time>
        <ele>2195.0</ele>
      </trkpt>
      <trkpt lat="45.29699" lon="7.086157">
        <time>2023-04-27T13:46:12+00:00</time>
        <ele>2194.0</ele>
      </trkpt>
      <trkpt lat="45.296995" lon="7.086132">
        <time>2023-04-27T13:46:14+00:00</time>
        <ele>2194.0</ele>
      </trkpt>
      <trkpt lat="45.297002" lon="7.086044">
        <time>2023-04-27T13:46:21+00:00</time>
        <ele>2195.0</ele>
      </trkpt>
      <trkpt lat="45.296997" lon="7.085983">
        <time>2023-04-27T13:46:26+00:00</time>
        <ele>2194.0</ele>
      </trkpt>
      <trkpt lat="45.296993" lon="7.085952">
        <time>2023-04-27T13:46:28+00:00</time>
        <ele>2194.0</ele>
      </trkpt>
      <trkpt lat="45.297019" lon="7.085897">
        <time>2023-04-27T13:46:35+00:00</time>
        <ele>2195.0</ele>
      </trkpt>
      <trkpt lat="45.297015" lon="7.085865">
        <time>2023-04-27T13:46:38+00:00</time>
        <ele>2195.0</ele>
      </trkpt>
      <trkpt lat="45.297031" lon="7.085781">
        <time>2023-04-27T13:46:46+00:00</time>
        <ele>2196.0</ele>
      </trkpt>
      <trkpt lat="45.297032" lon="7.085745">
        <time>2023-04-27T13:46:48+00:00</time>
        <ele>2196.0</ele>
      </trkpt>
      <trkpt lat="45.29702" lon="7.085645">
        <time>2023-04-27T13:46:57+00:00</time>
        <ele>2196.0</ele>
      </trkpt>
      <trkpt lat="45.297001" lon="7.085618">
        <time>2023-04-27T13:47:01+00:00</time>
        <ele>2195.0</ele>
      </trkpt>
      <trkpt lat="45.296995" lon="7.085586">
        <time>2023-04-27T13:47:06+00:00</time>
        <ele>2195.0</ele>
      </trkpt>
      <trkpt lat="45.296982" lon="7.085564">
        <time>2023-04-27T13:47:09+00:00</time>
        <ele>2194.0</ele>
      </trkpt>
      <trkpt lat="45.296962" lon="7.08554">
        <time>2023-04-27T13:47:13+00:00</time>
        <ele>2194.0</ele>
      </trkpt>
      <trkpt lat="45.296961" lon="7.085497">
        <time>2023-04-27T13:47:16+00:00</time>
        <ele>2194.0</ele>
      </trkpt>
      <trkpt lat="45.296949" lon="7.085464">
        <time>2023-04-27T13:47:19+00:00</time>
        <ele>2194.0</ele>
      </trkpt>
      <trkpt lat="45.296908" lon="7.085334">
        <time>2023-04-27T13:47:32+00:00</time>
        <ele>2194.0</ele>
      </trkpt>
      <trkpt lat="45.296898" lon="7.085288">
        <time>2023-04-27T13:47:36+00:00</time>
        <ele>2194.0</ele>
      </trkpt>
      <trkpt lat="45.296878" lon="7.085249">
        <time>2023-04-27T13:47:41+00:00</time>
        <ele>2194.0</ele>
      </trkpt>
      <trkpt lat="45.296873" lon="7.085216">
        <time>2023-04-27T13:47:44+00:00</time>
        <ele>2194.0</ele>
      </trkpt>
      <trkpt lat="45.296813" lon="7.084893">
        <time>2023-04-27T13:48:12+00:00</time>
        <ele>2196.0</ele>
      </trkpt>
      <trkpt lat="45.29681" lon="7.084844">
        <time>2023-04-27T13:48:16+00:00</time>
        <ele>2196.0</ele>
      </trkpt>
      <trkpt lat="45.296809" lon="7.08481">
        <time>2023-04-27T13:48:23+00:00</time>
        <ele>2197.0</ele>
      </trkpt>
      <trkpt lat="45.296808" lon="7.084773">
        <time>2023-04-27T13:48:28+00:00</time>
        <ele>2197.0</ele>
      </trkpt>
      <trkpt lat="45.296808" lon="7.084727">
        <time>2023-04-27T13:48:31+00:00</time>
        <ele>2198.0</ele>
      </trkpt>
      <trkpt lat="45.296795" lon="7.084706">
        <time>2023-04-27T13:48:42+00:00</time>
        <ele>2197.0</ele>
      </trkpt>
      <trkpt lat="45.296791" lon="7.084633">
        <time>2023-04-27T13:48:58+00:00</time>
        <ele>2198.0</ele>
      </trkpt>
      <trkpt lat="45.296771" lon="7.084587">
        <time>2023-04-27T13:49:11+00:00</time>
        <ele>2198.0</ele>
      </trkpt>
      <trkpt lat="45.296772" lon="7.084554">
        <time>2023-04-27T13:49:18+00:00</time>
        <ele>2199.0</ele>
      </trkpt>
      <trkpt lat="45.296782" lon="7.084519">
        <time>2023-04-27T13:49:21+00:00</time>
        <ele>2200.0</ele>
      </trkpt>
      <trkpt lat="45.296805" lon="7.084501">
        <time>2023-04-27T13:49:26+00:00</time>
        <ele>2200.0</ele>
      </trkpt>
      <trkpt lat="45.296832" lon="7.084451">
        <time>2023-04-27T13:49:32+00:00</time>
        <ele>2201.0</ele>
      </trkpt>
      <trkpt lat="45.296858" lon="7.084359">
        <time>2023-04-27T13:49:46+00:00</time>
        <ele>2203.0</ele>
      </trkpt>
      <trkpt lat="45.29691" lon="7.084293">
        <time>2023-04-27T13:49:56+00:00</time>
        <ele>2205.0</ele>
      </trkpt>
      <trkpt lat="45.296931" lon="7.084287">
        <time>2023-04-27T13:49:59+00:00</time>
        <ele>2205.0</ele>
      </trkpt>
      <trkpt lat="45.296954" lon="7.084284">
        <time>2023-04-27T13:50:02+00:00</time>
        <ele>2206.0</ele>
      </trkpt>
      <trkpt lat="45.296971" lon="7.084269">
        <time>2023-04-27T13:50:07+00:00</time>
        <ele>2206.0</ele>
      </trkpt>
      <trkpt lat="45.297043" lon="7.084265">
        <time>2023-04-27T13:50:23+00:00</time>
        <ele>2208.0</ele>
      </trkpt>
      <trkpt lat="45.297083" lon="7.084254">
        <time>2023-04-27T13:50:28+00:00</time>
        <ele>2209.0</ele>
      </trkpt>
      <trkpt lat="45.297107" lon="7.084249">
        <time>2023-04-27T13:50:51+00:00</time>
        <ele>2209.0</ele>
      </trkpt>
      <trkpt lat="45.297109" lon="7.084287">
        <time>2023-04-27T13:50:57+00:00</time>
        <ele>2209.0</ele>
      </trkpt>
      <trkpt lat="45.297161" lon="7.084342">
        <time>2023-04-27T13:53:31+00:00</time>
        <ele>2210.0</ele>
      </trkpt>
      <trkpt lat="45.297123" lon="7.084377">
        <time>2023-04-27T14:10:47+00:00</time>
        <ele>2209.0</ele>
      </trkpt>
      <trkpt lat="45.297123" lon="7.084377">
        <time>2023-04-27T14:10:48+00:00</time>
        <ele>2209.0</ele>
      </trkpt>
      <trkpt lat="45.29717" lon="7.084337">
        <time>2023-04-27T14:11:32+00:00</time>
        <ele>2210.0</ele>
      </trkpt>
      <trkpt lat="45.297161" lon="7.084257">
        <time>2023-04-27T14:11:59+00:00</time>
        <ele>2209.0</ele>
      </trkpt>
      <trkpt lat="45.29712" lon="7.08422">
        <time>2023-04-27T14:12:09+00:00</time>
        <ele>2209.0</ele>
      </trkpt>
      <trkpt lat="45.297127" lon="7.084172">
        <time>2023-04-27T14:12:16+00:00</time>
        <ele>2209.0</ele>
      </trkpt>
      <trkpt lat="45.297153" lon="7.084155">
        <time>2023-04-27T14:12:20+00:00</time>
        <ele>2209.0</ele>
      </trkpt>
      <trkpt lat="45.297183" lon="7.084126">
        <time>2023-04-27T14:12:30+00:00</time>
        <ele>2209.0</ele>
      </trkpt>
      <trkpt lat="45.297165" lon="7.084077">
        <time>2023-04-27T14:14:39+00:00</time>
        <ele>2209.0</ele>
      </trkpt>
      <trkpt lat="45.297179" lon="7.083957">
        <time>2023-04-27T14:14:49+00:00</time>
        <ele>2208.0</ele>
      </trkpt>
      <trkpt lat="45.297172" lon="7.083882">
        <time>2023-04-27T14:14:59+00:00</time>
        <ele>2206.0</ele>
      </trkpt>
      <trkpt lat="45.29715" lon="7.083832">
        <time>2023-04-27T14:15:02+00:00</time>
        <ele>2205.0</ele>
      </trkpt>
      <trkpt lat="45.297247" lon="7.083766">
        <time>2023-04-27T14:15:16+00:00</time>
        <ele>2201.0</ele>
      </trkpt>
      <trkpt lat="45.29725" lon="7.083799">
        <time>2023-04-27T14:16:25+00:00</time>
        <ele>2202.0</ele>
      </trkpt>
      <trkpt lat="45.297308" lon="7.083798">
        <time>2023-04-27T14:16:40+00:00</time>
        <ele>2200.0</ele>
      </trkpt>
      <trkpt lat="45.297374" lon="7.083799">
        <time>2023-04-27T14:16:44+00:00</time>
        <ele>2197.0</ele>
      </trkpt>
      <trkpt lat="45.297544" lon="7.083868">
        <time>2023-04-27T14:16:59+00:00</time>
        <ele>2192.0</ele>
      </trkpt>
      <trkpt lat="45.297695" lon="7.083912">
        <time>2023-04-27T14:17:05+00:00</time>
        <ele>2189.0</ele>
      </trkpt>
      <trkpt lat="45.297717" lon="7.083855">
        <time>2023-04-27T14:17:32+00:00</time>
        <ele>2186.0</ele>
      </trkpt>
      <trkpt lat="45.297605" lon="7.083759">
        <time>2023-04-27T14:17:42+00:00</time>
        <ele>2184.0</ele>
      </trkpt>
      <trkpt lat="45.297565" lon="7.083695">
        <time>2023-04-27T14:17:44+00:00</time>
        <ele>2184.0</ele>
      </trkpt>
      <trkpt lat="45.297552" lon="7.083601">
        <time>2023-04-27T14:17:46+00:00</time>
        <ele>2182.0</ele>
      </trkpt>
      <trkpt lat="45.297595" lon="7.083526">
        <time>2023-04-27T14:17:54+00:00</time>
        <ele>2178.0</ele>
      </trkpt>
      <trkpt lat="45.297628" lon="7.083527">
        <time>2023-04-27T14:17:55+00:00</time>
        <ele>2176.0</ele>
      </trkpt>
      <trkpt lat="45.29766" lon="7.083558">
        <time>2023-04-27T14:17:56+00:00</time>
        <ele>2176.0</ele>
      </trkpt>
      <trkpt lat="45.29774" lon="7.08366">
        <time>2023-04-27T14:18:00+00:00</time>
        <ele>2178.0</ele>
      </trkpt>
      <trkpt lat="45.297792" lon="7.083649">
        <time>2023-04-27T14:18:06+00:00</time>
        <ele>2177.0</ele>
      </trkpt>
      <trkpt lat="45.29819" lon="7.083254">
        <time>2023-04-27T14:18:24+00:00</time>
        <ele>2168.0</ele>
      </trkpt>
      <trkpt lat="45.29824" lon="7.083221">
        <time>2023-04-27T14:18:29+00:00</time>
        <ele>2167.0</ele>
      </trkpt>
      <trkpt lat="45.298338" lon="7.083178">
        <time>2023-04-27T14:18:37+00:00</time>
        <ele>2165.0</ele>
      </trkpt>
      <trkpt lat="45.298374" lon="7.083147">
        <time>2023-04-27T14:18:39+00:00</time>
        <ele>2165.0</ele>
      </trkpt>
      <trkpt lat="45.298421" lon="7.083107">
        <time>2023-04-27T14:18:44+00:00</time>
        <ele>2164.0</ele>
      </trkpt>
      <trkpt lat="45.29846" lon="7.083067">
        <time>2023-04-27T14:18:46+00:00</time>
        <ele>2163.0</ele>
      </trkpt>
      <trkpt lat="45.298435" lon="7.082949">
        <time>2023-04-27T14:18:49+00:00</time>
        <ele>2163.0</ele>
      </trkpt>
      <trkpt lat="45.298435" lon="7.082879">
        <time>2023-04-27T14:18:51+00:00</time>
        <ele>2162.0</ele>
      </trkpt>
      <trkpt lat="45.298509" lon="7.082882">
        <time>2023-04-27T14:18:54+00:00</time>
        <ele>2160.0</ele>
      </trkpt>
      <trkpt lat="45.298522" lon="7.082806">
        <time>2023-04-27T14:18:56+00:00</time>
        <ele>2158.0</ele>
      </trkpt>
      <trkpt lat="45.298583" lon="7.082689">
        <time>2023-04-27T14:18:59+00:00</time>
        <ele>2154.0</ele>
      </trkpt>
      <trkpt lat="45.29863" lon="7.082717">
        <time>2023-04-27T14:19:00+00:00</time>
        <ele>2154.0</ele>
      </trkpt>
      <trkpt lat="45.298752" lon="7.082827">
        <time>2023-04-27T14:19:04+00:00</time>
        <ele>2155.0</ele>
      </trkpt>
      <trkpt lat="45.298795" lon="7.082809">
        <time>2023-04-27T14:19:21+00:00</time>
        <ele>2154.0</ele>
      </trkpt>
      <trkpt lat="45.298885" lon="7.082845">
        <time>2023-04-27T14:19:24+00:00</time>
        <ele>2154.0</ele>
      </trkpt>
      <trkpt lat="45.298925" lon="7.082877">
        <time>2023-04-27T14:19:25+00:00</time>
        <ele>2155.0</ele>
      </trkpt>
      <trkpt lat="45.298966" lon="7.082774">
        <time>2023-04-27T14:19:29+00:00</time>
        <ele>2150.0</ele>
      </trkpt>
      <trkpt lat="45.298929" lon="7.082722">
        <time>2023-04-27T14:19:31+00:00</time>
        <ele>2149.0</ele>
      </trkpt>
      <trkpt lat="45.298987" lon="7.082711">
        <time>2023-04-27T14:19:37+00:00</time>
        <ele>2147.0</ele>
      </trkpt>
      <trkpt lat="45.299039" lon="7.082751">
        <time>2023-04-27T14:19:39+00:00</time>
        <ele>2147.0</ele>
      </trkpt>
      <trkpt lat="45.299023" lon="7.082768">
        <time>2023-04-27T14:19:59+00:00</time>
        <ele>2149.0</ele>
      </trkpt>
      <trkpt lat="45.299095" lon="7.082723">
        <time>2023-04-27T14:20:02+00:00</time>
        <ele>2145.0</ele>
      </trkpt>
      <trkpt lat="45.299306" lon="7.082752">
        <time>2023-04-27T14:20:09+00:00</time>
        <ele>2141.0</ele>
      </trkpt>
      <trkpt lat="45.299522" lon="7.082933">
        <time>2023-04-27T14:20:16+00:00</time>
        <ele>2139.0</ele>
      </trkpt>
      <trkpt lat="45.299591" lon="7.082845">
        <time>2023-04-27T14:20:19+00:00</time>
        <ele>2132.0</ele>
      </trkpt>
      <trkpt lat="45.299564" lon="7.082764">
        <time>2023-04-27T14:20:20+00:00</time>
        <ele>2130.0</ele>
      </trkpt>
      <trkpt lat="45.299365" lon="7.082273">
        <time>2023-04-27T14:20:34+00:00</time>
        <ele>2123.0</ele>
      </trkpt>
      <trkpt lat="45.299359" lon="7.082219">
        <time>2023-04-27T14:20:36+00:00</time>
        <ele>2122.0</ele>
      </trkpt>
      <trkpt lat="45.29938" lon="7.082134">
        <time>2023-04-27T14:20:39+00:00</time>
        <ele>2121.0</ele>
      </trkpt>
      <trkpt lat="45.299425" lon="7.082138">
        <time>2023-04-27T14:20:42+00:00</time>
        <ele>2120.0</ele>
      </trkpt>
      <trkpt lat="45.299474" lon="7.082115">
        <time>2023-04-27T14:20:44+00:00</time>
        <ele>2119.0</ele>
      </trkpt>
      <trkpt lat="45.299516" lon="7.082038">
        <time>2023-04-27T14:20:47+00:00</time>
        <ele>2118.0</ele>
      </trkpt>
      <trkpt lat="45.299505" lon="7.081968">
        <time>2023-04-27T14:20:52+00:00</time>
        <ele>2118.0</ele>
      </trkpt>
      <trkpt lat="45.299509" lon="7.081896">
        <time>2023-04-27T14:20:54+00:00</time>
        <ele>2118.0</ele>
      </trkpt>
      <trkpt lat="45.299514" lon="7.081832">
        <time>2023-04-27T14:21:04+00:00</time>
        <ele>2118.0</ele>
      </trkpt>
      <trkpt lat="45.299529" lon="7.081703">
        <time>2023-04-27T14:21:07+00:00</time>
        <ele>2118.0</ele>
      </trkpt>
      <trkpt lat="45.299576" lon="7.081702">
        <time>2023-04-27T14:21:09+00:00</time>
        <ele>2116.0</ele>
      </trkpt>
      <trkpt lat="45.29967" lon="7.081815">
        <time>2023-04-27T14:21:11+00:00</time>
        <ele>2112.0</ele>
      </trkpt>
      <trkpt lat="45.299767" lon="7.081943">
        <time>2023-04-27T14:21:17+00:00</time>
        <ele>2109.0</ele>
      </trkpt>
      <trkpt lat="45.299805" lon="7.081973">
        <time>2023-04-27T14:21:19+00:00</time>
        <ele>2108.0</ele>
      </trkpt>
      <trkpt lat="45.299815" lon="7.08189">
        <time>2023-04-27T14:21:21+00:00</time>
        <ele>2107.0</ele>
      </trkpt>
      <trkpt lat="45.299678" lon="7.081395">
        <time>2023-04-27T14:21:31+00:00</time>
        <ele>2108.0</ele>
      </trkpt>
      <trkpt lat="45.299751" lon="7.081329">
        <time>2023-04-27T14:21:34+00:00</time>
        <ele>2103.0</ele>
      </trkpt>
      <trkpt lat="45.299815" lon="7.081361">
        <time>2023-04-27T14:21:35+00:00</time>
        <ele>2101.0</ele>
      </trkpt>
      <trkpt lat="45.29986" lon="7.081412">
        <time>2023-04-27T14:21:36+00:00</time>
        <ele>2100.0</ele>
      </trkpt>
      <trkpt lat="45.299905" lon="7.081459">
        <time>2023-04-27T14:21:38+00:00</time>
        <ele>2099.0</ele>
      </trkpt>
      <trkpt lat="45.299968" lon="7.081464">
        <time>2023-04-27T14:21:41+00:00</time>
        <ele>2098.0</ele>
      </trkpt>
      <trkpt lat="45.299991" lon="7.081382">
        <time>2023-04-27T14:21:43+00:00</time>
        <ele>2096.0</ele>
      </trkpt>
      <trkpt lat="45.299984" lon="7.081284">
        <time>2023-04-27T14:21:45+00:00</time>
        <ele>2096.0</ele>
      </trkpt>
      <trkpt lat="45.3" lon="7.081113">
        <time>2023-04-27T14:21:48+00:00</time>
        <ele>2093.0</ele>
      </trkpt>
      <trkpt lat="45.300036" lon="7.081007">
        <time>2023-04-27T14:21:50+00:00</time>
        <ele>2092.0</ele>
      </trkpt>
      <trkpt lat="45.300069" lon="7.080968">
        <time>2023-04-27T14:21:51+00:00</time>
        <ele>2091.0</ele>
      </trkpt>
      <trkpt lat="45.30017" lon="7.08088">
        <time>2023-04-27T14:21:57+00:00</time>
        <ele>2090.0</ele>
      </trkpt>
      <trkpt lat="45.300303" lon="7.08079">
        <time>2023-04-27T14:22:06+00:00</time>
        <ele>2089.0</ele>
      </trkpt>
      <trkpt lat="45.300512" lon="7.080682">
        <time>2023-04-27T14:22:14+00:00</time>
        <ele>2088.0</ele>
      </trkpt>
      <trkpt lat="45.300545" lon="7.080643">
        <time>2023-04-27T14:22:17+00:00</time>
        <ele>2088.0</ele>
      </trkpt>
      <trkpt lat="45.300751" lon="7.080479">
        <time>2023-04-27T14:22:29+00:00</time>
        <ele>2087.0</ele>
      </trkpt>
      <trkpt lat="45.301076" lon="7.080365">
        <time>2023-04-27T14:23:01+00:00</time>
        <ele>2085.0</ele>
      </trkpt>
      <trkpt lat="45.301317" lon="7.080122">
        <time>2023-04-27T14:23:17+00:00</time>
        <ele>2084.0</ele>
      </trkpt>
      <trkpt lat="45.301365" lon="7.080011">
        <time>2023-04-27T14:23:23+00:00</time>
        <ele>2083.0</ele>
      </trkpt>
      <trkpt lat="45.301395" lon="7.079972">
        <time>2023-04-27T14:23:25+00:00</time>
        <ele>2083.0</ele>
      </trkpt>
      <trkpt lat="45.301428" lon="7.079957">
        <time>2023-04-27T14:23:36+00:00</time>
        <ele>2083.0</ele>
      </trkpt>
      <trkpt lat="45.301408" lon="7.079901">
        <time>2023-04-27T14:24:05+00:00</time>
        <ele>2082.0</ele>
      </trkpt>
      <trkpt lat="45.301436" lon="7.079888">
        <time>2023-04-27T14:28:38+00:00</time>
        <ele>2082.0</ele>
      </trkpt>
      <trkpt lat="45.301411" lon="7.079847">
        <time>2023-04-27T14:28:56+00:00</time>
        <ele>2082.0</ele>
      </trkpt>
      <trkpt lat="45.30137" lon="7.07985">
        <time>2023-04-27T14:29:08+00:00</time>
        <ele>2082.0</ele>
      </trkpt>
      <trkpt lat="45.301374" lon="7.079796">
        <time>2023-04-27T14:29:26+00:00</time>
        <ele>2081.0</ele>
      </trkpt>
      <trkpt lat="45.301342" lon="7.07979">
        <time>2023-04-27T14:30:06+00:00</time>
        <ele>2081.0</ele>
      </trkpt>
      <trkpt lat="45.301347" lon="7.079835">
        <time>2023-04-27T14:30:12+00:00</time>
        <ele>2081.0</ele>
      </trkpt>
    </trkseg>
  </trk>
</gpx>
